﻿<?xml version="1.0" encoding="utf-8"?><gpx creator="Garmin Desktop App" version="1.1" xsi:schemaLocation="http://www.topografix.com/GPX/1/1 http://www.topografix.com/GPX/1/1/gpx.xsd http://www.garmin.com/xmlschemas/WaypointExtension/v1 http://www8.garmin.com/xmlschemas/WaypointExtensionv1.xsd http://www.garmin.com/xmlschemas/TrackPointExtension/v1 http://www.garmin.com/xmlschemas/TrackPointExtensionv1.xsd http://www.garmin.com/xmlschemas/GpxExtensions/v3 http://www8.garmin.com/xmlschemas/GpxExtensionsv3.xsd http://www.garmin.com/xmlschemas/ActivityExtension/v1 http://www8.garmin.com/xmlschemas/ActivityExtensionv1.xsd http://www.garmin.com/xmlschemas/AdventuresExtensions/v1 http://www8.garmin.com/xmlschemas/AdventuresExtensionv1.xsd http://www.garmin.com/xmlschemas/PressureExtension/v1 http://www.garmin.com/xmlschemas/PressureExtensionv1.xsd http://www.garmin.com/xmlschemas/TripExtensions/v1 http://www.garmin.com/xmlschemas/TripExtensionsv1.xsd http://www.garmin.com/xmlschemas/TripMetaDataExtensions/v1 http://www.garmin.com/xmlschemas/TripMetaDataExtensionsv1.xsd http://www.garmin.com/xmlschemas/ViaPointTransportationModeExtensions/v1 http://www.garmin.com/xmlschemas/ViaPointTransportationModeExtensionsv1.xsd http://www.garmin.com/xmlschemas/CreationTimeExtension/v1 http://www.garmin.com/xmlschemas/CreationTimeExtensionsv1.xsd http://www.garmin.com/xmlschemas/AccelerationExtension/v1 http://www.garmin.com/xmlschemas/AccelerationExtensionv1.xsd http://www.garmin.com/xmlschemas/PowerExtension/v1 http://www.garmin.com/xmlschemas/PowerExtensionv1.xsd http://www.garmin.com/xmlschemas/VideoExtension/v1 http://www.garmin.com/xmlschemas/VideoExtensionv1.xsd" xmlns="http://www.topografix.com/GPX/1/1" xmlns:xsi="http://www.w3.org/2001/XMLSchema-instance" xmlns:wptx1="http://www.garmin.com/xmlschemas/WaypointExtension/v1" xmlns:gpxtrx="http://www.garmin.com/xmlschemas/GpxExtensions/v3" xmlns:gpxtpx="http://www.garmin.com/xmlschemas/TrackPointExtension/v1" xmlns:gpxx="http://www.garmin.com/xmlschemas/GpxExtensions/v3" xmlns:trp="http://www.garmin.com/xmlschemas/TripExtensions/v1" xmlns:adv="http://www.garmin.com/xmlschemas/AdventuresExtensions/v1" xmlns:prs="http://www.garmin.com/xmlschemas/PressureExtension/v1" xmlns:tmd="http://www.garmin.com/xmlschemas/TripMetaDataExtensions/v1" xmlns:vptm="http://www.garmin.com/xmlschemas/ViaPointTransportationModeExtensions/v1" xmlns:ctx="http://www.garmin.com/xmlschemas/CreationTimeExtension/v1" xmlns:gpxacc="http://www.garmin.com/xmlschemas/AccelerationExtension/v1" xmlns:gpxpx="http://www.garmin.com/xmlschemas/PowerExtension/v1" xmlns:vidx1="http://www.garmin.com/xmlschemas/VideoExtension/v1">

  <metadata>
    <link href="http://www.garmin.com">
      <text>Garmin International</text>
    </link>
    <time>2021-01-27T11:01:20Z</time>
    <bounds maxlat="46.20468039996922" maxlon="10.606437474489212" minlat="46.163091156631708" minlon="10.542054399847984" />
  </metadata>

  <trk>
    <name>caduti-admello-ghiacciaio-malga-bedole2-8-2015</name>
    <extensions>
      <gpxx:TrackExtension>
        <gpxx:DisplayColor>Yellow</gpxx:DisplayColor>
      </gpxx:TrackExtension>
      <gpxtrkx:TrackStatsExtension xmlns:gpxtrkx="http://www.garmin.com/xmlschemas/TrackStatsExtension/v1">
        <gpxtrkx:Distance>15419</gpxtrkx:Distance>
        <gpxtrkx:TotalElapsedTime>122476</gpxtrkx:TotalElapsedTime>
        <gpxtrkx:MovingTime>16670</gpxtrkx:MovingTime>
        <gpxtrkx:StoppedTime>12438</gpxtrkx:StoppedTime>
        <gpxtrkx:MovingSpeed>1</gpxtrkx:MovingSpeed>
        <gpxtrkx:MaxSpeed>3</gpxtrkx:MaxSpeed>
        <gpxtrkx:MaxElevation>3031</gpxtrkx:MaxElevation>
        <gpxtrkx:MinElevation>384</gpxtrkx:MinElevation>
        <gpxtrkx:Ascent>226</gpxtrkx:Ascent>
        <gpxtrkx:Descent>1497</gpxtrkx:Descent>
        <gpxtrkx:AvgAscentRate>0</gpxtrkx:AvgAscentRate>
        <gpxtrkx:MaxAscentRate>0</gpxtrkx:MaxAscentRate>
        <gpxtrkx:AvgDescentRate>0</gpxtrkx:AvgDescentRate>
        <gpxtrkx:MaxDescentRate>-0</gpxtrkx:MaxDescentRate>
      </gpxtrkx:TrackStatsExtension>
    </extensions>
    <trkseg>
      <trkpt lat="46.167735066264868" lon="10.554157868027687">
        <ele>2857.6599999999999</ele>
        <time>2015-08-02T06:36:38Z</time>
      </trkpt>
      <trkpt lat="46.16767949424684" lon="10.554168848320842">
        <ele>2868.23</ele>
        <time>2015-08-02T06:36:39Z</time>
      </trkpt>
      <trkpt lat="46.167690642178059" lon="10.554145378991961">
        <ele>2867.27</ele>
        <time>2015-08-02T06:36:41Z</time>
      </trkpt>
      <trkpt lat="46.167754093185067" lon="10.554065918549895">
        <ele>2866.79</ele>
        <time>2015-08-02T06:36:56Z</time>
      </trkpt>
      <trkpt lat="46.167746130377054" lon="10.554061392322183">
        <ele>2866.79</ele>
        <time>2015-08-02T06:37:15Z</time>
      </trkpt>
      <trkpt lat="46.167773203924298" lon="10.5540881305933">
        <ele>2866.79</ele>
        <time>2015-08-02T06:37:29Z</time>
      </trkpt>
      <trkpt lat="46.167767839506269" lon="10.55405636318028">
        <ele>2866.79</ele>
        <time>2015-08-02T06:37:39Z</time>
      </trkpt>
      <trkpt lat="46.167772281914949" lon="10.55410522967577">
        <ele>2866.79</ele>
        <time>2015-08-02T06:37:52Z</time>
      </trkpt>
      <trkpt lat="46.167781753465533" lon="10.554085448384285">
        <ele>2866.79</ele>
        <time>2015-08-02T06:38:07Z</time>
      </trkpt>
      <trkpt lat="46.167786614969373" lon="10.554089471697807">
        <ele>2866.79</ele>
        <time>2015-08-02T06:38:28Z</time>
      </trkpt>
      <trkpt lat="46.167797930538654" lon="10.554056446999311">
        <ele>2866.79</ele>
        <time>2015-08-02T06:38:49Z</time>
      </trkpt>
      <trkpt lat="46.16778259165585" lon="10.554055692628026">
        <ele>2866.79</ele>
        <time>2015-08-02T06:39:05Z</time>
      </trkpt>
      <trkpt lat="46.16776205599308" lon="10.553984278813004">
        <ele>2866.79</ele>
        <time>2015-08-02T06:39:16Z</time>
      </trkpt>
      <trkpt lat="46.167737077921629" lon="10.553897358477116">
        <ele>2866.3099999999999</ele>
        <time>2015-08-02T06:39:26Z</time>
      </trkpt>
      <trkpt lat="46.167726768180728" lon="10.553808258846402">
        <ele>2865.8299999999999</ele>
        <time>2015-08-02T06:39:34Z</time>
      </trkpt>
      <trkpt lat="46.167705310508609" lon="10.553705664351583">
        <ele>2865.3499999999999</ele>
        <time>2015-08-02T06:39:45Z</time>
      </trkpt>
      <trkpt lat="46.167664406821132" lon="10.553632322698832">
        <ele>2865.8299999999999</ele>
        <time>2015-08-02T06:39:56Z</time>
      </trkpt>
      <trkpt lat="46.167656276375055" lon="10.553523190319538">
        <ele>2865.8299999999999</ele>
        <time>2015-08-02T06:40:07Z</time>
      </trkpt>
      <trkpt lat="46.1676418595016" lon="10.553434425964952">
        <ele>2865.8299999999999</ele>
        <time>2015-08-02T06:40:18Z</time>
      </trkpt>
      <trkpt lat="46.16764429025352" lon="10.553322862833738">
        <ele>2865.8299999999999</ele>
        <time>2015-08-02T06:40:29Z</time>
      </trkpt>
      <trkpt lat="46.1676384229213" lon="10.553230242803693">
        <ele>2865.3499999999999</ele>
        <time>2015-08-02T06:40:39Z</time>
      </trkpt>
      <trkpt lat="46.167625347152352" lon="10.553142400458455">
        <ele>2865.8299999999999</ele>
        <time>2015-08-02T06:40:51Z</time>
      </trkpt>
      <trkpt lat="46.167615624144673" lon="10.553049277514219">
        <ele>2866.3099999999999</ele>
        <time>2015-08-02T06:41:03Z</time>
      </trkpt>
      <trkpt lat="46.167621659114957" lon="10.552974678575993">
        <ele>2866.3099999999999</ele>
        <time>2015-08-02T06:41:13Z</time>
      </trkpt>
      <trkpt lat="46.167611684650183" lon="10.552875185385346">
        <ele>2866.79</ele>
        <time>2015-08-02T06:41:24Z</time>
      </trkpt>
      <trkpt lat="46.167604979127645" lon="10.552775105461478">
        <ele>2867.27</ele>
        <time>2015-08-02T06:41:35Z</time>
      </trkpt>
      <trkpt lat="46.167596010491252" lon="10.552670331671834">
        <ele>2867.75</ele>
        <time>2015-08-02T06:41:46Z</time>
      </trkpt>
      <trkpt lat="46.167583186179399" lon="10.552622890099883">
        <ele>2867.75</ele>
        <time>2015-08-02T06:41:52Z</time>
      </trkpt>
      <trkpt lat="46.167562231421471" lon="10.552511662244797">
        <ele>2868.23</ele>
        <time>2015-08-02T06:42:05Z</time>
      </trkpt>
      <trkpt lat="46.167526775971055" lon="10.552433794364333">
        <ele>2868.71</ele>
        <time>2015-08-02T06:42:17Z</time>
      </trkpt>
      <trkpt lat="46.167492996901274" lon="10.552407391369343">
        <ele>2869.1900000000001</ele>
        <time>2015-08-02T06:42:25Z</time>
      </trkpt>
      <trkpt lat="46.167436251416802" lon="10.55235936306417">
        <ele>2869.1900000000001</ele>
        <time>2015-08-02T06:42:35Z</time>
      </trkpt>
      <trkpt lat="46.167420577257872" lon="10.552282584831119">
        <ele>2869.6700000000001</ele>
        <time>2015-08-02T06:42:46Z</time>
      </trkpt>
      <trkpt lat="46.16740632802248" lon="10.552207818254828">
        <ele>2870.1500000000001</ele>
        <time>2015-08-02T06:42:54Z</time>
      </trkpt>
      <trkpt lat="46.167360059916973" lon="10.552132884040475">
        <ele>2870.6300000000001</ele>
        <time>2015-08-02T06:43:07Z</time>
      </trkpt>
      <trkpt lat="46.167293339967728" lon="10.552072450518608">
        <ele>2871.1100000000001</ele>
        <time>2015-08-02T06:43:20Z</time>
      </trkpt>
      <trkpt lat="46.167242042720318" lon="10.552028110250831">
        <ele>2871.5999999999999</ele>
        <time>2015-08-02T06:43:30Z</time>
      </trkpt>
      <trkpt lat="46.167221255600452" lon="10.552022745832801">
        <ele>2871.5999999999999</ele>
        <time>2015-08-02T06:43:33Z</time>
      </trkpt>
      <trkpt lat="46.167171215638518" lon="10.551964323967695">
        <ele>2872.0799999999999</ele>
        <time>2015-08-02T06:43:44Z</time>
      </trkpt>
      <trkpt lat="46.16715956479311" lon="10.551956193521619">
        <ele>2872.5599999999999</ele>
        <time>2015-08-02T06:43:46Z</time>
      </trkpt>
      <trkpt lat="46.167134502902627" lon="10.551865249872208">
        <ele>2872.5599999999999</ele>
        <time>2015-08-02T06:43:57Z</time>
      </trkpt>
      <trkpt lat="46.167111452668905" lon="10.551804145798087">
        <ele>2873.04</ele>
        <time>2015-08-02T06:44:06Z</time>
      </trkpt>
      <trkpt lat="46.167054874822497" lon="10.551741365343332">
        <ele>2873.04</ele>
        <time>2015-08-02T06:44:17Z</time>
      </trkpt>
      <trkpt lat="46.167013049125671" lon="10.551697527989745">
        <ele>2873.52</ele>
        <time>2015-08-02T06:44:27Z</time>
      </trkpt>
      <trkpt lat="46.166963763535023" lon="10.551630388945341">
        <ele>2874.96</ele>
        <time>2015-08-02T06:44:37Z</time>
      </trkpt>
      <trkpt lat="46.166933672502637" lon="10.551559729501605">
        <ele>2874</ele>
        <time>2015-08-02T06:44:47Z</time>
      </trkpt>
      <trkpt lat="46.166917746886611" lon="10.551522932946682">
        <ele>2874.48</ele>
        <time>2015-08-02T06:44:51Z</time>
      </trkpt>
      <trkpt lat="46.166879022493958" lon="10.551443891599774">
        <ele>2874.96</ele>
        <time>2015-08-02T06:45:02Z</time>
      </trkpt>
      <trkpt lat="46.166834430769086" lon="10.551361748948693">
        <ele>2875.4400000000001</ele>
        <time>2015-08-02T06:45:13Z</time>
      </trkpt>
      <trkpt lat="46.166800484061241" lon="10.551204336807132">
        <ele>2875.9200000000001</ele>
        <time>2015-08-02T06:45:27Z</time>
      </trkpt>
      <trkpt lat="46.1667559761554" lon="10.551127977669239">
        <ele>2875.9200000000001</ele>
        <time>2015-08-02T06:45:38Z</time>
      </trkpt>
      <trkpt lat="46.166751282289624" lon="10.551103251054883">
        <ele>2875.9200000000001</ele>
        <time>2015-08-02T06:45:40Z</time>
      </trkpt>
      <trkpt lat="46.166734434664249" lon="10.551036363467574">
        <ele>2876.4000000000001</ele>
        <time>2015-08-02T06:45:49Z</time>
      </trkpt>
      <trkpt lat="46.166705265641212" lon="10.550975175574422">
        <ele>2875.9200000000001</ele>
        <time>2015-08-02T06:45:58Z</time>
      </trkpt>
      <trkpt lat="46.166702331975102" lon="10.550925470888615">
        <ele>2876.4000000000001</ele>
        <time>2015-08-02T06:46:08Z</time>
      </trkpt>
      <trkpt lat="46.166698057204485" lon="10.55093452334404">
        <ele>2876.8800000000001</ele>
        <time>2015-08-02T06:46:23Z</time>
      </trkpt>
      <trkpt lat="46.166704092174768" lon="10.550935780629516">
        <ele>2876.8800000000001</ele>
        <time>2015-08-02T06:46:34Z</time>
      </trkpt>
      <trkpt lat="46.166697386652231" lon="10.550933936610818">
        <ele>2875.9200000000001</ele>
        <time>2015-08-02T06:46:41Z</time>
      </trkpt>
      <trkpt lat="46.166673162952065" lon="10.550929494202137">
        <ele>2875.4400000000001</ele>
        <time>2015-08-02T06:46:56Z</time>
      </trkpt>
      <trkpt lat="46.166653214022517" lon="10.550943911075592">
        <ele>2875.9200000000001</ele>
        <time>2015-08-02T06:47:13Z</time>
      </trkpt>
      <trkpt lat="46.166685568168759" lon="10.550918933004141">
        <ele>2876.8800000000001</ele>
        <time>2015-08-02T06:47:21Z</time>
      </trkpt>
      <trkpt lat="46.166739212349057" lon="10.550923123955727">
        <ele>2876.8800000000001</ele>
        <time>2015-08-02T06:47:32Z</time>
      </trkpt>
      <trkpt lat="46.166728567332029" lon="10.550912814214826">
        <ele>2876.8800000000001</ele>
        <time>2015-08-02T06:47:47Z</time>
      </trkpt>
      <trkpt lat="46.166734350845218" lon="10.550913233309984">
        <ele>2876.8800000000001</ele>
        <time>2015-08-02T06:48:00Z</time>
      </trkpt>
      <trkpt lat="46.166742397472262" lon="10.550928572192788">
        <ele>2876.4000000000001</ele>
        <time>2015-08-02T06:48:20Z</time>
      </trkpt>
      <trkpt lat="46.166722867637873" lon="10.550891272723675">
        <ele>2876.8800000000001</ele>
        <time>2015-08-02T06:48:41Z</time>
      </trkpt>
      <trkpt lat="46.16669587790966" lon="10.550879957154393">
        <ele>2876.8800000000001</ele>
        <time>2015-08-02T06:48:54Z</time>
      </trkpt>
      <trkpt lat="46.166690597310662" lon="10.550927314907312">
        <ele>2876.4000000000001</ele>
        <time>2015-08-02T06:49:09Z</time>
      </trkpt>
      <trkpt lat="46.166705684736371" lon="10.550927566364408">
        <ele>2876.4000000000001</ele>
        <time>2015-08-02T06:49:22Z</time>
      </trkpt>
      <trkpt lat="46.166686825454235" lon="10.550949275493622">
        <ele>2876.4000000000001</ele>
        <time>2015-08-02T06:49:44Z</time>
      </trkpt>
      <trkpt lat="46.166688334196806" lon="10.550933433696628">
        <ele>2876.4000000000001</ele>
        <time>2015-08-02T06:50:00Z</time>
      </trkpt>
      <trkpt lat="46.166689088568091" lon="10.550915496423841">
        <ele>2876.4000000000001</ele>
        <time>2015-08-02T06:50:21Z</time>
      </trkpt>
      <trkpt lat="46.166698895394802" lon="10.550925387069583">
        <ele>2876.4000000000001</ele>
        <time>2015-08-02T06:50:50Z</time>
      </trkpt>
      <trkpt lat="46.166700823232532" lon="10.550931673496962">
        <ele>2876.4000000000001</ele>
        <time>2015-08-02T06:51:03Z</time>
      </trkpt>
      <trkpt lat="46.166676515713334" lon="10.550920609384775">
        <ele>2876.4000000000001</ele>
        <time>2015-08-02T06:51:14Z</time>
      </trkpt>
      <trkpt lat="46.166677353903651" lon="10.550915244966745">
        <ele>2876.4000000000001</ele>
        <time>2015-08-02T06:51:29Z</time>
      </trkpt>
      <trkpt lat="46.166647765785456" lon="10.550867132842541">
        <ele>2876.4000000000001</ele>
        <time>2015-08-02T06:51:35Z</time>
      </trkpt>
      <trkpt lat="46.166623374447227" lon="10.550775853917003">
        <ele>2875.9200000000001</ele>
        <time>2015-08-02T06:51:43Z</time>
      </trkpt>
      <trkpt lat="46.166589763015509" lon="10.550697902217507">
        <ele>2876.4000000000001</ele>
        <time>2015-08-02T06:51:53Z</time>
      </trkpt>
      <trkpt lat="46.166569562628865" lon="10.550637133419514">
        <ele>2876.4000000000001</ele>
        <time>2015-08-02T06:51:59Z</time>
      </trkpt>
      <trkpt lat="46.16655413992703" lon="10.550539065152407">
        <ele>2876.4000000000001</ele>
        <time>2015-08-02T06:52:10Z</time>
      </trkpt>
      <trkpt lat="46.166562857106328" lon="10.550463628023863">
        <ele>2876.4000000000001</ele>
        <time>2015-08-02T06:52:18Z</time>
      </trkpt>
      <trkpt lat="46.166558833792806" lon="10.550398249179125">
        <ele>2876.4000000000001</ele>
        <time>2015-08-02T06:52:26Z</time>
      </trkpt>
      <trkpt lat="46.166560426354408" lon="10.550313172861934">
        <ele>2875.9200000000001</ele>
        <time>2015-08-02T06:52:36Z</time>
      </trkpt>
      <trkpt lat="46.166547015309334" lon="10.55021426640451">
        <ele>2875.9200000000001</ele>
        <time>2015-08-02T06:52:47Z</time>
      </trkpt>
      <trkpt lat="46.166537124663591" lon="10.550202364102006">
        <ele>2875.9200000000001</ele>
        <time>2015-08-02T06:52:49Z</time>
      </trkpt>
      <trkpt lat="46.166546596214175" lon="10.550098847597837">
        <ele>2876.4000000000001</ele>
        <time>2015-08-02T06:52:59Z</time>
      </trkpt>
      <trkpt lat="46.166548188775778" lon="10.550087364390492">
        <ele>2876.4000000000001</ele>
        <time>2015-08-02T06:53:00Z</time>
      </trkpt>
      <trkpt lat="46.166540728881955" lon="10.549957025796175">
        <ele>2876.4000000000001</ele>
        <time>2015-08-02T06:53:13Z</time>
      </trkpt>
      <trkpt lat="46.166510973125696" lon="10.549869937822223">
        <ele>2875.9200000000001</ele>
        <time>2015-08-02T06:53:23Z</time>
      </trkpt>
      <trkpt lat="46.166506530717015" lon="10.549864154309034">
        <ele>2876.4000000000001</ele>
        <time>2015-08-02T06:53:24Z</time>
      </trkpt>
      <trkpt lat="46.166504351422191" lon="10.549756698310375">
        <ele>2876.8800000000001</ele>
        <time>2015-08-02T06:53:35Z</time>
      </trkpt>
      <trkpt lat="46.166509129106998" lon="10.549716968089342">
        <ele>2876.8800000000001</ele>
        <time>2015-08-02T06:53:40Z</time>
      </trkpt>
      <trkpt lat="46.166510134935379" lon="10.549625437706709">
        <ele>2876.8800000000001</ele>
        <time>2015-08-02T06:53:49Z</time>
      </trkpt>
      <trkpt lat="46.166489934548736" lon="10.549537762999535">
        <ele>2876.8800000000001</ele>
        <time>2015-08-02T06:53:59Z</time>
      </trkpt>
      <trkpt lat="46.166485073044896" lon="10.54944371804595">
        <ele>2877.3600000000001</ele>
        <time>2015-08-02T06:54:10Z</time>
      </trkpt>
      <trkpt lat="46.16644911468029" lon="10.549378423020244">
        <ele>2877.8400000000001</ele>
        <time>2015-08-02T06:54:19Z</time>
      </trkpt>
      <trkpt lat="46.166414497420192" lon="10.549323856830597">
        <ele>2877.8400000000001</ele>
        <time>2015-08-02T06:54:26Z</time>
      </trkpt>
      <trkpt lat="46.166392704471946" lon="10.549218999221921">
        <ele>2877.8400000000001</ele>
        <time>2015-08-02T06:54:37Z</time>
      </trkpt>
      <trkpt lat="46.166385747492313" lon="10.549150519073009">
        <ele>2878.3200000000002</ele>
        <time>2015-08-02T06:54:46Z</time>
      </trkpt>
      <trkpt lat="46.166371079161763" lon="10.549037698656321">
        <ele>2878.3200000000002</ele>
        <time>2015-08-02T06:54:57Z</time>
      </trkpt>
      <trkpt lat="46.166341323405504" lon="10.548956813290715">
        <ele>2878.8099999999999</ele>
        <time>2015-08-02T06:55:07Z</time>
      </trkpt>
      <trkpt lat="46.166317770257592" lon="10.548883303999901">
        <ele>2878.8099999999999</ele>
        <time>2015-08-02T06:55:17Z</time>
      </trkpt>
      <trkpt lat="46.166300838813186" lon="10.548810046166182">
        <ele>2879.29</ele>
        <time>2015-08-02T06:55:27Z</time>
      </trkpt>
      <trkpt lat="46.166269155219197" lon="10.54872932843864">
        <ele>2879.29</ele>
        <time>2015-08-02T06:55:36Z</time>
      </trkpt>
      <trkpt lat="46.166261779144406" lon="10.548672918230295">
        <ele>2879.77</ele>
        <time>2015-08-02T06:55:48Z</time>
      </trkpt>
      <trkpt lat="46.166232023388147" lon="10.54863796569407">
        <ele>2879.77</ele>
        <time>2015-08-02T06:55:56Z</time>
      </trkpt>
      <trkpt lat="46.166235962882638" lon="10.548588261008263">
        <ele>2879.77</ele>
        <time>2015-08-02T06:56:04Z</time>
      </trkpt>
      <trkpt lat="46.166212325915694" lon="10.548577951267362">
        <ele>2879.77</ele>
        <time>2015-08-02T06:56:13Z</time>
      </trkpt>
      <trkpt lat="46.166170248761773" lon="10.548505866900086">
        <ele>2879.77</ele>
        <time>2015-08-02T06:56:23Z</time>
      </trkpt>
      <trkpt lat="46.166127165779471" lon="10.548481559380889">
        <ele>2879.77</ele>
        <time>2015-08-02T06:56:30Z</time>
      </trkpt>
      <trkpt lat="46.166074443608522" lon="10.548396902158856">
        <ele>2880.25</ele>
        <time>2015-08-02T06:56:40Z</time>
      </trkpt>
      <trkpt lat="46.166033037006855" lon="10.548343425616622">
        <ele>2880.25</ele>
        <time>2015-08-02T06:56:48Z</time>
      </trkpt>
      <trkpt lat="46.165986182168126" lon="10.548290032893419">
        <ele>2880.25</ele>
        <time>2015-08-02T06:56:58Z</time>
      </trkpt>
      <trkpt lat="46.165970005095005" lon="10.548272933810949">
        <ele>2880.25</ele>
        <time>2015-08-02T06:57:01Z</time>
      </trkpt>
      <trkpt lat="46.165932873263955" lon="10.548188947141171">
        <ele>2880.73</ele>
        <time>2015-08-02T06:57:11Z</time>
      </trkpt>
      <trkpt lat="46.165865398943424" lon="10.548120550811291">
        <ele>2880.73</ele>
        <time>2015-08-02T06:57:21Z</time>
      </trkpt>
      <trkpt lat="46.165827428922057" lon="10.548052405938506">
        <ele>2881.21</ele>
        <time>2015-08-02T06:57:34Z</time>
      </trkpt>
      <trkpt lat="46.165842851623893" lon="10.548043688759208">
        <ele>2881.6900000000001</ele>
        <time>2015-08-02T06:57:44Z</time>
      </trkpt>
      <trkpt lat="46.165851401165128" lon="10.54804427549243">
        <ele>2881.21</ele>
        <time>2015-08-02T06:58:03Z</time>
      </trkpt>
      <trkpt lat="46.165838912129402" lon="10.548030361533165">
        <ele>2881.21</ele>
        <time>2015-08-02T06:58:19Z</time>
      </trkpt>
      <trkpt lat="46.165803456678987" lon="10.547978058457375">
        <ele>2881.21</ele>
        <time>2015-08-02T06:58:33Z</time>
      </trkpt>
      <trkpt lat="46.165754674002528" lon="10.547917122021317">
        <ele>2881.6900000000001</ele>
        <time>2015-08-02T06:58:43Z</time>
      </trkpt>
      <trkpt lat="46.165687451139092" lon="10.547860795632005">
        <ele>2881.6900000000001</ele>
        <time>2015-08-02T06:58:54Z</time>
      </trkpt>
      <trkpt lat="46.165656438097358" lon="10.547793237492442">
        <ele>2882.1700000000001</ele>
        <time>2015-08-02T06:59:04Z</time>
      </trkpt>
      <trkpt lat="46.165604302659631" lon="10.547717129811645">
        <ele>2882.1700000000001</ele>
        <time>2015-08-02T06:59:15Z</time>
      </trkpt>
      <trkpt lat="46.165572702884674" lon="10.547670358791947">
        <ele>2882.6500000000001</ele>
        <time>2015-08-02T06:59:23Z</time>
      </trkpt>
      <trkpt lat="46.165524339303374" lon="10.547597603872418">
        <ele>2883.1300000000001</ele>
        <time>2015-08-02T06:59:35Z</time>
      </trkpt>
      <trkpt lat="46.165477484464645" lon="10.547520574182272">
        <ele>2883.6100000000001</ele>
        <time>2015-08-02T06:59:46Z</time>
      </trkpt>
      <trkpt lat="46.165448650717735" lon="10.547470115125179">
        <ele>2884.0900000000001</ele>
        <time>2015-08-02T06:59:54Z</time>
      </trkpt>
      <trkpt lat="46.165399448946118" lon="10.547415632754564">
        <ele>2885.0500000000002</ele>
        <time>2015-08-02T07:00:04Z</time>
      </trkpt>
      <trkpt lat="46.165385115891695" lon="10.547356875613332">
        <ele>2886.02</ele>
        <time>2015-08-02T07:00:14Z</time>
      </trkpt>
      <trkpt lat="46.165400370955467" lon="10.547358132898808">
        <ele>2885.5300000000002</ele>
        <time>2015-08-02T07:00:24Z</time>
      </trkpt>
      <trkpt lat="46.165399784222245" lon="10.547366598621011">
        <ele>2886.02</ele>
        <time>2015-08-02T07:00:43Z</time>
      </trkpt>
      <trkpt lat="46.165392240509391" lon="10.547343967482448">
        <ele>2886.02</ele>
        <time>2015-08-02T07:01:05Z</time>
      </trkpt>
      <trkpt lat="46.16536139510572" lon="10.54733675904572">
        <ele>2885.5300000000002</ele>
        <time>2015-08-02T07:01:24Z</time>
      </trkpt>
      <trkpt lat="46.165312947705388" lon="10.547283533960581">
        <ele>2886.5</ele>
        <time>2015-08-02T07:01:33Z</time>
      </trkpt>
      <trkpt lat="46.165268607437611" lon="10.547215892001987">
        <ele>2887.46</ele>
        <time>2015-08-02T07:01:43Z</time>
      </trkpt>
      <trkpt lat="46.165225021541119" lon="10.547173647210002">
        <ele>2888.4200000000001</ele>
        <time>2015-08-02T07:01:52Z</time>
      </trkpt>
      <trkpt lat="46.165181016549468" lon="10.547108519822359">
        <ele>2889.8600000000001</ele>
        <time>2015-08-02T07:02:03Z</time>
      </trkpt>
      <trkpt lat="46.165141370147467" lon="10.547044901177287">
        <ele>2890.8200000000002</ele>
        <time>2015-08-02T07:02:15Z</time>
      </trkpt>
      <trkpt lat="46.165109183639288" lon="10.546991927549243">
        <ele>2891.7800000000002</ele>
        <time>2015-08-02T07:02:25Z</time>
      </trkpt>
      <trkpt lat="46.16507314145565" lon="10.546973822638392">
        <ele>2892.2600000000002</ele>
        <time>2015-08-02T07:02:36Z</time>
      </trkpt>
      <trkpt lat="46.165049755945802" lon="10.54689260199666">
        <ele>2894.6700000000001</ele>
        <time>2015-08-02T07:02:46Z</time>
      </trkpt>
      <trkpt lat="46.165021006017923" lon="10.546845747157931">
        <ele>2894.6700000000001</ele>
        <time>2015-08-02T07:02:56Z</time>
      </trkpt>
      <trkpt lat="46.164998291060328" lon="10.546781793236732">
        <ele>2895.6300000000001</ele>
        <time>2015-08-02T07:03:07Z</time>
      </trkpt>
      <trkpt lat="46.164987226948142" lon="10.546736363321543">
        <ele>2896.5900000000001</ele>
        <time>2015-08-02T07:03:17Z</time>
      </trkpt>
      <trkpt lat="46.16497591137886" lon="10.546674085780978">
        <ele>2897.5500000000002</ele>
        <time>2015-08-02T07:03:27Z</time>
      </trkpt>
      <trkpt lat="46.164961326867342" lon="10.546618513762951">
        <ele>2898.5100000000002</ele>
        <time>2015-08-02T07:03:38Z</time>
      </trkpt>
      <trkpt lat="46.164959063753486" lon="10.546526731923223">
        <ele>2899.4699999999998</ele>
        <time>2015-08-02T07:03:52Z</time>
      </trkpt>
      <trkpt lat="46.164949340745807" lon="10.546460011973977">
        <ele>2900.4400000000001</ele>
        <time>2015-08-02T07:04:03Z</time>
      </trkpt>
      <trkpt lat="46.164944814518094" lon="10.546373510733247">
        <ele>2901.4000000000001</ele>
        <time>2015-08-02T07:04:16Z</time>
      </trkpt>
      <trkpt lat="46.164929643273354" lon="10.546295642852783">
        <ele>2902.8400000000001</ele>
        <time>2015-08-02T07:04:29Z</time>
      </trkpt>
      <trkpt lat="46.164907682687044" lon="10.546209057793021">
        <ele>2904.2800000000002</ele>
        <time>2015-08-02T07:04:42Z</time>
      </trkpt>
      <trkpt lat="46.164893936365843" lon="10.546145606786013">
        <ele>2905.2399999999998</ele>
        <time>2015-08-02T07:04:53Z</time>
      </trkpt>
      <trkpt lat="46.164874657988548" lon="10.546076288446784">
        <ele>2906.6799999999998</ele>
        <time>2015-08-02T07:05:03Z</time>
      </trkpt>
      <trkpt lat="46.164860157296062" lon="10.54602038115263">
        <ele>2907.6500000000001</ele>
        <time>2015-08-02T07:05:15Z</time>
      </trkpt>
      <trkpt lat="46.164836185052991" lon="10.545929186046124">
        <ele>2909.0900000000001</ele>
        <time>2015-08-02T07:05:27Z</time>
      </trkpt>
      <trkpt lat="46.164828389883041" lon="10.545870596542954">
        <ele>2910.0500000000002</ele>
        <time>2015-08-02T07:05:37Z</time>
      </trkpt>
      <trkpt lat="46.164824198931456" lon="10.545915272086859">
        <ele>2911.0100000000002</ele>
        <time>2015-08-02T07:05:50Z</time>
      </trkpt>
      <trkpt lat="46.164815900847316" lon="10.545917619019747">
        <ele>2911.4899999999998</ele>
        <time>2015-08-02T07:06:04Z</time>
      </trkpt>
      <trkpt lat="46.164774326607585" lon="10.545878643169999">
        <ele>2912.4499999999998</ele>
        <time>2015-08-02T07:06:17Z</time>
      </trkpt>
      <trkpt lat="46.164712803438306" lon="10.545865148305893">
        <ele>2913.8899999999999</ele>
        <time>2015-08-02T07:06:29Z</time>
      </trkpt>
      <trkpt lat="46.164688160642982" lon="10.545871015638113">
        <ele>2914.8499999999999</ele>
        <time>2015-08-02T07:06:36Z</time>
      </trkpt>
      <trkpt lat="46.164664942771196" lon="10.545909740030766">
        <ele>2915.8200000000002</ele>
        <time>2015-08-02T07:06:45Z</time>
      </trkpt>
      <trkpt lat="46.164607694372535" lon="10.545889623463154">
        <ele>2916.7800000000002</ele>
        <time>2015-08-02T07:06:55Z</time>
      </trkpt>
      <trkpt lat="46.164557989686728" lon="10.545877637341619">
        <ele>2918.2199999999998</ele>
        <time>2015-08-02T07:07:06Z</time>
      </trkpt>
      <trkpt lat="46.164530580863357" lon="10.545926755294204">
        <ele>2919.6599999999999</ele>
        <time>2015-08-02T07:07:18Z</time>
      </trkpt>
      <trkpt lat="46.16447894833982" lon="10.545900100842118">
        <ele>2921.0999999999999</ele>
        <time>2015-08-02T07:07:31Z</time>
      </trkpt>
      <trkpt lat="46.164434440433979" lon="10.545921390876174">
        <ele>2922.0599999999999</ele>
        <time>2015-08-02T07:07:40Z</time>
      </trkpt>
      <trkpt lat="46.164399404078722" lon="10.545920049771667">
        <ele>2923.0300000000002</ele>
        <time>2015-08-02T07:07:49Z</time>
      </trkpt>
      <trkpt lat="46.164359590038657" lon="10.545946536585689">
        <ele>2924.4699999999998</ele>
        <time>2015-08-02T07:08:01Z</time>
      </trkpt>
      <trkpt lat="46.164318853989244" lon="10.545936645939946">
        <ele>2925.4299999999998</ele>
        <time>2015-08-02T07:08:11Z</time>
      </trkpt>
      <trkpt lat="46.164283314719796" lon="10.545941842719913">
        <ele>2925.9099999999999</ele>
        <time>2015-08-02T07:08:19Z</time>
      </trkpt>
      <trkpt lat="46.164234783500433" lon="10.545954080298543">
        <ele>2926.8699999999999</ele>
        <time>2015-08-02T07:08:28Z</time>
      </trkpt>
      <trkpt lat="46.164207961410284" lon="10.545988362282515">
        <ele>2928.3099999999999</ele>
        <time>2015-08-02T07:08:39Z</time>
      </trkpt>
      <trkpt lat="46.164135960862041" lon="10.545953577384353">
        <ele>2929.75</ele>
        <time>2015-08-02T07:08:52Z</time>
      </trkpt>
      <trkpt lat="46.16408608853817" lon="10.545933376997709">
        <ele>2931.1999999999998</ele>
        <time>2015-08-02T07:09:04Z</time>
      </trkpt>
      <trkpt lat="46.164053231477737" lon="10.545919127762318">
        <ele>2931.1999999999998</ele>
        <time>2015-08-02T07:09:14Z</time>
      </trkpt>
      <trkpt lat="46.164033617824316" lon="10.545909572392702">
        <ele>2932.6399999999999</ele>
        <time>2015-08-02T07:09:23Z</time>
      </trkpt>
      <trkpt lat="46.164011573418975" lon="10.545887779444456">
        <ele>2933.1199999999999</ele>
        <time>2015-08-02T07:09:32Z</time>
      </trkpt>
      <trkpt lat="46.163985589519143" lon="10.545844025909901">
        <ele>2934.0799999999999</ele>
        <time>2015-08-02T07:09:44Z</time>
      </trkpt>
      <trkpt lat="46.163942925632" lon="10.545814605429769">
        <ele>2935.52</ele>
        <time>2015-08-02T07:09:56Z</time>
      </trkpt>
      <trkpt lat="46.163887269794941" lon="10.545820221304893">
        <ele>2936.9699999999998</ele>
        <time>2015-08-02T07:10:07Z</time>
      </trkpt>
      <trkpt lat="46.163889365270734" lon="10.545823657885194">
        <ele>2937.4499999999998</ele>
        <time>2015-08-02T07:10:15Z</time>
      </trkpt>
      <trkpt lat="46.163897411897779" lon="10.545775461941957">
        <ele>2936.9699999999998</ele>
        <time>2015-08-02T07:10:18Z</time>
      </trkpt>
      <trkpt lat="46.163909984752536" lon="10.545667167752981">
        <ele>2937.4499999999998</ele>
        <time>2015-08-02T07:10:26Z</time>
      </trkpt>
      <trkpt lat="46.163920210674405" lon="10.545540014281869">
        <ele>2938.4099999999999</ele>
        <time>2015-08-02T07:10:38Z</time>
      </trkpt>
      <trkpt lat="46.163954827934504" lon="10.545425098389387">
        <ele>2938.4099999999999</ele>
        <time>2015-08-02T07:10:51Z</time>
      </trkpt>
      <trkpt lat="46.163986092433333" lon="10.545286294072866">
        <ele>2937.9299999999998</ele>
        <time>2015-08-02T07:11:03Z</time>
      </trkpt>
      <trkpt lat="46.164002940058708" lon="10.545174395665526">
        <ele>2937.9299999999998</ele>
        <time>2015-08-02T07:11:14Z</time>
      </trkpt>
      <trkpt lat="46.164006711915135" lon="10.545165175572038">
        <ele>2937.9299999999998</ele>
        <time>2015-08-02T07:11:15Z</time>
      </trkpt>
      <trkpt lat="46.164045771583915" lon="10.545043470337987">
        <ele>2937.9299999999998</ele>
        <time>2015-08-02T07:11:26Z</time>
      </trkpt>
      <trkpt lat="46.164081310853362" lon="10.544943977147341">
        <ele>2937.9299999999998</ele>
        <time>2015-08-02T07:11:36Z</time>
      </trkpt>
      <trkpt lat="46.164078963920474" lon="10.544901313260198">
        <ele>2937.9299999999998</ele>
        <time>2015-08-02T07:11:41Z</time>
      </trkpt>
      <trkpt lat="46.164081729948521" lon="10.544862169772387">
        <ele>2937.4499999999998</ele>
        <time>2015-08-02T07:11:45Z</time>
      </trkpt>
      <trkpt lat="46.164125064387918" lon="10.544741302728653">
        <ele>2937.9299999999998</ele>
        <time>2015-08-02T07:11:56Z</time>
      </trkpt>
      <trkpt lat="46.164154568687081" lon="10.544644743204117">
        <ele>2937.9299999999998</ele>
        <time>2015-08-02T07:12:07Z</time>
      </trkpt>
      <trkpt lat="46.164209973067045" lon="10.544550530612469">
        <ele>2937.4499999999998</ele>
        <time>2015-08-02T07:12:17Z</time>
      </trkpt>
      <trkpt lat="46.164236040785909" lon="10.54445874877274">
        <ele>2936.48</ele>
        <time>2015-08-02T07:12:26Z</time>
      </trkpt>
      <trkpt lat="46.164287757128477" lon="10.544352969154716">
        <ele>2936.48</ele>
        <time>2015-08-02T07:12:36Z</time>
      </trkpt>
      <trkpt lat="46.164319524541497" lon="10.544266132637858">
        <ele>2936</ele>
        <time>2015-08-02T07:12:46Z</time>
      </trkpt>
      <trkpt lat="46.164359841495752" lon="10.544175272807479">
        <ele>2936</ele>
        <time>2015-08-02T07:12:55Z</time>
      </trkpt>
      <trkpt lat="46.164374845102429" lon="10.54415624588728">
        <ele>2935.52</ele>
        <time>2015-08-02T07:12:57Z</time>
      </trkpt>
      <trkpt lat="46.16438951343298" lon="10.544122885912657">
        <ele>2935.52</ele>
        <time>2015-08-02T07:13:00Z</time>
      </trkpt>
      <trkpt lat="46.16442178376019" lon="10.544019201770425">
        <ele>2935.04</ele>
        <time>2015-08-02T07:13:11Z</time>
      </trkpt>
      <trkpt lat="46.164455646649003" lon="10.543930688872933">
        <ele>2935.04</ele>
        <time>2015-08-02T07:13:20Z</time>
      </trkpt>
      <trkpt lat="46.164463525637984" lon="10.543895484879613">
        <ele>2934.5599999999999</ele>
        <time>2015-08-02T07:13:25Z</time>
      </trkpt>
      <trkpt lat="46.164500825107098" lon="10.543760368600488">
        <ele>2934.0799999999999</ele>
        <time>2015-08-02T07:13:37Z</time>
      </trkpt>
      <trkpt lat="46.164494622498751" lon="10.543746873736382">
        <ele>2934.5599999999999</ele>
        <time>2015-08-02T07:13:39Z</time>
      </trkpt>
      <trkpt lat="46.164464363828301" lon="10.543648805469275">
        <ele>2935.52</ele>
        <time>2015-08-02T07:13:50Z</time>
      </trkpt>
      <trkpt lat="46.164450952783227" lon="10.543610248714685">
        <ele>2936</ele>
        <time>2015-08-02T07:13:59Z</time>
      </trkpt>
      <trkpt lat="46.164455562829971" lon="10.543550988659263">
        <ele>2936</ele>
        <time>2015-08-02T07:14:04Z</time>
      </trkpt>
      <trkpt lat="46.164518762379885" lon="10.543480245396495">
        <ele>2935.52</ele>
        <time>2015-08-02T07:14:17Z</time>
      </trkpt>
      <trkpt lat="46.164526809006929" lon="10.54344529286027">
        <ele>2935.52</ele>
        <time>2015-08-02T07:14:25Z</time>
      </trkpt>
      <trkpt lat="46.164540471509099" lon="10.543431965634227">
        <ele>2935.04</ele>
        <time>2015-08-02T07:14:34Z</time>
      </trkpt>
      <trkpt lat="46.164499148726463" lon="10.543399024754763">
        <ele>2936</ele>
        <time>2015-08-02T07:14:47Z</time>
      </trkpt>
      <trkpt lat="46.164482049643993" lon="10.543389050289989">
        <ele>2936.48</ele>
        <time>2015-08-02T07:14:59Z</time>
      </trkpt>
      <trkpt lat="46.164448857307434" lon="10.543335406109691">
        <ele>2936</ele>
        <time>2015-08-02T07:15:07Z</time>
      </trkpt>
      <trkpt lat="46.164424382150173" lon="10.543264411389828">
        <ele>2936.9699999999998</ele>
        <time>2015-08-02T07:15:15Z</time>
      </trkpt>
      <trkpt lat="46.164431925863028" lon="10.543163325637579">
        <ele>2936.9699999999998</ele>
        <time>2015-08-02T07:15:25Z</time>
      </trkpt>
      <trkpt lat="46.164435530081391" lon="10.543150752782822">
        <ele>2936.9699999999998</ele>
        <time>2015-08-02T07:15:26Z</time>
      </trkpt>
      <trkpt lat="46.16445304825902" lon="10.543098282068968">
        <ele>2936.9699999999998</ele>
        <time>2015-08-02T07:15:30Z</time>
      </trkpt>
      <trkpt lat="46.164450868964195" lon="10.543002896010876">
        <ele>2937.4499999999998</ele>
        <time>2015-08-02T07:15:40Z</time>
      </trkpt>
      <trkpt lat="46.164446845650673" lon="10.543008511886001">
        <ele>2936.9699999999998</ele>
        <time>2015-08-02T07:15:53Z</time>
      </trkpt>
      <trkpt lat="46.164440307766199" lon="10.54300750605762">
        <ele>2936.9699999999998</ele>
        <time>2015-08-02T07:15:55Z</time>
      </trkpt>
      <trkpt lat="46.164418430998921" lon="10.5429982021451">
        <ele>2937.4499999999998</ele>
        <time>2015-08-02T07:15:59Z</time>
      </trkpt>
      <trkpt lat="46.164398565888405" lon="10.5430016387254">
        <ele>2937.9299999999998</ele>
        <time>2015-08-02T07:16:05Z</time>
      </trkpt>
      <trkpt lat="46.164398062974215" lon="10.543073723092675">
        <ele>2938.8899999999999</ele>
        <time>2015-08-02T07:16:14Z</time>
      </trkpt>
      <trkpt lat="46.16434508934617" lon="10.543158883228898">
        <ele>2939.8499999999999</ele>
        <time>2015-08-02T07:16:25Z</time>
      </trkpt>
      <trkpt lat="46.164342407137156" lon="10.54316290654242">
        <ele>2939.8499999999999</ele>
        <time>2015-08-02T07:16:26Z</time>
      </trkpt>
      <trkpt lat="46.164290858432651" lon="10.543237337842584">
        <ele>2940.3299999999999</ele>
        <time>2015-08-02T07:16:36Z</time>
      </trkpt>
      <trkpt lat="46.164232436567545" lon="10.54328796453774">
        <ele>2940.3299999999999</ele>
        <time>2015-08-02T07:16:45Z</time>
      </trkpt>
      <trkpt lat="46.164158508181572" lon="10.543316630646586">
        <ele>2941.77</ele>
        <time>2015-08-02T07:16:55Z</time>
      </trkpt>
      <trkpt lat="46.164095308631659" lon="10.543344877660275">
        <ele>2942.25</ele>
        <time>2015-08-02T07:17:05Z</time>
      </trkpt>
      <trkpt lat="46.164036383852363" lon="10.543357031419873">
        <ele>2943.21</ele>
        <time>2015-08-02T07:17:15Z</time>
      </trkpt>
      <trkpt lat="46.164006711915135" lon="10.543398521840572">
        <ele>2943.6900000000001</ele>
        <time>2015-08-02T07:17:25Z</time>
      </trkpt>
      <trkpt lat="46.163985757157207" lon="10.543405478820205">
        <ele>2944.1700000000001</ele>
        <time>2015-08-02T07:17:28Z</time>
      </trkpt>
      <trkpt lat="46.163921887055039" lon="10.543467923998833">
        <ele>2944.6599999999999</ele>
        <time>2015-08-02T07:17:39Z</time>
      </trkpt>
      <trkpt lat="46.163887437433004" lon="10.543492818251252">
        <ele>2944.6599999999999</ele>
        <time>2015-08-02T07:17:48Z</time>
      </trkpt>
      <trkpt lat="46.163877211511135" lon="10.543537912890315">
        <ele>2945.6199999999999</ele>
        <time>2015-08-02T07:17:58Z</time>
      </trkpt>
      <trkpt lat="46.163858938962221" lon="10.543593484908342">
        <ele>2945.6199999999999</ele>
        <time>2015-08-02T07:18:09Z</time>
      </trkpt>
      <trkpt lat="46.163782915100455" lon="10.543656935915351">
        <ele>2946.5799999999999</ele>
        <time>2015-08-02T07:18:19Z</time>
      </trkpt>
      <trkpt lat="46.16375382989645" lon="10.543706389144063">
        <ele>2947.0599999999999</ele>
        <time>2015-08-02T07:18:29Z</time>
      </trkpt>
      <trkpt lat="46.163703706115484" lon="10.543735306710005">
        <ele>2947.54</ele>
        <time>2015-08-02T07:18:33Z</time>
      </trkpt>
      <trkpt lat="46.163671016693115" lon="10.543743940070271">
        <ele>2947.54</ele>
        <time>2015-08-02T07:18:41Z</time>
      </trkpt>
      <trkpt lat="46.163639416918159" lon="10.543803451582789">
        <ele>2949.46</ele>
        <time>2015-08-02T07:18:54Z</time>
      </trkpt>
      <trkpt lat="46.16363606415689" lon="10.543871009722352">
        <ele>2948.5</ele>
        <time>2015-08-02T07:19:03Z</time>
      </trkpt>
      <trkpt lat="46.163611002266407" lon="10.543937897309661">
        <ele>2948.98</ele>
        <time>2015-08-02T07:19:10Z</time>
      </trkpt>
      <trkpt lat="46.163610750809312" lon="10.543944770470262">
        <ele>2948.98</ele>
        <time>2015-08-02T07:19:11Z</time>
      </trkpt>
      <trkpt lat="46.163572445511818" lon="10.544072343036532">
        <ele>2948.98</ele>
        <time>2015-08-02T07:19:21Z</time>
      </trkpt>
      <trkpt lat="46.163554424419999" lon="10.544140907004476">
        <ele>2949.46</ele>
        <time>2015-08-02T07:19:31Z</time>
      </trkpt>
      <trkpt lat="46.163554927334189" lon="10.544157000258565">
        <ele>2949.9400000000001</ele>
        <time>2015-08-02T07:19:41Z</time>
      </trkpt>
      <trkpt lat="46.163546210154891" lon="10.54418214596808">
        <ele>2949.9400000000001</ele>
        <time>2015-08-02T07:19:44Z</time>
      </trkpt>
      <trkpt lat="46.163544282317162" lon="10.544052394106984">
        <ele>2949.46</ele>
        <time>2015-08-02T07:19:53Z</time>
      </trkpt>
      <trkpt lat="46.163529278710485" lon="10.544112827628851">
        <ele>2949.46</ele>
        <time>2015-08-02T07:20:01Z</time>
      </trkpt>
      <trkpt lat="46.163531206548214" lon="10.544094555079937">
        <ele>2948.98</ele>
        <time>2015-08-02T07:20:06Z</time>
      </trkpt>
      <trkpt lat="46.16355299949646" lon="10.543990535661578">
        <ele>2948.98</ele>
        <time>2015-08-02T07:20:16Z</time>
      </trkpt>
      <trkpt lat="46.163520645350218" lon="10.544032528996468">
        <ele>2949.46</ele>
        <time>2015-08-02T07:20:21Z</time>
      </trkpt>
      <trkpt lat="46.163510419428349" lon="10.544106373563409">
        <ele>2949.9400000000001</ele>
        <time>2015-08-02T07:20:32Z</time>
      </trkpt>
      <trkpt lat="46.16350413300097" lon="10.544134117662907">
        <ele>2949.9400000000001</ele>
        <time>2015-08-02T07:20:40Z</time>
      </trkpt>
      <trkpt lat="46.163485189899802" lon="10.544190360233188">
        <ele>2950.4200000000001</ele>
        <time>2015-08-02T07:20:49Z</time>
      </trkpt>
      <trkpt lat="46.163504468277097" lon="10.544228665530682">
        <ele>2950.4200000000001</ele>
        <time>2015-08-02T07:20:58Z</time>
      </trkpt>
      <trkpt lat="46.163450069725513" lon="10.544256241992116">
        <ele>2950.4200000000001</ele>
        <time>2015-08-02T07:21:06Z</time>
      </trkpt>
      <trkpt lat="46.163414530456066" lon="10.544275520369411">
        <ele>2950.9000000000001</ele>
        <time>2015-08-02T07:21:18Z</time>
      </trkpt>
      <trkpt lat="46.163418302312493" lon="10.54428624920547">
        <ele>2951.3800000000001</ele>
        <time>2015-08-02T07:21:27Z</time>
      </trkpt>
      <trkpt lat="46.163378236815333" lon="10.544280298054218">
        <ele>2951.3800000000001</ele>
        <time>2015-08-02T07:21:35Z</time>
      </trkpt>
      <trkpt lat="46.16336977109313" lon="10.544313155114651">
        <ele>2951.8699999999999</ele>
        <time>2015-08-02T07:21:44Z</time>
      </trkpt>
      <trkpt lat="46.163350157439709" lon="10.544433435425162">
        <ele>2952.3499999999999</ele>
        <time>2015-08-02T07:21:54Z</time>
      </trkpt>
      <trkpt lat="46.163318809121847" lon="10.544434189796448">
        <ele>2951.8699999999999</ele>
        <time>2015-08-02T07:22:02Z</time>
      </trkpt>
      <trkpt lat="46.163321239873767" lon="10.544405104592443">
        <ele>2951.8699999999999</ele>
        <time>2015-08-02T07:22:06Z</time>
      </trkpt>
      <trkpt lat="46.163334986194968" lon="10.544314496219158">
        <ele>2951.3800000000001</ele>
        <time>2015-08-02T07:22:11Z</time>
      </trkpt>
      <trkpt lat="46.163362478837371" lon="10.544184157624841">
        <ele>2951.3800000000001</ele>
        <time>2015-08-02T07:22:20Z</time>
      </trkpt>
      <trkpt lat="46.163360550999641" lon="10.544147109612823">
        <ele>2951.3800000000001</ele>
        <time>2015-08-02T07:22:24Z</time>
      </trkpt>
      <trkpt lat="46.163401873782277" lon="10.544035043567419">
        <ele>2951.3800000000001</ele>
        <time>2015-08-02T07:22:34Z</time>
      </trkpt>
      <trkpt lat="46.163406986743212" lon="10.543963629752398">
        <ele>2951.3800000000001</ele>
        <time>2015-08-02T07:22:41Z</time>
      </trkpt>
      <trkpt lat="46.163412099704146" lon="10.543912500143051">
        <ele>2950.9000000000001</ele>
        <time>2015-08-02T07:22:52Z</time>
      </trkpt>
      <trkpt lat="46.163455685600638" lon="10.543874949216843">
        <ele>2950.9000000000001</ele>
        <time>2015-08-02T07:22:58Z</time>
      </trkpt>
      <trkpt lat="46.163480831310153" lon="10.543793141841888">
        <ele>2950.4200000000001</ele>
        <time>2015-08-02T07:23:07Z</time>
      </trkpt>
      <trkpt lat="46.163500361144543" lon="10.54371016100049">
        <ele>2949.9400000000001</ele>
        <time>2015-08-02T07:23:16Z</time>
      </trkpt>
      <trkpt lat="46.163500361144543" lon="10.54370186291635">
        <ele>2949.9400000000001</ele>
        <time>2015-08-02T07:23:17Z</time>
      </trkpt>
      <trkpt lat="46.163527434691787" lon="10.543608656153083">
        <ele>2949.46</ele>
        <time>2015-08-02T07:23:26Z</time>
      </trkpt>
      <trkpt lat="46.163533721119165" lon="10.543595412746072">
        <ele>2949.46</ele>
        <time>2015-08-02T07:23:27Z</time>
      </trkpt>
      <trkpt lat="46.16353246383369" lon="10.543518718332052">
        <ele>2949.46</ele>
        <time>2015-08-02T07:23:37Z</time>
      </trkpt>
      <trkpt lat="46.163509916514158" lon="10.543609661981463">
        <ele>2949.9400000000001</ele>
        <time>2015-08-02T07:23:46Z</time>
      </trkpt>
      <trkpt lat="46.163436826318502" lon="10.543666072189808">
        <ele>2950.4200000000001</ele>
        <time>2015-08-02T07:23:56Z</time>
      </trkpt>
      <trkpt lat="46.163447219878435" lon="10.543667078018188">
        <ele>2949.9400000000001</ele>
        <time>2015-08-02T07:23:59Z</time>
      </trkpt>
      <trkpt lat="46.163417380303144" lon="10.543675543740392">
        <ele>2950.9000000000001</ele>
        <time>2015-08-02T07:24:08Z</time>
      </trkpt>
      <trkpt lat="46.163401287049055" lon="10.543719716370106">
        <ele>2951.8699999999999</ele>
        <time>2015-08-02T07:24:16Z</time>
      </trkpt>
      <trkpt lat="46.163367591798306" lon="10.543814767152071">
        <ele>2951.8699999999999</ele>
        <time>2015-08-02T07:24:26Z</time>
      </trkpt>
      <trkpt lat="46.163363652303815" lon="10.543850222602487">
        <ele>2951.8699999999999</ele>
        <time>2015-08-02T07:24:28Z</time>
      </trkpt>
      <trkpt lat="46.163346385583282" lon="10.543937981128693">
        <ele>2952.3499999999999</ele>
        <time>2015-08-02T07:24:38Z</time>
      </trkpt>
      <trkpt lat="46.163345631211996" lon="10.543946530669928">
        <ele>2952.3499999999999</ele>
        <time>2015-08-02T07:24:39Z</time>
      </trkpt>
      <trkpt lat="46.163318892940879" lon="10.544022303074598">
        <ele>2952.3499999999999</ele>
        <time>2015-08-02T07:24:47Z</time>
      </trkpt>
      <trkpt lat="46.163255022838712" lon="10.544054992496967">
        <ele>2952.8299999999999</ele>
        <time>2015-08-02T07:24:56Z</time>
      </trkpt>
      <trkpt lat="46.163234738633037" lon="10.544070163741708">
        <ele>2953.3099999999999</ele>
        <time>2015-08-02T07:24:58Z</time>
      </trkpt>
      <trkpt lat="46.163169527426362" lon="10.544088017195463">
        <ele>2952.8299999999999</ele>
        <time>2015-08-02T07:25:06Z</time>
      </trkpt>
      <trkpt lat="46.163169024512172" lon="10.544056668877602">
        <ele>2953.3099999999999</ele>
        <time>2015-08-02T07:25:13Z</time>
      </trkpt>
      <trkpt lat="46.163141950964928" lon="10.544102853164077">
        <ele>2953.79</ele>
        <time>2015-08-02T07:25:21Z</time>
      </trkpt>
      <trkpt lat="46.163132730871439" lon="10.544003192335367">
        <ele>2953.79</ele>
        <time>2015-08-02T07:25:31Z</time>
      </trkpt>
      <trkpt lat="46.163132395595312" lon="10.543994726613164">
        <ele>2953.79</ele>
        <time>2015-08-02T07:25:36Z</time>
      </trkpt>
      <trkpt lat="46.163149243220687" lon="10.543831028044224">
        <ele>2953.3099999999999</ele>
        <time>2015-08-02T07:25:45Z</time>
      </trkpt>
      <trkpt lat="46.16315527819097" lon="10.54374922066927">
        <ele>2952.8299999999999</ele>
        <time>2015-08-02T07:25:53Z</time>
      </trkpt>
      <trkpt lat="46.163167180493474" lon="10.54372139275074">
        <ele>2953.3099999999999</ele>
        <time>2015-08-02T07:25:55Z</time>
      </trkpt>
      <trkpt lat="46.163172712549567" lon="10.543675795197487">
        <ele>2952.8299999999999</ele>
        <time>2015-08-02T07:25:59Z</time>
      </trkpt>
      <trkpt lat="46.163184614852071" lon="10.543629191815853">
        <ele>2952.8299999999999</ele>
        <time>2015-08-02T07:26:03Z</time>
      </trkpt>
      <trkpt lat="46.163197439163923" lon="10.543539673089981">
        <ele>2952.3499999999999</ele>
        <time>2015-08-02T07:26:12Z</time>
      </trkpt>
      <trkpt lat="46.163204982876778" lon="10.54352592676878">
        <ele>2952.3499999999999</ele>
        <time>2015-08-02T07:26:14Z</time>
      </trkpt>
      <trkpt lat="46.163239348679781" lon="10.543476724997163">
        <ele>2952.3499999999999</ele>
        <time>2015-08-02T07:26:24Z</time>
      </trkpt>
      <trkpt lat="46.163239264860749" lon="10.54345996119082">
        <ele>2952.3499999999999</ele>
        <time>2015-08-02T07:26:25Z</time>
      </trkpt>
      <trkpt lat="46.163214622065425" lon="10.543397180736065">
        <ele>2951.8699999999999</ele>
        <time>2015-08-02T07:26:34Z</time>
      </trkpt>
      <trkpt lat="46.163225350901484" lon="10.543428361415863">
        <ele>2952.3499999999999</ele>
        <time>2015-08-02T07:26:43Z</time>
      </trkpt>
      <trkpt lat="46.163203893229365" lon="10.54345509968698">
        <ele>2952.3499999999999</ele>
        <time>2015-08-02T07:26:47Z</time>
      </trkpt>
      <trkpt lat="46.163181010633707" lon="10.543458703905344">
        <ele>2952.3499999999999</ele>
        <time>2015-08-02T07:26:49Z</time>
      </trkpt>
      <trkpt lat="46.163165671750903" lon="10.543313026428223">
        <ele>2953.79</ele>
        <time>2015-08-02T07:26:58Z</time>
      </trkpt>
      <trkpt lat="46.16315770894289" lon="10.543254856020212">
        <ele>2952.8299999999999</ele>
        <time>2015-08-02T07:27:09Z</time>
      </trkpt>
      <trkpt lat="46.163137843832374" lon="10.543219400569797">
        <ele>2952.3499999999999</ele>
        <time>2015-08-02T07:27:19Z</time>
      </trkpt>
      <trkpt lat="46.163135999813676" lon="10.543237505480647">
        <ele>2952.8299999999999</ele>
        <time>2015-08-02T07:27:24Z</time>
      </trkpt>
      <trkpt lat="46.163107752799988" lon="10.543318809941411">
        <ele>2953.3099999999999</ele>
        <time>2015-08-02T07:27:32Z</time>
      </trkpt>
      <trkpt lat="46.163129042834044" lon="10.543342866003513">
        <ele>2952.8299999999999</ele>
        <time>2015-08-02T07:27:43Z</time>
      </trkpt>
      <trkpt lat="46.163136838003993" lon="10.543333645910025">
        <ele>2952.8299999999999</ele>
        <time>2015-08-02T07:27:55Z</time>
      </trkpt>
      <trkpt lat="46.16311957128346" lon="10.543351247906685">
        <ele>2953.3099999999999</ele>
        <time>2015-08-02T07:28:05Z</time>
      </trkpt>
      <trkpt lat="46.163115715608001" lon="10.543346470221877">
        <ele>2952.8299999999999</ele>
        <time>2015-08-02T07:28:20Z</time>
      </trkpt>
      <trkpt lat="46.163108674809337" lon="10.543359965085983">
        <ele>2953.3099999999999</ele>
        <time>2015-08-02T07:28:37Z</time>
      </trkpt>
      <trkpt lat="46.16312351077795" lon="10.543353511020541">
        <ele>2953.3099999999999</ele>
        <time>2015-08-02T07:28:55Z</time>
      </trkpt>
      <trkpt lat="46.163112949579954" lon="10.543347811326385">
        <ele>2953.3099999999999</ele>
        <time>2015-08-02T07:29:11Z</time>
      </trkpt>
      <trkpt lat="46.163105824962258" lon="10.543359378352761">
        <ele>2952.8299999999999</ele>
        <time>2015-08-02T07:29:28Z</time>
      </trkpt>
      <trkpt lat="46.163101550191641" lon="10.543367173522711">
        <ele>2952.8299999999999</ele>
        <time>2015-08-02T07:29:41Z</time>
      </trkpt>
      <trkpt lat="46.163093419745564" lon="10.543370945379138">
        <ele>2952.8299999999999</ele>
        <time>2015-08-02T07:29:55Z</time>
      </trkpt>
      <trkpt lat="46.16309517994523" lon="10.54334806278348">
        <ele>2952.8299999999999</ele>
        <time>2015-08-02T07:30:10Z</time>
      </trkpt>
      <trkpt lat="46.163092916831374" lon="10.543348817154765">
        <ele>2952.8299999999999</ele>
        <time>2015-08-02T07:30:26Z</time>
      </trkpt>
      <trkpt lat="46.163103058934212" lon="10.543346386402845">
        <ele>2952.8299999999999</ele>
        <time>2015-08-02T07:30:38Z</time>
      </trkpt>
      <trkpt lat="46.16310783661902" lon="10.543347727507353">
        <ele>2952.8299999999999</ele>
        <time>2015-08-02T07:30:56Z</time>
      </trkpt>
      <trkpt lat="46.163094341754913" lon="10.54333783686161">
        <ele>2952.8299999999999</ele>
        <time>2015-08-02T07:31:12Z</time>
      </trkpt>
      <trkpt lat="46.163099287077785" lon="10.543362563475966">
        <ele>2952.8299999999999</ele>
        <time>2015-08-02T07:31:27Z</time>
      </trkpt>
      <trkpt lat="46.163091156631708" lon="10.543343368917704">
        <ele>2952.8299999999999</ele>
        <time>2015-08-02T07:31:40Z</time>
      </trkpt>
      <trkpt lat="46.163095599040389" lon="10.543365497142076">
        <ele>2952.8299999999999</ele>
        <time>2015-08-02T07:31:53Z</time>
      </trkpt>
      <trkpt lat="46.163099622353911" lon="10.543358037248254">
        <ele>2952.8299999999999</ele>
        <time>2015-08-02T07:32:07Z</time>
      </trkpt>
      <trkpt lat="46.163093084469438" lon="10.543320402503014">
        <ele>2952.8299999999999</ele>
        <time>2015-08-02T07:32:20Z</time>
      </trkpt>
      <trkpt lat="46.16310934536159" lon="10.543313529342413">
        <ele>2952.8299999999999</ele>
        <time>2015-08-02T07:32:35Z</time>
      </trkpt>
      <trkpt lat="46.163120660930872" lon="10.543316714465618">
        <ele>2952.8299999999999</ele>
        <time>2015-08-02T07:32:56Z</time>
      </trkpt>
      <trkpt lat="46.163113955408335" lon="10.54329919628799">
        <ele>2952.8299999999999</ele>
        <time>2015-08-02T07:33:07Z</time>
      </trkpt>
      <trkpt lat="46.163116972893476" lon="10.543298525735736">
        <ele>2952.8299999999999</ele>
        <time>2015-08-02T07:33:28Z</time>
      </trkpt>
      <trkpt lat="46.16311127319932" lon="10.543297016993165">
        <ele>2952.8299999999999</ele>
        <time>2015-08-02T07:33:42Z</time>
      </trkpt>
      <trkpt lat="46.163106579333544" lon="10.54328553378582">
        <ele>2952.8299999999999</ele>
        <time>2015-08-02T07:34:02Z</time>
      </trkpt>
      <trkpt lat="46.163105238229036" lon="10.543282181024551">
        <ele>2952.8299999999999</ele>
        <time>2015-08-02T07:34:13Z</time>
      </trkpt>
      <trkpt lat="46.16310297511518" lon="10.543271200731397">
        <ele>2952.3499999999999</ele>
        <time>2015-08-02T07:34:16Z</time>
      </trkpt>
      <trkpt lat="46.1631381791085" lon="10.543150501325727">
        <ele>2952.3499999999999</ele>
        <time>2015-08-02T07:34:26Z</time>
      </trkpt>
      <trkpt lat="46.163142621517181" lon="10.54311697371304">
        <ele>2952.3499999999999</ele>
        <time>2015-08-02T07:34:29Z</time>
      </trkpt>
      <trkpt lat="46.163192493841052" lon="10.543090403079987">
        <ele>2951.8699999999999</ele>
        <time>2015-08-02T07:34:39Z</time>
      </trkpt>
      <trkpt lat="46.16321143694222" lon="10.543049750849605">
        <ele>2951.3800000000001</ele>
        <time>2015-08-02T07:34:49Z</time>
      </trkpt>
      <trkpt lat="46.16323197260499" lon="10.543025862425566">
        <ele>2951.3800000000001</ele>
        <time>2015-08-02T07:34:52Z</time>
      </trkpt>
      <trkpt lat="46.163243958726525" lon="10.542984120547771">
        <ele>2950.9000000000001</ele>
        <time>2015-08-02T07:34:55Z</time>
      </trkpt>
      <trkpt lat="46.163295926526189" lon="10.542853614315391">
        <ele>2950.4200000000001</ele>
        <time>2015-08-02T07:35:07Z</time>
      </trkpt>
      <trkpt lat="46.163306320086122" lon="10.542831318452954">
        <ele>2950.4200000000001</ele>
        <time>2015-08-02T07:35:10Z</time>
      </trkpt>
      <trkpt lat="46.163321742787957" lon="10.542809441685677">
        <ele>2949.9400000000001</ele>
        <time>2015-08-02T07:35:12Z</time>
      </trkpt>
      <trkpt lat="46.163343954831362" lon="10.542759066447616">
        <ele>2949.9400000000001</ele>
        <time>2015-08-02T07:35:17Z</time>
      </trkpt>
      <trkpt lat="46.163358287885785" lon="10.542736770585179">
        <ele>2949.46</ele>
        <time>2015-08-02T07:35:20Z</time>
      </trkpt>
      <trkpt lat="46.163379075005651" lon="10.542727634310722">
        <ele>2949.46</ele>
        <time>2015-08-02T07:35:23Z</time>
      </trkpt>
      <trkpt lat="46.163407489657402" lon="10.542685389518738">
        <ele>2949.46</ele>
        <time>2015-08-02T07:35:30Z</time>
      </trkpt>
      <trkpt lat="46.163480579853058" lon="10.542672984302044">
        <ele>2948.5</ele>
        <time>2015-08-02T07:35:40Z</time>
      </trkpt>
      <trkpt lat="46.163501869887114" lon="10.542646665126085">
        <ele>2948.5</ele>
        <time>2015-08-02T07:35:52Z</time>
      </trkpt>
      <trkpt lat="46.163511089980602" lon="10.542625291272998">
        <ele>2948.02</ele>
        <time>2015-08-02T07:35:54Z</time>
      </trkpt>
      <trkpt lat="46.163572110235691" lon="10.542524037882686">
        <ele>2947.54</ele>
        <time>2015-08-02T07:36:05Z</time>
      </trkpt>
      <trkpt lat="46.163627346977592" lon="10.542412977665663">
        <ele>2946.5799999999999</ele>
        <time>2015-08-02T07:36:16Z</time>
      </trkpt>
      <trkpt lat="46.163694318383932" lon="10.542325554415584">
        <ele>2946.0999999999999</ele>
        <time>2015-08-02T07:36:26Z</time>
      </trkpt>
      <trkpt lat="46.163706891238689" lon="10.542327985167503">
        <ele>2946.0999999999999</ele>
        <time>2015-08-02T07:36:29Z</time>
      </trkpt>
      <trkpt lat="46.163752740249038" lon="10.542388837784529">
        <ele>2945.6199999999999</ele>
        <time>2015-08-02T07:36:38Z</time>
      </trkpt>
      <trkpt lat="46.163763552904129" lon="10.542383221909404">
        <ele>2945.6199999999999</ele>
        <time>2015-08-02T07:36:40Z</time>
      </trkpt>
      <trkpt lat="46.163784759119153" lon="10.542384898290038">
        <ele>2945.6199999999999</ele>
        <time>2015-08-02T07:36:42Z</time>
      </trkpt>
      <trkpt lat="46.163840163499117" lon="10.542352208867669">
        <ele>2944.6599999999999</ele>
        <time>2015-08-02T07:36:51Z</time>
      </trkpt>
      <trkpt lat="46.163911242038012" lon="10.542327985167503">
        <ele>2944.1700000000001</ele>
        <time>2015-08-02T07:37:00Z</time>
      </trkpt>
      <trkpt lat="46.163919372484088" lon="10.542329577729106">
        <ele>2943.6900000000001</ele>
        <time>2015-08-02T07:37:01Z</time>
      </trkpt>
      <trkpt lat="46.163983661681414" lon="10.542329326272011">
        <ele>2943.21</ele>
        <time>2015-08-02T07:37:08Z</time>
      </trkpt>
      <trkpt lat="46.164008807390928" lon="10.542329074814916">
        <ele>2942.73</ele>
        <time>2015-08-02T07:37:12Z</time>
      </trkpt>
      <trkpt lat="46.164058847352862" lon="10.542320525273681">
        <ele>2942.73</ele>
        <time>2015-08-02T07:37:18Z</time>
      </trkpt>
      <trkpt lat="46.164133362472057" lon="10.542240478098392">
        <ele>2941.77</ele>
        <time>2015-08-02T07:37:28Z</time>
      </trkpt>
      <trkpt lat="46.16419455036521" lon="10.542158922180533">
        <ele>2940.8099999999999</ele>
        <time>2015-08-02T07:37:39Z</time>
      </trkpt>
      <trkpt lat="46.164278285577893" lon="10.542064625769854">
        <ele>2939.8499999999999</ele>
        <time>2015-08-02T07:37:51Z</time>
      </trkpt>
      <trkpt lat="46.164299910888076" lon="10.542054399847984">
        <ele>2939.8499999999999</ele>
        <time>2015-08-02T07:37:54Z</time>
      </trkpt>
      <trkpt lat="46.164334779605269" lon="10.54206638596952">
        <ele>2938.8899999999999</ele>
        <time>2015-08-02T07:37:59Z</time>
      </trkpt>
      <trkpt lat="46.164436284452677" lon="10.542059512808919">
        <ele>2938.4099999999999</ele>
        <time>2015-08-02T07:38:10Z</time>
      </trkpt>
      <trkpt lat="46.164494371041656" lon="10.542080048471689">
        <ele>2937.4499999999998</ele>
        <time>2015-08-02T07:38:17Z</time>
      </trkpt>
      <trkpt lat="46.164578860625625" lon="10.542158419266343">
        <ele>2936.9699999999998</ele>
        <time>2015-08-02T07:38:28Z</time>
      </trkpt>
      <trkpt lat="46.164604425430298" lon="10.542177865281701">
        <ele>2936.48</ele>
        <time>2015-08-02T07:38:31Z</time>
      </trkpt>
      <trkpt lat="46.164617668837309" lon="10.542207956314087">
        <ele>2936.48</ele>
        <time>2015-08-02T07:38:41Z</time>
      </trkpt>
      <trkpt lat="46.164625380188227" lon="10.542201586067677">
        <ele>2936.48</ele>
        <time>2015-08-02T07:38:57Z</time>
      </trkpt>
      <trkpt lat="46.164603335782886" lon="10.542234191671014">
        <ele>2936.48</ele>
        <time>2015-08-02T07:39:02Z</time>
      </trkpt>
      <trkpt lat="46.164537789300084" lon="10.542317256331444">
        <ele>2936.9699999999998</ele>
        <time>2015-08-02T07:39:13Z</time>
      </trkpt>
      <trkpt lat="46.164516918361187" lon="10.542341647669673">
        <ele>2937.4499999999998</ele>
        <time>2015-08-02T07:39:23Z</time>
      </trkpt>
      <trkpt lat="46.164503088220954" lon="10.542360590770841">
        <ele>2937.4499999999998</ele>
        <time>2015-08-02T07:39:25Z</time>
      </trkpt>
      <trkpt lat="46.164418598636985" lon="10.542427897453308">
        <ele>2937.9299999999998</ele>
        <time>2015-08-02T07:39:35Z</time>
      </trkpt>
      <trkpt lat="46.164393369108438" lon="10.54245974868536">
        <ele>2937.9299999999998</ele>
        <time>2015-08-02T07:39:46Z</time>
      </trkpt>
      <trkpt lat="46.164417173713446" lon="10.542523032054305">
        <ele>2937.9299999999998</ele>
        <time>2015-08-02T07:39:56Z</time>
      </trkpt>
      <trkpt lat="46.164446175098419" lon="10.54252278059721">
        <ele>2937.9299999999998</ele>
        <time>2015-08-02T07:40:06Z</time>
      </trkpt>
      <trkpt lat="46.164440391585231" lon="10.542520266026258">
        <ele>2937.9299999999998</ele>
        <time>2015-08-02T07:40:09Z</time>
      </trkpt>
      <trkpt lat="46.164492694661021" lon="10.542484307661653">
        <ele>2937.4499999999998</ele>
        <time>2015-08-02T07:40:15Z</time>
      </trkpt>
      <trkpt lat="46.164559330791235" lon="10.542411133646965">
        <ele>2936</ele>
        <time>2015-08-02T07:40:26Z</time>
      </trkpt>
      <trkpt lat="46.164577770978212" lon="10.542406607419252">
        <ele>2936</ele>
        <time>2015-08-02T07:40:28Z</time>
      </trkpt>
      <trkpt lat="46.164607862010598" lon="10.542431836947799">
        <ele>2935.52</ele>
        <time>2015-08-02T07:40:32Z</time>
      </trkpt>
      <trkpt lat="46.16463091224432" lon="10.542476763948798">
        <ele>2935.04</ele>
        <time>2015-08-02T07:40:38Z</time>
      </trkpt>
      <trkpt lat="46.164712300524116" lon="10.542520936578512">
        <ele>2934.5599999999999</ele>
        <time>2015-08-02T07:40:48Z</time>
      </trkpt>
      <trkpt lat="46.164779355749488" lon="10.542569300159812">
        <ele>2933.5999999999999</ele>
        <time>2015-08-02T07:40:59Z</time>
      </trkpt>
      <trkpt lat="46.164799556136131" lon="10.542591093108058">
        <ele>2933.5999999999999</ele>
        <time>2015-08-02T07:41:02Z</time>
      </trkpt>
      <trkpt lat="46.164853032678366" lon="10.542628392577171">
        <ele>2933.1199999999999</ele>
        <time>2015-08-02T07:41:11Z</time>
      </trkpt>
      <trkpt lat="46.164878765121102" lon="10.542653957381845">
        <ele>2932.1599999999999</ele>
        <time>2015-08-02T07:41:21Z</time>
      </trkpt>
      <trkpt lat="46.164900390431285" lon="10.542657896876335">
        <ele>2932.1599999999999</ele>
        <time>2015-08-02T07:41:24Z</time>
      </trkpt>
      <trkpt lat="46.164982784539461" lon="10.542713133618236">
        <ele>2931.1999999999998</ele>
        <time>2015-08-02T07:41:34Z</time>
      </trkpt>
      <trkpt lat="46.165045732632279" lon="10.542776752263308">
        <ele>2930.2399999999998</ele>
        <time>2015-08-02T07:41:43Z</time>
      </trkpt>
      <trkpt lat="46.165077835321426" lon="10.542832659557462">
        <ele>2929.75</ele>
        <time>2015-08-02T07:41:49Z</time>
      </trkpt>
      <trkpt lat="46.165024694055319" lon="10.542943468317389">
        <ele>2930.2399999999998</ele>
        <time>2015-08-02T07:41:58Z</time>
      </trkpt>
      <trkpt lat="46.164979012683034" lon="10.543022844940424">
        <ele>2930.7199999999998</ele>
        <time>2015-08-02T07:42:06Z</time>
      </trkpt>
      <trkpt lat="46.164946742355824" lon="10.543106580153108">
        <ele>2930.7199999999998</ele>
        <time>2015-08-02T07:42:16Z</time>
      </trkpt>
      <trkpt lat="46.16492411121726" lon="10.543138179928064">
        <ele>2930.7199999999998</ele>
        <time>2015-08-02T07:42:24Z</time>
      </trkpt>
      <trkpt lat="46.164950849488378" lon="10.543144633993506">
        <ele>2930.2399999999998</ele>
        <time>2015-08-02T07:42:35Z</time>
      </trkpt>
      <trkpt lat="46.164977923035622" lon="10.543151423335075">
        <ele>2930.2399999999998</ele>
        <time>2015-08-02T07:42:46Z</time>
      </trkpt>
      <trkpt lat="46.164998793974519" lon="10.543158715590835">
        <ele>2929.75</ele>
        <time>2015-08-02T07:42:55Z</time>
      </trkpt>
      <trkpt lat="46.16501547396183" lon="10.543183358386159">
        <ele>2929.27</ele>
        <time>2015-08-02T07:43:06Z</time>
      </trkpt>
      <trkpt lat="46.165032992139459" lon="10.543213617056608">
        <ele>2929.27</ele>
        <time>2015-08-02T07:43:09Z</time>
      </trkpt>
      <trkpt lat="46.165052941069007" lon="10.543254353106022">
        <ele>2928.79</ele>
        <time>2015-08-02T07:43:19Z</time>
      </trkpt>
      <trkpt lat="46.165117314085364" lon="10.543340519070625">
        <ele>2927.8299999999999</ele>
        <time>2015-08-02T07:43:27Z</time>
      </trkpt>
      <trkpt lat="46.165127204731107" lon="10.543365916237235">
        <ele>2927.8299999999999</ele>
        <time>2015-08-02T07:43:30Z</time>
      </trkpt>
      <trkpt lat="46.165192667394876" lon="10.543331801891327">
        <ele>2926.8699999999999</ele>
        <time>2015-08-02T07:43:39Z</time>
      </trkpt>
      <trkpt lat="46.165247904136777" lon="10.543309254571795">
        <ele>2926.3899999999999</ele>
        <time>2015-08-02T07:43:49Z</time>
      </trkpt>
      <trkpt lat="46.165296183899045" lon="10.543380081653595">
        <ele>2925.4299999999998</ele>
        <time>2015-08-02T07:43:56Z</time>
      </trkpt>
      <trkpt lat="46.165347062051296" lon="10.543455351144075">
        <ele>2924.4699999999998</ele>
        <time>2015-08-02T07:44:05Z</time>
      </trkpt>
      <trkpt lat="46.16536826826632" lon="10.543507151305676">
        <ele>2923.9899999999998</ele>
        <time>2015-08-02T07:44:10Z</time>
      </trkpt>
      <trkpt lat="46.165390480309725" lon="10.543532883748412">
        <ele>2923.0300000000002</ele>
        <time>2015-08-02T07:44:13Z</time>
      </trkpt>
      <trkpt lat="46.165406992658973" lon="10.543567417189479">
        <ele>2923.0300000000002</ele>
        <time>2015-08-02T07:44:16Z</time>
      </trkpt>
      <trkpt lat="46.165422750636935" lon="10.543592646718025">
        <ele>2922.54</ele>
        <time>2015-08-02T07:44:19Z</time>
      </trkpt>
      <trkpt lat="46.165445046499372" lon="10.543658779934049">
        <ele>2922.0599999999999</ele>
        <time>2015-08-02T07:44:25Z</time>
      </trkpt>
      <trkpt lat="46.16546549834311" lon="10.543676968663931">
        <ele>2922.0599999999999</ele>
        <time>2015-08-02T07:44:28Z</time>
      </trkpt>
      <trkpt lat="46.165487542748451" lon="10.543694319203496">
        <ele>2921.0999999999999</ele>
        <time>2015-08-02T07:44:32Z</time>
      </trkpt>
      <trkpt lat="46.165510257706046" lon="10.543723236769438">
        <ele>2920.6199999999999</ele>
        <time>2015-08-02T07:44:35Z</time>
      </trkpt>
      <trkpt lat="46.165575385093689" lon="10.543836895376444">
        <ele>2919.6599999999999</ele>
        <time>2015-08-02T07:44:45Z</time>
      </trkpt>
      <trkpt lat="46.165653923526406" lon="10.543955834582448">
        <ele>2917.7399999999998</ele>
        <time>2015-08-02T07:44:57Z</time>
      </trkpt>
      <trkpt lat="46.165684936568141" lon="10.544084161520004">
        <ele>2916.7800000000002</ele>
        <time>2015-08-02T07:45:07Z</time>
      </trkpt>
      <trkpt lat="46.165702203288674" lon="10.544143170118332">
        <ele>2915.8200000000002</ele>
        <time>2015-08-02T07:45:12Z</time>
      </trkpt>
      <trkpt lat="46.165713854134083" lon="10.544182481244206">
        <ele>2915.8200000000002</ele>
        <time>2015-08-02T07:45:16Z</time>
      </trkpt>
      <trkpt lat="46.165721481665969" lon="10.544225731864572">
        <ele>2915.3400000000001</ele>
        <time>2015-08-02T07:45:20Z</time>
      </trkpt>
      <trkpt lat="46.165737574920058" lon="10.544350538402796">
        <ele>2913.8899999999999</ele>
        <time>2015-08-02T07:45:30Z</time>
      </trkpt>
      <trkpt lat="46.16576012223959" lon="10.54447190836072">
        <ele>2911.9699999999998</ele>
        <time>2015-08-02T07:45:40Z</time>
      </trkpt>
      <trkpt lat="46.165753165259957" lon="10.54457257501781">
        <ele>2911.4899999999998</ele>
        <time>2015-08-02T07:45:48Z</time>
      </trkpt>
      <trkpt lat="46.165779735893011" lon="10.544685814529657">
        <ele>2909.5700000000002</ele>
        <time>2015-08-02T07:45:58Z</time>
      </trkpt>
      <trkpt lat="46.165792224928737" lon="10.544766280800104">
        <ele>2908.6100000000001</ele>
        <time>2015-08-02T07:46:06Z</time>
      </trkpt>
      <trkpt lat="46.165806222707033" lon="10.544894691556692">
        <ele>2906.6799999999998</ele>
        <time>2015-08-02T07:46:17Z</time>
      </trkpt>
      <trkpt lat="46.165824243798852" lon="10.545015055686235">
        <ele>2904.7600000000002</ele>
        <time>2015-08-02T07:46:27Z</time>
      </trkpt>
      <trkpt lat="46.165817454457283" lon="10.545022180303931">
        <ele>2904.7600000000002</ele>
        <time>2015-08-02T07:46:36Z</time>
      </trkpt>
      <trkpt lat="46.165825081989169" lon="10.545040536671877">
        <ele>2904.2800000000002</ele>
        <time>2015-08-02T07:46:45Z</time>
      </trkpt>
      <trkpt lat="46.165822064504027" lon="10.545057216659188">
        <ele>2904.2800000000002</ele>
        <time>2015-08-02T07:46:56Z</time>
      </trkpt>
      <trkpt lat="46.165848216041923" lon="10.545103903859854">
        <ele>2903.8000000000002</ele>
        <time>2015-08-02T07:47:08Z</time>
      </trkpt>
      <trkpt lat="46.165859280154109" lon="10.545145310461521">
        <ele>2902.8400000000001</ele>
        <time>2015-08-02T07:47:11Z</time>
      </trkpt>
      <trkpt lat="46.16590186022222" lon="10.545230219140649">
        <ele>2901.4000000000001</ele>
        <time>2015-08-02T07:47:19Z</time>
      </trkpt>
      <trkpt lat="46.165915690362453" lon="10.545253939926624">
        <ele>2900.4400000000001</ele>
        <time>2015-08-02T07:47:21Z</time>
      </trkpt>
      <trkpt lat="46.165935723111033" lon="10.545382099226117">
        <ele>2898.5100000000002</ele>
        <time>2015-08-02T07:47:31Z</time>
      </trkpt>
      <trkpt lat="46.165966652333736" lon="10.545468851923943">
        <ele>2897.0700000000002</ele>
        <time>2015-08-02T07:47:39Z</time>
      </trkpt>
      <trkpt lat="46.166009902954102" lon="10.545603716745973">
        <ele>2895.6300000000001</ele>
        <time>2015-08-02T07:47:49Z</time>
      </trkpt>
      <trkpt lat="46.166020045056939" lon="10.545653756707907">
        <ele>2894.6700000000001</ele>
        <time>2015-08-02T07:47:53Z</time>
      </trkpt>
      <trkpt lat="46.166064217686653" lon="10.545795494690537">
        <ele>2892.2600000000002</ele>
        <time>2015-08-02T07:48:04Z</time>
      </trkpt>
      <trkpt lat="46.166064217686653" lon="10.545807983726263">
        <ele>2892.2600000000002</ele>
        <time>2015-08-02T07:48:05Z</time>
      </trkpt>
      <trkpt lat="46.166100176051259" lon="10.545934466645122">
        <ele>2890.3400000000001</ele>
        <time>2015-08-02T07:48:16Z</time>
      </trkpt>
      <trkpt lat="46.166107803583145" lon="10.545941423624754">
        <ele>2889.8600000000001</ele>
        <time>2015-08-02T07:48:17Z</time>
      </trkpt>
      <trkpt lat="46.166146779432893" lon="10.546046616509557">
        <ele>2888.4200000000001</ele>
        <time>2015-08-02T07:48:26Z</time>
      </trkpt>
      <trkpt lat="46.166174691170454" lon="10.546173602342606">
        <ele>2886.98</ele>
        <time>2015-08-02T07:48:36Z</time>
      </trkpt>
      <trkpt lat="46.166219785809517" lon="10.546289356425405">
        <ele>2886.02</ele>
        <time>2015-08-02T07:48:46Z</time>
      </trkpt>
      <trkpt lat="46.166264126077294" lon="10.546375773847103">
        <ele>2885.5300000000002</ele>
        <time>2015-08-02T07:48:55Z</time>
      </trkpt>
      <trkpt lat="46.166280973702669" lon="10.546413073316216">
        <ele>2885.0500000000002</ele>
        <time>2015-08-02T07:48:58Z</time>
      </trkpt>
      <trkpt lat="46.166340401396155" lon="10.546548441052437">
        <ele>2884.0900000000001</ele>
        <time>2015-08-02T07:49:10Z</time>
      </trkpt>
      <trkpt lat="46.166350124403834" lon="10.546614658087492">
        <ele>2884.0900000000001</ele>
        <time>2015-08-02T07:49:15Z</time>
      </trkpt>
      <trkpt lat="46.166378958150744" lon="10.546706691384315">
        <ele>2883.1300000000001</ele>
        <time>2015-08-02T07:49:22Z</time>
      </trkpt>
      <trkpt lat="46.166435452178121" lon="10.546831917017698">
        <ele>2882.6500000000001</ele>
        <time>2015-08-02T07:49:33Z</time>
      </trkpt>
      <trkpt lat="46.16648037917912" lon="10.546902157366276">
        <ele>2882.6500000000001</ele>
        <time>2015-08-02T07:49:41Z</time>
      </trkpt>
      <trkpt lat="46.166529832407832" lon="10.547062922269106">
        <ele>2882.1700000000001</ele>
        <time>2015-08-02T07:49:54Z</time>
      </trkpt>
      <trkpt lat="46.166584230959415" lon="10.54715009406209">
        <ele>2881.6900000000001</ele>
        <time>2015-08-02T07:50:04Z</time>
      </trkpt>
      <trkpt lat="46.166651202365756" lon="10.547263920307159">
        <ele>2881.6900000000001</ele>
        <time>2015-08-02T07:50:17Z</time>
      </trkpt>
      <trkpt lat="46.16668950766325" lon="10.547386966645718">
        <ele>2881.6900000000001</ele>
        <time>2015-08-02T07:50:28Z</time>
      </trkpt>
      <trkpt lat="46.166705265641212" lon="10.547493081539869">
        <ele>2881.21</ele>
        <time>2015-08-02T07:50:37Z</time>
      </trkpt>
      <trkpt lat="46.166727729141712" lon="10.547567261382937">
        <ele>2881.21</ele>
        <time>2015-08-02T07:50:43Z</time>
      </trkpt>
      <trkpt lat="46.166740469634533" lon="10.547586372122169">
        <ele>2880.73</ele>
        <time>2015-08-02T07:50:45Z</time>
      </trkpt>
      <trkpt lat="46.166791347786784" lon="10.547702042385936">
        <ele>2880.25</ele>
        <time>2015-08-02T07:50:55Z</time>
      </trkpt>
      <trkpt lat="46.166874244809151" lon="10.547815784811974">
        <ele>2879.77</ele>
        <time>2015-08-02T07:51:06Z</time>
      </trkpt>
      <trkpt lat="46.166879944503307" lon="10.547836488112807">
        <ele>2881.21</ele>
        <time>2015-08-02T07:51:08Z</time>
      </trkpt>
      <trkpt lat="46.166880950331688" lon="10.547860879451036">
        <ele>2880.25</ele>
        <time>2015-08-02T07:51:19Z</time>
      </trkpt>
      <trkpt lat="46.166890589520335" lon="10.547880325466394">
        <ele>2880.25</ele>
        <time>2015-08-02T07:51:35Z</time>
      </trkpt>
      <trkpt lat="46.166903162375093" lon="10.547904884442687">
        <ele>2880.25</ele>
        <time>2015-08-02T07:51:37Z</time>
      </trkpt>
      <trkpt lat="46.166932666674256" lon="10.547975460067391">
        <ele>2879.77</ele>
        <time>2015-08-02T07:51:43Z</time>
      </trkpt>
      <trkpt lat="46.166965775191784" lon="10.548090040683746">
        <ele>2879.77</ele>
        <time>2015-08-02T07:51:52Z</time>
      </trkpt>
      <trkpt lat="46.167010450735688" lon="10.548156509175897">
        <ele>2879.77</ele>
        <time>2015-08-02T07:51:59Z</time>
      </trkpt>
      <trkpt lat="46.167038194835186" lon="10.548224821686745">
        <ele>2879.29</ele>
        <time>2015-08-02T07:52:05Z</time>
      </trkpt>
      <trkpt lat="46.167102484032512" lon="10.548319704830647">
        <ele>2879.29</ele>
        <time>2015-08-02T07:52:16Z</time>
      </trkpt>
      <trkpt lat="46.167127629742026" lon="10.548365637660027">
        <ele>2878.8099999999999</ele>
        <time>2015-08-02T07:52:20Z</time>
      </trkpt>
      <trkpt lat="46.167192086577415" lon="10.548481643199921">
        <ele>2878.3200000000002</ele>
        <time>2015-08-02T07:52:32Z</time>
      </trkpt>
      <trkpt lat="46.167251178994775" lon="10.548589853569865">
        <ele>2877.8400000000001</ele>
        <time>2015-08-02T07:52:43Z</time>
      </trkpt>
      <trkpt lat="46.167295016348362" lon="10.548673504963517">
        <ele>2877.3600000000001</ele>
        <time>2015-08-02T07:52:52Z</time>
      </trkpt>
      <trkpt lat="46.1673603951931" lon="10.54881826043129">
        <ele>2877.3600000000001</ele>
        <time>2015-08-02T07:53:04Z</time>
      </trkpt>
      <trkpt lat="46.167367184534669" lon="10.548825804144144">
        <ele>2877.3600000000001</ele>
        <time>2015-08-02T07:53:05Z</time>
      </trkpt>
      <trkpt lat="46.16743172518909" lon="10.548894368112087">
        <ele>2876.8800000000001</ele>
        <time>2015-08-02T07:53:14Z</time>
      </trkpt>
      <trkpt lat="46.167502887547016" lon="10.549000231549144">
        <ele>2876.4000000000001</ele>
        <time>2015-08-02T07:53:25Z</time>
      </trkpt>
      <trkpt lat="46.167562063783407" lon="10.549116572365165">
        <ele>2875.9200000000001</ele>
        <time>2015-08-02T07:53:36Z</time>
      </trkpt>
      <trkpt lat="46.167588299140334" lon="10.549179101362824">
        <ele>2875.4400000000001</ele>
        <time>2015-08-02T07:53:42Z</time>
      </trkpt>
      <trkpt lat="46.167617300525308" lon="10.549227213487029">
        <ele>2875.4400000000001</ele>
        <time>2015-08-02T07:53:47Z</time>
      </trkpt>
      <trkpt lat="46.167695000767708" lon="10.549324611201882">
        <ele>2874.96</ele>
        <time>2015-08-02T07:53:58Z</time>
      </trkpt>
      <trkpt lat="46.167760211974382" lon="10.549445981159806">
        <ele>2874</ele>
        <time>2015-08-02T07:54:10Z</time>
      </trkpt>
      <trkpt lat="46.167797176167369" lon="10.549566512927413">
        <ele>2873.52</ele>
        <time>2015-08-02T07:54:20Z</time>
      </trkpt>
      <trkpt lat="46.167852077633142" lon="10.549603896215558">
        <ele>2873.52</ele>
        <time>2015-08-02T07:54:30Z</time>
      </trkpt>
      <trkpt lat="46.167870182543993" lon="10.549648655578494">
        <ele>2873.52</ele>
        <time>2015-08-02T07:54:35Z</time>
      </trkpt>
      <trkpt lat="46.16788862273097" lon="10.549675477668643">
        <ele>2873.04</ele>
        <time>2015-08-02T07:54:38Z</time>
      </trkpt>
      <trkpt lat="46.167895998805761" lon="10.549697270616889">
        <ele>2873.04</ele>
        <time>2015-08-02T07:54:40Z</time>
      </trkpt>
      <trkpt lat="46.167921312153339" lon="10.549786118790507">
        <ele>2873.04</ele>
        <time>2015-08-02T07:54:48Z</time>
      </trkpt>
      <trkpt lat="46.167941093444824" lon="10.549805145710707">
        <ele>2873.04</ele>
        <time>2015-08-02T07:54:51Z</time>
      </trkpt>
      <trkpt lat="46.1679682508111" lon="10.549862394109368">
        <ele>2872.5599999999999</ele>
        <time>2015-08-02T07:54:56Z</time>
      </trkpt>
      <trkpt lat="46.167985685169697" lon="10.54993481375277">
        <ele>2872.5599999999999</ele>
        <time>2015-08-02T07:55:03Z</time>
      </trkpt>
      <trkpt lat="46.168003035709262" lon="10.549994995817542">
        <ele>2871.5999999999999</ele>
        <time>2015-08-02T07:55:08Z</time>
      </trkpt>
      <trkpt lat="46.168030276894569" lon="10.550048807635903">
        <ele>2871.5999999999999</ele>
        <time>2015-08-02T07:55:13Z</time>
      </trkpt>
      <trkpt lat="46.168045531958342" lon="10.550108570605516">
        <ele>2871.1100000000001</ele>
        <time>2015-08-02T07:55:19Z</time>
      </trkpt>
      <trkpt lat="46.168072940781713" lon="10.550171686336398">
        <ele>2871.1100000000001</ele>
        <time>2015-08-02T07:55:28Z</time>
      </trkpt>
      <trkpt lat="46.168082831427455" lon="10.550179481506348">
        <ele>2871.1100000000001</ele>
        <time>2015-08-02T07:55:40Z</time>
      </trkpt>
      <trkpt lat="46.168145025148988" lon="10.550276208668947">
        <ele>2870.6300000000001</ele>
        <time>2015-08-02T07:55:51Z</time>
      </trkpt>
      <trkpt lat="46.168189030140638" lon="10.550360698252916">
        <ele>2870.1500000000001</ele>
        <time>2015-08-02T07:55:59Z</time>
      </trkpt>
      <trkpt lat="46.168240243569016" lon="10.550468824803829">
        <ele>2869.6700000000001</ele>
        <time>2015-08-02T07:56:09Z</time>
      </trkpt>
      <trkpt lat="46.168248876929283" lon="10.550509644672275">
        <ele>2869.1900000000001</ele>
        <time>2015-08-02T07:56:12Z</time>
      </trkpt>
      <trkpt lat="46.168282404541969" lon="10.550613244995475">
        <ele>2868.71</ele>
        <time>2015-08-02T07:56:21Z</time>
      </trkpt>
      <trkpt lat="46.168340491130948" lon="10.550683233886957">
        <ele>2868.23</ele>
        <time>2015-08-02T07:56:30Z</time>
      </trkpt>
      <trkpt lat="46.168381981551647" lon="10.550789264962077">
        <ele>2868.23</ele>
        <time>2015-08-02T07:56:40Z</time>
      </trkpt>
      <trkpt lat="46.168399248272181" lon="10.550812482833862">
        <ele>2867.27</ele>
        <time>2015-08-02T07:56:43Z</time>
      </trkpt>
      <trkpt lat="46.168409055098891" lon="10.550837209448218">
        <ele>2867.27</ele>
        <time>2015-08-02T07:56:45Z</time>
      </trkpt>
      <trkpt lat="46.168419281020761" lon="10.550895715132356">
        <ele>2866.79</ele>
        <time>2015-08-02T07:56:49Z</time>
      </trkpt>
      <trkpt lat="46.168433111160994" lon="10.550943072885275">
        <ele>2866.79</ele>
        <time>2015-08-02T07:56:53Z</time>
      </trkpt>
      <trkpt lat="46.16844417527318" lon="10.551044996827841">
        <ele>2866.3099999999999</ele>
        <time>2015-08-02T07:57:02Z</time>
      </trkpt>
      <trkpt lat="46.168444342911243" lon="10.551096042618155">
        <ele>2866.3099999999999</ele>
        <time>2015-08-02T07:57:06Z</time>
      </trkpt>
      <trkpt lat="46.16847300902009" lon="10.551155554130673">
        <ele>2866.3099999999999</ele>
        <time>2015-08-02T07:57:12Z</time>
      </trkpt>
      <trkpt lat="46.168473847210407" lon="10.551186734810472">
        <ele>2865.8299999999999</ele>
        <time>2015-08-02T07:57:14Z</time>
      </trkpt>
      <trkpt lat="46.168483318760991" lon="10.551210371777415">
        <ele>2865.3499999999999</ele>
        <time>2015-08-02T07:57:17Z</time>
      </trkpt>
      <trkpt lat="46.168485665693879" lon="10.55127558298409">
        <ele>2864.8699999999999</ele>
        <time>2015-08-02T07:57:21Z</time>
      </trkpt>
      <trkpt lat="46.168481055647135" lon="10.551355127245188">
        <ele>2864.8699999999999</ele>
        <time>2015-08-02T07:57:26Z</time>
      </trkpt>
      <trkpt lat="46.168525731191039" lon="10.55147054605186">
        <ele>2864.3899999999999</ele>
        <time>2015-08-02T07:57:37Z</time>
      </trkpt>
      <trkpt lat="46.168566467240453" lon="10.551563082262874">
        <ele>2863.9000000000001</ele>
        <time>2015-08-02T07:57:46Z</time>
      </trkpt>
      <trkpt lat="46.168584069237113" lon="10.551607254892588">
        <ele>2863.4200000000001</ele>
        <time>2015-08-02T07:57:50Z</time>
      </trkpt>
      <trkpt lat="46.168594630435109" lon="10.551721332594752">
        <ele>2862.9400000000001</ele>
        <time>2015-08-02T07:57:58Z</time>
      </trkpt>
      <trkpt lat="46.168617680668831" lon="10.5518121086061">
        <ele>2862.46</ele>
        <time>2015-08-02T07:58:06Z</time>
      </trkpt>
      <trkpt lat="46.168615836650133" lon="10.55187807418406">
        <ele>2861.5</ele>
        <time>2015-08-02T07:58:10Z</time>
      </trkpt>
      <trkpt lat="46.168626984581351" lon="10.551908416673541">
        <ele>2861.98</ele>
        <time>2015-08-02T07:58:13Z</time>
      </trkpt>
      <trkpt lat="46.16864844225347" lon="10.551946554332972">
        <ele>2861.5</ele>
        <time>2015-08-02T07:58:17Z</time>
      </trkpt>
      <trkpt lat="46.168646598234773" lon="10.552032049745321">
        <ele>2861.02</ele>
        <time>2015-08-02T07:58:23Z</time>
      </trkpt>
      <trkpt lat="46.16865430958569" lon="10.55205300450325">
        <ele>2860.54</ele>
        <time>2015-08-02T07:58:25Z</time>
      </trkpt>
      <trkpt lat="46.168667804449797" lon="10.552190467715263">
        <ele>2859.5799999999999</ele>
        <time>2015-08-02T07:58:36Z</time>
      </trkpt>
      <trkpt lat="46.168670738115907" lon="10.5522196367383">
        <ele>2859.5799999999999</ele>
        <time>2015-08-02T07:58:39Z</time>
      </trkpt>
      <trkpt lat="46.168655399233103" lon="10.552370259538293">
        <ele>2858.6199999999999</ele>
        <time>2015-08-02T07:58:51Z</time>
      </trkpt>
      <trkpt lat="46.168655818328261" lon="10.552406469359994">
        <ele>2858.1399999999999</ele>
        <time>2015-08-02T07:58:54Z</time>
      </trkpt>
      <trkpt lat="46.168661685660481" lon="10.552453324198723">
        <ele>2858.1399999999999</ele>
        <time>2015-08-02T07:58:57Z</time>
      </trkpt>
      <trkpt lat="46.168678868561983" lon="10.55256069637835">
        <ele>2857.1799999999998</ele>
        <time>2015-08-02T07:59:06Z</time>
      </trkpt>
      <trkpt lat="46.168672414496541" lon="10.552642671391368">
        <ele>2856.6900000000001</ele>
        <time>2015-08-02T07:59:13Z</time>
      </trkpt>
      <trkpt lat="46.168684652075171" lon="10.552678545936942">
        <ele>2855.73</ele>
        <time>2015-08-02T07:59:16Z</time>
      </trkpt>
      <trkpt lat="46.168678365647793" lon="10.552770579233766">
        <ele>2854.29</ele>
        <time>2015-08-02T07:59:23Z</time>
      </trkpt>
      <trkpt lat="46.168673671782017" lon="10.552811734378338">
        <ele>2854.29</ele>
        <time>2015-08-02T07:59:26Z</time>
      </trkpt>
      <trkpt lat="46.16867383942008" lon="10.552841909229755">
        <ele>2853.3299999999999</ele>
        <time>2015-08-02T07:59:29Z</time>
      </trkpt>
      <trkpt lat="46.168691692873836" lon="10.552904857322574">
        <ele>2852.8499999999999</ele>
        <time>2015-08-02T07:59:35Z</time>
      </trkpt>
      <trkpt lat="46.168661769479513" lon="10.552985239773989">
        <ele>2851.8899999999999</ele>
        <time>2015-08-02T07:59:46Z</time>
      </trkpt>
      <trkpt lat="46.168688675388694" lon="10.553011978045106">
        <ele>2851.8899999999999</ele>
        <time>2015-08-02T07:59:59Z</time>
      </trkpt>
      <trkpt lat="46.168672079220414" lon="10.553036369383335">
        <ele>2851.8899999999999</ele>
        <time>2015-08-02T08:00:10Z</time>
      </trkpt>
      <trkpt lat="46.168672330677509" lon="10.553027903661132">
        <ele>2851.8899999999999</ele>
        <time>2015-08-02T08:00:30Z</time>
      </trkpt>
      <trkpt lat="46.168677862733603" lon="10.553044332191348">
        <ele>2851.8899999999999</ele>
        <time>2015-08-02T08:00:44Z</time>
      </trkpt>
      <trkpt lat="46.168688843026757" lon="10.553066292777658">
        <ele>2851.8899999999999</ele>
        <time>2015-08-02T08:00:56Z</time>
      </trkpt>
      <trkpt lat="46.16876469925046" lon="10.553181124851108">
        <ele>2849.9699999999998</ele>
        <time>2015-08-02T08:01:09Z</time>
      </trkpt>
      <trkpt lat="46.168784229084849" lon="10.553263686597347">
        <ele>2849</ele>
        <time>2015-08-02T08:01:15Z</time>
      </trkpt>
      <trkpt lat="46.168828485533595" lon="10.553339123725891">
        <ele>2847.0799999999999</ele>
        <time>2015-08-02T08:01:25Z</time>
      </trkpt>
      <trkpt lat="46.168838795274496" lon="10.553363850340247">
        <ele>2847.0799999999999</ele>
        <time>2015-08-02T08:01:27Z</time>
      </trkpt>
      <trkpt lat="46.16890886798501" lon="10.553427552804351">
        <ele>2845.6399999999999</ele>
        <time>2015-08-02T08:01:36Z</time>
      </trkpt>
      <trkpt lat="46.168927391991019" lon="10.553465019911528">
        <ele>2845.1599999999999</ele>
        <time>2015-08-02T08:01:39Z</time>
      </trkpt>
      <trkpt lat="46.168978605419397" lon="10.55356333963573">
        <ele>2843.2399999999998</ele>
        <time>2015-08-02T08:01:49Z</time>
      </trkpt>
      <trkpt lat="46.169027555733919" lon="10.553635340183973">
        <ele>2842.7600000000002</ele>
        <time>2015-08-02T08:01:57Z</time>
      </trkpt>
      <trkpt lat="46.169118247926235" lon="10.553745813667774">
        <ele>2839.8699999999999</ele>
        <time>2015-08-02T08:02:10Z</time>
      </trkpt>
      <trkpt lat="46.169177172705531" lon="10.553841535001993">
        <ele>2838.4299999999998</ele>
        <time>2015-08-02T08:02:19Z</time>
      </trkpt>
      <trkpt lat="46.169196451082826" lon="10.553859975188971">
        <ele>2837.9499999999998</ele>
        <time>2015-08-02T08:02:28Z</time>
      </trkpt>
      <trkpt lat="46.169186141341925" lon="10.553870787844062">
        <ele>2837.4699999999998</ele>
        <time>2015-08-02T08:02:42Z</time>
      </trkpt>
      <trkpt lat="46.169150937348604" lon="10.553877325728536">
        <ele>2837.4699999999998</ele>
        <time>2015-08-02T08:03:02Z</time>
      </trkpt>
      <trkpt lat="46.169162588194013" lon="10.553875816985965">
        <ele>2837.4699999999998</ele>
        <time>2015-08-02T08:03:23Z</time>
      </trkpt>
      <trkpt lat="46.169156553223729" lon="10.553872464224696">
        <ele>2837.4699999999998</ele>
        <time>2015-08-02T08:03:42Z</time>
      </trkpt>
      <trkpt lat="46.169170048087835" lon="10.553842457011342">
        <ele>2837.4699999999998</ele>
        <time>2015-08-02T08:03:58Z</time>
      </trkpt>
      <trkpt lat="46.169167701154947" lon="10.553848827257752">
        <ele>2837.4699999999998</ele>
        <time>2015-08-02T08:04:15Z</time>
      </trkpt>
      <trkpt lat="46.169173065572977" lon="10.553886378183961">
        <ele>2837.4699999999998</ele>
        <time>2015-08-02T08:04:27Z</time>
      </trkpt>
      <trkpt lat="46.169182537123561" lon="10.553889814764261">
        <ele>2837.4699999999998</ele>
        <time>2015-08-02T08:04:40Z</time>
      </trkpt>
      <trkpt lat="46.169190919026732" lon="10.553897777572274">
        <ele>2836.9899999999998</ele>
        <time>2015-08-02T08:04:50Z</time>
      </trkpt>
      <trkpt lat="46.169189745560288" lon="10.553889228031039">
        <ele>2836.9899999999998</ele>
        <time>2015-08-02T08:05:15Z</time>
      </trkpt>
      <trkpt lat="46.169186811894178" lon="10.55389660410583">
        <ele>2836.9899999999998</ele>
        <time>2015-08-02T08:05:30Z</time>
      </trkpt>
      <trkpt lat="46.169204413890839" lon="10.553892916068435">
        <ele>2836.5100000000002</ele>
        <time>2015-08-02T08:05:48Z</time>
      </trkpt>
      <trkpt lat="46.169219166040421" lon="10.553905824199319">
        <ele>2836.9899999999998</ele>
        <time>2015-08-02T08:06:02Z</time>
      </trkpt>
      <trkpt lat="46.16923626512289" lon="10.553921917453408">
        <ele>2836.5100000000002</ele>
        <time>2015-08-02T08:06:04Z</time>
      </trkpt>
      <trkpt lat="46.169303823262453" lon="10.553990229964256">
        <ele>2835.0599999999999</ele>
        <time>2015-08-02T08:06:13Z</time>
      </trkpt>
      <trkpt lat="46.169321006163955" lon="10.55400020442903">
        <ele>2834.0999999999999</ele>
        <time>2015-08-02T08:06:15Z</time>
      </trkpt>
      <trkpt lat="46.169329974800348" lon="10.554020404815674">
        <ele>2834.0999999999999</ele>
        <time>2015-08-02T08:06:17Z</time>
      </trkpt>
      <trkpt lat="46.169409938156605" lon="10.554105397313833">
        <ele>2832.6599999999999</ele>
        <time>2015-08-02T08:06:27Z</time>
      </trkpt>
      <trkpt lat="46.169459475204349" lon="10.554161388427019">
        <ele>2831.2199999999998</ele>
        <time>2015-08-02T08:06:34Z</time>
      </trkpt>
      <trkpt lat="46.169485123828053" lon="10.554225342348218">
        <ele>2830.7399999999998</ele>
        <time>2015-08-02T08:06:40Z</time>
      </trkpt>
      <trkpt lat="46.169560141861439" lon="10.554329110309482">
        <ele>2828.3400000000001</ele>
        <time>2015-08-02T08:06:51Z</time>
      </trkpt>
      <trkpt lat="46.169565673917532" lon="10.554338833317161">
        <ele>2828.3400000000001</ele>
        <time>2015-08-02T08:06:52Z</time>
      </trkpt>
      <trkpt lat="46.169612780213356" lon="10.554382503032684">
        <ele>2827.8499999999999</ele>
        <time>2015-08-02T08:06:59Z</time>
      </trkpt>
      <trkpt lat="46.169639183208346" lon="10.554403876885772">
        <ele>2827.3699999999999</ele>
        <time>2015-08-02T08:07:02Z</time>
      </trkpt>
      <trkpt lat="46.16968628950417" lon="10.554513595998287">
        <ele>2825.9299999999998</ele>
        <time>2015-08-02T08:07:12Z</time>
      </trkpt>
      <trkpt lat="46.169725684449077" lon="10.554597582668066">
        <ele>2825.4499999999998</ele>
        <time>2015-08-02T08:07:21Z</time>
      </trkpt>
      <trkpt lat="46.169741190969944" lon="10.55463538505137">
        <ele>2824.9699999999998</ele>
        <time>2015-08-02T08:07:25Z</time>
      </trkpt>
      <trkpt lat="46.169758876785636" lon="10.554666984826326">
        <ele>2824.4899999999998</ele>
        <time>2015-08-02T08:07:28Z</time>
      </trkpt>
      <trkpt lat="46.169766169041395" lon="10.554705876857042">
        <ele>2824.0100000000002</ele>
        <time>2015-08-02T08:07:31Z</time>
      </trkpt>
      <trkpt lat="46.169800199568272" lon="10.554746948182583">
        <ele>2824.0100000000002</ele>
        <time>2015-08-02T08:07:36Z</time>
      </trkpt>
      <trkpt lat="46.169823333621025" lon="10.554770417511463">
        <ele>2823.5300000000002</ele>
        <time>2015-08-02T08:07:39Z</time>
      </trkpt>
      <trkpt lat="46.169842025265098" lon="10.554806627333164">
        <ele>2823.0500000000002</ele>
        <time>2015-08-02T08:07:43Z</time>
      </trkpt>
      <trkpt lat="46.169890640303493" lon="10.554868737235665">
        <ele>2822.5700000000002</ele>
        <time>2015-08-02T08:07:51Z</time>
      </trkpt>
      <trkpt lat="46.169931627810001" lon="10.555002428591251">
        <ele>2821.6100000000001</ele>
        <time>2015-08-02T08:08:01Z</time>
      </trkpt>
      <trkpt lat="46.169960042461753" lon="10.555065544322133">
        <ele>2821.6100000000001</ele>
        <time>2015-08-02T08:08:08Z</time>
      </trkpt>
      <trkpt lat="46.169972196221352" lon="10.555079625919461">
        <ele>2821.6100000000001</ele>
        <time>2015-08-02T08:08:10Z</time>
      </trkpt>
      <trkpt lat="46.170010836794972" lon="10.555191356688738">
        <ele>2820.6500000000001</ele>
        <time>2015-08-02T08:08:20Z</time>
      </trkpt>
      <trkpt lat="46.17001561447978" lon="10.555213233456016">
        <ele>2821.1300000000001</ele>
        <time>2015-08-02T08:08:22Z</time>
      </trkpt>
      <trkpt lat="46.170011088252068" lon="10.555244330316782">
        <ele>2820.6500000000001</ele>
        <time>2015-08-02T08:08:24Z</time>
      </trkpt>
      <trkpt lat="46.170014189556241" lon="10.555267464369535">
        <ele>2820.6500000000001</ele>
        <time>2015-08-02T08:08:26Z</time>
      </trkpt>
      <trkpt lat="46.170049561187625" lon="10.55532337166369">
        <ele>2820.1599999999999</ele>
        <time>2015-08-02T08:08:32Z</time>
      </trkpt>
      <trkpt lat="46.170089039951563" lon="10.555429235100746">
        <ele>2819.6799999999998</ele>
        <time>2015-08-02T08:08:42Z</time>
      </trkpt>
      <trkpt lat="46.170099265873432" lon="10.555480616167188">
        <ele>2819.1999999999998</ele>
        <time>2015-08-02T08:08:47Z</time>
      </trkpt>
      <trkpt lat="46.170105971395969" lon="10.555520597845316">
        <ele>2819.1999999999998</ele>
        <time>2015-08-02T08:08:51Z</time>
      </trkpt>
      <trkpt lat="46.170117286965251" lon="10.555537948384881">
        <ele>2818.7199999999998</ele>
        <time>2015-08-02T08:08:53Z</time>
      </trkpt>
      <trkpt lat="46.170140421018004" lon="10.555609446018934">
        <ele>2818.2399999999998</ele>
        <time>2015-08-02T08:09:00Z</time>
      </trkpt>
      <trkpt lat="46.170160956680775" lon="10.555670047178864">
        <ele>2818.2399999999998</ele>
        <time>2015-08-02T08:09:05Z</time>
      </trkpt>
      <trkpt lat="46.170160956680775" lon="10.555694689974189">
        <ele>2817.7600000000002</ele>
        <time>2015-08-02T08:09:07Z</time>
      </trkpt>
      <trkpt lat="46.170184593647718" lon="10.555797703564167">
        <ele>2816.8000000000002</ele>
        <time>2015-08-02T08:09:16Z</time>
      </trkpt>
      <trkpt lat="46.170220049098134" lon="10.555840535089374">
        <ele>2816.3200000000002</ele>
        <time>2015-08-02T08:09:21Z</time>
      </trkpt>
      <trkpt lat="46.17022767663002" lon="10.555867776274681">
        <ele>2816.3200000000002</ele>
        <time>2015-08-02T08:09:23Z</time>
      </trkpt>
      <trkpt lat="46.170263132080436" lon="10.555941704660654">
        <ele>2815.3600000000001</ele>
        <time>2015-08-02T08:09:30Z</time>
      </trkpt>
      <trkpt lat="46.170294061303139" lon="10.556046310812235">
        <ele>2814.8800000000001</ele>
        <time>2015-08-02T08:09:39Z</time>
      </trkpt>
      <trkpt lat="46.170338066294789" lon="10.556139601394534">
        <ele>2813.4400000000001</ele>
        <time>2015-08-02T08:09:49Z</time>
      </trkpt>
      <trkpt lat="46.170366900041699" lon="10.556183187291026">
        <ele>2812.96</ele>
        <time>2015-08-02T08:09:53Z</time>
      </trkpt>
      <trkpt lat="46.17038207128644" lon="10.556174973025918">
        <ele>2812.96</ele>
        <time>2015-08-02T08:09:55Z</time>
      </trkpt>
      <trkpt lat="46.170404618605971" lon="10.556189306080341">
        <ele>2812.96</ele>
        <time>2015-08-02T08:09:58Z</time>
      </trkpt>
      <trkpt lat="46.170430518686771" lon="10.556293074041605">
        <ele>2811.5100000000002</ele>
        <time>2015-08-02T08:10:09Z</time>
      </trkpt>
      <trkpt lat="46.17046027444303" lon="10.556387789547443">
        <ele>2810.5500000000002</ele>
        <time>2015-08-02T08:10:18Z</time>
      </trkpt>
      <trkpt lat="46.170463794842362" lon="10.556392231956124">
        <ele>2810.5500000000002</ele>
        <time>2015-08-02T08:10:19Z</time>
      </trkpt>
      <trkpt lat="46.170466896146536" lon="10.556457610800862">
        <ele>2809.5900000000001</ele>
        <time>2015-08-02T08:10:24Z</time>
      </trkpt>
      <trkpt lat="46.170539567247033" lon="10.556573029607534">
        <ele>2808.6300000000001</ele>
        <time>2015-08-02T08:10:35Z</time>
      </trkpt>
      <trkpt lat="46.170603353530169" lon="10.556664811447263">
        <ele>2807.1900000000001</ele>
        <time>2015-08-02T08:10:45Z</time>
      </trkpt>
      <trkpt lat="46.170609891414642" lon="10.556676546111703">
        <ele>2807.1900000000001</ele>
        <time>2015-08-02T08:10:46Z</time>
      </trkpt>
      <trkpt lat="46.17065230384469" lon="10.556766986846924">
        <ele>2805.75</ele>
        <time>2015-08-02T08:10:55Z</time>
      </trkpt>
      <trkpt lat="46.170666636899114" lon="10.556783583015203">
        <ele>2805.75</ele>
        <time>2015-08-02T08:10:57Z</time>
      </trkpt>
      <trkpt lat="46.170741654932499" lon="10.556886261329055">
        <ele>2803.8200000000002</ele>
        <time>2015-08-02T08:11:08Z</time>
      </trkpt>
      <trkpt lat="46.17074609734118" lon="10.556894643232226">
        <ele>2804.3000000000002</ele>
        <time>2015-08-02T08:11:09Z</time>
      </trkpt>
      <trkpt lat="46.170802172273397" lon="10.55704434402287">
        <ele>2802.3800000000001</ele>
        <time>2015-08-02T08:11:20Z</time>
      </trkpt>
      <trkpt lat="46.170814577490091" lon="10.557115841656923">
        <ele>2801.4200000000001</ele>
        <time>2015-08-02T08:11:26Z</time>
      </trkpt>
      <trkpt lat="46.170926559716463" lon="10.557186082005501">
        <ele>2799.5</ele>
        <time>2015-08-02T08:11:38Z</time>
      </trkpt>
      <trkpt lat="46.170994285494089" lon="10.557223968207836">
        <ele>2798.54</ele>
        <time>2015-08-02T08:11:46Z</time>
      </trkpt>
      <trkpt lat="46.171100484207273" lon="10.557309212163091">
        <ele>2796.6100000000001</ele>
        <time>2015-08-02T08:11:58Z</time>
      </trkpt>
      <trkpt lat="46.171191427856684" lon="10.557353887706995">
        <ele>2795.6500000000001</ele>
        <time>2015-08-02T08:12:08Z</time>
      </trkpt>
      <trkpt lat="46.171160330995917" lon="10.557354390621185">
        <ele>2795.6500000000001</ele>
        <time>2015-08-02T08:12:21Z</time>
      </trkpt>
      <trkpt lat="46.171237360686064" lon="10.557397976517677">
        <ele>2794.21</ele>
        <time>2015-08-02T08:12:30Z</time>
      </trkpt>
      <trkpt lat="46.171324532479048" lon="10.557455644011497">
        <ele>2792.77</ele>
        <time>2015-08-02T08:12:40Z</time>
      </trkpt>
      <trkpt lat="46.171369878575206" lon="10.557490512728691">
        <ele>2792.29</ele>
        <time>2015-08-02T08:12:46Z</time>
      </trkpt>
      <trkpt lat="46.171470796689391" lon="10.557537786662579">
        <ele>2790.8400000000001</ele>
        <time>2015-08-02T08:12:57Z</time>
      </trkpt>
      <trkpt lat="46.171512119472027" lon="10.557574331760406">
        <ele>2790.3600000000001</ele>
        <time>2015-08-02T08:13:02Z</time>
      </trkpt>
      <trkpt lat="46.17161831818521" lon="10.557623282074928">
        <ele>2788.9200000000001</ele>
        <time>2015-08-02T08:13:13Z</time>
      </trkpt>
      <trkpt lat="46.171651845797896" lon="10.557668460533023">
        <ele>2787.96</ele>
        <time>2015-08-02T08:13:18Z</time>
      </trkpt>
      <trkpt lat="46.171679841354489" lon="10.557683799415827">
        <ele>2787.48</ele>
        <time>2015-08-02T08:13:21Z</time>
      </trkpt>
      <trkpt lat="46.171733736991882" lon="10.557727050036192">
        <ele>2786.52</ele>
        <time>2015-08-02T08:13:29Z</time>
      </trkpt>
      <trkpt lat="46.171766007319093" lon="10.557738365605474">
        <ele>2786.04</ele>
        <time>2015-08-02T08:13:33Z</time>
      </trkpt>
      <trkpt lat="46.171873128041625" lon="10.557805839926004">
        <ele>2785.0799999999999</ele>
        <time>2015-08-02T08:13:45Z</time>
      </trkpt>
      <trkpt lat="46.171952588483691" lon="10.557845486328006">
        <ele>2783.6300000000001</ele>
        <time>2015-08-02T08:13:54Z</time>
      </trkpt>
      <trkpt lat="46.171954767778516" lon="10.557841546833515">
        <ele>2783.6300000000001</ele>
        <time>2015-08-02T08:13:55Z</time>
      </trkpt>
      <trkpt lat="46.171989049762487" lon="10.557852275669575">
        <ele>2783.6300000000001</ele>
        <time>2015-08-02T08:14:02Z</time>
      </trkpt>
      <trkpt lat="46.172030037268996" lon="10.557916145771742">
        <ele>2782.1900000000001</ele>
        <time>2015-08-02T08:14:10Z</time>
      </trkpt>
      <trkpt lat="46.172118131071329" lon="10.557949673384428">
        <ele>2781.23</ele>
        <time>2015-08-02T08:14:19Z</time>
      </trkpt>
      <trkpt lat="46.17215677164495" lon="10.557968951761723">
        <ele>2780.75</ele>
        <time>2015-08-02T08:14:23Z</time>
      </trkpt>
      <trkpt lat="46.17217730730772" lon="10.557970460504293">
        <ele>2780.27</ele>
        <time>2015-08-02T08:14:25Z</time>
      </trkpt>
      <trkpt lat="46.172283086925745" lon="10.558039275929332">
        <ele>2778.3499999999999</ele>
        <time>2015-08-02T08:14:36Z</time>
      </trkpt>
      <trkpt lat="46.172386519610882" lon="10.558071043342352">
        <ele>2777.3899999999999</ele>
        <time>2015-08-02T08:14:46Z</time>
      </trkpt>
      <trkpt lat="46.172480396926403" lon="10.558117898181081">
        <ele>2776.4200000000001</ele>
        <time>2015-08-02T08:14:56Z</time>
      </trkpt>
      <trkpt lat="46.172507302835584" lon="10.558131979778409">
        <ele>2775.46</ele>
        <time>2015-08-02T08:14:59Z</time>
      </trkpt>
      <trkpt lat="46.172523899003863" lon="10.558158215135336">
        <ele>2775.46</ele>
        <time>2015-08-02T08:15:02Z</time>
      </trkpt>
      <trkpt lat="46.172595396637917" lon="10.558215547353029">
        <ele>2774.02</ele>
        <time>2015-08-02T08:15:10Z</time>
      </trkpt>
      <trkpt lat="46.172673515975475" lon="10.558233736082911">
        <ele>2772.5799999999999</ele>
        <time>2015-08-02T08:15:18Z</time>
      </trkpt>
      <trkpt lat="46.172782061621547" lon="10.558296432718635">
        <ele>2771.1399999999999</ele>
        <time>2015-08-02T08:15:29Z</time>
      </trkpt>
      <trkpt lat="46.172802345827222" lon="10.55830355733633">
        <ele>2770.6599999999999</ele>
        <time>2015-08-02T08:15:32Z</time>
      </trkpt>
      <trkpt lat="46.172861019149423" lon="10.558316214010119">
        <ele>2770.1799999999998</ele>
        <time>2015-08-02T08:15:38Z</time>
      </trkpt>
      <trkpt lat="46.172972414642572" lon="10.558388717472553">
        <ele>2768.73</ele>
        <time>2015-08-02T08:15:50Z</time>
      </trkpt>
      <trkpt lat="46.17301088757813" lon="10.558402128517628">
        <ele>2767.77</ele>
        <time>2015-08-02T08:15:54Z</time>
      </trkpt>
      <trkpt lat="46.173075595870614" lon="10.558444624766707">
        <ele>2766.8099999999999</ele>
        <time>2015-08-02T08:16:02Z</time>
      </trkpt>
      <trkpt lat="46.173180621117353" lon="10.558510338887572">
        <ele>2765.3699999999999</ele>
        <time>2015-08-02T08:16:14Z</time>
      </trkpt>
      <trkpt lat="46.173273073509336" lon="10.558579070493579">
        <ele>2763.9299999999998</ele>
        <time>2015-08-02T08:16:25Z</time>
      </trkpt>
      <trkpt lat="46.173281455412507" lon="10.558582590892911">
        <ele>2763.4499999999998</ele>
        <time>2015-08-02T08:16:26Z</time>
      </trkpt>
      <trkpt lat="46.17336711846292" lon="10.558588542044163">
        <ele>2762.9699999999998</ele>
        <time>2015-08-02T08:16:35Z</time>
      </trkpt>
      <trkpt lat="46.173470802605152" lon="10.558635648339987">
        <ele>2761.52</ele>
        <time>2015-08-02T08:16:46Z</time>
      </trkpt>
      <trkpt lat="46.173578510060906" lon="10.558698093518615">
        <ele>2760.0799999999999</ele>
        <time>2015-08-02T08:16:57Z</time>
      </trkpt>
      <trkpt lat="46.173588316887617" lon="10.55870178155601">
        <ele>2760.0799999999999</ele>
        <time>2015-08-02T08:16:58Z</time>
      </trkpt>
      <trkpt lat="46.173638356849551" lon="10.558747379109263">
        <ele>2759.5999999999999</ele>
        <time>2015-08-02T08:17:04Z</time>
      </trkpt>
      <trkpt lat="46.173697952181101" lon="10.55878777988255">
        <ele>2759.1199999999999</ele>
        <time>2015-08-02T08:17:11Z</time>
      </trkpt>
      <trkpt lat="46.173720331862569" lon="10.55880144238472">
        <ele>2758.6399999999999</ele>
        <time>2015-08-02T08:17:13Z</time>
      </trkpt>
      <trkpt lat="46.173806665465236" lon="10.558866150677204">
        <ele>2757.6799999999998</ele>
        <time>2015-08-02T08:17:24Z</time>
      </trkpt>
      <trkpt lat="46.173888137564063" lon="10.558929014950991">
        <ele>2756.2399999999998</ele>
        <time>2015-08-02T08:17:33Z</time>
      </trkpt>
      <trkpt lat="46.173920407891273" lon="10.558957094326615">
        <ele>2755.7600000000002</ele>
        <time>2015-08-02T08:17:37Z</time>
      </trkpt>
      <trkpt lat="46.173998191952705" lon="10.55901300162077">
        <ele>2754.3099999999999</ele>
        <time>2015-08-02T08:17:45Z</time>
      </trkpt>
      <trkpt lat="46.174013782292604" lon="10.559030100703239">
        <ele>2754.3099999999999</ele>
        <time>2015-08-02T08:17:47Z</time>
      </trkpt>
      <trkpt lat="46.174035491421819" lon="10.559042422100902">
        <ele>2754.3099999999999</ele>
        <time>2015-08-02T08:17:49Z</time>
      </trkpt>
      <trkpt lat="46.174073293805122" lon="10.55907117202878">
        <ele>2753.3499999999999</ele>
        <time>2015-08-02T08:17:54Z</time>
      </trkpt>
      <trkpt lat="46.174182342365384" lon="10.559143340215087">
        <ele>2751.9099999999999</ele>
        <time>2015-08-02T08:18:06Z</time>
      </trkpt>
      <trkpt lat="46.174195753410459" lon="10.559172257781029">
        <ele>2750.9499999999998</ele>
        <time>2015-08-02T08:18:14Z</time>
      </trkpt>
      <trkpt lat="46.174177564680576" lon="10.559175107628107">
        <ele>2750.9499999999998</ele>
        <time>2015-08-02T08:18:31Z</time>
      </trkpt>
      <trkpt lat="46.174186784774065" lon="10.559175023809075">
        <ele>2750.9499999999998</ele>
        <time>2015-08-02T08:18:44Z</time>
      </trkpt>
      <trkpt lat="46.174237998202443" lon="10.559189943596721">
        <ele>2750.4699999999998</ele>
        <time>2015-08-02T08:18:53Z</time>
      </trkpt>
      <trkpt lat="46.174262640997767" lon="10.559192458167672">
        <ele>2750.4699999999998</ele>
        <time>2015-08-02T08:18:55Z</time>
      </trkpt>
      <trkpt lat="46.174289798364043" lon="10.559214083477855">
        <ele>2749.9899999999998</ele>
        <time>2015-08-02T08:18:58Z</time>
      </trkpt>
      <trkpt lat="46.174376886337996" lon="10.559247611090541">
        <ele>2749.0300000000002</ele>
        <time>2015-08-02T08:19:07Z</time>
      </trkpt>
      <trkpt lat="46.174481241032481" lon="10.559302680194378">
        <ele>2748.5500000000002</ele>
        <time>2015-08-02T08:19:18Z</time>
      </trkpt>
      <trkpt lat="46.174544608220458" lon="10.559335788711905">
        <ele>2747.0999999999999</ele>
        <time>2015-08-02T08:19:25Z</time>
      </trkpt>
      <trkpt lat="46.174597414210439" lon="10.559352301061153">
        <ele>2746.1399999999999</ele>
        <time>2015-08-02T08:19:31Z</time>
      </trkpt>
      <trkpt lat="46.174618871882558" lon="10.559351881965995">
        <ele>2745.6599999999999</ele>
        <time>2015-08-02T08:19:33Z</time>
      </trkpt>
      <trkpt lat="46.174720292910933" lon="10.559389516711235">
        <ele>2745.1799999999998</ele>
        <time>2015-08-02T08:19:44Z</time>
      </trkpt>
      <trkpt lat="46.174841830506921" lon="10.559452213346958">
        <ele>2742.7800000000002</ele>
        <time>2015-08-02T08:19:57Z</time>
      </trkpt>
      <trkpt lat="46.174946101382375" lon="10.559518681839108">
        <ele>2741.8200000000002</ele>
        <time>2015-08-02T08:20:08Z</time>
      </trkpt>
      <trkpt lat="46.175016509369016" lon="10.559530751779675">
        <ele>2740.8600000000001</ele>
        <time>2015-08-02T08:20:15Z</time>
      </trkpt>
      <trkpt lat="46.175133101642132" lon="10.559578025713563">
        <ele>2739.4099999999999</ele>
        <time>2015-08-02T08:20:26Z</time>
      </trkpt>
      <trkpt lat="46.175217507407069" lon="10.559645416215062">
        <ele>2738.4499999999998</ele>
        <time>2015-08-02T08:20:36Z</time>
      </trkpt>
      <trkpt lat="46.175320940092206" lon="10.559710208326578">
        <ele>2737.4899999999998</ele>
        <time>2015-08-02T08:20:46Z</time>
      </trkpt>
      <trkpt lat="46.175375338643789" lon="10.559761002659798">
        <ele>2736.5300000000002</ele>
        <time>2015-08-02T08:20:53Z</time>
      </trkpt>
      <trkpt lat="46.175466952845454" lon="10.559824118390679">
        <ele>2735.0900000000001</ele>
        <time>2015-08-02T08:21:03Z</time>
      </trkpt>
      <trkpt lat="46.175580527633429" lon="10.559895280748606">
        <ele>2734.1300000000001</ele>
        <time>2015-08-02T08:21:15Z</time>
      </trkpt>
      <trkpt lat="46.175627382472157" lon="10.559936687350273">
        <ele>2733.1700000000001</ele>
        <time>2015-08-02T08:21:22Z</time>
      </trkpt>
      <trkpt lat="46.175614641979337" lon="10.559911876916885">
        <ele>2733.1700000000001</ele>
        <time>2015-08-02T08:21:24Z</time>
      </trkpt>
      <trkpt lat="46.175608355551958" lon="10.559829315170646">
        <ele>2733.6500000000001</ele>
        <time>2015-08-02T08:21:32Z</time>
      </trkpt>
      <trkpt lat="46.175629058852792" lon="10.559815987944603">
        <ele>2733.6500000000001</ele>
        <time>2015-08-02T08:21:35Z</time>
      </trkpt>
      <trkpt lat="46.175682116299868" lon="10.559862004593015">
        <ele>2733.1700000000001</ele>
        <time>2015-08-02T08:21:43Z</time>
      </trkpt>
      <trkpt lat="46.175761660560966" lon="10.559886982664466">
        <ele>2732.1999999999998</ele>
        <time>2015-08-02T08:21:51Z</time>
      </trkpt>
      <trkpt lat="46.175811784341931" lon="10.559908272698522">
        <ele>2731.7199999999998</ele>
        <time>2015-08-02T08:22:00Z</time>
      </trkpt>
      <trkpt lat="46.175829470157623" lon="10.559926712885499">
        <ele>2731.7199999999998</ele>
        <time>2015-08-02T08:22:02Z</time>
      </trkpt>
      <trkpt lat="46.175925442948937" lon="10.559973567724228">
        <ele>2730.7600000000002</ele>
        <time>2015-08-02T08:22:12Z</time>
      </trkpt>
      <trkpt lat="46.175999874249101" lon="10.560022769495845">
        <ele>2729.8000000000002</ele>
        <time>2015-08-02T08:22:21Z</time>
      </trkpt>
      <trkpt lat="46.17601647041738" lon="10.560028469190001">
        <ele>2729.8000000000002</ele>
        <time>2015-08-02T08:22:23Z</time>
      </trkpt>
      <trkpt lat="46.176109425723553" lon="10.560067193582654">
        <ele>2728.3600000000001</ele>
        <time>2015-08-02T08:22:33Z</time>
      </trkpt>
      <trkpt lat="46.176194418221712" lon="10.560119161382318">
        <ele>2726.9200000000001</ele>
        <time>2015-08-02T08:22:44Z</time>
      </trkpt>
      <trkpt lat="46.17622509598732" lon="10.560126872733235">
        <ele>2726.4400000000001</ele>
        <time>2015-08-02T08:22:48Z</time>
      </trkpt>
      <trkpt lat="46.176330288872123" lon="10.560180516913533">
        <ele>2725.48</ele>
        <time>2015-08-02T08:23:00Z</time>
      </trkpt>
      <trkpt lat="46.176425255835056" lon="10.560245309025049">
        <ele>2724.5100000000002</ele>
        <time>2015-08-02T08:23:10Z</time>
      </trkpt>
      <trkpt lat="46.176432631909847" lon="10.560253774747252">
        <ele>2724.5100000000002</ele>
        <time>2015-08-02T08:23:11Z</time>
      </trkpt>
      <trkpt lat="46.176551068201661" lon="10.560302557423711">
        <ele>2723.0700000000002</ele>
        <time>2015-08-02T08:23:23Z</time>
      </trkpt>
      <trkpt lat="46.176640251651406" lon="10.560348825529218">
        <ele>2721.6300000000001</ele>
        <time>2015-08-02T08:23:33Z</time>
      </trkpt>
      <trkpt lat="46.176684591919184" lon="10.560377156361938">
        <ele>2721.6300000000001</ele>
        <time>2015-08-02T08:23:38Z</time>
      </trkpt>
      <trkpt lat="46.176769332960248" lon="10.560421915724874">
        <ele>2720.6700000000001</ele>
        <time>2015-08-02T08:23:47Z</time>
      </trkpt>
      <trkpt lat="46.176848206669092" lon="10.560453766956925">
        <ele>2719.71</ele>
        <time>2015-08-02T08:23:56Z</time>
      </trkpt>
      <trkpt lat="46.17694535292685" lon="10.560542950406671">
        <ele>2718.75</ele>
        <time>2015-08-02T08:24:07Z</time>
      </trkpt>
      <trkpt lat="46.177006792277098" lon="10.560588464140892">
        <ele>2718.27</ele>
        <time>2015-08-02T08:24:14Z</time>
      </trkpt>
      <trkpt lat="46.177099328488111" lon="10.560654262080789">
        <ele>2717.3000000000002</ele>
        <time>2015-08-02T08:24:24Z</time>
      </trkpt>
      <trkpt lat="46.177164958789945" lon="10.560676474124193">
        <ele>2716.8200000000002</ele>
        <time>2015-08-02T08:24:31Z</time>
      </trkpt>
      <trkpt lat="46.1772795394063" lon="10.560730705037713">
        <ele>2715.8600000000001</ele>
        <time>2015-08-02T08:24:42Z</time>
      </trkpt>
      <trkpt lat="46.177293201908469" lon="10.560760963708162">
        <ele>2715.3800000000001</ele>
        <time>2015-08-02T08:24:44Z</time>
      </trkpt>
      <trkpt lat="46.177359167486429" lon="10.560777392238379">
        <ele>2714.9000000000001</ele>
        <time>2015-08-02T08:24:52Z</time>
      </trkpt>
      <trkpt lat="46.17739780806005" lon="10.560783427208662">
        <ele>2714.4200000000001</ele>
        <time>2015-08-02T08:24:56Z</time>
      </trkpt>
      <trkpt lat="46.177455727010965" lon="10.560830282047391">
        <ele>2713.9400000000001</ele>
        <time>2015-08-02T08:25:03Z</time>
      </trkpt>
      <trkpt lat="46.177532756701112" lon="10.560840088874102">
        <ele>2712.98</ele>
        <time>2015-08-02T08:25:14Z</time>
      </trkpt>
      <trkpt lat="46.177523955702782" lon="10.560821313410997">
        <ele>2712.98</ele>
        <time>2015-08-02T08:25:21Z</time>
      </trkpt>
      <trkpt lat="46.177526386454701" lon="10.560794407501817">
        <ele>2713.46</ele>
        <time>2015-08-02T08:25:24Z</time>
      </trkpt>
      <trkpt lat="46.177585730329156" lon="10.560828689485788">
        <ele>2712.5</ele>
        <time>2015-08-02T08:25:34Z</time>
      </trkpt>
      <trkpt lat="46.177628142759204" lon="10.560844279825687">
        <ele>2712.02</ele>
        <time>2015-08-02T08:25:43Z</time>
      </trkpt>
      <trkpt lat="46.177622191607952" lon="10.560846626758575">
        <ele>2712.02</ele>
        <time>2015-08-02T08:25:52Z</time>
      </trkpt>
      <trkpt lat="46.177615988999605" lon="10.560817290097475">
        <ele>2711.54</ele>
        <time>2015-08-02T08:26:01Z</time>
      </trkpt>
      <trkpt lat="46.177630657330155" lon="10.560794407501817">
        <ele>2711.0599999999999</ele>
        <time>2015-08-02T08:26:09Z</time>
      </trkpt>
      <trkpt lat="46.177620012313128" lon="10.560775883495808">
        <ele>2711.54</ele>
        <time>2015-08-02T08:26:27Z</time>
      </trkpt>
      <trkpt lat="46.177635099738836" lon="10.560799352824688">
        <ele>2711.54</ele>
        <time>2015-08-02T08:26:59Z</time>
      </trkpt>
      <trkpt lat="46.177636692300439" lon="10.56084000505507">
        <ele>2712.02</ele>
        <time>2015-08-02T08:27:10Z</time>
      </trkpt>
      <trkpt lat="46.177615066990256" lon="10.560827516019344">
        <ele>2711.0599999999999</ele>
        <time>2015-08-02T08:27:17Z</time>
      </trkpt>
      <trkpt lat="46.177579946815968" lon="10.56083514355123">
        <ele>2711.0599999999999</ele>
        <time>2015-08-02T08:27:48Z</time>
      </trkpt>
      <trkpt lat="46.177584221586585" lon="10.560838496312499">
        <ele>2711.0599999999999</ele>
        <time>2015-08-02T08:28:18Z</time>
      </trkpt>
      <trkpt lat="46.17758740670979" lon="10.560839166864753">
        <ele>2711.0599999999999</ele>
        <time>2015-08-02T08:28:49Z</time>
      </trkpt>
      <trkpt lat="46.177602158859372" lon="10.560825504362583">
        <ele>2711.0599999999999</ele>
        <time>2015-08-02T08:29:04Z</time>
      </trkpt>
      <trkpt lat="46.177606685087085" lon="10.560849225148559">
        <ele>2712.02</ele>
        <time>2015-08-02T08:29:12Z</time>
      </trkpt>
      <trkpt lat="46.177591430023313" lon="10.560874370858073">
        <ele>2712.02</ele>
        <time>2015-08-02T08:29:31Z</time>
      </trkpt>
      <trkpt lat="46.17760157212615" lon="10.560875879600644">
        <ele>2712.02</ele>
        <time>2015-08-02T08:29:44Z</time>
      </trkpt>
      <trkpt lat="46.177636859938502" lon="10.560895409435034">
        <ele>2711.54</ele>
        <time>2015-08-02T08:29:56Z</time>
      </trkpt>
      <trkpt lat="46.177640128880739" lon="10.560909071937203">
        <ele>2711.0599999999999</ele>
        <time>2015-08-02T08:30:08Z</time>
      </trkpt>
      <trkpt lat="46.17763920687139" lon="10.560908485203981">
        <ele>2711.54</ele>
        <time>2015-08-02T08:30:29Z</time>
      </trkpt>
      <trkpt lat="46.177640967071056" lon="10.560916950926185">
        <ele>2711.54</ele>
        <time>2015-08-02T08:30:41Z</time>
      </trkpt>
      <trkpt lat="46.177614480257034" lon="10.56089230813086">
        <ele>2711.54</ele>
        <time>2015-08-02T08:30:54Z</time>
      </trkpt>
      <trkpt lat="46.177615402266383" lon="10.560888117179275">
        <ele>2711.54</ele>
        <time>2015-08-02T08:31:09Z</time>
      </trkpt>
      <trkpt lat="46.177607523277402" lon="10.560884010046721">
        <ele>2712.98</ele>
        <time>2015-08-02T08:31:23Z</time>
      </trkpt>
      <trkpt lat="46.177593776956201" lon="10.560873281210661">
        <ele>2711.54</ele>
        <time>2015-08-02T08:31:47Z</time>
      </trkpt>
      <trkpt lat="46.177608361467719" lon="10.560870431363583">
        <ele>2711.54</ele>
        <time>2015-08-02T08:32:05Z</time>
      </trkpt>
      <trkpt lat="46.177632166072726" lon="10.560900857672095">
        <ele>2711.54</ele>
        <time>2015-08-02T08:32:15Z</time>
      </trkpt>
      <trkpt lat="46.177652450278401" lon="10.560918627306819">
        <ele>2711.54</ele>
        <time>2015-08-02T08:32:33Z</time>
      </trkpt>
      <trkpt lat="46.177665609866381" lon="10.560926171019673">
        <ele>2711.54</ele>
        <time>2015-08-02T08:32:40Z</time>
      </trkpt>
      <trkpt lat="46.177727049216628" lon="10.561028765514493">
        <ele>2710.5700000000002</ele>
        <time>2015-08-02T08:32:50Z</time>
      </trkpt>
      <trkpt lat="46.177779017016292" lon="10.561183411628008">
        <ele>2709.6100000000001</ele>
        <time>2015-08-02T08:33:02Z</time>
      </trkpt>
      <trkpt lat="46.177782034501433" lon="10.561187267303467">
        <ele>2709.1300000000001</ele>
        <time>2015-08-02T08:33:03Z</time>
      </trkpt>
      <trkpt lat="46.177829308435321" lon="10.561213586479425">
        <ele>2708.6500000000001</ele>
        <time>2015-08-02T08:33:11Z</time>
      </trkpt>
      <trkpt lat="46.177848586812615" lon="10.561243426054716">
        <ele>2708.1700000000001</ele>
        <time>2015-08-02T08:33:17Z</time>
      </trkpt>
      <trkpt lat="46.177853280678391" lon="10.561257172375917">
        <ele>2708.1700000000001</ele>
        <time>2015-08-02T08:33:18Z</time>
      </trkpt>
      <trkpt lat="46.177846156060696" lon="10.561344427987933">
        <ele>2707.21</ele>
        <time>2015-08-02T08:33:27Z</time>
      </trkpt>
      <trkpt lat="46.177844563499093" lon="10.561425816267729">
        <ele>2706.73</ele>
        <time>2015-08-02T08:33:36Z</time>
      </trkpt>
      <trkpt lat="46.177877839654684" lon="10.561491278931499">
        <ele>2706.25</ele>
        <time>2015-08-02T08:33:42Z</time>
      </trkpt>
      <trkpt lat="46.177898962050676" lon="10.561494128778577">
        <ele>2705.77</ele>
        <time>2015-08-02T08:33:44Z</time>
      </trkpt>
      <trkpt lat="46.177960904315114" lon="10.561506114900112">
        <ele>2705.29</ele>
        <time>2015-08-02T08:33:51Z</time>
      </trkpt>
      <trkpt lat="46.17797632701695" lon="10.56152313016355">
        <ele>2704.3299999999999</ele>
        <time>2015-08-02T08:33:53Z</time>
      </trkpt>
      <trkpt lat="46.178054781630635" lon="10.561629328876734">
        <ele>2702.4000000000001</ele>
        <time>2015-08-02T08:34:04Z</time>
      </trkpt>
      <trkpt lat="46.178061487153172" lon="10.561636285856366">
        <ele>2701.9200000000001</ele>
        <time>2015-08-02T08:34:05Z</time>
      </trkpt>
      <trkpt lat="46.178146060556173" lon="10.561660174280405">
        <ele>2700</ele>
        <time>2015-08-02T08:34:16Z</time>
      </trkpt>
      <trkpt lat="46.178185036405921" lon="10.561694372445345">
        <ele>2698.5599999999999</ele>
        <time>2015-08-02T08:34:23Z</time>
      </trkpt>
      <trkpt lat="46.178211439400911" lon="10.561820603907108">
        <ele>2697.5999999999999</ele>
        <time>2015-08-02T08:34:31Z</time>
      </trkpt>
      <trkpt lat="46.178206242620945" lon="10.56184122338891">
        <ele>2697.1199999999999</ele>
        <time>2015-08-02T08:34:39Z</time>
      </trkpt>
      <trkpt lat="46.178215881809592" lon="10.561836780980229">
        <ele>2696.6399999999999</ele>
        <time>2015-08-02T08:34:49Z</time>
      </trkpt>
      <trkpt lat="46.17824605666101" lon="10.561868883669376">
        <ele>2696.6399999999999</ele>
        <time>2015-08-02T08:35:01Z</time>
      </trkpt>
      <trkpt lat="46.178273381665349" lon="10.561899477615952">
        <ele>2695.6700000000001</ele>
        <time>2015-08-02T08:35:07Z</time>
      </trkpt>
      <trkpt lat="46.17830716073513" lon="10.561869973316789">
        <ele>2693.75</ele>
        <time>2015-08-02T08:35:18Z</time>
      </trkpt>
      <trkpt lat="46.178280506283045" lon="10.561763104051352">
        <ele>2695.1900000000001</ele>
        <time>2015-08-02T08:35:25Z</time>
      </trkpt>
      <trkpt lat="46.178288301452994" lon="10.561719266697764">
        <ele>2693.75</ele>
        <time>2015-08-02T08:35:28Z</time>
      </trkpt>
      <trkpt lat="46.178302299231291" lon="10.561640560626984">
        <ele>2693.27</ele>
        <time>2015-08-02T08:35:37Z</time>
      </trkpt>
      <trkpt lat="46.178320907056332" lon="10.561566296964884">
        <ele>2693.27</ele>
        <time>2015-08-02T08:35:45Z</time>
      </trkpt>
      <trkpt lat="46.178327444940805" lon="10.561537882313132">
        <ele>2693.27</ele>
        <time>2015-08-02T08:35:49Z</time>
      </trkpt>
      <trkpt lat="46.178377736359835" lon="10.561475940048695">
        <ele>2692.79</ele>
        <time>2015-08-02T08:35:59Z</time>
      </trkpt>
      <trkpt lat="46.178420903161168" lon="10.561458086594939">
        <ele>2691.8299999999999</ele>
        <time>2015-08-02T08:36:08Z</time>
      </trkpt>
      <trkpt lat="46.178461471572518" lon="10.561412740498781">
        <ele>2690.8699999999999</ele>
        <time>2015-08-02T08:36:17Z</time>
      </trkpt>
      <trkpt lat="46.178502710536122" lon="10.561410812661052">
        <ele>2689.4299999999998</ele>
        <time>2015-08-02T08:36:25Z</time>
      </trkpt>
      <trkpt lat="46.17854462005198" lon="10.561439394950867">
        <ele>2688.46</ele>
        <time>2015-08-02T08:36:35Z</time>
      </trkpt>
      <trkpt lat="46.178550319746137" lon="10.561412321403623">
        <ele>2688.9400000000001</ele>
        <time>2015-08-02T08:36:55Z</time>
      </trkpt>
      <trkpt lat="46.178609244525433" lon="10.561375105753541">
        <ele>2687.02</ele>
        <time>2015-08-02T08:37:03Z</time>
      </trkpt>
      <trkpt lat="46.178698260337114" lon="10.561334369704127">
        <ele>2685.5799999999999</ele>
        <time>2015-08-02T08:37:13Z</time>
      </trkpt>
      <trkpt lat="46.178718041628599" lon="10.561330765485764">
        <ele>2685.0999999999999</ele>
        <time>2015-08-02T08:37:15Z</time>
      </trkpt>
      <trkpt lat="46.178747965022922" lon="10.561324143782258">
        <ele>2685.0999999999999</ele>
        <time>2015-08-02T08:37:27Z</time>
      </trkpt>
      <trkpt lat="46.178774032741785" lon="10.561308553442359">
        <ele>2684.1399999999999</ele>
        <time>2015-08-02T08:37:39Z</time>
      </trkpt>
      <trkpt lat="46.178858522325754" lon="10.561249125748873">
        <ele>2682.6999999999998</ele>
        <time>2015-08-02T08:37:49Z</time>
      </trkpt>
      <trkpt lat="46.178900431841612" lon="10.561223393306136">
        <ele>2682.2199999999998</ele>
        <time>2015-08-02T08:37:55Z</time>
      </trkpt>
      <trkpt lat="46.178917363286018" lon="10.561212664470077">
        <ele>2681.73</ele>
        <time>2015-08-02T08:37:57Z</time>
      </trkpt>
      <trkpt lat="46.179023226723075" lon="10.561166061088443">
        <ele>2679.3299999999999</ele>
        <time>2015-08-02T08:38:08Z</time>
      </trkpt>
      <trkpt lat="46.179093718528748" lon="10.561147453263402">
        <ele>2678.3699999999999</ele>
        <time>2015-08-02T08:38:16Z</time>
      </trkpt>
      <trkpt lat="46.17916957475245" lon="10.561107387766242">
        <ele>2676.9299999999998</ele>
        <time>2015-08-02T08:38:25Z</time>
      </trkpt>
      <trkpt lat="46.179257752373815" lon="10.561055587604642">
        <ele>2675.4899999999998</ele>
        <time>2015-08-02T08:38:35Z</time>
      </trkpt>
      <trkpt lat="46.179317850619555" lon="10.561051396653056">
        <ele>2673.5599999999999</ele>
        <time>2015-08-02T08:38:44Z</time>
      </trkpt>
      <trkpt lat="46.179354311898351" lon="10.561048127710819">
        <ele>2673.0799999999999</ele>
        <time>2015-08-02T08:38:52Z</time>
      </trkpt>
      <trkpt lat="46.179398987442255" lon="10.56104427203536">
        <ele>2672.1199999999999</ele>
        <time>2015-08-02T08:39:02Z</time>
      </trkpt>
      <trkpt lat="46.179402088746428" lon="10.561040164902806">
        <ele>2672.1199999999999</ele>
        <time>2015-08-02T08:39:06Z</time>
      </trkpt>
      <trkpt lat="46.179422372952104" lon="10.561033794656396">
        <ele>2671.6399999999999</ele>
        <time>2015-08-02T08:39:08Z</time>
      </trkpt>
      <trkpt lat="46.179464617744088" lon="10.561071177944541">
        <ele>2670.1999999999998</ele>
        <time>2015-08-02T08:39:14Z</time>
      </trkpt>
      <trkpt lat="46.179518764838576" lon="10.561049217358232">
        <ele>2669.2399999999998</ele>
        <time>2015-08-02T08:39:20Z</time>
      </trkpt>
      <trkpt lat="46.179623790085316" lon="10.561012169346213">
        <ele>2666.3499999999999</ele>
        <time>2015-08-02T08:39:32Z</time>
      </trkpt>
      <trkpt lat="46.179700903594494" lon="10.560988783836365">
        <ele>2664.4299999999998</ele>
        <time>2015-08-02T08:39:41Z</time>
      </trkpt>
      <trkpt lat="46.179783130064607" lon="10.560953412204981">
        <ele>2662.0300000000002</ele>
        <time>2015-08-02T08:39:51Z</time>
      </trkpt>
      <trkpt lat="46.179846916347742" lon="10.560923991724849">
        <ele>2661.0700000000002</ele>
        <time>2015-08-02T08:39:59Z</time>
      </trkpt>
      <trkpt lat="46.179934842512012" lon="10.560912927612662">
        <ele>2659.1399999999999</ele>
        <time>2015-08-02T08:40:09Z</time>
      </trkpt>
      <trkpt lat="46.180009944364429" lon="10.560875292867422">
        <ele>2657.2199999999998</ele>
        <time>2015-08-02T08:40:19Z</time>
      </trkpt>
      <trkpt lat="46.180080939084291" lon="10.560847967863083">
        <ele>2655.3000000000002</ele>
        <time>2015-08-02T08:40:28Z</time>
      </trkpt>
      <trkpt lat="46.18010482750833" lon="10.560819050297141">
        <ele>2654.8200000000002</ele>
        <time>2015-08-02T08:40:32Z</time>
      </trkpt>
      <trkpt lat="46.180153107270598" lon="10.56081653572619">
        <ele>2653.8600000000001</ele>
        <time>2015-08-02T08:40:37Z</time>
      </trkpt>
      <trkpt lat="46.180168027058244" lon="10.560809914022684">
        <ele>2653.3800000000001</ele>
        <time>2015-08-02T08:40:39Z</time>
      </trkpt>
      <trkpt lat="46.180258970707655" lon="10.560797257348895">
        <ele>2651.4499999999998</ele>
        <time>2015-08-02T08:40:49Z</time>
      </trkpt>
      <trkpt lat="46.180284032598138" lon="10.560803292319179">
        <ele>2650.9699999999998</ele>
        <time>2015-08-02T08:40:52Z</time>
      </trkpt>
      <trkpt lat="46.180350920185447" lon="10.560806980356574">
        <ele>2650.0100000000002</ele>
        <time>2015-08-02T08:40:59Z</time>
      </trkpt>
      <trkpt lat="46.180462399497628" lon="10.560788875445724">
        <ele>2648.0900000000001</ele>
        <time>2015-08-02T08:41:11Z</time>
      </trkpt>
      <trkpt lat="46.180554935708642" lon="10.560765573754907">
        <ele>2646.1700000000001</ele>
        <time>2015-08-02T08:41:20Z</time>
      </trkpt>
      <trkpt lat="46.180604472756386" lon="10.560749983415008">
        <ele>2645.6900000000001</ele>
        <time>2015-08-02T08:41:25Z</time>
      </trkpt>
      <trkpt lat="46.180685274302959" lon="10.560723915696144">
        <ele>2644.7199999999998</ele>
        <time>2015-08-02T08:41:34Z</time>
      </trkpt>
      <trkpt lat="46.180747384205461" lon="10.560710337013006">
        <ele>2643.7600000000002</ele>
        <time>2015-08-02T08:41:41Z</time>
      </trkpt>
      <trkpt lat="46.180802956223488" lon="10.560709498822689">
        <ele>2643.7600000000002</ele>
        <time>2015-08-02T08:41:46Z</time>
      </trkpt>
      <trkpt lat="46.180904041975737" lon="10.560643197968602">
        <ele>2642.3200000000002</ele>
        <time>2015-08-02T08:41:57Z</time>
      </trkpt>
      <trkpt lat="46.180922733619809" lon="10.560618974268436">
        <ele>2641.8400000000001</ele>
        <time>2015-08-02T08:42:00Z</time>
      </trkpt>
      <trkpt lat="46.180932791903615" lon="10.560584859922528">
        <ele>2641.8400000000001</ele>
        <time>2015-08-02T08:42:03Z</time>
      </trkpt>
      <trkpt lat="46.18104443885386" lon="10.560605647042394">
        <ele>2640.8800000000001</ele>
        <time>2015-08-02T08:42:14Z</time>
      </trkpt>
      <trkpt lat="46.181127838790417" lon="10.560570191591978">
        <ele>2639.9200000000001</ele>
        <time>2015-08-02T08:42:23Z</time>
      </trkpt>
      <trkpt lat="46.181219452992082" lon="10.560522582381964">
        <ele>2638.48</ele>
        <time>2015-08-02T08:42:32Z</time>
      </trkpt>
      <trkpt lat="46.181301847100258" lon="10.560502717271447">
        <ele>2637.5100000000002</ele>
        <time>2015-08-02T08:42:41Z</time>
      </trkpt>
      <trkpt lat="46.181362699717283" lon="10.560475643724203">
        <ele>2636.5500000000002</ele>
        <time>2015-08-02T08:42:48Z</time>
      </trkpt>
      <trkpt lat="46.181407542899251" lon="10.56044421158731">
        <ele>2635.5900000000001</ele>
        <time>2015-08-02T08:42:52Z</time>
      </trkpt>
      <trkpt lat="46.181461522355676" lon="10.56046424433589">
        <ele>2635.1100000000001</ele>
        <time>2015-08-02T08:42:58Z</time>
      </trkpt>
      <trkpt lat="46.181506449356675" lon="10.560437757521868">
        <ele>2634.6300000000001</ele>
        <time>2015-08-02T08:43:03Z</time>
      </trkpt>
      <trkpt lat="46.181581048294902" lon="10.560456030070782">
        <ele>2633.6700000000001</ele>
        <time>2015-08-02T08:43:11Z</time>
      </trkpt>
      <trkpt lat="46.181623376905918" lon="10.560447396710515">
        <ele>2633.6700000000001</ele>
        <time>2015-08-02T08:43:15Z</time>
      </trkpt>
      <trkpt lat="46.181639973074198" lon="10.560441361740232">
        <ele>2632.71</ele>
        <time>2015-08-02T08:43:17Z</time>
      </trkpt>
      <trkpt lat="46.181739801540971" lon="10.560448905453086">
        <ele>2631.75</ele>
        <time>2015-08-02T08:43:28Z</time>
      </trkpt>
      <trkpt lat="46.181788751855493" lon="10.560448067262769">
        <ele>2631.27</ele>
        <time>2015-08-02T08:43:34Z</time>
      </trkpt>
      <trkpt lat="46.181823620572686" lon="10.56043348275125">
        <ele>2630.79</ele>
        <time>2015-08-02T08:43:38Z</time>
      </trkpt>
      <trkpt lat="46.181845664978027" lon="10.560408085584641">
        <ele>2629.8200000000002</ele>
        <time>2015-08-02T08:43:41Z</time>
      </trkpt>
      <trkpt lat="46.181925795972347" lon="10.560377324000001">
        <ele>2628.8600000000001</ele>
        <time>2015-08-02T08:43:49Z</time>
      </trkpt>
      <trkpt lat="46.182027217000723" lon="10.560367349535227">
        <ele>2627.9000000000001</ele>
        <time>2015-08-02T08:43:58Z</time>
      </trkpt>
      <trkpt lat="46.182116903364658" lon="10.560340443626046">
        <ele>2625.98</ele>
        <time>2015-08-02T08:44:08Z</time>
      </trkpt>
      <trkpt lat="46.182176498696208" lon="10.560319824144244">
        <ele>2625.5</ele>
        <time>2015-08-02T08:44:14Z</time>
      </trkpt>
      <trkpt lat="46.182226957753301" lon="10.560248075053096">
        <ele>2625.02</ele>
        <time>2015-08-02T08:44:22Z</time>
      </trkpt>
      <trkpt lat="46.182285295799375" lon="10.560240698978305">
        <ele>2624.54</ele>
        <time>2015-08-02T08:44:30Z</time>
      </trkpt>
      <trkpt lat="46.182345896959305" lon="10.5602375138551">
        <ele>2623.5799999999999</ele>
        <time>2015-08-02T08:44:36Z</time>
      </trkpt>
      <trkpt lat="46.18237984366715" lon="10.560253355652094">
        <ele>2623.0900000000001</ele>
        <time>2015-08-02T08:44:40Z</time>
      </trkpt>
      <trkpt lat="46.182422172278166" lon="10.560245057567954">
        <ele>2622.6100000000001</ele>
        <time>2015-08-02T08:44:45Z</time>
      </trkpt>
      <trkpt lat="46.182460896670818" lon="10.560222845524549">
        <ele>2621.6500000000001</ele>
        <time>2015-08-02T08:44:49Z</time>
      </trkpt>
      <trkpt lat="46.182494089007378" lon="10.560204237699509">
        <ele>2621.1700000000001</ele>
        <time>2015-08-02T08:44:53Z</time>
      </trkpt>
      <trkpt lat="46.182570951059461" lon="10.560204740613699">
        <ele>2620.6900000000001</ele>
        <time>2015-08-02T08:45:00Z</time>
      </trkpt>
      <trkpt lat="46.182644544169307" lon="10.560193844139576">
        <ele>2619.25</ele>
        <time>2015-08-02T08:45:07Z</time>
      </trkpt>
      <trkpt lat="46.182695673778653" lon="10.560180181637406">
        <ele>2618.29</ele>
        <time>2015-08-02T08:45:13Z</time>
      </trkpt>
      <trkpt lat="46.182792903855443" lon="10.560120837762952">
        <ele>2616.8499999999999</ele>
        <time>2015-08-02T08:45:24Z</time>
      </trkpt>
      <trkpt lat="46.182883931323886" lon="10.560103235766292">
        <ele>2615.8800000000001</ele>
        <time>2015-08-02T08:45:33Z</time>
      </trkpt>
      <trkpt lat="46.182978814467788" lon="10.560055710375309">
        <ele>2614.9200000000001</ele>
        <time>2015-08-02T08:45:43Z</time>
      </trkpt>
      <trkpt lat="46.183070847764611" lon="10.560000641271472">
        <ele>2613.96</ele>
        <time>2015-08-02T08:45:54Z</time>
      </trkpt>
      <trkpt lat="46.183095490559936" lon="10.559993935748935">
        <ele>2613.48</ele>
        <time>2015-08-02T08:45:57Z</time>
      </trkpt>
      <trkpt lat="46.183178974315524" lon="10.559952361509204">
        <ele>2613</ele>
        <time>2015-08-02T08:46:07Z</time>
      </trkpt>
      <trkpt lat="46.183243682608008" lon="10.55990181863308">
        <ele>2612.52</ele>
        <time>2015-08-02T08:46:16Z</time>
      </trkpt>
      <trkpt lat="46.18334443308413" lon="10.559895616024733">
        <ele>2612.04</ele>
        <time>2015-08-02T08:46:25Z</time>
      </trkpt>
      <trkpt lat="46.183415176346898" lon="10.559895448386669">
        <ele>2611.0799999999999</ele>
        <time>2015-08-02T08:46:33Z</time>
      </trkpt>
      <trkpt lat="46.183551717549562" lon="10.559849431738257">
        <ele>2610.1199999999999</ele>
        <time>2015-08-02T08:46:47Z</time>
      </trkpt>
      <trkpt lat="46.18359848856926" lon="10.559857059270144">
        <ele>2610.1199999999999</ele>
        <time>2015-08-02T08:46:52Z</time>
      </trkpt>
      <trkpt lat="46.183723798021674" lon="10.559844151139259">
        <ele>2608.6700000000001</ele>
        <time>2015-08-02T08:47:04Z</time>
      </trkpt>
      <trkpt lat="46.183757409453392" lon="10.559843061491847">
        <ele>2608.1900000000001</ele>
        <time>2015-08-02T08:47:09Z</time>
      </trkpt>
      <trkpt lat="46.183884646743536" lon="10.559812048450112">
        <ele>2607.23</ele>
        <time>2015-08-02T08:47:22Z</time>
      </trkpt>
      <trkpt lat="46.183980200439692" lon="10.559752369299531">
        <ele>2606.75</ele>
        <time>2015-08-02T08:47:33Z</time>
      </trkpt>
      <trkpt lat="46.184082459658384" lon="10.559704508632421">
        <ele>2605.3099999999999</ele>
        <time>2015-08-02T08:47:43Z</time>
      </trkpt>
      <trkpt lat="46.184184886515141" lon="10.559648768976331">
        <ele>2603.8699999999999</ele>
        <time>2015-08-02T08:47:53Z</time>
      </trkpt>
      <trkpt lat="46.184261329472065" lon="10.559601997956634">
        <ele>2603.3899999999999</ele>
        <time>2015-08-02T08:48:01Z</time>
      </trkpt>
      <trkpt lat="46.184283709153533" lon="10.559597974643111">
        <ele>2602.9099999999999</ele>
        <time>2015-08-02T08:48:03Z</time>
      </trkpt>
      <trkpt lat="46.184408348053694" lon="10.559547683224082">
        <ele>2601.46</ele>
        <time>2015-08-02T08:48:15Z</time>
      </trkpt>
      <trkpt lat="46.184544134885073" lon="10.559500157833099">
        <ele>2600.02</ele>
        <time>2015-08-02T08:48:27Z</time>
      </trkpt>
      <trkpt lat="46.184687297791243" lon="10.559501331299543">
        <ele>2599.0599999999999</ele>
        <time>2015-08-02T08:48:38Z</time>
      </trkpt>
      <trkpt lat="46.18482350371778" lon="10.559499068185687">
        <ele>2597.6199999999999</ele>
        <time>2015-08-02T08:48:50Z</time>
      </trkpt>
      <trkpt lat="46.184923332184553" lon="10.559470234438777">
        <ele>2596.1799999999998</ele>
        <time>2015-08-02T08:49:00Z</time>
      </trkpt>
      <trkpt lat="46.185068003833294" lon="10.55947526358068">
        <ele>2595.2199999999998</ele>
        <time>2015-08-02T08:49:12Z</time>
      </trkpt>
      <trkpt lat="46.1851264256984" lon="10.559487836435437">
        <ele>2594.7399999999998</ele>
        <time>2015-08-02T08:49:18Z</time>
      </trkpt>
      <trkpt lat="46.185256093740463" lon="10.559406615793705">
        <ele>2594.25</ele>
        <time>2015-08-02T08:49:31Z</time>
      </trkpt>
      <trkpt lat="46.185277886688709" lon="10.559378871694207">
        <ele>2594.25</ele>
        <time>2015-08-02T08:49:34Z</time>
      </trkpt>
      <trkpt lat="46.185309151187539" lon="10.55933210067451">
        <ele>2594.25</ele>
        <time>2015-08-02T08:49:39Z</time>
      </trkpt>
      <trkpt lat="46.185408560559154" lon="10.559292286634445">
        <ele>2594.7399999999998</ele>
        <time>2015-08-02T08:49:48Z</time>
      </trkpt>
      <trkpt lat="46.185443010181189" lon="10.559284826740623">
        <ele>2594.7399999999998</ele>
        <time>2015-08-02T08:49:51Z</time>
      </trkpt>
      <trkpt lat="46.185442842543125" lon="10.559355821460485">
        <ele>2596.1799999999998</ele>
        <time>2015-08-02T08:50:01Z</time>
      </trkpt>
      <trkpt lat="46.185413086786866" lon="10.55936336517334">
        <ele>2595.6999999999998</ele>
        <time>2015-08-02T08:50:07Z</time>
      </trkpt>
      <trkpt lat="46.185427336022258" lon="10.559405526146293">
        <ele>2596.1799999999998</ele>
        <time>2015-08-02T08:50:16Z</time>
      </trkpt>
      <trkpt lat="46.185409734025598" lon="10.559375351294875">
        <ele>2596.1799999999998</ele>
        <time>2015-08-02T08:50:27Z</time>
      </trkpt>
      <trkpt lat="46.185434125363827" lon="10.559388175606728">
        <ele>2595.2199999999998</ele>
        <time>2015-08-02T08:50:36Z</time>
      </trkpt>
      <trkpt lat="46.185424737632275" lon="10.55938876233995">
        <ele>2595.2199999999998</ele>
        <time>2015-08-02T08:51:03Z</time>
      </trkpt>
      <trkpt lat="46.18534879758954" lon="10.559341991320252">
        <ele>2595.2199999999998</ele>
        <time>2015-08-02T08:51:27Z</time>
      </trkpt>
      <trkpt lat="46.185353994369507" lon="10.559328328818083">
        <ele>2595.2199999999998</ele>
        <time>2015-08-02T08:51:58Z</time>
      </trkpt>
      <trkpt lat="46.185394730418921" lon="10.55936680175364">
        <ele>2595.6999999999998</ele>
        <time>2015-08-02T08:52:27Z</time>
      </trkpt>
      <trkpt lat="46.185404034331441" lon="10.559405274689198">
        <ele>2595.6999999999998</ele>
        <time>2015-08-02T08:53:00Z</time>
      </trkpt>
      <trkpt lat="46.185402357950807" lon="10.559382308274508">
        <ele>2595.6999999999998</ele>
        <time>2015-08-02T08:53:25Z</time>
      </trkpt>
      <trkpt lat="46.18543429300189" lon="10.559454811736941">
        <ele>2595.6999999999998</ele>
        <time>2015-08-02T08:53:55Z</time>
      </trkpt>
      <trkpt lat="46.185391964390874" lon="10.559383062645793">
        <ele>2596.1799999999998</ele>
        <time>2015-08-02T08:54:29Z</time>
      </trkpt>
      <trkpt lat="46.185434376820922" lon="10.559398150071502">
        <ele>2596.1799999999998</ele>
        <time>2015-08-02T08:54:58Z</time>
      </trkpt>
      <trkpt lat="46.185410991311073" lon="10.559407286345959">
        <ele>2596.1799999999998</ele>
        <time>2015-08-02T08:55:28Z</time>
      </trkpt>
      <trkpt lat="46.185396993532777" lon="10.559376860037446">
        <ele>2596.1799999999998</ele>
        <time>2015-08-02T08:55:57Z</time>
      </trkpt>
      <trkpt lat="46.185437645763159" lon="10.559398736804724">
        <ele>2596.1799999999998</ele>
        <time>2015-08-02T08:56:27Z</time>
      </trkpt>
      <trkpt lat="46.18541962467134" lon="10.559405526146293">
        <ele>2596.1799999999998</ele>
        <time>2015-08-02T08:56:46Z</time>
      </trkpt>
      <trkpt lat="46.185367153957486" lon="10.559444753453135">
        <ele>2596.1799999999998</ele>
        <time>2015-08-02T08:57:17Z</time>
      </trkpt>
      <trkpt lat="46.185405123978853" lon="10.559391612187028">
        <ele>2596.6599999999999</ele>
        <time>2015-08-02T08:57:40Z</time>
      </trkpt>
      <trkpt lat="46.185427084565163" lon="10.559387421235442">
        <ele>2596.6599999999999</ele>
        <time>2015-08-02T08:58:00Z</time>
      </trkpt>
      <trkpt lat="46.185426749289036" lon="10.559388175606728">
        <ele>2596.6599999999999</ele>
        <time>2015-08-02T08:58:29Z</time>
      </trkpt>
      <trkpt lat="46.185417613014579" lon="10.559389935806394">
        <ele>2596.6599999999999</ele>
        <time>2015-08-02T08:58:54Z</time>
      </trkpt>
      <trkpt lat="46.185418367385864" lon="10.559386666864157">
        <ele>2596.6599999999999</ele>
        <time>2015-08-02T08:59:21Z</time>
      </trkpt>
      <trkpt lat="46.185411745682359" lon="10.559406699612737">
        <ele>2596.6599999999999</ele>
        <time>2015-08-02T08:59:46Z</time>
      </trkpt>
      <trkpt lat="46.185403866693377" lon="10.55938683450222">
        <ele>2596.1799999999998</ele>
        <time>2015-08-02T09:00:07Z</time>
      </trkpt>
      <trkpt lat="46.185407219454646" lon="10.559408962726593">
        <ele>2596.6599999999999</ele>
        <time>2015-08-02T09:00:32Z</time>
      </trkpt>
      <trkpt lat="46.185415936633945" lon="10.559410974383354">
        <ele>2596.6599999999999</ele>
        <time>2015-08-02T09:00:55Z</time>
      </trkpt>
      <trkpt lat="46.18543965741992" lon="10.559413572773337">
        <ele>2596.6599999999999</ele>
        <time>2015-08-02T09:01:11Z</time>
      </trkpt>
      <trkpt lat="46.185421720147133" lon="10.559424050152302">
        <ele>2596.6599999999999</ele>
        <time>2015-08-02T09:01:20Z</time>
      </trkpt>
      <trkpt lat="46.185430185869336" lon="10.559379374608397">
        <ele>2596.6599999999999</ele>
        <time>2015-08-02T09:01:30Z</time>
      </trkpt>
      <trkpt lat="46.185453403741121" lon="10.559355234727263">
        <ele>2596.6599999999999</ele>
        <time>2015-08-02T09:01:46Z</time>
      </trkpt>
      <trkpt lat="46.185500090941787" lon="10.559350457042456">
        <ele>2596.6599999999999</ele>
        <time>2015-08-02T09:02:16Z</time>
      </trkpt>
      <trkpt lat="46.185433538630605" lon="10.559325981885195">
        <ele>2596.6599999999999</ele>
        <time>2015-08-02T09:02:42Z</time>
      </trkpt>
      <trkpt lat="46.185421301051974" lon="10.559335369616747">
        <ele>2596.6599999999999</ele>
        <time>2015-08-02T09:03:03Z</time>
      </trkpt>
      <trkpt lat="46.185402944684029" lon="10.559318186715245">
        <ele>2596.6599999999999</ele>
        <time>2015-08-02T09:03:29Z</time>
      </trkpt>
      <trkpt lat="46.185461701825261" lon="10.559353725984693">
        <ele>2597.1399999999999</ele>
        <time>2015-08-02T09:03:57Z</time>
      </trkpt>
      <trkpt lat="46.18545088917017" lon="10.559348026290536">
        <ele>2597.1399999999999</ele>
        <time>2015-08-02T09:04:26Z</time>
      </trkpt>
      <trkpt lat="46.185487015172839" lon="10.559356911107898">
        <ele>2597.1399999999999</ele>
        <time>2015-08-02T09:04:52Z</time>
      </trkpt>
      <trkpt lat="46.185408812016249" lon="10.559352552518249">
        <ele>2597.1399999999999</ele>
        <time>2015-08-02T09:05:16Z</time>
      </trkpt>
      <trkpt lat="46.185426414012909" lon="10.559345008805394">
        <ele>2597.1399999999999</ele>
        <time>2015-08-02T09:05:38Z</time>
      </trkpt>
      <trkpt lat="46.1854147631675" lon="10.559343751519918">
        <ele>2596.6599999999999</ele>
        <time>2015-08-02T09:06:11Z</time>
      </trkpt>
      <trkpt lat="46.185427084565163" lon="10.55934676900506">
        <ele>2596.6599999999999</ele>
        <time>2015-08-02T09:06:46Z</time>
      </trkpt>
      <trkpt lat="46.185450972989202" lon="10.559357749298215">
        <ele>2596.6599999999999</ele>
        <time>2015-08-02T09:07:19Z</time>
      </trkpt>
      <trkpt lat="46.185463881120086" lon="10.559339476749301">
        <ele>2596.6599999999999</ele>
        <time>2015-08-02T09:07:46Z</time>
      </trkpt>
      <trkpt lat="46.185424150899053" lon="10.559336040169001">
        <ele>2596.6599999999999</ele>
        <time>2015-08-02T09:08:11Z</time>
      </trkpt>
      <trkpt lat="46.185414176434278" lon="10.5593550670892">
        <ele>2596.6599999999999</ele>
        <time>2015-08-02T09:08:37Z</time>
      </trkpt>
      <trkpt lat="46.185403112322092" lon="10.559350037947297">
        <ele>2596.6599999999999</ele>
        <time>2015-08-02T09:08:59Z</time>
      </trkpt>
      <trkpt lat="46.185432281345129" lon="10.559343248605728">
        <ele>2596.6599999999999</ele>
        <time>2015-08-02T09:09:28Z</time>
      </trkpt>
      <trkpt lat="46.18545432575047" lon="10.559365712106228">
        <ele>2596.6599999999999</ele>
        <time>2015-08-02T09:09:58Z</time>
      </trkpt>
      <trkpt lat="46.185498414561152" lon="10.559327071532607">
        <ele>2596.1799999999998</ele>
        <time>2015-08-02T09:10:24Z</time>
      </trkpt>
      <trkpt lat="46.185428844764829" lon="10.559369567781687">
        <ele>2596.1799999999998</ele>
        <time>2015-08-02T09:10:51Z</time>
      </trkpt>
      <trkpt lat="46.185397664085031" lon="10.559344505891204">
        <ele>2596.6599999999999</ele>
        <time>2015-08-02T09:11:15Z</time>
      </trkpt>
      <trkpt lat="46.18539079092443" lon="10.559370238333941">
        <ele>2596.6599999999999</ele>
        <time>2015-08-02T09:11:39Z</time>
      </trkpt>
      <trkpt lat="46.185421217232943" lon="10.559387085959315">
        <ele>2596.1799999999998</ele>
        <time>2015-08-02T09:12:05Z</time>
      </trkpt>
      <trkpt lat="46.185448123142123" lon="10.55940980091691">
        <ele>2596.6599999999999</ele>
        <time>2015-08-02T09:12:27Z</time>
      </trkpt>
      <trkpt lat="46.185437813401222" lon="10.559391109272838">
        <ele>2596.1799999999998</ele>
        <time>2015-08-02T09:12:53Z</time>
      </trkpt>
      <trkpt lat="46.18547729216516" lon="10.559364035725594">
        <ele>2596.1799999999998</ele>
        <time>2015-08-02T09:13:26Z</time>
      </trkpt>
      <trkpt lat="46.18542792275548" lon="10.559375938028097">
        <ele>2596.1799999999998</ele>
        <time>2015-08-02T09:13:48Z</time>
      </trkpt>
      <trkpt lat="46.185435466468334" lon="10.559351798146963">
        <ele>2596.1799999999998</ele>
        <time>2015-08-02T09:14:11Z</time>
      </trkpt>
      <trkpt lat="46.185460360720754" lon="10.559363029897213">
        <ele>2596.1799999999998</ele>
        <time>2015-08-02T09:14:31Z</time>
      </trkpt>
      <trkpt lat="46.185455750674009" lon="10.559361018240452">
        <ele>2596.1799999999998</ele>
        <time>2015-08-02T09:14:56Z</time>
      </trkpt>
      <trkpt lat="46.185429096221924" lon="10.559392450377345">
        <ele>2596.1799999999998</ele>
        <time>2015-08-02T09:15:07Z</time>
      </trkpt>
      <trkpt lat="46.185420714318752" lon="10.559385241940618">
        <ele>2595.6999999999998</ele>
        <time>2015-08-02T09:15:29Z</time>
      </trkpt>
      <trkpt lat="46.185438819229603" lon="10.559345427900553">
        <ele>2596.6599999999999</ele>
        <time>2015-08-02T09:15:39Z</time>
      </trkpt>
      <trkpt lat="46.185446111485362" lon="10.559349115937948">
        <ele>2596.1799999999998</ele>
        <time>2015-08-02T09:15:49Z</time>
      </trkpt>
      <trkpt lat="46.185502856969833" lon="10.559359090402722">
        <ele>2596.1799999999998</ele>
        <time>2015-08-02T09:16:13Z</time>
      </trkpt>
      <trkpt lat="46.185457846149802" lon="10.559345176443458">
        <ele>2596.1799999999998</ele>
        <time>2015-08-02T09:16:36Z</time>
      </trkpt>
      <trkpt lat="46.185474777594209" lon="10.559350624680519">
        <ele>2596.1799999999998</ele>
        <time>2015-08-02T09:17:03Z</time>
      </trkpt>
      <trkpt lat="46.185458097606897" lon="10.559331849217415">
        <ele>2596.1799999999998</ele>
        <time>2015-08-02T09:17:23Z</time>
      </trkpt>
      <trkpt lat="46.185432951897383" lon="10.559346852824092">
        <ele>2596.1799999999998</ele>
        <time>2015-08-02T09:17:47Z</time>
      </trkpt>
      <trkpt lat="46.185446865856647" lon="10.559357665479183">
        <ele>2596.1799999999998</ele>
        <time>2015-08-02T09:18:18Z</time>
      </trkpt>
      <trkpt lat="46.185464719310403" lon="10.55934333242476">
        <ele>2596.1799999999998</ele>
        <time>2015-08-02T09:18:51Z</time>
      </trkpt>
      <trkpt lat="46.185478968545794" lon="10.559330424293876">
        <ele>2596.6599999999999</ele>
        <time>2015-08-02T09:19:04Z</time>
      </trkpt>
      <trkpt lat="46.185461366549134" lon="10.55931500159204">
        <ele>2597.1399999999999</ele>
        <time>2015-08-02T09:19:15Z</time>
      </trkpt>
      <trkpt lat="46.185462288558483" lon="10.559282815083861">
        <ele>2597.1399999999999</ele>
        <time>2015-08-02T09:19:27Z</time>
      </trkpt>
      <trkpt lat="46.185442507266998" lon="10.559286586940289">
        <ele>2596.6599999999999</ele>
        <time>2015-08-02T09:19:43Z</time>
      </trkpt>
      <trkpt lat="46.185498582199216" lon="10.559271750971675">
        <ele>2597.6199999999999</ele>
        <time>2015-08-02T09:19:55Z</time>
      </trkpt>
      <trkpt lat="46.1855632904917" lon="10.559305781498551">
        <ele>2600.02</ele>
        <time>2015-08-02T09:20:07Z</time>
      </trkpt>
      <trkpt lat="46.185582065954804" lon="10.559356659650803">
        <ele>2601.46</ele>
        <time>2015-08-02T09:20:17Z</time>
      </trkpt>
      <trkpt lat="46.185590028762817" lon="10.559421787038445">
        <ele>2601.46</ele>
        <time>2015-08-02T09:20:26Z</time>
      </trkpt>
      <trkpt lat="46.185603942722082" lon="10.559429498389363">
        <ele>2601.9499999999998</ele>
        <time>2015-08-02T09:20:42Z</time>
      </trkpt>
      <trkpt lat="46.185629675164819" lon="10.559403765946627">
        <ele>2602.9099999999999</ele>
        <time>2015-08-02T09:20:56Z</time>
      </trkpt>
      <trkpt lat="46.185659095644951" lon="10.559416087344289">
        <ele>2604.8299999999999</ele>
        <time>2015-08-02T09:21:07Z</time>
      </trkpt>
      <trkpt lat="46.185701424255967" lon="10.559470904991031">
        <ele>2606.27</ele>
        <time>2015-08-02T09:21:18Z</time>
      </trkpt>
      <trkpt lat="46.185704274103045" lon="10.559510719031096">
        <ele>2607.23</ele>
        <time>2015-08-02T09:21:29Z</time>
      </trkpt>
      <trkpt lat="46.185701424255967" lon="10.5595329310745">
        <ele>2607.71</ele>
        <time>2015-08-02T09:21:39Z</time>
      </trkpt>
      <trkpt lat="46.185742076486349" lon="10.559516670182347">
        <ele>2610.5999999999999</ele>
        <time>2015-08-02T09:21:48Z</time>
      </trkpt>
      <trkpt lat="46.185778621584177" lon="10.559492111206055">
        <ele>2611.0799999999999</ele>
        <time>2015-08-02T09:21:59Z</time>
      </trkpt>
      <trkpt lat="46.185809131711721" lon="10.559476185590029">
        <ele>2612.52</ele>
        <time>2015-08-02T09:22:09Z</time>
      </trkpt>
      <trkpt lat="46.185822039842606" lon="10.559477610513568">
        <ele>2613.96</ele>
        <time>2015-08-02T09:22:21Z</time>
      </trkpt>
      <trkpt lat="46.185825811699033" lon="10.559419691562653">
        <ele>2614.9200000000001</ele>
        <time>2015-08-02T09:22:32Z</time>
      </trkpt>
      <trkpt lat="46.185860177502036" lon="10.559466630220413">
        <ele>2616.3699999999999</ele>
        <time>2015-08-02T09:22:40Z</time>
      </trkpt>
      <trkpt lat="46.185876186937094" lon="10.559480460360646">
        <ele>2617.3299999999999</ele>
        <time>2015-08-02T09:22:49Z</time>
      </trkpt>
      <trkpt lat="46.185905523598194" lon="10.559434946626425">
        <ele>2618.29</ele>
        <time>2015-08-02T09:22:59Z</time>
      </trkpt>
      <trkpt lat="46.185929495841265" lon="10.559383481740952">
        <ele>2619.73</ele>
        <time>2015-08-02T09:23:10Z</time>
      </trkpt>
      <trkpt lat="46.185947433114052" lon="10.559360012412071">
        <ele>2621.1700000000001</ele>
        <time>2015-08-02T09:23:21Z</time>
      </trkpt>
      <trkpt lat="46.185974841937423" lon="10.559332519769669">
        <ele>2622.1300000000001</ele>
        <time>2015-08-02T09:23:33Z</time>
      </trkpt>
      <trkpt lat="46.185974590480328" lon="10.559308044612408">
        <ele>2622.1300000000001</ele>
        <time>2015-08-02T09:23:48Z</time>
      </trkpt>
      <trkpt lat="46.185983140021563" lon="10.559292873367667">
        <ele>2622.6100000000001</ele>
        <time>2015-08-02T09:23:58Z</time>
      </trkpt>
      <trkpt lat="46.185980038717389" lon="10.55927200242877">
        <ele>2622.6100000000001</ele>
        <time>2015-08-02T09:24:11Z</time>
      </trkpt>
      <trkpt lat="46.185996048152447" lon="10.559260100126266">
        <ele>2624.0599999999999</ele>
        <time>2015-08-02T09:24:19Z</time>
      </trkpt>
      <trkpt lat="46.185992192476988" lon="10.559253310784698">
        <ele>2624.0599999999999</ele>
        <time>2015-08-02T09:24:32Z</time>
      </trkpt>
      <trkpt lat="46.186016499996185" lon="10.559230428189039">
        <ele>2625.02</ele>
        <time>2015-08-02T09:24:42Z</time>
      </trkpt>
      <trkpt lat="46.186053464189172" lon="10.55919136852026">
        <ele>2626.9400000000001</ele>
        <time>2015-08-02T09:24:52Z</time>
      </trkpt>
      <trkpt lat="46.186059080064297" lon="10.559146944433451">
        <ele>2628.3800000000001</ele>
        <time>2015-08-02T09:25:03Z</time>
      </trkpt>
      <trkpt lat="46.186086069792509" lon="10.559109644964337">
        <ele>2629.3400000000001</ele>
        <time>2015-08-02T09:25:12Z</time>
      </trkpt>
      <trkpt lat="46.186102833598852" lon="10.559129426255822">
        <ele>2628.8600000000001</ele>
        <time>2015-08-02T09:25:19Z</time>
      </trkpt>
      <trkpt lat="46.186109874397516" lon="10.559136467054486">
        <ele>2628.3800000000001</ele>
        <time>2015-08-02T09:25:29Z</time>
      </trkpt>
      <trkpt lat="46.186116579920053" lon="10.559131605550647">
        <ele>2628.8600000000001</ele>
        <time>2015-08-02T09:25:45Z</time>
      </trkpt>
      <trkpt lat="46.186099648475647" lon="10.559131186455488">
        <ele>2628.8600000000001</ele>
        <time>2015-08-02T09:26:02Z</time>
      </trkpt>
      <trkpt lat="46.186121944338083" lon="10.559093467891216">
        <ele>2629.3400000000001</ele>
        <time>2015-08-02T09:26:11Z</time>
      </trkpt>
      <trkpt lat="46.186104342341423" lon="10.559123056009412">
        <ele>2629.3400000000001</ele>
        <time>2015-08-02T09:26:28Z</time>
      </trkpt>
      <trkpt lat="46.186097301542759" lon="10.559101346880198">
        <ele>2629.3400000000001</ele>
        <time>2015-08-02T09:26:41Z</time>
      </trkpt>
      <trkpt lat="46.186114484444261" lon="10.559110064059496">
        <ele>2629.3400000000001</ele>
        <time>2015-08-02T09:26:54Z</time>
      </trkpt>
      <trkpt lat="46.186112808063626" lon="10.559105286374688">
        <ele>2629.3400000000001</ele>
        <time>2015-08-02T09:27:07Z</time>
      </trkpt>
      <trkpt lat="46.186119932681322" lon="10.559102352708578">
        <ele>2629.8200000000002</ele>
        <time>2015-08-02T09:27:19Z</time>
      </trkpt>
      <trkpt lat="46.186111718416214" lon="10.559096066281199">
        <ele>2629.3400000000001</ele>
        <time>2015-08-02T09:27:31Z</time>
      </trkpt>
      <trkpt lat="46.186107527464628" lon="10.559084415435791">
        <ele>2629.3400000000001</ele>
        <time>2015-08-02T09:27:48Z</time>
      </trkpt>
      <trkpt lat="46.186125883832574" lon="10.559065975248814">
        <ele>2629.3400000000001</ele>
        <time>2015-08-02T09:28:01Z</time>
      </trkpt>
      <trkpt lat="46.186130661517382" lon="10.559061616659164">
        <ele>2629.3400000000001</ele>
        <time>2015-08-02T09:28:14Z</time>
      </trkpt>
      <trkpt lat="46.186119429767132" lon="10.559089779853821">
        <ele>2629.3400000000001</ele>
        <time>2015-08-02T09:28:32Z</time>
      </trkpt>
      <trkpt lat="46.18613937869668" lon="10.559045607224107">
        <ele>2629.3400000000001</ele>
        <time>2015-08-02T09:28:42Z</time>
      </trkpt>
      <trkpt lat="46.186134684830904" lon="10.559054659679532">
        <ele>2629.3400000000001</ele>
        <time>2015-08-02T09:28:55Z</time>
      </trkpt>
      <trkpt lat="46.186124878004193" lon="10.559048792347312">
        <ele>2629.3400000000001</ele>
        <time>2015-08-02T09:29:07Z</time>
      </trkpt>
      <trkpt lat="46.186168044805527" lon="10.559020545333624">
        <ele>2628.8600000000001</ele>
        <time>2015-08-02T09:29:20Z</time>
      </trkpt>
      <trkpt lat="46.186195118352771" lon="10.558996740728617">
        <ele>2628.3800000000001</ele>
        <time>2015-08-02T09:29:31Z</time>
      </trkpt>
      <trkpt lat="46.186236860230565" lon="10.55894804187119">
        <ele>2627.9000000000001</ele>
        <time>2015-08-02T09:29:40Z</time>
      </trkpt>
      <trkpt lat="46.18625471368432" lon="10.55893580429256">
        <ele>2627.9000000000001</ele>
        <time>2015-08-02T09:29:42Z</time>
      </trkpt>
      <trkpt lat="46.186267370358109" lon="10.558915855363011">
        <ele>2627.9000000000001</ele>
        <time>2015-08-02T09:29:44Z</time>
      </trkpt>
      <trkpt lat="46.18633920326829" lon="10.558890122920275">
        <ele>2625.98</ele>
        <time>2015-08-02T09:29:57Z</time>
      </trkpt>
      <trkpt lat="46.18638857267797" lon="10.558883585035801">
        <ele>2624.54</ele>
        <time>2015-08-02T09:30:07Z</time>
      </trkpt>
      <trkpt lat="46.186411790549755" lon="10.558857098221779">
        <ele>2623.5799999999999</ele>
        <time>2015-08-02T09:30:11Z</time>
      </trkpt>
      <trkpt lat="46.186522264033556" lon="10.558819798752666">
        <ele>2622.1300000000001</ele>
        <time>2015-08-02T09:30:25Z</time>
      </trkpt>
      <trkpt lat="46.186600048094988" lon="10.558768417686224">
        <ele>2622.6100000000001</ele>
        <time>2015-08-02T09:30:34Z</time>
      </trkpt>
      <trkpt lat="46.186703313142061" lon="10.558685688301921">
        <ele>2621.6500000000001</ele>
        <time>2015-08-02T09:30:45Z</time>
      </trkpt>
      <trkpt lat="46.186763076111674" lon="10.558674205094576">
        <ele>2619.73</ele>
        <time>2015-08-02T09:30:56Z</time>
      </trkpt>
      <trkpt lat="46.186797777190804" lon="10.558708151802421">
        <ele>2617.3299999999999</ele>
        <time>2015-08-02T09:31:05Z</time>
      </trkpt>
      <trkpt lat="46.186804482713342" lon="10.558713935315609">
        <ele>2616.8499999999999</ele>
        <time>2015-08-02T09:31:07Z</time>
      </trkpt>
      <trkpt lat="46.18685276247561" lon="10.558741511777043">
        <ele>2614.4400000000001</ele>
        <time>2015-08-02T09:31:17Z</time>
      </trkpt>
      <trkpt lat="46.186899365857244" lon="10.558694321662188">
        <ele>2613.48</ele>
        <time>2015-08-02T09:31:26Z</time>
      </trkpt>
      <trkpt lat="46.186931300908327" lon="10.55870664305985">
        <ele>2612.04</ele>
        <time>2015-08-02T09:31:32Z</time>
      </trkpt>
      <trkpt lat="46.186985280364752" lon="10.558680323883891">
        <ele>2610.1199999999999</ele>
        <time>2015-08-02T09:31:41Z</time>
      </trkpt>
      <trkpt lat="46.187002882361412" lon="10.558668840676546">
        <ele>2609.1599999999999</ele>
        <time>2015-08-02T09:31:49Z</time>
      </trkpt>
      <trkpt lat="46.187042109668255" lon="10.558639755472541">
        <ele>2607.71</ele>
        <time>2015-08-02T09:32:03Z</time>
      </trkpt>
      <trkpt lat="46.187071530148387" lon="10.558575466275215">
        <ele>2605.79</ele>
        <time>2015-08-02T09:32:13Z</time>
      </trkpt>
      <trkpt lat="46.187075302004814" lon="10.558537412434816">
        <ele>2605.79</ele>
        <time>2015-08-02T09:32:21Z</time>
      </trkpt>
      <trkpt lat="46.187115451321006" lon="10.558557361364365">
        <ele>2604.8299999999999</ele>
        <time>2015-08-02T09:32:27Z</time>
      </trkpt>
      <trkpt lat="46.187178064137697" lon="10.558584770187736">
        <ele>2603.8699999999999</ele>
        <time>2015-08-02T09:32:37Z</time>
      </trkpt>
      <trkpt lat="46.187187116593122" lon="10.558574292808771">
        <ele>2603.8699999999999</ele>
        <time>2015-08-02T09:32:38Z</time>
      </trkpt>
      <trkpt lat="46.187228774651885" lon="10.558581165969372">
        <ele>2602.9099999999999</ele>
        <time>2015-08-02T09:32:43Z</time>
      </trkpt>
      <trkpt lat="46.187304127961397" lon="10.558612095192075">
        <ele>2603.8699999999999</ele>
        <time>2015-08-02T09:32:53Z</time>
      </trkpt>
      <trkpt lat="46.187330195680261" lon="10.558626260608435">
        <ele>2602.9099999999999</ele>
        <time>2015-08-02T09:32:57Z</time>
      </trkpt>
      <trkpt lat="46.187363136559725" lon="10.558603378012776">
        <ele>2601.46</ele>
        <time>2015-08-02T09:33:03Z</time>
      </trkpt>
      <trkpt lat="46.187395993620157" lon="10.558550404384732">
        <ele>2600.02</ele>
        <time>2015-08-02T09:33:08Z</time>
      </trkpt>
      <trkpt lat="46.187482494860888" lon="10.558567503467202">
        <ele>2598.5799999999999</ele>
        <time>2015-08-02T09:33:18Z</time>
      </trkpt>
      <trkpt lat="46.187536809593439" lon="10.558579070493579">
        <ele>2596.6599999999999</ele>
        <time>2015-08-02T09:33:26Z</time>
      </trkpt>
      <trkpt lat="46.187623059377074" lon="10.558516709133983">
        <ele>2594.7399999999998</ele>
        <time>2015-08-02T09:33:36Z</time>
      </trkpt>
      <trkpt lat="46.187693048268557" lon="10.558537328615785">
        <ele>2593.29</ele>
        <time>2015-08-02T09:33:46Z</time>
      </trkpt>
      <trkpt lat="46.187733029946685" lon="10.55852584540844">
        <ele>2591.3699999999999</ele>
        <time>2015-08-02T09:33:54Z</time>
      </trkpt>
      <trkpt lat="46.187768736854196" lon="10.558495167642832">
        <ele>2589.4499999999998</ele>
        <time>2015-08-02T09:34:04Z</time>
      </trkpt>
      <trkpt lat="46.187820034101605" lon="10.558505980297923">
        <ele>2587.5300000000002</ele>
        <time>2015-08-02T09:34:13Z</time>
      </trkpt>
      <trkpt lat="46.187833361327648" lon="10.558479828760028">
        <ele>2587.04</ele>
        <time>2015-08-02T09:34:16Z</time>
      </trkpt>
      <trkpt lat="46.187872504815459" lon="10.558461556211114">
        <ele>2585.5999999999999</ele>
        <time>2015-08-02T09:34:21Z</time>
      </trkpt>
      <trkpt lat="46.187915420159698" lon="10.558452755212784">
        <ele>2584.1599999999999</ele>
        <time>2015-08-02T09:34:28Z</time>
      </trkpt>
      <trkpt lat="46.188003597781062" lon="10.558455185964704">
        <ele>2581.2800000000002</ele>
        <time>2015-08-02T09:34:41Z</time>
      </trkpt>
      <trkpt lat="46.188058247789741" lon="10.558483265340328">
        <ele>2578.3899999999999</ele>
        <time>2015-08-02T09:34:52Z</time>
      </trkpt>
      <trkpt lat="46.18813544511795" lon="10.558491311967373">
        <ele>2575.9899999999998</ele>
        <time>2015-08-02T09:35:03Z</time>
      </trkpt>
      <trkpt lat="46.188197052106261" lon="10.558519391342998">
        <ele>2573.5900000000001</ele>
        <time>2015-08-02T09:35:11Z</time>
      </trkpt>
      <trkpt lat="46.188235944136977" lon="10.558506399393082">
        <ele>2572.1399999999999</ele>
        <time>2015-08-02T09:35:20Z</time>
      </trkpt>
      <trkpt lat="46.18827223777771" lon="10.55842911824584">
        <ele>2571.6599999999999</ele>
        <time>2015-08-02T09:35:26Z</time>
      </trkpt>
      <trkpt lat="46.188276428729296" lon="10.558380167931318">
        <ele>2571.1799999999998</ele>
        <time>2015-08-02T09:35:30Z</time>
      </trkpt>
      <trkpt lat="46.18826150894165" lon="10.55836264975369">
        <ele>2571.6599999999999</ele>
        <time>2015-08-02T09:35:32Z</time>
      </trkpt>
      <trkpt lat="46.188253043219447" lon="10.55832015350461">
        <ele>2571.6599999999999</ele>
        <time>2015-08-02T09:35:35Z</time>
      </trkpt>
      <trkpt lat="46.188235189765692" lon="10.558215882629156">
        <ele>2571.1799999999998</ele>
        <time>2015-08-02T09:35:42Z</time>
      </trkpt>
      <trkpt lat="46.188279613852501" lon="10.558108342811465">
        <ele>2570.2199999999998</ele>
        <time>2015-08-02T09:35:49Z</time>
      </trkpt>
      <trkpt lat="46.188327306881547" lon="10.558032067492604">
        <ele>2569.7399999999998</ele>
        <time>2015-08-02T09:35:55Z</time>
      </trkpt>
      <trkpt lat="46.188368378207088" lon="10.558015052229166">
        <ele>2568.3000000000002</ele>
        <time>2015-08-02T09:36:05Z</time>
      </trkpt>
      <trkpt lat="46.188404420390725" lon="10.558011699467897">
        <ele>2566.3800000000001</ele>
        <time>2015-08-02T09:36:13Z</time>
      </trkpt>
      <trkpt lat="46.188438953831792" lon="10.557894939556718">
        <ele>2563.4899999999998</ele>
        <time>2015-08-02T09:36:24Z</time>
      </trkpt>
      <trkpt lat="46.188504667952657" lon="10.557811623439193">
        <ele>2560.6100000000001</ele>
        <time>2015-08-02T09:36:36Z</time>
      </trkpt>
      <trkpt lat="46.188540207222104" lon="10.557781951501966">
        <ele>2559.6500000000001</ele>
        <time>2015-08-02T09:36:47Z</time>
      </trkpt>
      <trkpt lat="46.188553282991052" lon="10.557744316756725">
        <ele>2558.6900000000001</ele>
        <time>2015-08-02T09:36:55Z</time>
      </trkpt>
      <trkpt lat="46.188558228313923" lon="10.557728139683604">
        <ele>2558.21</ele>
        <time>2015-08-02T09:36:57Z</time>
      </trkpt>
      <trkpt lat="46.188649255782366" lon="10.557700898498297">
        <ele>2558.21</ele>
        <time>2015-08-02T09:37:08Z</time>
      </trkpt>
      <trkpt lat="46.188702648505569" lon="10.55766049772501">
        <ele>2555.8000000000002</ele>
        <time>2015-08-02T09:37:18Z</time>
      </trkpt>
      <trkpt lat="46.18871346116066" lon="10.557634178549051">
        <ele>2555.8000000000002</ele>
        <time>2015-08-02T09:37:21Z</time>
      </trkpt>
      <trkpt lat="46.188749251887202" lon="10.557608949020505">
        <ele>2555.8000000000002</ele>
        <time>2015-08-02T09:37:32Z</time>
      </trkpt>
      <trkpt lat="46.188775822520256" lon="10.557634178549051">
        <ele>2554.8400000000001</ele>
        <time>2015-08-02T09:37:40Z</time>
      </trkpt>
      <trkpt lat="46.188781270757318" lon="10.557632837444544">
        <ele>2554.8400000000001</ele>
        <time>2015-08-02T09:37:41Z</time>
      </trkpt>
      <trkpt lat="46.188796777278185" lon="10.557599226012826">
        <ele>2554.8400000000001</ele>
        <time>2015-08-02T09:37:47Z</time>
      </trkpt>
      <trkpt lat="46.188831478357315" lon="10.557583719491959">
        <ele>2554.8400000000001</ele>
        <time>2015-08-02T09:37:51Z</time>
      </trkpt>
      <trkpt lat="46.188901467248797" lon="10.557565363124013">
        <ele>2554.8400000000001</ele>
        <time>2015-08-02T09:38:00Z</time>
      </trkpt>
      <trkpt lat="46.188955279067159" lon="10.557555891573429">
        <ele>2554.8400000000001</ele>
        <time>2015-08-02T09:38:09Z</time>
      </trkpt>
      <trkpt lat="46.188985956832767" lon="10.557497134432197">
        <ele>2554.8400000000001</ele>
        <time>2015-08-02T09:38:18Z</time>
      </trkpt>
      <trkpt lat="46.188989141955972" lon="10.55754616856575">
        <ele>2555.3200000000002</ele>
        <time>2015-08-02T09:38:27Z</time>
      </trkpt>
      <trkpt lat="46.189022082835436" lon="10.557498056441545">
        <ele>2555.8000000000002</ele>
        <time>2015-08-02T09:38:35Z</time>
      </trkpt>
      <trkpt lat="46.189082432538271" lon="10.557442903518677">
        <ele>2556.7600000000002</ele>
        <time>2015-08-02T09:38:44Z</time>
      </trkpt>
      <trkpt lat="46.189121576026082" lon="10.557429157197475">
        <ele>2556.2800000000002</ele>
        <time>2015-08-02T09:38:52Z</time>
      </trkpt>
      <trkpt lat="46.189137669280171" lon="10.557433264330029">
        <ele>2556.2800000000002</ele>
        <time>2015-08-02T09:38:54Z</time>
      </trkpt>
      <trkpt lat="46.189211430028081" lon="10.557460337877274">
        <ele>2554.8400000000001</ele>
        <time>2015-08-02T09:39:04Z</time>
      </trkpt>
      <trkpt lat="46.189238000661135" lon="10.557466624304652">
        <ele>2554.8400000000001</ele>
        <time>2015-08-02T09:39:13Z</time>
      </trkpt>
      <trkpt lat="46.189271779730916" lon="10.557480957359076">
        <ele>2553.8800000000001</ele>
        <time>2015-08-02T09:39:17Z</time>
      </trkpt>
      <trkpt lat="46.189288124442101" lon="10.557509623467922">
        <ele>2553.8800000000001</ele>
        <time>2015-08-02T09:39:20Z</time>
      </trkpt>
      <trkpt lat="46.189329447224736" lon="10.557525213807821">
        <ele>2552.9200000000001</ele>
        <time>2015-08-02T09:39:25Z</time>
      </trkpt>
      <trkpt lat="46.189375380054116" lon="10.557515658438206">
        <ele>2551.96</ele>
        <time>2015-08-02T09:39:36Z</time>
      </trkpt>
      <trkpt lat="46.189414104446769" lon="10.557527896016836">
        <ele>2551</ele>
        <time>2015-08-02T09:39:40Z</time>
      </trkpt>
      <trkpt lat="46.189431790262461" lon="10.557540468871593">
        <ele>2550.5100000000002</ele>
        <time>2015-08-02T09:39:42Z</time>
      </trkpt>
      <trkpt lat="46.189497504383326" lon="10.55758036673069">
        <ele>2548.5900000000001</ele>
        <time>2015-08-02T09:39:52Z</time>
      </trkpt>
      <trkpt lat="46.189566068351269" lon="10.557632250711322">
        <ele>2547.1500000000001</ele>
        <time>2015-08-02T09:40:01Z</time>
      </trkpt>
      <trkpt lat="46.189620215445757" lon="10.557658486068249">
        <ele>2545.23</ele>
        <time>2015-08-02T09:40:09Z</time>
      </trkpt>
      <trkpt lat="46.189657095819712" lon="10.557677261531353">
        <ele>2544.27</ele>
        <time>2015-08-02T09:40:13Z</time>
      </trkpt>
      <trkpt lat="46.189681068062782" lon="10.55768639780581">
        <ele>2544.27</ele>
        <time>2015-08-02T09:40:16Z</time>
      </trkpt>
      <trkpt lat="46.189743345603347" lon="10.55771766230464">
        <ele>2543.3099999999999</ele>
        <time>2015-08-02T09:40:23Z</time>
      </trkpt>
      <trkpt lat="46.189766647294164" lon="10.557724954560399">
        <ele>2542.8200000000002</ele>
        <time>2015-08-02T09:40:25Z</time>
      </trkpt>
      <trkpt lat="46.189876450225711" lon="10.557760326191783">
        <ele>2540.4200000000001</ele>
        <time>2015-08-02T09:40:36Z</time>
      </trkpt>
      <trkpt lat="46.189914755523205" lon="10.557768205180764">
        <ele>2538.98</ele>
        <time>2015-08-02T09:40:44Z</time>
      </trkpt>
      <trkpt lat="46.189930764958262" lon="10.557780861854553">
        <ele>2538.98</ele>
        <time>2015-08-02T09:41:06Z</time>
      </trkpt>
      <trkpt lat="46.189939649775624" lon="10.557690756395459">
        <ele>2537.54</ele>
        <time>2015-08-02T09:41:15Z</time>
      </trkpt>
      <trkpt lat="46.189949540421367" lon="10.557628395035863">
        <ele>2536.0999999999999</ele>
        <time>2015-08-02T09:41:23Z</time>
      </trkpt>
      <trkpt lat="46.189954904839396" lon="10.557607607915998">
        <ele>2535.1300000000001</ele>
        <time>2015-08-02T09:41:25Z</time>
      </trkpt>
      <trkpt lat="46.189970076084137" lon="10.557578941807151">
        <ele>2534.6500000000001</ele>
        <time>2015-08-02T09:41:27Z</time>
      </trkpt>
      <trkpt lat="46.190013829618692" lon="10.557492272928357">
        <ele>2534.6500000000001</ele>
        <time>2015-08-02T09:41:36Z</time>
      </trkpt>
      <trkpt lat="46.190042914822698" lon="10.55742546916008">
        <ele>2535.1300000000001</ele>
        <time>2015-08-02T09:41:41Z</time>
      </trkpt>
      <trkpt lat="46.190121872350574" lon="10.557381045073271">
        <ele>2534.1700000000001</ele>
        <time>2015-08-02T09:41:49Z</time>
      </trkpt>
      <trkpt lat="46.190153807401657" lon="10.557285826653242">
        <ele>2533.6900000000001</ele>
        <time>2015-08-02T09:41:59Z</time>
      </trkpt>
      <trkpt lat="46.190182138234377" lon="10.557273589074612">
        <ele>2533.6900000000001</ele>
        <time>2015-08-02T09:42:06Z</time>
      </trkpt>
      <trkpt lat="46.190212396904826" lon="10.557267889380455">
        <ele>2533.6900000000001</ele>
        <time>2015-08-02T09:42:14Z</time>
      </trkpt>
      <trkpt lat="46.190198147669435" lon="10.557286078110337">
        <ele>2533.6900000000001</ele>
        <time>2015-08-02T09:42:27Z</time>
      </trkpt>
      <trkpt lat="46.190188508480787" lon="10.557293286547065">
        <ele>2533.21</ele>
        <time>2015-08-02T09:42:39Z</time>
      </trkpt>
      <trkpt lat="46.19017937220633" lon="10.557319521903992">
        <ele>2533.21</ele>
        <time>2015-08-02T09:42:59Z</time>
      </trkpt>
      <trkpt lat="46.190175684168935" lon="10.557320443913341">
        <ele>2533.6900000000001</ele>
        <time>2015-08-02T09:43:10Z</time>
      </trkpt>
      <trkpt lat="46.190209798514843" lon="10.557256238535047">
        <ele>2533.21</ele>
        <time>2015-08-02T09:43:20Z</time>
      </trkpt>
      <trkpt lat="46.190235111862421" lon="10.557265961542726">
        <ele>2533.6900000000001</ele>
        <time>2015-08-02T09:43:29Z</time>
      </trkpt>
      <trkpt lat="46.190235698595643" lon="10.557266129180789">
        <ele>2533.21</ele>
        <time>2015-08-02T09:43:31Z</time>
      </trkpt>
      <trkpt lat="46.190229412168264" lon="10.557286581024528">
        <ele>2532.73</ele>
        <time>2015-08-02T09:43:38Z</time>
      </trkpt>
      <trkpt lat="46.190220778807998" lon="10.557283563539386">
        <ele>2533.21</ele>
        <time>2015-08-02T09:43:45Z</time>
      </trkpt>
      <trkpt lat="46.190265035256743" lon="10.55725053884089">
        <ele>2533.6900000000001</ele>
        <time>2015-08-02T09:43:53Z</time>
      </trkpt>
      <trkpt lat="46.190315410494804" lon="10.557191278785467">
        <ele>2534.1700000000001</ele>
        <time>2015-08-02T09:44:02Z</time>
      </trkpt>
      <trkpt lat="46.190404510125518" lon="10.557191781699657">
        <ele>2533.6900000000001</ele>
        <time>2015-08-02T09:44:14Z</time>
      </trkpt>
      <trkpt lat="46.190427811816335" lon="10.557188764214516">
        <ele>2532.73</ele>
        <time>2015-08-02T09:44:17Z</time>
      </trkpt>
      <trkpt lat="46.190517917275429" lon="10.557180549949408">
        <ele>2532.73</ele>
        <time>2015-08-02T09:44:28Z</time>
      </trkpt>
      <trkpt lat="46.190603077411652" lon="10.557195050641894">
        <ele>2531.77</ele>
        <time>2015-08-02T09:44:37Z</time>
      </trkpt>
      <trkpt lat="46.190669797360897" lon="10.557220028713346">
        <ele>2530.8099999999999</ele>
        <time>2015-08-02T09:44:47Z</time>
      </trkpt>
      <trkpt lat="46.190677089616656" lon="10.557223716750741">
        <ele>2530.8099999999999</ele>
        <time>2015-08-02T09:44:48Z</time>
      </trkpt>
      <trkpt lat="46.190693434327841" lon="10.55723930709064">
        <ele>2530.8099999999999</ele>
        <time>2015-08-02T09:44:50Z</time>
      </trkpt>
      <trkpt lat="46.190701816231012" lon="10.557272164151073">
        <ele>2530.3299999999999</ele>
        <time>2015-08-02T09:44:52Z</time>
      </trkpt>
      <trkpt lat="46.190764596685767" lon="10.557375680655241">
        <ele>2529.8499999999999</ele>
        <time>2015-08-02T09:45:02Z</time>
      </trkpt>
      <trkpt lat="46.190834334120154" lon="10.557469809427857">
        <ele>2529.8499999999999</ele>
        <time>2015-08-02T09:45:13Z</time>
      </trkpt>
      <trkpt lat="46.190846739336848" lon="10.557489925995469">
        <ele>2530.3299999999999</ele>
        <time>2015-08-02T09:45:15Z</time>
      </trkpt>
      <trkpt lat="46.190907591953874" lon="10.557589000090957">
        <ele>2530.3299999999999</ele>
        <time>2015-08-02T09:45:25Z</time>
      </trkpt>
      <trkpt lat="46.190940029919147" lon="10.557657899335027">
        <ele>2531.29</ele>
        <time>2015-08-02T09:45:33Z</time>
      </trkpt>
      <trkpt lat="46.190958973020315" lon="10.557758565992117">
        <ele>2532.25</ele>
        <time>2015-08-02T09:45:43Z</time>
      </trkpt>
      <trkpt lat="46.19099828414619" lon="10.557846911251545">
        <ele>2533.21</ele>
        <time>2015-08-02T09:45:52Z</time>
      </trkpt>
      <trkpt lat="46.191026866436005" lon="10.557934250682592">
        <ele>2532.73</ele>
        <time>2015-08-02T09:45:59Z</time>
      </trkpt>
      <trkpt lat="46.191086797043681" lon="10.557908350601792">
        <ele>2533.21</ele>
        <time>2015-08-02T09:46:08Z</time>
      </trkpt>
      <trkpt lat="46.191088892519474" lon="10.557897370308638">
        <ele>2533.21</ele>
        <time>2015-08-02T09:46:09Z</time>
      </trkpt>
      <trkpt lat="46.191144129261374" lon="10.557845402508974">
        <ele>2532.73</ele>
        <time>2015-08-02T09:46:20Z</time>
      </trkpt>
      <trkpt lat="46.191139100119472" lon="10.557858813554049">
        <ele>2532.73</ele>
        <time>2015-08-02T09:46:29Z</time>
      </trkpt>
      <trkpt lat="46.191184362396598" lon="10.557896196842194">
        <ele>2531.77</ele>
        <time>2015-08-02T09:46:42Z</time>
      </trkpt>
      <trkpt lat="46.191185535863042" lon="10.557950511574745">
        <ele>2531.29</ele>
        <time>2015-08-02T09:46:49Z</time>
      </trkpt>
      <trkpt lat="46.19117857888341" lon="10.557978255674243">
        <ele>2531.29</ele>
        <time>2015-08-02T09:46:51Z</time>
      </trkpt>
      <trkpt lat="46.191127868369222" lon="10.558077748864889">
        <ele>2530.8099999999999</ele>
        <time>2015-08-02T09:47:01Z</time>
      </trkpt>
      <trkpt lat="46.191121581941843" lon="10.558084370568395">
        <ele>2530.8099999999999</ele>
        <time>2015-08-02T09:47:02Z</time>
      </trkpt>
      <trkpt lat="46.191111775115132" lon="10.558122675865889">
        <ele>2529.3699999999999</ele>
        <time>2015-08-02T09:47:10Z</time>
      </trkpt>
      <trkpt lat="46.191136669367552" lon="10.55820289067924">
        <ele>2526.96</ele>
        <time>2015-08-02T09:47:21Z</time>
      </trkpt>
      <trkpt lat="46.191186122596264" lon="10.558219235390425">
        <ele>2525.04</ele>
        <time>2015-08-02T09:47:29Z</time>
      </trkpt>
      <trkpt lat="46.191270863637328" lon="10.558307748287916">
        <ele>2522.1599999999999</ele>
        <time>2015-08-02T09:47:41Z</time>
      </trkpt>
      <trkpt lat="46.1912792455405" lon="10.55833381600678">
        <ele>2522.1599999999999</ele>
        <time>2015-08-02T09:47:43Z</time>
      </trkpt>
      <trkpt lat="46.191366165876389" lon="10.558408750221133">
        <ele>2520.71</ele>
        <time>2015-08-02T09:47:54Z</time>
      </trkpt>
      <trkpt lat="46.191436490043998" lon="10.558468177914619">
        <ele>2519.75</ele>
        <time>2015-08-02T09:48:04Z</time>
      </trkpt>
      <trkpt lat="46.191485775634646" lon="10.558480583131313">
        <ele>2517.3499999999999</ele>
        <time>2015-08-02T09:48:11Z</time>
      </trkpt>
      <trkpt lat="46.191528774797916" lon="10.558550404384732">
        <ele>2514.4699999999998</ele>
        <time>2015-08-02T09:48:19Z</time>
      </trkpt>
      <trkpt lat="46.191525086760521" lon="10.558590134605765">
        <ele>2513.02</ele>
        <time>2015-08-02T09:48:28Z</time>
      </trkpt>
      <trkpt lat="46.191559955477715" lon="10.558614358305931">
        <ele>2511.5799999999999</ele>
        <time>2015-08-02T09:48:33Z</time>
      </trkpt>
      <trkpt lat="46.191680654883385" lon="10.55863237939775">
        <ele>2510.1399999999999</ele>
        <time>2015-08-02T09:48:46Z</time>
      </trkpt>
      <trkpt lat="46.191730359569192" lon="10.558638079091907">
        <ele>2508.2199999999998</ele>
        <time>2015-08-02T09:48:55Z</time>
      </trkpt>
      <trkpt lat="46.191753325983882" lon="10.558662889525294">
        <ele>2506.29</ele>
        <time>2015-08-02T09:49:03Z</time>
      </trkpt>
      <trkpt lat="46.191756678745151" lon="10.558668840676546">
        <ele>2505.8099999999999</ele>
        <time>2015-08-02T09:49:04Z</time>
      </trkpt>
      <trkpt lat="46.191740334033966" lon="10.558736985549331">
        <ele>2504.3699999999999</ele>
        <time>2015-08-02T09:49:14Z</time>
      </trkpt>
      <trkpt lat="46.191779393702745" lon="10.558758359402418">
        <ele>2503.4099999999999</ele>
        <time>2015-08-02T09:49:21Z</time>
      </trkpt>
      <trkpt lat="46.191824404522777" lon="10.558789791539311">
        <ele>2502.4499999999998</ele>
        <time>2015-08-02T09:49:29Z</time>
      </trkpt>
      <trkpt lat="46.191843347623944" lon="10.558810159564018">
        <ele>2502.4499999999998</ele>
        <time>2015-08-02T09:49:31Z</time>
      </trkpt>
      <trkpt lat="46.191881569102407" lon="10.55886254645884">
        <ele>2501.9699999999998</ele>
        <time>2015-08-02T09:49:36Z</time>
      </trkpt>
      <trkpt lat="46.191910738125443" lon="10.558871515095234">
        <ele>2501.4899999999998</ele>
        <time>2015-08-02T09:49:44Z</time>
      </trkpt>
      <trkpt lat="46.19195113889873" lon="10.558928344398737">
        <ele>2500.5300000000002</ele>
        <time>2015-08-02T09:49:52Z</time>
      </trkpt>
      <trkpt lat="46.191993886604905" lon="10.558900600299239">
        <ele>2498.5999999999999</ele>
        <time>2015-08-02T09:50:01Z</time>
      </trkpt>
      <trkpt lat="46.19206890463829" lon="10.558938402682543">
        <ele>2497.6399999999999</ele>
        <time>2015-08-02T09:50:11Z</time>
      </trkpt>
      <trkpt lat="46.192094469442964" lon="10.558989867568016">
        <ele>2497.1599999999999</ele>
        <time>2015-08-02T09:50:14Z</time>
      </trkpt>
      <trkpt lat="46.192141659557819" lon="10.559031525626779">
        <ele>2496.6799999999998</ele>
        <time>2015-08-02T09:50:19Z</time>
      </trkpt>
      <trkpt lat="46.192191615700722" lon="10.55908877402544">
        <ele>2496.6799999999998</ele>
        <time>2015-08-02T09:50:27Z</time>
      </trkpt>
      <trkpt lat="46.192213157191873" lon="10.559093551710248">
        <ele>2494.7600000000002</ele>
        <time>2015-08-02T09:50:30Z</time>
      </trkpt>
      <trkpt lat="46.19223503395915" lon="10.559112327173352">
        <ele>2494.2800000000002</ele>
        <time>2015-08-02T09:50:33Z</time>
      </trkpt>
      <trkpt lat="46.192265879362822" lon="10.559129845350981">
        <ele>2493.8000000000002</ele>
        <time>2015-08-02T09:50:36Z</time>
      </trkpt>
      <trkpt lat="46.192357325926423" lon="10.559215592220426">
        <ele>2493.3200000000002</ele>
        <time>2015-08-02T09:50:47Z</time>
      </trkpt>
      <trkpt lat="46.192373754456639" lon="10.559223387390375">
        <ele>2492.8400000000001</ele>
        <time>2015-08-02T09:50:49Z</time>
      </trkpt>
      <trkpt lat="46.192392110824585" lon="10.559228667989373">
        <ele>2492.3600000000001</ele>
        <time>2015-08-02T09:50:51Z</time>
      </trkpt>
      <trkpt lat="46.192409293726087" lon="10.559231098741293">
        <ele>2492.3600000000001</ele>
        <time>2015-08-02T09:50:53Z</time>
      </trkpt>
      <trkpt lat="46.192508870735765" lon="10.559278288856149">
        <ele>2492.3600000000001</ele>
        <time>2015-08-02T09:51:06Z</time>
      </trkpt>
      <trkpt lat="46.192521443590522" lon="10.55935557000339">
        <ele>2493.3200000000002</ele>
        <time>2015-08-02T09:51:15Z</time>
      </trkpt>
      <trkpt lat="46.192567376419902" lon="10.559433521702886">
        <ele>2492.8400000000001</ele>
        <time>2015-08-02T09:51:25Z</time>
      </trkpt>
      <trkpt lat="46.19257215410471" lon="10.559439137578011">
        <ele>2492.3600000000001</ele>
        <time>2015-08-02T09:51:26Z</time>
      </trkpt>
      <trkpt lat="46.192628229036927" lon="10.559539217501879">
        <ele>2489.9499999999998</ele>
        <time>2015-08-02T09:51:38Z</time>
      </trkpt>
      <trkpt lat="46.192648345604539" lon="10.559621779248118">
        <ele>2488.5100000000002</ele>
        <time>2015-08-02T09:51:45Z</time>
      </trkpt>
      <trkpt lat="46.19267575442791" lon="10.559673830866814">
        <ele>2487.0700000000002</ele>
        <time>2015-08-02T09:51:55Z</time>
      </trkpt>
      <trkpt lat="46.192695032805204" lon="10.559713980183005">
        <ele>2487.0700000000002</ele>
        <time>2015-08-02T09:52:02Z</time>
      </trkpt>
      <trkpt lat="46.192743815481663" lon="10.559804337099195">
        <ele>2485.1500000000001</ele>
        <time>2015-08-02T09:52:10Z</time>
      </trkpt>
      <trkpt lat="46.192769045010209" lon="10.559817748144269">
        <ele>2484.6599999999999</ele>
        <time>2015-08-02T09:52:13Z</time>
      </trkpt>
      <trkpt lat="46.192788574844599" lon="10.559815652668476">
        <ele>2484.6599999999999</ele>
        <time>2015-08-02T09:52:15Z</time>
      </trkpt>
      <trkpt lat="46.192835764959455" lon="10.55981582030654">
        <ele>2484.6599999999999</ele>
        <time>2015-08-02T09:52:20Z</time>
      </trkpt>
      <trkpt lat="46.192878345027566" lon="10.559819340705872">
        <ele>2484.1799999999998</ele>
        <time>2015-08-02T09:52:26Z</time>
      </trkpt>
      <trkpt lat="46.192933497950435" lon="10.559871727600694">
        <ele>2483.2199999999998</ele>
        <time>2015-08-02T09:52:33Z</time>
      </trkpt>
      <trkpt lat="46.192976916208863" lon="10.559965269640088">
        <ele>2481.3000000000002</ele>
        <time>2015-08-02T09:52:42Z</time>
      </trkpt>
      <trkpt lat="46.193009689450264" lon="10.560014136135578">
        <ele>2480.3400000000001</ele>
        <time>2015-08-02T09:52:50Z</time>
      </trkpt>
      <trkpt lat="46.193046988919377" lon="10.560058057308197">
        <ele>2479.3800000000001</ele>
        <time>2015-08-02T09:52:59Z</time>
      </trkpt>
      <trkpt lat="46.193108847364783" lon="10.560090914368629">
        <ele>2477.9400000000001</ele>
        <time>2015-08-02T09:53:08Z</time>
      </trkpt>
      <trkpt lat="46.193102225661278" lon="10.5601373501122">
        <ele>2477.4499999999998</ele>
        <time>2015-08-02T09:53:11Z</time>
      </trkpt>
      <trkpt lat="46.193134244531393" lon="10.560206836089492">
        <ele>2476.0100000000002</ele>
        <time>2015-08-02T09:53:19Z</time>
      </trkpt>
      <trkpt lat="46.193189648911357" lon="10.560250002890825">
        <ele>2475.5300000000002</ele>
        <time>2015-08-02T09:53:26Z</time>
      </trkpt>
      <trkpt lat="46.193269612267613" lon="10.560300629585981">
        <ele>2474.0900000000001</ele>
        <time>2015-08-02T09:53:36Z</time>
      </trkpt>
      <trkpt lat="46.193276233971119" lon="10.560309179127216">
        <ele>2474.0900000000001</ele>
        <time>2015-08-02T09:53:37Z</time>
      </trkpt>
      <trkpt lat="46.193324010819197" lon="10.560317225754261">
        <ele>2473.1300000000001</ele>
        <time>2015-08-02T09:53:42Z</time>
      </trkpt>
      <trkpt lat="46.193393832072616" lon="10.560414707288146">
        <ele>2471.21</ele>
        <time>2015-08-02T09:53:52Z</time>
      </trkpt>
      <trkpt lat="46.193477483466268" lon="10.560442451387644">
        <ele>2469.2800000000002</ele>
        <time>2015-08-02T09:54:01Z</time>
      </trkpt>
      <trkpt lat="46.193484188988805" lon="10.560436164960265">
        <ele>2469.7600000000002</ele>
        <time>2015-08-02T09:54:02Z</time>
      </trkpt>
      <trkpt lat="46.19352257810533" lon="10.560438428074121">
        <ele>2469.2800000000002</ele>
        <time>2015-08-02T09:54:06Z</time>
      </trkpt>
      <trkpt lat="46.193557446822524" lon="10.560457790270448">
        <ele>2468.8000000000002</ele>
        <time>2015-08-02T09:54:10Z</time>
      </trkpt>
      <trkpt lat="46.193608157336712" lon="10.560457874089479">
        <ele>2468.3200000000002</ele>
        <time>2015-08-02T09:54:15Z</time>
      </trkpt>
      <trkpt lat="46.193664902821183" lon="10.560546051710844">
        <ele>2466.4000000000001</ele>
        <time>2015-08-02T09:54:25Z</time>
      </trkpt>
      <trkpt lat="46.193703962489963" lon="10.560555104166269">
        <ele>2466.4000000000001</ele>
        <time>2015-08-02T09:54:32Z</time>
      </trkpt>
      <trkpt lat="46.193748135119677" lon="10.560565665364265">
        <ele>2465.4400000000001</ele>
        <time>2015-08-02T09:54:38Z</time>
      </trkpt>
      <trkpt lat="46.193768670782447" lon="10.560572370886803">
        <ele>2465.4400000000001</ele>
        <time>2015-08-02T09:54:40Z</time>
      </trkpt>
      <trkpt lat="46.193852489814162" lon="10.560604054480791">
        <ele>2464.96</ele>
        <time>2015-08-02T09:54:49Z</time>
      </trkpt>
      <trkpt lat="46.193872438743711" lon="10.560619896277785">
        <ele>2464.48</ele>
        <time>2015-08-02T09:54:51Z</time>
      </trkpt>
      <trkpt lat="46.193934381008148" lon="10.560720562934875">
        <ele>2463.52</ele>
        <time>2015-08-02T09:55:01Z</time>
      </trkpt>
      <trkpt lat="46.193981403484941" lon="10.560783259570599">
        <ele>2462.5500000000002</ele>
        <time>2015-08-02T09:55:09Z</time>
      </trkpt>
      <trkpt lat="46.19405709207058" lon="10.560803292319179">
        <ele>2461.5900000000001</ele>
        <time>2015-08-02T09:55:18Z</time>
      </trkpt>
      <trkpt lat="46.19408005848527" lon="10.560820978134871">
        <ele>2461.1100000000001</ele>
        <time>2015-08-02T09:55:22Z</time>
      </trkpt>
      <trkpt lat="46.19410453364253" lon="10.560855092480779">
        <ele>2461.1100000000001</ele>
        <time>2015-08-02T09:55:26Z</time>
      </trkpt>
      <trkpt lat="46.194189358502626" lon="10.560919046401978">
        <ele>2460.6300000000001</ele>
        <time>2015-08-02T09:55:36Z</time>
      </trkpt>
      <trkpt lat="46.194197069853544" lon="10.560977887362242">
        <ele>2460.6300000000001</ele>
        <time>2015-08-02T09:55:48Z</time>
      </trkpt>
      <trkpt lat="46.194196566939354" lon="10.56099146604538">
        <ele>2460.6300000000001</ele>
        <time>2015-08-02T09:55:49Z</time>
      </trkpt>
      <trkpt lat="46.194185670465231" lon="10.561051815748215">
        <ele>2460.6300000000001</ele>
        <time>2015-08-02T09:55:53Z</time>
      </trkpt>
      <trkpt lat="46.194211486726999" lon="10.56115566752851">
        <ele>2459.1900000000001</ele>
        <time>2015-08-02T09:56:03Z</time>
      </trkpt>
      <trkpt lat="46.194216348230839" lon="10.561140915378928">
        <ele>2458.71</ele>
        <time>2015-08-02T09:56:15Z</time>
      </trkpt>
      <trkpt lat="46.194239482283592" lon="10.561205707490444">
        <ele>2457.75</ele>
        <time>2015-08-02T09:56:22Z</time>
      </trkpt>
      <trkpt lat="46.194286337122321" lon="10.561249041929841">
        <ele>2456.79</ele>
        <time>2015-08-02T09:56:28Z</time>
      </trkpt>
      <trkpt lat="46.194317936897278" lon="10.561305116862059">
        <ele>2455.8200000000002</ele>
        <time>2015-08-02T09:56:33Z</time>
      </trkpt>
      <trkpt lat="46.194342914968729" lon="10.561336548998952">
        <ele>2455.3400000000001</ele>
        <time>2015-08-02T09:56:37Z</time>
      </trkpt>
      <trkpt lat="46.194359259679914" lon="10.561339063569903">
        <ele>2454.8600000000001</ele>
        <time>2015-08-02T09:56:48Z</time>
      </trkpt>
      <trkpt lat="46.194367222487926" lon="10.56131936609745">
        <ele>2454.8600000000001</ele>
        <time>2015-08-02T09:56:52Z</time>
      </trkpt>
      <trkpt lat="46.194386668503284" lon="10.561350546777248">
        <ele>2454.3800000000001</ele>
        <time>2015-08-02T09:57:02Z</time>
      </trkpt>
      <trkpt lat="46.194411143660545" lon="10.561370579525828">
        <ele>2453.9000000000001</ele>
        <time>2015-08-02T09:57:14Z</time>
      </trkpt>
      <trkpt lat="46.194437798112631" lon="10.561413411051035">
        <ele>2452.46</ele>
        <time>2015-08-02T09:57:20Z</time>
      </trkpt>
      <trkpt lat="46.194447437301278" lon="10.561458254233003">
        <ele>2451.98</ele>
        <time>2015-08-02T09:57:29Z</time>
      </trkpt>
      <trkpt lat="46.194445425644517" lon="10.561469653621316">
        <ele>2451.5</ele>
        <time>2015-08-02T09:57:40Z</time>
      </trkpt>
      <trkpt lat="46.194476773962379" lon="10.561483483761549">
        <ele>2451.5</ele>
        <time>2015-08-02T09:57:52Z</time>
      </trkpt>
      <trkpt lat="46.194528406485915" lon="10.561488093808293">
        <ele>2451.02</ele>
        <time>2015-08-02T09:57:57Z</time>
      </trkpt>
      <trkpt lat="46.194568974897265" lon="10.561544839292765">
        <ele>2451.5</ele>
        <time>2015-08-02T09:58:04Z</time>
      </trkpt>
      <trkpt lat="46.194651117548347" lon="10.561636202037334">
        <ele>2450.0599999999999</ele>
        <time>2015-08-02T09:58:14Z</time>
      </trkpt>
      <trkpt lat="46.194681711494923" lon="10.561673082411289">
        <ele>2449.5799999999999</ele>
        <time>2015-08-02T09:58:18Z</time>
      </trkpt>
      <trkpt lat="46.19473485276103" lon="10.561689594760537">
        <ele>2448.1300000000001</ele>
        <time>2015-08-02T09:58:23Z</time>
      </trkpt>
      <trkpt lat="46.194848343729973" lon="10.56167216040194">
        <ele>2447.1700000000001</ele>
        <time>2015-08-02T09:58:34Z</time>
      </trkpt>
      <trkpt lat="46.194898383691907" lon="10.561690349131823">
        <ele>2447.1700000000001</ele>
        <time>2015-08-02T09:58:39Z</time>
      </trkpt>
      <trkpt lat="46.194940209388733" lon="10.56172245182097">
        <ele>2446.21</ele>
        <time>2015-08-02T09:58:43Z</time>
      </trkpt>
      <trkpt lat="46.194946663454175" lon="10.56175472214818">
        <ele>2446.6900000000001</ele>
        <time>2015-08-02T09:58:53Z</time>
      </trkpt>
      <trkpt lat="46.194998128339648" lon="10.561751369386911">
        <ele>2445.73</ele>
        <time>2015-08-02T09:59:05Z</time>
      </trkpt>
      <trkpt lat="46.195070128887892" lon="10.561777856200933">
        <ele>2445.73</ele>
        <time>2015-08-02T09:59:13Z</time>
      </trkpt>
      <trkpt lat="46.195167610421777" lon="10.561786070466042">
        <ele>2446.6900000000001</ele>
        <time>2015-08-02T09:59:25Z</time>
      </trkpt>
      <trkpt lat="46.195246148854494" lon="10.561808785423636">
        <ele>2446.6900000000001</ele>
        <time>2015-08-02T09:59:35Z</time>
      </trkpt>
      <trkpt lat="46.195331308990717" lon="10.561830243095756">
        <ele>2445.73</ele>
        <time>2015-08-02T09:59:46Z</time>
      </trkpt>
      <trkpt lat="46.195401968434453" lon="10.561837702989578">
        <ele>2446.21</ele>
        <time>2015-08-02T09:59:55Z</time>
      </trkpt>
      <trkpt lat="46.195503221824765" lon="10.561846923083067">
        <ele>2445.73</ele>
        <time>2015-08-02T10:00:06Z</time>
      </trkpt>
      <trkpt lat="46.195584945380688" lon="10.561850275844336">
        <ele>2445.25</ele>
        <time>2015-08-02T10:00:17Z</time>
      </trkpt>
      <trkpt lat="46.19561830535531" lon="10.561812724918127">
        <ele>2444.77</ele>
        <time>2015-08-02T10:00:22Z</time>
      </trkpt>
      <trkpt lat="46.195666836574674" lon="10.56185438297689">
        <ele>2443.8099999999999</ele>
        <time>2015-08-02T10:00:29Z</time>
      </trkpt>
      <trkpt lat="46.195747135207057" lon="10.561863351613283">
        <ele>2443.8099999999999</ele>
        <time>2015-08-02T10:00:40Z</time>
      </trkpt>
      <trkpt lat="46.195806143805385" lon="10.561853963881731">
        <ele>2443.3299999999999</ele>
        <time>2015-08-02T10:00:49Z</time>
      </trkpt>
      <trkpt lat="46.195834474638104" lon="10.56189889088273">
        <ele>2443.8099999999999</ele>
        <time>2015-08-02T10:00:54Z</time>
      </trkpt>
      <trkpt lat="46.195888202637434" lon="10.561920264735818">
        <ele>2443.8099999999999</ele>
        <time>2015-08-02T10:01:02Z</time>
      </trkpt>
      <trkpt lat="46.195898847654462" lon="10.561922276392579">
        <ele>2444.29</ele>
        <time>2015-08-02T10:01:03Z</time>
      </trkpt>
      <trkpt lat="46.19600823149085" lon="10.561923114582896">
        <ele>2444.29</ele>
        <time>2015-08-02T10:01:14Z</time>
      </trkpt>
      <trkpt lat="46.196099007502198" lon="10.561919761821628">
        <ele>2444.77</ele>
        <time>2015-08-02T10:01:25Z</time>
      </trkpt>
      <trkpt lat="46.19613429531455" lon="10.562023026868701">
        <ele>2445.73</ele>
        <time>2015-08-02T10:01:34Z</time>
      </trkpt>
      <trkpt lat="46.196184000000358" lon="10.562142971903086">
        <ele>2447.6500000000001</ele>
        <time>2015-08-02T10:01:45Z</time>
      </trkpt>
      <trkpt lat="46.196284163743258" lon="10.562165686860681">
        <ele>2449.0999999999999</ele>
        <time>2015-08-02T10:01:57Z</time>
      </trkpt>
      <trkpt lat="46.19629698805511" lon="10.562163507565856">
        <ele>2449.5799999999999</ele>
        <time>2015-08-02T10:01:59Z</time>
      </trkpt>
      <trkpt lat="46.196391871199012" lon="10.562119502574205">
        <ele>2450.0599999999999</ele>
        <time>2015-08-02T10:02:09Z</time>
      </trkpt>
      <trkpt lat="46.196442246437073" lon="10.562165686860681">
        <ele>2449.0999999999999</ele>
        <time>2015-08-02T10:02:14Z</time>
      </trkpt>
      <trkpt lat="46.196446688845754" lon="10.562207344919443">
        <ele>2448.6199999999999</ele>
        <time>2015-08-02T10:02:17Z</time>
      </trkpt>
      <trkpt lat="46.196482228115201" lon="10.562235005199909">
        <ele>2447.6500000000001</ele>
        <time>2015-08-02T10:02:21Z</time>
      </trkpt>
      <trkpt lat="46.196533693000674" lon="10.562267359346151">
        <ele>2447.6500000000001</ele>
        <time>2015-08-02T10:02:27Z</time>
      </trkpt>
      <trkpt lat="46.196619104593992" lon="10.562307005748153">
        <ele>2448.6199999999999</ele>
        <time>2015-08-02T10:02:37Z</time>
      </trkpt>
      <trkpt lat="46.196666629984975" lon="10.562352184206247">
        <ele>2448.6199999999999</ele>
        <time>2015-08-02T10:02:43Z</time>
      </trkpt>
      <trkpt lat="46.196686830371618" lon="10.562343886122108">
        <ele>2449.0999999999999</ele>
        <time>2015-08-02T10:02:45Z</time>
      </trkpt>
      <trkpt lat="46.19673234410584" lon="10.562364421784878">
        <ele>2448.6199999999999</ele>
        <time>2015-08-02T10:02:50Z</time>
      </trkpt>
      <trkpt lat="46.196822952479124" lon="10.562418652698398">
        <ele>2445.73</ele>
        <time>2015-08-02T10:03:00Z</time>
      </trkpt>
      <trkpt lat="46.196876429021358" lon="10.562456287443638">
        <ele>2445.25</ele>
        <time>2015-08-02T10:03:05Z</time>
      </trkpt>
      <trkpt lat="46.19691121391952" lon="10.562487803399563">
        <ele>2444.29</ele>
        <time>2015-08-02T10:03:09Z</time>
      </trkpt>
      <trkpt lat="46.197023950517178" lon="10.562517894431949">
        <ele>2445.25</ele>
        <time>2015-08-02T10:03:21Z</time>
      </trkpt>
      <trkpt lat="46.197022441774607" lon="10.562558211386204">
        <ele>2444.29</ele>
        <time>2015-08-02T10:03:29Z</time>
      </trkpt>
      <trkpt lat="46.197006599977612" lon="10.562549326568842">
        <ele>2444.29</ele>
        <time>2015-08-02T10:03:49Z</time>
      </trkpt>
      <trkpt lat="46.1970055103302" lon="10.562561647966504">
        <ele>2444.29</ele>
        <time>2015-08-02T10:04:07Z</time>
      </trkpt>
      <trkpt lat="46.196998720988631" lon="10.562556702643633">
        <ele>2444.77</ele>
        <time>2015-08-02T10:04:16Z</time>
      </trkpt>
      <trkpt lat="46.197010288015008" lon="10.562594337388873">
        <ele>2444.77</ele>
        <time>2015-08-02T10:04:19Z</time>
      </trkpt>
      <trkpt lat="46.197029734030366" lon="10.562621662393212">
        <ele>2444.77</ele>
        <time>2015-08-02T10:04:22Z</time>
      </trkpt>
      <trkpt lat="46.19707390666008" lon="10.562692992389202">
        <ele>2443.3299999999999</ele>
        <time>2015-08-02T10:04:28Z</time>
      </trkpt>
      <trkpt lat="46.197091592475772" lon="10.562700955197215">
        <ele>2443.3299999999999</ele>
        <time>2015-08-02T10:04:30Z</time>
      </trkpt>
      <trkpt lat="46.197197288274765" lon="10.562780415639281">
        <ele>2442.3699999999999</ele>
        <time>2015-08-02T10:04:42Z</time>
      </trkpt>
      <trkpt lat="46.197225116193295" lon="10.562789803370833">
        <ele>2442.3699999999999</ele>
        <time>2015-08-02T10:04:49Z</time>
      </trkpt>
      <trkpt lat="46.197277083992958" lon="10.562817715108395">
        <ele>2441.4099999999999</ele>
        <time>2015-08-02T10:04:57Z</time>
      </trkpt>
      <trkpt lat="46.19728596881032" lon="10.562886530533433">
        <ele>2440.4400000000001</ele>
        <time>2015-08-02T10:05:02Z</time>
      </trkpt>
      <trkpt lat="46.197300218045712" lon="10.562976552173495">
        <ele>2439</ele>
        <time>2015-08-02T10:05:10Z</time>
      </trkpt>
      <trkpt lat="46.197333913296461" lon="10.563096916303039">
        <ele>2440.9200000000001</ele>
        <time>2015-08-02T10:05:22Z</time>
      </trkpt>
      <trkpt lat="46.197413457557559" lon="10.56309062987566">
        <ele>2441.8899999999999</ele>
        <time>2015-08-02T10:05:32Z</time>
      </trkpt>
      <trkpt lat="46.197483278810978" lon="10.563076548278332">
        <ele>2443.3299999999999</ele>
        <time>2015-08-02T10:05:42Z</time>
      </trkpt>
      <trkpt lat="46.197525439783931" lon="10.56317612528801">
        <ele>2444.29</ele>
        <time>2015-08-02T10:05:51Z</time>
      </trkpt>
      <trkpt lat="46.197525188326836" lon="10.563215436413884">
        <ele>2444.77</ele>
        <time>2015-08-02T10:05:55Z</time>
      </trkpt>
      <trkpt lat="46.19752979837358" lon="10.563272014260292">
        <ele>2444.77</ele>
        <time>2015-08-02T10:05:59Z</time>
      </trkpt>
      <trkpt lat="46.197564247995615" lon="10.563320964574814">
        <ele>2444.77</ele>
        <time>2015-08-02T10:06:04Z</time>
      </trkpt>
      <trkpt lat="46.197645049542189" lon="10.563363460823894">
        <ele>2444.77</ele>
        <time>2015-08-02T10:06:13Z</time>
      </trkpt>
      <trkpt lat="46.197654018178582" lon="10.563368573784828">
        <ele>2444.77</ele>
        <time>2015-08-02T10:06:14Z</time>
      </trkpt>
      <trkpt lat="46.197682181373239" lon="10.563390953466296">
        <ele>2444.29</ele>
        <time>2015-08-02T10:06:17Z</time>
      </trkpt>
      <trkpt lat="46.197761557996273" lon="10.563469408079982">
        <ele>2442.3699999999999</ele>
        <time>2015-08-02T10:06:29Z</time>
      </trkpt>
      <trkpt lat="46.197782512754202" lon="10.563507964834571">
        <ele>2442.3699999999999</ele>
        <time>2015-08-02T10:06:32Z</time>
      </trkpt>
      <trkpt lat="46.197905978187919" lon="10.563502768054605">
        <ele>2439.96</ele>
        <time>2015-08-02T10:06:44Z</time>
      </trkpt>
      <trkpt lat="46.197976637631655" lon="10.563537385314703">
        <ele>2438.52</ele>
        <time>2015-08-02T10:06:52Z</time>
      </trkpt>
      <trkpt lat="46.198050063103437" lon="10.563610475510359">
        <ele>2438.04</ele>
        <time>2015-08-02T10:07:02Z</time>
      </trkpt>
      <trkpt lat="46.198087278753519" lon="10.563565380871296">
        <ele>2437.5599999999999</ele>
        <time>2015-08-02T10:07:09Z</time>
      </trkpt>
      <trkpt lat="46.198131870478392" lon="10.563527829945087">
        <ele>2438.04</ele>
        <time>2015-08-02T10:07:15Z</time>
      </trkpt>
      <trkpt lat="46.198217030614614" lon="10.563450213521719">
        <ele>2437.0799999999999</ele>
        <time>2015-08-02T10:07:26Z</time>
      </trkpt>
      <trkpt lat="46.198248965665698" lon="10.563435209915042">
        <ele>2436.1199999999999</ele>
        <time>2015-08-02T10:07:30Z</time>
      </trkpt>
      <trkpt lat="46.198269668966532" lon="10.563429007306695">
        <ele>2435.6399999999999</ele>
        <time>2015-08-02T10:07:32Z</time>
      </trkpt>
      <trkpt lat="46.198345022276044" lon="10.56341752409935">
        <ele>2435.1599999999999</ele>
        <time>2015-08-02T10:07:40Z</time>
      </trkpt>
      <trkpt lat="46.198363462463021" lon="10.563445687294006">
        <ele>2435.1599999999999</ele>
        <time>2015-08-02T10:07:43Z</time>
      </trkpt>
      <trkpt lat="46.198402438312769" lon="10.563554735854268">
        <ele>2434.1999999999998</ele>
        <time>2015-08-02T10:07:54Z</time>
      </trkpt>
      <trkpt lat="46.198460441082716" lon="10.563598573207855">
        <ele>2432.27</ele>
        <time>2015-08-02T10:08:04Z</time>
      </trkpt>
      <trkpt lat="46.198506793007255" lon="10.563594298437238">
        <ele>2431.79</ele>
        <time>2015-08-02T10:08:12Z</time>
      </trkpt>
      <trkpt lat="46.198532609269023" lon="10.563627742230892">
        <ele>2430.3499999999999</ele>
        <time>2015-08-02T10:08:22Z</time>
      </trkpt>
      <trkpt lat="46.198549624532461" lon="10.563683649525046">
        <ele>2428.4299999999998</ele>
        <time>2015-08-02T10:08:31Z</time>
      </trkpt>
      <trkpt lat="46.198552474379539" lon="10.563703179359436">
        <ele>2427.4699999999998</ele>
        <time>2015-08-02T10:08:35Z</time>
      </trkpt>
      <trkpt lat="46.198518108576536" lon="10.563775431364775">
        <ele>2425.0599999999999</ele>
        <time>2015-08-02T10:08:44Z</time>
      </trkpt>
      <trkpt lat="46.198493298143148" lon="10.563789093866944">
        <ele>2424.5799999999999</ele>
        <time>2015-08-02T10:08:51Z</time>
      </trkpt>
      <trkpt lat="46.198490783572197" lon="10.563801834359765">
        <ele>2423.6199999999999</ele>
        <time>2015-08-02T10:08:55Z</time>
      </trkpt>
      <trkpt lat="46.198517438024282" lon="10.563796889036894">
        <ele>2422.6599999999999</ele>
        <time>2015-08-02T10:08:59Z</time>
      </trkpt>
      <trkpt lat="46.198581475764513" lon="10.56387685239315">
        <ele>2421.2199999999998</ele>
        <time>2015-08-02T10:09:10Z</time>
      </trkpt>
      <trkpt lat="46.198623888194561" lon="10.563925048336387">
        <ele>2420.7399999999998</ele>
        <time>2015-08-02T10:09:18Z</time>
      </trkpt>
      <trkpt lat="46.198641154915094" lon="10.563938040286303">
        <ele>2419.7800000000002</ele>
        <time>2015-08-02T10:09:20Z</time>
      </trkpt>
      <trkpt lat="46.198642076924443" lon="10.563989505171776">
        <ele>2419.3000000000002</ele>
        <time>2015-08-02T10:09:23Z</time>
      </trkpt>
      <trkpt lat="46.198645597323775" lon="10.564044741913676">
        <ele>2419.3000000000002</ele>
        <time>2015-08-02T10:09:27Z</time>
      </trkpt>
      <trkpt lat="46.198569489642978" lon="10.564235681667924">
        <ele>2419.7800000000002</ele>
        <time>2015-08-02T10:09:41Z</time>
      </trkpt>
      <trkpt lat="46.198554066941142" lon="10.564258480444551">
        <ele>2419.3000000000002</ele>
        <time>2015-08-02T10:09:43Z</time>
      </trkpt>
      <trkpt lat="46.19849824346602" lon="10.56436350569129">
        <ele>2419.7800000000002</ele>
        <time>2015-08-02T10:09:54Z</time>
      </trkpt>
      <trkpt lat="46.198487766087055" lon="10.564392507076263">
        <ele>2419.7800000000002</ele>
        <time>2015-08-02T10:10:04Z</time>
      </trkpt>
      <trkpt lat="46.198482904583216" lon="10.564389238134027">
        <ele>2419.7800000000002</ele>
        <time>2015-08-02T10:10:14Z</time>
      </trkpt>
      <trkpt lat="46.198485000059009" lon="10.564431650564075">
        <ele>2420.2600000000002</ele>
        <time>2015-08-02T10:10:26Z</time>
      </trkpt>
      <trkpt lat="46.198499333113432" lon="10.564488396048546">
        <ele>2420.7399999999998</ele>
        <time>2015-08-02T10:10:31Z</time>
      </trkpt>
      <trkpt lat="46.198511654511094" lon="10.56454187259078">
        <ele>2420.2600000000002</ele>
        <time>2015-08-02T10:10:35Z</time>
      </trkpt>
      <trkpt lat="46.198552642017603" lon="10.564685622230172">
        <ele>2420.2600000000002</ele>
        <time>2015-08-02T10:10:46Z</time>
      </trkpt>
      <trkpt lat="46.198566555976868" lon="10.564740020781755">
        <ele>2420.2600000000002</ele>
        <time>2015-08-02T10:10:51Z</time>
      </trkpt>
      <trkpt lat="46.19856471195817" lon="10.5648257676512">
        <ele>2419.3000000000002</ele>
        <time>2015-08-02T10:10:57Z</time>
      </trkpt>
      <trkpt lat="46.198549959808588" lon="10.564855020493269">
        <ele>2418.3299999999999</ele>
        <time>2015-08-02T10:10:59Z</time>
      </trkpt>
      <trkpt lat="46.198562448844314" lon="10.564872622489929">
        <ele>2418.3299999999999</ele>
        <time>2015-08-02T10:11:01Z</time>
      </trkpt>
      <trkpt lat="46.198599077761173" lon="10.564880417659879">
        <ele>2418.3299999999999</ele>
        <time>2015-08-02T10:11:05Z</time>
      </trkpt>
      <trkpt lat="46.19861944578588" lon="10.564879747107625">
        <ele>2417.8499999999999</ele>
        <time>2015-08-02T10:11:07Z</time>
      </trkpt>
      <trkpt lat="46.198641071096063" lon="10.564936073496938">
        <ele>2417.3699999999999</ele>
        <time>2015-08-02T10:11:12Z</time>
      </trkpt>
      <trkpt lat="46.198647189885378" lon="10.565031794831157">
        <ele>2416.4099999999999</ele>
        <time>2015-08-02T10:11:19Z</time>
      </trkpt>
      <trkpt lat="46.198668899014592" lon="10.565106561407447">
        <ele>2414.9699999999998</ele>
        <time>2015-08-02T10:11:27Z</time>
      </trkpt>
      <trkpt lat="46.198672084137797" lon="10.565160708501935">
        <ele>2414.0100000000002</ele>
        <time>2015-08-02T10:11:31Z</time>
      </trkpt>
      <trkpt lat="46.198740564286709" lon="10.565199097618461">
        <ele>2414.0100000000002</ele>
        <time>2015-08-02T10:11:38Z</time>
      </trkpt>
      <trkpt lat="46.198746934533119" lon="10.565229523926973">
        <ele>2414.0100000000002</ele>
        <time>2015-08-02T10:11:40Z</time>
      </trkpt>
      <trkpt lat="46.198799824342132" lon="10.565298087894917">
        <ele>2414.0100000000002</ele>
        <time>2015-08-02T10:11:48Z</time>
      </trkpt>
      <trkpt lat="46.198826562613249" lon="10.565337985754013">
        <ele>2414.4899999999998</ele>
        <time>2015-08-02T10:11:53Z</time>
      </trkpt>
      <trkpt lat="46.198861179873347" lon="10.565330777317286">
        <ele>2414.4899999999998</ele>
        <time>2015-08-02T10:12:03Z</time>
      </trkpt>
      <trkpt lat="46.19889160618186" lon="10.565347038209438">
        <ele>2414.9699999999998</ele>
        <time>2015-08-02T10:12:09Z</time>
      </trkpt>
      <trkpt lat="46.198953548446298" lon="10.565319210290909">
        <ele>2414.4899999999998</ele>
        <time>2015-08-02T10:12:15Z</time>
      </trkpt>
      <trkpt lat="46.199044408276677" lon="10.565329436212778">
        <ele>2415.4499999999998</ele>
        <time>2015-08-02T10:12:26Z</time>
      </trkpt>
      <trkpt lat="46.199122359976172" lon="10.565302614122629">
        <ele>2414.9699999999998</ele>
        <time>2015-08-02T10:12:36Z</time>
      </trkpt>
      <trkpt lat="46.199206681922078" lon="10.565281240269542">
        <ele>2414.9699999999998</ele>
        <time>2015-08-02T10:12:45Z</time>
      </trkpt>
      <trkpt lat="46.199242472648621" lon="10.565277049317956">
        <ele>2414.9699999999998</ele>
        <time>2015-08-02T10:12:50Z</time>
      </trkpt>
      <trkpt lat="46.199281280860305" lon="10.565240252763033">
        <ele>2414.4899999999998</ele>
        <time>2015-08-02T10:13:00Z</time>
      </trkpt>
      <trkpt lat="46.199290920048952" lon="10.565230697393417">
        <ele>2414.4899999999998</ele>
        <time>2015-08-02T10:13:01Z</time>
      </trkpt>
      <trkpt lat="46.199331069365144" lon="10.565239079296589">
        <ele>2413.5300000000002</ele>
        <time>2015-08-02T10:13:09Z</time>
      </trkpt>
      <trkpt lat="46.199364345520735" lon="10.565278474241495">
        <ele>2412.5700000000002</ele>
        <time>2015-08-02T10:13:14Z</time>
      </trkpt>
      <trkpt lat="46.199375577270985" lon="10.565332202240825">
        <ele>2411.5999999999999</ele>
        <time>2015-08-02T10:13:18Z</time>
      </trkpt>
      <trkpt lat="46.199359819293022" lon="10.565451811999083">
        <ele>2410.1599999999999</ele>
        <time>2015-08-02T10:13:27Z</time>
      </trkpt>
      <trkpt lat="46.199364848434925" lon="10.565587850287557">
        <ele>2410.1599999999999</ele>
        <time>2015-08-02T10:13:37Z</time>
      </trkpt>
      <trkpt lat="46.199409188702703" lon="10.565678542479873">
        <ele>2410.6399999999999</ele>
        <time>2015-08-02T10:13:47Z</time>
      </trkpt>
      <trkpt lat="46.199470208957791" lon="10.565695809200406">
        <ele>2411.5999999999999</ele>
        <time>2015-08-02T10:13:56Z</time>
      </trkpt>
      <trkpt lat="46.199511364102364" lon="10.565678710117936">
        <ele>2412.0900000000001</ele>
        <time>2015-08-02T10:14:01Z</time>
      </trkpt>
      <trkpt lat="46.199538270011544" lon="10.565653229132295">
        <ele>2413.0500000000002</ele>
        <time>2015-08-02T10:14:06Z</time>
      </trkpt>
      <trkpt lat="46.199611611664295" lon="10.565602853894234">
        <ele>2414.0100000000002</ele>
        <time>2015-08-02T10:14:15Z</time>
      </trkpt>
      <trkpt lat="46.199646145105362" lon="10.565593549981713">
        <ele>2414.0100000000002</ele>
        <time>2015-08-02T10:14:21Z</time>
      </trkpt>
      <trkpt lat="46.199668608605862" lon="10.565583240240812">
        <ele>2414.4899999999998</ele>
        <time>2015-08-02T10:14:24Z</time>
      </trkpt>
      <trkpt lat="46.199711440131068" lon="10.565608469769359">
        <ele>2414.4899999999998</ele>
        <time>2015-08-02T10:14:29Z</time>
      </trkpt>
      <trkpt lat="46.19975158944726" lon="10.565629005432129">
        <ele>2414.9699999999998</ele>
        <time>2015-08-02T10:14:34Z</time>
      </trkpt>
      <trkpt lat="46.199828283861279" lon="10.565678291022778">
        <ele>2414.4899999999998</ele>
        <time>2015-08-02T10:14:45Z</time>
      </trkpt>
      <trkpt lat="46.199876312166452" lon="10.565736712887883">
        <ele>2416.8899999999999</ele>
        <time>2015-08-02T10:14:56Z</time>
      </trkpt>
      <trkpt lat="46.199935572221875" lon="10.565738473087549">
        <ele>2418.3299999999999</ele>
        <time>2015-08-02T10:15:06Z</time>
      </trkpt>
      <trkpt lat="46.20000078342855" lon="10.565721038728952">
        <ele>2419.3000000000002</ele>
        <time>2015-08-02T10:15:17Z</time>
      </trkpt>
      <trkpt lat="46.20003355666995" lon="10.565732941031456">
        <ele>2420.2600000000002</ele>
        <time>2015-08-02T10:15:22Z</time>
      </trkpt>
      <trkpt lat="46.200077813118696" lon="10.565733443945646">
        <ele>2421.2199999999998</ele>
        <time>2015-08-02T10:15:28Z</time>
      </trkpt>
      <trkpt lat="46.200114777311683" lon="10.565748531371355">
        <ele>2421.6999999999998</ele>
        <time>2015-08-02T10:15:34Z</time>
      </trkpt>
      <trkpt lat="46.20015081949532" lon="10.565753141418099">
        <ele>2421.6999999999998</ele>
        <time>2015-08-02T10:15:38Z</time>
      </trkpt>
      <trkpt lat="46.200249390676618" lon="10.56574827991426">
        <ele>2422.1799999999998</ele>
        <time>2015-08-02T10:15:50Z</time>
      </trkpt>
      <trkpt lat="46.200302448123693" lon="10.565734533593059">
        <ele>2422.1799999999998</ele>
        <time>2015-08-02T10:16:00Z</time>
      </trkpt>
      <trkpt lat="46.200310159474611" lon="10.565739059820771">
        <ele>2422.1799999999998</ele>
        <time>2015-08-02T10:16:12Z</time>
      </trkpt>
      <trkpt lat="46.20031401515007" lon="10.565770240500569">
        <ele>2421.6999999999998</ele>
        <time>2015-08-02T10:16:26Z</time>
      </trkpt>
      <trkpt lat="46.200318457558751" lon="10.565810222178698">
        <ele>2421.2199999999998</ele>
        <time>2015-08-02T10:16:29Z</time>
      </trkpt>
      <trkpt lat="46.200327007099986" lon="10.56582598015666">
        <ele>2421.2199999999998</ele>
        <time>2015-08-02T10:16:31Z</time>
      </trkpt>
      <trkpt lat="46.20034771040082" lon="10.565826231613755">
        <ele>2420.7399999999998</ele>
        <time>2015-08-02T10:16:34Z</time>
      </trkpt>
      <trkpt lat="46.20039607398212" lon="10.565875181928277">
        <ele>2419.3000000000002</ele>
        <time>2015-08-02T10:16:40Z</time>
      </trkpt>
      <trkpt lat="46.200418453663588" lon="10.565901668742299">
        <ele>2418.8099999999999</ele>
        <time>2015-08-02T10:16:43Z</time>
      </trkpt>
      <trkpt lat="46.200438402593136" lon="10.565939135849476">
        <ele>2417.8499999999999</ele>
        <time>2015-08-02T10:16:46Z</time>
      </trkpt>
      <trkpt lat="46.200444102287292" lon="10.565995797514915">
        <ele>2417.8499999999999</ele>
        <time>2015-08-02T10:16:50Z</time>
      </trkpt>
      <trkpt lat="46.200495399534702" lon="10.566064193844795">
        <ele>2418.3299999999999</ele>
        <time>2015-08-02T10:17:00Z</time>
      </trkpt>
      <trkpt lat="46.200551558285952" lon="10.566142229363322">
        <ele>2418.3299999999999</ele>
        <time>2015-08-02T10:17:09Z</time>
      </trkpt>
      <trkpt lat="46.200571842491627" lon="10.566185982897878">
        <ele>2417.3699999999999</ele>
        <time>2015-08-02T10:17:13Z</time>
      </trkpt>
      <trkpt lat="46.200629929080606" lon="10.566207775846124">
        <ele>2416.8899999999999</ele>
        <time>2015-08-02T10:17:22Z</time>
      </trkpt>
      <trkpt lat="46.200683321803808" lon="10.566263683140278">
        <ele>2416.8899999999999</ele>
        <time>2015-08-02T10:17:31Z</time>
      </trkpt>
      <trkpt lat="46.200727075338364" lon="10.566346915438771">
        <ele>2416.4099999999999</ele>
        <time>2015-08-02T10:17:41Z</time>
      </trkpt>
      <trkpt lat="46.200752472504973" lon="10.566343395039439">
        <ele>2415.9299999999998</ele>
        <time>2015-08-02T10:17:44Z</time>
      </trkpt>
      <trkpt lat="46.200862023979425" lon="10.566343730315566">
        <ele>2414.9699999999998</ele>
        <time>2015-08-02T10:17:54Z</time>
      </trkpt>
      <trkpt lat="46.200925726443529" lon="10.56640449911356">
        <ele>2415.4499999999998</ele>
        <time>2015-08-02T10:18:04Z</time>
      </trkpt>
      <trkpt lat="46.20092086493969" lon="10.566439535468817">
        <ele>2414.9699999999998</ele>
        <time>2015-08-02T10:18:07Z</time>
      </trkpt>
      <trkpt lat="46.20091944001615" lon="10.566521259024739">
        <ele>2414.4899999999998</ele>
        <time>2015-08-02T10:18:19Z</time>
      </trkpt>
      <trkpt lat="46.200911896303296" lon="10.56650466285646">
        <ele>2414.9699999999998</ele>
        <time>2015-08-02T10:18:38Z</time>
      </trkpt>
      <trkpt lat="46.200916841626167" lon="10.566465519368649">
        <ele>2414.9699999999998</ele>
        <time>2015-08-02T10:18:52Z</time>
      </trkpt>
      <trkpt lat="46.20091499760747" lon="10.566573143005371">
        <ele>2415.4499999999998</ele>
        <time>2015-08-02T10:19:01Z</time>
      </trkpt>
      <trkpt lat="46.200868645682931" lon="10.566624356433749">
        <ele>2416.4099999999999</ele>
        <time>2015-08-02T10:19:11Z</time>
      </trkpt>
      <trkpt lat="46.200879206880927" lon="10.566584207117558">
        <ele>2415.9299999999998</ele>
        <time>2015-08-02T10:19:16Z</time>
      </trkpt>
      <trkpt lat="46.200899239629507" lon="10.566537771373987">
        <ele>2415.4499999999998</ele>
        <time>2015-08-02T10:19:20Z</time>
      </trkpt>
      <trkpt lat="46.20092966593802" lon="10.566427130252123">
        <ele>2414.9699999999998</ele>
        <time>2015-08-02T10:19:30Z</time>
      </trkpt>
      <trkpt lat="46.200964199379086" lon="10.566339790821075">
        <ele>2415.4499999999998</ele>
        <time>2015-08-02T10:19:39Z</time>
      </trkpt>
      <trkpt lat="46.20099320076406" lon="10.566363846883178">
        <ele>2415.4499999999998</ele>
        <time>2015-08-02T10:19:46Z</time>
      </trkpt>
      <trkpt lat="46.201024297624826" lon="10.566360661759973">
        <ele>2415.4499999999998</ele>
        <time>2015-08-02T10:19:49Z</time>
      </trkpt>
      <trkpt lat="46.201101494953036" lon="10.566455377265811">
        <ele>2415.9299999999998</ele>
        <time>2015-08-02T10:20:00Z</time>
      </trkpt>
      <trkpt lat="46.20117642916739" lon="10.566495107486844">
        <ele>2415.4499999999998</ele>
        <time>2015-08-02T10:20:08Z</time>
      </trkpt>
      <trkpt lat="46.201192438602448" lon="10.566602982580662">
        <ele>2414.4899999999998</ele>
        <time>2015-08-02T10:20:16Z</time>
      </trkpt>
      <trkpt lat="46.201213309541345" lon="10.566629720851779">
        <ele>2413.5300000000002</ele>
        <time>2015-08-02T10:20:19Z</time>
      </trkpt>
      <trkpt lat="46.201207777485251" lon="10.566682778298855">
        <ele>2414.0100000000002</ele>
        <time>2015-08-02T10:20:30Z</time>
      </trkpt>
      <trkpt lat="46.201221942901611" lon="10.566709684208035">
        <ele>2413.5300000000002</ele>
        <time>2015-08-02T10:20:32Z</time>
      </trkpt>
      <trkpt lat="46.201228648424149" lon="10.566765423864126">
        <ele>2413.5300000000002</ele>
        <time>2015-08-02T10:20:35Z</time>
      </trkpt>
      <trkpt lat="46.201247591525316" lon="10.566875142976642">
        <ele>2412.5700000000002</ele>
        <time>2015-08-02T10:20:42Z</time>
      </trkpt>
      <trkpt lat="46.201247675344348" lon="10.567048229277134">
        <ele>2412.0900000000001</ele>
        <time>2015-08-02T10:20:54Z</time>
      </trkpt>
      <trkpt lat="46.201240802183747" lon="10.567068597301841">
        <ele>2412.0900000000001</ele>
        <time>2015-08-02T10:20:56Z</time>
      </trkpt>
      <trkpt lat="46.201229738071561" lon="10.567137161269784">
        <ele>2412.0900000000001</ele>
        <time>2015-08-02T10:21:01Z</time>
      </trkpt>
      <trkpt lat="46.201165281236172" lon="10.56725325062871">
        <ele>2413.0500000000002</ele>
        <time>2015-08-02T10:21:12Z</time>
      </trkpt>
      <trkpt lat="46.201151954010129" lon="10.567326676100492">
        <ele>2414.9699999999998</ele>
        <time>2015-08-02T10:21:22Z</time>
      </trkpt>
      <trkpt lat="46.20115052908659" lon="10.56735341437161">
        <ele>2414.4899999999998</ele>
        <time>2015-08-02T10:21:26Z</time>
      </trkpt>
      <trkpt lat="46.201144242659211" lon="10.567415105178952">
        <ele>2414.0100000000002</ele>
        <time>2015-08-02T10:21:31Z</time>
      </trkpt>
      <trkpt lat="46.201224373653531" lon="10.567523902282119">
        <ele>2413.0500000000002</ele>
        <time>2015-08-02T10:21:43Z</time>
      </trkpt>
      <trkpt lat="46.201288495212793" lon="10.567686930298805">
        <ele>2413.5300000000002</ele>
        <time>2015-08-02T10:21:57Z</time>
      </trkpt>
      <trkpt lat="46.201374158263206" lon="10.567798325791955">
        <ele>2414.0100000000002</ele>
        <time>2015-08-02T10:22:08Z</time>
      </trkpt>
      <trkpt lat="46.201388575136662" lon="10.567830763757229">
        <ele>2414.9699999999998</ele>
        <time>2015-08-02T10:22:13Z</time>
      </trkpt>
      <trkpt lat="46.20141145773232" lon="10.567895639687777">
        <ele>2415.9299999999998</ele>
        <time>2015-08-02T10:22:20Z</time>
      </trkpt>
      <trkpt lat="46.201500557363033" lon="10.56786060333252">
        <ele>2416.4099999999999</ele>
        <time>2015-08-02T10:22:32Z</time>
      </trkpt>
      <trkpt lat="46.201573228463531" lon="10.5679134093225">
        <ele>2414.9699999999998</ele>
        <time>2015-08-02T10:22:42Z</time>
      </trkpt>
      <trkpt lat="46.201642379164696" lon="10.567931430414319">
        <ele>2414.0100000000002</ele>
        <time>2015-08-02T10:22:49Z</time>
      </trkpt>
      <trkpt lat="46.201750924810767" lon="10.568049112334847">
        <ele>2414.4899999999998</ele>
        <time>2015-08-02T10:23:02Z</time>
      </trkpt>
      <trkpt lat="46.20184438303113" lon="10.568197639659047">
        <ele>2414.4899999999998</ele>
        <time>2015-08-02T10:23:15Z</time>
      </trkpt>
      <trkpt lat="46.201837509870529" lon="10.568230161443353">
        <ele>2414.4899999999998</ele>
        <time>2015-08-02T10:23:24Z</time>
      </trkpt>
      <trkpt lat="46.201844215393066" lon="10.568256732076406">
        <ele>2414.4899999999998</ele>
        <time>2015-08-02T10:23:48Z</time>
      </trkpt>
      <trkpt lat="46.201886963099241" lon="10.568337198346853">
        <ele>2414.4899999999998</ele>
        <time>2015-08-02T10:23:56Z</time>
      </trkpt>
      <trkpt lat="46.201915964484215" lon="10.568419340997934">
        <ele>2414.9699999999998</ele>
        <time>2015-08-02T10:24:02Z</time>
      </trkpt>
      <trkpt lat="46.201924262568355" lon="10.56845479644835">
        <ele>2414.9699999999998</ele>
        <time>2015-08-02T10:24:05Z</time>
      </trkpt>
      <trkpt lat="46.201939266175032" lon="10.568503830581903">
        <ele>2414.9699999999998</ele>
        <time>2015-08-02T10:24:09Z</time>
      </trkpt>
      <trkpt lat="46.20195141993463" lon="10.568643305450678">
        <ele>2415.4499999999998</ele>
        <time>2015-08-02T10:24:20Z</time>
      </trkpt>
      <trkpt lat="46.201952006667852" lon="10.568708097562194">
        <ele>2415.9299999999998</ele>
        <time>2015-08-02T10:24:25Z</time>
      </trkpt>
      <trkpt lat="46.201946055516601" lon="10.568778421729803">
        <ele>2416.4099999999999</ele>
        <time>2015-08-02T10:24:31Z</time>
      </trkpt>
      <trkpt lat="46.201967261731625" lon="10.568880429491401">
        <ele>2416.8899999999999</ele>
        <time>2015-08-02T10:24:41Z</time>
      </trkpt>
      <trkpt lat="46.201997604221106" lon="10.568938516080379">
        <ele>2417.8499999999999</ele>
        <time>2015-08-02T10:24:47Z</time>
      </trkpt>
      <trkpt lat="46.202040854841471" lon="10.5690548568964">
        <ele>2418.8099999999999</ele>
        <time>2015-08-02T10:24:58Z</time>
      </trkpt>
      <trkpt lat="46.202078154310584" lon="10.569082014262676">
        <ele>2419.7800000000002</ele>
        <time>2015-08-02T10:25:06Z</time>
      </trkpt>
      <trkpt lat="46.202118638902903" lon="10.569096514955163">
        <ele>2421.6999999999998</ele>
        <time>2015-08-02T10:25:14Z</time>
      </trkpt>
      <trkpt lat="46.202153256163001" lon="10.569130964577198">
        <ele>2422.6599999999999</ele>
        <time>2015-08-02T10:25:23Z</time>
      </trkpt>
      <trkpt lat="46.202168175950646" lon="10.569204306229949">
        <ele>2424.0999999999999</ele>
        <time>2015-08-02T10:25:32Z</time>
      </trkpt>
      <trkpt lat="46.202195500954986" lon="10.569292400032282">
        <ele>2425.0599999999999</ele>
        <time>2015-08-02T10:25:44Z</time>
      </trkpt>
      <trkpt lat="46.202187370508909" lon="10.569340763613582">
        <ele>2426.02</ele>
        <time>2015-08-02T10:25:50Z</time>
      </trkpt>
      <trkpt lat="46.20219768024981" lon="10.569441681727767">
        <ele>2426.9899999999998</ele>
        <time>2015-08-02T10:26:00Z</time>
      </trkpt>
      <trkpt lat="46.20220941491425" lon="10.569472024217248">
        <ele>2427.4699999999998</ele>
        <time>2015-08-02T10:26:03Z</time>
      </trkpt>
      <trkpt lat="46.202195584774017" lon="10.569558693096042">
        <ele>2428.4299999999998</ele>
        <time>2015-08-02T10:26:12Z</time>
      </trkpt>
      <trkpt lat="46.202235231176019" lon="10.569634884595871">
        <ele>2429.3899999999999</ele>
        <time>2015-08-02T10:26:22Z</time>
      </trkpt>
      <trkpt lat="46.202243110165" lon="10.569741502404213">
        <ele>2430.3499999999999</ele>
        <time>2015-08-02T10:26:32Z</time>
      </trkpt>
      <trkpt lat="46.202242439612746" lon="10.569839989766479">
        <ele>2431.3099999999999</ele>
        <time>2015-08-02T10:26:41Z</time>
      </trkpt>
      <trkpt lat="46.202269345521927" lon="10.569937974214554">
        <ele>2432.27</ele>
        <time>2015-08-02T10:26:51Z</time>
      </trkpt>
      <trkpt lat="46.202331623062491" lon="10.569968987256289">
        <ele>2431.79</ele>
        <time>2015-08-02T10:27:01Z</time>
      </trkpt>
      <trkpt lat="46.202349057421088" lon="10.569977201521397">
        <ele>2432.27</ele>
        <time>2015-08-02T10:27:04Z</time>
      </trkpt>
      <trkpt lat="46.202406892552972" lon="10.570068815723062">
        <ele>2433.23</ele>
        <time>2015-08-02T10:27:15Z</time>
      </trkpt>
      <trkpt lat="46.202425751835108" lon="10.570096978917718">
        <ele>2433.71</ele>
        <time>2015-08-02T10:27:19Z</time>
      </trkpt>
      <trkpt lat="46.202475791797042" lon="10.570159507915378">
        <ele>2434.1999999999998</ele>
        <time>2015-08-02T10:27:29Z</time>
      </trkpt>
      <trkpt lat="46.202496578916907" lon="10.570213319733739">
        <ele>2435.1599999999999</ele>
        <time>2015-08-02T10:27:40Z</time>
      </trkpt>
      <trkpt lat="46.202517868950963" lon="10.570269143208861">
        <ele>2436.1199999999999</ele>
        <time>2015-08-02T10:27:49Z</time>
      </trkpt>
      <trkpt lat="46.202579811215401" lon="10.570276603102684">
        <ele>2438.04</ele>
        <time>2015-08-02T10:27:59Z</time>
      </trkpt>
      <trkpt lat="46.202591126784682" lon="10.570322955027223">
        <ele>2439.48</ele>
        <time>2015-08-02T10:28:08Z</time>
      </trkpt>
      <trkpt lat="46.202544942498207" lon="10.570382298901677">
        <ele>2441.4099999999999</ele>
        <time>2015-08-02T10:28:16Z</time>
      </trkpt>
      <trkpt lat="46.202500015497208" lon="10.570417083799839">
        <ele>2441.8899999999999</ele>
        <time>2015-08-02T10:28:22Z</time>
      </trkpt>
      <trkpt lat="46.202465984970331" lon="10.570492604747415">
        <ele>2443.8099999999999</ele>
        <time>2015-08-02T10:28:34Z</time>
      </trkpt>
      <trkpt lat="46.202506637200713" lon="10.570574412122369">
        <ele>2443.8099999999999</ele>
        <time>2015-08-02T10:28:44Z</time>
      </trkpt>
      <trkpt lat="46.202482581138611" lon="10.570675078779459">
        <ele>2444.77</ele>
        <time>2015-08-02T10:28:53Z</time>
      </trkpt>
      <trkpt lat="46.20247763581574" lon="10.570717323571444">
        <ele>2445.73</ele>
        <time>2015-08-02T10:28:59Z</time>
      </trkpt>
      <trkpt lat="46.202455759048462" lon="10.570822767913342">
        <ele>2447.1700000000001</ele>
        <time>2015-08-02T10:29:09Z</time>
      </trkpt>
      <trkpt lat="46.202454753220081" lon="10.570832910016179">
        <ele>2447.1700000000001</ele>
        <time>2015-08-02T10:29:10Z</time>
      </trkpt>
      <trkpt lat="46.202437821775675" lon="10.570881776511669">
        <ele>2447.6500000000001</ele>
        <time>2015-08-02T10:29:15Z</time>
      </trkpt>
      <trkpt lat="46.202428266406059" lon="10.57091505266726">
        <ele>2448.1300000000001</ele>
        <time>2015-08-02T10:29:18Z</time>
      </trkpt>
      <trkpt lat="46.202412592247128" lon="10.571017395704985">
        <ele>2449.0999999999999</ele>
        <time>2015-08-02T10:29:28Z</time>
      </trkpt>
      <trkpt lat="46.202449053525925" lon="10.571046145632863">
        <ele>2449.5799999999999</ele>
        <time>2015-08-02T10:29:36Z</time>
      </trkpt>
      <trkpt lat="46.202463218942285" lon="10.571055198088288">
        <ele>2450.0599999999999</ele>
        <time>2015-08-02T10:29:39Z</time>
      </trkpt>
      <trkpt lat="46.202485766261816" lon="10.57108998298645">
        <ele>2451.98</ele>
        <time>2015-08-02T10:29:48Z</time>
      </trkpt>
      <trkpt lat="46.202475624158978" lon="10.571148907765746">
        <ele>2453.4200000000001</ele>
        <time>2015-08-02T10:29:58Z</time>
      </trkpt>
      <trkpt lat="46.20245223864913" lon="10.57124437764287">
        <ele>2452.9400000000001</ele>
        <time>2015-08-02T10:30:09Z</time>
      </trkpt>
      <trkpt lat="46.202465398237109" lon="10.571284610778093">
        <ele>2452.46</ele>
        <time>2015-08-02T10:30:19Z</time>
      </trkpt>
      <trkpt lat="46.202466068789363" lon="10.571304559707642">
        <ele>2452.46</ele>
        <time>2015-08-02T10:30:34Z</time>
      </trkpt>
      <trkpt lat="46.202474618330598" lon="10.57132258079946">
        <ele>2452.46</ele>
        <time>2015-08-02T10:30:50Z</time>
      </trkpt>
      <trkpt lat="46.2024503108114" lon="10.571360886096954">
        <ele>2452.46</ele>
        <time>2015-08-02T10:31:06Z</time>
      </trkpt>
      <trkpt lat="46.202419046312571" lon="10.57140220887959">
        <ele>2452.46</ele>
        <time>2015-08-02T10:31:28Z</time>
      </trkpt>
      <trkpt lat="46.202451987192035" lon="10.571389552205801">
        <ele>2452.46</ele>
        <time>2015-08-02T10:31:50Z</time>
      </trkpt>
      <trkpt lat="46.202457938343287" lon="10.571323586627841">
        <ele>2452.46</ele>
        <time>2015-08-02T10:32:15Z</time>
      </trkpt>
      <trkpt lat="46.202485179528594" lon="10.571334566920996">
        <ele>2452.46</ele>
        <time>2015-08-02T10:32:38Z</time>
      </trkpt>
      <trkpt lat="46.202487694099545" lon="10.571339093148708">
        <ele>2452.9400000000001</ele>
        <time>2015-08-02T10:33:05Z</time>
      </trkpt>
      <trkpt lat="46.202505044639111" lon="10.571337835863233">
        <ele>2452.9400000000001</ele>
        <time>2015-08-02T10:33:26Z</time>
      </trkpt>
      <trkpt lat="46.202511582523584" lon="10.571292070671916">
        <ele>2452.9400000000001</ele>
        <time>2015-08-02T10:33:41Z</time>
      </trkpt>
      <trkpt lat="46.202513258904219" lon="10.571293663233519">
        <ele>2452.9400000000001</ele>
        <time>2015-08-02T10:33:43Z</time>
      </trkpt>
      <trkpt lat="46.202428517863154" lon="10.571290059015155">
        <ele>2452.9400000000001</ele>
        <time>2015-08-02T10:33:56Z</time>
      </trkpt>
      <trkpt lat="46.202440755441785" lon="10.57129961438477">
        <ele>2453.4200000000001</ele>
        <time>2015-08-02T10:34:09Z</time>
      </trkpt>
      <trkpt lat="46.202431619167328" lon="10.571309924125671">
        <ele>2453.4200000000001</ele>
        <time>2015-08-02T10:34:39Z</time>
      </trkpt>
      <trkpt lat="46.202428685501218" lon="10.571318725124002">
        <ele>2452.9400000000001</ele>
        <time>2015-08-02T10:34:59Z</time>
      </trkpt>
      <trkpt lat="46.202460117638111" lon="10.57132501155138">
        <ele>2452.46</ele>
        <time>2015-08-02T10:35:19Z</time>
      </trkpt>
      <trkpt lat="46.202462296932936" lon="10.571363316848874">
        <ele>2452.9400000000001</ele>
        <time>2015-08-02T10:35:47Z</time>
      </trkpt>
      <trkpt lat="46.202448885887861" lon="10.571352252736688">
        <ele>2452.9400000000001</ele>
        <time>2015-08-02T10:36:12Z</time>
      </trkpt>
      <trkpt lat="46.202451232820749" lon="10.571371866390109">
        <ele>2452.9400000000001</ele>
        <time>2015-08-02T10:36:40Z</time>
      </trkpt>
      <trkpt lat="46.202500099316239" lon="10.571388294920325">
        <ele>2452.9400000000001</ele>
        <time>2015-08-02T10:37:08Z</time>
      </trkpt>
      <trkpt lat="46.202443353831768" lon="10.571368262171745">
        <ele>2452.9400000000001</ele>
        <time>2015-08-02T10:37:39Z</time>
      </trkpt>
      <trkpt lat="46.202451400458813" lon="10.571365412324667">
        <ele>2453.4200000000001</ele>
        <time>2015-08-02T10:38:04Z</time>
      </trkpt>
      <trkpt lat="46.20248157531023" lon="10.571333477273583">
        <ele>2453.4200000000001</ele>
        <time>2015-08-02T10:38:32Z</time>
      </trkpt>
      <trkpt lat="46.202487275004387" lon="10.571343367919326">
        <ele>2453.4200000000001</ele>
        <time>2015-08-02T10:38:54Z</time>
      </trkpt>
      <trkpt lat="46.202501775696874" lon="10.57134211063385">
        <ele>2452.9400000000001</ele>
        <time>2015-08-02T10:39:21Z</time>
      </trkpt>
      <trkpt lat="46.202486772090197" lon="10.571349402889609">
        <ele>2453.4200000000001</ele>
        <time>2015-08-02T10:39:46Z</time>
      </trkpt>
      <trkpt lat="46.202437654137611" lon="10.571308834478259">
        <ele>2453.9000000000001</ele>
        <time>2015-08-02T10:39:59Z</time>
      </trkpt>
      <trkpt lat="46.202452573925257" lon="10.571325682103634">
        <ele>2453.4200000000001</ele>
        <time>2015-08-02T10:40:17Z</time>
      </trkpt>
      <trkpt lat="46.202442683279514" lon="10.571392402052879">
        <ele>2453.4200000000001</ele>
        <time>2015-08-02T10:40:32Z</time>
      </trkpt>
      <trkpt lat="46.202460620552301" lon="10.57138217613101">
        <ele>2453.4200000000001</ele>
        <time>2015-08-02T10:40:55Z</time>
      </trkpt>
      <trkpt lat="46.202454837039113" lon="10.571385780349374">
        <ele>2453.4200000000001</ele>
        <time>2015-08-02T10:41:22Z</time>
      </trkpt>
      <trkpt lat="46.202452909201384" lon="10.571351833641529">
        <ele>2453.4200000000001</ele>
        <time>2015-08-02T10:41:43Z</time>
      </trkpt>
      <trkpt lat="46.202468331903219" lon="10.571355437859893">
        <ele>2453.9000000000001</ele>
        <time>2015-08-02T10:42:08Z</time>
      </trkpt>
      <trkpt lat="46.20245860889554" lon="10.571341942995787">
        <ele>2453.4200000000001</ele>
        <time>2015-08-02T10:42:28Z</time>
      </trkpt>
      <trkpt lat="46.202447460964322" lon="10.57131327688694">
        <ele>2455.8200000000002</ele>
        <time>2015-08-02T10:42:38Z</time>
      </trkpt>
      <trkpt lat="46.202390296384692" lon="10.57137337513268">
        <ele>2453.9000000000001</ele>
        <time>2015-08-02T10:43:03Z</time>
      </trkpt>
      <trkpt lat="46.202309997752309" lon="10.571452835574746">
        <ele>2453.9000000000001</ele>
        <time>2015-08-02T10:43:31Z</time>
      </trkpt>
      <trkpt lat="46.202352996915579" lon="10.571420146152377">
        <ele>2453.9000000000001</ele>
        <time>2015-08-02T10:44:05Z</time>
      </trkpt>
      <trkpt lat="46.202341429889202" lon="10.571347726508975">
        <ele>2454.3800000000001</ele>
        <time>2015-08-02T10:44:36Z</time>
      </trkpt>
      <trkpt lat="46.20235987007618" lon="10.571389719843864">
        <ele>2454.3800000000001</ele>
        <time>2015-08-02T10:45:08Z</time>
      </trkpt>
      <trkpt lat="46.202422985807061" lon="10.571378488093615">
        <ele>2454.3800000000001</ele>
        <time>2015-08-02T10:45:35Z</time>
      </trkpt>
      <trkpt lat="46.202426003292203" lon="10.571346636861563">
        <ele>2454.3800000000001</ele>
        <time>2015-08-02T10:46:02Z</time>
      </trkpt>
      <trkpt lat="46.202397001907229" lon="10.5713758058846">
        <ele>2453.9000000000001</ele>
        <time>2015-08-02T10:46:33Z</time>
      </trkpt>
      <trkpt lat="46.202431619167328" lon="10.571373458951712">
        <ele>2453.9000000000001</ele>
        <time>2015-08-02T10:47:00Z</time>
      </trkpt>
      <trkpt lat="46.202429858967662" lon="10.571320233866572">
        <ele>2453.9000000000001</ele>
        <time>2015-08-02T10:47:30Z</time>
      </trkpt>
      <trkpt lat="46.20232667773962" lon="10.571490721777081">
        <ele>2453.4200000000001</ele>
        <time>2015-08-02T10:48:00Z</time>
      </trkpt>
      <trkpt lat="46.202361714094877" lon="10.571482004597783">
        <ele>2453.4200000000001</ele>
        <time>2015-08-02T10:48:28Z</time>
      </trkpt>
      <trkpt lat="46.202366659417748" lon="10.57143883779645">
        <ele>2453.4200000000001</ele>
        <time>2015-08-02T10:48:56Z</time>
      </trkpt>
      <trkpt lat="46.202413011342287" lon="10.571391563862562">
        <ele>2453.4200000000001</ele>
        <time>2015-08-02T10:49:21Z</time>
      </trkpt>
      <trkpt lat="46.202371185645461" lon="10.571398520842195">
        <ele>2453.4200000000001</ele>
        <time>2015-08-02T10:49:50Z</time>
      </trkpt>
      <trkpt lat="46.202417956665158" lon="10.571319060400128">
        <ele>2453.4200000000001</ele>
        <time>2015-08-02T10:50:20Z</time>
      </trkpt>
      <trkpt lat="46.202400773763657" lon="10.57141344062984">
        <ele>2453.4200000000001</ele>
        <time>2015-08-02T10:50:50Z</time>
      </trkpt>
      <trkpt lat="46.202412089332938" lon="10.571456188336015">
        <ele>2453.4200000000001</ele>
        <time>2015-08-02T10:51:14Z</time>
      </trkpt>
      <trkpt lat="46.202398343011737" lon="10.57142567820847">
        <ele>2453.4200000000001</ele>
        <time>2015-08-02T10:51:32Z</time>
      </trkpt>
      <trkpt lat="46.202400522306561" lon="10.571443615481257">
        <ele>2453.4200000000001</ele>
        <time>2015-08-02T10:51:55Z</time>
      </trkpt>
      <trkpt lat="46.202410580590367" lon="10.571409249678254">
        <ele>2453.4200000000001</ele>
        <time>2015-08-02T10:52:27Z</time>
      </trkpt>
      <trkpt lat="46.202419381588697" lon="10.571399861946702">
        <ele>2453.4200000000001</ele>
        <time>2015-08-02T10:52:54Z</time>
      </trkpt>
      <trkpt lat="46.202403204515576" lon="10.571409417316318">
        <ele>2453.4200000000001</ele>
        <time>2015-08-02T10:53:17Z</time>
      </trkpt>
      <trkpt lat="46.202409490942955" lon="10.571387456730008">
        <ele>2453.9000000000001</ele>
        <time>2015-08-02T10:53:45Z</time>
      </trkpt>
      <trkpt lat="46.202396163716912" lon="10.571427438408136">
        <ele>2453.9000000000001</ele>
        <time>2015-08-02T10:54:10Z</time>
      </trkpt>
      <trkpt lat="46.202411083504558" lon="10.571418888866901">
        <ele>2453.9000000000001</ele>
        <time>2015-08-02T10:54:42Z</time>
      </trkpt>
      <trkpt lat="46.202405132353306" lon="10.571423415094614">
        <ele>2453.9000000000001</ele>
        <time>2015-08-02T10:55:09Z</time>
      </trkpt>
      <trkpt lat="46.202442850917578" lon="10.571351079270244">
        <ele>2454.3800000000001</ele>
        <time>2015-08-02T10:55:34Z</time>
      </trkpt>
      <trkpt lat="46.202419130131602" lon="10.571418553590775">
        <ele>2453.9000000000001</ele>
        <time>2015-08-02T10:56:04Z</time>
      </trkpt>
      <trkpt lat="46.202494315803051" lon="10.571342781186104">
        <ele>2454.3800000000001</ele>
        <time>2015-08-02T10:56:37Z</time>
      </trkpt>
      <trkpt lat="46.202479982748628" lon="10.57137873955071">
        <ele>2453.9000000000001</ele>
        <time>2015-08-02T10:57:09Z</time>
      </trkpt>
      <trkpt lat="46.202461374923587" lon="10.571357114240527">
        <ele>2453.9000000000001</ele>
        <time>2015-08-02T10:57:38Z</time>
      </trkpt>
      <trkpt lat="46.202445533126593" lon="10.57132258079946">
        <ele>2453.9000000000001</ele>
        <time>2015-08-02T10:58:11Z</time>
      </trkpt>
      <trkpt lat="46.202441761270165" lon="10.571381170302629">
        <ele>2453.9000000000001</ele>
        <time>2015-08-02T10:58:41Z</time>
      </trkpt>
      <trkpt lat="46.202457519248128" lon="10.571387372910976">
        <ele>2453.9000000000001</ele>
        <time>2015-08-02T10:59:04Z</time>
      </trkpt>
      <trkpt lat="46.202421057969332" lon="10.571454595774412">
        <ele>2453.9000000000001</ele>
        <time>2015-08-02T10:59:33Z</time>
      </trkpt>
      <trkpt lat="46.202433379366994" lon="10.571446549147367">
        <ele>2453.9000000000001</ele>
        <time>2015-08-02T10:59:59Z</time>
      </trkpt>
      <trkpt lat="46.202396750450134" lon="10.571425426751375">
        <ele>2453.9000000000001</ele>
        <time>2015-08-02T11:00:30Z</time>
      </trkpt>
      <trkpt lat="46.202409993857145" lon="10.571400616317987">
        <ele>2453.9000000000001</ele>
        <time>2015-08-02T11:00:59Z</time>
      </trkpt>
      <trkpt lat="46.202406138181686" lon="10.571398185566068">
        <ele>2453.9000000000001</ele>
        <time>2015-08-02T11:01:24Z</time>
      </trkpt>
      <trkpt lat="46.202384261414409" lon="10.571439927443862">
        <ele>2453.9000000000001</ele>
        <time>2015-08-02T11:01:54Z</time>
      </trkpt>
      <trkpt lat="46.202422482892871" lon="10.57143934071064">
        <ele>2453.9000000000001</ele>
        <time>2015-08-02T11:02:28Z</time>
      </trkpt>
      <trkpt lat="46.20243463665247" lon="10.571390893310308">
        <ele>2454.3800000000001</ele>
        <time>2015-08-02T11:02:59Z</time>
      </trkpt>
      <trkpt lat="46.20244394056499" lon="10.571369351819158">
        <ele>2453.9000000000001</ele>
        <time>2015-08-02T11:03:30Z</time>
      </trkpt>
      <trkpt lat="46.202450562268496" lon="10.57139340788126">
        <ele>2453.9000000000001</ele>
        <time>2015-08-02T11:03:59Z</time>
      </trkpt>
      <trkpt lat="46.202453160658479" lon="10.571471443399787">
        <ele>2453.9000000000001</ele>
        <time>2015-08-02T11:04:26Z</time>
      </trkpt>
      <trkpt lat="46.202456681057811" lon="10.571400532498956">
        <ele>2454.3800000000001</ele>
        <time>2015-08-02T11:04:56Z</time>
      </trkpt>
      <trkpt lat="46.202424746006727" lon="10.5714051425457">
        <ele>2454.3800000000001</ele>
        <time>2015-08-02T11:05:32Z</time>
      </trkpt>
      <trkpt lat="46.202427260577679" lon="10.571407657116652">
        <ele>2454.3800000000001</ele>
        <time>2015-08-02T11:06:03Z</time>
      </trkpt>
      <trkpt lat="46.202397421002388" lon="10.571476807817817">
        <ele>2454.3800000000001</ele>
        <time>2015-08-02T11:06:37Z</time>
      </trkpt>
      <trkpt lat="46.202394068241119" lon="10.571446716785431">
        <ele>2454.3800000000001</ele>
        <time>2015-08-02T11:07:10Z</time>
      </trkpt>
      <trkpt lat="46.202392810955644" lon="10.571447554975748">
        <ele>2454.3800000000001</ele>
        <time>2015-08-02T11:07:40Z</time>
      </trkpt>
      <trkpt lat="46.20237504132092" lon="10.571486279368401">
        <ele>2454.3800000000001</ele>
        <time>2015-08-02T11:08:09Z</time>
      </trkpt>
      <trkpt lat="46.202392810955644" lon="10.571430791169405">
        <ele>2454.3800000000001</ele>
        <time>2015-08-02T11:08:35Z</time>
      </trkpt>
      <trkpt lat="46.202432457357645" lon="10.571455182507634">
        <ele>2454.8600000000001</ele>
        <time>2015-08-02T11:09:05Z</time>
      </trkpt>
      <trkpt lat="46.202436983585358" lon="10.571493487805128">
        <ele>2454.8600000000001</ele>
        <time>2015-08-02T11:09:33Z</time>
      </trkpt>
      <trkpt lat="46.202450562268496" lon="10.571440178900957">
        <ele>2454.8600000000001</ele>
        <time>2015-08-02T11:10:01Z</time>
      </trkpt>
      <trkpt lat="46.202472355216742" lon="10.57134697213769">
        <ele>2454.8600000000001</ele>
        <time>2015-08-02T11:10:28Z</time>
      </trkpt>
      <trkpt lat="46.202476546168327" lon="10.571318306028843">
        <ele>2454.8600000000001</ele>
        <time>2015-08-02T11:11:01Z</time>
      </trkpt>
      <trkpt lat="46.202462967485189" lon="10.571353677660227">
        <ele>2454.3800000000001</ele>
        <time>2015-08-02T11:11:30Z</time>
      </trkpt>
      <trkpt lat="46.202439749613404" lon="10.57131377980113">
        <ele>2454.3800000000001</ele>
        <time>2015-08-02T11:12:03Z</time>
      </trkpt>
      <trkpt lat="46.202474534511566" lon="10.571263572201133">
        <ele>2454.3800000000001</ele>
        <time>2015-08-02T11:12:37Z</time>
      </trkpt>
      <trkpt lat="46.202418794855475" lon="10.571330459788442">
        <ele>2453.9000000000001</ele>
        <time>2015-08-02T11:13:08Z</time>
      </trkpt>
      <trkpt lat="46.202433295547962" lon="10.571343451738358">
        <ele>2453.9000000000001</ele>
        <time>2015-08-02T11:13:44Z</time>
      </trkpt>
      <trkpt lat="46.202430026605725" lon="10.571314701810479">
        <ele>2453.4200000000001</ele>
        <time>2015-08-02T11:14:22Z</time>
      </trkpt>
      <trkpt lat="46.202461710199714" lon="10.571321239694953">
        <ele>2453.4200000000001</ele>
        <time>2015-08-02T11:14:57Z</time>
      </trkpt>
      <trkpt lat="46.202455339953303" lon="10.571309085935354">
        <ele>2452.9400000000001</ele>
        <time>2015-08-02T11:15:30Z</time>
      </trkpt>
      <trkpt lat="46.202432038262486" lon="10.571287544444203">
        <ele>2452.9400000000001</ele>
        <time>2015-08-02T11:16:02Z</time>
      </trkpt>
      <trkpt lat="46.202466236427426" lon="10.571329956874251">
        <ele>2452.9400000000001</ele>
        <time>2015-08-02T11:16:41Z</time>
      </trkpt>
      <trkpt lat="46.202462883666158" lon="10.571316797286272">
        <ele>2452.46</ele>
        <time>2015-08-02T11:17:13Z</time>
      </trkpt>
      <trkpt lat="46.202412759885192" lon="10.571329370141029">
        <ele>2452.46</ele>
        <time>2015-08-02T11:17:43Z</time>
      </trkpt>
      <trkpt lat="46.202459866181016" lon="10.571342948824167">
        <ele>2452.46</ele>
        <time>2015-08-02T11:18:12Z</time>
      </trkpt>
      <trkpt lat="46.202426170930266" lon="10.571352085098624">
        <ele>2451.98</ele>
        <time>2015-08-02T11:18:46Z</time>
      </trkpt>
      <trkpt lat="46.20241510681808" lon="10.571338841691613">
        <ele>2451.98</ele>
        <time>2015-08-02T11:19:16Z</time>
      </trkpt>
      <trkpt lat="46.20243463665247" lon="10.571352671831846">
        <ele>2451.98</ele>
        <time>2015-08-02T11:19:46Z</time>
      </trkpt>
      <trkpt lat="46.202455591410398" lon="10.571357365697622">
        <ele>2451.98</ele>
        <time>2015-08-02T11:20:20Z</time>
      </trkpt>
      <trkpt lat="46.202426170930266" lon="10.571372117847204">
        <ele>2451.98</ele>
        <time>2015-08-02T11:20:52Z</time>
      </trkpt>
      <trkpt lat="46.202425081282854" lon="10.571352755650878">
        <ele>2451.98</ele>
        <time>2015-08-02T11:21:23Z</time>
      </trkpt>
      <trkpt lat="46.202411837875843" lon="10.571384942159057">
        <ele>2451.98</ele>
        <time>2015-08-02T11:21:57Z</time>
      </trkpt>
      <trkpt lat="46.202385686337948" lon="10.57141344062984">
        <ele>2451.98</ele>
        <time>2015-08-02T11:22:26Z</time>
      </trkpt>
      <trkpt lat="46.202382920309901" lon="10.571420062333345">
        <ele>2451.98</ele>
        <time>2015-08-02T11:22:54Z</time>
      </trkpt>
      <trkpt lat="46.202481742948294" lon="10.571343200281262">
        <ele>2451.98</ele>
        <time>2015-08-02T11:23:21Z</time>
      </trkpt>
      <trkpt lat="46.202477468177676" lon="10.571315204724669">
        <ele>2451.98</ele>
        <time>2015-08-02T11:23:53Z</time>
      </trkpt>
      <trkpt lat="46.202439246699214" lon="10.571357030421495">
        <ele>2451.98</ele>
        <time>2015-08-02T11:24:26Z</time>
      </trkpt>
      <trkpt lat="46.202461961656809" lon="10.571287460625172">
        <ele>2451.98</ele>
        <time>2015-08-02T11:24:53Z</time>
      </trkpt>
      <trkpt lat="46.202454920858145" lon="10.571303302422166">
        <ele>2451.98</ele>
        <time>2015-08-02T11:25:32Z</time>
      </trkpt>
      <trkpt lat="46.202470762655139" lon="10.571285868063569">
        <ele>2451.98</ele>
        <time>2015-08-02T11:26:03Z</time>
      </trkpt>
      <trkpt lat="46.202469253912568" lon="10.571268266066909">
        <ele>2451.5</ele>
        <time>2015-08-02T11:26:25Z</time>
      </trkpt>
      <trkpt lat="46.202520886436105" lon="10.571290897205472">
        <ele>2451.5</ele>
        <time>2015-08-02T11:26:49Z</time>
      </trkpt>
      <trkpt lat="46.202528346329927" lon="10.571237504482269">
        <ele>2451.5</ele>
        <time>2015-08-02T11:27:13Z</time>
      </trkpt>
      <trkpt lat="46.202441761270165" lon="10.571252340450883">
        <ele>2451.98</ele>
        <time>2015-08-02T11:27:37Z</time>
      </trkpt>
      <trkpt lat="46.202452825382352" lon="10.571283856406808">
        <ele>2451.5</ele>
        <time>2015-08-02T11:27:58Z</time>
      </trkpt>
      <trkpt lat="46.202477049082518" lon="10.571254100650549">
        <ele>2451.5</ele>
        <time>2015-08-02T11:28:18Z</time>
      </trkpt>
      <trkpt lat="46.202508062124252" lon="10.571246556937695">
        <ele>2446.21</ele>
        <time>2015-08-02T11:28:40Z</time>
      </trkpt>
      <trkpt lat="46.202506301924586" lon="10.571248065680265">
        <ele>2451.5</ele>
        <time>2015-08-02T11:28:41Z</time>
      </trkpt>
      <trkpt lat="46.202501021325588" lon="10.571242952719331">
        <ele>2451.5</ele>
        <time>2015-08-02T11:29:05Z</time>
      </trkpt>
      <trkpt lat="46.202440839260817" lon="10.571266673505306">
        <ele>2451.02</ele>
        <time>2015-08-02T11:29:34Z</time>
      </trkpt>
      <trkpt lat="46.202445197850466" lon="10.571288047358394">
        <ele>2451.02</ele>
        <time>2015-08-02T11:30:02Z</time>
      </trkpt>
      <trkpt lat="46.20245760306716" lon="10.571256782859564">
        <ele>2451.02</ele>
        <time>2015-08-02T11:30:28Z</time>
      </trkpt>
      <trkpt lat="46.202488113194704" lon="10.571250496432185">
        <ele>2451.02</ele>
        <time>2015-08-02T11:30:53Z</time>
      </trkpt>
      <trkpt lat="46.202481407672167" lon="10.571250915527344">
        <ele>2451.02</ele>
        <time>2015-08-02T11:31:21Z</time>
      </trkpt>
      <trkpt lat="46.20252356864512" lon="10.571267595514655">
        <ele>2451.02</ele>
        <time>2015-08-02T11:31:49Z</time>
      </trkpt>
      <trkpt lat="46.2024727743119" lon="10.57128394022584">
        <ele>2451.02</ele>
        <time>2015-08-02T11:32:15Z</time>
      </trkpt>
      <trkpt lat="46.202442096546292" lon="10.571298021823168">
        <ele>2451.02</ele>
        <time>2015-08-02T11:32:41Z</time>
      </trkpt>
      <trkpt lat="46.202431032434106" lon="10.571332722902298">
        <ele>2451.02</ele>
        <time>2015-08-02T11:33:09Z</time>
      </trkpt>
      <trkpt lat="46.202456932514906" lon="10.571338171139359">
        <ele>2450.54</ele>
        <time>2015-08-02T11:33:40Z</time>
      </trkpt>
      <trkpt lat="46.202458525076509" lon="10.571230044588447">
        <ele>2450.54</ele>
        <time>2015-08-02T11:34:06Z</time>
      </trkpt>
      <trkpt lat="46.202428601682186" lon="10.5712307151407">
        <ele>2450.54</ele>
        <time>2015-08-02T11:34:36Z</time>
      </trkpt>
      <trkpt lat="46.202453495934606" lon="10.571228787302971">
        <ele>2451.02</ele>
        <time>2015-08-02T11:35:04Z</time>
      </trkpt>
      <trkpt lat="46.202457016333938" lon="10.5712497420609">
        <ele>2450.54</ele>
        <time>2015-08-02T11:35:38Z</time>
      </trkpt>
      <trkpt lat="46.202472355216742" lon="10.571206323802471">
        <ele>2450.0599999999999</ele>
        <time>2015-08-02T11:36:09Z</time>
      </trkpt>
      <trkpt lat="46.202435726299882" lon="10.571245132014155">
        <ele>2450.0599999999999</ele>
        <time>2015-08-02T11:36:38Z</time>
      </trkpt>
      <trkpt lat="46.202475037425756" lon="10.571228703483939">
        <ele>2450.0599999999999</ele>
        <time>2015-08-02T11:37:09Z</time>
      </trkpt>
      <trkpt lat="46.202479647472501" lon="10.571240773424506">
        <ele>2450.54</ele>
        <time>2015-08-02T11:37:26Z</time>
      </trkpt>
      <trkpt lat="46.202482497319579" lon="10.571246221661568">
        <ele>2450.54</ele>
        <time>2015-08-02T11:37:47Z</time>
      </trkpt>
      <trkpt lat="46.202509151771665" lon="10.571250831708312">
        <ele>2450.0599999999999</ele>
        <time>2015-08-02T11:38:11Z</time>
      </trkpt>
      <trkpt lat="46.202493896707892" lon="10.571256363764405">
        <ele>2450.0599999999999</ele>
        <time>2015-08-02T11:38:38Z</time>
      </trkpt>
      <trkpt lat="46.20246740989387" lon="10.571241276338696">
        <ele>2450.0599999999999</ele>
        <time>2015-08-02T11:39:00Z</time>
      </trkpt>
      <trkpt lat="46.202473109588027" lon="10.571251166984439">
        <ele>2450.0599999999999</ele>
        <time>2015-08-02T11:39:08Z</time>
      </trkpt>
      <trkpt lat="46.202477971091866" lon="10.571268685162067">
        <ele>2449.5799999999999</ele>
        <time>2015-08-02T11:39:19Z</time>
      </trkpt>
      <trkpt lat="46.202470511198044" lon="10.571260554715991">
        <ele>2450.0599999999999</ele>
        <time>2015-08-02T11:39:40Z</time>
      </trkpt>
      <trkpt lat="46.202477300539613" lon="10.57126248255372">
        <ele>2449.5799999999999</ele>
        <time>2015-08-02T11:39:57Z</time>
      </trkpt>
      <trkpt lat="46.202453998848796" lon="10.571274133399129">
        <ele>2450.0599999999999</ele>
        <time>2015-08-02T11:40:22Z</time>
      </trkpt>
      <trkpt lat="46.202447796240449" lon="10.571269020438194">
        <ele>2450.0599999999999</ele>
        <time>2015-08-02T11:40:45Z</time>
      </trkpt>
      <trkpt lat="46.20244050398469" lon="10.571275809779763">
        <ele>2450.0599999999999</ele>
        <time>2015-08-02T11:41:10Z</time>
      </trkpt>
      <trkpt lat="46.202439581975341" lon="10.571303470060229">
        <ele>2450.0599999999999</ele>
        <time>2015-08-02T11:41:38Z</time>
      </trkpt>
      <trkpt lat="46.202443270012736" lon="10.571303218603134">
        <ele>2450.0599999999999</ele>
        <time>2015-08-02T11:42:06Z</time>
      </trkpt>
      <trkpt lat="46.202434804290533" lon="10.571314031258225">
        <ele>2450.0599999999999</ele>
        <time>2015-08-02T11:42:32Z</time>
      </trkpt>
      <trkpt lat="46.202432960271835" lon="10.571315120905638">
        <ele>2451.02</ele>
        <time>2015-08-02T11:42:40Z</time>
      </trkpt>
      <trkpt lat="46.202430110424757" lon="10.571328029036522">
        <ele>2451.02</ele>
        <time>2015-08-02T11:42:51Z</time>
      </trkpt>
      <trkpt lat="46.202458022162318" lon="10.571335321292281">
        <ele>2451.02</ele>
        <time>2015-08-02T11:43:10Z</time>
      </trkpt>
      <trkpt lat="46.202451232820749" lon="10.571257788687944">
        <ele>2451.5</ele>
        <time>2015-08-02T11:43:19Z</time>
      </trkpt>
      <trkpt lat="46.202472187578678" lon="10.571243036538363">
        <ele>2451.02</ele>
        <time>2015-08-02T11:43:36Z</time>
      </trkpt>
      <trkpt lat="46.202471433207393" lon="10.571255693212152">
        <ele>2450.54</ele>
        <time>2015-08-02T11:43:45Z</time>
      </trkpt>
      <trkpt lat="46.20247327722609" lon="10.571284107863903">
        <ele>2449.5799999999999</ele>
        <time>2015-08-02T11:43:52Z</time>
      </trkpt>
      <trkpt lat="46.202471097931266" lon="10.571302128955722">
        <ele>2449.5799999999999</ele>
        <time>2015-08-02T11:44:11Z</time>
      </trkpt>
      <trkpt lat="46.202473696321249" lon="10.571311181411147">
        <ele>2450.54</ele>
        <time>2015-08-02T11:44:20Z</time>
      </trkpt>
      <trkpt lat="46.202488280832767" lon="10.571331717073917">
        <ele>2450.54</ele>
        <time>2015-08-02T11:44:29Z</time>
      </trkpt>
      <trkpt lat="46.202476713806391" lon="10.57132157497108">
        <ele>2451.02</ele>
        <time>2015-08-02T11:44:40Z</time>
      </trkpt>
      <trkpt lat="46.202469002455473" lon="10.571320066228509">
        <ele>2450.54</ele>
        <time>2015-08-02T11:44:50Z</time>
      </trkpt>
      <trkpt lat="46.202479479834437" lon="10.571286035701632">
        <ele>2450.54</ele>
        <time>2015-08-02T11:45:07Z</time>
      </trkpt>
      <trkpt lat="46.202515019103885" lon="10.571340518072248">
        <ele>2450.54</ele>
        <time>2015-08-02T11:45:18Z</time>
      </trkpt>
      <trkpt lat="46.202519964426756" lon="10.5713533423841">
        <ele>2450.0599999999999</ele>
        <time>2015-08-02T11:45:19Z</time>
      </trkpt>
      <trkpt lat="46.202535470947623" lon="10.571478484198451">
        <ele>2449.5799999999999</ele>
        <time>2015-08-02T11:45:30Z</time>
      </trkpt>
      <trkpt lat="46.202529771253467" lon="10.571495415642858">
        <ele>2449.5799999999999</ele>
        <time>2015-08-02T11:45:37Z</time>
      </trkpt>
      <trkpt lat="46.202522227540612" lon="10.57147747837007">
        <ele>2449.5799999999999</ele>
        <time>2015-08-02T11:45:50Z</time>
      </trkpt>
      <trkpt lat="46.202521054074168" lon="10.571509916335344">
        <ele>2448.6199999999999</ele>
        <time>2015-08-02T11:46:00Z</time>
      </trkpt>
      <trkpt lat="46.202501775696874" lon="10.571595076471567">
        <ele>2448.1300000000001</ele>
        <time>2015-08-02T11:46:12Z</time>
      </trkpt>
      <trkpt lat="46.202477384358644" lon="10.571595830842853">
        <ele>2447.6500000000001</ele>
        <time>2015-08-02T11:46:22Z</time>
      </trkpt>
      <trkpt lat="46.202471517026424" lon="10.571596417576075">
        <ele>2447.6500000000001</ele>
        <time>2015-08-02T11:46:33Z</time>
      </trkpt>
      <trkpt lat="46.202472187578678" lon="10.571616869419813">
        <ele>2447.1700000000001</ele>
        <time>2015-08-02T11:46:37Z</time>
      </trkpt>
      <trkpt lat="46.202443102374673" lon="10.571692222729325">
        <ele>2445.73</ele>
        <time>2015-08-02T11:46:45Z</time>
      </trkpt>
      <trkpt lat="46.202404964715242" lon="10.571783082559705">
        <ele>2445.73</ele>
        <time>2015-08-02T11:46:54Z</time>
      </trkpt>
      <trkpt lat="46.202399181202054" lon="10.571804540231824">
        <ele>2445.73</ele>
        <time>2015-08-02T11:46:56Z</time>
      </trkpt>
      <trkpt lat="46.202309830114245" lon="10.571909146383405">
        <ele>2445.25</ele>
        <time>2015-08-02T11:47:07Z</time>
      </trkpt>
      <trkpt lat="46.202283930033445" lon="10.571978548541665">
        <ele>2445.73</ele>
        <time>2015-08-02T11:47:15Z</time>
      </trkpt>
      <trkpt lat="46.202271608635783" lon="10.572084411978722">
        <ele>2444.29</ele>
        <time>2015-08-02T11:47:25Z</time>
      </trkpt>
      <trkpt lat="46.202277895063162" lon="10.572178456932306">
        <ele>2441.8899999999999</ele>
        <time>2015-08-02T11:47:37Z</time>
      </trkpt>
      <trkpt lat="46.202276051044464" lon="10.572244673967361">
        <ele>2440.9200000000001</ele>
        <time>2015-08-02T11:47:47Z</time>
      </trkpt>
      <trkpt lat="46.202250737696886" lon="10.572319189086556">
        <ele>2439</ele>
        <time>2015-08-02T11:47:58Z</time>
      </trkpt>
      <trkpt lat="46.20223724283278" lon="10.57240485213697">
        <ele>2437.0799999999999</ele>
        <time>2015-08-02T11:48:07Z</time>
      </trkpt>
      <trkpt lat="46.202267417684197" lon="10.572431841865182">
        <ele>2436.1199999999999</ele>
        <time>2015-08-02T11:48:12Z</time>
      </trkpt>
      <trkpt lat="46.202358780428767" lon="10.572448102757335">
        <ele>2435.1599999999999</ele>
        <time>2015-08-02T11:48:23Z</time>
      </trkpt>
      <trkpt lat="46.202399516478181" lon="10.572483809664845">
        <ele>2435.1599999999999</ele>
        <time>2015-08-02T11:48:29Z</time>
      </trkpt>
      <trkpt lat="46.202438492327929" lon="10.572541309520602">
        <ele>2434.1999999999998</ele>
        <time>2015-08-02T11:48:40Z</time>
      </trkpt>
      <trkpt lat="46.202468415722251" lon="10.572569807991385">
        <ele>2432.75</ele>
        <time>2015-08-02T11:48:45Z</time>
      </trkpt>
      <trkpt lat="46.202534046024084" lon="10.572597468271852">
        <ele>2432.27</ele>
        <time>2015-08-02T11:48:52Z</time>
      </trkpt>
      <trkpt lat="46.202594228088856" lon="10.57267164811492">
        <ele>2431.3099999999999</ele>
        <time>2015-08-02T11:49:00Z</time>
      </trkpt>
      <trkpt lat="46.202588025480509" lon="10.57275814935565">
        <ele>2430.3499999999999</ele>
        <time>2015-08-02T11:49:05Z</time>
      </trkpt>
      <trkpt lat="46.202572351321578" lon="10.572811122983694">
        <ele>2429.8699999999999</ele>
        <time>2015-08-02T11:49:09Z</time>
      </trkpt>
      <trkpt lat="46.202586852014065" lon="10.572836855426431">
        <ele>2429.8699999999999</ele>
        <time>2015-08-02T11:49:12Z</time>
      </trkpt>
      <trkpt lat="46.202594731003046" lon="10.572866108268499">
        <ele>2429.3899999999999</ele>
        <time>2015-08-02T11:49:15Z</time>
      </trkpt>
      <trkpt lat="46.202591378241777" lon="10.57300541549921">
        <ele>2429.3899999999999</ele>
        <time>2015-08-02T11:49:25Z</time>
      </trkpt>
      <trkpt lat="46.202585594728589" lon="10.573097616434097">
        <ele>2430.3499999999999</ele>
        <time>2015-08-02T11:49:36Z</time>
      </trkpt>
      <trkpt lat="46.202612752094865" lon="10.573172047734261">
        <ele>2429.3899999999999</ele>
        <time>2015-08-02T11:49:46Z</time>
      </trkpt>
      <trkpt lat="46.202638819813728" lon="10.573196019977331">
        <ele>2428.9099999999999</ele>
        <time>2015-08-02T11:49:54Z</time>
      </trkpt>
      <trkpt lat="46.202723225578666" lon="10.573251256719232">
        <ele>2428.9099999999999</ele>
        <time>2015-08-02T11:50:05Z</time>
      </trkpt>
      <trkpt lat="46.20280746370554" lon="10.573291657492518">
        <ele>2429.8699999999999</ele>
        <time>2015-08-02T11:50:17Z</time>
      </trkpt>
      <trkpt lat="46.202846942469478" lon="10.573352091014385">
        <ele>2430.8299999999999</ele>
        <time>2015-08-02T11:50:29Z</time>
      </trkpt>
      <trkpt lat="46.202916512265801" lon="10.573462564498186">
        <ele>2431.79</ele>
        <time>2015-08-02T11:50:42Z</time>
      </trkpt>
      <trkpt lat="46.202982477843761" lon="10.573521237820387">
        <ele>2433.23</ele>
        <time>2015-08-02T11:50:55Z</time>
      </trkpt>
      <trkpt lat="46.203026650473475" lon="10.573622072115541">
        <ele>2433.71</ele>
        <time>2015-08-02T11:51:06Z</time>
      </trkpt>
      <trkpt lat="46.203084234148264" lon="10.57370463386178">
        <ele>2434.6799999999998</ele>
        <time>2015-08-02T11:51:17Z</time>
      </trkpt>
      <trkpt lat="46.203135279938579" lon="10.573792224749923">
        <ele>2434.6799999999998</ele>
        <time>2015-08-02T11:51:28Z</time>
      </trkpt>
      <trkpt lat="46.203171657398343" lon="10.573881659656763">
        <ele>2435.1599999999999</ele>
        <time>2015-08-02T11:51:36Z</time>
      </trkpt>
      <trkpt lat="46.203229911625385" lon="10.573962042108178">
        <ele>2434.6799999999998</ele>
        <time>2015-08-02T11:51:45Z</time>
      </trkpt>
      <trkpt lat="46.203265618532896" lon="10.574058853089809">
        <ele>2434.1999999999998</ele>
        <time>2015-08-02T11:51:56Z</time>
      </trkpt>
      <trkpt lat="46.203283974900842" lon="10.574088860303164">
        <ele>2434.1999999999998</ele>
        <time>2015-08-02T11:51:59Z</time>
      </trkpt>
      <trkpt lat="46.203377349302173" lon="10.574195059016347">
        <ele>2434.1999999999998</ele>
        <time>2015-08-02T11:52:10Z</time>
      </trkpt>
      <trkpt lat="46.203419426456094" lon="10.574269825592637">
        <ele>2433.71</ele>
        <time>2015-08-02T11:52:18Z</time>
      </trkpt>
      <trkpt lat="46.203458402305841" lon="10.574419191107154">
        <ele>2432.75</ele>
        <time>2015-08-02T11:52:30Z</time>
      </trkpt>
      <trkpt lat="46.203477093949914" lon="10.574517594650388">
        <ele>2432.75</ele>
        <time>2015-08-02T11:52:40Z</time>
      </trkpt>
      <trkpt lat="46.203485978767276" lon="10.574616333469748">
        <ele>2431.79</ele>
        <time>2015-08-02T11:52:50Z</time>
      </trkpt>
      <trkpt lat="46.203513387590647" lon="10.574693279340863">
        <ele>2431.79</ele>
        <time>2015-08-02T11:53:00Z</time>
      </trkpt>
      <trkpt lat="46.203534761443734" lon="10.574754131957889">
        <ele>2431.3099999999999</ele>
        <time>2015-08-02T11:53:07Z</time>
      </trkpt>
      <trkpt lat="46.2035330850631" lon="10.574836945161223">
        <ele>2431.3099999999999</ele>
        <time>2015-08-02T11:53:13Z</time>
      </trkpt>
      <trkpt lat="46.203524870797992" lon="10.574876926839352">
        <ele>2431.3099999999999</ele>
        <time>2015-08-02T11:53:16Z</time>
      </trkpt>
      <trkpt lat="46.20351648889482" lon="10.574918752536178">
        <ele>2430.8299999999999</ele>
        <time>2015-08-02T11:53:19Z</time>
      </trkpt>
      <trkpt lat="46.203487236052752" lon="10.574986645951867">
        <ele>2429.8699999999999</ele>
        <time>2015-08-02T11:53:28Z</time>
      </trkpt>
      <trkpt lat="46.20348522439599" lon="10.574983963742852">
        <ele>2429.8699999999999</ele>
        <time>2015-08-02T11:53:32Z</time>
      </trkpt>
      <trkpt lat="46.203462928533554" lon="10.575027633458376">
        <ele>2429.8699999999999</ele>
        <time>2015-08-02T11:53:35Z</time>
      </trkpt>
      <trkpt lat="46.203428981825709" lon="10.575136849656701">
        <ele>2429.8699999999999</ele>
        <time>2015-08-02T11:53:45Z</time>
      </trkpt>
      <trkpt lat="46.203411379829049" lon="10.575202647596598">
        <ele>2429.3899999999999</ele>
        <time>2015-08-02T11:53:54Z</time>
      </trkpt>
      <trkpt lat="46.203364608809352" lon="10.575334494933486">
        <ele>2428.9099999999999</ele>
        <time>2015-08-02T11:54:05Z</time>
      </trkpt>
      <trkpt lat="46.203346587717533" lon="10.575412195175886">
        <ele>2428.9099999999999</ele>
        <time>2015-08-02T11:54:13Z</time>
      </trkpt>
      <trkpt lat="46.203324040398002" lon="10.575472544878721">
        <ele>2429.3899999999999</ele>
        <time>2015-08-02T11:54:19Z</time>
      </trkpt>
      <trkpt lat="46.203250447288156" lon="10.575508251786232">
        <ele>2430.3499999999999</ele>
        <time>2015-08-02T11:54:27Z</time>
      </trkpt>
      <trkpt lat="46.203230749815702" lon="10.575522249564528">
        <ele>2430.3499999999999</ele>
        <time>2015-08-02T11:54:34Z</time>
      </trkpt>
      <trkpt lat="46.203234605491161" lon="10.575514370575547">
        <ele>2429.3899999999999</ele>
        <time>2015-08-02T11:54:41Z</time>
      </trkpt>
      <trkpt lat="46.203223960474133" lon="10.575502971187234">
        <ele>2429.3899999999999</ele>
        <time>2015-08-02T11:55:03Z</time>
      </trkpt>
      <trkpt lat="46.203235946595669" lon="10.57549299672246">
        <ele>2430.3499999999999</ele>
        <time>2015-08-02T11:55:08Z</time>
      </trkpt>
      <trkpt lat="46.203239215537906" lon="10.57552526704967">
        <ele>2430.3499999999999</ele>
        <time>2015-08-02T11:55:12Z</time>
      </trkpt>
      <trkpt lat="46.203207951039076" lon="10.575598943978548">
        <ele>2430.8299999999999</ele>
        <time>2015-08-02T11:55:16Z</time>
      </trkpt>
      <trkpt lat="46.203178279101849" lon="10.575745962560177">
        <ele>2431.3099999999999</ele>
        <time>2015-08-02T11:55:26Z</time>
      </trkpt>
      <trkpt lat="46.203164532780647" lon="10.57584285736084">
        <ele>2432.27</ele>
        <time>2015-08-02T11:55:35Z</time>
      </trkpt>
      <trkpt lat="46.203146846964955" lon="10.575908990576863">
        <ele>2431.79</ele>
        <time>2015-08-02T11:55:45Z</time>
      </trkpt>
      <trkpt lat="46.203136118128896" lon="10.57596355676651">
        <ele>2431.79</ele>
        <time>2015-08-02T11:55:56Z</time>
      </trkpt>
      <trkpt lat="46.203135782852769" lon="10.575975459069014">
        <ele>2431.79</ele>
        <time>2015-08-02T11:55:59Z</time>
      </trkpt>
      <trkpt lat="46.203124970197678" lon="10.575996832922101">
        <ele>2431.79</ele>
        <time>2015-08-02T11:56:01Z</time>
      </trkpt>
      <trkpt lat="46.203097058460116" lon="10.576032288372517">
        <ele>2431.79</ele>
        <time>2015-08-02T11:56:13Z</time>
      </trkpt>
      <trkpt lat="46.203085156157613" lon="10.576061876490712">
        <ele>2430.8299999999999</ele>
        <time>2015-08-02T11:56:24Z</time>
      </trkpt>
      <trkpt lat="46.203088676556945" lon="10.576102193444967">
        <ele>2430.3499999999999</ele>
        <time>2015-08-02T11:56:34Z</time>
      </trkpt>
      <trkpt lat="46.203083982691169" lon="10.576182743534446">
        <ele>2428.4299999999998</ele>
        <time>2015-08-02T11:56:44Z</time>
      </trkpt>
      <trkpt lat="46.203129915520549" lon="10.576269831508398">
        <ele>2426.9899999999998</ele>
        <time>2015-08-02T11:56:55Z</time>
      </trkpt>
      <trkpt lat="46.203205101191998" lon="10.57635884732008">
        <ele>2424.0999999999999</ele>
        <time>2015-08-02T11:57:07Z</time>
      </trkpt>
      <trkpt lat="46.203302918002009" lon="10.576440906152129">
        <ele>2422.1799999999998</ele>
        <time>2015-08-02T11:57:19Z</time>
      </trkpt>
      <trkpt lat="46.203307611867785" lon="10.576451383531094">
        <ele>2422.1799999999998</ele>
        <time>2015-08-02T11:57:20Z</time>
      </trkpt>
      <trkpt lat="46.203364357352257" lon="10.576614830642939">
        <ele>2420.7399999999998</ele>
        <time>2015-08-02T11:57:33Z</time>
      </trkpt>
      <trkpt lat="46.203411882743239" lon="10.576752629131079">
        <ele>2420.2600000000002</ele>
        <time>2015-08-02T11:57:44Z</time>
      </trkpt>
      <trkpt lat="46.203522104769945" lon="10.57688070461154">
        <ele>2419.3000000000002</ele>
        <time>2015-08-02T11:57:58Z</time>
      </trkpt>
      <trkpt lat="46.203527972102165" lon="10.576977515593171">
        <ele>2417.8499999999999</ele>
        <time>2015-08-02T11:58:06Z</time>
      </trkpt>
      <trkpt lat="46.203550016507506" lon="10.577058484777808">
        <ele>2416.8899999999999</ele>
        <time>2015-08-02T11:58:14Z</time>
      </trkpt>
      <trkpt lat="46.203575748950243" lon="10.577142806723714">
        <ele>2414.9699999999998</ele>
        <time>2015-08-02T11:58:24Z</time>
      </trkpt>
      <trkpt lat="46.203608186915517" lon="10.577191589400172">
        <ele>2413.5300000000002</ele>
        <time>2015-08-02T11:58:35Z</time>
      </trkpt>
      <trkpt lat="46.203620508313179" lon="10.577201647683978">
        <ele>2413.5300000000002</ele>
        <time>2015-08-02T11:58:39Z</time>
      </trkpt>
      <trkpt lat="46.203667782247066" lon="10.577284712344408">
        <ele>2411.5999999999999</ele>
        <time>2015-08-02T11:58:50Z</time>
      </trkpt>
      <trkpt lat="46.203713212162256" lon="10.577374901622534">
        <ele>2410.6399999999999</ele>
        <time>2015-08-02T11:59:01Z</time>
      </trkpt>
      <trkpt lat="46.203748499974608" lon="10.5774577986449">
        <ele>2409.1999999999998</ele>
        <time>2015-08-02T11:59:11Z</time>
      </trkpt>
      <trkpt lat="46.203754283487797" lon="10.57750666514039">
        <ele>2409.1999999999998</ele>
        <time>2015-08-02T11:59:15Z</time>
      </trkpt>
      <trkpt lat="46.203790074214339" lon="10.577631471678615">
        <ele>2406.8000000000002</ele>
        <time>2015-08-02T11:59:27Z</time>
      </trkpt>
      <trkpt lat="46.203801305964589" lon="10.577720403671265">
        <ele>2405.3600000000001</ele>
        <time>2015-08-02T11:59:36Z</time>
      </trkpt>
      <trkpt lat="46.203792169690132" lon="10.577809168025851">
        <ele>2403.9099999999999</ele>
        <time>2015-08-02T11:59:46Z</time>
      </trkpt>
      <trkpt lat="46.203780854120851" lon="10.57787362486124">
        <ele>2402.9499999999998</ele>
        <time>2015-08-02T11:59:52Z</time>
      </trkpt>
      <trkpt lat="46.20377498678863" lon="10.577927688136697">
        <ele>2402.4699999999998</ele>
        <time>2015-08-02T11:59:56Z</time>
      </trkpt>
      <trkpt lat="46.203753696754575" lon="10.57802265509963">
        <ele>2401.0300000000002</ele>
        <time>2015-08-02T12:00:06Z</time>
      </trkpt>
      <trkpt lat="46.203719498589635" lon="10.578100858256221">
        <ele>2400.0700000000002</ele>
        <time>2015-08-02T12:00:17Z</time>
      </trkpt>
      <trkpt lat="46.203717403113842" lon="10.578163387253881">
        <ele>2398.1500000000001</ele>
        <time>2015-08-02T12:00:27Z</time>
      </trkpt>
      <trkpt lat="46.203723354265094" lon="10.578249301761389">
        <ele>2396.2199999999998</ele>
        <time>2015-08-02T12:00:37Z</time>
      </trkpt>
      <trkpt lat="46.203714888542891" lon="10.5782625451684">
        <ele>2395.7399999999998</ele>
        <time>2015-08-02T12:00:39Z</time>
      </trkpt>
      <trkpt lat="46.203655963763595" lon="10.578206637874246">
        <ele>2394.3000000000002</ele>
        <time>2015-08-02T12:00:49Z</time>
      </trkpt>
      <trkpt lat="46.203623358160257" lon="10.578224658966064">
        <ele>2392.8600000000001</ele>
        <time>2015-08-02T12:00:59Z</time>
      </trkpt>
      <trkpt lat="46.20361958630383" lon="10.578234801068902">
        <ele>2392.3800000000001</ele>
        <time>2015-08-02T12:01:00Z</time>
      </trkpt>
      <trkpt lat="46.203619334846735" lon="10.578315770253539">
        <ele>2390.9400000000001</ele>
        <time>2015-08-02T12:01:10Z</time>
      </trkpt>
      <trkpt lat="46.203588992357254" lon="10.578344604000449">
        <ele>2389.4899999999998</ele>
        <time>2015-08-02T12:01:18Z</time>
      </trkpt>
      <trkpt lat="46.203585471957922" lon="10.578340413048863">
        <ele>2389.0100000000002</ele>
        <time>2015-08-02T12:01:19Z</time>
      </trkpt>
      <trkpt lat="46.203580275177956" lon="10.578332869336009">
        <ele>2389.0100000000002</ele>
        <time>2015-08-02T12:01:20Z</time>
      </trkpt>
      <trkpt lat="46.203538784757257" lon="10.578342927619815">
        <ele>2387.0900000000001</ele>
        <time>2015-08-02T12:01:30Z</time>
      </trkpt>
      <trkpt lat="46.203562673181295" lon="10.578449545428157">
        <ele>2386.1300000000001</ele>
        <time>2015-08-02T12:01:40Z</time>
      </trkpt>
      <trkpt lat="46.203585471957922" lon="10.578534202650189">
        <ele>2384.21</ele>
        <time>2015-08-02T12:01:51Z</time>
      </trkpt>
      <trkpt lat="46.203590165823698" lon="10.578575609251857">
        <ele>2383.73</ele>
        <time>2015-08-02T12:01:56Z</time>
      </trkpt>
      <trkpt lat="46.203610869124532" lon="10.578685831278563">
        <ele>2382.2800000000002</ele>
        <time>2015-08-02T12:02:07Z</time>
      </trkpt>
      <trkpt lat="46.203640876337886" lon="10.578759843483567">
        <ele>2379.8800000000001</ele>
        <time>2015-08-02T12:02:16Z</time>
      </trkpt>
      <trkpt lat="46.203657304868102" lon="10.578895378857851">
        <ele>2377.96</ele>
        <time>2015-08-02T12:02:27Z</time>
      </trkpt>
      <trkpt lat="46.203646743670106" lon="10.579000823199749">
        <ele>2376.52</ele>
        <time>2015-08-02T12:02:39Z</time>
      </trkpt>
      <trkpt lat="46.203595697879791" lon="10.579046923667192">
        <ele>2374.5900000000001</ele>
        <time>2015-08-02T12:02:49Z</time>
      </trkpt>
      <trkpt lat="46.203546160832047" lon="10.579075505957007">
        <ele>2372.6700000000001</ele>
        <time>2015-08-02T12:02:59Z</time>
      </trkpt>
      <trkpt lat="46.203568372875452" lon="10.579164102673531">
        <ele>2371.71</ele>
        <time>2015-08-02T12:03:09Z</time>
      </trkpt>
      <trkpt lat="46.203565523028374" lon="10.579259321093559">
        <ele>2370.27</ele>
        <time>2015-08-02T12:03:18Z</time>
      </trkpt>
      <trkpt lat="46.203552782535553" lon="10.579312797635794">
        <ele>2368.8299999999999</ele>
        <time>2015-08-02T12:03:26Z</time>
      </trkpt>
      <trkpt lat="46.203550854697824" lon="10.579412123188376">
        <ele>2366.4200000000001</ele>
        <time>2015-08-02T12:03:37Z</time>
      </trkpt>
      <trkpt lat="46.203519087284803" lon="10.579452104866505">
        <ele>2364.5</ele>
        <time>2015-08-02T12:03:45Z</time>
      </trkpt>
      <trkpt lat="46.203544987365603" lon="10.579516477882862">
        <ele>2363.54</ele>
        <time>2015-08-02T12:03:51Z</time>
      </trkpt>
      <trkpt lat="46.203539958223701" lon="10.579547071829438">
        <ele>2362.5799999999999</ele>
        <time>2015-08-02T12:03:54Z</time>
      </trkpt>
      <trkpt lat="46.203476674854755" lon="10.579528966918588">
        <ele>2361.6199999999999</ele>
        <time>2015-08-02T12:03:59Z</time>
      </trkpt>
      <trkpt lat="46.203422779217362" lon="10.579502061009407">
        <ele>2360.1700000000001</ele>
        <time>2015-08-02T12:04:03Z</time>
      </trkpt>
      <trkpt lat="46.203404674306512" lon="10.579484207555652">
        <ele>2359.6900000000001</ele>
        <time>2015-08-02T12:04:05Z</time>
      </trkpt>
      <trkpt lat="46.203353879973292" lon="10.579510862007737">
        <ele>2357.29</ele>
        <time>2015-08-02T12:04:15Z</time>
      </trkpt>
      <trkpt lat="46.20339578948915" lon="10.579619240015745">
        <ele>2355.3699999999999</ele>
        <time>2015-08-02T12:04:23Z</time>
      </trkpt>
      <trkpt lat="46.203415486961603" lon="10.579728875309229">
        <ele>2352.48</ele>
        <time>2015-08-02T12:04:34Z</time>
      </trkpt>
      <trkpt lat="46.203416828066111" lon="10.579740609973669">
        <ele>2352.48</ele>
        <time>2015-08-02T12:04:35Z</time>
      </trkpt>
      <trkpt lat="46.203428898006678" lon="10.579874804243445">
        <ele>2349.5999999999999</ele>
        <time>2015-08-02T12:04:47Z</time>
      </trkpt>
      <trkpt lat="46.203357400372624" lon="10.579903302714229">
        <ele>2347.6799999999998</ele>
        <time>2015-08-02T12:04:57Z</time>
      </trkpt>
      <trkpt lat="46.203389586880803" lon="10.579951414838433">
        <ele>2346.23</ele>
        <time>2015-08-02T12:05:03Z</time>
      </trkpt>
      <trkpt lat="46.203399812802672" lon="10.580004220828414">
        <ele>2345.27</ele>
        <time>2015-08-02T12:05:07Z</time>
      </trkpt>
      <trkpt lat="46.203390844166279" lon="10.580052165314555">
        <ele>2344.79</ele>
        <time>2015-08-02T12:05:10Z</time>
      </trkpt>
      <trkpt lat="46.203388497233391" lon="10.580112347379327">
        <ele>2344.3099999999999</ele>
        <time>2015-08-02T12:05:20Z</time>
      </trkpt>
      <trkpt lat="46.203404925763607" lon="10.580276045948267">
        <ele>2342.8699999999999</ele>
        <time>2015-08-02T12:05:32Z</time>
      </trkpt>
      <trkpt lat="46.203419174998999" lon="10.58028057217598">
        <ele>2342.3899999999999</ele>
        <time>2015-08-02T12:05:34Z</time>
      </trkpt>
      <trkpt lat="46.203481201082468" lon="10.580374952405691">
        <ele>2341.4299999999998</ele>
        <time>2015-08-02T12:05:45Z</time>
      </trkpt>
      <trkpt lat="46.203490672633052" lon="10.580414263531566">
        <ele>2341.9099999999999</ele>
        <time>2015-08-02T12:05:49Z</time>
      </trkpt>
      <trkpt lat="46.203511878848076" lon="10.580525072291493">
        <ele>2342.3899999999999</ele>
        <time>2015-08-02T12:05:58Z</time>
      </trkpt>
      <trkpt lat="46.203519590198994" lon="10.580584332346916">
        <ele>2341.9099999999999</ele>
        <time>2015-08-02T12:06:03Z</time>
      </trkpt>
      <trkpt lat="46.203527050092816" lon="10.580647028982639">
        <ele>2341.4299999999998</ele>
        <time>2015-08-02T12:06:13Z</time>
      </trkpt>
      <trkpt lat="46.203530402854085" lon="10.580672426149249">
        <ele>2340.9499999999998</ele>
        <time>2015-08-02T12:06:25Z</time>
      </trkpt>
      <trkpt lat="46.203569630160928" lon="10.580719029530883">
        <ele>2341.4299999999998</ele>
        <time>2015-08-02T12:06:38Z</time>
      </trkpt>
      <trkpt lat="46.203616987913847" lon="10.580830425024033">
        <ele>2339.9899999999998</ele>
        <time>2015-08-02T12:06:49Z</time>
      </trkpt>
      <trkpt lat="46.203627297654748" lon="10.580860851332545">
        <ele>2339.9899999999998</ele>
        <time>2015-08-02T12:06:52Z</time>
      </trkpt>
      <trkpt lat="46.203699465841055" lon="10.580961350351572">
        <ele>2338.0599999999999</ele>
        <time>2015-08-02T12:07:03Z</time>
      </trkpt>
      <trkpt lat="46.203708183020353" lon="10.581056149676442">
        <ele>2337.0999999999999</ele>
        <time>2015-08-02T12:07:09Z</time>
      </trkpt>
      <trkpt lat="46.203704662621021" lon="10.58111859485507">
        <ele>2336.6199999999999</ele>
        <time>2015-08-02T12:07:14Z</time>
      </trkpt>
      <trkpt lat="46.203724946826696" lon="10.581209538504481">
        <ele>2334.6999999999998</ele>
        <time>2015-08-02T12:07:22Z</time>
      </trkpt>
      <trkpt lat="46.203742548823357" lon="10.581287825480103">
        <ele>2333.2600000000002</ele>
        <time>2015-08-02T12:07:29Z</time>
      </trkpt>
      <trkpt lat="46.203751182183623" lon="10.581418750807643">
        <ele>2330.8499999999999</ele>
        <time>2015-08-02T12:07:39Z</time>
      </trkpt>
      <trkpt lat="46.203779764473438" lon="10.581556716933846">
        <ele>2330.3699999999999</ele>
        <time>2015-08-02T12:07:50Z</time>
      </trkpt>
      <trkpt lat="46.203812956809998" lon="10.581658892333508">
        <ele>2327.9699999999998</ele>
        <time>2015-08-02T12:07:59Z</time>
      </trkpt>
      <trkpt lat="46.203812286257744" lon="10.581691917032003">
        <ele>2327.4899999999998</ele>
        <time>2015-08-02T12:08:01Z</time>
      </trkpt>
      <trkpt lat="46.203814968466759" lon="10.581722427159548">
        <ele>2327.0100000000002</ele>
        <time>2015-08-02T12:08:03Z</time>
      </trkpt>
      <trkpt lat="46.203857213258743" lon="10.58185008354485">
        <ele>2324.6100000000001</ele>
        <time>2015-08-02T12:08:15Z</time>
      </trkpt>
      <trkpt lat="46.203899709507823" lon="10.581879755482078">
        <ele>2323.6399999999999</ele>
        <time>2015-08-02T12:08:21Z</time>
      </trkpt>
      <trkpt lat="46.203921586275101" lon="10.581881934776902">
        <ele>2323.1599999999999</ele>
        <time>2015-08-02T12:08:23Z</time>
      </trkpt>
      <trkpt lat="46.203947989270091" lon="10.5819390155375">
        <ele>2322.6799999999998</ele>
        <time>2015-08-02T12:08:28Z</time>
      </trkpt>
      <trkpt lat="46.2039855401963" lon="10.582027696073055">
        <ele>2320.2800000000002</ele>
        <time>2015-08-02T12:08:39Z</time>
      </trkpt>
      <trkpt lat="46.204022755846381" lon="10.582117298617959">
        <ele>2318.8400000000001</ele>
        <time>2015-08-02T12:08:48Z</time>
      </trkpt>
      <trkpt lat="46.204049829393625" lon="10.58222190476954">
        <ele>2318.3600000000001</ele>
        <time>2015-08-02T12:08:57Z</time>
      </trkpt>
      <trkpt lat="46.204075394198298" lon="10.5823431070894">
        <ele>2317.8800000000001</ele>
        <time>2015-08-02T12:09:08Z</time>
      </trkpt>
      <trkpt lat="46.204079417511821" lon="10.582440253347158">
        <ele>2316.9099999999999</ele>
        <time>2015-08-02T12:09:20Z</time>
      </trkpt>
      <trkpt lat="46.204089811071754" lon="10.582475624978542">
        <ele>2316.9099999999999</ele>
        <time>2015-08-02T12:09:30Z</time>
      </trkpt>
      <trkpt lat="46.204098276793957" lon="10.582516444846988">
        <ele>2316.4299999999998</ele>
        <time>2015-08-02T12:09:42Z</time>
      </trkpt>
      <trkpt lat="46.204083105549216" lon="10.582515522837639">
        <ele>2315.9499999999998</ele>
        <time>2015-08-02T12:09:56Z</time>
      </trkpt>
      <trkpt lat="46.204076567664742" lon="10.582526754587889">
        <ele>2316.4299999999998</ele>
        <time>2015-08-02T12:10:15Z</time>
      </trkpt>
      <trkpt lat="46.204095091670752" lon="10.582509068772197">
        <ele>2316.4299999999998</ele>
        <time>2015-08-02T12:10:29Z</time>
      </trkpt>
      <trkpt lat="46.204086374491453" lon="10.582518624141812">
        <ele>2315.9499999999998</ele>
        <time>2015-08-02T12:10:44Z</time>
      </trkpt>
      <trkpt lat="46.204088721424341" lon="10.582510409876704">
        <ele>2315.9499999999998</ele>
        <time>2015-08-02T12:10:57Z</time>
      </trkpt>
      <trkpt lat="46.204085201025009" lon="10.582514014095068">
        <ele>2315.9499999999998</ele>
        <time>2015-08-02T12:11:08Z</time>
      </trkpt>
      <trkpt lat="46.204073633998632" lon="10.582519881427288">
        <ele>2316.4299999999998</ele>
        <time>2015-08-02T12:11:19Z</time>
      </trkpt>
      <trkpt lat="46.204088050872087" lon="10.582520551979542">
        <ele>2316.4299999999998</ele>
        <time>2015-08-02T12:11:36Z</time>
      </trkpt>
      <trkpt lat="46.204091906547546" lon="10.582514768466353">
        <ele>2316.4299999999998</ele>
        <time>2015-08-02T12:11:51Z</time>
      </trkpt>
      <trkpt lat="46.204133648425341" lon="10.582618787884712">
        <ele>2315.9499999999998</ele>
        <time>2015-08-02T12:12:01Z</time>
      </trkpt>
      <trkpt lat="46.204148652032018" lon="10.582710318267345">
        <ele>2315.9499999999998</ele>
        <time>2015-08-02T12:12:12Z</time>
      </trkpt>
      <trkpt lat="46.20418100617826" lon="10.582805871963501">
        <ele>2314.9899999999998</ele>
        <time>2015-08-02T12:12:23Z</time>
      </trkpt>
      <trkpt lat="46.20419517159462" lon="10.582882566377521">
        <ele>2315.4699999999998</ele>
        <time>2015-08-02T12:12:31Z</time>
      </trkpt>
      <trkpt lat="46.204213947057724" lon="10.582988429814577">
        <ele>2315.9499999999998</ele>
        <time>2015-08-02T12:12:41Z</time>
      </trkpt>
      <trkpt lat="46.204206319525838" lon="10.583055904135108">
        <ele>2315.9499999999998</ele>
        <time>2015-08-02T12:12:47Z</time>
      </trkpt>
      <trkpt lat="46.204227274283767" lon="10.583093790337443">
        <ele>2316.4299999999998</ele>
        <time>2015-08-02T12:12:55Z</time>
      </trkpt>
      <trkpt lat="46.204240014776587" lon="10.583152547478676">
        <ele>2315.9499999999998</ele>
        <time>2015-08-02T12:12:59Z</time>
      </trkpt>
      <trkpt lat="46.204223837703466" lon="10.583304008468986">
        <ele>2314.9899999999998</ele>
        <time>2015-08-02T12:13:10Z</time>
      </trkpt>
      <trkpt lat="46.204213444143534" lon="10.583391515538096">
        <ele>2314.9899999999998</ele>
        <time>2015-08-02T12:13:19Z</time>
      </trkpt>
      <trkpt lat="46.204231968149543" lon="10.58346695266664">
        <ele>2315.9499999999998</ele>
        <time>2015-08-02T12:13:29Z</time>
      </trkpt>
      <trkpt lat="46.204217215999961" lon="10.583569211885333">
        <ele>2317.4000000000001</ele>
        <time>2015-08-02T12:13:39Z</time>
      </trkpt>
      <trkpt lat="46.204213025048375" lon="10.583601482212543">
        <ele>2316.9099999999999</ele>
        <time>2015-08-02T12:13:42Z</time>
      </trkpt>
      <trkpt lat="46.204191567376256" lon="10.583685552701354">
        <ele>2317.4000000000001</ele>
        <time>2015-08-02T12:13:49Z</time>
      </trkpt>
      <trkpt lat="46.204192992299795" lon="10.583837097510695">
        <ele>2317.8800000000001</ele>
        <time>2015-08-02T12:14:02Z</time>
      </trkpt>
      <trkpt lat="46.204226687550545" lon="10.583939608186483">
        <ele>2318.8400000000001</ele>
        <time>2015-08-02T12:14:13Z</time>
      </trkpt>
      <trkpt lat="46.204250492155552" lon="10.583970369771123">
        <ele>2318.3600000000001</ele>
        <time>2015-08-02T12:14:17Z</time>
      </trkpt>
      <trkpt lat="46.204342106357217" lon="10.583982104435563">
        <ele>2319.3200000000002</ele>
        <time>2015-08-02T12:14:29Z</time>
      </trkpt>
      <trkpt lat="46.204353421926498" lon="10.583994509652257">
        <ele>2319.3200000000002</ele>
        <time>2015-08-02T12:14:31Z</time>
      </trkpt>
      <trkpt lat="46.204413184896111" lon="10.584046477451921">
        <ele>2319.8000000000002</ele>
        <time>2015-08-02T12:14:41Z</time>
      </trkpt>
      <trkpt lat="46.20443606749177" lon="10.584077574312687">
        <ele>2320.7600000000002</ele>
        <time>2015-08-02T12:14:48Z</time>
      </trkpt>
      <trkpt lat="46.204447718337178" lon="10.584150413051248">
        <ele>2321.7199999999998</ele>
        <time>2015-08-02T12:14:56Z</time>
      </trkpt>
      <trkpt lat="46.204446125775576" lon="10.584209505468607">
        <ele>2321.2399999999998</ele>
        <time>2015-08-02T12:15:01Z</time>
      </trkpt>
      <trkpt lat="46.204440090805292" lon="10.584293659776449">
        <ele>2321.7199999999998</ele>
        <time>2015-08-02T12:15:10Z</time>
      </trkpt>
      <trkpt lat="46.204447215422988" lon="10.584394745528698">
        <ele>2321.7199999999998</ele>
        <time>2015-08-02T12:15:19Z</time>
      </trkpt>
      <trkpt lat="46.204492980614305" lon="10.584461549296975">
        <ele>2321.2399999999998</ele>
        <time>2015-08-02T12:15:28Z</time>
      </trkpt>
      <trkpt lat="46.204529860988259" lon="10.584566574543715">
        <ele>2321.7199999999998</ele>
        <time>2015-08-02T12:15:38Z</time>
      </trkpt>
      <trkpt lat="46.204578308388591" lon="10.584655171260238">
        <ele>2321.2399999999998</ele>
        <time>2015-08-02T12:15:48Z</time>
      </trkpt>
      <trkpt lat="46.204585852101445" lon="10.584674952551723">
        <ele>2321.2399999999998</ele>
        <time>2015-08-02T12:15:50Z</time>
      </trkpt>
      <trkpt lat="46.204605801030993" lon="10.58475642465055">
        <ele>2319.8000000000002</ele>
        <time>2015-08-02T12:16:00Z</time>
      </trkpt>
      <trkpt lat="46.204623151570559" lon="10.584812751039863">
        <ele>2319.3200000000002</ele>
        <time>2015-08-02T12:16:05Z</time>
      </trkpt>
      <trkpt lat="46.204635389149189" lon="10.584829095751047">
        <ele>2318.8400000000001</ele>
        <time>2015-08-02T12:16:06Z</time>
      </trkpt>
      <trkpt lat="46.20468039996922" lon="10.584959015250206">
        <ele>2317.8800000000001</ele>
        <time>2015-08-02T12:16:19Z</time>
      </trkpt>
      <trkpt lat="46.204676795750856" lon="10.585011737421155">
        <ele>2317.8800000000001</ele>
        <time>2015-08-02T12:16:23Z</time>
      </trkpt>
      <trkpt lat="46.204642932862043" lon="10.585139645263553">
        <ele>2317.4000000000001</ele>
        <time>2015-08-02T12:16:34Z</time>
      </trkpt>
      <trkpt lat="46.204648213461041" lon="10.585196474567056">
        <ele>2316.4299999999998</ele>
        <time>2015-08-02T12:16:40Z</time>
      </trkpt>
      <trkpt lat="46.204669252038002" lon="10.585313150659204">
        <ele>2314.9899999999998</ele>
        <time>2015-08-02T12:16:51Z</time>
      </trkpt>
      <trkpt lat="46.204655421897769" lon="10.58536134660244">
        <ele>2314.9899999999998</ele>
        <time>2015-08-02T12:16:55Z</time>
      </trkpt>
      <trkpt lat="46.204643435776234" lon="10.585388755425811">
        <ele>2314.5100000000002</ele>
        <time>2015-08-02T12:16:57Z</time>
      </trkpt>
      <trkpt lat="46.204619714990258" lon="10.585489086806774">
        <ele>2314.5100000000002</ele>
        <time>2015-08-02T12:17:06Z</time>
      </trkpt>
      <trkpt lat="46.204619966447353" lon="10.585597213357687">
        <ele>2313.5500000000002</ele>
        <time>2015-08-02T12:17:16Z</time>
      </trkpt>
      <trkpt lat="46.20458266697824" lon="10.585626550018787">
        <ele>2312.1100000000001</ele>
        <time>2015-08-02T12:17:25Z</time>
      </trkpt>
      <trkpt lat="46.204553917050362" lon="10.585660329088569">
        <ele>2310.6700000000001</ele>
        <time>2015-08-02T12:17:32Z</time>
      </trkpt>
      <trkpt lat="46.204555425792933" lon="10.585673823952675">
        <ele>2310.6700000000001</ele>
        <time>2015-08-02T12:17:33Z</time>
      </trkpt>
      <trkpt lat="46.204512761905789" lon="10.585674410685897">
        <ele>2308.7399999999998</ele>
        <time>2015-08-02T12:17:40Z</time>
      </trkpt>
      <trkpt lat="46.204458028078079" lon="10.585802234709263">
        <ele>2307.3000000000002</ele>
        <time>2015-08-02T12:17:51Z</time>
      </trkpt>
      <trkpt lat="46.204433888196945" lon="10.585888065397739">
        <ele>2305.8600000000001</ele>
        <time>2015-08-02T12:18:00Z</time>
      </trkpt>
      <trkpt lat="46.204419052228332" lon="10.585960652679205">
        <ele>2304.4200000000001</ele>
        <time>2015-08-02T12:18:07Z</time>
      </trkpt>
      <trkpt lat="46.204414274543524" lon="10.58609233237803">
        <ele>2302.0100000000002</ele>
        <time>2015-08-02T12:18:19Z</time>
      </trkpt>
      <trkpt lat="46.204369012266397" lon="10.58613583445549">
        <ele>2300.0900000000001</ele>
        <time>2015-08-02T12:18:29Z</time>
      </trkpt>
      <trkpt lat="46.204322827979922" lon="10.586116053164005">
        <ele>2297.6900000000001</ele>
        <time>2015-08-02T12:18:37Z</time>
      </trkpt>
      <trkpt lat="46.20431293733418" lon="10.586110521107912">
        <ele>2297.6900000000001</ele>
        <time>2015-08-02T12:18:38Z</time>
      </trkpt>
      <trkpt lat="46.204260969534516" lon="10.586099121719599">
        <ele>2295.77</ele>
        <time>2015-08-02T12:18:48Z</time>
      </trkpt>
      <trkpt lat="46.204260131344199" lon="10.586155196651816">
        <ele>2294.3200000000002</ele>
        <time>2015-08-02T12:18:53Z</time>
      </trkpt>
      <trkpt lat="46.20428167283535" lon="10.586273968219757">
        <ele>2292.4000000000001</ele>
        <time>2015-08-02T12:19:04Z</time>
      </trkpt>
      <trkpt lat="46.204280415549874" lon="10.586377400904894">
        <ele>2290.96</ele>
        <time>2015-08-02T12:19:14Z</time>
      </trkpt>
      <trkpt lat="46.204267423599958" lon="10.586461555212736">
        <ele>2290.48</ele>
        <time>2015-08-02T12:19:23Z</time>
      </trkpt>
      <trkpt lat="46.204272955656052" lon="10.586526179686189">
        <ele>2288.0799999999999</ele>
        <time>2015-08-02T12:19:31Z</time>
      </trkpt>
      <trkpt lat="46.204248229041696" lon="10.586573537439108">
        <ele>2287.1100000000001</ele>
        <time>2015-08-02T12:19:36Z</time>
      </trkpt>
      <trkpt lat="46.204259125515819" lon="10.586597928777337">
        <ele>2286.6300000000001</ele>
        <time>2015-08-02T12:19:38Z</time>
      </trkpt>
      <trkpt lat="46.204272704198956" lon="10.586751736700535">
        <ele>2286.1500000000001</ele>
        <time>2015-08-02T12:19:49Z</time>
      </trkpt>
      <trkpt lat="46.204297179356217" lon="10.586855504661798">
        <ele>2286.1500000000001</ele>
        <time>2015-08-02T12:19:57Z</time>
      </trkpt>
      <trkpt lat="46.204275134950876" lon="10.586994728073478">
        <ele>2286.6300000000001</ele>
        <time>2015-08-02T12:20:07Z</time>
      </trkpt>
      <trkpt lat="46.204274632036686" lon="10.587006043642759">
        <ele>2286.6300000000001</ele>
        <time>2015-08-02T12:20:08Z</time>
      </trkpt>
      <trkpt lat="46.204258538782597" lon="10.587068656459451">
        <ele>2286.1500000000001</ele>
        <time>2015-08-02T12:20:12Z</time>
      </trkpt>
      <trkpt lat="46.204240685328841" lon="10.58713311329484">
        <ele>2286.6300000000001</ele>
        <time>2015-08-02T12:20:18Z</time>
      </trkpt>
      <trkpt lat="46.204210259020329" lon="10.587217435240746">
        <ele>2285.6700000000001</ele>
        <time>2015-08-02T12:20:26Z</time>
      </trkpt>
      <trkpt lat="46.204188466072083" lon="10.587296644225717">
        <ele>2284.71</ele>
        <time>2015-08-02T12:20:37Z</time>
      </trkpt>
      <trkpt lat="46.204165834933519" lon="10.587354982271791">
        <ele>2283.27</ele>
        <time>2015-08-02T12:20:46Z</time>
      </trkpt>
      <trkpt lat="46.204130128026009" lon="10.587422121316195">
        <ele>2282.79</ele>
        <time>2015-08-02T12:20:55Z</time>
      </trkpt>
      <trkpt lat="46.204113531857729" lon="10.587429413571954">
        <ele>2282.3099999999999</ele>
        <time>2015-08-02T12:21:06Z</time>
      </trkpt>
      <trkpt lat="46.204095175489783" lon="10.587489930912852">
        <ele>2281.3499999999999</ele>
        <time>2015-08-02T12:21:19Z</time>
      </trkpt>
      <trkpt lat="46.204061731696129" lon="10.587520189583302">
        <ele>2279.9000000000001</ele>
        <time>2015-08-02T12:21:27Z</time>
      </trkpt>
      <trkpt lat="46.204024013131857" lon="10.587600404396653">
        <ele>2277.98</ele>
        <time>2015-08-02T12:21:37Z</time>
      </trkpt>
      <trkpt lat="46.203983193263412" lon="10.587635273113847">
        <ele>2277.02</ele>
        <time>2015-08-02T12:21:43Z</time>
      </trkpt>
      <trkpt lat="46.203928459435701" lon="10.587745076045394">
        <ele>2275.0999999999999</ele>
        <time>2015-08-02T12:21:54Z</time>
      </trkpt>
      <trkpt lat="46.203862829133868" lon="10.587857896462083">
        <ele>2272.6900000000001</ele>
        <time>2015-08-02T12:22:06Z</time>
      </trkpt>
      <trkpt lat="46.203811531886458" lon="10.587925789877772">
        <ele>2271.73</ele>
        <time>2015-08-02T12:22:13Z</time>
      </trkpt>
      <trkpt lat="46.203707009553909" lon="10.587989073246717">
        <ele>2270.29</ele>
        <time>2015-08-02T12:22:25Z</time>
      </trkpt>
      <trkpt lat="46.203635847195983" lon="10.588057888671756">
        <ele>2268.3699999999999</ele>
        <time>2015-08-02T12:22:35Z</time>
      </trkpt>
      <trkpt lat="46.20357415638864" lon="10.58810306712985">
        <ele>2265.48</ele>
        <time>2015-08-02T12:22:46Z</time>
      </trkpt>
      <trkpt lat="46.203523026779294" lon="10.588151849806309">
        <ele>2263.0799999999999</ele>
        <time>2015-08-02T12:22:57Z</time>
      </trkpt>
      <trkpt lat="46.203493606299162" lon="10.58819979429245">
        <ele>2262.1199999999999</ele>
        <time>2015-08-02T12:23:06Z</time>
      </trkpt>
      <trkpt lat="46.203488577157259" lon="10.588243715465069">
        <ele>2261.6399999999999</ele>
        <time>2015-08-02T12:23:14Z</time>
      </trkpt>
      <trkpt lat="46.203480362892151" lon="10.588330132886767">
        <ele>2259.7199999999998</ele>
        <time>2015-08-02T12:23:20Z</time>
      </trkpt>
      <trkpt lat="46.203474914655089" lon="10.588406324386597">
        <ele>2257.79</ele>
        <time>2015-08-02T12:23:28Z</time>
      </trkpt>
      <trkpt lat="46.203462677076459" lon="10.588466841727495">
        <ele>2256.3499999999999</ele>
        <time>2015-08-02T12:23:35Z</time>
      </trkpt>
      <trkpt lat="46.203422863036394" lon="10.588538087904453">
        <ele>2256.8299999999999</ele>
        <time>2015-08-02T12:23:41Z</time>
      </trkpt>
      <trkpt lat="46.203359663486481" lon="10.588593827560544">
        <ele>2257.3099999999999</ele>
        <time>2015-08-02T12:23:52Z</time>
      </trkpt>
      <trkpt lat="46.203305935487151" lon="10.588642694056034">
        <ele>2258.75</ele>
        <time>2015-08-02T12:24:02Z</time>
      </trkpt>
      <trkpt lat="46.203307108953595" lon="10.588656524196267">
        <ele>2258.75</ele>
        <time>2015-08-02T12:24:03Z</time>
      </trkpt>
      <trkpt lat="46.203279532492161" lon="10.588710503652692">
        <ele>2258.75</ele>
        <time>2015-08-02T12:24:15Z</time>
      </trkpt>
      <trkpt lat="46.203272826969624" lon="10.588724166154861">
        <ele>2259.2399999999998</ele>
        <time>2015-08-02T12:24:27Z</time>
      </trkpt>
      <trkpt lat="46.20327509008348" lon="10.588683011010289">
        <ele>2258.75</ele>
        <time>2015-08-02T12:24:39Z</time>
      </trkpt>
      <trkpt lat="46.203251788392663" lon="10.588673707097769">
        <ele>2258.75</ele>
        <time>2015-08-02T12:25:00Z</time>
      </trkpt>
      <trkpt lat="46.203282466158271" lon="10.588667672127485">
        <ele>2258.27</ele>
        <time>2015-08-02T12:25:15Z</time>
      </trkpt>
      <trkpt lat="46.203273497521877" lon="10.588699523359537">
        <ele>2258.27</ele>
        <time>2015-08-02T12:25:33Z</time>
      </trkpt>
      <trkpt lat="46.203270815312862" lon="10.588720226660371">
        <ele>2258.75</ele>
        <time>2015-08-02T12:25:50Z</time>
      </trkpt>
      <trkpt lat="46.203278694301844" lon="10.588734224438667">
        <ele>2258.75</ele>
        <time>2015-08-02T12:26:04Z</time>
      </trkpt>
      <trkpt lat="46.203274335712194" lon="10.588761297985911">
        <ele>2258.75</ele>
        <time>2015-08-02T12:26:18Z</time>
      </trkpt>
      <trkpt lat="46.203264025971293" lon="10.588822066783905">
        <ele>2259.2399999999998</ele>
        <time>2015-08-02T12:26:28Z</time>
      </trkpt>
      <trkpt lat="46.203269474208355" lon="10.5888965819031">
        <ele>2259.7199999999998</ele>
        <time>2015-08-02T12:26:37Z</time>
      </trkpt>
      <trkpt lat="46.2032584939152" lon="10.588912675157189">
        <ele>2260.6799999999998</ele>
        <time>2015-08-02T12:26:52Z</time>
      </trkpt>
      <trkpt lat="46.203263606876135" lon="10.588911585509777">
        <ele>2260.6799999999998</ele>
        <time>2015-08-02T12:27:08Z</time>
      </trkpt>
      <trkpt lat="46.203277939930558" lon="10.588954500854015">
        <ele>2260.6799999999998</ele>
        <time>2015-08-02T12:27:18Z</time>
      </trkpt>
      <trkpt lat="46.203305767849088" lon="10.588989537209272">
        <ele>2263.0799999999999</ele>
        <time>2015-08-02T12:27:27Z</time>
      </trkpt>
      <trkpt lat="46.203317502513528" lon="10.5890001822263">
        <ele>2262.1199999999999</ele>
        <time>2015-08-02T12:27:29Z</time>
      </trkpt>
      <trkpt lat="46.203347509726882" lon="10.589062375947833">
        <ele>2262.1199999999999</ele>
        <time>2015-08-02T12:27:39Z</time>
      </trkpt>
      <trkpt lat="46.203348180279136" lon="10.589136723428965">
        <ele>2262.5999999999999</ele>
        <time>2015-08-02T12:27:45Z</time>
      </trkpt>
      <trkpt lat="46.203338205814362" lon="10.589227415621281">
        <ele>2260.6799999999998</ele>
        <time>2015-08-02T12:27:55Z</time>
      </trkpt>
      <trkpt lat="46.203351533040404" lon="10.589304864406586">
        <ele>2259.7199999999998</ele>
        <time>2015-08-02T12:28:03Z</time>
      </trkpt>
      <trkpt lat="46.203357065096498" lon="10.589375356212258">
        <ele>2258.27</ele>
        <time>2015-08-02T12:28:12Z</time>
      </trkpt>
      <trkpt lat="46.203339882194996" lon="10.589427910745144">
        <ele>2256.8299999999999</ele>
        <time>2015-08-02T12:28:21Z</time>
      </trkpt>
      <trkpt lat="46.203372487798333" lon="10.589468562975526">
        <ele>2254.4299999999998</ele>
        <time>2015-08-02T12:28:32Z</time>
      </trkpt>
      <trkpt lat="46.203417079523206" lon="10.5895303376019">
        <ele>2252.9899999999998</ele>
        <time>2015-08-02T12:28:42Z</time>
      </trkpt>
      <trkpt lat="46.203443566337228" lon="10.589634859934449">
        <ele>2250.5799999999999</ele>
        <time>2015-08-02T12:28:53Z</time>
      </trkpt>
      <trkpt lat="46.203474998474121" lon="10.589683055877686">
        <ele>2249.1399999999999</ele>
        <time>2015-08-02T12:29:03Z</time>
      </trkpt>
      <trkpt lat="46.203434094786644" lon="10.589711889624596">
        <ele>2247.6999999999998</ele>
        <time>2015-08-02T12:29:11Z</time>
      </trkpt>
      <trkpt lat="46.203376594930887" lon="10.589709794148803">
        <ele>2245.3000000000002</ele>
        <time>2015-08-02T12:29:20Z</time>
      </trkpt>
      <trkpt lat="46.203368632122874" lon="10.589710380882025">
        <ele>2245.3000000000002</ele>
        <time>2015-08-02T12:29:22Z</time>
      </trkpt>
      <trkpt lat="46.203324794769287" lon="10.589707363396883">
        <ele>2244.3299999999999</ele>
        <time>2015-08-02T12:29:27Z</time>
      </trkpt>
      <trkpt lat="46.203303337097168" lon="10.58967987075448">
        <ele>2243.8499999999999</ele>
        <time>2015-08-02T12:29:31Z</time>
      </trkpt>
      <trkpt lat="46.203252710402012" lon="10.589654222130775">
        <ele>2243.3699999999999</ele>
        <time>2015-08-02T12:29:40Z</time>
      </trkpt>
      <trkpt lat="46.203204011544585" lon="10.589616671204567">
        <ele>2240.9699999999998</ele>
        <time>2015-08-02T12:29:51Z</time>
      </trkpt>
      <trkpt lat="46.203224044293165" lon="10.589712727814913">
        <ele>2239.5300000000002</ele>
        <time>2015-08-02T12:30:01Z</time>
      </trkpt>
      <trkpt lat="46.203221697360277" lon="10.5897824652493">
        <ele>2237.6100000000001</ele>
        <time>2015-08-02T12:30:10Z</time>
      </trkpt>
      <trkpt lat="46.20323552750051" lon="10.589858824387193">
        <ele>2235.6799999999998</ele>
        <time>2015-08-02T12:30:21Z</time>
      </trkpt>
      <trkpt lat="46.203264193609357" lon="10.58994222432375">
        <ele>2234.2399999999998</ele>
        <time>2015-08-02T12:30:30Z</time>
      </trkpt>
      <trkpt lat="46.203283807262778" lon="10.589999807998538">
        <ele>2233.2800000000002</ele>
        <time>2015-08-02T12:30:37Z</time>
      </trkpt>
      <trkpt lat="46.203278694301844" lon="10.590037610381842">
        <ele>2231.8400000000001</ele>
        <time>2015-08-02T12:30:46Z</time>
      </trkpt>
      <trkpt lat="46.203257571905851" lon="10.59003266505897">
        <ele>2231.3600000000001</ele>
        <time>2015-08-02T12:30:48Z</time>
      </trkpt>
      <trkpt lat="46.203178195282817" lon="10.589977512136102">
        <ele>2229.4299999999998</ele>
        <time>2015-08-02T12:31:00Z</time>
      </trkpt>
      <trkpt lat="46.203170567750931" lon="10.5900086928159">
        <ele>2227.9899999999998</ele>
        <time>2015-08-02T12:31:07Z</time>
      </trkpt>
      <trkpt lat="46.203202586621046" lon="10.59008932672441">
        <ele>2226.0700000000002</ele>
        <time>2015-08-02T12:31:16Z</time>
      </trkpt>
      <trkpt lat="46.203215159475803" lon="10.590134505182505">
        <ele>2226.0700000000002</ele>
        <time>2015-08-02T12:31:20Z</time>
      </trkpt>
      <trkpt lat="46.203238880261779" lon="10.590224275365472">
        <ele>2224.6300000000001</ele>
        <time>2015-08-02T12:31:30Z</time>
      </trkpt>
      <trkpt lat="46.203248603269458" lon="10.590307842940092">
        <ele>2222.71</ele>
        <time>2015-08-02T12:31:39Z</time>
      </trkpt>
      <trkpt lat="46.203242316842079" lon="10.590392164885998">
        <ele>2220.7800000000002</ele>
        <time>2015-08-02T12:31:49Z</time>
      </trkpt>
      <trkpt lat="46.203252878040075" lon="10.590424854308367">
        <ele>2219.8200000000002</ele>
        <time>2015-08-02T12:31:55Z</time>
      </trkpt>
      <trkpt lat="46.203240640461445" lon="10.590443210676312">
        <ele>2218.8600000000001</ele>
        <time>2015-08-02T12:31:57Z</time>
      </trkpt>
      <trkpt lat="46.203236868605018" lon="10.590511187911034">
        <ele>2217.4200000000001</ele>
        <time>2015-08-02T12:32:06Z</time>
      </trkpt>
      <trkpt lat="46.203233767300844" lon="10.590558545663953">
        <ele>2216.46</ele>
        <time>2015-08-02T12:32:10Z</time>
      </trkpt>
      <trkpt lat="46.203250279650092" lon="10.590597772970796">
        <ele>2215.5</ele>
        <time>2015-08-02T12:32:14Z</time>
      </trkpt>
      <trkpt lat="46.203262349590659" lon="10.590678742155433">
        <ele>2213.5700000000002</ele>
        <time>2015-08-02T12:32:21Z</time>
      </trkpt>
      <trkpt lat="46.203293530270457" lon="10.5907719489187">
        <ele>2211.6500000000001</ele>
        <time>2015-08-02T12:32:30Z</time>
      </trkpt>
      <trkpt lat="46.20326922275126" lon="10.590822994709015">
        <ele>2210.6900000000001</ele>
        <time>2015-08-02T12:32:34Z</time>
      </trkpt>
      <trkpt lat="46.203299984335899" lon="10.590958446264267">
        <ele>2207.8099999999999</ele>
        <time>2015-08-02T12:32:47Z</time>
      </trkpt>
      <trkpt lat="46.203359495848417" lon="10.591072272509336">
        <ele>2205.8800000000001</ele>
        <time>2015-08-02T12:32:58Z</time>
      </trkpt>
      <trkpt lat="46.203362680971622" lon="10.591082833707333">
        <ele>2205.8800000000001</ele>
        <time>2015-08-02T12:32:59Z</time>
      </trkpt>
      <trkpt lat="46.203376175835729" lon="10.591131951659918">
        <ele>2205.4000000000001</ele>
        <time>2015-08-02T12:33:03Z</time>
      </trkpt>
      <trkpt lat="46.203389251604676" lon="10.59119364246726">
        <ele>2204.4400000000001</ele>
        <time>2015-08-02T12:33:08Z</time>
      </trkpt>
      <trkpt lat="46.203398890793324" lon="10.591332111507654">
        <ele>2202.52</ele>
        <time>2015-08-02T12:33:20Z</time>
      </trkpt>
      <trkpt lat="46.203405261039734" lon="10.591355580836535">
        <ele>2202.04</ele>
        <time>2015-08-02T12:33:22Z</time>
      </trkpt>
      <trkpt lat="46.203408446162939" lon="10.591476447880268">
        <ele>2200.1100000000001</ele>
        <time>2015-08-02T12:33:32Z</time>
      </trkpt>
      <trkpt lat="46.203421102836728" lon="10.591558841988444">
        <ele>2198.6700000000001</ele>
        <time>2015-08-02T12:33:44Z</time>
      </trkpt>
      <trkpt lat="46.203423868864775" lon="10.591617347672582">
        <ele>2197.71</ele>
        <time>2015-08-02T12:33:54Z</time>
      </trkpt>
      <trkpt lat="46.203427975997329" lon="10.591696975752711">
        <ele>2197.23</ele>
        <time>2015-08-02T12:34:07Z</time>
      </trkpt>
      <trkpt lat="46.203427724540234" lon="10.59171692468226">
        <ele>2196.27</ele>
        <time>2015-08-02T12:34:09Z</time>
      </trkpt>
      <trkpt lat="46.203453624621034" lon="10.591838294640183">
        <ele>2195.3099999999999</ele>
        <time>2015-08-02T12:34:20Z</time>
      </trkpt>
      <trkpt lat="46.203438704833388" lon="10.591876097023487">
        <ele>2194.3499999999999</ele>
        <time>2015-08-02T12:34:26Z</time>
      </trkpt>
      <trkpt lat="46.203457396477461" lon="10.591966956853867">
        <ele>2192.9000000000001</ele>
        <time>2015-08-02T12:34:37Z</time>
      </trkpt>
      <trkpt lat="46.203457480296493" lon="10.59197248890996">
        <ele>2192.9000000000001</ele>
        <time>2015-08-02T12:34:38Z</time>
      </trkpt>
      <trkpt lat="46.20342998765409" lon="10.592073407024145">
        <ele>2190.5</ele>
        <time>2015-08-02T12:34:47Z</time>
      </trkpt>
      <trkpt lat="46.203417330980301" lon="10.592115903273225">
        <ele>2190.02</ele>
        <time>2015-08-02T12:34:50Z</time>
      </trkpt>
      <trkpt lat="46.203434849157929" lon="10.59215571731329">
        <ele>2189.54</ele>
        <time>2015-08-02T12:34:54Z</time>
      </trkpt>
      <trkpt lat="46.203464018180966" lon="10.592204919084907">
        <ele>2188.5799999999999</ele>
        <time>2015-08-02T12:35:00Z</time>
      </trkpt>
      <trkpt lat="46.203481703996658" lon="10.592214222997427">
        <ele>2188.5799999999999</ele>
        <time>2015-08-02T12:35:02Z</time>
      </trkpt>
      <trkpt lat="46.203513639047742" lon="10.592269292101264">
        <ele>2187.6199999999999</ele>
        <time>2015-08-02T12:35:07Z</time>
      </trkpt>
      <trkpt lat="46.203577760607004" lon="10.592368617653847">
        <ele>2185.6900000000001</ele>
        <time>2015-08-02T12:35:17Z</time>
      </trkpt>
      <trkpt lat="46.203584047034383" lon="10.592376412823796">
        <ele>2185.6900000000001</ele>
        <time>2015-08-02T12:35:18Z</time>
      </trkpt>
      <trkpt lat="46.203664764761925" lon="10.592397199943662">
        <ele>2183.77</ele>
        <time>2015-08-02T12:35:28Z</time>
      </trkpt>
      <trkpt lat="46.203797617927194" lon="10.592428799718618">
        <ele>2181.8499999999999</ele>
        <time>2015-08-02T12:35:42Z</time>
      </trkpt>
      <trkpt lat="46.203829050064087" lon="10.592478755861521">
        <ele>2181.3699999999999</ele>
        <time>2015-08-02T12:35:47Z</time>
      </trkpt>
      <trkpt lat="46.20372905395925" lon="10.592532232403755">
        <ele>2179.4499999999998</ele>
        <time>2015-08-02T12:35:58Z</time>
      </trkpt>
      <trkpt lat="46.203688066452742" lon="10.592592163011432">
        <ele>2177.04</ele>
        <time>2015-08-02T12:36:09Z</time>
      </trkpt>
      <trkpt lat="46.203655209392309" lon="10.592589313164353">
        <ele>2176.5599999999999</ele>
        <time>2015-08-02T12:36:14Z</time>
      </trkpt>
      <trkpt lat="46.203609025105834" lon="10.592620493844151">
        <ele>2174.6399999999999</ele>
        <time>2015-08-02T12:36:22Z</time>
      </trkpt>
      <trkpt lat="46.203567534685135" lon="10.592662403360009">
        <ele>2172.2399999999998</ele>
        <time>2015-08-02T12:36:33Z</time>
      </trkpt>
      <trkpt lat="46.203598715364933" lon="10.592720154672861">
        <ele>2170.3099999999999</ele>
        <time>2015-08-02T12:36:41Z</time>
      </trkpt>
      <trkpt lat="46.203615898266435" lon="10.59272694401443">
        <ele>2169.8299999999999</ele>
        <time>2015-08-02T12:36:43Z</time>
      </trkpt>
      <trkpt lat="46.203641463071108" lon="10.5927181430161">
        <ele>2169.8299999999999</ele>
        <time>2015-08-02T12:36:46Z</time>
      </trkpt>
      <trkpt lat="46.2037109490484" lon="10.592726105824113">
        <ele>2167.4299999999998</ele>
        <time>2015-08-02T12:36:57Z</time>
      </trkpt>
      <trkpt lat="46.203681863844395" lon="10.592793915420771">
        <ele>2165.9899999999998</ele>
        <time>2015-08-02T12:37:06Z</time>
      </trkpt>
      <trkpt lat="46.203660573810339" lon="10.592818055301905">
        <ele>2164.5500000000002</ele>
        <time>2015-08-02T12:37:15Z</time>
      </trkpt>
      <trkpt lat="46.203683037310839" lon="10.592823084443808">
        <ele>2163.5799999999999</ele>
        <time>2015-08-02T12:37:19Z</time>
      </trkpt>
      <trkpt lat="46.20367331430316" lon="10.592868346720934">
        <ele>2162.1399999999999</ele>
        <time>2015-08-02T12:37:28Z</time>
      </trkpt>
      <trkpt lat="46.203658729791641" lon="10.592881506308913">
        <ele>2161.6599999999999</ele>
        <time>2015-08-02T12:37:30Z</time>
      </trkpt>
      <trkpt lat="46.203618664294481" lon="10.592896258458495">
        <ele>2160.2199999999998</ele>
        <time>2015-08-02T12:37:40Z</time>
      </trkpt>
      <trkpt lat="46.203581364825368" lon="10.59294487349689">
        <ele>2158.3000000000002</ele>
        <time>2015-08-02T12:37:48Z</time>
      </trkpt>
      <trkpt lat="46.203492432832718" lon="10.592965576797724">
        <ele>2156.8600000000001</ele>
        <time>2015-08-02T12:37:58Z</time>
      </trkpt>
      <trkpt lat="46.203438118100166" lon="10.592993991449475">
        <ele>2155.4099999999999</ele>
        <time>2015-08-02T12:38:08Z</time>
      </trkpt>
      <trkpt lat="46.203433843329549" lon="10.592996841296554">
        <ele>2155.4099999999999</ele>
        <time>2015-08-02T12:38:09Z</time>
      </trkpt>
      <trkpt lat="46.203363686800003" lon="10.592939844354987">
        <ele>2155.8899999999999</ele>
        <time>2015-08-02T12:38:20Z</time>
      </trkpt>
      <trkpt lat="46.203373242169619" lon="10.592948142439127">
        <ele>2155.8899999999999</ele>
        <time>2015-08-02T12:38:51Z</time>
      </trkpt>
      <trkpt lat="46.203433927148581" lon="10.592960380017757">
        <ele>2155.4099999999999</ele>
        <time>2015-08-02T12:38:59Z</time>
      </trkpt>
      <trkpt lat="46.203495534136891" lon="10.593011593446136">
        <ele>2153.0100000000002</ele>
        <time>2015-08-02T12:39:08Z</time>
      </trkpt>
      <trkpt lat="46.20354238897562" lon="10.593075631186366">
        <ele>2151.5700000000002</ele>
        <time>2015-08-02T12:39:14Z</time>
      </trkpt>
      <trkpt lat="46.203554207459092" lon="10.593117708340287">
        <ele>2150.6100000000001</ele>
        <time>2015-08-02T12:39:18Z</time>
      </trkpt>
      <trkpt lat="46.203580610454082" lon="10.593141093850136">
        <ele>2150.1300000000001</ele>
        <time>2015-08-02T12:39:21Z</time>
      </trkpt>
      <trkpt lat="46.203599469736218" lon="10.593192810192704">
        <ele>2149.1599999999999</ele>
        <time>2015-08-02T12:39:26Z</time>
      </trkpt>
      <trkpt lat="46.20365671813488" lon="10.593251483514905">
        <ele>2148.1999999999998</ele>
        <time>2015-08-02T12:39:33Z</time>
      </trkpt>
      <trkpt lat="46.203693766146898" lon="10.593322813510895">
        <ele>2145.3200000000002</ele>
        <time>2015-08-02T12:39:42Z</time>
      </trkpt>
      <trkpt lat="46.203713295981288" lon="10.59334016405046">
        <ele>2144.3600000000001</ele>
        <time>2015-08-02T12:39:45Z</time>
      </trkpt>
      <trkpt lat="46.203760067000985" lon="10.593334967270494">
        <ele>2143.8800000000001</ele>
        <time>2015-08-02T12:39:50Z</time>
      </trkpt>
      <trkpt lat="46.203829050064087" lon="10.593355754390359">
        <ele>2142.9200000000001</ele>
        <time>2015-08-02T12:39:56Z</time>
      </trkpt>
      <trkpt lat="46.203876994550228" lon="10.593365477398038">
        <ele>2141.9499999999998</ele>
        <time>2015-08-02T12:40:01Z</time>
      </trkpt>
      <trkpt lat="46.203979672864079" lon="10.593339744955301">
        <ele>2140.9899999999998</ele>
        <time>2015-08-02T12:40:12Z</time>
      </trkpt>
      <trkpt lat="46.204020073637366" lon="10.593328764662147">
        <ele>2140.5100000000002</ele>
        <time>2015-08-02T12:40:19Z</time>
      </trkpt>
      <trkpt lat="46.204129960387945" lon="10.593356257304549">
        <ele>2138.5900000000001</ele>
        <time>2015-08-02T12:40:29Z</time>
      </trkpt>
      <trkpt lat="46.204213025048375" lon="10.593399256467819">
        <ele>2137.6300000000001</ele>
        <time>2015-08-02T12:40:38Z</time>
      </trkpt>
      <trkpt lat="46.204252587631345" lon="10.593428509309888">
        <ele>2137.1500000000001</ele>
        <time>2015-08-02T12:40:44Z</time>
      </trkpt>
      <trkpt lat="46.204298855736852" lon="10.593471173197031">
        <ele>2136.1900000000001</ele>
        <time>2015-08-02T12:40:49Z</time>
      </trkpt>
      <trkpt lat="46.204324504360557" lon="10.593513669446111">
        <ele>2135.71</ele>
        <time>2015-08-02T12:40:53Z</time>
      </trkpt>
      <trkpt lat="46.204367000609636" lon="10.593546442687511">
        <ele>2134.7399999999998</ele>
        <time>2015-08-02T12:40:57Z</time>
      </trkpt>
      <trkpt lat="46.204404551535845" lon="10.593655910342932">
        <ele>2133.7800000000002</ele>
        <time>2015-08-02T12:41:05Z</time>
      </trkpt>
      <trkpt lat="46.20442827232182" lon="10.593713410198689">
        <ele>2133.3000000000002</ele>
        <time>2015-08-02T12:41:09Z</time>
      </trkpt>
      <trkpt lat="46.204439336434007" lon="10.593757582828403">
        <ele>2133.3000000000002</ele>
        <time>2015-08-02T12:41:12Z</time>
      </trkpt>
      <trkpt lat="46.204447466880083" lon="10.593781555071473">
        <ele>2133.3000000000002</ele>
        <time>2015-08-02T12:41:14Z</time>
      </trkpt>
      <trkpt lat="46.204433469101787" lon="10.593953803181648">
        <ele>2130.9000000000001</ele>
        <time>2015-08-02T12:41:25Z</time>
      </trkpt>
      <trkpt lat="46.204405557364225" lon="10.594069473445415">
        <ele>2129.46</ele>
        <time>2015-08-02T12:41:36Z</time>
      </trkpt>
      <trkpt lat="46.204387871548533" lon="10.594132589176297">
        <ele>2128.02</ele>
        <time>2015-08-02T12:41:45Z</time>
      </trkpt>
      <trkpt lat="46.204377729445696" lon="10.594201488420367">
        <ele>2126.5700000000002</ele>
        <time>2015-08-02T12:41:55Z</time>
      </trkpt>
      <trkpt lat="46.20435107499361" lon="10.594281619414687">
        <ele>2125.1300000000001</ele>
        <time>2015-08-02T12:42:04Z</time>
      </trkpt>
      <trkpt lat="46.204317547380924" lon="10.594374155625701">
        <ele>2122.73</ele>
        <time>2015-08-02T12:42:15Z</time>
      </trkpt>
      <trkpt lat="46.204259628430009" lon="10.594406509771943">
        <ele>2120.3200000000002</ele>
        <time>2015-08-02T12:42:25Z</time>
      </trkpt>
      <trkpt lat="46.204168349504471" lon="10.594488149508834">
        <ele>2119.3600000000001</ele>
        <time>2015-08-02T12:42:37Z</time>
      </trkpt>
      <trkpt lat="46.204158375039697" lon="10.594496699050069">
        <ele>2119.3600000000001</ele>
        <time>2015-08-02T12:42:38Z</time>
      </trkpt>
      <trkpt lat="46.204142617061734" lon="10.594518408179283">
        <ele>2118.8800000000001</ele>
        <time>2015-08-02T12:42:42Z</time>
      </trkpt>
      <trkpt lat="46.204074388369918" lon="10.594635838642716">
        <ele>2117.4400000000001</ele>
        <time>2015-08-02T12:42:54Z</time>
      </trkpt>
      <trkpt lat="46.204057205468416" lon="10.594678670167923">
        <ele>2116</ele>
        <time>2015-08-02T12:43:04Z</time>
      </trkpt>
      <trkpt lat="46.204059636220336" lon="10.594764417037368">
        <ele>2114.5599999999999</ele>
        <time>2015-08-02T12:43:16Z</time>
      </trkpt>
      <trkpt lat="46.204034993425012" lon="10.594824347645044">
        <ele>2112.1500000000001</ele>
        <time>2015-08-02T12:43:27Z</time>
      </trkpt>
      <trkpt lat="46.204011105000973" lon="10.594860389828682">
        <ele>2111.6700000000001</ele>
        <time>2015-08-02T12:43:36Z</time>
      </trkpt>
      <trkpt lat="46.203982522711158" lon="10.594914704561234">
        <ele>2110.23</ele>
        <time>2015-08-02T12:43:45Z</time>
      </trkpt>
      <trkpt lat="46.203970788046718" lon="10.594903053715825">
        <ele>2110.23</ele>
        <time>2015-08-02T12:43:56Z</time>
      </trkpt>
      <trkpt lat="46.203974895179272" lon="10.594872543588281">
        <ele>2109.75</ele>
        <time>2015-08-02T12:44:12Z</time>
      </trkpt>
      <trkpt lat="46.203985037282109" lon="10.594871118664742">
        <ele>2110.23</ele>
        <time>2015-08-02T12:44:25Z</time>
      </trkpt>
      <trkpt lat="46.203960478305817" lon="10.594955608248711">
        <ele>2109.75</ele>
        <time>2015-08-02T12:44:36Z</time>
      </trkpt>
      <trkpt lat="46.203955532982945" lon="10.594996931031346">
        <ele>2109.75</ele>
        <time>2015-08-02T12:44:47Z</time>
      </trkpt>
      <trkpt lat="46.203954359516501" lon="10.595021154731512">
        <ele>2109.75</ele>
        <time>2015-08-02T12:45:00Z</time>
      </trkpt>
      <trkpt lat="46.203950755298138" lon="10.595017382875085">
        <ele>2109.75</ele>
        <time>2015-08-02T12:45:14Z</time>
      </trkpt>
      <trkpt lat="46.203938769176602" lon="10.595025010406971">
        <ele>2109.27</ele>
        <time>2015-08-02T12:45:31Z</time>
      </trkpt>
      <trkpt lat="46.203948156908154" lon="10.595034901052713">
        <ele>2109.27</ele>
        <time>2015-08-02T12:45:51Z</time>
      </trkpt>
      <trkpt lat="46.203955616801977" lon="10.595024675130844">
        <ele>2109.27</ele>
        <time>2015-08-02T12:46:05Z</time>
      </trkpt>
      <trkpt lat="46.203955365344882" lon="10.59503766708076">
        <ele>2109.27</ele>
        <time>2015-08-02T12:46:23Z</time>
      </trkpt>
      <trkpt lat="46.203956203535199" lon="10.595035655423999">
        <ele>2109.27</ele>
        <time>2015-08-02T12:46:38Z</time>
      </trkpt>
      <trkpt lat="46.203969698399305" lon="10.595029704272747">
        <ele>2109.27</ele>
        <time>2015-08-02T12:46:57Z</time>
      </trkpt>
      <trkpt lat="46.203971039503813" lon="10.595029117539525">
        <ele>2109.27</ele>
        <time>2015-08-02T12:47:16Z</time>
      </trkpt>
      <trkpt lat="46.203962154686451" lon="10.595024675130844">
        <ele>2109.27</ele>
        <time>2015-08-02T12:47:27Z</time>
      </trkpt>
      <trkpt lat="46.203919406980276" lon="10.59508410282433">
        <ele>2108.79</ele>
        <time>2015-08-02T12:47:35Z</time>
      </trkpt>
      <trkpt lat="46.203905241563916" lon="10.595204550772905">
        <ele>2109.27</ele>
        <time>2015-08-02T12:47:46Z</time>
      </trkpt>
      <trkpt lat="46.203893171623349" lon="10.595317119732499">
        <ele>2110.23</ele>
        <time>2015-08-02T12:47:57Z</time>
      </trkpt>
      <trkpt lat="46.203871546313167" lon="10.595435556024313">
        <ele>2110.23</ele>
        <time>2015-08-02T12:48:08Z</time>
      </trkpt>
      <trkpt lat="46.203857129439712" lon="10.595492636784911">
        <ele>2109.75</ele>
        <time>2015-08-02T12:48:17Z</time>
      </trkpt>
      <trkpt lat="46.203827122226357" lon="10.595539072528481">
        <ele>2109.27</ele>
        <time>2015-08-02T12:48:27Z</time>
      </trkpt>
      <trkpt lat="46.203819746151567" lon="10.595546113327146">
        <ele>2108.79</ele>
        <time>2015-08-02T12:48:28Z</time>
      </trkpt>
      <trkpt lat="46.203787392005324" lon="10.595634710043669">
        <ele>2107.3499999999999</ele>
        <time>2015-08-02T12:48:39Z</time>
      </trkpt>
      <trkpt lat="46.203773310407996" lon="10.595680559054017">
        <ele>2106.8699999999999</ele>
        <time>2015-08-02T12:48:46Z</time>
      </trkpt>
      <trkpt lat="46.203744811937213" lon="10.595708806067705">
        <ele>2105.9099999999999</ele>
        <time>2015-08-02T12:48:51Z</time>
      </trkpt>
      <trkpt lat="46.203689994290471" lon="10.595780974254012">
        <ele>2104.46</ele>
        <time>2015-08-02T12:49:03Z</time>
      </trkpt>
      <trkpt lat="46.203685300424695" lon="10.595784159377217">
        <ele>2103.98</ele>
        <time>2015-08-02T12:49:04Z</time>
      </trkpt>
      <trkpt lat="46.203662836924195" lon="10.595841407775879">
        <ele>2103.02</ele>
        <time>2015-08-02T12:49:13Z</time>
      </trkpt>
      <trkpt lat="46.203628554940224" lon="10.595887424424291">
        <ele>2101.5799999999999</ele>
        <time>2015-08-02T12:49:19Z</time>
      </trkpt>
      <trkpt lat="46.203562673181295" lon="10.595962610095739">
        <ele>2099.1799999999998</ele>
        <time>2015-08-02T12:49:30Z</time>
      </trkpt>
      <trkpt lat="46.203517578542233" lon="10.596048692241311">
        <ele>2097.25</ele>
        <time>2015-08-02T12:49:40Z</time>
      </trkpt>
      <trkpt lat="46.203509112820029" lon="10.596081800758839">
        <ele>2096.77</ele>
        <time>2015-08-02T12:49:43Z</time>
      </trkpt>
      <trkpt lat="46.203494695946574" lon="10.596194704994559">
        <ele>2095.3299999999999</ele>
        <time>2015-08-02T12:49:53Z</time>
      </trkpt>
      <trkpt lat="46.203472064808011" lon="10.596236111596227">
        <ele>2093.8899999999999</ele>
        <time>2015-08-02T12:50:00Z</time>
      </trkpt>
      <trkpt lat="46.203451445326209" lon="10.596305010840297">
        <ele>2091.9699999999998</ele>
        <time>2015-08-02T12:50:09Z</time>
      </trkpt>
      <trkpt lat="46.203425042331219" lon="10.596414394676685">
        <ele>2089.0799999999999</ele>
        <time>2015-08-02T12:50:20Z</time>
      </trkpt>
      <trkpt lat="46.203399142250419" lon="10.596501985564828">
        <ele>2086.6799999999998</ele>
        <time>2015-08-02T12:50:30Z</time>
      </trkpt>
      <trkpt lat="46.20334398932755" lon="10.596513384953141">
        <ele>2084.7600000000002</ele>
        <time>2015-08-02T12:50:40Z</time>
      </trkpt>
      <trkpt lat="46.203313982114196" lon="10.596395451575518">
        <ele>2082.8299999999999</ele>
        <time>2015-08-02T12:50:48Z</time>
      </trkpt>
      <trkpt lat="46.203263271600008" lon="10.596316158771515">
        <ele>2080.4299999999998</ele>
        <time>2015-08-02T12:50:58Z</time>
      </trkpt>
      <trkpt lat="46.203261679038405" lon="10.596363935619593">
        <ele>2078.5100000000002</ele>
        <time>2015-08-02T12:51:10Z</time>
      </trkpt>
      <trkpt lat="46.203256146982312" lon="10.596492094919086">
        <ele>2075.6199999999999</ele>
        <time>2015-08-02T12:51:20Z</time>
      </trkpt>
      <trkpt lat="46.20325748808682" lon="10.596664762124419">
        <ele>2071.7800000000002</ele>
        <time>2015-08-02T12:51:33Z</time>
      </trkpt>
      <trkpt lat="46.203206777572632" lon="10.596678424626589">
        <ele>2067.9299999999998</ele>
        <time>2015-08-02T12:51:42Z</time>
      </trkpt>
      <trkpt lat="46.203181212767959" lon="10.596724189817905">
        <ele>2067.9299999999998</ele>
        <time>2015-08-02T12:51:52Z</time>
      </trkpt>
      <trkpt lat="46.203199820592999" lon="10.59675520285964">
        <ele>2066.9699999999998</ele>
        <time>2015-08-02T12:51:55Z</time>
      </trkpt>
      <trkpt lat="46.20323795825243" lon="10.596824940294027">
        <ele>2065.0500000000002</ele>
        <time>2015-08-02T12:52:03Z</time>
      </trkpt>
      <trkpt lat="46.203163946047425" lon="10.596800716593862">
        <ele>2063.6100000000001</ele>
        <time>2015-08-02T12:52:12Z</time>
      </trkpt>
      <trkpt lat="46.203164616599679" lon="10.596821252256632">
        <ele>2062.6500000000001</ele>
        <time>2015-08-02T12:52:17Z</time>
      </trkpt>
      <trkpt lat="46.203234270215034" lon="10.596918063238263">
        <ele>2060.7199999999998</ele>
        <time>2015-08-02T12:52:27Z</time>
      </trkpt>
      <trkpt lat="46.203255727887154" lon="10.596992578357458">
        <ele>2059.7600000000002</ele>
        <time>2015-08-02T12:52:35Z</time>
      </trkpt>
      <trkpt lat="46.203202921897173" lon="10.597025016322732">
        <ele>2056.8800000000001</ele>
        <time>2015-08-02T12:52:45Z</time>
      </trkpt>
      <trkpt lat="46.203137459233403" lon="10.596998697146773">
        <ele>2055.4400000000001</ele>
        <time>2015-08-02T12:52:55Z</time>
      </trkpt>
      <trkpt lat="46.20313536375761" lon="10.597034823149443">
        <ele>2052.5500000000002</ele>
        <time>2015-08-02T12:53:06Z</time>
      </trkpt>
      <trkpt lat="46.203151037916541" lon="10.597047731280327">
        <ele>2052.5500000000002</ele>
        <time>2015-08-02T12:53:08Z</time>
      </trkpt>
      <trkpt lat="46.203187834471464" lon="10.597063656896353">
        <ele>2051.5900000000001</ele>
        <time>2015-08-02T12:53:12Z</time>
      </trkpt>
      <trkpt lat="46.203226055949926" lon="10.597178572788835">
        <ele>2049.1900000000001</ele>
        <time>2015-08-02T12:53:23Z</time>
      </trkpt>
      <trkpt lat="46.203236617147923" lon="10.597266247496009">
        <ele>2047.26</ele>
        <time>2015-08-02T12:53:33Z</time>
      </trkpt>
      <trkpt lat="46.203213902190328" lon="10.597349144518375">
        <ele>2044.3800000000001</ele>
        <time>2015-08-02T12:53:43Z</time>
      </trkpt>
      <trkpt lat="46.203179201111197" lon="10.597388707101345">
        <ele>2041.98</ele>
        <time>2015-08-02T12:53:52Z</time>
      </trkpt>
      <trkpt lat="46.2031324300915" lon="10.597309162840247">
        <ele>2040.05</ele>
        <time>2015-08-02T12:54:03Z</time>
      </trkpt>
      <trkpt lat="46.203138129785657" lon="10.597379319369793">
        <ele>2038.1300000000001</ele>
        <time>2015-08-02T12:54:11Z</time>
      </trkpt>
      <trkpt lat="46.20316905900836" lon="10.597475795075297">
        <ele>2036.6900000000001</ele>
        <time>2015-08-02T12:54:21Z</time>
      </trkpt>
      <trkpt lat="46.20312312617898" lon="10.597435059025884">
        <ele>2034.77</ele>
        <time>2015-08-02T12:54:30Z</time>
      </trkpt>
      <trkpt lat="46.203075600787997" lon="10.597353503108025">
        <ele>2032.8399999999999</ele>
        <time>2015-08-02T12:54:40Z</time>
      </trkpt>
      <trkpt lat="46.203049449250102" lon="10.597331710159779">
        <ele>2031.8800000000001</ele>
        <time>2015-08-02T12:54:45Z</time>
      </trkpt>
      <trkpt lat="46.203030338510871" lon="10.597319388762116">
        <ele>2031.4000000000001</ele>
        <time>2015-08-02T12:54:48Z</time>
      </trkpt>
      <trkpt lat="46.202941155061126" lon="10.5972770601511">
        <ele>2029.48</ele>
        <time>2015-08-02T12:54:59Z</time>
      </trkpt>
      <trkpt lat="46.202870076522231" lon="10.597170777618885">
        <ele>2028.04</ele>
        <time>2015-08-02T12:55:10Z</time>
      </trkpt>
      <trkpt lat="46.202864125370979" lon="10.597220901399851">
        <ele>2026.1199999999999</ele>
        <time>2015-08-02T12:55:17Z</time>
      </trkpt>
      <trkpt lat="46.202889690175653" lon="10.597307318821549">
        <ele>2024.1900000000001</ele>
        <time>2015-08-02T12:55:25Z</time>
      </trkpt>
      <trkpt lat="46.202951967716217" lon="10.597394239157438">
        <ele>2022.27</ele>
        <time>2015-08-02T12:55:36Z</time>
      </trkpt>
      <trkpt lat="46.202968480065465" lon="10.597507394850254">
        <ele>2019.8699999999999</ele>
        <time>2015-08-02T12:55:47Z</time>
      </trkpt>
      <trkpt lat="46.202979544177651" lon="10.597573444247246">
        <ele>2018.4300000000001</ele>
        <time>2015-08-02T12:55:56Z</time>
      </trkpt>
      <trkpt lat="46.202971916645765" lon="10.597632536664605">
        <ele>2016.5</ele>
        <time>2015-08-02T12:56:06Z</time>
      </trkpt>
      <trkpt lat="46.202945346012712" lon="10.597610324621201">
        <ele>2014.5799999999999</ele>
        <time>2015-08-02T12:56:15Z</time>
      </trkpt>
      <trkpt lat="46.202890193089843" lon="10.597579143941402">
        <ele>2013.1400000000001</ele>
        <time>2015-08-02T12:56:25Z</time>
      </trkpt>
      <trkpt lat="46.20283973403275" lon="10.597559614107013">
        <ele>2011.22</ele>
        <time>2015-08-02T12:56:34Z</time>
      </trkpt>
      <trkpt lat="46.202836213633418" lon="10.597566906362772">
        <ele>2009.77</ele>
        <time>2015-08-02T12:56:42Z</time>
      </trkpt>
      <trkpt lat="46.202873177826405" lon="10.597661370411515">
        <ele>2006.8900000000001</ele>
        <time>2015-08-02T12:56:53Z</time>
      </trkpt>
      <trkpt lat="46.202906286343932" lon="10.597737478092313">
        <ele>2004.49</ele>
        <time>2015-08-02T12:57:03Z</time>
      </trkpt>
      <trkpt lat="46.202830681577325" lon="10.597711494192481">
        <ele>2002.5599999999999</ele>
        <time>2015-08-02T12:57:12Z</time>
      </trkpt>
      <trkpt lat="46.202778881415725" lon="10.597713170573115">
        <ele>2000.6400000000001</ele>
        <time>2015-08-02T12:57:23Z</time>
      </trkpt>
      <trkpt lat="46.202816683799028" lon="10.597777292132378">
        <ele>1997.28</ele>
        <time>2015-08-02T12:57:32Z</time>
      </trkpt>
      <trkpt lat="46.202854653820395" lon="10.597891034558415">
        <ele>1996.3199999999999</ele>
        <time>2015-08-02T12:57:42Z</time>
      </trkpt>
      <trkpt lat="46.202817521989346" lon="10.597920119762421">
        <ele>1994.3900000000001</ele>
        <time>2015-08-02T12:57:53Z</time>
      </trkpt>
      <trkpt lat="46.20281140320003" lon="10.597917353734374">
        <ele>1994.3900000000001</ele>
        <time>2015-08-02T12:57:54Z</time>
      </trkpt>
      <trkpt lat="46.202761698514223" lon="10.597869409248233">
        <ele>1992.47</ele>
        <time>2015-08-02T12:58:03Z</time>
      </trkpt>
      <trkpt lat="46.202716771513224" lon="10.597839904949069">
        <ele>1990.55</ele>
        <time>2015-08-02T12:58:11Z</time>
      </trkpt>
      <trkpt lat="46.202657008543611" lon="10.597822554409504">
        <ele>1989.0999999999999</ele>
        <time>2015-08-02T12:58:20Z</time>
      </trkpt>
      <trkpt lat="46.202687434852123" lon="10.597916515544057">
        <ele>1985.74</ele>
        <time>2015-08-02T12:58:31Z</time>
      </trkpt>
      <trkpt lat="46.20270193554461" lon="10.597950713708997">
        <ele>1985.26</ele>
        <time>2015-08-02T12:58:34Z</time>
      </trkpt>
      <trkpt lat="46.20274493470788" lon="10.598029084503651">
        <ele>1982.8599999999999</ele>
        <time>2015-08-02T12:58:42Z</time>
      </trkpt>
      <trkpt lat="46.202700845897198" lon="10.598084321245551">
        <ele>1980.9300000000001</ele>
        <time>2015-08-02T12:58:54Z</time>
      </trkpt>
      <trkpt lat="46.202649800106883" lon="10.598089015111327">
        <ele>1977.5699999999999</ele>
        <time>2015-08-02T12:59:04Z</time>
      </trkpt>
      <trkpt lat="46.202619122341275" lon="10.598080549389124">
        <ele>1976.6099999999999</ele>
        <time>2015-08-02T12:59:08Z</time>
      </trkpt>
      <trkpt lat="46.202596910297871" lon="10.598079962655902">
        <ele>1976.1300000000001</ele>
        <time>2015-08-02T12:59:10Z</time>
      </trkpt>
      <trkpt lat="46.20250110514462" lon="10.597971333190799">
        <ele>1972.76</ele>
        <time>2015-08-02T12:59:22Z</time>
      </trkpt>
      <trkpt lat="46.202440252527595" lon="10.597925903275609">
        <ele>1971.8</ele>
        <time>2015-08-02T12:59:29Z</time>
      </trkpt>
      <trkpt lat="46.202369509264827" lon="10.597893130034208">
        <ele>1969.4000000000001</ele>
        <time>2015-08-02T12:59:38Z</time>
      </trkpt>
      <trkpt lat="46.202306393533945" lon="10.597892962396145">
        <ele>1966.51</ele>
        <time>2015-08-02T12:59:46Z</time>
      </trkpt>
      <trkpt lat="46.202304130420089" lon="10.597951132804155">
        <ele>1965.0699999999999</ele>
        <time>2015-08-02T12:59:51Z</time>
      </trkpt>
      <trkpt lat="46.202268926426768" lon="10.597993796691298">
        <ele>1961.71</ele>
        <time>2015-08-02T13:00:00Z</time>
      </trkpt>
      <trkpt lat="46.202225843444467" lon="10.597993712872267">
        <ele>1960.27</ele>
        <time>2015-08-02T13:00:04Z</time>
      </trkpt>
      <trkpt lat="46.202173121273518" lon="10.598045764490962">
        <ele>1957.8599999999999</ele>
        <time>2015-08-02T13:00:14Z</time>
      </trkpt>
      <trkpt lat="46.202239338308573" lon="10.598166631534696">
        <ele>1955.46</ele>
        <time>2015-08-02T13:00:24Z</time>
      </trkpt>
      <trkpt lat="46.202202206477523" lon="10.598156237974763">
        <ele>1952.5699999999999</ele>
        <time>2015-08-02T13:00:32Z</time>
      </trkpt>
      <trkpt lat="46.20212484151125" lon="10.598033694550395">
        <ele>1950.1700000000001</ele>
        <time>2015-08-02T13:00:42Z</time>
      </trkpt>
      <trkpt lat="46.202122243121266" lon="10.59806177392602">
        <ele>1948.73</ele>
        <time>2015-08-02T13:00:47Z</time>
      </trkpt>
      <trkpt lat="46.202162811532617" lon="10.598157830536366">
        <ele>1946.8099999999999</ele>
        <time>2015-08-02T13:00:58Z</time>
      </trkpt>
      <trkpt lat="46.202125428244472" lon="10.598227316513658">
        <ele>1944.4000000000001</ele>
        <time>2015-08-02T13:01:08Z</time>
      </trkpt>
      <trkpt lat="46.202065329998732" lon="10.598154477775097">
        <ele>1942.48</ele>
        <time>2015-08-02T13:01:18Z</time>
      </trkpt>
      <trkpt lat="46.202063150703907" lon="10.598140647634864">
        <ele>1942</ele>
        <time>2015-08-02T13:01:19Z</time>
      </trkpt>
      <trkpt lat="46.202011769637465" lon="10.598029168322682">
        <ele>1939.5999999999999</ele>
        <time>2015-08-02T13:01:29Z</time>
      </trkpt>
      <trkpt lat="46.20196751318872" lon="10.597975607961416">
        <ele>1937.1900000000001</ele>
        <time>2015-08-02T13:01:37Z</time>
      </trkpt>
      <trkpt lat="46.201923424378037" lon="10.59784384444356">
        <ele>1935.27</ele>
        <time>2015-08-02T13:01:50Z</time>
      </trkpt>
      <trkpt lat="46.201888304203749" lon="10.597749799489975">
        <ele>1934.79</ele>
        <time>2015-08-02T13:02:01Z</time>
      </trkpt>
      <trkpt lat="46.201840192079544" lon="10.597637481987476">
        <ele>1932.3900000000001</ele>
        <time>2015-08-02T13:02:11Z</time>
      </trkpt>
      <trkpt lat="46.201812196522951" lon="10.597562044858932">
        <ele>1929.98</ele>
        <time>2015-08-02T13:02:21Z</time>
      </trkpt>
      <trkpt lat="46.201779088005424" lon="10.597468754276633">
        <ele>1927.5799999999999</ele>
        <time>2015-08-02T13:02:31Z</time>
      </trkpt>
      <trkpt lat="46.201768778264523" lon="10.597437657415867">
        <ele>1926.6199999999999</ele>
        <time>2015-08-02T13:02:33Z</time>
      </trkpt>
      <trkpt lat="46.201763916760683" lon="10.597401028499007">
        <ele>1926.1400000000001</ele>
        <time>2015-08-02T13:02:35Z</time>
      </trkpt>
      <trkpt lat="46.201770287007093" lon="10.5972995236516">
        <ele>1925.1800000000001</ele>
        <time>2015-08-02T13:02:45Z</time>
      </trkpt>
      <trkpt lat="46.201747907325625" lon="10.597173208370805">
        <ele>1922.77</ele>
        <time>2015-08-02T13:02:55Z</time>
      </trkpt>
      <trkpt lat="46.201737010851502" lon="10.597093664109707">
        <ele>1920.8499999999999</ele>
        <time>2015-08-02T13:03:01Z</time>
      </trkpt>
      <trkpt lat="46.201730389147997" lon="10.596905909478664">
        <ele>1919.4100000000001</ele>
        <time>2015-08-02T13:03:12Z</time>
      </trkpt>
      <trkpt lat="46.201716894283891" lon="10.596850086003542">
        <ele>1916.53</ele>
        <time>2015-08-02T13:03:24Z</time>
      </trkpt>
      <trkpt lat="46.20168755762279" lon="10.596974305808544">
        <ele>1914.1199999999999</ele>
        <time>2015-08-02T13:03:37Z</time>
      </trkpt>
      <trkpt lat="46.201667357236147" lon="10.597097016870975">
        <ele>1911.24</ele>
        <time>2015-08-02T13:03:48Z</time>
      </trkpt>
      <trkpt lat="46.201613210141659" lon="10.597152253612876">
        <ele>1908.3499999999999</ele>
        <time>2015-08-02T13:03:59Z</time>
      </trkpt>
      <trkpt lat="46.201607007533312" lon="10.59703515842557">
        <ele>1905.47</ele>
        <time>2015-08-02T13:04:10Z</time>
      </trkpt>
      <trkpt lat="46.201569205150008" lon="10.596872130408883">
        <ele>1903.0699999999999</ele>
        <time>2015-08-02T13:04:23Z</time>
      </trkpt>
      <trkpt lat="46.201528636738658" lon="10.596849247813225">
        <ele>1900.1800000000001</ele>
        <time>2015-08-02T13:04:34Z</time>
      </trkpt>
      <trkpt lat="46.201476501300931" lon="10.596937425434589">
        <ele>1896.8199999999999</ele>
        <time>2015-08-02T13:04:46Z</time>
      </trkpt>
      <trkpt lat="46.201475411653519" lon="10.597038846462965">
        <ele>1894.9000000000001</ele>
        <time>2015-08-02T13:04:55Z</time>
      </trkpt>
      <trkpt lat="46.201463174074888" lon="10.597029877826571">
        <ele>1894.4200000000001</ele>
        <time>2015-08-02T13:04:57Z</time>
      </trkpt>
      <trkpt lat="46.201403411105275" lon="10.596924517303705">
        <ele>1891.53</ele>
        <time>2015-08-02T13:05:09Z</time>
      </trkpt>
      <trkpt lat="46.201414726674557" lon="10.59679233469069">
        <ele>1888.6500000000001</ele>
        <time>2015-08-02T13:05:20Z</time>
      </trkpt>
      <trkpt lat="46.201404500752687" lon="10.596682615578175">
        <ele>1886.24</ele>
        <time>2015-08-02T13:05:31Z</time>
      </trkpt>
      <trkpt lat="46.201408188790083" lon="10.596640035510063">
        <ele>1884.3199999999999</ele>
        <time>2015-08-02T13:05:36Z</time>
      </trkpt>
      <trkpt lat="46.201368290930986" lon="10.596631821244955">
        <ele>1881.9200000000001</ele>
        <time>2015-08-02T13:05:47Z</time>
      </trkpt>
      <trkpt lat="46.201355131343007" lon="10.596707174554467">
        <ele>1880.48</ele>
        <time>2015-08-02T13:05:56Z</time>
      </trkpt>
      <trkpt lat="46.201314814388752" lon="10.596671551465988">
        <ele>1878.0699999999999</ele>
        <time>2015-08-02T13:06:07Z</time>
      </trkpt>
      <trkpt lat="46.201265444979072" lon="10.596634084358811">
        <ele>1875.6700000000001</ele>
        <time>2015-08-02T13:06:19Z</time>
      </trkpt>
      <trkpt lat="46.201218422502279" lon="10.596672305837274">
        <ele>1873.75</ele>
        <time>2015-08-02T13:06:28Z</time>
      </trkpt>
      <trkpt lat="46.201203670352697" lon="10.596632240340114">
        <ele>1872.3</ele>
        <time>2015-08-02T13:06:36Z</time>
      </trkpt>
      <trkpt lat="46.201199144124985" lon="10.596542553976178">
        <ele>1870.8599999999999</ele>
        <time>2015-08-02T13:06:44Z</time>
      </trkpt>
      <trkpt lat="46.2011759262532" lon="10.596524700522423">
        <ele>1869.9000000000001</ele>
        <time>2015-08-02T13:06:55Z</time>
      </trkpt>
      <trkpt lat="46.201172573491931" lon="10.596501398831606">
        <ele>1869.4200000000001</ele>
        <time>2015-08-02T13:07:03Z</time>
      </trkpt>
      <trkpt lat="46.201162599027157" lon="10.596475582569838">
        <ele>1868.9400000000001</ele>
        <time>2015-08-02T13:07:21Z</time>
      </trkpt>
      <trkpt lat="46.201109876856208" lon="10.596418417990208">
        <ele>1867.02</ele>
        <time>2015-08-02T13:07:26Z</time>
      </trkpt>
      <trkpt lat="46.20109336450696" lon="10.59635890647769">
        <ele>1866.0599999999999</ele>
        <time>2015-08-02T13:07:31Z</time>
      </trkpt>
      <trkpt lat="46.20107626542449" lon="10.596315488219261">
        <ele>1865.5799999999999</ele>
        <time>2015-08-02T13:07:34Z</time>
      </trkpt>
      <trkpt lat="46.201077857986093" lon="10.596167212352157">
        <ele>1863.6500000000001</ele>
        <time>2015-08-02T13:07:44Z</time>
      </trkpt>
      <trkpt lat="46.201059250161052" lon="10.596078196540475">
        <ele>1862.21</ele>
        <time>2015-08-02T13:07:51Z</time>
      </trkpt>
      <trkpt lat="46.201022621244192" lon="10.595951965078712">
        <ele>1860.29</ele>
        <time>2015-08-02T13:08:02Z</time>
      </trkpt>
      <trkpt lat="46.20100736618042" lon="10.595894129946828">
        <ele>1859.3299999999999</ele>
        <time>2015-08-02T13:08:07Z</time>
      </trkpt>
      <trkpt lat="46.200997726991773" lon="10.595902511849999">
        <ele>1858.8499999999999</ele>
        <time>2015-08-02T13:08:12Z</time>
      </trkpt>
      <trkpt lat="46.20099906809628" lon="10.596034107729793">
        <ele>1855.96</ele>
        <time>2015-08-02T13:08:24Z</time>
      </trkpt>
      <trkpt lat="46.200985992327332" lon="10.596012901514769">
        <ele>1855.48</ele>
        <time>2015-08-02T13:08:26Z</time>
      </trkpt>
      <trkpt lat="46.200914578512311" lon="10.595890944823623">
        <ele>1852.5999999999999</ele>
        <time>2015-08-02T13:08:38Z</time>
      </trkpt>
      <trkpt lat="46.200879123061895" lon="10.59579798951745">
        <ele>1850.1900000000001</ele>
        <time>2015-08-02T13:08:48Z</time>
      </trkpt>
      <trkpt lat="46.200896725058556" lon="10.5957608576864">
        <ele>1850.1900000000001</ele>
        <time>2015-08-02T13:09:03Z</time>
      </trkpt>
      <trkpt lat="46.200870741158724" lon="10.595850795507431">
        <ele>1848.75</ele>
        <time>2015-08-02T13:09:17Z</time>
      </trkpt>
      <trkpt lat="46.200830088928342" lon="10.596006866544485">
        <ele>1845.8699999999999</ele>
        <time>2015-08-02T13:09:28Z</time>
      </trkpt>
      <trkpt lat="46.200834698975086" lon="10.596104012802243">
        <ele>1842.98</ele>
        <time>2015-08-02T13:09:38Z</time>
      </trkpt>
      <trkpt lat="46.200834112241864" lon="10.596076520159841">
        <ele>1842.5</ele>
        <time>2015-08-02T13:09:40Z</time>
      </trkpt>
      <trkpt lat="46.200809134170413" lon="10.595963448286057">
        <ele>1839.6199999999999</ele>
        <time>2015-08-02T13:09:50Z</time>
      </trkpt>
      <trkpt lat="46.200776780024171" lon="10.59589228592813">
        <ele>1837.22</ele>
        <time>2015-08-02T13:10:00Z</time>
      </trkpt>
      <trkpt lat="46.20073227211833" lon="10.595892118290067">
        <ele>1834.8099999999999</ele>
        <time>2015-08-02T13:10:10Z</time>
      </trkpt>
      <trkpt lat="46.200723806396127" lon="10.595979709178209">
        <ele>1832.4100000000001</ele>
        <time>2015-08-02T13:10:19Z</time>
      </trkpt>
      <trkpt lat="46.200691368430853" lon="10.595959173515439">
        <ele>1830.49</ele>
        <time>2015-08-02T13:10:26Z</time>
      </trkpt>
      <trkpt lat="46.200671922415495" lon="10.595936961472034">
        <ele>1830.01</ele>
        <time>2015-08-02T13:10:29Z</time>
      </trkpt>
      <trkpt lat="46.200646106153727" lon="10.595788937062025">
        <ele>1827.5999999999999</ele>
        <time>2015-08-02T13:10:40Z</time>
      </trkpt>
      <trkpt lat="46.200642250478268" lon="10.595710482448339">
        <ele>1826.6400000000001</ele>
        <time>2015-08-02T13:10:49Z</time>
      </trkpt>
      <trkpt lat="46.200618613511324" lon="10.595663962885737">
        <ele>1825.2</ele>
        <time>2015-08-02T13:10:53Z</time>
      </trkpt>
      <trkpt lat="46.200605453923345" lon="10.595582155510783">
        <ele>1823.28</ele>
        <time>2015-08-02T13:10:59Z</time>
      </trkpt>
      <trkpt lat="46.200545942410827" lon="10.595515267923474">
        <ele>1822.3199999999999</ele>
        <time>2015-08-02T13:11:05Z</time>
      </trkpt>
      <trkpt lat="46.200518868863583" lon="10.595501940697432">
        <ele>1821.8399999999999</ele>
        <time>2015-08-02T13:11:09Z</time>
      </trkpt>
      <trkpt lat="46.20043764822185" lon="10.59539238922298">
        <ele>1819.4300000000001</ele>
        <time>2015-08-02T13:11:19Z</time>
      </trkpt>
      <trkpt lat="46.200430272147059" lon="10.595328938215971">
        <ele>1817.99</ele>
        <time>2015-08-02T13:11:25Z</time>
      </trkpt>
      <trkpt lat="46.200438570231199" lon="10.595223577693105">
        <ele>1817.51</ele>
        <time>2015-08-02T13:11:37Z</time>
      </trkpt>
      <trkpt lat="46.200429433956742" lon="10.595258111134171">
        <ele>1817.03</ele>
        <time>2015-08-02T13:11:43Z</time>
      </trkpt>
      <trkpt lat="46.200411496683955" lon="10.59535626322031">
        <ele>1814.6300000000001</ele>
        <time>2015-08-02T13:11:51Z</time>
      </trkpt>
      <trkpt lat="46.200396493077278" lon="10.595472436398268">
        <ele>1812.7</ele>
        <time>2015-08-02T13:12:02Z</time>
      </trkpt>
      <trkpt lat="46.200417950749397" lon="10.595629177987576">
        <ele>1809.3399999999999</ele>
        <time>2015-08-02T13:12:12Z</time>
      </trkpt>
      <trkpt lat="46.200401186943054" lon="10.595752140507102">
        <ele>1807.4200000000001</ele>
        <time>2015-08-02T13:12:23Z</time>
      </trkpt>
      <trkpt lat="46.20035894215107" lon="10.595734035596251">
        <ele>1806.45</ele>
        <time>2015-08-02T13:12:27Z</time>
      </trkpt>
      <trkpt lat="46.200319966301322" lon="10.595640577375889">
        <ele>1804.53</ele>
        <time>2015-08-02T13:12:35Z</time>
      </trkpt>
      <trkpt lat="46.200284510850906" lon="10.595563631504774">
        <ele>1802.1300000000001</ele>
        <time>2015-08-02T13:12:45Z</time>
      </trkpt>
      <trkpt lat="46.200248468667269" lon="10.595583999529481">
        <ele>1800.21</ele>
        <time>2015-08-02T13:12:55Z</time>
      </trkpt>
      <trkpt lat="46.200252156704664" lon="10.595607552677393">
        <ele>1799.24</ele>
        <time>2015-08-02T13:12:58Z</time>
      </trkpt>
      <trkpt lat="46.200262466445565" lon="10.595744093880057">
        <ele>1795.8800000000001</ele>
        <time>2015-08-02T13:13:10Z</time>
      </trkpt>
      <trkpt lat="46.200261460617185" lon="10.595838977023959">
        <ele>1793</ele>
        <time>2015-08-02T13:13:21Z</time>
      </trkpt>
      <trkpt lat="46.200208403170109" lon="10.595937799662352">
        <ele>1790.5899999999999</ele>
        <time>2015-08-02T13:13:31Z</time>
      </trkpt>
      <trkpt lat="46.200204296037555" lon="10.595950456336141">
        <ele>1790.1099999999999</ele>
        <time>2015-08-02T13:13:32Z</time>
      </trkpt>
      <trkpt lat="46.200154758989811" lon="10.595920868217945">
        <ele>1788.1900000000001</ele>
        <time>2015-08-02T13:13:40Z</time>
      </trkpt>
      <trkpt lat="46.200128858909011" lon="10.595868229866028">
        <ele>1787.23</ele>
        <time>2015-08-02T13:13:46Z</time>
      </trkpt>
      <trkpt lat="46.200104216113687" lon="10.595813915133476">
        <ele>1784.3399999999999</ele>
        <time>2015-08-02T13:13:55Z</time>
      </trkpt>
      <trkpt lat="46.200013356283307" lon="10.595714841037989">
        <ele>1783.3800000000001</ele>
        <time>2015-08-02T13:14:10Z</time>
      </trkpt>
      <trkpt lat="46.200003297999501" lon="10.59563965536654">
        <ele>1781.46</ele>
        <time>2015-08-02T13:14:17Z</time>
      </trkpt>
      <trkpt lat="46.200029198080301" lon="10.595710482448339">
        <ele>1779.0599999999999</ele>
        <time>2015-08-02T13:14:26Z</time>
      </trkpt>
      <trkpt lat="46.199977397918701" lon="10.595774771645665">
        <ele>1776.1700000000001</ele>
        <time>2015-08-02T13:14:37Z</time>
      </trkpt>
      <trkpt lat="46.199884274974465" lon="10.595678798854351">
        <ele>1773.77</ele>
        <time>2015-08-02T13:14:49Z</time>
      </trkpt>
      <trkpt lat="46.199864074587822" lon="10.595682905986905">
        <ele>1771.8499999999999</ele>
        <time>2015-08-02T13:14:55Z</time>
      </trkpt>
      <trkpt lat="46.199876898899674" lon="10.595727665349841">
        <ele>1771.3699999999999</ele>
        <time>2015-08-02T13:14:59Z</time>
      </trkpt>
      <trkpt lat="46.199888130649924" lon="10.595863033086061">
        <ele>1768.96</ele>
        <time>2015-08-02T13:15:10Z</time>
      </trkpt>
      <trkpt lat="46.19986055418849" lon="10.595913240686059">
        <ele>1766.5599999999999</ele>
        <time>2015-08-02T13:15:20Z</time>
      </trkpt>
      <trkpt lat="46.199825014919043" lon="10.595825565978885">
        <ele>1764.6400000000001</ele>
        <time>2015-08-02T13:15:30Z</time>
      </trkpt>
      <trkpt lat="46.19977405294776" lon="10.595710398629308">
        <ele>1761.27</ele>
        <time>2015-08-02T13:15:41Z</time>
      </trkpt>
      <trkpt lat="46.199673302471638" lon="10.595561871305108">
        <ele>1758.8699999999999</ele>
        <time>2015-08-02T13:15:55Z</time>
      </trkpt>
      <trkpt lat="46.199609348550439" lon="10.595505461096764">
        <ele>1756.47</ele>
        <time>2015-08-02T13:16:07Z</time>
      </trkpt>
      <trkpt lat="46.199624771252275" lon="10.595551142469049">
        <ele>1754.54</ele>
        <time>2015-08-02T13:16:13Z</time>
      </trkpt>
      <trkpt lat="46.199613036587834" lon="10.595713583752513">
        <ele>1751.6600000000001</ele>
        <time>2015-08-02T13:16:24Z</time>
      </trkpt>
      <trkpt lat="46.199619825929403" lon="10.595849119126797">
        <ele>1748.78</ele>
        <time>2015-08-02T13:16:36Z</time>
      </trkpt>
      <trkpt lat="46.199547238647938" lon="10.595968142151833">
        <ele>1746.8499999999999</ele>
        <time>2015-08-02T13:16:45Z</time>
      </trkpt>
      <trkpt lat="46.199548495933414" lon="10.596003094688058">
        <ele>1746.3699999999999</ele>
        <time>2015-08-02T13:16:47Z</time>
      </trkpt>
      <trkpt lat="46.199543885886669" lon="10.596070736646652">
        <ele>1743.97</ele>
        <time>2015-08-02T13:16:58Z</time>
      </trkpt>
      <trkpt lat="46.199486721307039" lon="10.595994461327791">
        <ele>1741.5699999999999</ele>
        <time>2015-08-02T13:17:09Z</time>
      </trkpt>
      <trkpt lat="46.199461072683334" lon="10.595966465771198">
        <ele>1740.1199999999999</ele>
        <time>2015-08-02T13:17:17Z</time>
      </trkpt>
      <trkpt lat="46.199451265856624" lon="10.59601784683764">
        <ele>1738.6800000000001</ele>
        <time>2015-08-02T13:17:22Z</time>
      </trkpt>
      <trkpt lat="46.199437854811549" lon="10.596139300614595">
        <ele>1736.28</ele>
        <time>2015-08-02T13:17:33Z</time>
      </trkpt>
      <trkpt lat="46.19944715872407" lon="10.596160674467683">
        <ele>1735.8</ele>
        <time>2015-08-02T13:17:35Z</time>
      </trkpt>
      <trkpt lat="46.199442045763135" lon="10.5962392129004">
        <ele>1734.8399999999999</ele>
        <time>2015-08-02T13:17:41Z</time>
      </trkpt>
      <trkpt lat="46.199391838163137" lon="10.596265699714422">
        <ele>1733.3900000000001</ele>
        <time>2015-08-02T13:17:52Z</time>
      </trkpt>
      <trkpt lat="46.199397621676326" lon="10.596278188750148">
        <ele>1732.9100000000001</ele>
        <time>2015-08-02T13:17:53Z</time>
      </trkpt>
      <trkpt lat="46.199420671910048" lon="10.596397630870342">
        <ele>1729.0699999999999</ele>
        <time>2015-08-02T13:18:05Z</time>
      </trkpt>
      <trkpt lat="46.199416732415557" lon="10.596484467387199">
        <ele>1727.6300000000001</ele>
        <time>2015-08-02T13:18:13Z</time>
      </trkpt>
      <trkpt lat="46.19943986646831" lon="10.596536016091704">
        <ele>1727.1500000000001</ele>
        <time>2015-08-02T13:18:17Z</time>
      </trkpt>
      <trkpt lat="46.199419917538762" lon="10.596538111567497">
        <ele>1725.22</ele>
        <time>2015-08-02T13:18:25Z</time>
      </trkpt>
      <trkpt lat="46.199386306107044" lon="10.596465691924095">
        <ele>1723.78</ele>
        <time>2015-08-02T13:18:34Z</time>
      </trkpt>
      <trkpt lat="46.199349509552121" lon="10.596415316686034">
        <ele>1722.3399999999999</ele>
        <time>2015-08-02T13:18:43Z</time>
      </trkpt>
      <trkpt lat="46.199312964454293" lon="10.596411544829607">
        <ele>1720.4200000000001</ele>
        <time>2015-08-02T13:18:51Z</time>
      </trkpt>
      <trkpt lat="46.199342552572489" lon="10.596522437408566">
        <ele>1718.01</ele>
        <time>2015-08-02T13:19:01Z</time>
      </trkpt>
      <trkpt lat="46.199365435168147" lon="10.596639281138778">
        <ele>1716.0899999999999</ele>
        <time>2015-08-02T13:19:10Z</time>
      </trkpt>
      <trkpt lat="46.199350515380502" lon="10.596693931147456">
        <ele>1715.1300000000001</ele>
        <time>2015-08-02T13:19:13Z</time>
      </trkpt>
      <trkpt lat="46.199343558400869" lon="10.59672586619854">
        <ele>1714.6500000000001</ele>
        <time>2015-08-02T13:19:16Z</time>
      </trkpt>
      <trkpt lat="46.199314473196864" lon="10.596745563670993">
        <ele>1714.1700000000001</ele>
        <time>2015-08-02T13:19:18Z</time>
      </trkpt>
      <trkpt lat="46.199309276416898" lon="10.596798788756132">
        <ele>1713.21</ele>
        <time>2015-08-02T13:19:23Z</time>
      </trkpt>
      <trkpt lat="46.199314305558801" lon="10.596843967214227">
        <ele>1711.76</ele>
        <time>2015-08-02T13:19:30Z</time>
      </trkpt>
      <trkpt lat="46.199292512610555" lon="10.596878165379167">
        <ele>1709.8399999999999</ele>
        <time>2015-08-02T13:19:39Z</time>
      </trkpt>
      <trkpt lat="46.199260326102376" lon="10.596820414066315">
        <ele>1708.4000000000001</ele>
        <time>2015-08-02T13:19:46Z</time>
      </trkpt>
      <trkpt lat="46.199236437678337" lon="10.596813037991524">
        <ele>1707.9200000000001</ele>
        <time>2015-08-02T13:19:49Z</time>
      </trkpt>
      <trkpt lat="46.199198635295033" lon="10.596775654703379">
        <ele>1706.48</ele>
        <time>2015-08-02T13:19:55Z</time>
      </trkpt>
      <trkpt lat="46.199105596169829" lon="10.596740199252963">
        <ele>1704.55</ele>
        <time>2015-08-02T13:20:05Z</time>
      </trkpt>
      <trkpt lat="46.198996799066663" lon="10.59669409878552">
        <ele>1701.6700000000001</ele>
        <time>2015-08-02T13:20:15Z</time>
      </trkpt>
      <trkpt lat="46.198972072452307" lon="10.596686638891697">
        <ele>1699.75</ele>
        <time>2015-08-02T13:20:25Z</time>
      </trkpt>
      <trkpt lat="46.198941646143794" lon="10.59680406935513">
        <ele>1696.3800000000001</ele>
        <time>2015-08-02T13:20:37Z</time>
      </trkpt>
      <trkpt lat="46.198928570374846" lon="10.59696676209569">
        <ele>1694.46</ele>
        <time>2015-08-02T13:20:50Z</time>
      </trkpt>
      <trkpt lat="46.19894877076149" lon="10.597014371305704">
        <ele>1693.02</ele>
        <time>2015-08-02T13:20:57Z</time>
      </trkpt>
      <trkpt lat="46.198931252583861" lon="10.597017053514719">
        <ele>1692.54</ele>
        <time>2015-08-02T13:20:59Z</time>
      </trkpt>
      <trkpt lat="46.198823964223266" lon="10.596924182027578">
        <ele>1689.6500000000001</ele>
        <time>2015-08-02T13:21:10Z</time>
      </trkpt>
      <trkpt lat="46.198788844048977" lon="10.596911441534758">
        <ele>1687.73</ele>
        <time>2015-08-02T13:21:18Z</time>
      </trkpt>
      <trkpt lat="46.198772750794888" lon="10.596947986632586">
        <ele>1686.77</ele>
        <time>2015-08-02T13:21:21Z</time>
      </trkpt>
      <trkpt lat="46.198787000030279" lon="10.597025183960795">
        <ele>1684.3699999999999</ele>
        <time>2015-08-02T13:21:34Z</time>
      </trkpt>
      <trkpt lat="46.198783647269011" lon="10.596988387405872">
        <ele>1683.4100000000001</ele>
        <time>2015-08-02T13:21:37Z</time>
      </trkpt>
      <trkpt lat="46.198759423568845" lon="10.596944885328412">
        <ele>1682.9300000000001</ele>
        <time>2015-08-02T13:21:41Z</time>
      </trkpt>
      <trkpt lat="46.198675772175193" lon="10.596842626109719">
        <ele>1681.48</ele>
        <time>2015-08-02T13:21:52Z</time>
      </trkpt>
      <trkpt lat="46.198616763576865" lon="10.59683240018785">
        <ele>1680.52</ele>
        <time>2015-08-02T13:21:56Z</time>
      </trkpt>
      <trkpt lat="46.198576698079705" lon="10.596767272800207">
        <ele>1677.1600000000001</ele>
        <time>2015-08-02T13:22:08Z</time>
      </trkpt>
      <trkpt lat="46.198476953431964" lon="10.59665403328836">
        <ele>1675.23</ele>
        <time>2015-08-02T13:22:19Z</time>
      </trkpt>
      <trkpt lat="46.198404869064689" lon="10.596605250611901">
        <ele>1672.8299999999999</ele>
        <time>2015-08-02T13:22:33Z</time>
      </trkpt>
      <trkpt lat="46.198393721133471" lon="10.596615476533771">
        <ele>1672.3499999999999</ele>
        <time>2015-08-02T13:22:34Z</time>
      </trkpt>
      <trkpt lat="46.198320044204593" lon="10.596613800153136">
        <ele>1670.9100000000001</ele>
        <time>2015-08-02T13:22:40Z</time>
      </trkpt>
      <trkpt lat="46.198234967887402" lon="10.596620086580515">
        <ele>1669.47</ele>
        <time>2015-08-02T13:22:51Z</time>
      </trkpt>
      <trkpt lat="46.198175037279725" lon="10.596704743802547">
        <ele>1667.54</ele>
        <time>2015-08-02T13:22:58Z</time>
      </trkpt>
      <trkpt lat="46.19802575558424" lon="10.59671220369637">
        <ele>1666.5799999999999</ele>
        <time>2015-08-02T13:23:10Z</time>
      </trkpt>
      <trkpt lat="46.197963980957866" lon="10.596758807078004">
        <ele>1665.6199999999999</ele>
        <time>2015-08-02T13:23:20Z</time>
      </trkpt>
      <trkpt lat="46.197926932945848" lon="10.596760483458638">
        <ele>1665.6199999999999</ele>
        <time>2015-08-02T13:23:24Z</time>
      </trkpt>
      <trkpt lat="46.197852166369557" lon="10.596774900332093">
        <ele>1664.1800000000001</ele>
        <time>2015-08-02T13:23:34Z</time>
      </trkpt>
      <trkpt lat="46.197846550494432" lon="10.596767524257302">
        <ele>1662.74</ele>
        <time>2015-08-02T13:23:40Z</time>
      </trkpt>
      <trkpt lat="46.197860715910792" lon="10.596788395196199">
        <ele>1662.74</ele>
        <time>2015-08-02T13:24:01Z</time>
      </trkpt>
      <trkpt lat="46.197902290150523" lon="10.59679719619453">
        <ele>1662.74</ele>
        <time>2015-08-02T13:24:22Z</time>
      </trkpt>
      <trkpt lat="46.197873624041677" lon="10.596806248649955">
        <ele>1662.74</ele>
        <time>2015-08-02T13:24:43Z</time>
      </trkpt>
      <trkpt lat="46.19787035509944" lon="10.596791161224246">
        <ele>1662.74</ele>
        <time>2015-08-02T13:25:03Z</time>
      </trkpt>
      <trkpt lat="46.197869516909122" lon="10.596829382702708">
        <ele>1662.74</ele>
        <time>2015-08-02T13:25:24Z</time>
      </trkpt>
      <trkpt lat="46.19788208976388" lon="10.596790490671992">
        <ele>1662.74</ele>
        <time>2015-08-02T13:25:43Z</time>
      </trkpt>
      <trkpt lat="46.197896422818303" lon="10.596830053254962">
        <ele>1662.74</ele>
        <time>2015-08-02T13:26:00Z</time>
      </trkpt>
      <trkpt lat="46.197826685383916" lon="10.596748413518071">
        <ele>1662.74</ele>
        <time>2015-08-02T13:26:19Z</time>
      </trkpt>
      <trkpt lat="46.19782785885036" lon="10.596776409074664">
        <ele>1662.26</ele>
        <time>2015-08-02T13:26:38Z</time>
      </trkpt>
      <trkpt lat="46.197835737839341" lon="10.596772888675332">
        <ele>1662.26</ele>
        <time>2015-08-02T13:26:58Z</time>
      </trkpt>
      <trkpt lat="46.197871528565884" lon="10.59678646735847">
        <ele>1662.26</ele>
        <time>2015-08-02T13:27:23Z</time>
      </trkpt>
      <trkpt lat="46.197851831093431" lon="10.596767021343112">
        <ele>1662.26</ele>
        <time>2015-08-02T13:27:43Z</time>
      </trkpt>
      <trkpt lat="46.197914024814963" lon="10.596758220344782">
        <ele>1661.78</ele>
        <time>2015-08-02T13:28:09Z</time>
      </trkpt>
      <trkpt lat="46.197845209389925" lon="10.596787473186851">
        <ele>1661.78</ele>
        <time>2015-08-02T13:28:29Z</time>
      </trkpt>
      <trkpt lat="46.197865577414632" lon="10.596775403246284">
        <ele>1661.3</ele>
        <time>2015-08-02T13:28:55Z</time>
      </trkpt>
      <trkpt lat="46.197848729789257" lon="10.596782527863979">
        <ele>1661.3</ele>
        <time>2015-08-02T13:29:24Z</time>
      </trkpt>
      <trkpt lat="46.197842610999942" lon="10.596750425174832">
        <ele>1661.3</ele>
        <time>2015-08-02T13:29:43Z</time>
      </trkpt>
      <trkpt lat="46.197866583243012" lon="10.596753275021911">
        <ele>1661.3</ele>
        <time>2015-08-02T13:30:06Z</time>
      </trkpt>
      <trkpt lat="46.19788745418191" lon="10.596767272800207">
        <ele>1660.8099999999999</ele>
        <time>2015-08-02T13:30:28Z</time>
      </trkpt>
      <trkpt lat="46.197817549109459" lon="10.596789317205548">
        <ele>1660.8099999999999</ele>
        <time>2015-08-02T13:30:49Z</time>
      </trkpt>
      <trkpt lat="46.197851411998272" lon="10.596770290285349">
        <ele>1660.8099999999999</ele>
        <time>2015-08-02T13:31:18Z</time>
      </trkpt>
      <trkpt lat="46.197838168591261" lon="10.596784958615899">
        <ele>1660.8099999999999</ele>
        <time>2015-08-02T13:31:42Z</time>
      </trkpt>
      <trkpt lat="46.197880413383245" lon="10.596794430166483">
        <ele>1660.3299999999999</ele>
        <time>2015-08-02T13:32:05Z</time>
      </trkpt>
      <trkpt lat="46.197874043136835" lon="10.596770122647285">
        <ele>1660.3299999999999</ele>
        <time>2015-08-02T13:32:33Z</time>
      </trkpt>
      <trkpt lat="46.197838755324483" lon="10.596783366054296">
        <ele>1660.3299999999999</ele>
        <time>2015-08-02T13:32:52Z</time>
      </trkpt>
      <trkpt lat="46.197867756709456" lon="10.596767440438271">
        <ele>1660.3299999999999</ele>
        <time>2015-08-02T13:33:11Z</time>
      </trkpt>
      <trkpt lat="46.197854764759541" lon="10.596781270578504">
        <ele>1659.8499999999999</ele>
        <time>2015-08-02T13:33:31Z</time>
      </trkpt>
      <trkpt lat="46.197852166369557" lon="10.596763920038939">
        <ele>1659.8499999999999</ele>
        <time>2015-08-02T13:33:58Z</time>
      </trkpt>
      <trkpt lat="46.197858117520809" lon="10.596780683845282">
        <ele>1659.3699999999999</ele>
        <time>2015-08-02T13:34:19Z</time>
      </trkpt>
      <trkpt lat="46.197869768366218" lon="10.596764255315065">
        <ele>1659.3699999999999</ele>
        <time>2015-08-02T13:34:40Z</time>
      </trkpt>
      <trkpt lat="46.197888040915132" lon="10.596782779321074">
        <ele>1659.3699999999999</ele>
        <time>2015-08-02T13:35:08Z</time>
      </trkpt>
      <trkpt lat="46.197849148884416" lon="10.596766853705049">
        <ele>1659.3699999999999</ele>
        <time>2015-08-02T13:35:28Z</time>
      </trkpt>
      <trkpt lat="46.197848226875067" lon="10.596761237829924">
        <ele>1659.3699999999999</ele>
        <time>2015-08-02T13:35:55Z</time>
      </trkpt>
      <trkpt lat="46.197846801951528" lon="10.596755035221577">
        <ele>1658.8900000000001</ele>
        <time>2015-08-02T13:36:19Z</time>
      </trkpt>
      <trkpt lat="46.197889298200607" lon="10.596776409074664">
        <ele>1658.8900000000001</ele>
        <time>2015-08-02T13:36:47Z</time>
      </trkpt>
      <trkpt lat="46.197877898812294" lon="10.596771044656634">
        <ele>1658.8900000000001</ele>
        <time>2015-08-02T13:37:11Z</time>
      </trkpt>
      <trkpt lat="46.197840180248022" lon="10.596779929473996">
        <ele>1658.8900000000001</ele>
        <time>2015-08-02T13:37:37Z</time>
      </trkpt>
      <trkpt lat="46.197883430868387" lon="10.596766183152795">
        <ele>1658.4100000000001</ele>
        <time>2015-08-02T13:38:06Z</time>
      </trkpt>
      <trkpt lat="46.197866164147854" lon="10.596771463751793">
        <ele>1658.4100000000001</ele>
        <time>2015-08-02T13:38:31Z</time>
      </trkpt>
      <trkpt lat="46.197835989296436" lon="10.596766183152795">
        <ele>1658.4100000000001</ele>
        <time>2015-08-02T13:38:56Z</time>
      </trkpt>
      <trkpt lat="46.197862140834332" lon="10.596759896725416">
        <ele>1657.9300000000001</ele>
        <time>2015-08-02T13:39:20Z</time>
      </trkpt>
      <trkpt lat="46.197859290987253" lon="10.596762327477336">
        <ele>1657.9300000000001</ele>
        <time>2015-08-02T13:39:37Z</time>
      </trkpt>
      <trkpt lat="46.197867337614298" lon="10.596759309992194">
        <ele>1657.9300000000001</ele>
        <time>2015-08-02T13:40:09Z</time>
      </trkpt>
      <trkpt lat="46.197875719517469" lon="10.596772469580173">
        <ele>1657.9300000000001</ele>
        <time>2015-08-02T13:40:28Z</time>
      </trkpt>
      <trkpt lat="46.19788208976388" lon="10.596783449873328">
        <ele>1657.9300000000001</ele>
        <time>2015-08-02T13:40:55Z</time>
      </trkpt>
      <trkpt lat="46.197933303192258" lon="10.596794178709388">
        <ele>1657.45</ele>
        <time>2015-08-02T13:41:24Z</time>
      </trkpt>
      <trkpt lat="46.197915701195598" lon="10.596800800412893">
        <ele>1657.45</ele>
        <time>2015-08-02T13:41:54Z</time>
      </trkpt>
      <trkpt lat="46.197912013158202" lon="10.596807338297367">
        <ele>1657.45</ele>
        <time>2015-08-02T13:42:25Z</time>
      </trkpt>
      <trkpt lat="46.197918551042676" lon="10.596774648874998">
        <ele>1657.45</ele>
        <time>2015-08-02T13:42:50Z</time>
      </trkpt>
      <trkpt lat="46.197880664840341" lon="10.596795855090022">
        <ele>1656.97</ele>
        <time>2015-08-02T13:43:14Z</time>
      </trkpt>
      <trkpt lat="46.197857279330492" lon="10.596771631389856">
        <ele>1657.45</ele>
        <time>2015-08-02T13:43:37Z</time>
      </trkpt>
      <trkpt lat="46.197879072278738" lon="10.596773894503713">
        <ele>1657.45</ele>
        <time>2015-08-02T13:43:59Z</time>
      </trkpt>
      <trkpt lat="46.197843365371227" lon="10.596754364669323">
        <ele>1656.97</ele>
        <time>2015-08-02T13:44:29Z</time>
      </trkpt>
      <trkpt lat="46.197855351492763" lon="10.596767105162144">
        <ele>1656.97</ele>
        <time>2015-08-02T13:44:54Z</time>
      </trkpt>
      <trkpt lat="46.197852920740843" lon="10.59678060002625">
        <ele>1656.97</ele>
        <time>2015-08-02T13:45:22Z</time>
      </trkpt>
      <trkpt lat="46.19787672534585" lon="10.596767775714397">
        <ele>1656.97</ele>
        <time>2015-08-02T13:45:51Z</time>
      </trkpt>
      <trkpt lat="46.197864068672061" lon="10.596779761835933">
        <ele>1656.97</ele>
        <time>2015-08-02T13:46:18Z</time>
      </trkpt>
      <trkpt lat="46.197852334007621" lon="10.596765680238605">
        <ele>1656.49</ele>
        <time>2015-08-02T13:46:48Z</time>
      </trkpt>
      <trkpt lat="46.197883682325482" lon="10.596777750179172">
        <ele>1656.49</ele>
        <time>2015-08-02T13:47:19Z</time>
      </trkpt>
      <trkpt lat="46.197877898812294" lon="10.596776325255632">
        <ele>1656.49</ele>
        <time>2015-08-02T13:47:50Z</time>
      </trkpt>
      <trkpt lat="46.197867756709456" lon="10.596768027171493">
        <ele>1656.49</ele>
        <time>2015-08-02T13:48:21Z</time>
      </trkpt>
      <trkpt lat="46.19784445501864" lon="10.596775570884347">
        <ele>1656.01</ele>
        <time>2015-08-02T13:48:43Z</time>
      </trkpt>
      <trkpt lat="46.197863481938839" lon="10.596766769886017">
        <ele>1656.49</ele>
        <time>2015-08-02T13:49:07Z</time>
      </trkpt>
      <trkpt lat="46.19787965901196" lon="10.596781941130757">
        <ele>1656.01</ele>
        <time>2015-08-02T13:49:29Z</time>
      </trkpt>
      <trkpt lat="46.197875635698438" lon="10.596784539520741">
        <ele>1655.53</ele>
        <time>2015-08-02T13:49:55Z</time>
      </trkpt>
      <trkpt lat="46.197863649576902" lon="10.596775151789188">
        <ele>1657.45</ele>
        <time>2015-08-02T13:50:06Z</time>
      </trkpt>
      <trkpt lat="46.197824086993933" lon="10.596728883683681">
        <ele>1657.45</ele>
        <time>2015-08-02T13:50:27Z</time>
      </trkpt>
      <trkpt lat="46.197867169976234" lon="10.596766350790858">
        <ele>1656.01</ele>
        <time>2015-08-02T13:50:40Z</time>
      </trkpt>
      <trkpt lat="46.197855267673731" lon="10.596806667745113">
        <ele>1655.53</ele>
        <time>2015-08-02T13:51:09Z</time>
      </trkpt>
      <trkpt lat="46.197869852185249" lon="10.59680356644094">
        <ele>1655.53</ele>
        <time>2015-08-02T13:51:38Z</time>
      </trkpt>
      <trkpt lat="46.197854178026319" lon="10.596790742129087">
        <ele>1655.53</ele>
        <time>2015-08-02T13:51:56Z</time>
      </trkpt>
      <trkpt lat="46.197875719517469" lon="10.596794178709388">
        <ele>1655.53</ele>
        <time>2015-08-02T13:52:26Z</time>
      </trkpt>
      <trkpt lat="46.197891812771559" lon="10.596787640824914">
        <ele>1655.53</ele>
        <time>2015-08-02T13:52:45Z</time>
      </trkpt>
      <trkpt lat="46.197878569364548" lon="10.5967952683568">
        <ele>1655.05</ele>
        <time>2015-08-02T13:53:07Z</time>
      </trkpt>
      <trkpt lat="46.197882927954197" lon="10.596799375489354">
        <ele>1655.05</ele>
        <time>2015-08-02T13:53:32Z</time>
      </trkpt>
      <trkpt lat="46.197882760316133" lon="10.596798537299037">
        <ele>1655.05</ele>
        <time>2015-08-02T13:53:57Z</time>
      </trkpt>
      <trkpt lat="46.19788016192615" lon="10.596791161224246">
        <ele>1655.05</ele>
        <time>2015-08-02T13:54:29Z</time>
      </trkpt>
      <trkpt lat="46.197851998731494" lon="10.596788059920073">
        <ele>1655.05</ele>
        <time>2015-08-02T13:54:51Z</time>
      </trkpt>
      <trkpt lat="46.197881670668721" lon="10.596796944737434">
        <ele>1655.05</ele>
        <time>2015-08-02T13:55:13Z</time>
      </trkpt>
      <trkpt lat="46.197887538000941" lon="10.596770374104381">
        <ele>1655.05</ele>
        <time>2015-08-02T13:55:30Z</time>
      </trkpt>
      <trkpt lat="46.197853172197938" lon="10.596815217286348">
        <ele>1655.05</ele>
        <time>2015-08-02T13:55:54Z</time>
      </trkpt>
      <trkpt lat="46.197883598506451" lon="10.596799040213227">
        <ele>1655.05</ele>
        <time>2015-08-02T13:56:16Z</time>
      </trkpt>
      <trkpt lat="46.197878485545516" lon="10.596825191751122">
        <ele>1655.05</ele>
        <time>2015-08-02T13:56:41Z</time>
      </trkpt>
      <trkpt lat="46.197880664840341" lon="10.596816642209888">
        <ele>1655.05</ele>
        <time>2015-08-02T13:56:59Z</time>
      </trkpt>
      <trkpt lat="46.197889801114798" lon="10.596792753785849">
        <ele>1654.5699999999999</ele>
        <time>2015-08-02T13:57:18Z</time>
      </trkpt>
      <trkpt lat="46.197916036471725" lon="10.596800800412893">
        <ele>1655.05</ele>
        <time>2015-08-02T13:57:30Z</time>
      </trkpt>
      <trkpt lat="46.197927938774228" lon="10.596790658310056">
        <ele>1654.5699999999999</ele>
        <time>2015-08-02T13:57:55Z</time>
      </trkpt>
      <trkpt lat="46.197906648740172" lon="10.596818486228585">
        <ele>1655.05</ele>
        <time>2015-08-02T13:58:21Z</time>
      </trkpt>
      <trkpt lat="46.197878401726484" lon="10.596821336075664">
        <ele>1655.05</ele>
        <time>2015-08-02T13:58:36Z</time>
      </trkpt>
      <trkpt lat="46.197873624041677" lon="10.596826951950788">
        <ele>1655.05</ele>
        <time>2015-08-02T13:58:54Z</time>
      </trkpt>
      <trkpt lat="46.197892064228654" lon="10.596816809847951">
        <ele>1655.05</ele>
        <time>2015-08-02T13:59:07Z</time>
      </trkpt>
      <trkpt lat="46.197901619598269" lon="10.596793675795197">
        <ele>1655.05</ele>
        <time>2015-08-02T13:59:25Z</time>
      </trkpt>
      <trkpt lat="46.197876557707787" lon="10.596776325255632">
        <ele>1655.05</ele>
        <time>2015-08-02T13:59:49Z</time>
      </trkpt>
      <trkpt lat="46.197899859398603" lon="10.596790406852961">
        <ele>1655.05</ele>
        <time>2015-08-02T14:00:15Z</time>
      </trkpt>
      <trkpt lat="46.197899105027318" lon="10.596801051869988">
        <ele>1655.05</ele>
        <time>2015-08-02T14:00:30Z</time>
      </trkpt>
      <trkpt lat="46.197875468060374" lon="10.59679476544261">
        <ele>1655.05</ele>
        <time>2015-08-02T14:00:50Z</time>
      </trkpt>
      <trkpt lat="46.197890723124146" lon="10.596788814291358">
        <ele>1655.05</ele>
        <time>2015-08-02T14:01:11Z</time>
      </trkpt>
      <trkpt lat="46.197891058400273" lon="10.596791161224246">
        <ele>1654.5699999999999</ele>
        <time>2015-08-02T14:01:29Z</time>
      </trkpt>
      <trkpt lat="46.197913521900773" lon="10.596779175102711">
        <ele>1655.05</ele>
        <time>2015-08-02T14:01:54Z</time>
      </trkpt>
      <trkpt lat="46.197891226038337" lon="10.596804320812225">
        <ele>1655.05</ele>
        <time>2015-08-02T14:02:17Z</time>
      </trkpt>
      <trkpt lat="46.197891142219305" lon="10.59680457226932">
        <ele>1655.05</ele>
        <time>2015-08-02T14:02:44Z</time>
      </trkpt>
      <trkpt lat="46.197886448353529" lon="10.596791412681341">
        <ele>1655.05</ele>
        <time>2015-08-02T14:03:02Z</time>
      </trkpt>
      <trkpt lat="46.197873372584581" lon="10.596822760999203">
        <ele>1655.05</ele>
        <time>2015-08-02T14:03:25Z</time>
      </trkpt>
      <trkpt lat="46.197898183017969" lon="10.596791915595531">
        <ele>1655.05</ele>
        <time>2015-08-02T14:03:54Z</time>
      </trkpt>
      <trkpt lat="46.197918467223644" lon="10.596803734079003">
        <ele>1655.05</ele>
        <time>2015-08-02T14:04:15Z</time>
      </trkpt>
      <trkpt lat="46.197917629033327" lon="10.596785796806216">
        <ele>1655.05</ele>
        <time>2015-08-02T14:04:37Z</time>
      </trkpt>
      <trkpt lat="46.197906145825982" lon="10.59679820202291">
        <ele>1655.05</ele>
        <time>2015-08-02T14:04:57Z</time>
      </trkpt>
      <trkpt lat="46.197919305413961" lon="10.596805075183511">
        <ele>1655.05</ele>
        <time>2015-08-02T14:05:21Z</time>
      </trkpt>
      <trkpt lat="46.197898685932159" lon="10.596776157617569">
        <ele>1655.05</ele>
        <time>2015-08-02T14:05:42Z</time>
      </trkpt>
      <trkpt lat="46.197887705639005" lon="10.596809266135097">
        <ele>1655.53</ele>
        <time>2015-08-02T14:06:11Z</time>
      </trkpt>
      <trkpt lat="46.197883011773229" lon="10.596801973879337">
        <ele>1655.05</ele>
        <time>2015-08-02T14:06:28Z</time>
      </trkpt>
      <trkpt lat="46.197875551879406" lon="10.596776241436601">
        <ele>1655.05</ele>
        <time>2015-08-02T14:06:46Z</time>
      </trkpt>
      <trkpt lat="46.197900613769889" lon="10.596771463751793">
        <ele>1655.53</ele>
        <time>2015-08-02T14:07:08Z</time>
      </trkpt>
      <trkpt lat="46.197884436696768" lon="10.596784120425582">
        <ele>1655.53</ele>
        <time>2015-08-02T14:07:23Z</time>
      </trkpt>
      <trkpt lat="46.19789918884635" lon="10.596791999414563">
        <ele>1655.53</ele>
        <time>2015-08-02T14:07:46Z</time>
      </trkpt>
      <trkpt lat="46.197892399504781" lon="10.596801219508052">
        <ele>1655.53</ele>
        <time>2015-08-02T14:08:13Z</time>
      </trkpt>
      <trkpt lat="46.197920562699437" lon="10.596788981929421">
        <ele>1655.05</ele>
        <time>2015-08-02T14:08:41Z</time>
      </trkpt>
      <trkpt lat="46.197877479717135" lon="10.596784455701709">
        <ele>1655.05</ele>
        <time>2015-08-02T14:09:01Z</time>
      </trkpt>
      <trkpt lat="46.19788208976388" lon="10.596767859533429">
        <ele>1655.05</ele>
        <time>2015-08-02T14:09:28Z</time>
      </trkpt>
      <trkpt lat="46.197904469445348" lon="10.596774900332093">
        <ele>1655.05</ele>
        <time>2015-08-02T14:09:51Z</time>
      </trkpt>
      <trkpt lat="46.197884939610958" lon="10.59675763361156">
        <ele>1655.53</ele>
        <time>2015-08-02T14:10:25Z</time>
      </trkpt>
      <trkpt lat="46.197874546051025" lon="10.596788730472326">
        <ele>1655.05</ele>
        <time>2015-08-02T14:10:53Z</time>
      </trkpt>
      <trkpt lat="46.197870941832662" lon="10.596785712987185">
        <ele>1655.05</ele>
        <time>2015-08-02T14:11:24Z</time>
      </trkpt>
      <trkpt lat="46.197872115299106" lon="10.596777079626918">
        <ele>1655.05</ele>
        <time>2015-08-02T14:11:52Z</time>
      </trkpt>
      <trkpt lat="46.19789038784802" lon="10.596783701330423">
        <ele>1655.05</ele>
        <time>2015-08-02T14:12:16Z</time>
      </trkpt>
      <trkpt lat="46.19790455326438" lon="10.596745815128088">
        <ele>1655.05</ele>
        <time>2015-08-02T14:12:50Z</time>
      </trkpt>
      <trkpt lat="46.197873372584581" lon="10.59674640186131">
        <ele>1654.5699999999999</ele>
        <time>2015-08-02T14:13:23Z</time>
      </trkpt>
      <trkpt lat="46.197886532172561" lon="10.596758807078004">
        <ele>1654.5699999999999</ele>
        <time>2015-08-02T14:13:54Z</time>
      </trkpt>
      <trkpt lat="46.197868762537837" lon="10.596779342740774">
        <ele>1654.5699999999999</ele>
        <time>2015-08-02T14:14:26Z</time>
      </trkpt>
      <trkpt lat="46.197894411161542" lon="10.596757717430592">
        <ele>1654.5699999999999</ele>
        <time>2015-08-02T14:14:50Z</time>
      </trkpt>
      <trkpt lat="46.19788745418191" lon="10.59677816927433">
        <ele>1654.0899999999999</ele>
        <time>2015-08-02T14:15:17Z</time>
      </trkpt>
      <trkpt lat="46.197875384241343" lon="10.59673760086298">
        <ele>1654.5699999999999</ele>
        <time>2015-08-02T14:15:48Z</time>
      </trkpt>
      <trkpt lat="46.197863649576902" lon="10.596766769886017">
        <ele>1654.0899999999999</ele>
        <time>2015-08-02T14:16:07Z</time>
      </trkpt>
      <trkpt lat="46.197882341220975" lon="10.596745563670993">
        <ele>1654.5699999999999</ele>
        <time>2015-08-02T14:16:31Z</time>
      </trkpt>
      <trkpt lat="46.197874210774899" lon="10.596760902553797">
        <ele>1654.5699999999999</ele>
        <time>2015-08-02T14:17:02Z</time>
      </trkpt>
      <trkpt lat="46.197860296815634" lon="10.596801722422242">
        <ele>1654.5699999999999</ele>
        <time>2015-08-02T14:17:21Z</time>
      </trkpt>
      <trkpt lat="46.1978654935956" lon="10.596788646653295">
        <ele>1654.5699999999999</ele>
        <time>2015-08-02T14:17:41Z</time>
      </trkpt>
      <trkpt lat="46.197859793901443" lon="10.59679719619453">
        <ele>1654.5699999999999</ele>
        <time>2015-08-02T14:18:08Z</time>
      </trkpt>
      <trkpt lat="46.197872618213296" lon="10.596779258921742">
        <ele>1656.01</ele>
        <time>2015-08-02T14:18:21Z</time>
      </trkpt>
      <trkpt lat="46.197865409776568" lon="10.596773559227586">
        <ele>1654.5699999999999</ele>
        <time>2015-08-02T14:18:48Z</time>
      </trkpt>
      <trkpt lat="46.197875216603279" lon="10.596747826784849">
        <ele>1654.5699999999999</ele>
        <time>2015-08-02T14:19:11Z</time>
      </trkpt>
      <trkpt lat="46.197881670668721" lon="10.596790574491024">
        <ele>1654.5699999999999</ele>
        <time>2015-08-02T14:19:42Z</time>
      </trkpt>
      <trkpt lat="46.197843700647354" lon="10.596775151789188">
        <ele>1654.5699999999999</ele>
        <time>2015-08-02T14:20:14Z</time>
      </trkpt>
      <trkpt lat="46.197872702032328" lon="10.596744222566485">
        <ele>1655.05</ele>
        <time>2015-08-02T14:20:38Z</time>
      </trkpt>
      <trkpt lat="46.197862476110458" lon="10.596758723258972">
        <ele>1655.05</ele>
        <time>2015-08-02T14:20:42Z</time>
      </trkpt>
      <trkpt lat="46.197859793901443" lon="10.596768194809556">
        <ele>1655.53</ele>
        <time>2015-08-02T14:20:43Z</time>
      </trkpt>
      <trkpt lat="46.197849065065384" lon="10.596775654703379">
        <ele>1655.05</ele>
        <time>2015-08-02T14:20:49Z</time>
      </trkpt>
      <trkpt lat="46.197866247966886" lon="10.596764422953129">
        <ele>1655.05</ele>
        <time>2015-08-02T14:20:57Z</time>
      </trkpt>
      <trkpt lat="46.19788602925837" lon="10.596702564507723">
        <ele>1655.05</ele>
        <time>2015-08-02T14:21:16Z</time>
      </trkpt>
      <trkpt lat="46.197872702032328" lon="10.596742210909724">
        <ele>1656.01</ele>
        <time>2015-08-02T14:21:25Z</time>
      </trkpt>
      <trkpt lat="46.197850406169891" lon="10.596703067421913">
        <ele>1655.53</ele>
        <time>2015-08-02T14:21:31Z</time>
      </trkpt>
      <trkpt lat="46.197823081165552" lon="10.596689824014902">
        <ele>1655.53</ele>
        <time>2015-08-02T14:21:34Z</time>
      </trkpt>
      <trkpt lat="46.197805646806955" lon="10.59668043628335">
        <ele>1655.53</ele>
        <time>2015-08-02T14:21:36Z</time>
      </trkpt>
      <trkpt lat="46.197755774483085" lon="10.59660030528903">
        <ele>1654.5699999999999</ele>
        <time>2015-08-02T14:21:43Z</time>
      </trkpt>
      <trkpt lat="46.197599284350872" lon="10.596568873152137">
        <ele>1654.5699999999999</ele>
        <time>2015-08-02T14:21:56Z</time>
      </trkpt>
      <trkpt lat="46.197507502511144" lon="10.596675826236606">
        <ele>1653.5999999999999</ele>
        <time>2015-08-02T14:22:07Z</time>
      </trkpt>
      <trkpt lat="46.197462910786271" lon="10.596949411556125">
        <ele>1653.1199999999999</ele>
        <time>2015-08-02T14:22:23Z</time>
      </trkpt>
      <trkpt lat="46.197428042069077" lon="10.597128951922059">
        <ele>1651.2</ele>
        <time>2015-08-02T14:22:34Z</time>
      </trkpt>
      <trkpt lat="46.197426868602633" lon="10.597163485363126">
        <ele>1650.72</ele>
        <time>2015-08-02T14:22:36Z</time>
      </trkpt>
      <trkpt lat="46.197424186393619" lon="10.597182596102357">
        <ele>1650.24</ele>
        <time>2015-08-02T14:22:37Z</time>
      </trkpt>
      <trkpt lat="46.197407254949212" lon="10.59740605764091">
        <ele>1648.8</ele>
        <time>2015-08-02T14:22:49Z</time>
      </trkpt>
      <trkpt lat="46.197386719286442" lon="10.59766598045826">
        <ele>1646.4000000000001</ele>
        <time>2015-08-02T14:23:03Z</time>
      </trkpt>
      <trkpt lat="46.197377750650048" lon="10.597703028470278">
        <ele>1646.4000000000001</ele>
        <time>2015-08-02T14:23:05Z</time>
      </trkpt>
      <trkpt lat="46.197368698194623" lon="10.597838563844562">
        <ele>1645.4300000000001</ele>
        <time>2015-08-02T14:23:12Z</time>
      </trkpt>
      <trkpt lat="46.19736853055656" lon="10.597860189154744">
        <ele>1645.4300000000001</ele>
        <time>2015-08-02T14:23:13Z</time>
      </trkpt>
      <trkpt lat="46.197335673496127" lon="10.598002932965755">
        <ele>1644.47</ele>
        <time>2015-08-02T14:23:21Z</time>
      </trkpt>
      <trkpt lat="46.197261577472091" lon="10.598191861063242">
        <ele>1643.03</ele>
        <time>2015-08-02T14:23:32Z</time>
      </trkpt>
      <trkpt lat="46.197168454527855" lon="10.598389422520995">
        <ele>1641.5899999999999</ele>
        <time>2015-08-02T14:23:44Z</time>
      </trkpt>
      <trkpt lat="46.197130316868424" lon="10.598516743630171">
        <ele>1641.1099999999999</ele>
        <time>2015-08-02T14:23:51Z</time>
      </trkpt>
      <trkpt lat="46.197124281898141" lon="10.598531914874911">
        <ele>1640.6300000000001</ele>
        <time>2015-08-02T14:23:52Z</time>
      </trkpt>
      <trkpt lat="46.197118414565921" lon="10.598549265414476">
        <ele>1640.6300000000001</ele>
        <time>2015-08-02T14:23:53Z</time>
      </trkpt>
      <trkpt lat="46.197110619395971" lon="10.598565777763724">
        <ele>1640.6300000000001</ele>
        <time>2015-08-02T14:23:54Z</time>
      </trkpt>
      <trkpt lat="46.197103410959244" lon="10.598580949008465">
        <ele>1640.6300000000001</ele>
        <time>2015-08-02T14:23:55Z</time>
      </trkpt>
      <trkpt lat="46.197097627446055" lon="10.59859829954803">
        <ele>1640.1500000000001</ele>
        <time>2015-08-02T14:23:56Z</time>
      </trkpt>
      <trkpt lat="46.197091927751899" lon="10.598615985363722">
        <ele>1640.1500000000001</ele>
        <time>2015-08-02T14:23:57Z</time>
      </trkpt>
      <trkpt lat="46.197039959952235" lon="10.598826874047518">
        <ele>1639.1900000000001</ele>
        <time>2015-08-02T14:24:09Z</time>
      </trkpt>
      <trkpt lat="46.197042725980282" lon="10.598843637853861">
        <ele>1639.1900000000001</ele>
        <time>2015-08-02T14:24:10Z</time>
      </trkpt>
      <trkpt lat="46.197047587484121" lon="10.598862413316965">
        <ele>1638.7</ele>
        <time>2015-08-02T14:24:11Z</time>
      </trkpt>
      <trkpt lat="46.19705337099731" lon="10.598881440237164">
        <ele>1638.7</ele>
        <time>2015-08-02T14:24:12Z</time>
      </trkpt>
      <trkpt lat="46.197072984650731" lon="10.598921254277229">
        <ele>1638.22</ele>
        <time>2015-08-02T14:24:15Z</time>
      </trkpt>
      <trkpt lat="46.197082288563251" lon="10.598931228742003">
        <ele>1638.22</ele>
        <time>2015-08-02T14:24:16Z</time>
      </trkpt>
      <trkpt lat="46.197201060131192" lon="10.598848834633827">
        <ele>1636.78</ele>
        <time>2015-08-02T14:24:28Z</time>
      </trkpt>
      <trkpt lat="46.197221092879772" lon="10.598827209323645">
        <ele>1636.3</ele>
        <time>2015-08-02T14:24:30Z</time>
      </trkpt>
      <trkpt lat="46.197294350713491" lon="10.598666528239846">
        <ele>1635.3399999999999</ele>
        <time>2015-08-02T14:24:40Z</time>
      </trkpt>
      <trkpt lat="46.197300218045712" lon="10.598649764433503">
        <ele>1634.8599999999999</ele>
        <time>2015-08-02T14:24:41Z</time>
      </trkpt>
      <trkpt lat="46.197304492816329" lon="10.598631910979748">
        <ele>1634.8599999999999</ele>
        <time>2015-08-02T14:24:42Z</time>
      </trkpt>
      <trkpt lat="46.197307845577598" lon="10.598615650087595">
        <ele>1634.8599999999999</ele>
        <time>2015-08-02T14:24:43Z</time>
      </trkpt>
      <trkpt lat="46.197312036529183" lon="10.598602574318647">
        <ele>1634.8599999999999</ele>
        <time>2015-08-02T14:24:44Z</time>
      </trkpt>
      <trkpt lat="46.197318742051721" lon="10.598586481064558">
        <ele>1634.3800000000001</ele>
        <time>2015-08-02T14:24:45Z</time>
      </trkpt>
      <trkpt lat="46.197396777570248" lon="10.59851473197341">
        <ele>1633.9000000000001</ele>
        <time>2015-08-02T14:24:53Z</time>
      </trkpt>
      <trkpt lat="46.1974096018821" lon="10.598511211574078">
        <ele>1633.9000000000001</ele>
        <time>2015-08-02T14:24:54Z</time>
      </trkpt>
      <trkpt lat="46.19756399653852" lon="10.59852990321815">
        <ele>1632.9400000000001</ele>
        <time>2015-08-02T14:25:06Z</time>
      </trkpt>
      <trkpt lat="46.197684779763222" lon="10.598648674786091">
        <ele>1631.49</ele>
        <time>2015-08-02T14:25:17Z</time>
      </trkpt>
      <trkpt lat="46.197785027325153" lon="10.598800135776401">
        <ele>1630.53</ele>
        <time>2015-08-02T14:25:28Z</time>
      </trkpt>
      <trkpt lat="46.197827523574233" lon="10.598854953423142">
        <ele>1630.05</ele>
        <time>2015-08-02T14:25:32Z</time>
      </trkpt>
      <trkpt lat="46.197832720354199" lon="10.59887683019042">
        <ele>1630.05</ele>
        <time>2015-08-02T14:25:33Z</time>
      </trkpt>
      <trkpt lat="46.197775723412633" lon="10.599031141027808">
        <ele>1628.1300000000001</ele>
        <time>2015-08-02T14:25:43Z</time>
      </trkpt>
      <trkpt lat="46.197619903832674" lon="10.598988896235824">
        <ele>1626.6900000000001</ele>
        <time>2015-08-02T14:25:54Z</time>
      </trkpt>
      <trkpt lat="46.197521584108472" lon="10.598957883194089">
        <ele>1625.73</ele>
        <time>2015-08-02T14:26:01Z</time>
      </trkpt>
      <trkpt lat="46.19750926271081" lon="10.59896039776504">
        <ele>1625.73</ele>
        <time>2015-08-02T14:26:02Z</time>
      </trkpt>
      <trkpt lat="46.197472549974918" lon="10.598982945084572">
        <ele>1625.25</ele>
        <time>2015-08-02T14:26:06Z</time>
      </trkpt>
      <trkpt lat="46.197473471984267" lon="10.599082941189408">
        <ele>1624.28</ele>
        <time>2015-08-02T14:26:14Z</time>
      </trkpt>
      <trkpt lat="46.197483111172915" lon="10.599094843491912">
        <ele>1624.28</ele>
        <time>2015-08-02T14:26:15Z</time>
      </trkpt>
      <trkpt lat="46.197493756189942" lon="10.599106745794415">
        <ele>1624.28</ele>
        <time>2015-08-02T14:26:16Z</time>
      </trkpt>
      <trkpt lat="46.197585621848702" lon="10.599267929792404">
        <ele>1623.3199999999999</ele>
        <time>2015-08-02T14:26:28Z</time>
      </trkpt>
      <trkpt lat="46.197597691789269" lon="10.599297014996409">
        <ele>1622.8399999999999</ele>
        <time>2015-08-02T14:26:30Z</time>
      </trkpt>
      <trkpt lat="46.197607330977917" lon="10.599374212324619">
        <ele>1620.9200000000001</ele>
        <time>2015-08-02T14:26:39Z</time>
      </trkpt>
      <trkpt lat="46.197618981823325" lon="10.599507065489888">
        <ele>1618.52</ele>
        <time>2015-08-02T14:26:48Z</time>
      </trkpt>
      <trkpt lat="46.197551172226667" lon="10.599681744351983">
        <ele>1617.5599999999999</ele>
        <time>2015-08-02T14:26:58Z</time>
      </trkpt>
      <trkpt lat="46.197545304894447" lon="10.599692473188043">
        <ele>1617.5599999999999</ele>
        <time>2015-08-02T14:26:59Z</time>
      </trkpt>
      <trkpt lat="46.197448074817657" lon="10.599834797903895">
        <ele>1615.6300000000001</ele>
        <time>2015-08-02T14:27:12Z</time>
      </trkpt>
      <trkpt lat="46.197418738156557" lon="10.599888190627098">
        <ele>1614.6700000000001</ele>
        <time>2015-08-02T14:27:22Z</time>
      </trkpt>
      <trkpt lat="46.197415133938193" lon="10.599910486489534">
        <ele>1614.6700000000001</ele>
        <time>2015-08-02T14:27:25Z</time>
      </trkpt>
      <trkpt lat="46.197473555803299" lon="10.599945774301887">
        <ele>1614.1900000000001</ele>
        <time>2015-08-02T14:27:31Z</time>
      </trkpt>
      <trkpt lat="46.197404153645039" lon="10.600053900852799">
        <ele>1612.27</ele>
        <time>2015-08-02T14:27:38Z</time>
      </trkpt>
      <trkpt lat="46.197350509464741" lon="10.600172253325582">
        <ele>1611.3099999999999</ele>
        <time>2015-08-02T14:27:46Z</time>
      </trkpt>
      <trkpt lat="46.197330895811319" lon="10.600364031270146">
        <ele>1609.8599999999999</ele>
        <time>2015-08-02T14:27:57Z</time>
      </trkpt>
      <trkpt lat="46.197309019044042" lon="10.600496884435415">
        <ele>1608.9000000000001</ele>
        <time>2015-08-02T14:28:05Z</time>
      </trkpt>
      <trkpt lat="46.197306672111154" lon="10.600586486980319">
        <ele>1608.4200000000001</ele>
        <time>2015-08-02T14:28:10Z</time>
      </trkpt>
      <trkpt lat="46.197345731779933" lon="10.600829897448421">
        <ele>1606.5</ele>
        <time>2015-08-02T14:28:23Z</time>
      </trkpt>
      <trkpt lat="46.197368614375591" lon="10.600888738408685">
        <ele>1606.98</ele>
        <time>2015-08-02T14:28:28Z</time>
      </trkpt>
      <trkpt lat="46.197489565238357" lon="10.601114295423031">
        <ele>1606.02</ele>
        <time>2015-08-02T14:28:43Z</time>
      </trkpt>
      <trkpt lat="46.197605654597282" lon="10.601332979276776">
        <ele>1605.0599999999999</ele>
        <time>2015-08-02T14:28:57Z</time>
      </trkpt>
      <trkpt lat="46.197693832218647" lon="10.601532636210322">
        <ele>1604.5799999999999</ele>
        <time>2015-08-02T14:29:10Z</time>
      </trkpt>
      <trkpt lat="46.197761222720146" lon="10.601789792999625">
        <ele>1604.0999999999999</ele>
        <time>2015-08-02T14:29:24Z</time>
      </trkpt>
      <trkpt lat="46.197831882163882" lon="10.602021887898445">
        <ele>1603.6199999999999</ele>
        <time>2015-08-02T14:29:37Z</time>
      </trkpt>
      <trkpt lat="46.19787965901196" lon="10.602263873443007">
        <ele>1603.6199999999999</ele>
        <time>2015-08-02T14:29:50Z</time>
      </trkpt>
      <trkpt lat="46.197881083935499" lon="10.602284409105778">
        <ele>1603.1400000000001</ele>
        <time>2015-08-02T14:29:51Z</time>
      </trkpt>
      <trkpt lat="46.19789675809443" lon="10.60237686149776">
        <ele>1603.1400000000001</ele>
        <time>2015-08-02T14:29:57Z</time>
      </trkpt>
      <trkpt lat="46.197978314012289" lon="10.602663606405258">
        <ele>1602.6600000000001</ele>
        <time>2015-08-02T14:30:13Z</time>
      </trkpt>
      <trkpt lat="46.198022402822971" lon="10.602883966639638">
        <ele>1602.6600000000001</ele>
        <time>2015-08-02T14:30:26Z</time>
      </trkpt>
      <trkpt lat="46.198108149692416" lon="10.603091334924102">
        <ele>1602.1700000000001</ele>
        <time>2015-08-02T14:30:39Z</time>
      </trkpt>
      <trkpt lat="46.198228681460023" lon="10.603383025154471">
        <ele>1601.6900000000001</ele>
        <time>2015-08-02T14:30:56Z</time>
      </trkpt>
      <trkpt lat="46.19831308722496" lon="10.603539934381843">
        <ele>1601.21</ele>
        <time>2015-08-02T14:31:07Z</time>
      </trkpt>
      <trkpt lat="46.198337227106094" lon="10.603601457551122">
        <ele>1601.21</ele>
        <time>2015-08-02T14:31:11Z</time>
      </trkpt>
      <trkpt lat="46.198379136621952" lon="10.603689299896359">
        <ele>1600.73</ele>
        <time>2015-08-02T14:31:16Z</time>
      </trkpt>
      <trkpt lat="46.19841224513948" lon="10.603767419233918">
        <ele>1600.73</ele>
        <time>2015-08-02T14:31:21Z</time>
      </trkpt>
      <trkpt lat="46.19851098395884" lon="10.603963723406196">
        <ele>1600.25</ele>
        <time>2015-08-02T14:31:33Z</time>
      </trkpt>
      <trkpt lat="46.198611985892057" lon="10.604144018143415">
        <ele>1599.29</ele>
        <time>2015-08-02T14:31:45Z</time>
      </trkpt>
      <trkpt lat="46.198716592043638" lon="10.60437343083322">
        <ele>1598.8099999999999</ele>
        <time>2015-08-02T14:31:59Z</time>
      </trkpt>
      <trkpt lat="46.198798483237624" lon="10.604569399729371">
        <ele>1599.29</ele>
        <time>2015-08-02T14:32:12Z</time>
      </trkpt>
      <trkpt lat="46.198906442150474" lon="10.604771906509995">
        <ele>1598.3299999999999</ele>
        <time>2015-08-02T14:32:26Z</time>
      </trkpt>
      <trkpt lat="46.199011970311403" lon="10.605005510151386">
        <ele>1597.8499999999999</ele>
        <time>2015-08-02T14:32:41Z</time>
      </trkpt>
      <trkpt lat="46.199122192338109" lon="10.605207262560725">
        <ele>1597.3699999999999</ele>
        <time>2015-08-02T14:32:55Z</time>
      </trkpt>
      <trkpt lat="46.199212549254298" lon="10.605400549247861">
        <ele>1596.8900000000001</ele>
        <time>2015-08-02T14:33:08Z</time>
      </trkpt>
      <trkpt lat="46.199221014976501" lon="10.605410188436508">
        <ele>1596.8900000000001</ele>
        <time>2015-08-02T14:33:09Z</time>
      </trkpt>
      <trkpt lat="46.199294608086348" lon="10.605619316920638">
        <ele>1596.4100000000001</ele>
        <time>2015-08-02T14:33:22Z</time>
      </trkpt>
      <trkpt lat="46.199325285851955" lon="10.605692071840167">
        <ele>1595.45</ele>
        <time>2015-08-02T14:33:27Z</time>
      </trkpt>
      <trkpt lat="46.199331823736429" lon="10.605916874483228">
        <ele>1596.4100000000001</ele>
        <time>2015-08-02T14:33:40Z</time>
      </trkpt>
      <trkpt lat="46.199327632784843" lon="10.606138072907925">
        <ele>1596.4100000000001</ele>
        <time>2015-08-02T14:33:53Z</time>
      </trkpt>
      <trkpt lat="46.199331739917397" lon="10.606152573600411">
        <ele>1596.4100000000001</ele>
        <time>2015-08-02T14:33:54Z</time>
      </trkpt>
      <trkpt lat="46.199328722432256" lon="10.606252318248153">
        <ele>1596.4100000000001</ele>
        <time>2015-08-02T14:34:00Z</time>
      </trkpt>
      <trkpt lat="46.199293518438935" lon="10.606300262734294">
        <ele>1596.4100000000001</ele>
        <time>2015-08-02T14:34:04Z</time>
      </trkpt>
      <trkpt lat="46.199180446565151" lon="10.606322977691889">
        <ele>1595.9300000000001</ele>
        <time>2015-08-02T14:34:14Z</time>
      </trkpt>
      <trkpt lat="46.19910073466599" lon="10.606302861124277">
        <ele>1596.4100000000001</ele>
        <time>2015-08-02T14:34:23Z</time>
      </trkpt>
      <trkpt lat="46.199125461280346" lon="10.606242595240474">
        <ele>1595.9300000000001</ele>
        <time>2015-08-02T14:34:40Z</time>
      </trkpt>
      <trkpt lat="46.199082629755139" lon="10.606241505593061">
        <ele>1595.9300000000001</ele>
        <time>2015-08-02T14:34:48Z</time>
      </trkpt>
      <trkpt lat="46.199039043858647" lon="10.606212504208088">
        <ele>1595.45</ele>
        <time>2015-08-02T14:35:07Z</time>
      </trkpt>
      <trkpt lat="46.199121521785855" lon="10.60628978535533">
        <ele>1595.45</ele>
        <time>2015-08-02T14:35:32Z</time>
      </trkpt>
      <trkpt lat="46.199096292257309" lon="10.606332700699568">
        <ele>1595.45</ele>
        <time>2015-08-02T14:35:47Z</time>
      </trkpt>
      <trkpt lat="46.199064776301384" lon="10.606349380686879">
        <ele>1595.45</ele>
        <time>2015-08-02T14:36:11Z</time>
      </trkpt>
      <trkpt lat="46.199092855677009" lon="10.606324067339301">
        <ele>1595.9300000000001</ele>
        <time>2015-08-02T14:36:32Z</time>
      </trkpt>
      <trkpt lat="46.199130490422249" lon="10.60631568543613">
        <ele>1595.9300000000001</ele>
        <time>2015-08-02T14:36:50Z</time>
      </trkpt>
      <trkpt lat="46.199106015264988" lon="10.606299173086882">
        <ele>1595.9300000000001</ele>
        <time>2015-08-02T14:37:16Z</time>
      </trkpt>
      <trkpt lat="46.199126550927758" lon="10.606268746778369">
        <ele>1595.9300000000001</ele>
        <time>2015-08-02T14:37:41Z</time>
      </trkpt>
      <trkpt lat="46.199134765192866" lon="10.606244439259171">
        <ele>1596.4100000000001</ele>
        <time>2015-08-02T14:38:05Z</time>
      </trkpt>
      <trkpt lat="46.19912713766098" lon="10.606253491714597">
        <ele>1596.8900000000001</ele>
        <time>2015-08-02T14:38:28Z</time>
      </trkpt>
      <trkpt lat="46.199129233136773" lon="10.606301352381706">
        <ele>1596.8900000000001</ele>
        <time>2015-08-02T14:38:48Z</time>
      </trkpt>
      <trkpt lat="46.199102746322751" lon="10.606290372088552">
        <ele>1596.8900000000001</ele>
        <time>2015-08-02T14:39:07Z</time>
      </trkpt>
      <trkpt lat="46.199122192338109" lon="10.606317445635796">
        <ele>1596.8900000000001</ele>
        <time>2015-08-02T14:39:27Z</time>
      </trkpt>
      <trkpt lat="46.19910316541791" lon="10.60633379034698">
        <ele>1597.3699999999999</ele>
        <time>2015-08-02T14:39:47Z</time>
      </trkpt>
      <trkpt lat="46.199111128225923" lon="10.606335299089551">
        <ele>1597.8499999999999</ele>
        <time>2015-08-02T14:40:14Z</time>
      </trkpt>
      <trkpt lat="46.199071314185858" lon="10.606361031532288">
        <ele>1597.8499999999999</ele>
        <time>2015-08-02T14:40:37Z</time>
      </trkpt>
      <trkpt lat="46.199147086590528" lon="10.606437474489212">
        <ele>1597.8499999999999</ele>
        <time>2015-08-02T14:41:03Z</time>
      </trkpt>
      <trkpt lat="46.199127305299044" lon="10.606411909684539">
        <ele>1598.3299999999999</ele>
        <time>2015-08-02T14:41:22Z</time>
      </trkpt>
      <trkpt lat="46.199197378009558" lon="10.60637335292995">
        <ele>1598.8099999999999</ele>
        <time>2015-08-02T14:41:41Z</time>
      </trkpt>
      <trkpt lat="46.199202407151461" lon="10.60637678951025">
        <ele>1598.8099999999999</ele>
        <time>2015-08-02T14:42:01Z</time>
      </trkpt>
    </trkseg>
  </trk>

  <trk>
    <name>malga-bedole-rif-caduti-adamello1-8-2015</name>
    <extensions>
      <gpxx:TrackExtension>
        <gpxx:DisplayColor>Yellow</gpxx:DisplayColor>
      </gpxx:TrackExtension>
      <gpxtrkx:TrackStatsExtension xmlns:gpxtrkx="http://www.garmin.com/xmlschemas/TrackStatsExtension/v1">
        <gpxtrkx:Distance>10322</gpxtrkx:Distance>
        <gpxtrkx:TotalElapsedTime>23630</gpxtrkx:TotalElapsedTime>
        <gpxtrkx:MovingTime>15654</gpxtrkx:MovingTime>
        <gpxtrkx:StoppedTime>7180</gpxtrkx:StoppedTime>
        <gpxtrkx:MovingSpeed>1</gpxtrkx:MovingSpeed>
        <gpxtrkx:MaxSpeed>2</gpxtrkx:MaxSpeed>
        <gpxtrkx:MaxElevation>3037</gpxtrkx:MaxElevation>
        <gpxtrkx:MinElevation>1595</gpxtrkx:MinElevation>
        <gpxtrkx:Ascent>1474</gpxtrkx:Ascent>
        <gpxtrkx:Descent>45</gpxtrkx:Descent>
        <gpxtrkx:AvgAscentRate>0</gpxtrkx:AvgAscentRate>
        <gpxtrkx:MaxAscentRate>0</gpxtrkx:MaxAscentRate>
        <gpxtrkx:AvgDescentRate>0</gpxtrkx:AvgDescentRate>
        <gpxtrkx:MaxDescentRate>-0</gpxtrkx:MaxDescentRate>
      </gpxtrkx:TrackStatsExtension>
    </extensions>
    <trkseg>
      <trkpt lat="46.199136190116405" lon="10.606348542496562">
        <ele>1602.1700000000001</ele>
        <time>2015-08-01T08:28:40Z</time>
      </trkpt>
      <trkpt lat="46.199135687202215" lon="10.606347117573023">
        <ele>1602.1700000000001</ele>
        <time>2015-08-01T08:28:41Z</time>
      </trkpt>
      <trkpt lat="46.19911246933043" lon="10.606333371251822">
        <ele>1596.4100000000001</ele>
        <time>2015-08-01T08:28:45Z</time>
      </trkpt>
      <trkpt lat="46.199109619483352" lon="10.60633085668087">
        <ele>1596.4100000000001</ele>
        <time>2015-08-01T08:28:46Z</time>
      </trkpt>
      <trkpt lat="46.199152618646622" lon="10.606305208057165">
        <ele>1595.9300000000001</ele>
        <time>2015-08-01T08:29:03Z</time>
      </trkpt>
      <trkpt lat="46.199188828468323" lon="10.60630545951426">
        <ele>1594.96</ele>
        <time>2015-08-01T08:29:14Z</time>
      </trkpt>
      <trkpt lat="46.199168460443616" lon="10.606321133673191">
        <ele>1594.48</ele>
        <time>2015-08-01T08:29:33Z</time>
      </trkpt>
      <trkpt lat="46.199155636131763" lon="10.606318200007081">
        <ele>1595.9300000000001</ele>
        <time>2015-08-01T08:29:38Z</time>
      </trkpt>
      <trkpt lat="46.199141051620245" lon="10.606337562203407">
        <ele>1595.45</ele>
        <time>2015-08-01T08:29:52Z</time>
      </trkpt>
      <trkpt lat="46.199153624475002" lon="10.606356924399734">
        <ele>1594.96</ele>
        <time>2015-08-01T08:30:12Z</time>
      </trkpt>
      <trkpt lat="46.199173238128424" lon="10.606386261060834">
        <ele>1594.96</ele>
        <time>2015-08-01T08:30:33Z</time>
      </trkpt>
      <trkpt lat="46.199172148481011" lon="10.606383997946978">
        <ele>1595.45</ele>
        <time>2015-08-01T08:30:52Z</time>
      </trkpt>
      <trkpt lat="46.199211878702044" lon="10.606369916349649">
        <ele>1594.96</ele>
        <time>2015-08-01T08:31:20Z</time>
      </trkpt>
      <trkpt lat="46.199161084368825" lon="10.606360444799066">
        <ele>1594.96</ele>
        <time>2015-08-01T08:31:47Z</time>
      </trkpt>
      <trkpt lat="46.199151864275336" lon="10.606343848630786">
        <ele>1594.96</ele>
        <time>2015-08-01T08:32:11Z</time>
      </trkpt>
      <trkpt lat="46.199202826246619" lon="10.606347033753991">
        <ele>1595.45</ele>
        <time>2015-08-01T08:32:26Z</time>
      </trkpt>
      <trkpt lat="46.199154797941446" lon="10.606314679607749">
        <ele>1595.9300000000001</ele>
        <time>2015-08-01T08:32:38Z</time>
      </trkpt>
      <trkpt lat="46.199113894253969" lon="10.606281068176031">
        <ele>1595.9300000000001</ele>
        <time>2015-08-01T08:32:51Z</time>
      </trkpt>
      <trkpt lat="46.199106350541115" lon="10.606271009892225">
        <ele>1595.45</ele>
        <time>2015-08-01T08:33:07Z</time>
      </trkpt>
      <trkpt lat="46.199131160974503" lon="10.606236308813095">
        <ele>1595.45</ele>
        <time>2015-08-01T08:33:18Z</time>
      </trkpt>
      <trkpt lat="46.199107524007559" lon="10.606193309649825">
        <ele>1595.45</ele>
        <time>2015-08-01T08:33:27Z</time>
      </trkpt>
      <trkpt lat="46.199061339721084" lon="10.606183921918273">
        <ele>1595.9300000000001</ele>
        <time>2015-08-01T08:33:37Z</time>
      </trkpt>
      <trkpt lat="46.199077181518078" lon="10.60617545619607">
        <ele>1595.9300000000001</ele>
        <time>2015-08-01T08:33:50Z</time>
      </trkpt>
      <trkpt lat="46.199053796008229" lon="10.606171432882547">
        <ele>1595.45</ele>
        <time>2015-08-01T08:34:09Z</time>
      </trkpt>
      <trkpt lat="46.199025381356478" lon="10.606150142848492">
        <ele>1595.45</ele>
        <time>2015-08-01T08:34:27Z</time>
      </trkpt>
      <trkpt lat="46.199018256738782" lon="10.606133798137307">
        <ele>1595.9300000000001</ele>
        <time>2015-08-01T08:34:38Z</time>
      </trkpt>
      <trkpt lat="46.198978945612907" lon="10.605973619967699">
        <ele>1595.9300000000001</ele>
        <time>2015-08-01T08:34:49Z</time>
      </trkpt>
      <trkpt lat="46.198955057188869" lon="10.605923412367702">
        <ele>1595.9300000000001</ele>
        <time>2015-08-01T08:35:01Z</time>
      </trkpt>
      <trkpt lat="46.198932006955147" lon="10.605848813429475">
        <ele>1595.9300000000001</ele>
        <time>2015-08-01T08:35:12Z</time>
      </trkpt>
      <trkpt lat="46.198878530412912" lon="10.605774382129312">
        <ele>1595.9300000000001</ele>
        <time>2015-08-01T08:35:23Z</time>
      </trkpt>
      <trkpt lat="46.198867131024599" lon="10.60577723197639">
        <ele>1596.4100000000001</ele>
        <time>2015-08-01T08:35:27Z</time>
      </trkpt>
      <trkpt lat="46.198785742744803" lon="10.605722833424807">
        <ele>1596.8900000000001</ele>
        <time>2015-08-01T08:35:40Z</time>
      </trkpt>
      <trkpt lat="46.198740396648645" lon="10.60558469966054">
        <ele>1595.45</ele>
        <time>2015-08-01T08:35:51Z</time>
      </trkpt>
      <trkpt lat="46.198691027238965" lon="10.605439860373735">
        <ele>1595.9300000000001</ele>
        <time>2015-08-01T08:36:03Z</time>
      </trkpt>
      <trkpt lat="46.198687003925443" lon="10.605354951694608">
        <ele>1595.9300000000001</ele>
        <time>2015-08-01T08:36:11Z</time>
      </trkpt>
      <trkpt lat="46.198639813810587" lon="10.60526367276907">
        <ele>1595.45</ele>
        <time>2015-08-01T08:36:23Z</time>
      </trkpt>
      <trkpt lat="46.198571585118771" lon="10.60522360727191">
        <ele>1595.9300000000001</ele>
        <time>2015-08-01T08:36:33Z</time>
      </trkpt>
      <trkpt lat="46.198536297306418" lon="10.605108272284269">
        <ele>1595.9300000000001</ele>
        <time>2015-08-01T08:36:43Z</time>
      </trkpt>
      <trkpt lat="46.19853344745934" lon="10.604995200410485">
        <ele>1595.9300000000001</ele>
        <time>2015-08-01T08:36:52Z</time>
      </trkpt>
      <trkpt lat="46.198476953431964" lon="10.604939963668585">
        <ele>1595.9300000000001</ele>
        <time>2015-08-01T08:37:03Z</time>
      </trkpt>
      <trkpt lat="46.198424566537142" lon="10.604835273697972">
        <ele>1596.4100000000001</ele>
        <time>2015-08-01T08:37:16Z</time>
      </trkpt>
      <trkpt lat="46.198354158550501" lon="10.60475941747427">
        <ele>1596.4100000000001</ele>
        <time>2015-08-01T08:37:29Z</time>
      </trkpt>
      <trkpt lat="46.198317278176546" lon="10.604624887928367">
        <ele>1597.8499999999999</ele>
        <time>2015-08-01T08:37:45Z</time>
      </trkpt>
      <trkpt lat="46.198268411681056" lon="10.604494214057922">
        <ele>1597.8499999999999</ele>
        <time>2015-08-01T08:37:56Z</time>
      </trkpt>
      <trkpt lat="46.198207894340158" lon="10.604384494945407">
        <ele>1598.3299999999999</ele>
        <time>2015-08-01T08:38:06Z</time>
      </trkpt>
      <trkpt lat="46.198187693953514" lon="10.604349542409182">
        <ele>1598.3299999999999</ele>
        <time>2015-08-01T08:38:09Z</time>
      </trkpt>
      <trkpt lat="46.198154501616955" lon="10.604237895458937">
        <ele>1598.8099999999999</ele>
        <time>2015-08-01T08:38:20Z</time>
      </trkpt>
      <trkpt lat="46.198133546859026" lon="10.604166649281979">
        <ele>1598.8099999999999</ele>
        <time>2015-08-01T08:38:25Z</time>
      </trkpt>
      <trkpt lat="46.1981694214046" lon="10.604011164978147">
        <ele>1598.8099999999999</ele>
        <time>2015-08-01T08:38:37Z</time>
      </trkpt>
      <trkpt lat="46.198181910440326" lon="10.603953581303358">
        <ele>1599.29</ele>
        <time>2015-08-01T08:38:42Z</time>
      </trkpt>
      <trkpt lat="46.198248211294413" lon="10.603823326528072">
        <ele>1599.29</ele>
        <time>2015-08-01T08:38:53Z</time>
      </trkpt>
      <trkpt lat="46.198313757777214" lon="10.603675469756126">
        <ele>1599.29</ele>
        <time>2015-08-01T08:39:05Z</time>
      </trkpt>
      <trkpt lat="46.198316439986229" lon="10.603664824739099">
        <ele>1599.29</ele>
        <time>2015-08-01T08:39:06Z</time>
      </trkpt>
      <trkpt lat="46.198300765827298" lon="10.60355200432241">
        <ele>1599.29</ele>
        <time>2015-08-01T08:39:16Z</time>
      </trkpt>
      <trkpt lat="46.198285678401589" lon="10.603518979623914">
        <ele>1599.29</ele>
        <time>2015-08-01T08:39:20Z</time>
      </trkpt>
      <trkpt lat="46.198227172717452" lon="10.603388724848628">
        <ele>1599.29</ele>
        <time>2015-08-01T08:39:31Z</time>
      </trkpt>
      <trkpt lat="46.198173863813281" lon="10.603253524750471">
        <ele>1599.77</ele>
        <time>2015-08-01T08:39:42Z</time>
      </trkpt>
      <trkpt lat="46.198105132207274" lon="10.603118157014251">
        <ele>1601.6900000000001</ele>
        <time>2015-08-01T08:39:54Z</time>
      </trkpt>
      <trkpt lat="46.198057606816292" lon="10.603003827854991">
        <ele>1599.77</ele>
        <time>2015-08-01T08:40:05Z</time>
      </trkpt>
      <trkpt lat="46.198046039789915" lon="10.602922271937132">
        <ele>1600.25</ele>
        <time>2015-08-01T08:40:14Z</time>
      </trkpt>
      <trkpt lat="46.198008907958865" lon="10.602760417386889">
        <ele>1600.25</ele>
        <time>2015-08-01T08:40:23Z</time>
      </trkpt>
      <trkpt lat="46.197966746985912" lon="10.602673748508096">
        <ele>1600.25</ele>
        <time>2015-08-01T08:40:31Z</time>
      </trkpt>
      <trkpt lat="46.197952246293426" lon="10.602579619735479">
        <ele>1599.77</ele>
        <time>2015-08-01T08:40:41Z</time>
      </trkpt>
      <trkpt lat="46.197941852733493" lon="10.602540476247668">
        <ele>1600.25</ele>
        <time>2015-08-01T08:40:44Z</time>
      </trkpt>
      <trkpt lat="46.197908241301775" lon="10.602360684424639">
        <ele>1600.25</ele>
        <time>2015-08-01T08:40:56Z</time>
      </trkpt>
      <trkpt lat="46.197862811386585" lon="10.60218877159059">
        <ele>1600.25</ele>
        <time>2015-08-01T08:41:07Z</time>
      </trkpt>
      <trkpt lat="46.197824757546186" lon="10.602014847099781">
        <ele>1600.25</ele>
        <time>2015-08-01T08:41:18Z</time>
      </trkpt>
      <trkpt lat="46.197765748947859" lon="10.601818962022662">
        <ele>1600.73</ele>
        <time>2015-08-01T08:41:30Z</time>
      </trkpt>
      <trkpt lat="46.197716211900115" lon="10.601610671728849">
        <ele>1601.21</ele>
        <time>2015-08-01T08:41:43Z</time>
      </trkpt>
      <trkpt lat="46.197666339576244" lon="10.601458875462413">
        <ele>1601.21</ele>
        <time>2015-08-01T08:41:54Z</time>
      </trkpt>
      <trkpt lat="46.197578497231007" lon="10.601296098902822">
        <ele>1601.6900000000001</ele>
        <time>2015-08-01T08:42:06Z</time>
      </trkpt>
      <trkpt lat="46.197503982111812" lon="10.601156204938889">
        <ele>1602.1700000000001</ele>
        <time>2015-08-01T08:42:18Z</time>
      </trkpt>
      <trkpt lat="46.197449499741197" lon="10.601034667342901">
        <ele>1602.6600000000001</ele>
        <time>2015-08-01T08:42:29Z</time>
      </trkpt>
      <trkpt lat="46.197370709851384" lon="10.600882954895496">
        <ele>1603.1400000000001</ele>
        <time>2015-08-01T08:42:42Z</time>
      </trkpt>
      <trkpt lat="46.197314970195293" lon="10.600795447826385">
        <ele>1603.6199999999999</ele>
        <time>2015-08-01T08:42:52Z</time>
      </trkpt>
      <trkpt lat="46.197295775637031" lon="10.600676257163286">
        <ele>1604.0999999999999</ele>
        <time>2015-08-01T08:43:01Z</time>
      </trkpt>
      <trkpt lat="46.197299044579268" lon="10.600533932447433">
        <ele>1605.0599999999999</ele>
        <time>2015-08-01T08:43:12Z</time>
      </trkpt>
      <trkpt lat="46.197322262451053" lon="10.600365875288844">
        <ele>1606.5</ele>
        <time>2015-08-01T08:43:25Z</time>
      </trkpt>
      <trkpt lat="46.197311198338866" lon="10.600201170891523">
        <ele>1606.98</ele>
        <time>2015-08-01T08:43:37Z</time>
      </trkpt>
      <trkpt lat="46.197327459231019" lon="10.60005540959537">
        <ele>1608.9000000000001</ele>
        <time>2015-08-01T08:43:50Z</time>
      </trkpt>
      <trkpt lat="46.197395101189613" lon="10.59996304102242">
        <ele>1609.8599999999999</ele>
        <time>2015-08-01T08:44:00Z</time>
      </trkpt>
      <trkpt lat="46.197462575510144" lon="10.599920377135277">
        <ele>1610.8299999999999</ele>
        <time>2015-08-01T08:44:09Z</time>
      </trkpt>
      <trkpt lat="46.197472382336855" lon="10.599908558651805">
        <ele>1611.3099999999999</ele>
        <time>2015-08-01T08:44:11Z</time>
      </trkpt>
      <trkpt lat="46.197490822523832" lon="10.599888693541288">
        <ele>1611.3099999999999</ele>
        <time>2015-08-01T08:44:14Z</time>
      </trkpt>
      <trkpt lat="46.197510939091444" lon="10.599874863401055">
        <ele>1611.79</ele>
        <time>2015-08-01T08:44:16Z</time>
      </trkpt>
      <trkpt lat="46.197626022621989" lon="10.599832199513912">
        <ele>1612.75</ele>
        <time>2015-08-01T08:44:29Z</time>
      </trkpt>
      <trkpt lat="46.197717217728496" lon="10.599754080176353">
        <ele>1613.71</ele>
        <time>2015-08-01T08:44:41Z</time>
      </trkpt>
      <trkpt lat="46.197784021496773" lon="10.599726000800729">
        <ele>1614.6700000000001</ele>
        <time>2015-08-01T08:44:51Z</time>
      </trkpt>
      <trkpt lat="46.19781319051981" lon="10.599666237831116">
        <ele>1615.6300000000001</ele>
        <time>2015-08-01T08:45:01Z</time>
      </trkpt>
      <trkpt lat="46.197827439755201" lon="10.599585855379701">
        <ele>1617.5599999999999</ele>
        <time>2015-08-01T08:45:11Z</time>
      </trkpt>
      <trkpt lat="46.197812100872397" lon="10.599486278370023">
        <ele>1618.04</ele>
        <time>2015-08-01T08:45:22Z</time>
      </trkpt>
      <trkpt lat="46.197765748947859" lon="10.599438417702913">
        <ele>1618.52</ele>
        <time>2015-08-01T08:45:31Z</time>
      </trkpt>
      <trkpt lat="46.197668854147196" lon="10.599312353879213">
        <ele>1619.48</ele>
        <time>2015-08-01T08:45:45Z</time>
      </trkpt>
      <trkpt lat="46.197657790035009" lon="10.599301373586059">
        <ele>1619.48</ele>
        <time>2015-08-01T08:45:47Z</time>
      </trkpt>
      <trkpt lat="46.197624681517482" lon="10.599163407459855">
        <ele>1619.96</ele>
        <time>2015-08-01T08:46:00Z</time>
      </trkpt>
      <trkpt lat="46.197632560506463" lon="10.599066680297256">
        <ele>1620.9200000000001</ele>
        <time>2015-08-01T08:46:12Z</time>
      </trkpt>
      <trkpt lat="46.197645720094442" lon="10.598978251218796">
        <ele>1621.8800000000001</ele>
        <time>2015-08-01T08:46:25Z</time>
      </trkpt>
      <trkpt lat="46.197674134746194" lon="10.598989985883236">
        <ele>1624.28</ele>
        <time>2015-08-01T08:46:42Z</time>
      </trkpt>
      <trkpt lat="46.197850573807955" lon="10.599001133814454">
        <ele>1625.25</ele>
        <time>2015-08-01T08:46:52Z</time>
      </trkpt>
      <trkpt lat="46.197871109470725" lon="10.598868280649185">
        <ele>1626.21</ele>
        <time>2015-08-01T08:47:03Z</time>
      </trkpt>
      <trkpt lat="46.197801372036338" lon="10.598796363919973">
        <ele>1627.1700000000001</ele>
        <time>2015-08-01T08:47:15Z</time>
      </trkpt>
      <trkpt lat="46.197669608518481" lon="10.598698295652866">
        <ele>1628.6099999999999</ele>
        <time>2015-08-01T08:47:27Z</time>
      </trkpt>
      <trkpt lat="46.197605403140187" lon="10.598590923473239">
        <ele>1629.0899999999999</ele>
        <time>2015-08-01T08:47:39Z</time>
      </trkpt>
      <trkpt lat="46.197508927434683" lon="10.598563766106963">
        <ele>1630.05</ele>
        <time>2015-08-01T08:47:49Z</time>
      </trkpt>
      <trkpt lat="46.197430305182934" lon="10.5986119620502">
        <ele>1631.98</ele>
        <time>2015-08-01T08:47:59Z</time>
      </trkpt>
      <trkpt lat="46.197323771193624" lon="10.598757471889257">
        <ele>1631.49</ele>
        <time>2015-08-01T08:48:12Z</time>
      </trkpt>
      <trkpt lat="46.197284460067749" lon="10.598836597055197">
        <ele>1632.46</ele>
        <time>2015-08-01T08:48:22Z</time>
      </trkpt>
      <trkpt lat="46.197230312973261" lon="10.598915051668882">
        <ele>1633.4200000000001</ele>
        <time>2015-08-01T08:48:31Z</time>
      </trkpt>
      <trkpt lat="46.197224697098136" lon="10.598926870152354">
        <ele>1633.4200000000001</ele>
        <time>2015-08-01T08:48:32Z</time>
      </trkpt>
      <trkpt lat="46.197095783427358" lon="10.598969534039497">
        <ele>1634.8599999999999</ele>
        <time>2015-08-01T08:48:46Z</time>
      </trkpt>
      <trkpt lat="46.197031075134873" lon="10.598832489922643">
        <ele>1635.8199999999999</ele>
        <time>2015-08-01T08:48:57Z</time>
      </trkpt>
      <trkpt lat="46.197039457038045" lon="10.598719334229827">
        <ele>1636.3</ele>
        <time>2015-08-01T08:49:06Z</time>
      </trkpt>
      <trkpt lat="46.197084216400981" lon="10.598552199080586">
        <ele>1637.74</ele>
        <time>2015-08-01T08:49:20Z</time>
      </trkpt>
      <trkpt lat="46.197100142017007" lon="10.598511211574078">
        <ele>1637.74</ele>
        <time>2015-08-01T08:49:24Z</time>
      </trkpt>
      <trkpt lat="46.197141464799643" lon="10.598361007869244">
        <ele>1638.7</ele>
        <time>2015-08-01T08:49:35Z</time>
      </trkpt>
      <trkpt lat="46.197193432599306" lon="10.598251456394792">
        <ele>1639.6700000000001</ele>
        <time>2015-08-01T08:49:45Z</time>
      </trkpt>
      <trkpt lat="46.197247663512826" lon="10.598130840808153">
        <ele>1640.6300000000001</ele>
        <time>2015-08-01T08:49:56Z</time>
      </trkpt>
      <trkpt lat="46.197280688211322" lon="10.598069652915001">
        <ele>1641.1099999999999</ele>
        <time>2015-08-01T08:50:01Z</time>
      </trkpt>
      <trkpt lat="46.197347827255726" lon="10.597927747294307">
        <ele>1642.0699999999999</ele>
        <time>2015-08-01T08:50:13Z</time>
      </trkpt>
      <trkpt lat="46.197362998500466" lon="10.597834037616849">
        <ele>1642.55</ele>
        <time>2015-08-01T08:50:20Z</time>
      </trkpt>
      <trkpt lat="46.197393340989947" lon="10.597689198330045">
        <ele>1643.51</ele>
        <time>2015-08-01T08:50:32Z</time>
      </trkpt>
      <trkpt lat="46.197383534163237" lon="10.59752088971436">
        <ele>1644.47</ele>
        <time>2015-08-01T08:50:45Z</time>
      </trkpt>
      <trkpt lat="46.197389233857393" lon="10.597364399582148">
        <ele>1645.9100000000001</ele>
        <time>2015-08-01T08:50:57Z</time>
      </trkpt>
      <trkpt lat="46.197416475042701" lon="10.597223835065961">
        <ele>1646.8800000000001</ele>
        <time>2015-08-01T08:51:09Z</time>
      </trkpt>
      <trkpt lat="46.197428209707141" lon="10.597091568633914">
        <ele>1647.8399999999999</ele>
        <time>2015-08-01T08:51:20Z</time>
      </trkpt>
      <trkpt lat="46.197450002655387" lon="10.596947483718395">
        <ele>1648.8</ele>
        <time>2015-08-01T08:51:31Z</time>
      </trkpt>
      <trkpt lat="46.197478249669075" lon="10.59677766636014">
        <ele>1649.76</ele>
        <time>2015-08-01T08:51:45Z</time>
      </trkpt>
      <trkpt lat="46.197512950748205" lon="10.596612123772502">
        <ele>1650.24</ele>
        <time>2015-08-01T08:51:57Z</time>
      </trkpt>
      <trkpt lat="46.197549663484097" lon="10.596517575904727">
        <ele>1651.2</ele>
        <time>2015-08-01T08:52:07Z</time>
      </trkpt>
      <trkpt lat="46.197555530816317" lon="10.596492514014244">
        <ele>1651.2</ele>
        <time>2015-08-01T08:52:11Z</time>
      </trkpt>
      <trkpt lat="46.19757229462266" lon="10.596504416316748">
        <ele>1650.72</ele>
        <time>2015-08-01T08:52:21Z</time>
      </trkpt>
      <trkpt lat="46.197585538029671" lon="10.596483293920755">
        <ele>1650.24</ele>
        <time>2015-08-01T08:52:32Z</time>
      </trkpt>
      <trkpt lat="46.197566594928503" lon="10.596464518457651">
        <ele>1650.24</ele>
        <time>2015-08-01T08:52:42Z</time>
      </trkpt>
      <trkpt lat="46.197538515552878" lon="10.596466530114412">
        <ele>1650.24</ele>
        <time>2015-08-01T08:52:59Z</time>
      </trkpt>
      <trkpt lat="46.197542957961559" lon="10.596469463780522">
        <ele>1645.9100000000001</ele>
        <time>2015-08-01T08:53:04Z</time>
      </trkpt>
      <trkpt lat="46.197543544694781" lon="10.596467619761825">
        <ele>1653.1199999999999</ele>
        <time>2015-08-01T08:53:05Z</time>
      </trkpt>
      <trkpt lat="46.197544131428003" lon="10.596467033028603">
        <ele>1650.24</ele>
        <time>2015-08-01T08:53:08Z</time>
      </trkpt>
      <trkpt lat="46.197502892464399" lon="10.596485640853643">
        <ele>1650.24</ele>
        <time>2015-08-01T08:53:33Z</time>
      </trkpt>
      <trkpt lat="46.197498114779592" lon="10.596485808491707">
        <ele>1650.72</ele>
        <time>2015-08-01T08:54:04Z</time>
      </trkpt>
      <trkpt lat="46.197547819465399" lon="10.59648840688169">
        <ele>1650.72</ele>
        <time>2015-08-01T08:54:34Z</time>
      </trkpt>
      <trkpt lat="46.197565505281091" lon="10.596432164311409">
        <ele>1650.72</ele>
        <time>2015-08-01T08:55:05Z</time>
      </trkpt>
      <trkpt lat="46.197553351521492" lon="10.596434343606234">
        <ele>1650.24</ele>
        <time>2015-08-01T08:55:28Z</time>
      </trkpt>
      <trkpt lat="46.197568355128169" lon="10.596494525671005">
        <ele>1650.24</ele>
        <time>2015-08-01T08:55:57Z</time>
      </trkpt>
      <trkpt lat="46.197548657655716" lon="10.596451191231608">
        <ele>1650.24</ele>
        <time>2015-08-01T08:56:30Z</time>
      </trkpt>
      <trkpt lat="46.197597691789269" lon="10.596442138776183">
        <ele>1649.76</ele>
        <time>2015-08-01T08:57:04Z</time>
      </trkpt>
      <trkpt lat="46.197596099227667" lon="10.596439372748137">
        <ele>1649.76</ele>
        <time>2015-08-01T08:57:36Z</time>
      </trkpt>
      <trkpt lat="46.197564164176583" lon="10.596464267000556">
        <ele>1649.76</ele>
        <time>2015-08-01T08:58:06Z</time>
      </trkpt>
      <trkpt lat="46.19759232737124" lon="10.596448676660657">
        <ele>1649.28</ele>
        <time>2015-08-01T08:58:34Z</time>
      </trkpt>
      <trkpt lat="46.197583358734846" lon="10.596463764086366">
        <ele>1649.28</ele>
        <time>2015-08-01T08:59:01Z</time>
      </trkpt>
      <trkpt lat="46.197583694010973" lon="10.596482623368502">
        <ele>1649.76</ele>
        <time>2015-08-01T08:59:29Z</time>
      </trkpt>
      <trkpt lat="46.197606660425663" lon="10.596485305577517">
        <ele>1649.76</ele>
        <time>2015-08-01T08:59:53Z</time>
      </trkpt>
      <trkpt lat="46.19760355912149" lon="10.59647616930306">
        <ele>1649.76</ele>
        <time>2015-08-01T09:00:25Z</time>
      </trkpt>
      <trkpt lat="46.197619987651706" lon="10.596452364698052">
        <ele>1649.76</ele>
        <time>2015-08-01T09:00:55Z</time>
      </trkpt>
      <trkpt lat="46.19758352637291" lon="10.596451610326767">
        <ele>1650.24</ele>
        <time>2015-08-01T09:01:23Z</time>
      </trkpt>
      <trkpt lat="46.197613533586264" lon="10.596462925896049">
        <ele>1650.24</ele>
        <time>2015-08-01T09:01:48Z</time>
      </trkpt>
      <trkpt lat="46.197590986266732" lon="10.596494693309069">
        <ele>1650.24</ele>
        <time>2015-08-01T09:02:19Z</time>
      </trkpt>
      <trkpt lat="46.197588806971908" lon="10.596503578126431">
        <ele>1650.24</ele>
        <time>2015-08-01T09:02:44Z</time>
      </trkpt>
      <trkpt lat="46.197570199146867" lon="10.596485557034612">
        <ele>1650.72</ele>
        <time>2015-08-01T09:03:11Z</time>
      </trkpt>
      <trkpt lat="46.197525775060058" lon="10.59645026922226">
        <ele>1651.2</ele>
        <time>2015-08-01T09:03:44Z</time>
      </trkpt>
      <trkpt lat="46.197518650442362" lon="10.596424955874681">
        <ele>1651.2</ele>
        <time>2015-08-01T09:04:15Z</time>
      </trkpt>
      <trkpt lat="46.197553938254714" lon="10.596468793228269">
        <ele>1651.6800000000001</ele>
        <time>2015-08-01T09:04:40Z</time>
      </trkpt>
      <trkpt lat="46.19754346087575" lon="10.596435852348804">
        <ele>1651.2</ele>
        <time>2015-08-01T09:05:01Z</time>
      </trkpt>
      <trkpt lat="46.197532899677753" lon="10.596431661397219">
        <ele>1651.2</ele>
        <time>2015-08-01T09:05:23Z</time>
      </trkpt>
      <trkpt lat="46.19756349362433" lon="10.596431577578187">
        <ele>1652.1600000000001</ele>
        <time>2015-08-01T09:05:38Z</time>
      </trkpt>
      <trkpt lat="46.197563325986266" lon="10.596439959481359">
        <ele>1652.1600000000001</ele>
        <time>2015-08-01T09:05:42Z</time>
      </trkpt>
      <trkpt lat="46.197533905506134" lon="10.596462925896049">
        <ele>1651.6800000000001</ele>
        <time>2015-08-01T09:05:52Z</time>
      </trkpt>
      <trkpt lat="46.197522422298789" lon="10.596445491537452">
        <ele>1651.6800000000001</ele>
        <time>2015-08-01T09:06:04Z</time>
      </trkpt>
      <trkpt lat="46.197514375671744" lon="10.596427386626601">
        <ele>1651.6800000000001</ele>
        <time>2015-08-01T09:06:18Z</time>
      </trkpt>
      <trkpt lat="46.197500545531511" lon="10.596398217603564">
        <ele>1651.2</ele>
        <time>2015-08-01T09:06:25Z</time>
      </trkpt>
      <trkpt lat="46.19746039621532" lon="10.59624700807035">
        <ele>1651.2</ele>
        <time>2015-08-01T09:06:37Z</time>
      </trkpt>
      <trkpt lat="46.197421671822667" lon="10.596046345308423">
        <ele>1651.2</ele>
        <time>2015-08-01T09:06:51Z</time>
      </trkpt>
      <trkpt lat="46.19734413921833" lon="10.595852974802256">
        <ele>1651.6800000000001</ele>
        <time>2015-08-01T09:07:04Z</time>
      </trkpt>
      <trkpt lat="46.197191337123513" lon="10.595662370324135">
        <ele>1652.6400000000001</ele>
        <time>2015-08-01T09:07:18Z</time>
      </trkpt>
      <trkpt lat="46.197000984102488" lon="10.595541587099433">
        <ele>1653.1199999999999</ele>
        <time>2015-08-01T09:07:32Z</time>
      </trkpt>
      <trkpt lat="46.196850445121527" lon="10.595432119444013">
        <ele>1653.5999999999999</ele>
        <time>2015-08-01T09:07:45Z</time>
      </trkpt>
      <trkpt lat="46.196702839806676" lon="10.595316365361214">
        <ele>1654.5699999999999</ele>
        <time>2015-08-01T09:07:59Z</time>
      </trkpt>
      <trkpt lat="46.196517096832395" lon="10.595199270173907">
        <ele>1655.53</ele>
        <time>2015-08-01T09:08:15Z</time>
      </trkpt>
      <trkpt lat="46.196367060765624" lon="10.595102710649371">
        <ele>1656.49</ele>
        <time>2015-08-01T09:08:29Z</time>
      </trkpt>
      <trkpt lat="46.196277709677815" lon="10.594982765614986">
        <ele>1657.45</ele>
        <time>2015-08-01T09:08:41Z</time>
      </trkpt>
      <trkpt lat="46.19622859172523" lon="10.594796184450388">
        <ele>1658.8900000000001</ele>
        <time>2015-08-01T09:08:54Z</time>
      </trkpt>
      <trkpt lat="46.196188861504197" lon="10.594599209725857">
        <ele>1661.3</ele>
        <time>2015-08-01T09:09:07Z</time>
      </trkpt>
      <trkpt lat="46.19615332223475" lon="10.594441797584295">
        <ele>1662.26</ele>
        <time>2015-08-01T09:09:18Z</time>
      </trkpt>
      <trkpt lat="46.196115268394351" lon="10.594238704070449">
        <ele>1664.1800000000001</ele>
        <time>2015-08-01T09:09:31Z</time>
      </trkpt>
      <trkpt lat="46.196072772145271" lon="10.594087662175298">
        <ele>1665.6199999999999</ele>
        <time>2015-08-01T09:09:42Z</time>
      </trkpt>
      <trkpt lat="46.196043184027076" lon="10.59397635050118">
        <ele>1666.5799999999999</ele>
        <time>2015-08-01T09:09:50Z</time>
      </trkpt>
      <trkpt lat="46.196003034710884" lon="10.593798402696848">
        <ele>1668.02</ele>
        <time>2015-08-01T09:10:02Z</time>
      </trkpt>
      <trkpt lat="46.195981912314892" lon="10.593655658885837">
        <ele>1670.4300000000001</ele>
        <time>2015-08-01T09:10:12Z</time>
      </trkpt>
      <trkpt lat="46.195974787697196" lon="10.593524482101202">
        <ele>1670.4300000000001</ele>
        <time>2015-08-01T09:10:21Z</time>
      </trkpt>
      <trkpt lat="46.195972859859467" lon="10.593366734683514">
        <ele>1672.3499999999999</ele>
        <time>2015-08-01T09:10:31Z</time>
      </trkpt>
      <trkpt lat="46.195963388308883" lon="10.593249555677176">
        <ele>1672.8299999999999</ele>
        <time>2015-08-01T09:10:39Z</time>
      </trkpt>
      <trkpt lat="46.195969255641103" lon="10.593208903446794">
        <ele>1673.3099999999999</ele>
        <time>2015-08-01T09:10:42Z</time>
      </trkpt>
      <trkpt lat="46.195944948121905" lon="10.593047887086868">
        <ele>1674.75</ele>
        <time>2015-08-01T09:10:54Z</time>
      </trkpt>
      <trkpt lat="46.195908989757299" lon="10.592906484380364">
        <ele>1676.2</ele>
        <time>2015-08-01T09:11:04Z</time>
      </trkpt>
      <trkpt lat="46.19584989733994" lon="10.592760974541306">
        <ele>1677.6400000000001</ele>
        <time>2015-08-01T09:11:17Z</time>
      </trkpt>
      <trkpt lat="46.195748392492533" lon="10.592637928202748">
        <ele>1679.0799999999999</ele>
        <time>2015-08-01T09:11:29Z</time>
      </trkpt>
      <trkpt lat="46.195709919556975" lon="10.592600544914603">
        <ele>1679.5599999999999</ele>
        <time>2015-08-01T09:11:33Z</time>
      </trkpt>
      <trkpt lat="46.195580502972007" lon="10.592587133869529">
        <ele>1681</ele>
        <time>2015-08-01T09:11:46Z</time>
      </trkpt>
      <trkpt lat="46.195468520745635" lon="10.592535920441151">
        <ele>1681.96</ele>
        <time>2015-08-01T09:11:58Z</time>
      </trkpt>
      <trkpt lat="46.195429880172014" lon="10.592363839969039">
        <ele>1682.9300000000001</ele>
        <time>2015-08-01T09:12:11Z</time>
      </trkpt>
      <trkpt lat="46.195437340065837" lon="10.592345567420125">
        <ele>1682.9300000000001</ele>
        <time>2015-08-01T09:12:12Z</time>
      </trkpt>
      <trkpt lat="46.195583855733275" lon="10.59232184663415">
        <ele>1684.3699999999999</ele>
        <time>2015-08-01T09:12:25Z</time>
      </trkpt>
      <trkpt lat="46.195695335045457" lon="10.592334503307939">
        <ele>1685.3299999999999</ele>
        <time>2015-08-01T09:12:35Z</time>
      </trkpt>
      <trkpt lat="46.195820644497871" lon="10.592250265181065">
        <ele>1686.29</ele>
        <time>2015-08-01T09:12:46Z</time>
      </trkpt>
      <trkpt lat="46.195862805470824" lon="10.592078184708953">
        <ele>1687.25</ele>
        <time>2015-08-01T09:12:59Z</time>
      </trkpt>
      <trkpt lat="46.195858530700207" lon="10.592047171667218">
        <ele>1687.25</ele>
        <time>2015-08-01T09:13:01Z</time>
      </trkpt>
      <trkpt lat="46.195853417739272" lon="10.591854304075241">
        <ele>1687.73</ele>
        <time>2015-08-01T09:13:13Z</time>
      </trkpt>
      <trkpt lat="46.195840928703547" lon="10.59168616309762">
        <ele>1688.6900000000001</ele>
        <time>2015-08-01T09:13:24Z</time>
      </trkpt>
      <trkpt lat="46.195849645882845" lon="10.591568062081933">
        <ele>1689.6500000000001</ele>
        <time>2015-08-01T09:13:31Z</time>
      </trkpt>
      <trkpt lat="46.195862302556634" lon="10.591466557234526">
        <ele>1690.1400000000001</ele>
        <time>2015-08-01T09:13:37Z</time>
      </trkpt>
      <trkpt lat="46.19584646075964" lon="10.591276455670595">
        <ele>1691.0999999999999</ele>
        <time>2015-08-01T09:13:49Z</time>
      </trkpt>
      <trkpt lat="46.195825170725584" lon="10.59110077098012">
        <ele>1691.5799999999999</ele>
        <time>2015-08-01T09:14:00Z</time>
      </trkpt>
      <trkpt lat="46.195802539587021" lon="10.591082917526364">
        <ele>1691.5799999999999</ele>
        <time>2015-08-01T09:14:10Z</time>
      </trkpt>
      <trkpt lat="46.195818968117237" lon="10.591071601957083">
        <ele>1690.1400000000001</ele>
        <time>2015-08-01T09:14:25Z</time>
      </trkpt>
      <trkpt lat="46.195799186825752" lon="10.591087276116014">
        <ele>1691.5799999999999</ele>
        <time>2015-08-01T09:14:48Z</time>
      </trkpt>
      <trkpt lat="46.195765910670161" lon="10.591026926413178">
        <ele>1692.0599999999999</ele>
        <time>2015-08-01T09:14:56Z</time>
      </trkpt>
      <trkpt lat="46.19568720459938" lon="10.590898850932717">
        <ele>1692.54</ele>
        <time>2015-08-01T09:15:06Z</time>
      </trkpt>
      <trkpt lat="46.195589136332273" lon="10.590821402147412">
        <ele>1692.54</ele>
        <time>2015-08-01T09:15:16Z</time>
      </trkpt>
      <trkpt lat="46.195445973426104" lon="10.59076658450067">
        <ele>1692.54</ele>
        <time>2015-08-01T09:15:29Z</time>
      </trkpt>
      <trkpt lat="46.19527967646718" lon="10.590698607265949">
        <ele>1693.5</ele>
        <time>2015-08-01T09:15:44Z</time>
      </trkpt>
      <trkpt lat="46.19516677223146" lon="10.590619230642915">
        <ele>1693.5</ele>
        <time>2015-08-01T09:15:55Z</time>
      </trkpt>
      <trkpt lat="46.195033164694905" lon="10.590519150719047">
        <ele>1694.46</ele>
        <time>2015-08-01T09:16:07Z</time>
      </trkpt>
      <trkpt lat="46.195014556869864" lon="10.590506996959448">
        <ele>1694.9400000000001</ele>
        <time>2015-08-01T09:16:09Z</time>
      </trkpt>
      <trkpt lat="46.194992763921618" lon="10.590497860684991">
        <ele>1694.9400000000001</ele>
        <time>2015-08-01T09:16:11Z</time>
      </trkpt>
      <trkpt lat="46.194945406168699" lon="10.590455867350101">
        <ele>1694.9400000000001</ele>
        <time>2015-08-01T09:16:15Z</time>
      </trkpt>
      <trkpt lat="46.194788664579391" lon="10.59034489095211">
        <ele>1695.4200000000001</ele>
        <time>2015-08-01T09:16:29Z</time>
      </trkpt>
      <trkpt lat="46.194647261872888" lon="10.59021832421422">
        <ele>1695.9000000000001</ele>
        <time>2015-08-01T09:16:42Z</time>
      </trkpt>
      <trkpt lat="46.194617003202438" lon="10.590187897905707">
        <ele>1695.9000000000001</ele>
        <time>2015-08-01T09:16:45Z</time>
      </trkpt>
      <trkpt lat="46.194523377344012" lon="10.590117489919066">
        <ele>1696.3800000000001</ele>
        <time>2015-08-01T09:16:53Z</time>
      </trkpt>
      <trkpt lat="46.194415334612131" lon="10.589961335062981">
        <ele>1697.3399999999999</ele>
        <time>2015-08-01T09:17:05Z</time>
      </trkpt>
      <trkpt lat="46.194334030151367" lon="10.589851280674338">
        <ele>1697.8299999999999</ele>
        <time>2015-08-01T09:17:15Z</time>
      </trkpt>
      <trkpt lat="46.194291366264224" lon="10.589669980108738">
        <ele>1698.79</ele>
        <time>2015-08-01T09:17:27Z</time>
      </trkpt>
      <trkpt lat="46.19427653029561" lon="10.589504521340132">
        <ele>1699.27</ele>
        <time>2015-08-01T09:17:38Z</time>
      </trkpt>
      <trkpt lat="46.194238979369402" lon="10.589336296543479">
        <ele>1699.27</ele>
        <time>2015-08-01T09:17:49Z</time>
      </trkpt>
      <trkpt lat="46.194217773154378" lon="10.589154241606593">
        <ele>1699.75</ele>
        <time>2015-08-01T09:18:02Z</time>
      </trkpt>
      <trkpt lat="46.194209810346365" lon="10.589048126712441">
        <ele>1699.75</ele>
        <time>2015-08-01T09:18:09Z</time>
      </trkpt>
      <trkpt lat="46.194216683506966" lon="10.588930528610945">
        <ele>1700.71</ele>
        <time>2015-08-01T09:18:17Z</time>
      </trkpt>
      <trkpt lat="46.194271165877581" lon="10.588725842535496">
        <ele>1699.75</ele>
        <time>2015-08-01T09:18:30Z</time>
      </trkpt>
      <trkpt lat="46.194300837814808" lon="10.588586200028658">
        <ele>1699.75</ele>
        <time>2015-08-01T09:18:40Z</time>
      </trkpt>
      <trkpt lat="46.194300418719649" lon="10.588501123711467">
        <ele>1699.27</ele>
        <time>2015-08-01T09:18:50Z</time>
      </trkpt>
      <trkpt lat="46.194306537508965" lon="10.588494837284088">
        <ele>1699.27</ele>
        <time>2015-08-01T09:19:08Z</time>
      </trkpt>
      <trkpt lat="46.194305615499616" lon="10.588473882526159">
        <ele>1699.75</ele>
        <time>2015-08-01T09:19:11Z</time>
      </trkpt>
      <trkpt lat="46.194254904985428" lon="10.588409341871738">
        <ele>1700.23</ele>
        <time>2015-08-01T09:19:23Z</time>
      </trkpt>
      <trkpt lat="46.19420955888927" lon="10.588347064331174">
        <ele>1700.71</ele>
        <time>2015-08-01T09:19:32Z</time>
      </trkpt>
      <trkpt lat="46.194196986034513" lon="10.588212283328176">
        <ele>1701.6700000000001</ele>
        <time>2015-08-01T09:19:41Z</time>
      </trkpt>
      <trkpt lat="46.194204445928335" lon="10.588033245876431">
        <ele>1702.1500000000001</ele>
        <time>2015-08-01T09:19:54Z</time>
      </trkpt>
      <trkpt lat="46.194208636879921" lon="10.587946493178606">
        <ele>1703.1099999999999</ele>
        <time>2015-08-01T09:20:04Z</time>
      </trkpt>
      <trkpt lat="46.194182317703962" lon="10.587821435183287">
        <ele>1703.5899999999999</ele>
        <time>2015-08-01T09:20:17Z</time>
      </trkpt>
      <trkpt lat="46.194165972992778" lon="10.587772652506828">
        <ele>1704.0699999999999</ele>
        <time>2015-08-01T09:20:28Z</time>
      </trkpt>
      <trkpt lat="46.19415876455605" lon="10.587698137387633">
        <ele>1704.55</ele>
        <time>2015-08-01T09:20:38Z</time>
      </trkpt>
      <trkpt lat="46.194104617461562" lon="10.587642565369606">
        <ele>1706</ele>
        <time>2015-08-01T09:20:48Z</time>
      </trkpt>
      <trkpt lat="46.194078801199794" lon="10.587491858750582">
        <ele>1707.4400000000001</ele>
        <time>2015-08-01T09:21:01Z</time>
      </trkpt>
      <trkpt lat="46.194053404033184" lon="10.587411476299167">
        <ele>1708.8800000000001</ele>
        <time>2015-08-01T09:21:11Z</time>
      </trkpt>
      <trkpt lat="46.194012332707644" lon="10.587320867925882">
        <ele>1709.3599999999999</ele>
        <time>2015-08-01T09:21:23Z</time>
      </trkpt>
      <trkpt lat="46.193985007703304" lon="10.587307959794998">
        <ele>1709.8399999999999</ele>
        <time>2015-08-01T09:21:35Z</time>
      </trkpt>
      <trkpt lat="46.19390512816608" lon="10.587281808257103">
        <ele>1710.8</ele>
        <time>2015-08-01T09:21:46Z</time>
      </trkpt>
      <trkpt lat="46.193894231691957" lon="10.587202347815037">
        <ele>1711.76</ele>
        <time>2015-08-01T09:21:57Z</time>
      </trkpt>
      <trkpt lat="46.193951731547713" lon="10.587230511009693">
        <ele>1712.25</ele>
        <time>2015-08-01T09:22:15Z</time>
      </trkpt>
      <trkpt lat="46.193923400714993" lon="10.587181393057108">
        <ele>1712.73</ele>
        <time>2015-08-01T09:22:27Z</time>
      </trkpt>
      <trkpt lat="46.193859279155731" lon="10.587136382237077">
        <ele>1714.1700000000001</ele>
        <time>2015-08-01T09:22:38Z</time>
      </trkpt>
      <trkpt lat="46.193812843412161" lon="10.587085755541921">
        <ele>1716.0899999999999</ele>
        <time>2015-08-01T09:22:50Z</time>
      </trkpt>
      <trkpt lat="46.193768922239542" lon="10.58706521987915">
        <ele>1718.01</ele>
        <time>2015-08-01T09:23:02Z</time>
      </trkpt>
      <trkpt lat="46.193804293870926" lon="10.58698165230453">
        <ele>1719.46</ele>
        <time>2015-08-01T09:23:12Z</time>
      </trkpt>
      <trkpt lat="46.19377956725657" lon="10.586926164105535">
        <ele>1720.9000000000001</ele>
        <time>2015-08-01T09:23:22Z</time>
      </trkpt>
      <trkpt lat="46.193753750994802" lon="10.586859947070479">
        <ele>1722.3399999999999</ele>
        <time>2015-08-01T09:23:34Z</time>
      </trkpt>
      <trkpt lat="46.193726677447557" lon="10.586755089461803">
        <ele>1723.78</ele>
        <time>2015-08-01T09:23:45Z</time>
      </trkpt>
      <trkpt lat="46.193688120692968" lon="10.586732625961304">
        <ele>1725.22</ele>
        <time>2015-08-01T09:23:56Z</time>
      </trkpt>
      <trkpt lat="46.193667585030198" lon="10.586694404482841">
        <ele>1726.6700000000001</ele>
        <time>2015-08-01T09:24:07Z</time>
      </trkpt>
      <trkpt lat="46.193647971376777" lon="10.586636904627085">
        <ele>1728.1099999999999</ele>
        <time>2015-08-01T09:24:17Z</time>
      </trkpt>
      <trkpt lat="46.193634811788797" lon="10.586566245183349">
        <ele>1729.55</ele>
        <time>2015-08-01T09:24:30Z</time>
      </trkpt>
      <trkpt lat="46.193631459027529" lon="10.586525592952967">
        <ele>1730.03</ele>
        <time>2015-08-01T09:24:43Z</time>
      </trkpt>
      <trkpt lat="46.193638751283288" lon="10.58650765568018">
        <ele>1730.99</ele>
        <time>2015-08-01T09:24:55Z</time>
      </trkpt>
      <trkpt lat="46.193618299439549" lon="10.586468260735273">
        <ele>1731.95</ele>
        <time>2015-08-01T09:25:06Z</time>
      </trkpt>
      <trkpt lat="46.193598182871938" lon="10.586432553827763">
        <ele>1733.8800000000001</ele>
        <time>2015-08-01T09:25:17Z</time>
      </trkpt>
      <trkpt lat="46.193594578653574" lon="10.586389051750302">
        <ele>1735.8</ele>
        <time>2015-08-01T09:25:28Z</time>
      </trkpt>
      <trkpt lat="46.19359097443521" lon="10.586351919919252">
        <ele>1737.72</ele>
        <time>2015-08-01T09:25:39Z</time>
      </trkpt>
      <trkpt lat="46.193586699664593" lon="10.586290480569005">
        <ele>1739.6400000000001</ele>
        <time>2015-08-01T09:25:51Z</time>
      </trkpt>
      <trkpt lat="46.193601619452238" lon="10.586183862760663">
        <ele>1741.0799999999999</ele>
        <time>2015-08-01T09:26:03Z</time>
      </trkpt>
      <trkpt lat="46.193639170378447" lon="10.586130637675524">
        <ele>1741.5699999999999</ele>
        <time>2015-08-01T09:26:14Z</time>
      </trkpt>
      <trkpt lat="46.193633805960417" lon="10.586108760908246">
        <ele>1743.01</ele>
        <time>2015-08-01T09:26:28Z</time>
      </trkpt>
      <trkpt lat="46.193608408793807" lon="10.586076155304909">
        <ele>1744.45</ele>
        <time>2015-08-01T09:26:37Z</time>
      </trkpt>
      <trkpt lat="46.193586448207498" lon="10.586069952696562">
        <ele>1745.8900000000001</ele>
        <time>2015-08-01T09:26:47Z</time>
      </trkpt>
      <trkpt lat="46.193557111546397" lon="10.586085878312588">
        <ele>1746.8499999999999</ele>
        <time>2015-08-01T09:26:56Z</time>
      </trkpt>
      <trkpt lat="46.193519979715347" lon="10.58601027354598">
        <ele>1749.74</ele>
        <time>2015-08-01T09:27:08Z</time>
      </trkpt>
      <trkpt lat="46.193478656932712" lon="10.586001975461841">
        <ele>1750.22</ele>
        <time>2015-08-01T09:27:18Z</time>
      </trkpt>
      <trkpt lat="46.193465664982796" lon="10.585956713184714">
        <ele>1751.1800000000001</ele>
        <time>2015-08-01T09:27:28Z</time>
      </trkpt>
      <trkpt lat="46.193431215360761" lon="10.585934584960341">
        <ele>1752.6199999999999</ele>
        <time>2015-08-01T09:27:38Z</time>
      </trkpt>
      <trkpt lat="46.193403638899326" lon="10.585897201672196">
        <ele>1754.0599999999999</ele>
        <time>2015-08-01T09:27:46Z</time>
      </trkpt>
      <trkpt lat="46.193381007760763" lon="10.585925197228789">
        <ele>1755.99</ele>
        <time>2015-08-01T09:27:57Z</time>
      </trkpt>
      <trkpt lat="46.193392490968108" lon="10.585981355980039">
        <ele>1757.9100000000001</ele>
        <time>2015-08-01T09:28:08Z</time>
      </trkpt>
      <trkpt lat="46.19338670745492" lon="10.586079172790051">
        <ele>1758.3900000000001</ele>
        <time>2015-08-01T09:28:18Z</time>
      </trkpt>
      <trkpt lat="46.193381678313017" lon="10.586163913831115">
        <ele>1759.3499999999999</ele>
        <time>2015-08-01T09:28:31Z</time>
      </trkpt>
      <trkpt lat="46.193342451006174" lon="10.586177157238126">
        <ele>1760.3099999999999</ele>
        <time>2015-08-01T09:28:43Z</time>
      </trkpt>
      <trkpt lat="46.193308336660266" lon="10.586241194978356">
        <ele>1762.23</ele>
        <time>2015-08-01T09:28:55Z</time>
      </trkpt>
      <trkpt lat="46.193286292254925" lon="10.586295425891876">
        <ele>1763.6800000000001</ele>
        <time>2015-08-01T09:29:06Z</time>
      </trkpt>
      <trkpt lat="46.193282017484307" lon="10.586305065080523">
        <ele>1763.6800000000001</ele>
        <time>2015-08-01T09:29:07Z</time>
      </trkpt>
      <trkpt lat="46.193257458508015" lon="10.586313614621758">
        <ele>1764.1600000000001</ele>
        <time>2015-08-01T09:29:17Z</time>
      </trkpt>
      <trkpt lat="46.193228624761105" lon="10.586335826665163">
        <ele>1765.5999999999999</ele>
        <time>2015-08-01T09:29:27Z</time>
      </trkpt>
      <trkpt lat="46.193211860954762" lon="10.58632736094296">
        <ele>1766.0799999999999</ele>
        <time>2015-08-01T09:29:37Z</time>
      </trkpt>
      <trkpt lat="46.193183530122042" lon="10.586292743682861">
        <ele>1768</ele>
        <time>2015-08-01T09:29:46Z</time>
      </trkpt>
      <trkpt lat="46.193173388019204" lon="10.586305735632777">
        <ele>1768.96</ele>
        <time>2015-08-01T09:29:57Z</time>
      </trkpt>
      <trkpt lat="46.193139441311359" lon="10.586310178041458">
        <ele>1770.4100000000001</ele>
        <time>2015-08-01T09:30:09Z</time>
      </trkpt>
      <trkpt lat="46.193100297823548" lon="10.586244631558657">
        <ele>1772.3299999999999</ele>
        <time>2015-08-01T09:30:20Z</time>
      </trkpt>
      <trkpt lat="46.193109517917037" lon="10.586301544681191">
        <ele>1773.29</ele>
        <time>2015-08-01T09:30:30Z</time>
      </trkpt>
      <trkpt lat="46.193093592301011" lon="10.586359463632107">
        <ele>1775.21</ele>
        <time>2015-08-01T09:30:42Z</time>
      </trkpt>
      <trkpt lat="46.193060567602515" lon="10.586336329579353">
        <ele>1776.1700000000001</ele>
        <time>2015-08-01T09:30:52Z</time>
      </trkpt>
      <trkpt lat="46.193019161000848" lon="10.586332306265831">
        <ele>1778.0999999999999</ele>
        <time>2015-08-01T09:31:05Z</time>
      </trkpt>
      <trkpt lat="46.19297088123858" lon="10.586335491389036">
        <ele>1780.02</ele>
        <time>2015-08-01T09:31:16Z</time>
      </trkpt>
      <trkpt lat="46.192936850711703" lon="10.586385279893875">
        <ele>1780.98</ele>
        <time>2015-08-01T09:31:26Z</time>
      </trkpt>
      <trkpt lat="46.192851606756449" lon="10.586379747837782">
        <ele>1783.3800000000001</ele>
        <time>2015-08-01T09:31:39Z</time>
      </trkpt>
      <trkpt lat="46.192788071930408" lon="10.586351752281189">
        <ele>1784.3399999999999</ele>
        <time>2015-08-01T09:31:47Z</time>
      </trkpt>
      <trkpt lat="46.192711712792516" lon="10.586334569379687">
        <ele>1785.3099999999999</ele>
        <time>2015-08-01T09:31:59Z</time>
      </trkpt>
      <trkpt lat="46.192702827975154" lon="10.586321409791708">
        <ele>1785.79</ele>
        <time>2015-08-01T09:32:00Z</time>
      </trkpt>
      <trkpt lat="46.192594366148114" lon="10.586289390921593">
        <ele>1785.79</ele>
        <time>2015-08-01T09:32:12Z</time>
      </trkpt>
      <trkpt lat="46.19247886352241" lon="10.586287043988705">
        <ele>1787.23</ele>
        <time>2015-08-01T09:32:25Z</time>
      </trkpt>
      <trkpt lat="46.192388003692031" lon="10.586232058703899">
        <ele>1787.71</ele>
        <time>2015-08-01T09:32:37Z</time>
      </trkpt>
      <trkpt lat="46.192292785272002" lon="10.586232310160995">
        <ele>1788.6700000000001</ele>
        <time>2015-08-01T09:32:47Z</time>
      </trkpt>
      <trkpt lat="46.192154148593545" lon="10.586266927421093">
        <ele>1788.1900000000001</ele>
        <time>2015-08-01T09:32:58Z</time>
      </trkpt>
      <trkpt lat="46.192064043134451" lon="10.586322164162993">
        <ele>1788.6700000000001</ele>
        <time>2015-08-01T09:33:10Z</time>
      </trkpt>
      <trkpt lat="46.191948037594557" lon="10.586336497217417">
        <ele>1789.6300000000001</ele>
        <time>2015-08-01T09:33:22Z</time>
      </trkpt>
      <trkpt lat="46.191871846094728" lon="10.586367677897215">
        <ele>1789.6300000000001</ele>
        <time>2015-08-01T09:33:34Z</time>
      </trkpt>
      <trkpt lat="46.191847790032625" lon="10.586378490552306">
        <ele>1789.6300000000001</ele>
        <time>2015-08-01T09:33:41Z</time>
      </trkpt>
      <trkpt lat="46.191824991255999" lon="10.586443366482854">
        <ele>1789.1500000000001</ele>
        <time>2015-08-01T09:33:46Z</time>
      </trkpt>
      <trkpt lat="46.191754667088389" lon="10.586451580747962">
        <ele>1788.1900000000001</ele>
        <time>2015-08-01T09:33:58Z</time>
      </trkpt>
      <trkpt lat="46.191747710108757" lon="10.586461806669831">
        <ele>1788.1900000000001</ele>
        <time>2015-08-01T09:34:10Z</time>
      </trkpt>
      <trkpt lat="46.191726084798574" lon="10.586497178301215">
        <ele>1788.1900000000001</ele>
        <time>2015-08-01T09:34:15Z</time>
      </trkpt>
      <trkpt lat="46.19170487858355" lon="10.586478235200047">
        <ele>1788.6700000000001</ele>
        <time>2015-08-01T09:34:27Z</time>
      </trkpt>
      <trkpt lat="46.191657520830631" lon="10.586478654295206">
        <ele>1788.6700000000001</ele>
        <time>2015-08-01T09:34:37Z</time>
      </trkpt>
      <trkpt lat="46.191595830023289" lon="10.58635275810957">
        <ele>1789.1500000000001</ele>
        <time>2015-08-01T09:34:48Z</time>
      </trkpt>
      <trkpt lat="46.191551825031638" lon="10.586258126422763">
        <ele>1788.6700000000001</ele>
        <time>2015-08-01T09:34:59Z</time>
      </trkpt>
      <trkpt lat="46.191554088145494" lon="10.58621353469789">
        <ele>1788.1900000000001</ele>
        <time>2015-08-01T09:35:05Z</time>
      </trkpt>
      <trkpt lat="46.191546879708767" lon="10.586225185543299">
        <ele>1787.71</ele>
        <time>2015-08-01T09:35:17Z</time>
      </trkpt>
      <trkpt lat="46.191513352096081" lon="10.586136002093554">
        <ele>1788.1900000000001</ele>
        <time>2015-08-01T09:35:35Z</time>
      </trkpt>
      <trkpt lat="46.191516369581223" lon="10.58612460270524">
        <ele>1788.1900000000001</ele>
        <time>2015-08-01T09:35:36Z</time>
      </trkpt>
      <trkpt lat="46.191512430086732" lon="10.586090572178364">
        <ele>1789.1500000000001</ele>
        <time>2015-08-01T09:35:47Z</time>
      </trkpt>
      <trkpt lat="46.19150647893548" lon="10.586074059829116">
        <ele>1788.6700000000001</ele>
        <time>2015-08-01T09:35:58Z</time>
      </trkpt>
      <trkpt lat="46.19150111451745" lon="10.586064253002405">
        <ele>1788.6700000000001</ele>
        <time>2015-08-01T09:35:59Z</time>
      </trkpt>
      <trkpt lat="46.191480746492743" lon="10.586013710126281">
        <ele>1789.6300000000001</ele>
        <time>2015-08-01T09:36:04Z</time>
      </trkpt>
      <trkpt lat="46.191449146717787" lon="10.585946822538972">
        <ele>1790.1099999999999</ele>
        <time>2015-08-01T09:36:09Z</time>
      </trkpt>
      <trkpt lat="46.191424755379558" lon="10.585865853354335">
        <ele>1789.6300000000001</ele>
        <time>2015-08-01T09:36:21Z</time>
      </trkpt>
      <trkpt lat="46.191411428153515" lon="10.585788153111935">
        <ele>1789.6300000000001</ele>
        <time>2015-08-01T09:36:32Z</time>
      </trkpt>
      <trkpt lat="46.191366333514452" lon="10.585748255252838">
        <ele>1789.6300000000001</ele>
        <time>2015-08-01T09:36:37Z</time>
      </trkpt>
      <trkpt lat="46.191286453977227" lon="10.585720930248499">
        <ele>1790.1099999999999</ele>
        <time>2015-08-01T09:36:46Z</time>
      </trkpt>
      <trkpt lat="46.191251166164875" lon="10.585798127576709">
        <ele>1790.5899999999999</ele>
        <time>2015-08-01T09:36:52Z</time>
      </trkpt>
      <trkpt lat="46.191148571670055" lon="10.585850095376372">
        <ele>1791.55</ele>
        <time>2015-08-01T09:37:04Z</time>
      </trkpt>
      <trkpt lat="46.191028878092766" lon="10.585870463401079">
        <ele>1792.03</ele>
        <time>2015-08-01T09:37:17Z</time>
      </trkpt>
      <trkpt lat="46.190927540883422" lon="10.585964592173696">
        <ele>1792.52</ele>
        <time>2015-08-01T09:37:29Z</time>
      </trkpt>
      <trkpt lat="46.190878925845027" lon="10.586074395105243">
        <ele>1793</ele>
        <time>2015-08-01T09:37:39Z</time>
      </trkpt>
      <trkpt lat="46.190879512578249" lon="10.586090488359332">
        <ele>1793</ele>
        <time>2015-08-01T09:37:40Z</time>
      </trkpt>
      <trkpt lat="46.190917650237679" lon="10.58612946420908">
        <ele>1793.48</ele>
        <time>2015-08-01T09:37:51Z</time>
      </trkpt>
      <trkpt lat="46.190842716023326" lon="10.586150251328945">
        <ele>1793.96</ele>
        <time>2015-08-01T09:38:03Z</time>
      </trkpt>
      <trkpt lat="46.190756298601627" lon="10.586114292964339">
        <ele>1795.4000000000001</ele>
        <time>2015-08-01T09:38:13Z</time>
      </trkpt>
      <trkpt lat="46.190683962777257" lon="10.586008848622441">
        <ele>1796.8399999999999</ele>
        <time>2015-08-01T09:38:24Z</time>
      </trkpt>
      <trkpt lat="46.190669881179929" lon="10.585995437577367">
        <ele>1797.3199999999999</ele>
        <time>2015-08-01T09:38:35Z</time>
      </trkpt>
      <trkpt lat="46.190643394365907" lon="10.585996694862843">
        <ele>1797.8</ele>
        <time>2015-08-01T09:38:52Z</time>
      </trkpt>
      <trkpt lat="46.190590085461736" lon="10.585928047075868">
        <ele>1798.28</ele>
        <time>2015-08-01T09:39:04Z</time>
      </trkpt>
      <trkpt lat="46.190525460988283" lon="10.585849257186055">
        <ele>1798.28</ele>
        <time>2015-08-01T09:39:18Z</time>
      </trkpt>
      <trkpt lat="46.190455472096801" lon="10.585759906098247">
        <ele>1797.8</ele>
        <time>2015-08-01T09:39:29Z</time>
      </trkpt>
      <trkpt lat="46.190426973626018" lon="10.585744734853506">
        <ele>1797.8</ele>
        <time>2015-08-01T09:39:33Z</time>
      </trkpt>
      <trkpt lat="46.190312644466758" lon="10.58560031466186">
        <ele>1797.8</ele>
        <time>2015-08-01T09:39:48Z</time>
      </trkpt>
      <trkpt lat="46.190292444080114" lon="10.585568211972713">
        <ele>1797.8</ele>
        <time>2015-08-01T09:39:58Z</time>
      </trkpt>
      <trkpt lat="46.190273081883788" lon="10.585554298013449">
        <ele>1797.8</ele>
        <time>2015-08-01T09:40:09Z</time>
      </trkpt>
      <trkpt lat="46.190234273672104" lon="10.585550274699926">
        <ele>1797.3199999999999</ele>
        <time>2015-08-01T09:40:19Z</time>
      </trkpt>
      <trkpt lat="46.190208373591304" lon="10.585560081526637">
        <ele>1797.3199999999999</ele>
        <time>2015-08-01T09:40:26Z</time>
      </trkpt>
      <trkpt lat="46.190126230940223" lon="10.585523284971714">
        <ele>1798.28</ele>
        <time>2015-08-01T09:40:36Z</time>
      </trkpt>
      <trkpt lat="46.190027911216021" lon="10.585485734045506">
        <ele>1798.76</ele>
        <time>2015-08-01T09:40:47Z</time>
      </trkpt>
      <trkpt lat="46.189950630068779" lon="10.585385067388415">
        <ele>1799.24</ele>
        <time>2015-08-01T09:40:58Z</time>
      </trkpt>
      <trkpt lat="46.189940739423037" lon="10.585378780961037">
        <ele>1799.24</ele>
        <time>2015-08-01T09:40:59Z</time>
      </trkpt>
      <trkpt lat="46.189828254282475" lon="10.58528758585453">
        <ele>1800.21</ele>
        <time>2015-08-01T09:41:12Z</time>
      </trkpt>
      <trkpt lat="46.189745189622045" lon="10.585223715752363">
        <ele>1800.6900000000001</ele>
        <time>2015-08-01T09:41:23Z</time>
      </trkpt>
      <trkpt lat="46.189675368368626" lon="10.585147105157375">
        <ele>1801.1700000000001</ele>
        <time>2015-08-01T09:41:32Z</time>
      </trkpt>
      <trkpt lat="46.189572187140584" lon="10.58519471436739">
        <ele>1801.6500000000001</ele>
        <time>2015-08-01T09:41:45Z</time>
      </trkpt>
      <trkpt lat="46.189485266804695" lon="10.585210891440511">
        <ele>1801.6500000000001</ele>
        <time>2015-08-01T09:41:56Z</time>
      </trkpt>
      <trkpt lat="46.189399268478155" lon="10.58521474711597">
        <ele>1802.1300000000001</ele>
        <time>2015-08-01T09:42:06Z</time>
      </trkpt>
      <trkpt lat="46.18931352160871" lon="10.585170742124319">
        <ele>1802.6099999999999</ele>
        <time>2015-08-01T09:42:17Z</time>
      </trkpt>
      <trkpt lat="46.189257530495524" lon="10.585137382149696">
        <ele>1802.1300000000001</ele>
        <time>2015-08-01T09:42:27Z</time>
      </trkpt>
      <trkpt lat="46.189191648736596" lon="10.585105447098613">
        <ele>1803.5699999999999</ele>
        <time>2015-08-01T09:42:37Z</time>
      </trkpt>
      <trkpt lat="46.189121408388019" lon="10.585131766274571">
        <ele>1804.05</ele>
        <time>2015-08-01T09:42:48Z</time>
      </trkpt>
      <trkpt lat="46.189070194959641" lon="10.585191026329994">
        <ele>1804.53</ele>
        <time>2015-08-01T09:42:57Z</time>
      </trkpt>
      <trkpt lat="46.188967097550631" lon="10.585222793743014">
        <ele>1805.01</ele>
        <time>2015-08-01T09:43:08Z</time>
      </trkpt>
      <trkpt lat="46.188911693170667" lon="10.585242072120309">
        <ele>1805.49</ele>
        <time>2015-08-01T09:43:18Z</time>
      </trkpt>
      <trkpt lat="46.188852684572339" lon="10.585270235314965">
        <ele>1806.45</ele>
        <time>2015-08-01T09:43:30Z</time>
      </trkpt>
      <trkpt lat="46.188807841390371" lon="10.585263278335333">
        <ele>1806.45</ele>
        <time>2015-08-01T09:43:38Z</time>
      </trkpt>
      <trkpt lat="46.188732571899891" lon="10.585210053250194">
        <ele>1807.4200000000001</ele>
        <time>2015-08-01T09:43:49Z</time>
      </trkpt>
      <trkpt lat="46.188698122277856" lon="10.585190858691931">
        <ele>1807.4200000000001</ele>
        <time>2015-08-01T09:44:02Z</time>
      </trkpt>
      <trkpt lat="46.188679179176688" lon="10.585178034380078">
        <ele>1807.4200000000001</ele>
        <time>2015-08-01T09:44:13Z</time>
      </trkpt>
      <trkpt lat="46.188661828637123" lon="10.585168479010463">
        <ele>1807.4200000000001</ele>
        <time>2015-08-01T09:44:17Z</time>
      </trkpt>
      <trkpt lat="46.188672808930278" lon="10.585129084065557">
        <ele>1807.4200000000001</ele>
        <time>2015-08-01T09:44:28Z</time>
      </trkpt>
      <trkpt lat="46.188628971576691" lon="10.585110643878579">
        <ele>1807.4200000000001</ele>
        <time>2015-08-01T09:44:41Z</time>
      </trkpt>
      <trkpt lat="46.188589576631784" lon="10.585075691342354">
        <ele>1808.3800000000001</ele>
        <time>2015-08-01T09:44:51Z</time>
      </trkpt>
      <trkpt lat="46.188548505306244" lon="10.585028752684593">
        <ele>1808.8599999999999</ele>
        <time>2015-08-01T09:45:01Z</time>
      </trkpt>
      <trkpt lat="46.188486982136965" lon="10.585030345246196">
        <ele>1808.8599999999999</ele>
        <time>2015-08-01T09:45:10Z</time>
      </trkpt>
      <trkpt lat="46.188436103984714" lon="10.585062196478248">
        <ele>1808.8599999999999</ele>
        <time>2015-08-01T09:45:17Z</time>
      </trkpt>
      <trkpt lat="46.188296964392066" lon="10.585059681907296">
        <ele>1809.8199999999999</ele>
        <time>2015-08-01T09:45:30Z</time>
      </trkpt>
      <trkpt lat="46.188240302726626" lon="10.585079798474908">
        <ele>1810.3</ele>
        <time>2015-08-01T09:45:40Z</time>
      </trkpt>
      <trkpt lat="46.188182467594743" lon="10.585158504545689">
        <ele>1810.78</ele>
        <time>2015-08-01T09:45:50Z</time>
      </trkpt>
      <trkpt lat="46.188129745423794" lon="10.585189014673233">
        <ele>1811.74</ele>
        <time>2015-08-01T09:45:59Z</time>
      </trkpt>
      <trkpt lat="46.188062187284231" lon="10.585157247260213">
        <ele>1811.74</ele>
        <time>2015-08-01T09:46:08Z</time>
      </trkpt>
      <trkpt lat="46.187999742105603" lon="10.585187003016472">
        <ele>1812.7</ele>
        <time>2015-08-01T09:46:19Z</time>
      </trkpt>
      <trkpt lat="46.187946600839496" lon="10.585187254473567">
        <ele>1813.6600000000001</ele>
        <time>2015-08-01T09:46:28Z</time>
      </trkpt>
      <trkpt lat="46.187923969700933" lon="10.585182644426823">
        <ele>1814.1500000000001</ele>
        <time>2015-08-01T09:46:39Z</time>
      </trkpt>
      <trkpt lat="46.187939308583736" lon="10.58518155477941">
        <ele>1813.6600000000001</ele>
        <time>2015-08-01T09:46:57Z</time>
      </trkpt>
      <trkpt lat="46.187932938337326" lon="10.585194462910295">
        <ele>1814.1500000000001</ele>
        <time>2015-08-01T09:47:12Z</time>
      </trkpt>
      <trkpt lat="46.187931932508945" lon="10.585201922804117">
        <ele>1814.1500000000001</ele>
        <time>2015-08-01T09:47:31Z</time>
      </trkpt>
      <trkpt lat="46.187921706587076" lon="10.585202258080244">
        <ele>1814.1500000000001</ele>
        <time>2015-08-01T09:47:43Z</time>
      </trkpt>
      <trkpt lat="46.187924388796091" lon="10.585203766822815">
        <ele>1814.6300000000001</ele>
        <time>2015-08-01T09:47:55Z</time>
      </trkpt>
      <trkpt lat="46.187914414331317" lon="10.585202593356371">
        <ele>1814.6300000000001</ele>
        <time>2015-08-01T09:48:08Z</time>
      </trkpt>
      <trkpt lat="46.187906116247177" lon="10.585214830935001">
        <ele>1815.1099999999999</ele>
        <time>2015-08-01T09:48:26Z</time>
      </trkpt>
      <trkpt lat="46.187861943617463" lon="10.585264870896935">
        <ele>1815.5899999999999</ele>
        <time>2015-08-01T09:48:36Z</time>
      </trkpt>
      <trkpt lat="46.187846856191754" lon="10.585290938615799">
        <ele>1815.1099999999999</ele>
        <time>2015-08-01T09:48:44Z</time>
      </trkpt>
      <trkpt lat="46.187798241153359" lon="10.585349109023809">
        <ele>1816.0699999999999</ele>
        <time>2015-08-01T09:48:55Z</time>
      </trkpt>
      <trkpt lat="46.187725821509957" lon="10.585359502583742">
        <ele>1816.55</ele>
        <time>2015-08-01T09:49:06Z</time>
      </trkpt>
      <trkpt lat="46.18768441490829" lon="10.585356988012791">
        <ele>1817.03</ele>
        <time>2015-08-01T09:49:11Z</time>
      </trkpt>
      <trkpt lat="46.187632530927658" lon="10.585325891152024">
        <ele>1817.03</ele>
        <time>2015-08-01T09:49:18Z</time>
      </trkpt>
      <trkpt lat="46.187566732987761" lon="10.58532471768558">
        <ele>1817.99</ele>
        <time>2015-08-01T09:49:29Z</time>
      </trkpt>
      <trkpt lat="46.187527338042855" lon="10.585285322740674">
        <ele>1818.47</ele>
        <time>2015-08-01T09:49:38Z</time>
      </trkpt>
      <trkpt lat="46.187460282817483" lon="10.585240228101611">
        <ele>1818.95</ele>
        <time>2015-08-01T09:49:47Z</time>
      </trkpt>
      <trkpt lat="46.187392389401793" lon="10.585152134299278">
        <ele>1819.4300000000001</ele>
        <time>2015-08-01T09:49:56Z</time>
      </trkpt>
      <trkpt lat="46.187344780191779" lon="10.58509211987257">
        <ele>1819.4300000000001</ele>
        <time>2015-08-01T09:50:05Z</time>
      </trkpt>
      <trkpt lat="46.18731452152133" lon="10.585073512047529">
        <ele>1820.3900000000001</ele>
        <time>2015-08-01T09:50:13Z</time>
      </trkpt>
      <trkpt lat="46.187252243980765" lon="10.585061023011804">
        <ele>1821.3499999999999</ele>
        <time>2015-08-01T09:50:23Z</time>
      </trkpt>
      <trkpt lat="46.187198767438531" lon="10.585072673857212">
        <ele>1822.3199999999999</ele>
        <time>2015-08-01T09:50:32Z</time>
      </trkpt>
      <trkpt lat="46.187170185148716" lon="10.585105698555708">
        <ele>1822.8</ele>
        <time>2015-08-01T09:50:41Z</time>
      </trkpt>
      <trkpt lat="46.187124419957399" lon="10.585108464583755">
        <ele>1823.28</ele>
        <time>2015-08-01T09:50:50Z</time>
      </trkpt>
      <trkpt lat="46.187092233449221" lon="10.585105111822486">
        <ele>1824.24</ele>
        <time>2015-08-01T09:50:58Z</time>
      </trkpt>
      <trkpt lat="46.187043869867921" lon="10.585141321644187">
        <ele>1825.2</ele>
        <time>2015-08-01T09:51:07Z</time>
      </trkpt>
      <trkpt lat="46.18701159954071" lon="10.58514148928225">
        <ele>1825.6800000000001</ele>
        <time>2015-08-01T09:51:19Z</time>
      </trkpt>
      <trkpt lat="46.186970360577106" lon="10.585131933912635">
        <ele>1826.1600000000001</ele>
        <time>2015-08-01T09:51:31Z</time>
      </trkpt>
      <trkpt lat="46.186938676983118" lon="10.58510385453701">
        <ele>1827.5999999999999</ele>
        <time>2015-08-01T09:51:39Z</time>
      </trkpt>
      <trkpt lat="46.186903892084956" lon="10.585118606686592">
        <ele>1828.0799999999999</ele>
        <time>2015-08-01T09:51:50Z</time>
      </trkpt>
      <trkpt lat="46.186857372522354" lon="10.585088767111301">
        <ele>1829.53</ele>
        <time>2015-08-01T09:52:01Z</time>
      </trkpt>
      <trkpt lat="46.186848403885961" lon="10.585093460977077">
        <ele>1830.01</ele>
        <time>2015-08-01T09:52:10Z</time>
      </trkpt>
      <trkpt lat="46.186849158257246" lon="10.585063369944692">
        <ele>1829.53</ele>
        <time>2015-08-01T09:52:17Z</time>
      </trkpt>
      <trkpt lat="46.186833819374442" lon="10.58507451787591">
        <ele>1829.05</ele>
        <time>2015-08-01T09:52:44Z</time>
      </trkpt>
      <trkpt lat="46.186849996447563" lon="10.58507451787591">
        <ele>1829.53</ele>
        <time>2015-08-01T09:53:05Z</time>
      </trkpt>
      <trkpt lat="46.186850750818849" lon="10.585074350237846">
        <ele>1829.53</ele>
        <time>2015-08-01T09:53:15Z</time>
      </trkpt>
      <trkpt lat="46.186853181570768" lon="10.585064878687263">
        <ele>1829.05</ele>
        <time>2015-08-01T09:53:32Z</time>
      </trkpt>
      <trkpt lat="46.186857707798481" lon="10.585054401308298">
        <ele>1829.05</ele>
        <time>2015-08-01T09:53:59Z</time>
      </trkpt>
      <trkpt lat="46.186856031417847" lon="10.585062447935343">
        <ele>1830.01</ele>
        <time>2015-08-01T09:54:14Z</time>
      </trkpt>
      <trkpt lat="46.186849912628531" lon="10.58507259003818">
        <ele>1829.53</ele>
        <time>2015-08-01T09:54:24Z</time>
      </trkpt>
      <trkpt lat="46.186846140772104" lon="10.585051886737347">
        <ele>1829.53</ele>
        <time>2015-08-01T09:54:52Z</time>
      </trkpt>
      <trkpt lat="46.186831723898649" lon="10.585055826231837">
        <ele>1829.05</ele>
        <time>2015-08-01T09:55:10Z</time>
      </trkpt>
      <trkpt lat="46.186834154650569" lon="10.585078205913305">
        <ele>1829.05</ele>
        <time>2015-08-01T09:55:29Z</time>
      </trkpt>
      <trkpt lat="46.186838261783123" lon="10.585076361894608">
        <ele>1829.05</ele>
        <time>2015-08-01T09:55:50Z</time>
      </trkpt>
      <trkpt lat="46.186846559867263" lon="10.585080636665225">
        <ele>1829.05</ele>
        <time>2015-08-01T09:56:04Z</time>
      </trkpt>
      <trkpt lat="46.186876818537712" lon="10.585085414350033">
        <ele>1829.53</ele>
        <time>2015-08-01T09:56:12Z</time>
      </trkpt>
      <trkpt lat="46.186884865164757" lon="10.585100669413805">
        <ele>1829.53</ele>
        <time>2015-08-01T09:56:25Z</time>
      </trkpt>
      <trkpt lat="46.186880758032203" lon="10.585093041881919">
        <ele>1829.53</ele>
        <time>2015-08-01T09:56:38Z</time>
      </trkpt>
      <trkpt lat="46.186824683099985" lon="10.585100669413805">
        <ele>1830.01</ele>
        <time>2015-08-01T09:56:46Z</time>
      </trkpt>
      <trkpt lat="46.186774726957083" lon="10.585077535361052">
        <ele>1830.97</ele>
        <time>2015-08-01T09:56:58Z</time>
      </trkpt>
      <trkpt lat="46.18673600256443" lon="10.585069488734007">
        <ele>1832.4100000000001</ele>
        <time>2015-08-01T09:57:07Z</time>
      </trkpt>
      <trkpt lat="46.186692332848907" lon="10.585071248933673">
        <ele>1833.3699999999999</ele>
        <time>2015-08-01T09:57:17Z</time>
      </trkpt>
      <trkpt lat="46.186652602627873" lon="10.585061693564057">
        <ele>1834.3299999999999</ele>
        <time>2015-08-01T09:57:26Z</time>
      </trkpt>
      <trkpt lat="46.1866270378232" lon="10.585038475692272">
        <ele>1835.29</ele>
        <time>2015-08-01T09:57:37Z</time>
      </trkpt>
      <trkpt lat="46.186588732525706" lon="10.585054568946362">
        <ele>1837.22</ele>
        <time>2015-08-01T09:57:48Z</time>
      </trkpt>
      <trkpt lat="46.186555456370115" lon="10.585074936971068">
        <ele>1838.6600000000001</ele>
        <time>2015-08-01T09:57:57Z</time>
      </trkpt>
      <trkpt lat="46.186512960121036" lon="10.585051300004125">
        <ele>1839.6199999999999</ele>
        <time>2015-08-01T09:58:08Z</time>
      </trkpt>
      <trkpt lat="46.186478259041905" lon="10.585007043555379">
        <ele>1840.5799999999999</ele>
        <time>2015-08-01T09:58:18Z</time>
      </trkpt>
      <trkpt lat="46.186450682580471" lon="10.584997069090605">
        <ele>1841.54</ele>
        <time>2015-08-01T09:58:28Z</time>
      </trkpt>
      <trkpt lat="46.186444228515029" lon="10.585016012191772">
        <ele>1842.5</ele>
        <time>2015-08-01T09:58:36Z</time>
      </trkpt>
      <trkpt lat="46.186422100290656" lon="10.58498022146523">
        <ele>1843.47</ele>
        <time>2015-08-01T09:58:46Z</time>
      </trkpt>
      <trkpt lat="46.186386561021209" lon="10.584982065483928">
        <ele>1843.95</ele>
        <time>2015-08-01T09:58:57Z</time>
      </trkpt>
      <trkpt lat="46.186361918225884" lon="10.584971001371741">
        <ele>1846.3499999999999</ele>
        <time>2015-08-01T09:59:07Z</time>
      </trkpt>
      <trkpt lat="46.186288576573133" lon="10.58496555313468">
        <ele>1847.79</ele>
        <time>2015-08-01T09:59:20Z</time>
      </trkpt>
      <trkpt lat="46.186273824423552" lon="10.584957506507635">
        <ele>1848.75</ele>
        <time>2015-08-01T09:59:29Z</time>
      </trkpt>
      <trkpt lat="46.186246080324054" lon="10.584950800985098">
        <ele>1850.6800000000001</ele>
        <time>2015-08-01T09:59:38Z</time>
      </trkpt>
      <trkpt lat="46.186230070888996" lon="10.584986256435513">
        <ele>1851.1600000000001</ele>
        <time>2015-08-01T09:59:47Z</time>
      </trkpt>
      <trkpt lat="46.186202997341752" lon="10.584966475144029">
        <ele>1852.5999999999999</ele>
        <time>2015-08-01T09:59:56Z</time>
      </trkpt>
      <trkpt lat="46.186153460294008" lon="10.584950298070908">
        <ele>1855</ele>
        <time>2015-08-01T10:00:08Z</time>
      </trkpt>
      <trkpt lat="46.186135774478316" lon="10.584925906732678">
        <ele>1855.96</ele>
        <time>2015-08-01T10:00:17Z</time>
      </trkpt>
      <trkpt lat="46.186107862740755" lon="10.58492842130363">
        <ele>1856.9200000000001</ele>
        <time>2015-08-01T10:00:27Z</time>
      </trkpt>
      <trkpt lat="46.186061846092343" lon="10.584973432123661">
        <ele>1858.3699999999999</ele>
        <time>2015-08-01T10:00:42Z</time>
      </trkpt>
      <trkpt lat="46.186012057587504" lon="10.584962368011475">
        <ele>1859.3299999999999</ele>
        <time>2015-08-01T10:00:50Z</time>
      </trkpt>
      <trkpt lat="46.185983726754785" lon="10.584976114332676">
        <ele>1860.29</ele>
        <time>2015-08-01T10:00:58Z</time>
      </trkpt>
      <trkpt lat="46.185953803360462" lon="10.585001008585095">
        <ele>1861.25</ele>
        <time>2015-08-01T10:01:07Z</time>
      </trkpt>
      <trkpt lat="46.185932513326406" lon="10.58497779071331">
        <ele>1862.21</ele>
        <time>2015-08-01T10:01:16Z</time>
      </trkpt>
      <trkpt lat="46.18594441562891" lon="10.584946358576417">
        <ele>1862.6900000000001</ele>
        <time>2015-08-01T10:01:33Z</time>
      </trkpt>
      <trkpt lat="46.185929998755455" lon="10.584967480972409">
        <ele>1863.1700000000001</ele>
        <time>2015-08-01T10:01:43Z</time>
      </trkpt>
      <trkpt lat="46.185941146686673" lon="10.584990782663226">
        <ele>1863.1700000000001</ele>
        <time>2015-08-01T10:02:06Z</time>
      </trkpt>
      <trkpt lat="46.185942487791181" lon="10.584986004978418">
        <ele>1863.6500000000001</ele>
        <time>2015-08-01T10:02:23Z</time>
      </trkpt>
      <trkpt lat="46.185930417850614" lon="10.584994303062558">
        <ele>1862.6900000000001</ele>
        <time>2015-08-01T10:02:43Z</time>
      </trkpt>
      <trkpt lat="46.185905020684004" lon="10.584983574226499">
        <ele>1863.6500000000001</ele>
        <time>2015-08-01T10:02:54Z</time>
      </trkpt>
      <trkpt lat="46.185914408415556" lon="10.584969576448202">
        <ele>1863.6500000000001</ele>
        <time>2015-08-01T10:03:09Z</time>
      </trkpt>
      <trkpt lat="46.185901081189513" lon="10.5849679838866">
        <ele>1864.1300000000001</ele>
        <time>2015-08-01T10:03:22Z</time>
      </trkpt>
      <trkpt lat="46.185906948521733" lon="10.584966139867902">
        <ele>1863.6500000000001</ele>
        <time>2015-08-01T10:03:38Z</time>
      </trkpt>
      <trkpt lat="46.185888927429914" lon="10.585004361346364">
        <ele>1864.1300000000001</ele>
        <time>2015-08-01T10:04:00Z</time>
      </trkpt>
      <trkpt lat="46.185870822519064" lon="10.58503738604486">
        <ele>1864.1300000000001</ele>
        <time>2015-08-01T10:04:19Z</time>
      </trkpt>
      <trkpt lat="46.185853304341435" lon="10.585048533976078">
        <ele>1864.1300000000001</ele>
        <time>2015-08-01T10:04:38Z</time>
      </trkpt>
      <trkpt lat="46.185845760628581" lon="10.585054401308298">
        <ele>1864.1300000000001</ele>
        <time>2015-08-01T10:04:51Z</time>
      </trkpt>
      <trkpt lat="46.185877025127411" lon="10.585006205365062">
        <ele>1864.1300000000001</ele>
        <time>2015-08-01T10:05:12Z</time>
      </trkpt>
      <trkpt lat="46.18587207980454" lon="10.585008971393108">
        <ele>1865.0899999999999</ele>
        <time>2015-08-01T10:05:24Z</time>
      </trkpt>
      <trkpt lat="46.185862608253956" lon="10.585042079910636">
        <ele>1865.5799999999999</ele>
        <time>2015-08-01T10:05:39Z</time>
      </trkpt>
      <trkpt lat="46.185846347361803" lon="10.585019364953041">
        <ele>1866.54</ele>
        <time>2015-08-01T10:05:49Z</time>
      </trkpt>
      <trkpt lat="46.185851627960801" lon="10.585004445165396">
        <ele>1867.02</ele>
        <time>2015-08-01T10:06:03Z</time>
      </trkpt>
      <trkpt lat="46.185839138925076" lon="10.5849938839674">
        <ele>1867.5</ele>
        <time>2015-08-01T10:06:14Z</time>
      </trkpt>
      <trkpt lat="46.185811059549451" lon="10.584984831511974">
        <ele>1867.5</ele>
        <time>2015-08-01T10:06:25Z</time>
      </trkpt>
      <trkpt lat="46.185813071206212" lon="10.584973767399788">
        <ele>1867.98</ele>
        <time>2015-08-01T10:06:38Z</time>
      </trkpt>
      <trkpt lat="46.185783986002207" lon="10.584950214251876">
        <ele>1868.9400000000001</ele>
        <time>2015-08-01T10:06:47Z</time>
      </trkpt>
      <trkpt lat="46.185784405097365" lon="10.584930013865232">
        <ele>1868.9400000000001</ele>
        <time>2015-08-01T10:06:59Z</time>
      </trkpt>
      <trkpt lat="46.185748865827918" lon="10.584954237565398">
        <ele>1869.9000000000001</ele>
        <time>2015-08-01T10:07:15Z</time>
      </trkpt>
      <trkpt lat="46.185740986838937" lon="10.584953650832176">
        <ele>1871.3399999999999</ele>
        <time>2015-08-01T10:07:27Z</time>
      </trkpt>
      <trkpt lat="46.185722462832928" lon="10.584945268929005">
        <ele>1871.3399999999999</ele>
        <time>2015-08-01T10:07:36Z</time>
      </trkpt>
      <trkpt lat="46.185711482539773" lon="10.584948789328337">
        <ele>1872.3</ele>
        <time>2015-08-01T10:07:49Z</time>
      </trkpt>
      <trkpt lat="46.185702849179506" lon="10.584946693852544">
        <ele>1873.27</ele>
        <time>2015-08-01T10:08:00Z</time>
      </trkpt>
      <trkpt lat="46.185698239132762" lon="10.584944849833846">
        <ele>1873.75</ele>
        <time>2015-08-01T10:08:16Z</time>
      </trkpt>
      <trkpt lat="46.185687677934766" lon="10.584976365789771">
        <ele>1874.23</ele>
        <time>2015-08-01T10:08:27Z</time>
      </trkpt>
      <trkpt lat="46.18565272539854" lon="10.584986843168736">
        <ele>1875.6700000000001</ele>
        <time>2015-08-01T10:08:41Z</time>
      </trkpt>
      <trkpt lat="46.185654317960143" lon="10.58496555313468">
        <ele>1876.1500000000001</ele>
        <time>2015-08-01T10:08:52Z</time>
      </trkpt>
      <trkpt lat="46.185647863894701" lon="10.584980975836515">
        <ele>1876.6300000000001</ele>
        <time>2015-08-01T10:09:02Z</time>
      </trkpt>
      <trkpt lat="46.185622634366155" lon="10.584987932816148">
        <ele>1876.6300000000001</ele>
        <time>2015-08-01T10:09:17Z</time>
      </trkpt>
      <trkpt lat="46.18562338873744" lon="10.584987932816148">
        <ele>1876.6300000000001</ele>
        <time>2015-08-01T10:09:27Z</time>
      </trkpt>
      <trkpt lat="46.185630848631263" lon="10.584987513720989">
        <ele>1876.6300000000001</ele>
        <time>2015-08-01T10:09:40Z</time>
      </trkpt>
      <trkpt lat="46.185624478384852" lon="10.58496949262917">
        <ele>1876.6300000000001</ele>
        <time>2015-08-01T10:09:52Z</time>
      </trkpt>
      <trkpt lat="46.185623724013567" lon="10.584987178444862">
        <ele>1876.6300000000001</ele>
        <time>2015-08-01T10:10:04Z</time>
      </trkpt>
      <trkpt lat="46.185628334060311" lon="10.584999164566398">
        <ele>1876.1500000000001</ele>
        <time>2015-08-01T10:10:17Z</time>
      </trkpt>
      <trkpt lat="46.185636380687356" lon="10.585000170394778">
        <ele>1876.6300000000001</ele>
        <time>2015-08-01T10:10:28Z</time>
      </trkpt>
      <trkpt lat="46.18563462048769" lon="10.585001427680254">
        <ele>1876.6300000000001</ele>
        <time>2015-08-01T10:10:46Z</time>
      </trkpt>
      <trkpt lat="46.185626070946455" lon="10.584992542862892">
        <ele>1876.6300000000001</ele>
        <time>2015-08-01T10:10:58Z</time>
      </trkpt>
      <trkpt lat="46.185609055683017" lon="10.584984496235847">
        <ele>1876.6300000000001</ele>
        <time>2015-08-01T10:11:13Z</time>
      </trkpt>
      <trkpt lat="46.185617353767157" lon="10.584984160959721">
        <ele>1877.1099999999999</ele>
        <time>2015-08-01T10:11:25Z</time>
      </trkpt>
      <trkpt lat="46.185628585517406" lon="10.584987346082926">
        <ele>1876.6300000000001</ele>
        <time>2015-08-01T10:11:39Z</time>
      </trkpt>
      <trkpt lat="46.185607044026256" lon="10.584978796541691">
        <ele>1877.5899999999999</ele>
        <time>2015-08-01T10:11:50Z</time>
      </trkpt>
      <trkpt lat="46.185589777305722" lon="10.584966139867902">
        <ele>1878.0699999999999</ele>
        <time>2015-08-01T10:12:02Z</time>
      </trkpt>
      <trkpt lat="46.18557745590806" lon="10.584980975836515">
        <ele>1879.03</ele>
        <time>2015-08-01T10:12:14Z</time>
      </trkpt>
      <trkpt lat="46.185527918860316" lon="10.584957506507635">
        <ele>1880.96</ele>
        <time>2015-08-01T10:12:23Z</time>
      </trkpt>
      <trkpt lat="46.185508389025927" lon="10.584970330819488">
        <ele>1882.4000000000001</ele>
        <time>2015-08-01T10:12:34Z</time>
      </trkpt>
      <trkpt lat="46.18550218641758" lon="10.584948034957051">
        <ele>1882.8800000000001</ele>
        <time>2015-08-01T10:12:37Z</time>
      </trkpt>
      <trkpt lat="46.185458851978183" lon="10.584943005815148">
        <ele>1884.3199999999999</ele>
        <time>2015-08-01T10:12:47Z</time>
      </trkpt>
      <trkpt lat="46.185432113707066" lon="10.584923475980759">
        <ele>1885.28</ele>
        <time>2015-08-01T10:12:57Z</time>
      </trkpt>
      <trkpt lat="46.185427000746131" lon="10.584972761571407">
        <ele>1886.72</ele>
        <time>2015-08-01T10:13:06Z</time>
      </trkpt>
      <trkpt lat="46.185385175049305" lon="10.584975276142359">
        <ele>1887.6900000000001</ele>
        <time>2015-08-01T10:13:17Z</time>
      </trkpt>
      <trkpt lat="46.185366734862328" lon="10.584928086027503">
        <ele>1888.6500000000001</ele>
        <time>2015-08-01T10:13:27Z</time>
      </trkpt>
      <trkpt lat="46.185370003804564" lon="10.584927331656218">
        <ele>1888.6500000000001</ele>
        <time>2015-08-01T10:13:38Z</time>
      </trkpt>
      <trkpt lat="46.185355167835951" lon="10.584910651668906">
        <ele>1889.6099999999999</ele>
        <time>2015-08-01T10:13:46Z</time>
      </trkpt>
      <trkpt lat="46.185335721820593" lon="10.584920709952712">
        <ele>1889.6099999999999</ele>
        <time>2015-08-01T10:14:02Z</time>
      </trkpt>
      <trkpt lat="46.185312503948808" lon="10.584926409646869">
        <ele>1891.05</ele>
        <time>2015-08-01T10:14:14Z</time>
      </trkpt>
      <trkpt lat="46.185277551412582" lon="10.584906041622162">
        <ele>1892.49</ele>
        <time>2015-08-01T10:14:25Z</time>
      </trkpt>
      <trkpt lat="46.185254165902734" lon="10.584906125441194">
        <ele>1893.9300000000001</ele>
        <time>2015-08-01T10:14:36Z</time>
      </trkpt>
      <trkpt lat="46.185232372954488" lon="10.584886511787772">
        <ele>1894.4200000000001</ele>
        <time>2015-08-01T10:14:47Z</time>
      </trkpt>
      <trkpt lat="46.185216531157494" lon="10.584916267544031">
        <ele>1896.3399999999999</ele>
        <time>2015-08-01T10:14:58Z</time>
      </trkpt>
      <trkpt lat="46.18519825860858" lon="10.584954656660557">
        <ele>1897.78</ele>
        <time>2015-08-01T10:15:06Z</time>
      </trkpt>
      <trkpt lat="46.185171771794558" lon="10.584937473759055">
        <ele>1898.26</ele>
        <time>2015-08-01T10:15:16Z</time>
      </trkpt>
      <trkpt lat="46.185130281373858" lon="10.584907550364733">
        <ele>1899.22</ele>
        <time>2015-08-01T10:15:30Z</time>
      </trkpt>
      <trkpt lat="46.185133969411254" lon="10.584902269765735">
        <ele>1899.22</ele>
        <time>2015-08-01T10:15:49Z</time>
      </trkpt>
      <trkpt lat="46.185113685205579" lon="10.584895228967071">
        <ele>1900.1800000000001</ele>
        <time>2015-08-01T10:16:03Z</time>
      </trkpt>
      <trkpt lat="46.185099016875029" lon="10.584871927276254">
        <ele>1900.6600000000001</ele>
        <time>2015-08-01T10:16:11Z</time>
      </trkpt>
      <trkpt lat="46.185109913349152" lon="10.58485952205956">
        <ele>1900.6600000000001</ele>
        <time>2015-08-01T10:16:23Z</time>
      </trkpt>
      <trkpt lat="46.185092395171523" lon="10.584858264774084">
        <ele>1900.6600000000001</ele>
        <time>2015-08-01T10:16:36Z</time>
      </trkpt>
      <trkpt lat="46.18508200161159" lon="10.584868406876922">
        <ele>1901.1400000000001</ele>
        <time>2015-08-01T10:16:50Z</time>
      </trkpt>
      <trkpt lat="46.185067081823945" lon="10.584869747981429">
        <ele>1902.1099999999999</ele>
        <time>2015-08-01T10:17:01Z</time>
      </trkpt>
      <trkpt lat="46.185065489262342" lon="10.584863964468241">
        <ele>1903.0699999999999</ele>
        <time>2015-08-01T10:17:14Z</time>
      </trkpt>
      <trkpt lat="46.185043528676033" lon="10.584877878427505">
        <ele>1904.03</ele>
        <time>2015-08-01T10:17:24Z</time>
      </trkpt>
      <trkpt lat="46.18502726778388" lon="10.584884751588106">
        <ele>1905.95</ele>
        <time>2015-08-01T10:17:33Z</time>
      </trkpt>
      <trkpt lat="46.184991644695401" lon="10.584890702739358">
        <ele>1906.4300000000001</ele>
        <time>2015-08-01T10:17:43Z</time>
      </trkpt>
      <trkpt lat="46.184975551441312" lon="10.584918027743697">
        <ele>1907.3900000000001</ele>
        <time>2015-08-01T10:17:57Z</time>
      </trkpt>
      <trkpt lat="46.184973623603582" lon="10.584940742701292">
        <ele>1908.8299999999999</ele>
        <time>2015-08-01T10:18:09Z</time>
      </trkpt>
      <trkpt lat="46.184961888939142" lon="10.584942921996117">
        <ele>1909.3199999999999</ele>
        <time>2015-08-01T10:18:25Z</time>
      </trkpt>
      <trkpt lat="46.184947555884719" lon="10.58500025421381">
        <ele>1909.3199999999999</ele>
        <time>2015-08-01T10:18:35Z</time>
      </trkpt>
      <trkpt lat="46.184904472902417" lon="10.585007881745696">
        <ele>1911.72</ele>
        <time>2015-08-01T10:18:45Z</time>
      </trkpt>
      <trkpt lat="46.184893911704421" lon="10.58504275046289">
        <ele>1913.1600000000001</ele>
        <time>2015-08-01T10:18:54Z</time>
      </trkpt>
      <trkpt lat="46.184856696054339" lon="10.585089018568397">
        <ele>1914.5999999999999</ele>
        <time>2015-08-01T10:19:06Z</time>
      </trkpt>
      <trkpt lat="46.184826605021954" lon="10.585057586431503">
        <ele>1916.53</ele>
        <time>2015-08-01T10:19:14Z</time>
      </trkpt>
      <trkpt lat="46.184781594201922" lon="10.585008384659886">
        <ele>1917.97</ele>
        <time>2015-08-01T10:19:23Z</time>
      </trkpt>
      <trkpt lat="46.184749994426966" lon="10.585013497620821">
        <ele>1918.9300000000001</ele>
        <time>2015-08-01T10:19:33Z</time>
      </trkpt>
      <trkpt lat="46.184740103781223" lon="10.585042163729668">
        <ele>1919.8900000000001</ele>
        <time>2015-08-01T10:19:41Z</time>
      </trkpt>
      <trkpt lat="46.184706576168537" lon="10.585061861202121">
        <ele>1921.3299999999999</ele>
        <time>2015-08-01T10:19:50Z</time>
      </trkpt>
      <trkpt lat="46.184687130153179" lon="10.585099495947361">
        <ele>1922.77</ele>
        <time>2015-08-01T10:20:01Z</time>
      </trkpt>
      <trkpt lat="46.184659553691745" lon="10.585115337744355">
        <ele>1923.74</ele>
        <time>2015-08-01T10:20:11Z</time>
      </trkpt>
      <trkpt lat="46.184639520943165" lon="10.585159342736006">
        <ele>1925.6600000000001</ele>
        <time>2015-08-01T10:20:21Z</time>
      </trkpt>
      <trkpt lat="46.184621499851346" lon="10.585194462910295">
        <ele>1925.6600000000001</ele>
        <time>2015-08-01T10:20:25Z</time>
      </trkpt>
      <trkpt lat="46.184570621699095" lon="10.58523771353066">
        <ele>1926.6199999999999</ele>
        <time>2015-08-01T10:20:35Z</time>
      </trkpt>
      <trkpt lat="46.184539441019297" lon="10.585232935845852">
        <ele>1925.6600000000001</ele>
        <time>2015-08-01T10:20:46Z</time>
      </trkpt>
      <trkpt lat="46.184534411877394" lon="10.585230169817805">
        <ele>1929.02</ele>
        <time>2015-08-01T10:20:49Z</time>
      </trkpt>
      <trkpt lat="46.184533908963203" lon="10.5852269846946">
        <ele>1928.0599999999999</ele>
        <time>2015-08-01T10:20:50Z</time>
      </trkpt>
      <trkpt lat="46.184504739940166" lon="10.585194127634168">
        <ele>1929.02</ele>
        <time>2015-08-01T10:20:57Z</time>
      </trkpt>
      <trkpt lat="46.184471128508449" lon="10.585192954167724">
        <ele>1929.02</ele>
        <time>2015-08-01T10:21:07Z</time>
      </trkpt>
      <trkpt lat="46.184458807110786" lon="10.585154984146357">
        <ele>1929.98</ele>
        <time>2015-08-01T10:21:19Z</time>
      </trkpt>
      <trkpt lat="46.184438355267048" lon="10.585120031610131">
        <ele>1931.4300000000001</ele>
        <time>2015-08-01T10:21:28Z</time>
      </trkpt>
      <trkpt lat="46.184443887323141" lon="10.585084911435843">
        <ele>1932.3900000000001</ele>
        <time>2015-08-01T10:21:39Z</time>
      </trkpt>
      <trkpt lat="46.184415221214294" lon="10.585056999698281">
        <ele>1933.8299999999999</ele>
        <time>2015-08-01T10:21:47Z</time>
      </trkpt>
      <trkpt lat="46.184388566762209" lon="10.585074853152037">
        <ele>1934.3099999999999</ele>
        <time>2015-08-01T10:21:58Z</time>
      </trkpt>
      <trkpt lat="46.184361828491092" lon="10.585064375773072">
        <ele>1935.27</ele>
        <time>2015-08-01T10:22:08Z</time>
      </trkpt>
      <trkpt lat="46.184346908703446" lon="10.585011066868901">
        <ele>1936.23</ele>
        <time>2015-08-01T10:22:16Z</time>
      </trkpt>
      <trkpt lat="46.184331066906452" lon="10.584999667480588">
        <ele>1937.6700000000001</ele>
        <time>2015-08-01T10:22:27Z</time>
      </trkpt>
      <trkpt lat="46.184304328635335" lon="10.584969324991107">
        <ele>1938.6400000000001</ele>
        <time>2015-08-01T10:22:39Z</time>
      </trkpt>
      <trkpt lat="46.184290833771229" lon="10.584943005815148">
        <ele>1939.5999999999999</ele>
        <time>2015-08-01T10:22:50Z</time>
      </trkpt>
      <trkpt lat="46.18428111076355" lon="10.5849489569664">
        <ele>1940.0799999999999</ele>
        <time>2015-08-01T10:23:01Z</time>
      </trkpt>
      <trkpt lat="46.184247247874737" lon="10.584917105734348">
        <ele>1941.52</ele>
        <time>2015-08-01T10:23:11Z</time>
      </trkpt>
      <trkpt lat="46.184211624786258" lon="10.584890870377421">
        <ele>1943.4400000000001</ele>
        <time>2015-08-01T10:23:24Z</time>
      </trkpt>
      <trkpt lat="46.184206260368228" lon="10.584915680810809">
        <ele>1944.8800000000001</ele>
        <time>2015-08-01T10:23:37Z</time>
      </trkpt>
      <trkpt lat="46.184203745797276" lon="10.584937892854214">
        <ele>1944.8800000000001</ele>
        <time>2015-08-01T10:23:51Z</time>
      </trkpt>
      <trkpt lat="46.184190586209297" lon="10.584953315556049">
        <ele>1945.8499999999999</ele>
        <time>2015-08-01T10:24:02Z</time>
      </trkpt>
      <trkpt lat="46.184153705835342" lon="10.584933450445533">
        <ele>1946.3299999999999</ele>
        <time>2015-08-01T10:24:14Z</time>
      </trkpt>
      <trkpt lat="46.184128560125828" lon="10.584935210645199">
        <ele>1948.25</ele>
        <time>2015-08-01T10:24:24Z</time>
      </trkpt>
      <trkpt lat="46.184116154909134" lon="10.584945185109973">
        <ele>1948.73</ele>
        <time>2015-08-01T10:24:37Z</time>
      </trkpt>
      <trkpt lat="46.18410081602633" lon="10.58495381847024">
        <ele>1949.21</ele>
        <time>2015-08-01T10:24:49Z</time>
      </trkpt>
      <trkpt lat="46.184056056663394" lon="10.584959182888269">
        <ele>1950.1700000000001</ele>
        <time>2015-08-01T10:24:59Z</time>
      </trkpt>
      <trkpt lat="46.184044238179922" lon="10.584955997765064">
        <ele>1951.1300000000001</ele>
        <time>2015-08-01T10:25:07Z</time>
      </trkpt>
      <trkpt lat="46.184017667546868" lon="10.584958679974079">
        <ele>1952.0899999999999</ele>
        <time>2015-08-01T10:25:16Z</time>
      </trkpt>
      <trkpt lat="46.184000903740525" lon="10.584978628903627">
        <ele>1952.0899999999999</ele>
        <time>2015-08-01T10:25:24Z</time>
      </trkpt>
      <trkpt lat="46.183998892083764" lon="10.584952728822827">
        <ele>1953.54</ele>
        <time>2015-08-01T10:25:35Z</time>
      </trkpt>
      <trkpt lat="46.184005178511143" lon="10.584914423525333">
        <ele>1954.02</ele>
        <time>2015-08-01T10:25:44Z</time>
      </trkpt>
      <trkpt lat="46.183991599828005" lon="10.584910484030843">
        <ele>1954.5</ele>
        <time>2015-08-01T10:25:52Z</time>
      </trkpt>
      <trkpt lat="46.183978607878089" lon="10.584901599213481">
        <ele>1955.9400000000001</ele>
        <time>2015-08-01T10:26:03Z</time>
      </trkpt>
      <trkpt lat="46.183954635635018" lon="10.584914088249207">
        <ele>1956.9000000000001</ele>
        <time>2015-08-01T10:26:13Z</time>
      </trkpt>
      <trkpt lat="46.183940889313817" lon="10.584903275594115">
        <ele>1958.3399999999999</ele>
        <time>2015-08-01T10:26:23Z</time>
      </trkpt>
      <trkpt lat="46.183950193226337" lon="10.58487368747592">
        <ele>1959.3</ele>
        <time>2015-08-01T10:26:32Z</time>
      </trkpt>
      <trkpt lat="46.183913564309478" lon="10.584851978346705">
        <ele>1960.27</ele>
        <time>2015-08-01T10:26:42Z</time>
      </trkpt>
      <trkpt lat="46.183893028646708" lon="10.584858264774084">
        <ele>1961.23</ele>
        <time>2015-08-01T10:26:51Z</time>
      </trkpt>
      <trkpt lat="46.183873163536191" lon="10.584881566464901">
        <ele>1962.1900000000001</ele>
        <time>2015-08-01T10:27:00Z</time>
      </trkpt>
      <trkpt lat="46.183855980634689" lon="10.584882237017155">
        <ele>1962.6700000000001</ele>
        <time>2015-08-01T10:27:13Z</time>
      </trkpt>
      <trkpt lat="46.183838462457061" lon="10.584878297522664">
        <ele>1963.6300000000001</ele>
        <time>2015-08-01T10:27:23Z</time>
      </trkpt>
      <trkpt lat="46.183804767206311" lon="10.584875531494617">
        <ele>1965.0699999999999</ele>
        <time>2015-08-01T10:27:34Z</time>
      </trkpt>
      <trkpt lat="46.183798564597964" lon="10.584819372743368">
        <ele>1966.99</ele>
        <time>2015-08-01T10:27:45Z</time>
      </trkpt>
      <trkpt lat="46.18377341888845" lon="10.584846613928676">
        <ele>1968.9200000000001</ele>
        <time>2015-08-01T10:27:55Z</time>
      </trkpt>
      <trkpt lat="46.183734275400639" lon="10.584845524281263">
        <ele>1969.8800000000001</ele>
        <time>2015-08-01T10:28:03Z</time>
      </trkpt>
      <trkpt lat="46.183708040043712" lon="10.584828425198793">
        <ele>1970.8399999999999</ele>
        <time>2015-08-01T10:28:16Z</time>
      </trkpt>
      <trkpt lat="46.183703932911158" lon="10.584845775738358">
        <ele>1971.3199999999999</ele>
        <time>2015-08-01T10:28:27Z</time>
      </trkpt>
      <trkpt lat="46.183677446097136" lon="10.584852481260896">
        <ele>1971.8</ele>
        <time>2015-08-01T10:28:42Z</time>
      </trkpt>
      <trkpt lat="46.183662358671427" lon="10.584853067994118">
        <ele>1972.76</ele>
        <time>2015-08-01T10:28:50Z</time>
      </trkpt>
      <trkpt lat="46.18365129455924" lon="10.584851810708642">
        <ele>1973.24</ele>
        <time>2015-08-01T10:28:59Z</time>
      </trkpt>
      <trkpt lat="46.183628411963582" lon="10.584871089085937">
        <ele>1974.2</ele>
        <time>2015-08-01T10:29:07Z</time>
      </trkpt>
      <trkpt lat="46.183607038110495" lon="10.584911657497287">
        <ele>1974.6900000000001</ele>
        <time>2015-08-01T10:29:18Z</time>
      </trkpt>
      <trkpt lat="46.183575354516506" lon="10.58490545488894">
        <ele>1976.1300000000001</ele>
        <time>2015-08-01T10:29:31Z</time>
      </trkpt>
      <trkpt lat="46.183551466092467" lon="10.584931774064898">
        <ele>1977.0899999999999</ele>
        <time>2015-08-01T10:29:42Z</time>
      </trkpt>
      <trkpt lat="46.183492122218013" lon="10.584930516779423">
        <ele>1979.01</ele>
        <time>2015-08-01T10:29:51Z</time>
      </trkpt>
      <trkpt lat="46.183455996215343" lon="10.584858600050211">
        <ele>1979.49</ele>
        <time>2015-08-01T10:30:03Z</time>
      </trkpt>
      <trkpt lat="46.183424228802323" lon="10.584792047739029">
        <ele>1980.9300000000001</ele>
        <time>2015-08-01T10:30:12Z</time>
      </trkpt>
      <trkpt lat="46.183367064222693" lon="10.584783330559731">
        <ele>1981.4100000000001</ele>
        <time>2015-08-01T10:30:21Z</time>
      </trkpt>
      <trkpt lat="46.183310989290476" lon="10.584780480712652">
        <ele>1980.9300000000001</ele>
        <time>2015-08-01T10:30:28Z</time>
      </trkpt>
      <trkpt lat="46.183295482769608" lon="10.584767321124673">
        <ele>1980.45</ele>
        <time>2015-08-01T10:30:31Z</time>
      </trkpt>
      <trkpt lat="46.183242592960596" lon="10.584792383015156">
        <ele>1980.45</ele>
        <time>2015-08-01T10:30:40Z</time>
      </trkpt>
      <trkpt lat="46.183206969872117" lon="10.584770170971751">
        <ele>1981.9000000000001</ele>
        <time>2015-08-01T10:30:49Z</time>
      </trkpt>
      <trkpt lat="46.18316556327045" lon="10.584757765755057">
        <ele>1983.3399999999999</ele>
        <time>2015-08-01T10:31:01Z</time>
      </trkpt>
      <trkpt lat="46.183120803907514" lon="10.584729937836528">
        <ele>1984.3</ele>
        <time>2015-08-01T10:31:12Z</time>
      </trkpt>
      <trkpt lat="46.1830835044384" lon="10.58469632640481">
        <ele>1986.22</ele>
        <time>2015-08-01T10:31:21Z</time>
      </trkpt>
      <trkpt lat="46.183059951290488" lon="10.584683837369084">
        <ele>1986.22</ele>
        <time>2015-08-01T10:31:31Z</time>
      </trkpt>
      <trkpt lat="46.183044863864779" lon="10.58463865891099">
        <ele>1986.7</ele>
        <time>2015-08-01T10:31:40Z</time>
      </trkpt>
      <trkpt lat="46.183009576052427" lon="10.584605801850557">
        <ele>1987.6600000000001</ele>
        <time>2015-08-01T10:31:49Z</time>
      </trkpt>
      <trkpt lat="46.182960122823715" lon="10.584633043035865">
        <ele>1988.1400000000001</ele>
        <time>2015-08-01T10:31:59Z</time>
      </trkpt>
      <trkpt lat="46.182937994599342" lon="10.584627343341708">
        <ele>1988.6199999999999</ele>
        <time>2015-08-01T10:32:08Z</time>
      </trkpt>
      <trkpt lat="46.182911843061447" lon="10.584597252309322">
        <ele>1989.0999999999999</ele>
        <time>2015-08-01T10:32:17Z</time>
      </trkpt>
      <trkpt lat="46.182877225801349" lon="10.584591468796134">
        <ele>1990.0699999999999</ele>
        <time>2015-08-01T10:32:27Z</time>
      </trkpt>
      <trkpt lat="46.182831376791" lon="10.584598761051893">
        <ele>1990.0699999999999</ele>
        <time>2015-08-01T10:32:36Z</time>
      </trkpt>
      <trkpt lat="46.182798855006695" lon="10.584635054692626">
        <ele>1990.0699999999999</ele>
        <time>2015-08-01T10:32:47Z</time>
      </trkpt>
      <trkpt lat="46.182781923562288" lon="10.584665816277266">
        <ele>1989.0999999999999</ele>
        <time>2015-08-01T10:32:53Z</time>
      </trkpt>
      <trkpt lat="46.182725261896849" lon="10.58463279157877">
        <ele>1990.0699999999999</ele>
        <time>2015-08-01T10:33:03Z</time>
      </trkpt>
      <trkpt lat="46.182686286047101" lon="10.584663720801473">
        <ele>1991.03</ele>
        <time>2015-08-01T10:33:12Z</time>
      </trkpt>
      <trkpt lat="46.182648818939924" lon="10.584666654467583">
        <ele>1991.99</ele>
        <time>2015-08-01T10:33:19Z</time>
      </trkpt>
      <trkpt lat="46.182630294933915" lon="10.584612339735031">
        <ele>1992.47</ele>
        <time>2015-08-01T10:33:27Z</time>
      </trkpt>
      <trkpt lat="46.182602383196354" lon="10.584603371098638">
        <ele>1993.9100000000001</ele>
        <time>2015-08-01T10:33:38Z</time>
      </trkpt>
      <trkpt lat="46.18258654139936" lon="10.584589624777436">
        <ele>1995.3499999999999</ele>
        <time>2015-08-01T10:33:47Z</time>
      </trkpt>
      <trkpt lat="46.18255577981472" lon="10.584600185975432">
        <ele>1995.3499999999999</ele>
        <time>2015-08-01T10:33:56Z</time>
      </trkpt>
      <trkpt lat="46.182528957724571" lon="10.584613010287285">
        <ele>1995.8299999999999</ele>
        <time>2015-08-01T10:34:08Z</time>
      </trkpt>
      <trkpt lat="46.182500123977661" lon="10.584624409675598">
        <ele>1996.3199999999999</ele>
        <time>2015-08-01T10:34:17Z</time>
      </trkpt>
      <trkpt lat="46.182473301887512" lon="10.584633713588119">
        <ele>1997.28</ele>
        <time>2015-08-01T10:34:26Z</time>
      </trkpt>
      <trkpt lat="46.182470200583339" lon="10.584611417725682">
        <ele>1997.76</ele>
        <time>2015-08-01T10:34:37Z</time>
      </trkpt>
      <trkpt lat="46.182461818680167" lon="10.584580153226852">
        <ele>1998.72</ele>
        <time>2015-08-01T10:34:52Z</time>
      </trkpt>
      <trkpt lat="46.182422004640102" lon="10.584618709981441">
        <ele>1999.6800000000001</ele>
        <time>2015-08-01T10:35:04Z</time>
      </trkpt>
      <trkpt lat="46.182394092902541" lon="10.584610747173429">
        <ele>2000.1600000000001</ele>
        <time>2015-08-01T10:35:13Z</time>
      </trkpt>
      <trkpt lat="46.182358218356967" lon="10.584611836820841">
        <ele>2001.5999999999999</ele>
        <time>2015-08-01T10:35:21Z</time>
      </trkpt>
      <trkpt lat="46.182345310226083" lon="10.584622398018837">
        <ele>2002.0799999999999</ele>
        <time>2015-08-01T10:35:28Z</time>
      </trkpt>
      <trkpt lat="46.182298958301544" lon="10.584615441039205">
        <ele>2002.5599999999999</ele>
        <time>2015-08-01T10:35:38Z</time>
      </trkpt>
      <trkpt lat="46.182277332991362" lon="10.584568418562412">
        <ele>2003.52</ele>
        <time>2015-08-01T10:35:49Z</time>
      </trkpt>
      <trkpt lat="46.18228068575263" lon="10.584542015567422">
        <ele>2004.49</ele>
        <time>2015-08-01T10:36:00Z</time>
      </trkpt>
      <trkpt lat="46.182251516729593" lon="10.584503961727023">
        <ele>2005.45</ele>
        <time>2015-08-01T10:36:09Z</time>
      </trkpt>
      <trkpt lat="46.182220168411732" lon="10.584507482126355">
        <ele>2006.8900000000001</ele>
        <time>2015-08-01T10:36:18Z</time>
      </trkpt>
      <trkpt lat="46.182176247239113" lon="10.58448183350265">
        <ele>2008.3299999999999</ele>
        <time>2015-08-01T10:36:28Z</time>
      </trkpt>
      <trkpt lat="46.182130062952638" lon="10.584496585652232">
        <ele>2009.29</ele>
        <time>2015-08-01T10:36:38Z</time>
      </trkpt>
      <trkpt lat="46.182096870616078" lon="10.584488790482283">
        <ele>2010.25</ele>
        <time>2015-08-01T10:36:48Z</time>
      </trkpt>
      <trkpt lat="46.182082202285528" lon="10.584476888179779">
        <ele>2011.22</ele>
        <time>2015-08-01T10:36:58Z</time>
      </trkpt>
      <trkpt lat="46.1820646841079" lon="10.584455598145723">
        <ele>2012.1800000000001</ele>
        <time>2015-08-01T10:37:09Z</time>
      </trkpt>
      <trkpt lat="46.182029815390706" lon="10.584452413022518">
        <ele>2013.6199999999999</ele>
        <time>2015-08-01T10:37:19Z</time>
      </trkpt>
      <trkpt lat="46.181998802348971" lon="10.584456268697977">
        <ele>2014.5799999999999</ele>
        <time>2015-08-01T10:37:33Z</time>
      </trkpt>
      <trkpt lat="46.181939374655485" lon="10.584471942856908">
        <ele>2015.0599999999999</ele>
        <time>2015-08-01T10:37:43Z</time>
      </trkpt>
      <trkpt lat="46.181902578100562" lon="10.58445006608963">
        <ele>2016.98</ele>
        <time>2015-08-01T10:37:53Z</time>
      </trkpt>
      <trkpt lat="46.181867206469178" lon="10.58444713242352">
        <ele>2017.9400000000001</ele>
        <time>2015-08-01T10:38:05Z</time>
      </trkpt>
      <trkpt lat="46.1818609200418" lon="10.584456017240882">
        <ele>2018.4300000000001</ele>
        <time>2015-08-01T10:38:07Z</time>
      </trkpt>
      <trkpt lat="46.181822950020432" lon="10.584486108273268">
        <ele>2018.4300000000001</ele>
        <time>2015-08-01T10:38:15Z</time>
      </trkpt>
      <trkpt lat="46.181818675249815" lon="10.584498764947057">
        <ele>2018.4300000000001</ele>
        <time>2015-08-01T10:38:24Z</time>
      </trkpt>
      <trkpt lat="46.181818759068847" lon="10.584484096616507">
        <ele>2018.4300000000001</ele>
        <time>2015-08-01T10:38:39Z</time>
      </trkpt>
      <trkpt lat="46.181793613359332" lon="10.584485521540046">
        <ele>2018.9100000000001</ele>
        <time>2015-08-01T10:38:51Z</time>
      </trkpt>
      <trkpt lat="46.181768383830786" lon="10.58448476716876">
        <ele>2018.9100000000001</ele>
        <time>2015-08-01T10:39:01Z</time>
      </trkpt>
      <trkpt lat="46.181753966957331" lon="10.584495663642883">
        <ele>2018.9100000000001</ele>
        <time>2015-08-01T10:39:08Z</time>
      </trkpt>
      <trkpt lat="46.181753128767014" lon="10.584529610350728">
        <ele>2018.9100000000001</ele>
        <time>2015-08-01T10:39:19Z</time>
      </trkpt>
      <trkpt lat="46.181738125160336" lon="10.584507482126355">
        <ele>2018.9100000000001</ele>
        <time>2015-08-01T10:39:30Z</time>
      </trkpt>
      <trkpt lat="46.181709542870522" lon="10.584501950070262">
        <ele>2019.3900000000001</ele>
        <time>2015-08-01T10:39:40Z</time>
      </trkpt>
      <trkpt lat="46.181717170402408" lon="10.584510080516338">
        <ele>2018.4300000000001</ele>
        <time>2015-08-01T10:39:50Z</time>
      </trkpt>
      <trkpt lat="46.181700574234128" lon="10.584532124921679">
        <ele>2018.9100000000001</ele>
        <time>2015-08-01T10:40:05Z</time>
      </trkpt>
      <trkpt lat="46.181683642789721" lon="10.584543691948056">
        <ele>2018.9100000000001</ele>
        <time>2015-08-01T10:40:14Z</time>
      </trkpt>
      <trkpt lat="46.181690264493227" lon="10.584577303379774">
        <ele>2018.4300000000001</ele>
        <time>2015-08-01T10:40:24Z</time>
      </trkpt>
      <trkpt lat="46.181666878983378" lon="10.584581829607487">
        <ele>2018.9100000000001</ele>
        <time>2015-08-01T10:40:29Z</time>
      </trkpt>
      <trkpt lat="46.181608457118273" lon="10.58455509133637">
        <ele>2019.8699999999999</ele>
        <time>2015-08-01T10:40:39Z</time>
      </trkpt>
      <trkpt lat="46.181571409106255" lon="10.584545452147722">
        <ele>2022.27</ele>
        <time>2015-08-01T10:40:48Z</time>
      </trkpt>
      <trkpt lat="46.181535786017776" lon="10.584552492946386">
        <ele>2022.75</ele>
        <time>2015-08-01T10:40:56Z</time>
      </trkpt>
      <trkpt lat="46.181528745219111" lon="10.584570011124015">
        <ele>2022.75</ele>
        <time>2015-08-01T10:41:06Z</time>
      </trkpt>
      <trkpt lat="46.181498821824789" lon="10.584580069407821">
        <ele>2023.71</ele>
        <time>2015-08-01T10:41:18Z</time>
      </trkpt>
      <trkpt lat="46.181484740227461" lon="10.584584595635533">
        <ele>2024.1900000000001</ele>
        <time>2015-08-01T10:41:27Z</time>
      </trkpt>
      <trkpt lat="46.181458001956344" lon="10.58460739441216">
        <ele>2024.1900000000001</ele>
        <time>2015-08-01T10:41:38Z</time>
      </trkpt>
      <trkpt lat="46.181419864296913" lon="10.584600772708654">
        <ele>2024.1900000000001</ele>
        <time>2015-08-01T10:41:47Z</time>
      </trkpt>
      <trkpt lat="46.181365717202425" lon="10.584596497938037">
        <ele>2025.6400000000001</ele>
        <time>2015-08-01T10:41:57Z</time>
      </trkpt>
      <trkpt lat="46.181359011679888" lon="10.584581829607487">
        <ele>2026.5999999999999</ele>
        <time>2015-08-01T10:42:08Z</time>
      </trkpt>
      <trkpt lat="46.181352809071541" lon="10.584544111043215">
        <ele>2028.04</ele>
        <time>2015-08-01T10:42:19Z</time>
      </trkpt>
      <trkpt lat="46.181308971717954" lon="10.58454972691834">
        <ele>2029.48</ele>
        <time>2015-08-01T10:42:29Z</time>
      </trkpt>
      <trkpt lat="46.181317437440157" lon="10.584552073851228">
        <ele>2029.96</ele>
        <time>2015-08-01T10:42:38Z</time>
      </trkpt>
      <trkpt lat="46.181320287287235" lon="10.584519384428859">
        <ele>2029.48</ele>
        <time>2015-08-01T10:42:52Z</time>
      </trkpt>
      <trkpt lat="46.181311486288905" lon="10.584531370550394">
        <ele>2029.96</ele>
        <time>2015-08-01T10:43:02Z</time>
      </trkpt>
      <trkpt lat="46.181259267032146" lon="10.584508152678609">
        <ele>2030.4400000000001</ele>
        <time>2015-08-01T10:43:11Z</time>
      </trkpt>
      <trkpt lat="46.181220207363367" lon="10.584508320316672">
        <ele>2031.4000000000001</ele>
        <time>2015-08-01T10:43:20Z</time>
      </trkpt>
      <trkpt lat="46.181215513497591" lon="10.584512511268258">
        <ele>2032.3599999999999</ele>
        <time>2015-08-01T10:43:32Z</time>
      </trkpt>
      <trkpt lat="46.18119447492063" lon="10.584511337801814">
        <ele>2032.8399999999999</ele>
        <time>2015-08-01T10:43:44Z</time>
      </trkpt>
      <trkpt lat="46.181174861267209" lon="10.584506979212165">
        <ele>2034.29</ele>
        <time>2015-08-01T10:43:54Z</time>
      </trkpt>
      <trkpt lat="46.181134544312954" lon="10.584515193477273">
        <ele>2034.29</ele>
        <time>2015-08-01T10:44:04Z</time>
      </trkpt>
      <trkpt lat="46.181113924831152" lon="10.584522737190127">
        <ele>2035.73</ele>
        <time>2015-08-01T10:44:13Z</time>
      </trkpt>
      <trkpt lat="46.18108450435102" lon="10.58456095866859">
        <ele>2034.77</ele>
        <time>2015-08-01T10:44:21Z</time>
      </trkpt>
      <trkpt lat="46.18106790818274" lon="10.584583422169089">
        <ele>2035.25</ele>
        <time>2015-08-01T10:44:30Z</time>
      </trkpt>
      <trkpt lat="46.181017449125648" lon="10.584580069407821">
        <ele>2036.6900000000001</ele>
        <time>2015-08-01T10:44:40Z</time>
      </trkpt>
      <trkpt lat="46.180980820208788" lon="10.58459959924221">
        <ele>2037.6500000000001</ele>
        <time>2015-08-01T10:44:52Z</time>
      </trkpt>
      <trkpt lat="46.180961458012462" lon="10.584588451310992">
        <ele>2039.0899999999999</ele>
        <time>2015-08-01T10:45:02Z</time>
      </trkpt>
      <trkpt lat="46.180950226262212" lon="10.584609992802143">
        <ele>2039.0899999999999</ele>
        <time>2015-08-01T10:45:13Z</time>
      </trkpt>
      <trkpt lat="46.180904461070895" lon="10.584614770486951">
        <ele>2039.0899999999999</ele>
        <time>2015-08-01T10:45:24Z</time>
      </trkpt>
      <trkpt lat="46.18089297786355" lon="10.584644358605146">
        <ele>2039.0899999999999</ele>
        <time>2015-08-01T10:45:33Z</time>
      </trkpt>
      <trkpt lat="46.180854002013803" lon="10.584689620882273">
        <ele>2040.05</ele>
        <time>2015-08-01T10:45:44Z</time>
      </trkpt>
      <trkpt lat="46.180830029770732" lon="10.584663217887282">
        <ele>2041.02</ele>
        <time>2015-08-01T10:45:53Z</time>
      </trkpt>
      <trkpt lat="46.180814858525991" lon="10.584619380533695">
        <ele>2042.9400000000001</ele>
        <time>2015-08-01T10:46:06Z</time>
      </trkpt>
      <trkpt lat="46.18076154962182" lon="10.584631869569421">
        <ele>2043.9000000000001</ele>
        <time>2015-08-01T10:46:19Z</time>
      </trkpt>
      <trkpt lat="46.180722992867231" lon="10.584605885669589">
        <ele>2045.8199999999999</ele>
        <time>2015-08-01T10:46:33Z</time>
      </trkpt>
      <trkpt lat="46.18070287629962" lon="10.584602449089289">
        <ele>2047.26</ele>
        <time>2015-08-01T10:46:46Z</time>
      </trkpt>
      <trkpt lat="46.180667839944363" lon="10.584602868184447">
        <ele>2048.71</ele>
        <time>2015-08-01T10:46:58Z</time>
      </trkpt>
      <trkpt lat="46.180632887408137" lon="10.584655506536365">
        <ele>2050.1500000000001</ele>
        <time>2015-08-01T10:47:09Z</time>
      </trkpt>
      <trkpt lat="46.180587206035852" lon="10.584687776863575">
        <ele>2050.6300000000001</ele>
        <time>2015-08-01T10:47:20Z</time>
      </trkpt>
      <trkpt lat="46.180556528270245" lon="10.58471149764955">
        <ele>2051.5900000000001</ele>
        <time>2015-08-01T10:47:30Z</time>
      </trkpt>
      <trkpt lat="46.180510343983769" lon="10.584704959765077">
        <ele>2052.0700000000002</ele>
        <time>2015-08-01T10:47:39Z</time>
      </trkpt>
      <trkpt lat="46.180488802492619" lon="10.584703702479601">
        <ele>2052.5500000000002</ele>
        <time>2015-08-01T10:47:49Z</time>
      </trkpt>
      <trkpt lat="46.180460387840867" lon="10.584726836532354">
        <ele>2053.9899999999998</ele>
        <time>2015-08-01T10:48:01Z</time>
      </trkpt>
      <trkpt lat="46.180446138605475" lon="10.584740331396461">
        <ele>2054.4699999999998</ele>
        <time>2015-08-01T10:48:11Z</time>
      </trkpt>
      <trkpt lat="46.180426944047213" lon="10.58475885540247">
        <ele>2054.4699999999998</ele>
        <time>2015-08-01T10:48:19Z</time>
      </trkpt>
      <trkpt lat="46.180415628477931" lon="10.584793305024505">
        <ele>2054.96</ele>
        <time>2015-08-01T10:48:29Z</time>
      </trkpt>
      <trkpt lat="46.180375646799803" lon="10.584817696362734">
        <ele>2055.9200000000001</ele>
        <time>2015-08-01T10:48:38Z</time>
      </trkpt>
      <trkpt lat="46.180334994569421" lon="10.584864383563399">
        <ele>2056.8800000000001</ele>
        <time>2015-08-01T10:48:49Z</time>
      </trkpt>
      <trkpt lat="46.180311106145382" lon="10.58487762697041">
        <ele>2057.3600000000001</ele>
        <time>2015-08-01T10:48:57Z</time>
      </trkpt>
      <trkpt lat="46.180316973477602" lon="10.584892965853214">
        <ele>2057.3600000000001</ele>
        <time>2015-08-01T10:49:15Z</time>
      </trkpt>
      <trkpt lat="46.180306244641542" lon="10.584874358028173">
        <ele>2057.3600000000001</ele>
        <time>2015-08-01T10:49:29Z</time>
      </trkpt>
      <trkpt lat="46.18026215583086" lon="10.584871424362063">
        <ele>2056.8800000000001</ele>
        <time>2015-08-01T10:49:42Z</time>
      </trkpt>
      <trkpt lat="46.180257881060243" lon="10.584894977509975">
        <ele>2057.8400000000001</ele>
        <time>2015-08-01T10:49:51Z</time>
      </trkpt>
      <trkpt lat="46.180234411731362" lon="10.584918027743697">
        <ele>2059.2800000000002</ele>
        <time>2015-08-01T10:49:58Z</time>
      </trkpt>
      <trkpt lat="46.180241284891963" lon="10.584874274209142">
        <ele>2060.2399999999998</ele>
        <time>2015-08-01T10:50:08Z</time>
      </trkpt>
      <trkpt lat="46.180279506370425" lon="10.584884416311979">
        <ele>2059.7600000000002</ele>
        <time>2015-08-01T10:50:24Z</time>
      </trkpt>
      <trkpt lat="46.180273722857237" lon="10.584897743538022">
        <ele>2059.7600000000002</ele>
        <time>2015-08-01T10:50:34Z</time>
      </trkpt>
      <trkpt lat="46.18027975782752" lon="10.584866981953382">
        <ele>2059.2800000000002</ele>
        <time>2015-08-01T10:50:52Z</time>
      </trkpt>
      <trkpt lat="46.180291743949056" lon="10.584860863164067">
        <ele>2059.2800000000002</ele>
        <time>2015-08-01T10:51:08Z</time>
      </trkpt>
      <trkpt lat="46.180322170257568" lon="10.584865724667907">
        <ele>2059.2800000000002</ele>
        <time>2015-08-01T10:51:24Z</time>
      </trkpt>
      <trkpt lat="46.180289229378104" lon="10.58489765971899">
        <ele>2059.2800000000002</ele>
        <time>2015-08-01T10:51:49Z</time>
      </trkpt>
      <trkpt lat="46.180303059518337" lon="10.584946274757385">
        <ele>2059.2800000000002</ele>
        <time>2015-08-01T10:52:07Z</time>
      </trkpt>
      <trkpt lat="46.180311609059572" lon="10.584958931431174">
        <ele>2059.2800000000002</ele>
        <time>2015-08-01T10:52:21Z</time>
      </trkpt>
      <trkpt lat="46.180354356765747" lon="10.584961948916316">
        <ele>2059.2800000000002</ele>
        <time>2015-08-01T10:52:42Z</time>
      </trkpt>
      <trkpt lat="46.180385202169418" lon="10.584956668317318">
        <ele>2059.7600000000002</ele>
        <time>2015-08-01T10:52:59Z</time>
      </trkpt>
      <trkpt lat="46.180360391736031" lon="10.584956165403128">
        <ele>2059.7600000000002</ele>
        <time>2015-08-01T10:53:22Z</time>
      </trkpt>
      <trkpt lat="46.180369947105646" lon="10.584958596155047">
        <ele>2059.7600000000002</ele>
        <time>2015-08-01T10:53:39Z</time>
      </trkpt>
      <trkpt lat="46.180393835529685" lon="10.584969744086266">
        <ele>2059.7600000000002</ele>
        <time>2015-08-01T10:53:56Z</time>
      </trkpt>
      <trkpt lat="46.180386459454894" lon="10.585018107667565">
        <ele>2059.7600000000002</ele>
        <time>2015-08-01T10:54:16Z</time>
      </trkpt>
      <trkpt lat="46.180381178855896" lon="10.584991201758385">
        <ele>2060.2399999999998</ele>
        <time>2015-08-01T10:54:36Z</time>
      </trkpt>
      <trkpt lat="46.18036231957376" lon="10.584995811805129">
        <ele>2060.2399999999998</ele>
        <time>2015-08-01T10:54:51Z</time>
      </trkpt>
      <trkpt lat="46.180362487211823" lon="10.584996733814478">
        <ele>2060.2399999999998</ele>
        <time>2015-08-01T10:55:08Z</time>
      </trkpt>
      <trkpt lat="46.1803671810776" lon="10.584997572004795">
        <ele>2060.2399999999998</ele>
        <time>2015-08-01T10:55:32Z</time>
      </trkpt>
      <trkpt lat="46.180385118350387" lon="10.585011402145028">
        <ele>2060.7199999999998</ele>
        <time>2015-08-01T10:55:52Z</time>
      </trkpt>
      <trkpt lat="46.180376736447215" lon="10.584993716329336">
        <ele>2060.7199999999998</ele>
        <time>2015-08-01T10:56:08Z</time>
      </trkpt>
      <trkpt lat="46.180383861064911" lon="10.585040738806129">
        <ele>2061.1999999999998</ele>
        <time>2015-08-01T10:56:33Z</time>
      </trkpt>
      <trkpt lat="46.180387884378433" lon="10.585058256983757">
        <ele>2061.1999999999998</ele>
        <time>2015-08-01T10:56:52Z</time>
      </trkpt>
      <trkpt lat="46.180384028702974" lon="10.585026405751705">
        <ele>2062.1700000000001</ele>
        <time>2015-08-01T10:57:14Z</time>
      </trkpt>
      <trkpt lat="46.180389979854226" lon="10.585001427680254">
        <ele>2062.6500000000001</ele>
        <time>2015-08-01T10:57:41Z</time>
      </trkpt>
      <trkpt lat="46.180379502475262" lon="10.58497535996139">
        <ele>2063.1300000000001</ele>
        <time>2015-08-01T10:57:57Z</time>
      </trkpt>
      <trkpt lat="46.180359218269587" lon="10.584945436567068">
        <ele>2061.6799999999998</ele>
        <time>2015-08-01T10:58:07Z</time>
      </trkpt>
      <trkpt lat="46.180386710911989" lon="10.584895312786102">
        <ele>2063.1300000000001</ele>
        <time>2015-08-01T10:58:26Z</time>
      </trkpt>
      <trkpt lat="46.180349662899971" lon="10.584898414090276">
        <ele>2063.1300000000001</ele>
        <time>2015-08-01T10:58:48Z</time>
      </trkpt>
      <trkpt lat="46.1803256906569" lon="10.584904449060559">
        <ele>2063.1300000000001</ele>
        <time>2015-08-01T10:59:08Z</time>
      </trkpt>
      <trkpt lat="46.180345136672258" lon="10.584918530657887">
        <ele>2064.5700000000002</ele>
        <time>2015-08-01T10:59:32Z</time>
      </trkpt>
      <trkpt lat="46.180338179692626" lon="10.584890535101295">
        <ele>2064.0900000000001</ele>
        <time>2015-08-01T10:59:56Z</time>
      </trkpt>
      <trkpt lat="46.180334743112326" lon="10.584858600050211">
        <ele>2064.0900000000001</ele>
        <time>2015-08-01T11:00:12Z</time>
      </trkpt>
      <trkpt lat="46.180319152772427" lon="10.58489422313869">
        <ele>2064.0900000000001</ele>
        <time>2015-08-01T11:00:30Z</time>
      </trkpt>
      <trkpt lat="46.180286044254899" lon="10.58487762697041">
        <ele>2064.0900000000001</ele>
        <time>2015-08-01T11:00:46Z</time>
      </trkpt>
      <trkpt lat="46.180306579917669" lon="10.584876369684935">
        <ele>2065.0500000000002</ele>
        <time>2015-08-01T11:00:55Z</time>
      </trkpt>
      <trkpt lat="46.180301047861576" lon="10.584905371069908">
        <ele>2065.5300000000002</ele>
        <time>2015-08-01T11:01:02Z</time>
      </trkpt>
      <trkpt lat="46.180279841646552" lon="10.584907131269574">
        <ele>2065.5300000000002</ele>
        <time>2015-08-01T11:01:13Z</time>
      </trkpt>
      <trkpt lat="46.180247068405151" lon="10.58492842130363">
        <ele>2066.0100000000002</ele>
        <time>2015-08-01T11:01:26Z</time>
      </trkpt>
      <trkpt lat="46.180235249921679" lon="10.584919452667236">
        <ele>2066.4899999999998</ele>
        <time>2015-08-01T11:01:40Z</time>
      </trkpt>
      <trkpt lat="46.180239776149392" lon="10.584907131269574">
        <ele>2066.4899999999998</ele>
        <time>2015-08-01T11:01:56Z</time>
      </trkpt>
      <trkpt lat="46.180221755057573" lon="10.58488005772233">
        <ele>2066.0100000000002</ele>
        <time>2015-08-01T11:02:18Z</time>
      </trkpt>
      <trkpt lat="46.180230220779777" lon="10.584906795993447">
        <ele>2066.4899999999998</ele>
        <time>2015-08-01T11:02:36Z</time>
      </trkpt>
      <trkpt lat="46.180269531905651" lon="10.584944682195783">
        <ele>2066.4899999999998</ele>
        <time>2015-08-01T11:02:52Z</time>
      </trkpt>
      <trkpt lat="46.180276907980442" lon="10.584955746307969">
        <ele>2066.4899999999998</ele>
        <time>2015-08-01T11:03:08Z</time>
      </trkpt>
      <trkpt lat="46.180277829989791" lon="10.584955494850874">
        <ele>2066.4899999999998</ele>
        <time>2015-08-01T11:03:24Z</time>
      </trkpt>
      <trkpt lat="46.18025821633637" lon="10.584936048835516">
        <ele>2066.4899999999998</ele>
        <time>2015-08-01T11:03:37Z</time>
      </trkpt>
      <trkpt lat="46.180225778371096" lon="10.584903107956052">
        <ele>2066.9699999999998</ele>
        <time>2015-08-01T11:03:46Z</time>
      </trkpt>
      <trkpt lat="46.180252935737371" lon="10.584895061329007">
        <ele>2066.9699999999998</ele>
        <time>2015-08-01T11:03:55Z</time>
      </trkpt>
      <trkpt lat="46.180265676230192" lon="10.584914926439524">
        <ele>2066.9699999999998</ele>
        <time>2015-08-01T11:04:08Z</time>
      </trkpt>
      <trkpt lat="46.180266849696636" lon="10.584935797378421">
        <ele>2067.4499999999998</ele>
        <time>2015-08-01T11:04:22Z</time>
      </trkpt>
      <trkpt lat="46.180234411731362" lon="10.584906376898289">
        <ele>2066.9699999999998</ele>
        <time>2015-08-01T11:04:39Z</time>
      </trkpt>
      <trkpt lat="46.180240446701646" lon="10.584893636405468">
        <ele>2067.4499999999998</ele>
        <time>2015-08-01T11:04:54Z</time>
      </trkpt>
      <trkpt lat="46.180297778919339" lon="10.584953399375081">
        <ele>2066.9699999999998</ele>
        <time>2015-08-01T11:05:09Z</time>
      </trkpt>
      <trkpt lat="46.180285038426518" lon="10.584948202595115">
        <ele>2067.4499999999998</ele>
        <time>2015-08-01T11:05:24Z</time>
      </trkpt>
      <trkpt lat="46.180275063961744" lon="10.584935629740357">
        <ele>2067.4499999999998</ele>
        <time>2015-08-01T11:05:34Z</time>
      </trkpt>
      <trkpt lat="46.180265760049224" lon="10.584930097684264">
        <ele>2067.4499999999998</ele>
        <time>2015-08-01T11:05:48Z</time>
      </trkpt>
      <trkpt lat="46.18023038841784" lon="10.584918949753046">
        <ele>2067.4499999999998</ele>
        <time>2015-08-01T11:06:01Z</time>
      </trkpt>
      <trkpt lat="46.180193508043885" lon="10.584917441010475">
        <ele>2067.9299999999998</ele>
        <time>2015-08-01T11:06:10Z</time>
      </trkpt>
      <trkpt lat="46.180137349292636" lon="10.584909562021494">
        <ele>2068.8899999999999</ele>
        <time>2015-08-01T11:06:20Z</time>
      </trkpt>
      <trkpt lat="46.180072473362088" lon="10.584936132654548">
        <ele>2070.3400000000001</ele>
        <time>2015-08-01T11:06:31Z</time>
      </trkpt>
      <trkpt lat="46.180026289075613" lon="10.584908137097955">
        <ele>2071.7800000000002</ele>
        <time>2015-08-01T11:06:40Z</time>
      </trkpt>
      <trkpt lat="46.17996895685792" lon="10.58485172688961">
        <ele>2073.2199999999998</ele>
        <time>2015-08-01T11:06:49Z</time>
      </trkpt>
      <trkpt lat="46.179907768964767" lon="10.584809482097626">
        <ele>2074.6599999999999</ele>
        <time>2015-08-01T11:07:01Z</time>
      </trkpt>
      <trkpt lat="46.179885137826204" lon="10.58474175632">
        <ele>2076.5900000000001</ele>
        <time>2015-08-01T11:07:14Z</time>
      </trkpt>
      <trkpt lat="46.179835516959429" lon="10.584749970585108">
        <ele>2077.5500000000002</ele>
        <time>2015-08-01T11:07:24Z</time>
      </trkpt>
      <trkpt lat="46.179809365421534" lon="10.584734212607145">
        <ele>2078.9899999999998</ele>
        <time>2015-08-01T11:07:34Z</time>
      </trkpt>
      <trkpt lat="46.179790087044239" lon="10.58475156314671">
        <ele>2079.4699999999998</ele>
        <time>2015-08-01T11:07:43Z</time>
      </trkpt>
      <trkpt lat="46.179743316024542" lon="10.584769416600466">
        <ele>2079.9499999999998</ele>
        <time>2015-08-01T11:07:56Z</time>
      </trkpt>
      <trkpt lat="46.179727222770452" lon="10.584726333618164">
        <ele>2081.3899999999999</ele>
        <time>2015-08-01T11:08:06Z</time>
      </trkpt>
      <trkpt lat="46.179693192243576" lon="10.584712084382772">
        <ele>2082.3499999999999</ele>
        <time>2015-08-01T11:08:14Z</time>
      </trkpt>
      <trkpt lat="46.179673913866282" lon="10.58474276214838">
        <ele>2083.79</ele>
        <time>2015-08-01T11:08:25Z</time>
      </trkpt>
      <trkpt lat="46.179610043764114" lon="10.584747288376093">
        <ele>2084.7600000000002</ele>
        <time>2015-08-01T11:08:37Z</time>
      </trkpt>
      <trkpt lat="46.17956293746829" lon="10.584769081324339">
        <ele>2086.1999999999998</ele>
        <time>2015-08-01T11:08:49Z</time>
      </trkpt>
      <trkpt lat="46.179512562230229" lon="10.584765560925007">
        <ele>2087.6399999999999</ele>
        <time>2015-08-01T11:09:02Z</time>
      </trkpt>
      <trkpt lat="46.179482135921717" lon="10.584721639752388">
        <ele>2088.5999999999999</ele>
        <time>2015-08-01T11:09:12Z</time>
      </trkpt>
      <trkpt lat="46.179454810917377" lon="10.58471635915339">
        <ele>2088.5999999999999</ele>
        <time>2015-08-01T11:09:16Z</time>
      </trkpt>
      <trkpt lat="46.179376021027565" lon="10.584734128788114">
        <ele>2089.0799999999999</ele>
        <time>2015-08-01T11:09:27Z</time>
      </trkpt>
      <trkpt lat="46.179314162582159" lon="10.584744354709983">
        <ele>2090.04</ele>
        <time>2015-08-01T11:09:37Z</time>
      </trkpt>
      <trkpt lat="46.17927610874176" lon="10.58473982848227">
        <ele>2091</ele>
        <time>2015-08-01T11:09:47Z</time>
      </trkpt>
      <trkpt lat="46.179233863949776" lon="10.584758017212152">
        <ele>2091.9699999999998</ele>
        <time>2015-08-01T11:09:59Z</time>
      </trkpt>
      <trkpt lat="46.179190529510379" lon="10.584767991676927">
        <ele>2093.4099999999999</ele>
        <time>2015-08-01T11:10:10Z</time>
      </trkpt>
      <trkpt lat="46.179170664399862" lon="10.584760447964072">
        <ele>2094.3699999999999</ele>
        <time>2015-08-01T11:10:18Z</time>
      </trkpt>
      <trkpt lat="46.17915784008801" lon="10.584792215377092">
        <ele>2096.29</ele>
        <time>2015-08-01T11:10:32Z</time>
      </trkpt>
      <trkpt lat="46.179163120687008" lon="10.58479749597609">
        <ele>2095.8099999999999</ele>
        <time>2015-08-01T11:10:44Z</time>
      </trkpt>
      <trkpt lat="46.179142501205206" lon="10.584828006103635">
        <ele>2096.77</ele>
        <time>2015-08-01T11:10:55Z</time>
      </trkpt>
      <trkpt lat="46.179108051583171" lon="10.584862204268575">
        <ele>2098.21</ele>
        <time>2015-08-01T11:11:04Z</time>
      </trkpt>
      <trkpt lat="46.179080307483673" lon="10.584872597828507">
        <ele>2099.6599999999999</ele>
        <time>2015-08-01T11:11:12Z</time>
      </trkpt>
      <trkpt lat="46.179021215066314" lon="10.584852481260896">
        <ele>2100.6199999999999</ele>
        <time>2015-08-01T11:11:21Z</time>
      </trkpt>
      <trkpt lat="46.178945945575833" lon="10.584832616150379">
        <ele>2102.0599999999999</ele>
        <time>2015-08-01T11:11:32Z</time>
      </trkpt>
      <trkpt lat="46.178899006918073" lon="10.584809314459562">
        <ele>2103.98</ele>
        <time>2015-08-01T11:11:45Z</time>
      </trkpt>
      <trkpt lat="46.178857432678342" lon="10.584774613380432">
        <ele>2105.4200000000001</ele>
        <time>2015-08-01T11:11:54Z</time>
      </trkpt>
      <trkpt lat="46.178822983056307" lon="10.58475399389863">
        <ele>2106.8699999999999</ele>
        <time>2015-08-01T11:12:02Z</time>
      </trkpt>
      <trkpt lat="46.178794400766492" lon="10.584787772968411">
        <ele>2107.8299999999999</ele>
        <time>2015-08-01T11:12:15Z</time>
      </trkpt>
      <trkpt lat="46.17876741103828" lon="10.584831358864903">
        <ele>2108.3099999999999</ele>
        <time>2015-08-01T11:12:25Z</time>
      </trkpt>
      <trkpt lat="46.178744696080685" lon="10.58485759422183">
        <ele>2108.3099999999999</ele>
        <time>2015-08-01T11:12:36Z</time>
      </trkpt>
      <trkpt lat="46.178724663332105" lon="10.584813421592116">
        <ele>2109.27</ele>
        <time>2015-08-01T11:12:45Z</time>
      </trkpt>
      <trkpt lat="46.178723825141788" lon="10.584791041910648">
        <ele>2109.75</ele>
        <time>2015-08-01T11:12:53Z</time>
      </trkpt>
      <trkpt lat="46.178691890090704" lon="10.584790455177426">
        <ele>2111.6700000000001</ele>
        <time>2015-08-01T11:13:03Z</time>
      </trkpt>
      <trkpt lat="46.178641766309738" lon="10.584810068830848">
        <ele>2113.1199999999999</ele>
        <time>2015-08-01T11:13:13Z</time>
      </trkpt>
      <trkpt lat="46.178607903420925" lon="10.58481895364821">
        <ele>2114.5599999999999</ele>
        <time>2015-08-01T11:13:23Z</time>
      </trkpt>
      <trkpt lat="46.178550571203232" lon="10.584824569523335">
        <ele>2116</ele>
        <time>2015-08-01T11:13:36Z</time>
      </trkpt>
      <trkpt lat="46.17851922288537" lon="10.584812248125672">
        <ele>2117.4400000000001</ele>
        <time>2015-08-01T11:13:45Z</time>
      </trkpt>
      <trkpt lat="46.178492736071348" lon="10.584771931171417">
        <ele>2118.8800000000001</ele>
        <time>2015-08-01T11:13:54Z</time>
      </trkpt>
      <trkpt lat="46.178492903709412" lon="10.584719460457563">
        <ele>2119.8400000000001</ele>
        <time>2015-08-01T11:14:04Z</time>
      </trkpt>
      <trkpt lat="46.178478486835957" lon="10.584711246192455">
        <ele>2120.8099999999999</ele>
        <time>2015-08-01T11:14:15Z</time>
      </trkpt>
      <trkpt lat="46.178456777706742" lon="10.584695236757398">
        <ele>2121.77</ele>
        <time>2015-08-01T11:14:27Z</time>
      </trkpt>
      <trkpt lat="46.178418807685375" lon="10.58469146490097">
        <ele>2123.6900000000001</ele>
        <time>2015-08-01T11:14:38Z</time>
      </trkpt>
      <trkpt lat="46.178398858755827" lon="10.58467143215239">
        <ele>2125.1300000000001</ele>
        <time>2015-08-01T11:14:49Z</time>
      </trkpt>
      <trkpt lat="46.178375389426947" lon="10.584689117968082">
        <ele>2125.6100000000001</ele>
        <time>2015-08-01T11:14:56Z</time>
      </trkpt>
      <trkpt lat="46.178345382213593" lon="10.584676880389452">
        <ele>2126.5700000000002</ele>
        <time>2015-08-01T11:15:03Z</time>
      </trkpt>
      <trkpt lat="46.178314201533794" lon="10.584656177088618">
        <ele>2128.02</ele>
        <time>2015-08-01T11:15:12Z</time>
      </trkpt>
      <trkpt lat="46.178302047774196" lon="10.584648633375764">
        <ele>2128.5</ele>
        <time>2015-08-01T11:15:21Z</time>
      </trkpt>
      <trkpt lat="46.178283104673028" lon="10.584619967266917">
        <ele>2129.9400000000001</ele>
        <time>2015-08-01T11:15:32Z</time>
      </trkpt>
      <trkpt lat="46.178283020853996" lon="10.584585266187787">
        <ele>2131.8600000000001</ele>
        <time>2015-08-01T11:15:42Z</time>
      </trkpt>
      <trkpt lat="46.178268268704414" lon="10.584590630605817">
        <ele>2131.8600000000001</ele>
        <time>2015-08-01T11:15:52Z</time>
      </trkpt>
      <trkpt lat="46.178242620080709" lon="10.584564730525017">
        <ele>2133.7800000000002</ele>
        <time>2015-08-01T11:16:04Z</time>
      </trkpt>
      <trkpt lat="46.178224598988891" lon="10.584539752453566">
        <ele>2134.7399999999998</ele>
        <time>2015-08-01T11:16:15Z</time>
      </trkpt>
      <trkpt lat="46.178173637017608" lon="10.584561042487621">
        <ele>2135.71</ele>
        <time>2015-08-01T11:16:25Z</time>
      </trkpt>
      <trkpt lat="46.178140612319112" lon="10.584555510431528">
        <ele>2137.1500000000001</ele>
        <time>2015-08-01T11:16:36Z</time>
      </trkpt>
      <trkpt lat="46.178090572357178" lon="10.584545619785786">
        <ele>2138.5900000000001</ele>
        <time>2015-08-01T11:16:47Z</time>
      </trkpt>
      <trkpt lat="46.178053272888064" lon="10.584543691948056">
        <ele>2139.0700000000002</ele>
        <time>2015-08-01T11:16:58Z</time>
      </trkpt>
      <trkpt lat="46.178045393899083" lon="10.584531286731362">
        <ele>2140.5100000000002</ele>
        <time>2015-08-01T11:17:10Z</time>
      </trkpt>
      <trkpt lat="46.178029216825962" lon="10.584536232054234">
        <ele>2140.9899999999998</ele>
        <time>2015-08-01T11:17:19Z</time>
      </trkpt>
      <trkpt lat="46.178003484383225" lon="10.584529526531696">
        <ele>2141.9499999999998</ele>
        <time>2015-08-01T11:17:27Z</time>
      </trkpt>
      <trkpt lat="46.177975824102759" lon="10.584514942020178">
        <ele>2142.9200000000001</ele>
        <time>2015-08-01T11:17:42Z</time>
      </trkpt>
      <trkpt lat="46.177956210449338" lon="10.584490215405822">
        <ele>2144.3600000000001</ele>
        <time>2015-08-01T11:17:51Z</time>
      </trkpt>
      <trkpt lat="46.177935507148504" lon="10.58446766808629">
        <ele>2145.8000000000002</ele>
        <time>2015-08-01T11:18:02Z</time>
      </trkpt>
      <trkpt lat="46.177941374480724" lon="10.584509493783116">
        <ele>2146.2800000000002</ele>
        <time>2015-08-01T11:18:11Z</time>
      </trkpt>
      <trkpt lat="46.177950091660023" lon="10.584518378600478">
        <ele>2146.2800000000002</ele>
        <time>2015-08-01T11:18:13Z</time>
      </trkpt>
      <trkpt lat="46.177934668958187" lon="10.584557689726353">
        <ele>2145.8000000000002</ele>
        <time>2015-08-01T11:18:22Z</time>
      </trkpt>
      <trkpt lat="46.177903488278389" lon="10.584575543180108">
        <ele>2146.7600000000002</ele>
        <time>2015-08-01T11:18:30Z</time>
      </trkpt>
      <trkpt lat="46.177852358669043" lon="10.584620302543044">
        <ele>2147.2399999999998</ele>
        <time>2015-08-01T11:18:40Z</time>
      </trkpt>
      <trkpt lat="46.177816316485405" lon="10.58462449349463">
        <ele>2147.2399999999998</ele>
        <time>2015-08-01T11:18:47Z</time>
      </trkpt>
      <trkpt lat="46.177770970389247" lon="10.584585266187787">
        <ele>2147.7199999999998</ele>
        <time>2015-08-01T11:18:58Z</time>
      </trkpt>
      <trkpt lat="46.177738029509783" lon="10.584571268409491">
        <ele>2148.6799999999998</ele>
        <time>2015-08-01T11:19:08Z</time>
      </trkpt>
      <trkpt lat="46.177701400592923" lon="10.584533214569092">
        <ele>2151.0900000000001</ele>
        <time>2015-08-01T11:19:18Z</time>
      </trkpt>
      <trkpt lat="46.17767097428441" lon="10.584513181820512">
        <ele>2151.5700000000002</ele>
        <time>2015-08-01T11:19:29Z</time>
      </trkpt>
      <trkpt lat="46.177664939314127" lon="10.584459118545055">
        <ele>2153.0100000000002</ele>
        <time>2015-08-01T11:19:40Z</time>
      </trkpt>
      <trkpt lat="46.17765580303967" lon="10.58443539775908">
        <ele>2154.9299999999998</ele>
        <time>2015-08-01T11:19:51Z</time>
      </trkpt>
      <trkpt lat="46.177637279033661" lon="10.584461381658912">
        <ele>2154.9299999999998</ele>
        <time>2015-08-01T11:20:02Z</time>
      </trkpt>
      <trkpt lat="46.177620179951191" lon="10.584451155737042">
        <ele>2155.8899999999999</ele>
        <time>2015-08-01T11:20:12Z</time>
      </trkpt>
      <trkpt lat="46.177603248506784" lon="10.584429446607828">
        <ele>2156.8600000000001</ele>
        <time>2015-08-01T11:20:21Z</time>
      </trkpt>
      <trkpt lat="46.177622275426984" lon="10.584441432729363">
        <ele>2157.3400000000001</ele>
        <time>2015-08-01T11:20:34Z</time>
      </trkpt>
      <trkpt lat="46.177584137767553" lon="10.58443489484489">
        <ele>2157.8200000000002</ele>
        <time>2015-08-01T11:20:46Z</time>
      </trkpt>
      <trkpt lat="46.177537282928824" lon="10.584387872368097">
        <ele>2159.2600000000002</ele>
        <time>2015-08-01T11:20:56Z</time>
      </trkpt>
      <trkpt lat="46.177537953481078" lon="10.584378149360418">
        <ele>2160.2199999999998</ele>
        <time>2015-08-01T11:21:06Z</time>
      </trkpt>
      <trkpt lat="46.177525380626321" lon="10.58437773026526">
        <ele>2161.1799999999998</ele>
        <time>2015-08-01T11:21:19Z</time>
      </trkpt>
      <trkpt lat="46.177488584071398" lon="10.584377814084291">
        <ele>2162.6199999999999</ele>
        <time>2015-08-01T11:21:29Z</time>
      </trkpt>
      <trkpt lat="46.177450446411967" lon="10.584372030571103">
        <ele>2164.0599999999999</ele>
        <time>2015-08-01T11:21:38Z</time>
      </trkpt>
      <trkpt lat="46.177420355379581" lon="10.584350069984794">
        <ele>2164.0599999999999</ele>
        <time>2015-08-01T11:21:49Z</time>
      </trkpt>
      <trkpt lat="46.177470311522484" lon="10.584308579564095">
        <ele>2165.9899999999998</ele>
        <time>2015-08-01T11:22:00Z</time>
      </trkpt>
      <trkpt lat="46.177470898255706" lon="10.584266250953078">
        <ele>2166.9499999999998</ele>
        <time>2015-08-01T11:22:08Z</time>
      </trkpt>
      <trkpt lat="46.177437622100115" lon="10.584218893200159">
        <ele>2169.8299999999999</ele>
        <time>2015-08-01T11:22:17Z</time>
      </trkpt>
      <trkpt lat="46.177404932677746" lon="10.5842150375247">
        <ele>2170.79</ele>
        <time>2015-08-01T11:22:28Z</time>
      </trkpt>
      <trkpt lat="46.177389426156878" lon="10.584214283153415">
        <ele>2170.79</ele>
        <time>2015-08-01T11:22:32Z</time>
      </trkpt>
      <trkpt lat="46.177373500540853" lon="10.584202464669943">
        <ele>2171.27</ele>
        <time>2015-08-01T11:22:34Z</time>
      </trkpt>
      <trkpt lat="46.177329914644361" lon="10.584178660064936">
        <ele>2172.7199999999998</ele>
        <time>2015-08-01T11:22:42Z</time>
      </trkpt>
      <trkpt lat="46.177303260192275" lon="10.584167176857591">
        <ele>2174.1599999999999</ele>
        <time>2015-08-01T11:22:51Z</time>
      </trkpt>
      <trkpt lat="46.17730351164937" lon="10.584150832146406">
        <ele>2175.5999999999999</ele>
        <time>2015-08-01T11:23:00Z</time>
      </trkpt>
      <trkpt lat="46.177296219393611" lon="10.584151586517692">
        <ele>2177.04</ele>
        <time>2015-08-01T11:23:10Z</time>
      </trkpt>
      <trkpt lat="46.177240982651711" lon="10.584155861288309">
        <ele>2178.48</ele>
        <time>2015-08-01T11:23:19Z</time>
      </trkpt>
      <trkpt lat="46.177190942689776" lon="10.584132643416524">
        <ele>2180.4099999999999</ele>
        <time>2015-08-01T11:23:30Z</time>
      </trkpt>
      <trkpt lat="46.177153810858727" lon="10.584107162430882">
        <ele>2181.3699999999999</ele>
        <time>2015-08-01T11:23:40Z</time>
      </trkpt>
      <trkpt lat="46.177138639613986" lon="10.584068018943071">
        <ele>2183.29</ele>
        <time>2015-08-01T11:23:48Z</time>
      </trkpt>
      <trkpt lat="46.177118103951216" lon="10.584052344784141">
        <ele>2184.25</ele>
        <time>2015-08-01T11:23:57Z</time>
      </trkpt>
      <trkpt lat="46.177111063152552" lon="10.584028791636229">
        <ele>2185.21</ele>
        <time>2015-08-01T11:24:05Z</time>
      </trkpt>
      <trkpt lat="46.177088683471084" lon="10.584030719473958">
        <ele>2186.1799999999998</ele>
        <time>2015-08-01T11:24:15Z</time>
      </trkpt>
      <trkpt lat="46.17706261575222" lon="10.583997527137399">
        <ele>2188.0999999999999</ele>
        <time>2015-08-01T11:24:25Z</time>
      </trkpt>
      <trkpt lat="46.177080553025007" lon="10.583951929584146">
        <ele>2190.02</ele>
        <time>2015-08-01T11:24:36Z</time>
      </trkpt>
      <trkpt lat="46.177043588832021" lon="10.583920581266284">
        <ele>2191.9400000000001</ele>
        <time>2015-08-01T11:24:46Z</time>
      </trkpt>
      <trkpt lat="46.17704744450748" lon="10.583887388929725">
        <ele>2193.3899999999999</ele>
        <time>2015-08-01T11:24:56Z</time>
      </trkpt>
      <trkpt lat="46.177114835008979" lon="10.583838103339076">
        <ele>2195.3099999999999</ele>
        <time>2015-08-01T11:25:08Z</time>
      </trkpt>
      <trkpt lat="46.177086839452386" lon="10.583812287077308">
        <ele>2196.27</ele>
        <time>2015-08-01T11:25:17Z</time>
      </trkpt>
      <trkpt lat="46.177077535539865" lon="10.583794685080647">
        <ele>2198.1900000000001</ele>
        <time>2015-08-01T11:25:28Z</time>
      </trkpt>
      <trkpt lat="46.17707334458828" lon="10.583768701180816">
        <ele>2199.6300000000001</ele>
        <time>2015-08-01T11:25:38Z</time>
      </trkpt>
      <trkpt lat="46.177049791440368" lon="10.583751099184155">
        <ele>2200.5900000000001</ele>
        <time>2015-08-01T11:25:49Z</time>
      </trkpt>
      <trkpt lat="46.177048953250051" lon="10.583720756694674">
        <ele>2201.5599999999999</ele>
        <time>2015-08-01T11:25:57Z</time>
      </trkpt>
      <trkpt lat="46.177022969350219" lon="10.583677841350436">
        <ele>2203</ele>
        <time>2015-08-01T11:26:08Z</time>
      </trkpt>
      <trkpt lat="46.177030513063073" lon="10.583655880764127">
        <ele>2204.4400000000001</ele>
        <time>2015-08-01T11:26:18Z</time>
      </trkpt>
      <trkpt lat="46.177027663215995" lon="10.583682535216212">
        <ele>2205.4000000000001</ele>
        <time>2015-08-01T11:26:28Z</time>
      </trkpt>
      <trkpt lat="46.177002601325512" lon="10.583667028695345">
        <ele>2205.8800000000001</ele>
        <time>2015-08-01T11:26:44Z</time>
      </trkpt>
      <trkpt lat="46.177015257999301" lon="10.583615899085999">
        <ele>2207.3200000000002</ele>
        <time>2015-08-01T11:26:53Z</time>
      </trkpt>
      <trkpt lat="46.176983406767249" lon="10.583581030368805">
        <ele>2208.29</ele>
        <time>2015-08-01T11:27:03Z</time>
      </trkpt>
      <trkpt lat="46.176955997943878" lon="10.583542725071311">
        <ele>2210.21</ele>
        <time>2015-08-01T11:27:12Z</time>
      </trkpt>
      <trkpt lat="46.176957674324512" lon="10.583506682887673">
        <ele>2212.1300000000001</ele>
        <time>2015-08-01T11:27:21Z</time>
      </trkpt>
      <trkpt lat="46.176968570798635" lon="10.583456307649612">
        <ele>2213.5700000000002</ele>
        <time>2015-08-01T11:27:32Z</time>
      </trkpt>
      <trkpt lat="46.176975443959236" lon="10.583424288779497">
        <ele>2215.0100000000002</ele>
        <time>2015-08-01T11:27:42Z</time>
      </trkpt>
      <trkpt lat="46.177005702629685" lon="10.583386737853289">
        <ele>2216.9400000000001</ele>
        <time>2015-08-01T11:27:54Z</time>
      </trkpt>
      <trkpt lat="46.177006205543876" lon="10.58333208784461">
        <ele>2218.3800000000001</ele>
        <time>2015-08-01T11:28:03Z</time>
      </trkpt>
      <trkpt lat="46.17702498100698" lon="10.583293866366148">
        <ele>2219.8200000000002</ele>
        <time>2015-08-01T11:28:11Z</time>
      </trkpt>
      <trkpt lat="46.177041660994291" lon="10.583251621574163">
        <ele>2220.7800000000002</ele>
        <time>2015-08-01T11:28:22Z</time>
      </trkpt>
      <trkpt lat="46.177008971571922" lon="10.583237120881677">
        <ele>2222.2199999999998</ele>
        <time>2015-08-01T11:28:35Z</time>
      </trkpt>
      <trkpt lat="46.177025651559234" lon="10.583186075091362">
        <ele>2223.6700000000001</ele>
        <time>2015-08-01T11:28:46Z</time>
      </trkpt>
      <trkpt lat="46.177062364295125" lon="10.58311122469604">
        <ele>2226.0700000000002</ele>
        <time>2015-08-01T11:29:00Z</time>
      </trkpt>
      <trkpt lat="46.17708851583302" lon="10.583092365413904">
        <ele>2226.5500000000002</ele>
        <time>2015-08-01T11:29:09Z</time>
      </trkpt>
      <trkpt lat="46.177112655714154" lon="10.583127653226256">
        <ele>2227.5100000000002</ele>
        <time>2015-08-01T11:29:18Z</time>
      </trkpt>
      <trkpt lat="46.177122881636024" lon="10.583097143098712">
        <ele>2228.4699999999998</ele>
        <time>2015-08-01T11:29:36Z</time>
      </trkpt>
      <trkpt lat="46.177127743139863" lon="10.58304869569838">
        <ele>2229.9200000000001</ele>
        <time>2015-08-01T11:29:45Z</time>
      </trkpt>
      <trkpt lat="46.177115086466074" lon="10.583023801445961">
        <ele>2230.8800000000001</ele>
        <time>2015-08-01T11:29:55Z</time>
      </trkpt>
      <trkpt lat="46.177147272974253" lon="10.582997733727098">
        <ele>2232.8000000000002</ele>
        <time>2015-08-01T11:30:04Z</time>
      </trkpt>
      <trkpt lat="46.177119025960565" lon="10.582962445914745">
        <ele>2233.7600000000002</ele>
        <time>2015-08-01T11:30:12Z</time>
      </trkpt>
      <trkpt lat="46.177120199427009" lon="10.582932271063328">
        <ele>2234.7199999999998</ele>
        <time>2015-08-01T11:30:20Z</time>
      </trkpt>
      <trkpt lat="46.177147272974253" lon="10.582936210557818">
        <ele>2236.1599999999999</ele>
        <time>2015-08-01T11:30:28Z</time>
      </trkpt>
      <trkpt lat="46.177152134478092" lon="10.582897234708071">
        <ele>2237.6100000000001</ele>
        <time>2015-08-01T11:30:42Z</time>
      </trkpt>
      <trkpt lat="46.177140986546874" lon="10.582902347669005">
        <ele>2238.5700000000002</ele>
        <time>2015-08-01T11:30:58Z</time>
      </trkpt>
      <trkpt lat="46.177144758403301" lon="10.582887092605233">
        <ele>2238.5700000000002</ele>
        <time>2015-08-01T11:31:13Z</time>
      </trkpt>
      <trkpt lat="46.177145345136523" lon="10.582898324355483">
        <ele>2238.5700000000002</ele>
        <time>2015-08-01T11:31:33Z</time>
      </trkpt>
      <trkpt lat="46.177140232175589" lon="10.582873430103064">
        <ele>2238.5700000000002</ele>
        <time>2015-08-01T11:31:53Z</time>
      </trkpt>
      <trkpt lat="46.177143668755889" lon="10.582865970209241">
        <ele>2238.5700000000002</ele>
        <time>2015-08-01T11:32:17Z</time>
      </trkpt>
      <trkpt lat="46.177135789766908" lon="10.582843087613583">
        <ele>2239.5300000000002</ele>
        <time>2015-08-01T11:32:28Z</time>
      </trkpt>
      <trkpt lat="46.177123468369246" lon="10.58288499712944">
        <ele>2240.4899999999998</ele>
        <time>2015-08-01T11:32:41Z</time>
      </trkpt>
      <trkpt lat="46.17710268124938" lon="10.582870580255985">
        <ele>2241.9299999999998</ele>
        <time>2015-08-01T11:32:51Z</time>
      </trkpt>
      <trkpt lat="46.177102262154222" lon="10.582847949117422">
        <ele>2243.8499999999999</ele>
        <time>2015-08-01T11:33:03Z</time>
      </trkpt>
      <trkpt lat="46.177103687077761" lon="10.582834454253316">
        <ele>2245.3000000000002</ele>
        <time>2015-08-01T11:33:16Z</time>
      </trkpt>
      <trkpt lat="46.177107375115156" lon="10.582802351564169">
        <ele>2246.7399999999998</ele>
        <time>2015-08-01T11:33:27Z</time>
      </trkpt>
      <trkpt lat="46.177094131708145" lon="10.58278382755816">
        <ele>2248.1799999999998</ele>
        <time>2015-08-01T11:33:37Z</time>
      </trkpt>
      <trkpt lat="46.177088851109147" lon="10.582752898335457">
        <ele>2249.6199999999999</ele>
        <time>2015-08-01T11:33:47Z</time>
      </trkpt>
      <trkpt lat="46.177084073424339" lon="10.582735715433955">
        <ele>2250.5799999999999</ele>
        <time>2015-08-01T11:33:58Z</time>
      </trkpt>
      <trkpt lat="46.177063705399632" lon="10.582705205306411">
        <ele>2252.0300000000002</ele>
        <time>2015-08-01T11:34:08Z</time>
      </trkpt>
      <trkpt lat="46.17703721858561" lon="10.582714593037963">
        <ele>2252.9899999999998</ele>
        <time>2015-08-01T11:34:21Z</time>
      </trkpt>
      <trkpt lat="46.177024561911821" lon="10.582723561674356">
        <ele>2252.0300000000002</ele>
        <time>2015-08-01T11:34:33Z</time>
      </trkpt>
      <trkpt lat="46.177022214978933" lon="10.582750216126442">
        <ele>2252.9899999999998</ele>
        <time>2015-08-01T11:34:46Z</time>
      </trkpt>
      <trkpt lat="46.177027579396963" lon="10.58275549672544">
        <ele>2252.9899999999998</ele>
        <time>2015-08-01T11:35:00Z</time>
      </trkpt>
      <trkpt lat="46.1770274117589" lon="10.58275843039155">
        <ele>2252.5100000000002</ele>
        <time>2015-08-01T11:35:01Z</time>
      </trkpt>
      <trkpt lat="46.176987765356898" lon="10.582772344350815">
        <ele>2253.9499999999998</ele>
        <time>2015-08-01T11:35:08Z</time>
      </trkpt>
      <trkpt lat="46.176932444795966" lon="10.582858258858323">
        <ele>2255.3899999999999</ele>
        <time>2015-08-01T11:35:17Z</time>
      </trkpt>
      <trkpt lat="46.176886092871428" lon="10.582850044593215">
        <ele>2256.8299999999999</ele>
        <time>2015-08-01T11:35:27Z</time>
      </trkpt>
      <trkpt lat="46.176875196397305" lon="10.582799836993217">
        <ele>2257.3099999999999</ele>
        <time>2015-08-01T11:35:38Z</time>
      </trkpt>
      <trkpt lat="46.176846027374268" lon="10.582803608849645">
        <ele>2258.75</ele>
        <time>2015-08-01T11:35:45Z</time>
      </trkpt>
      <trkpt lat="46.176838735118508" lon="10.58278726413846">
        <ele>2259.7199999999998</ele>
        <time>2015-08-01T11:35:54Z</time>
      </trkpt>
      <trkpt lat="46.176830856129527" lon="10.582787431776524">
        <ele>2260.1999999999998</ele>
        <time>2015-08-01T11:36:06Z</time>
      </trkpt>
      <trkpt lat="46.176861450076103" lon="10.582752395421267">
        <ele>2261.1599999999999</ele>
        <time>2015-08-01T11:36:15Z</time>
      </trkpt>
      <trkpt lat="46.176888020709157" lon="10.582725154235959">
        <ele>2262.1199999999999</ele>
        <time>2015-08-01T11:36:24Z</time>
      </trkpt>
      <trkpt lat="46.17688131518662" lon="10.582695985212922">
        <ele>2263.0799999999999</ele>
        <time>2015-08-01T11:36:36Z</time>
      </trkpt>
      <trkpt lat="46.176863629370928" lon="10.582699840888381">
        <ele>2264.04</ele>
        <time>2015-08-01T11:36:48Z</time>
      </trkpt>
      <trkpt lat="46.176850972697139" lon="10.582685340195894">
        <ele>2265</ele>
        <time>2015-08-01T11:37:01Z</time>
      </trkpt>
      <trkpt lat="46.176844602450728" lon="10.582641251385212">
        <ele>2265.48</ele>
        <time>2015-08-01T11:37:15Z</time>
      </trkpt>
      <trkpt lat="46.176863461732864" lon="10.58263429440558">
        <ele>2266.4499999999998</ele>
        <time>2015-08-01T11:37:24Z</time>
      </trkpt>
      <trkpt lat="46.176867065951228" lon="10.582617362961173">
        <ele>2267.4099999999999</ele>
        <time>2015-08-01T11:37:36Z</time>
      </trkpt>
      <trkpt lat="46.176851391792297" lon="10.582590289413929">
        <ele>2268.8499999999999</ele>
        <time>2015-08-01T11:37:47Z</time>
      </trkpt>
      <trkpt lat="46.176884165033698" lon="10.582582578063011">
        <ele>2270.29</ele>
        <time>2015-08-01T11:37:59Z</time>
      </trkpt>
      <trkpt lat="46.17688667960465" lon="10.582544859498739">
        <ele>2270.77</ele>
        <time>2015-08-01T11:38:12Z</time>
      </trkpt>
      <trkpt lat="46.176879638805985" lon="10.582525581121445">
        <ele>2271.73</ele>
        <time>2015-08-01T11:38:21Z</time>
      </trkpt>
      <trkpt lat="46.176871675997972" lon="10.582510158419609">
        <ele>2273.1700000000001</ele>
        <time>2015-08-01T11:38:32Z</time>
      </trkpt>
      <trkpt lat="46.176871508359909" lon="10.582505883648992">
        <ele>2274.6199999999999</ele>
        <time>2015-08-01T11:38:42Z</time>
      </trkpt>
      <trkpt lat="46.176852229982615" lon="10.582492388784885">
        <ele>2275.0999999999999</ele>
        <time>2015-08-01T11:38:54Z</time>
      </trkpt>
      <trkpt lat="46.176853571087122" lon="10.582473278045654">
        <ele>2276.0599999999999</ele>
        <time>2015-08-01T11:39:06Z</time>
      </trkpt>
      <trkpt lat="46.176858684048057" lon="10.582443438470364">
        <ele>2277.02</ele>
        <time>2015-08-01T11:39:15Z</time>
      </trkpt>
      <trkpt lat="46.176867820322514" lon="10.58240856975317">
        <ele>2277.5</ele>
        <time>2015-08-01T11:39:25Z</time>
      </trkpt>
      <trkpt lat="46.176861952990294" lon="10.582390381023288">
        <ele>2279.4200000000001</ele>
        <time>2015-08-01T11:39:34Z</time>
      </trkpt>
      <trkpt lat="46.17684175260365" lon="10.582381077110767">
        <ele>2280.3800000000001</ele>
        <time>2015-08-01T11:39:44Z</time>
      </trkpt>
      <trkpt lat="46.176833622157574" lon="10.582384346053004">
        <ele>2281.3499999999999</ele>
        <time>2015-08-01T11:39:59Z</time>
      </trkpt>
      <trkpt lat="46.176822055131197" lon="10.582376047968864">
        <ele>2282.79</ele>
        <time>2015-08-01T11:40:08Z</time>
      </trkpt>
      <trkpt lat="46.176817277446389" lon="10.582358194515109">
        <ele>2284.23</ele>
        <time>2015-08-01T11:40:21Z</time>
      </trkpt>
      <trkpt lat="46.176802357658744" lon="10.582338832318783">
        <ele>2285.6700000000001</ele>
        <time>2015-08-01T11:40:31Z</time>
      </trkpt>
      <trkpt lat="46.176783666014671" lon="10.582337826490402">
        <ele>2287.1100000000001</ele>
        <time>2015-08-01T11:40:44Z</time>
      </trkpt>
      <trkpt lat="46.176778050139546" lon="10.582307316362858">
        <ele>2289.04</ele>
        <time>2015-08-01T11:40:54Z</time>
      </trkpt>
      <trkpt lat="46.176774948835373" lon="10.582250403240323">
        <ele>2290</ele>
        <time>2015-08-01T11:41:04Z</time>
      </trkpt>
      <trkpt lat="46.176758268848062" lon="10.582285523414612">
        <ele>2290.96</ele>
        <time>2015-08-01T11:41:14Z</time>
      </trkpt>
      <trkpt lat="46.17676405236125" lon="10.582269346341491">
        <ele>2291.9200000000001</ele>
        <time>2015-08-01T11:41:24Z</time>
      </trkpt>
      <trkpt lat="46.176739828661084" lon="10.582246212288737">
        <ele>2291.4400000000001</ele>
        <time>2015-08-01T11:41:35Z</time>
      </trkpt>
      <trkpt lat="46.176742259413004" lon="10.582244200631976">
        <ele>2291.9200000000001</ele>
        <time>2015-08-01T11:41:44Z</time>
      </trkpt>
      <trkpt lat="46.176740666851401" lon="10.58221846818924">
        <ele>2292.4000000000001</ele>
        <time>2015-08-01T11:42:01Z</time>
      </trkpt>
      <trkpt lat="46.176728010177612" lon="10.582180917263031">
        <ele>2294.3200000000002</ele>
        <time>2015-08-01T11:42:08Z</time>
      </trkpt>
      <trkpt lat="46.176723819226027" lon="10.582122327759862">
        <ele>2295.77</ele>
        <time>2015-08-01T11:42:16Z</time>
      </trkpt>
      <trkpt lat="46.176726752892137" lon="10.582077316939831">
        <ele>2297.21</ele>
        <time>2015-08-01T11:42:26Z</time>
      </trkpt>
      <trkpt lat="46.176726585254073" lon="10.582036077976227">
        <ele>2298.6500000000001</ele>
        <time>2015-08-01T11:42:35Z</time>
      </trkpt>
      <trkpt lat="46.176731027662754" lon="10.582001963630319">
        <ele>2299.1300000000001</ele>
        <time>2015-08-01T11:42:44Z</time>
      </trkpt>
      <trkpt lat="46.176710827276111" lon="10.581978913396597">
        <ele>2300.0900000000001</ele>
        <time>2015-08-01T11:42:54Z</time>
      </trkpt>
      <trkpt lat="46.176706301048398" lon="10.581953432410955">
        <ele>2301.0500000000002</ele>
        <time>2015-08-01T11:43:03Z</time>
      </trkpt>
      <trkpt lat="46.17669615894556" lon="10.581938764080405">
        <ele>2302.0100000000002</ele>
        <time>2015-08-01T11:43:12Z</time>
      </trkpt>
      <trkpt lat="46.176696494221687" lon="10.58195318095386">
        <ele>2302.4899999999998</ele>
        <time>2015-08-01T11:43:21Z</time>
      </trkpt>
      <trkpt lat="46.176681909710169" lon="10.581931052729487">
        <ele>2303.46</ele>
        <time>2015-08-01T11:43:32Z</time>
      </trkpt>
      <trkpt lat="46.176686016842723" lon="10.581937339156866">
        <ele>2303.9400000000001</ele>
        <time>2015-08-01T11:43:46Z</time>
      </trkpt>
      <trkpt lat="46.17664678953588" lon="10.581927532330155">
        <ele>2304.4200000000001</ele>
        <time>2015-08-01T11:43:57Z</time>
      </trkpt>
      <trkpt lat="46.17663262411952" lon="10.581907415762544">
        <ele>2305.8600000000001</ele>
        <time>2015-08-01T11:44:06Z</time>
      </trkpt>
      <trkpt lat="46.176614267751575" lon="10.581888807937503">
        <ele>2307.7800000000002</ele>
        <time>2015-08-01T11:44:16Z</time>
      </trkpt>
      <trkpt lat="46.176593229174614" lon="10.58185737580061">
        <ele>2308.2600000000002</ele>
        <time>2015-08-01T11:44:27Z</time>
      </trkpt>
      <trkpt lat="46.176596330478787" lon="10.581842120736837">
        <ele>2309.2199999999998</ele>
        <time>2015-08-01T11:44:38Z</time>
      </trkpt>
      <trkpt lat="46.176594570279121" lon="10.581821417436004">
        <ele>2310.6700000000001</ele>
        <time>2015-08-01T11:44:49Z</time>
      </trkpt>
      <trkpt lat="46.176617788150907" lon="10.581788308918476">
        <ele>2311.6300000000001</ele>
        <time>2015-08-01T11:44:58Z</time>
      </trkpt>
      <trkpt lat="46.176637401804328" lon="10.581721840426326">
        <ele>2313.5500000000002</ele>
        <time>2015-08-01T11:45:10Z</time>
      </trkpt>
      <trkpt lat="46.176637234166265" lon="10.581686552613974">
        <ele>2314.9899999999998</ele>
        <time>2015-08-01T11:45:19Z</time>
      </trkpt>
      <trkpt lat="46.176620721817017" lon="10.581681858748198">
        <ele>2315.9499999999998</ele>
        <time>2015-08-01T11:45:32Z</time>
      </trkpt>
      <trkpt lat="46.17660035379231" lon="10.581702645868063">
        <ele>2317.4000000000001</ele>
        <time>2015-08-01T11:45:42Z</time>
      </trkpt>
      <trkpt lat="46.176579566672444" lon="10.581667944788933">
        <ele>2318.3600000000001</ele>
        <time>2015-08-01T11:45:52Z</time>
      </trkpt>
      <trkpt lat="46.176575124263763" lon="10.581620251759887">
        <ele>2319.8000000000002</ele>
        <time>2015-08-01T11:46:03Z</time>
      </trkpt>
      <trkpt lat="46.176585014909506" lon="10.581603236496449">
        <ele>2320.7600000000002</ele>
        <time>2015-08-01T11:46:12Z</time>
      </trkpt>
      <trkpt lat="46.176579315215349" lon="10.581551939249039">
        <ele>2322.6799999999998</ele>
        <time>2015-08-01T11:46:22Z</time>
      </trkpt>
      <trkpt lat="46.176591049879789" lon="10.581509191542864">
        <ele>2322.6799999999998</ele>
        <time>2015-08-01T11:46:31Z</time>
      </trkpt>
      <trkpt lat="46.176571687683463" lon="10.581501144915819">
        <ele>2324.6100000000001</ele>
        <time>2015-08-01T11:46:41Z</time>
      </trkpt>
      <trkpt lat="46.17656908929348" lon="10.581495529040694">
        <ele>2324.6100000000001</ele>
        <time>2015-08-01T11:46:42Z</time>
      </trkpt>
      <trkpt lat="46.176558528095484" lon="10.581521177664399">
        <ele>2326.0500000000002</ele>
        <time>2015-08-01T11:46:53Z</time>
      </trkpt>
      <trkpt lat="46.176524665206671" lon="10.581530900672078">
        <ele>2327.4899999999998</ele>
        <time>2015-08-01T11:47:03Z</time>
      </trkpt>
      <trkpt lat="46.17649968713522" lon="10.581571385264397">
        <ele>2328.4499999999998</ele>
        <time>2015-08-01T11:47:15Z</time>
      </trkpt>
      <trkpt lat="46.176478983834386" lon="10.581578677520156">
        <ele>2329.4099999999999</ele>
        <time>2015-08-01T11:47:27Z</time>
      </trkpt>
      <trkpt lat="46.176464147865772" lon="10.581585131585598">
        <ele>2329.8899999999999</ele>
        <time>2015-08-01T11:47:34Z</time>
      </trkpt>
      <trkpt lat="46.17643129080534" lon="10.581598626449704">
        <ele>2330.8499999999999</ele>
        <time>2015-08-01T11:47:43Z</time>
      </trkpt>
      <trkpt lat="46.176423244178295" lon="10.581565937027335">
        <ele>2331.3299999999999</ele>
        <time>2015-08-01T11:47:54Z</time>
      </trkpt>
      <trkpt lat="46.176417712122202" lon="10.581545569002628">
        <ele>2331.8099999999999</ele>
        <time>2015-08-01T11:48:10Z</time>
      </trkpt>
      <trkpt lat="46.176428608596325" lon="10.581507850438356">
        <ele>2333.2600000000002</ele>
        <time>2015-08-01T11:48:18Z</time>
      </trkpt>
      <trkpt lat="46.176411425694823" lon="10.581481112167239">
        <ele>2334.2199999999998</ele>
        <time>2015-08-01T11:48:29Z</time>
      </trkpt>
      <trkpt lat="46.176394242793322" lon="10.581463845446706">
        <ele>2335.1799999999998</ele>
        <time>2015-08-01T11:48:39Z</time>
      </trkpt>
      <trkpt lat="46.176405558362603" lon="10.581467114388943">
        <ele>2335.6599999999999</ele>
        <time>2015-08-01T11:48:51Z</time>
      </trkpt>
      <trkpt lat="46.176399439573288" lon="10.581374913454056">
        <ele>2337.5799999999999</ele>
        <time>2015-08-01T11:49:01Z</time>
      </trkpt>
      <trkpt lat="46.176409581676126" lon="10.581340128555894">
        <ele>2338.54</ele>
        <time>2015-08-01T11:49:10Z</time>
      </trkpt>
      <trkpt lat="46.176422741264105" lon="10.581311043351889">
        <ele>2339.02</ele>
        <time>2015-08-01T11:49:20Z</time>
      </trkpt>
      <trkpt lat="46.176406648010015" lon="10.581283718347549">
        <ele>2340.4699999999998</ele>
        <time>2015-08-01T11:49:29Z</time>
      </trkpt>
      <trkpt lat="46.176384519785643" lon="10.581320011988282">
        <ele>2339.9899999999998</ele>
        <time>2015-08-01T11:49:41Z</time>
      </trkpt>
      <trkpt lat="46.17635166272521" lon="10.58132529258728">
        <ele>2341.4299999999998</ele>
        <time>2015-08-01T11:49:50Z</time>
      </trkpt>
      <trkpt lat="46.176333473995328" lon="10.581311797723174">
        <ele>2341.9099999999999</ele>
        <time>2015-08-01T11:49:57Z</time>
      </trkpt>
      <trkpt lat="46.176317799836397" lon="10.58129888959229">
        <ele>2343.8299999999999</ele>
        <time>2015-08-01T11:50:08Z</time>
      </trkpt>
      <trkpt lat="46.176317380741239" lon="10.581275671720505">
        <ele>2344.3099999999999</ele>
        <time>2015-08-01T11:50:18Z</time>
      </trkpt>
      <trkpt lat="46.176284020766616" lon="10.58127399533987">
        <ele>2345.75</ele>
        <time>2015-08-01T11:50:32Z</time>
      </trkpt>
      <trkpt lat="46.176252504810691" lon="10.581234600394964">
        <ele>2348.1599999999999</ele>
        <time>2015-08-01T11:50:46Z</time>
      </trkpt>
      <trkpt lat="46.176241273060441" lon="10.581224542111158">
        <ele>2349.1199999999999</ele>
        <time>2015-08-01T11:50:57Z</time>
      </trkpt>
      <trkpt lat="46.176217803731561" lon="10.581236025318503">
        <ele>2350.0799999999999</ele>
        <time>2015-08-01T11:51:08Z</time>
      </trkpt>
      <trkpt lat="46.176211601123214" lon="10.581188751384616">
        <ele>2351.04</ele>
        <time>2015-08-01T11:51:18Z</time>
      </trkpt>
      <trkpt lat="46.176216714084148" lon="10.581150697544217">
        <ele>2352</ele>
        <time>2015-08-01T11:51:27Z</time>
      </trkpt>
      <trkpt lat="46.176220569759607" lon="10.581117672845721">
        <ele>2353.4400000000001</ele>
        <time>2015-08-01T11:51:39Z</time>
      </trkpt>
      <trkpt lat="46.176194837316871" lon="10.581090599298477">
        <ele>2353.9299999999998</ele>
        <time>2015-08-01T11:51:49Z</time>
      </trkpt>
      <trkpt lat="46.176188802346587" lon="10.581079116091132">
        <ele>2355.3699999999999</ele>
        <time>2015-08-01T11:52:01Z</time>
      </trkpt>
      <trkpt lat="46.176189640536904" lon="10.58105799369514">
        <ele>2356.3299999999999</ele>
        <time>2015-08-01T11:52:16Z</time>
      </trkpt>
      <trkpt lat="46.1761708650738" lon="10.581062855198979">
        <ele>2356.3299999999999</ele>
        <time>2015-08-01T11:52:26Z</time>
      </trkpt>
      <trkpt lat="46.176176480948925" lon="10.581059837713838">
        <ele>2357.29</ele>
        <time>2015-08-01T11:52:36Z</time>
      </trkpt>
      <trkpt lat="46.176165081560612" lon="10.581052796915174">
        <ele>2358.73</ele>
        <time>2015-08-01T11:52:45Z</time>
      </trkpt>
      <trkpt lat="46.176154017448425" lon="10.581091018393636">
        <ele>2359.6900000000001</ele>
        <time>2015-08-01T11:52:52Z</time>
      </trkpt>
      <trkpt lat="46.176127195358276" lon="10.581077020615339">
        <ele>2360.6500000000001</ele>
        <time>2015-08-01T11:53:02Z</time>
      </trkpt>
      <trkpt lat="46.176140774041414" lon="10.581049360334873">
        <ele>2361.6199999999999</ele>
        <time>2015-08-01T11:53:13Z</time>
      </trkpt>
      <trkpt lat="46.17614253424108" lon="10.581011809408665">
        <ele>2362.5799999999999</ele>
        <time>2015-08-01T11:53:24Z</time>
      </trkpt>
      <trkpt lat="46.176149072125554" lon="10.580967804417014">
        <ele>2364.5</ele>
        <time>2015-08-01T11:53:38Z</time>
      </trkpt>
      <trkpt lat="46.176135074347258" lon="10.580910639837384">
        <ele>2365.46</ele>
        <time>2015-08-01T11:53:50Z</time>
      </trkpt>
      <trkpt lat="46.176118645817041" lon="10.580884991213679">
        <ele>2366.9000000000001</ele>
        <time>2015-08-01T11:54:00Z</time>
      </trkpt>
      <trkpt lat="46.176136834546924" lon="10.580879040062428">
        <ele>2368.3499999999999</ele>
        <time>2015-08-01T11:54:12Z</time>
      </trkpt>
      <trkpt lat="46.176116215065122" lon="10.580864707008004">
        <ele>2369.79</ele>
        <time>2015-08-01T11:54:22Z</time>
      </trkpt>
      <trkpt lat="46.17611076682806" lon="10.580848613753915">
        <ele>2370.75</ele>
        <time>2015-08-01T11:54:39Z</time>
      </trkpt>
      <trkpt lat="46.176108838990331" lon="10.580836124718189">
        <ele>2371.71</ele>
        <time>2015-08-01T11:54:52Z</time>
      </trkpt>
      <trkpt lat="46.176098948344588" lon="10.580807877704501">
        <ele>2373.6300000000001</ele>
        <time>2015-08-01T11:55:05Z</time>
      </trkpt>
      <trkpt lat="46.176097774878144" lon="10.580805111676455">
        <ele>2374.5900000000001</ele>
        <time>2015-08-01T11:55:14Z</time>
      </trkpt>
      <trkpt lat="46.17608243599534" lon="10.580787509679794">
        <ele>2376.04</ele>
        <time>2015-08-01T11:55:28Z</time>
      </trkpt>
      <trkpt lat="46.17607313208282" lon="10.580758173018694">
        <ele>2377.96</ele>
        <time>2015-08-01T11:55:41Z</time>
      </trkpt>
      <trkpt lat="46.176071120426059" lon="10.580761777237058">
        <ele>2377.96</ele>
        <time>2015-08-01T11:55:52Z</time>
      </trkpt>
      <trkpt lat="46.176051255315542" lon="10.580762783065438">
        <ele>2379.8800000000001</ele>
        <time>2015-08-01T11:56:02Z</time>
      </trkpt>
      <trkpt lat="46.176041783764958" lon="10.580746522173285">
        <ele>2380.3600000000001</ele>
        <time>2015-08-01T11:56:13Z</time>
      </trkpt>
      <trkpt lat="46.176037006080151" lon="10.580749455839396">
        <ele>2381.8000000000002</ele>
        <time>2015-08-01T11:56:24Z</time>
      </trkpt>
      <trkpt lat="46.176028372719884" lon="10.580740487203002">
        <ele>2383.25</ele>
        <time>2015-08-01T11:56:36Z</time>
      </trkpt>
      <trkpt lat="46.176021583378315" lon="10.580735960975289">
        <ele>2385.1700000000001</ele>
        <time>2015-08-01T11:56:51Z</time>
      </trkpt>
      <trkpt lat="46.176010435447097" lon="10.580706791952252">
        <ele>2386.6100000000001</ele>
        <time>2015-08-01T11:57:04Z</time>
      </trkpt>
      <trkpt lat="46.175994342193007" lon="10.580706289038062">
        <ele>2387.0900000000001</ele>
        <time>2015-08-01T11:57:15Z</time>
      </trkpt>
      <trkpt lat="46.175979506224394" lon="10.580671420320868">
        <ele>2388.5300000000002</ele>
        <time>2015-08-01T11:57:25Z</time>
      </trkpt>
      <trkpt lat="46.175973555073142" lon="10.580636886879802">
        <ele>2388.5300000000002</ele>
        <time>2015-08-01T11:57:34Z</time>
      </trkpt>
      <trkpt lat="46.175965676084161" lon="10.580661613494158">
        <ele>2389.9699999999998</ele>
        <time>2015-08-01T11:57:48Z</time>
      </trkpt>
      <trkpt lat="46.175946313887835" lon="10.580686004832387">
        <ele>2391.4200000000001</ele>
        <time>2015-08-01T11:57:59Z</time>
      </trkpt>
      <trkpt lat="46.175929130986333" lon="10.580688938498497">
        <ele>2392.3800000000001</ele>
        <time>2015-08-01T11:58:08Z</time>
      </trkpt>
      <trkpt lat="46.175908092409372" lon="10.580652309581637">
        <ele>2393.3400000000001</ele>
        <time>2015-08-01T11:58:19Z</time>
      </trkpt>
      <trkpt lat="46.175917983055115" lon="10.58071207255125">
        <ele>2394.3000000000002</ele>
        <time>2015-08-01T11:58:28Z</time>
      </trkpt>
      <trkpt lat="46.175903482362628" lon="10.580738475546241">
        <ele>2396.2199999999998</ele>
        <time>2015-08-01T11:58:39Z</time>
      </trkpt>
      <trkpt lat="46.175884371623397" lon="10.580740319564939">
        <ele>2397.6700000000001</ele>
        <time>2015-08-01T11:58:47Z</time>
      </trkpt>
      <trkpt lat="46.175868781283498" lon="10.580769153311849">
        <ele>2399.1100000000001</ele>
        <time>2015-08-01T11:58:58Z</time>
      </trkpt>
      <trkpt lat="46.175859393551946" lon="10.580788934603333">
        <ele>2400.5500000000002</ele>
        <time>2015-08-01T11:59:09Z</time>
      </trkpt>
      <trkpt lat="46.175855621695518" lon="10.580818187445402">
        <ele>2401.5100000000002</ele>
        <time>2015-08-01T11:59:22Z</time>
      </trkpt>
      <trkpt lat="46.175842881202698" lon="10.580827072262764">
        <ele>2402.4699999999998</ele>
        <time>2015-08-01T11:59:37Z</time>
      </trkpt>
      <trkpt lat="46.175826536491513" lon="10.580839058384299">
        <ele>2403.9099999999999</ele>
        <time>2015-08-01T11:59:47Z</time>
      </trkpt>
      <trkpt lat="46.175805749371648" lon="10.580863952636719">
        <ele>2405.3600000000001</ele>
        <time>2015-08-01T11:59:55Z</time>
      </trkpt>
      <trkpt lat="46.175807174295187" lon="10.580905023962259">
        <ele>2406.8000000000002</ele>
        <time>2015-08-01T12:00:04Z</time>
      </trkpt>
      <trkpt lat="46.175773814320564" lon="10.580912986770272">
        <ele>2406.8000000000002</ele>
        <time>2015-08-01T12:00:19Z</time>
      </trkpt>
      <trkpt lat="46.175737604498863" lon="10.58094123378396">
        <ele>2407.7600000000002</ele>
        <time>2015-08-01T12:00:28Z</time>
      </trkpt>
      <trkpt lat="46.175732491537929" lon="10.580974090844393">
        <ele>2409.6799999999998</ele>
        <time>2015-08-01T12:00:38Z</time>
      </trkpt>
      <trkpt lat="46.175705334171653" lon="10.580971073359251">
        <ele>2410.1599999999999</ele>
        <time>2015-08-01T12:00:48Z</time>
      </trkpt>
      <trkpt lat="46.175692342221737" lon="10.580967050045729">
        <ele>2411.5999999999999</ele>
        <time>2015-08-01T12:00:59Z</time>
      </trkpt>
      <trkpt lat="46.175664933398366" lon="10.580995883792639">
        <ele>2413.0500000000002</ele>
        <time>2015-08-01T12:01:11Z</time>
      </trkpt>
      <trkpt lat="46.17565487511456" lon="10.58099202811718">
        <ele>2413.0500000000002</ele>
        <time>2015-08-01T12:01:25Z</time>
      </trkpt>
      <trkpt lat="46.175653785467148" lon="10.580925811082125">
        <ele>2414.9699999999998</ele>
        <time>2015-08-01T12:01:36Z</time>
      </trkpt>
      <trkpt lat="46.175656383857131" lon="10.580891780555248">
        <ele>2415.9299999999998</ele>
        <time>2015-08-01T12:01:50Z</time>
      </trkpt>
      <trkpt lat="46.175667196512222" lon="10.58083713054657">
        <ele>2417.8499999999999</ele>
        <time>2015-08-01T12:02:03Z</time>
      </trkpt>
      <trkpt lat="46.175667950883508" lon="10.580782480537891">
        <ele>2418.3299999999999</ele>
        <time>2015-08-01T12:02:12Z</time>
      </trkpt>
      <trkpt lat="46.175684295594692" lon="10.580745516344905">
        <ele>2418.3299999999999</ele>
        <time>2015-08-01T12:02:24Z</time>
      </trkpt>
      <trkpt lat="46.175715979188681" lon="10.5806974042207">
        <ele>2419.3000000000002</ele>
        <time>2015-08-01T12:02:40Z</time>
      </trkpt>
      <trkpt lat="46.175713213160634" lon="10.580651722848415">
        <ele>2420.2600000000002</ele>
        <time>2015-08-01T12:02:50Z</time>
      </trkpt>
      <trkpt lat="46.175697539001703" lon="10.580616602674127">
        <ele>2420.7399999999998</ele>
        <time>2015-08-01T12:03:12Z</time>
      </trkpt>
      <trkpt lat="46.17567197419703" lon="10.580603862181306">
        <ele>2423.1399999999999</ele>
        <time>2015-08-01T12:03:25Z</time>
      </trkpt>
      <trkpt lat="46.175649091601372" lon="10.580631354823709">
        <ele>2424.0999999999999</ele>
        <time>2015-08-01T12:03:35Z</time>
      </trkpt>
      <trkpt lat="46.175630819052458" lon="10.580626912415028">
        <ele>2425.54</ele>
        <time>2015-08-01T12:03:47Z</time>
      </trkpt>
      <trkpt lat="46.175625622272491" lon="10.580646693706512">
        <ele>2426.9899999999998</ele>
        <time>2015-08-01T12:04:00Z</time>
      </trkpt>
      <trkpt lat="46.175618413835764" lon="10.580677203834057">
        <ele>2427.9499999999998</ele>
        <time>2015-08-01T12:04:13Z</time>
      </trkpt>
      <trkpt lat="46.17559527978301" lon="10.580699583515525">
        <ele>2428.9099999999999</ele>
        <time>2015-08-01T12:04:24Z</time>
      </trkpt>
      <trkpt lat="46.17559963837266" lon="10.580720538273454">
        <ele>2430.3499999999999</ele>
        <time>2015-08-01T12:04:36Z</time>
      </trkpt>
      <trkpt lat="46.175577845424414" lon="10.580726824700832">
        <ele>2430.8299999999999</ele>
        <time>2015-08-01T12:04:45Z</time>
      </trkpt>
      <trkpt lat="46.175579773262143" lon="10.580739481374621">
        <ele>2431.3099999999999</ele>
        <time>2015-08-01T12:05:04Z</time>
      </trkpt>
      <trkpt lat="46.175536103546619" lon="10.580727327615023">
        <ele>2433.71</ele>
        <time>2015-08-01T12:05:16Z</time>
      </trkpt>
      <trkpt lat="46.17550483904779" lon="10.580741995945573">
        <ele>2435.6399999999999</ele>
        <time>2015-08-01T12:05:25Z</time>
      </trkpt>
      <trkpt lat="46.175492852926254" lon="10.580748450011015">
        <ele>2437.5599999999999</ele>
        <time>2015-08-01T12:05:35Z</time>
      </trkpt>
      <trkpt lat="46.17547994479537" lon="10.580774014815688">
        <ele>2438.04</ele>
        <time>2015-08-01T12:05:44Z</time>
      </trkpt>
      <trkpt lat="46.175462929531932" lon="10.580805027857423">
        <ele>2439</ele>
        <time>2015-08-01T12:05:53Z</time>
      </trkpt>
      <trkpt lat="46.175457900390029" lon="10.580823216587305">
        <ele>2439.48</ele>
        <time>2015-08-01T12:06:03Z</time>
      </trkpt>
      <trkpt lat="46.175449183210731" lon="10.580835621803999">
        <ele>2439.96</ele>
        <time>2015-08-01T12:06:14Z</time>
      </trkpt>
      <trkpt lat="46.175416326150298" lon="10.580842075869441">
        <ele>2440.9200000000001</ele>
        <time>2015-08-01T12:06:22Z</time>
      </trkpt>
      <trkpt lat="46.175395119935274" lon="10.580836040899158">
        <ele>2441.8899999999999</ele>
        <time>2015-08-01T12:06:32Z</time>
      </trkpt>
      <trkpt lat="46.175376595929265" lon="10.580844087526202">
        <ele>2443.3299999999999</ele>
        <time>2015-08-01T12:06:41Z</time>
      </trkpt>
      <trkpt lat="46.17536217905581" lon="10.580832352861762">
        <ele>2443.8099999999999</ele>
        <time>2015-08-01T12:06:54Z</time>
      </trkpt>
      <trkpt lat="46.175363520160317" lon="10.58080930262804">
        <ele>2444.77</ele>
        <time>2015-08-01T12:07:08Z</time>
      </trkpt>
      <trkpt lat="46.175359161570668" lon="10.580788683146238">
        <ele>2445.25</ele>
        <time>2015-08-01T12:07:20Z</time>
      </trkpt>
      <trkpt lat="46.175348348915577" lon="10.580776613205671">
        <ele>2447.1700000000001</ele>
        <time>2015-08-01T12:07:31Z</time>
      </trkpt>
      <trkpt lat="46.175352288410068" lon="10.580765129998326">
        <ele>2447.1700000000001</ele>
        <time>2015-08-01T12:07:45Z</time>
      </trkpt>
      <trkpt lat="46.175338374450803" lon="10.580775355920196">
        <ele>2448.1300000000001</ele>
        <time>2015-08-01T12:07:54Z</time>
      </trkpt>
      <trkpt lat="46.175338039174676" lon="10.580777451395988">
        <ele>2448.1300000000001</ele>
        <time>2015-08-01T12:08:07Z</time>
      </trkpt>
      <trkpt lat="46.175329992547631" lon="10.580747695639729">
        <ele>2449.0999999999999</ele>
        <time>2015-08-01T12:08:18Z</time>
      </trkpt>
      <trkpt lat="46.17532747797668" lon="10.580680221319199">
        <ele>2450.0599999999999</ele>
        <time>2015-08-01T12:08:28Z</time>
      </trkpt>
      <trkpt lat="46.175314150750637" lon="10.580668319016695">
        <ele>2451.02</ele>
        <time>2015-08-01T12:08:39Z</time>
      </trkpt>
      <trkpt lat="46.175287831574678" lon="10.580658847466111">
        <ele>2452.46</ele>
        <time>2015-08-01T12:08:49Z</time>
      </trkpt>
      <trkpt lat="46.175271570682526" lon="10.580683741718531">
        <ele>2453.4200000000001</ele>
        <time>2015-08-01T12:08:56Z</time>
      </trkpt>
      <trkpt lat="46.175268301740289" lon="10.580737134441733">
        <ele>2453.9000000000001</ele>
        <time>2015-08-01T12:09:05Z</time>
      </trkpt>
      <trkpt lat="46.175262350589037" lon="10.580740571022034">
        <ele>2454.8600000000001</ele>
        <time>2015-08-01T12:09:13Z</time>
      </trkpt>
      <trkpt lat="46.175232511013746" lon="10.580718107521534">
        <ele>2455.8200000000002</ele>
        <time>2015-08-01T12:09:22Z</time>
      </trkpt>
      <trkpt lat="46.175246089696884" lon="10.580750545486808">
        <ele>2456.3099999999999</ele>
        <time>2015-08-01T12:09:31Z</time>
      </trkpt>
      <trkpt lat="46.175254052504897" lon="10.580772589892149">
        <ele>2455.8200000000002</ele>
        <time>2015-08-01T12:09:41Z</time>
      </trkpt>
      <trkpt lat="46.175217507407069" lon="10.580799663439393">
        <ele>2457.75</ele>
        <time>2015-08-01T12:09:53Z</time>
      </trkpt>
      <trkpt lat="46.175199067220092" lon="10.580824222415686">
        <ele>2459.6700000000001</ele>
        <time>2015-08-01T12:10:02Z</time>
      </trkpt>
      <trkpt lat="46.175171909853816" lon="10.580827072262764">
        <ele>2460.1500000000001</ele>
        <time>2015-08-01T12:10:12Z</time>
      </trkpt>
      <trkpt lat="46.175148524343967" lon="10.580843249335885">
        <ele>2462.0700000000002</ele>
        <time>2015-08-01T12:10:22Z</time>
      </trkpt>
      <trkpt lat="46.17511005140841" lon="10.580870071426034">
        <ele>2463.04</ele>
        <time>2015-08-01T12:10:31Z</time>
      </trkpt>
      <trkpt lat="46.175087252631783" lon="10.580882895737886">
        <ele>2464</ele>
        <time>2015-08-01T12:10:36Z</time>
      </trkpt>
      <trkpt lat="46.175053054466844" lon="10.580935031175613">
        <ele>2465.4400000000001</ele>
        <time>2015-08-01T12:10:45Z</time>
      </trkpt>
      <trkpt lat="46.175001170486212" lon="10.580970570445061">
        <ele>2465.9200000000001</ele>
        <time>2015-08-01T12:10:53Z</time>
      </trkpt>
      <trkpt lat="46.174995889887214" lon="10.580969732254744">
        <ele>2465.4400000000001</ele>
        <time>2015-08-01T12:10:54Z</time>
      </trkpt>
      <trkpt lat="46.174981975927949" lon="10.580972917377949">
        <ele>2465.4400000000001</ele>
        <time>2015-08-01T12:11:02Z</time>
      </trkpt>
      <trkpt lat="46.174962194636464" lon="10.580975264310837">
        <ele>2464.96</ele>
        <time>2015-08-01T12:11:17Z</time>
      </trkpt>
      <trkpt lat="46.174950879067183" lon="10.581002421677113">
        <ele>2464.96</ele>
        <time>2015-08-01T12:11:43Z</time>
      </trkpt>
      <trkpt lat="46.17496638558805" lon="10.581000074744225">
        <ele>2464.96</ele>
        <time>2015-08-01T12:12:12Z</time>
      </trkpt>
      <trkpt lat="46.174931852146983" lon="10.580994542688131">
        <ele>2465.4400000000001</ele>
        <time>2015-08-01T12:12:36Z</time>
      </trkpt>
      <trkpt lat="46.174922799691558" lon="10.580970486626029">
        <ele>2465.4400000000001</ele>
        <time>2015-08-01T12:13:01Z</time>
      </trkpt>
      <trkpt lat="46.17492388933897" lon="10.58096126653254">
        <ele>2465.4400000000001</ele>
        <time>2015-08-01T12:13:21Z</time>
      </trkpt>
      <trkpt lat="46.174956662580371" lon="10.581001248210669">
        <ele>2465.4400000000001</ele>
        <time>2015-08-01T12:13:44Z</time>
      </trkpt>
      <trkpt lat="46.174966972321272" lon="10.580981215462089">
        <ele>2465.9200000000001</ele>
        <time>2015-08-01T12:13:51Z</time>
      </trkpt>
      <trkpt lat="46.174951549619436" lon="10.581002170220017">
        <ele>2465.9200000000001</ele>
        <time>2015-08-01T12:14:06Z</time>
      </trkpt>
      <trkpt lat="46.174962697550654" lon="10.580953303724527">
        <ele>2466.4000000000001</ele>
        <time>2015-08-01T12:14:26Z</time>
      </trkpt>
      <trkpt lat="46.174956411123276" lon="10.580951124429703">
        <ele>2466.4000000000001</ele>
        <time>2015-08-01T12:14:41Z</time>
      </trkpt>
      <trkpt lat="46.174982143566012" lon="10.580948693677783">
        <ele>2466.4000000000001</ele>
        <time>2015-08-01T12:14:55Z</time>
      </trkpt>
      <trkpt lat="46.174949537962675" lon="10.58090066537261">
        <ele>2466.4000000000001</ele>
        <time>2015-08-01T12:15:06Z</time>
      </trkpt>
      <trkpt lat="46.174933277070522" lon="10.580840483307838">
        <ele>2467.3600000000001</ele>
        <time>2015-08-01T12:15:15Z</time>
      </trkpt>
      <trkpt lat="46.174896899610758" lon="10.580810559913516">
        <ele>2468.3200000000002</ele>
        <time>2015-08-01T12:15:23Z</time>
      </trkpt>
      <trkpt lat="46.174866389483213" lon="10.58078340254724">
        <ele>2469.2800000000002</ele>
        <time>2015-08-01T12:15:32Z</time>
      </trkpt>
      <trkpt lat="46.17484375834465" lon="10.580798657611012">
        <ele>2470.73</ele>
        <time>2015-08-01T12:15:41Z</time>
      </trkpt>
      <trkpt lat="46.174815678969026" lon="10.580823048949242">
        <ele>2471.6900000000001</ele>
        <time>2015-08-01T12:15:50Z</time>
      </trkpt>
      <trkpt lat="46.174802100285888" lon="10.580830676481128">
        <ele>2472.1700000000001</ele>
        <time>2015-08-01T12:16:00Z</time>
      </trkpt>
      <trkpt lat="46.174784163013101" lon="10.580841740593314">
        <ele>2472.1700000000001</ele>
        <time>2015-08-01T12:16:14Z</time>
      </trkpt>
      <trkpt lat="46.174768824130297" lon="10.580862276256084">
        <ele>2473.6100000000001</ele>
        <time>2015-08-01T12:16:27Z</time>
      </trkpt>
      <trkpt lat="46.174745857715607" lon="10.580798489972949">
        <ele>2474.5700000000002</ele>
        <time>2015-08-01T12:16:35Z</time>
      </trkpt>
      <trkpt lat="46.174720041453838" lon="10.580825228244066">
        <ele>2474.0900000000001</ele>
        <time>2015-08-01T12:16:43Z</time>
      </trkpt>
      <trkpt lat="46.174687938764691" lon="10.580854900181293">
        <ele>2474.5700000000002</ele>
        <time>2015-08-01T12:16:51Z</time>
      </trkpt>
      <trkpt lat="46.174662038683891" lon="10.580832855775952">
        <ele>2476.0100000000002</ele>
        <time>2015-08-01T12:17:01Z</time>
      </trkpt>
      <trkpt lat="46.174649046733975" lon="10.580803602933884">
        <ele>2476.9699999999998</ele>
        <time>2015-08-01T12:17:12Z</time>
      </trkpt>
      <trkpt lat="46.174661535769701" lon="10.580807039514184">
        <ele>2476.9699999999998</ele>
        <time>2015-08-01T12:17:23Z</time>
      </trkpt>
      <trkpt lat="46.174646783620119" lon="10.580772086977959">
        <ele>2477.9400000000001</ele>
        <time>2015-08-01T12:17:37Z</time>
      </trkpt>
      <trkpt lat="46.174620548263192" lon="10.580751383677125">
        <ele>2479.3800000000001</ele>
        <time>2015-08-01T12:17:46Z</time>
      </trkpt>
      <trkpt lat="46.174591714516282" lon="10.580743420869112">
        <ele>2480.8200000000002</ele>
        <time>2015-08-01T12:17:55Z</time>
      </trkpt>
      <trkpt lat="46.174546033143997" lon="10.580717353150249">
        <ele>2481.7800000000002</ele>
        <time>2015-08-01T12:18:06Z</time>
      </trkpt>
      <trkpt lat="46.174528263509274" lon="10.580672845244408">
        <ele>2482.7399999999998</ele>
        <time>2015-08-01T12:18:15Z</time>
      </trkpt>
      <trkpt lat="46.174497921019793" lon="10.580650046467781">
        <ele>2484.1799999999998</ele>
        <time>2015-08-01T12:18:24Z</time>
      </trkpt>
      <trkpt lat="46.174474284052849" lon="10.580594139173627">
        <ele>2485.1500000000001</ele>
        <time>2015-08-01T12:18:35Z</time>
      </trkpt>
      <trkpt lat="46.174466237425804" lon="10.580572681501508">
        <ele>2486.1100000000001</ele>
        <time>2015-08-01T12:18:42Z</time>
      </trkpt>
      <trkpt lat="46.174432625994086" lon="10.580509901046753">
        <ele>2487.5500000000002</ele>
        <time>2015-08-01T12:18:53Z</time>
      </trkpt>
      <trkpt lat="46.17441619746387" lon="10.58048777282238">
        <ele>2488.5100000000002</ele>
        <time>2015-08-01T12:19:05Z</time>
      </trkpt>
      <trkpt lat="46.174402283504605" lon="10.580481989309192">
        <ele>2489.4699999999998</ele>
        <time>2015-08-01T12:19:14Z</time>
      </trkpt>
      <trkpt lat="46.174400942400098" lon="10.580496406182647">
        <ele>2490.4299999999998</ele>
        <time>2015-08-01T12:19:26Z</time>
      </trkpt>
      <trkpt lat="46.174379652366042" lon="10.580513002350926">
        <ele>2490.4299999999998</ele>
        <time>2015-08-01T12:19:36Z</time>
      </trkpt>
      <trkpt lat="46.174380574375391" lon="10.58053907006979">
        <ele>2490.9099999999999</ele>
        <time>2015-08-01T12:19:49Z</time>
      </trkpt>
      <trkpt lat="46.174379736185074" lon="10.580551391467452">
        <ele>2491.8699999999999</ele>
        <time>2015-08-01T12:20:04Z</time>
      </trkpt>
      <trkpt lat="46.174362888559699" lon="10.580584667623043">
        <ele>2493.3200000000002</ele>
        <time>2015-08-01T12:20:13Z</time>
      </trkpt>
      <trkpt lat="46.174329612404108" lon="10.580578800290823">
        <ele>2494.2800000000002</ele>
        <time>2015-08-01T12:20:22Z</time>
      </trkpt>
      <trkpt lat="46.174305388703942" lon="10.580604868009686">
        <ele>2495.2399999999998</ele>
        <time>2015-08-01T12:20:33Z</time>
      </trkpt>
      <trkpt lat="46.174302119761705" lon="10.580621715635061">
        <ele>2495.7199999999998</ele>
        <time>2015-08-01T12:20:43Z</time>
      </trkpt>
      <trkpt lat="46.174300443381071" lon="10.580579554662108">
        <ele>2496.6799999999998</ele>
        <time>2015-08-01T12:20:53Z</time>
      </trkpt>
      <trkpt lat="46.174281500279903" lon="10.580558767542243">
        <ele>2497.6399999999999</ele>
        <time>2015-08-01T12:21:05Z</time>
      </trkpt>
      <trkpt lat="46.174254845827818" lon="10.580562874674797">
        <ele>2499.0799999999999</ele>
        <time>2015-08-01T12:21:16Z</time>
      </trkpt>
      <trkpt lat="46.174241686239839" lon="10.580563712865114">
        <ele>2500.5300000000002</ele>
        <time>2015-08-01T12:21:27Z</time>
      </trkpt>
      <trkpt lat="46.174217713996768" lon="10.580578045919538">
        <ele>2501.4899999999998</ele>
        <time>2015-08-01T12:21:40Z</time>
      </trkpt>
      <trkpt lat="46.174229281023145" lon="10.58057720772922">
        <ele>2502.4499999999998</ele>
        <time>2015-08-01T12:21:49Z</time>
      </trkpt>
      <trkpt lat="46.174227185547352" lon="10.580597827211022">
        <ele>2503.4099999999999</ele>
        <time>2015-08-01T12:21:59Z</time>
      </trkpt>
      <trkpt lat="46.174207320436835" lon="10.580623308196664">
        <ele>2505.3299999999999</ele>
        <time>2015-08-01T12:22:11Z</time>
      </trkpt>
      <trkpt lat="46.174181587994099" lon="10.580611908808351">
        <ele>2506.29</ele>
        <time>2015-08-01T12:22:22Z</time>
      </trkpt>
      <trkpt lat="46.174173876643181" lon="10.580610232427716">
        <ele>2507.2600000000002</ele>
        <time>2015-08-01T12:22:33Z</time>
      </trkpt>
      <trkpt lat="46.174161303788424" lon="10.580633198842406">
        <ele>2507.2600000000002</ele>
        <time>2015-08-01T12:22:44Z</time>
      </trkpt>
      <trkpt lat="46.174137750640512" lon="10.58061433956027">
        <ele>2509.1799999999998</ele>
        <time>2015-08-01T12:22:55Z</time>
      </trkpt>
      <trkpt lat="46.17412006482482" lon="10.580613669008017">
        <ele>2509.6599999999999</ele>
        <time>2015-08-01T12:23:07Z</time>
      </trkpt>
      <trkpt lat="46.174108497798443" lon="10.58061040006578">
        <ele>2510.1399999999999</ele>
        <time>2015-08-01T12:23:19Z</time>
      </trkpt>
      <trkpt lat="46.174076311290264" lon="10.580606125295162">
        <ele>2512.0599999999999</ele>
        <time>2015-08-01T12:23:27Z</time>
      </trkpt>
      <trkpt lat="46.174030127003789" lon="10.580630516633391">
        <ele>2513.98</ele>
        <time>2015-08-01T12:23:37Z</time>
      </trkpt>
      <trkpt lat="46.17403113283217" lon="10.580618614330888">
        <ele>2513.5</ele>
        <time>2015-08-01T12:23:49Z</time>
      </trkpt>
      <trkpt lat="46.174020823091269" lon="10.580581901594996">
        <ele>2513.98</ele>
        <time>2015-08-01T12:24:06Z</time>
      </trkpt>
      <trkpt lat="46.174016380682588" lon="10.580574609339237">
        <ele>2513.5</ele>
        <time>2015-08-01T12:24:07Z</time>
      </trkpt>
      <trkpt lat="46.174011016264558" lon="10.580489281564951">
        <ele>2513.02</ele>
        <time>2015-08-01T12:24:16Z</time>
      </trkpt>
      <trkpt lat="46.174028282985091" lon="10.580431362614036">
        <ele>2514.9499999999998</ele>
        <time>2015-08-01T12:24:22Z</time>
      </trkpt>
      <trkpt lat="46.174014117568731" lon="10.58031820692122">
        <ele>2515.9099999999999</ele>
        <time>2015-08-01T12:24:33Z</time>
      </trkpt>
      <trkpt lat="46.174006909132004" lon="10.58027227409184">
        <ele>2517.3499999999999</ele>
        <time>2015-08-01T12:24:43Z</time>
      </trkpt>
      <trkpt lat="46.174009004607797" lon="10.580200525000691">
        <ele>2518.79</ele>
        <time>2015-08-01T12:24:54Z</time>
      </trkpt>
      <trkpt lat="46.174013363197446" lon="10.580150736495852">
        <ele>2519.75</ele>
        <time>2015-08-01T12:25:04Z</time>
      </trkpt>
      <trkpt lat="46.17402040399611" lon="10.580094829201698">
        <ele>2521.1900000000001</ele>
        <time>2015-08-01T12:25:15Z</time>
      </trkpt>
      <trkpt lat="46.174008501693606" lon="10.580071527510881">
        <ele>2522.6399999999999</ele>
        <time>2015-08-01T12:25:24Z</time>
      </trkpt>
      <trkpt lat="46.174011183902621" lon="10.580034982413054">
        <ele>2523.5999999999999</ele>
        <time>2015-08-01T12:25:33Z</time>
      </trkpt>
      <trkpt lat="46.173992995172739" lon="10.579988462850451">
        <ele>2525.52</ele>
        <time>2015-08-01T12:25:43Z</time>
      </trkpt>
      <trkpt lat="46.173995593562722" lon="10.579951079562306">
        <ele>2526.96</ele>
        <time>2015-08-01T12:25:52Z</time>
      </trkpt>
      <trkpt lat="46.173972124233842" lon="10.579939428716898">
        <ele>2527.9200000000001</ele>
        <time>2015-08-01T12:26:04Z</time>
      </trkpt>
      <trkpt lat="46.173942955210805" lon="10.57991998270154">
        <ele>2529.3699999999999</ele>
        <time>2015-08-01T12:26:14Z</time>
      </trkpt>
      <trkpt lat="46.173908086493611" lon="10.579895842820406">
        <ele>2530.3299999999999</ele>
        <time>2015-08-01T12:26:25Z</time>
      </trkpt>
      <trkpt lat="46.173872798681259" lon="10.579906404018402">
        <ele>2531.77</ele>
        <time>2015-08-01T12:26:33Z</time>
      </trkpt>
      <trkpt lat="46.173861818388104" lon="10.579914283007383">
        <ele>2531.77</ele>
        <time>2015-08-01T12:26:36Z</time>
      </trkpt>
      <trkpt lat="46.173822088167071" lon="10.579955102875829">
        <ele>2532.73</ele>
        <time>2015-08-01T12:26:45Z</time>
      </trkpt>
      <trkpt lat="46.173798199743032" lon="10.57995225302875">
        <ele>2532.73</ele>
        <time>2015-08-01T12:26:59Z</time>
      </trkpt>
      <trkpt lat="46.173796858638525" lon="10.579969100654125">
        <ele>2533.21</ele>
        <time>2015-08-01T12:27:09Z</time>
      </trkpt>
      <trkpt lat="46.173781016841531" lon="10.57998837903142">
        <ele>2534.1700000000001</ele>
        <time>2015-08-01T12:27:26Z</time>
      </trkpt>
      <trkpt lat="46.173754027113318" lon="10.579999862238765">
        <ele>2535.1300000000001</ele>
        <time>2015-08-01T12:27:35Z</time>
      </trkpt>
      <trkpt lat="46.173729887232184" lon="10.579971866682172">
        <ele>2536.0999999999999</ele>
        <time>2015-08-01T12:27:45Z</time>
      </trkpt>
      <trkpt lat="46.173735503107309" lon="10.579991396516562">
        <ele>2536.5799999999999</ele>
        <time>2015-08-01T12:27:54Z</time>
      </trkpt>
      <trkpt lat="46.173716140910983" lon="10.579981673508883">
        <ele>2537.0599999999999</ele>
        <time>2015-08-01T12:28:11Z</time>
      </trkpt>
      <trkpt lat="46.173678757622838" lon="10.579975554719567">
        <ele>2539.46</ele>
        <time>2015-08-01T12:28:20Z</time>
      </trkpt>
      <trkpt lat="46.173651097342372" lon="10.579957868903875">
        <ele>2540.9000000000001</ele>
        <time>2015-08-01T12:28:28Z</time>
      </trkpt>
      <trkpt lat="46.173619581386447" lon="10.580051578581333">
        <ele>2542.3400000000001</ele>
        <time>2015-08-01T12:28:40Z</time>
      </trkpt>
      <trkpt lat="46.17356987670064" lon="10.58005191385746">
        <ele>2543.79</ele>
        <time>2015-08-01T12:28:50Z</time>
      </trkpt>
      <trkpt lat="46.173521932214499" lon="10.580017883330584">
        <ele>2545.23</ele>
        <time>2015-08-01T12:29:01Z</time>
      </trkpt>
      <trkpt lat="46.17348924279213" lon="10.579976309090853">
        <ele>2546.6700000000001</ele>
        <time>2015-08-01T12:29:11Z</time>
      </trkpt>
      <trkpt lat="46.173457643017173" lon="10.579942110925913">
        <ele>2548.1100000000001</ele>
        <time>2015-08-01T12:29:19Z</time>
      </trkpt>
      <trkpt lat="46.173442304134369" lon="10.57994051836431">
        <ele>2548.5900000000001</ele>
        <time>2015-08-01T12:29:28Z</time>
      </trkpt>
      <trkpt lat="46.17339838296175" lon="10.579980164766312">
        <ele>2550.0300000000002</ele>
        <time>2015-08-01T12:29:38Z</time>
      </trkpt>
      <trkpt lat="46.173392264172435" lon="10.579934315755963">
        <ele>2551</ele>
        <time>2015-08-01T12:29:48Z</time>
      </trkpt>
      <trkpt lat="46.173386396840215" lon="10.579895423725247">
        <ele>2552.4400000000001</ele>
        <time>2015-08-01T12:29:59Z</time>
      </trkpt>
      <trkpt lat="46.173385726287961" lon="10.579832224175334">
        <ele>2553.8800000000001</ele>
        <time>2015-08-01T12:30:11Z</time>
      </trkpt>
      <trkpt lat="46.173369465395808" lon="10.579838342964649">
        <ele>2556.7600000000002</ele>
        <time>2015-08-01T12:30:21Z</time>
      </trkpt>
      <trkpt lat="46.173343565315008" lon="10.579829039052129">
        <ele>2556.2800000000002</ele>
        <time>2015-08-01T12:30:30Z</time>
      </trkpt>
      <trkpt lat="46.173324370756745" lon="10.579873966053128">
        <ele>2557.73</ele>
        <time>2015-08-01T12:30:39Z</time>
      </trkpt>
      <trkpt lat="46.173299979418516" lon="10.579936411231756">
        <ele>2558.21</ele>
        <time>2015-08-01T12:30:47Z</time>
      </trkpt>
      <trkpt lat="46.173304757103324" lon="10.579971028491855">
        <ele>2558.6900000000001</ele>
        <time>2015-08-01T12:30:56Z</time>
      </trkpt>
      <trkpt lat="46.173288328573108" lon="10.579974967986345">
        <ele>2559.6500000000001</ele>
        <time>2015-08-01T12:31:06Z</time>
      </trkpt>
      <trkpt lat="46.173289585858583" lon="10.580013189464808">
        <ele>2560.1300000000001</ele>
        <time>2015-08-01T12:31:14Z</time>
      </trkpt>
      <trkpt lat="46.17326008155942" lon="10.580035652965307">
        <ele>2561.5700000000002</ele>
        <time>2015-08-01T12:31:22Z</time>
      </trkpt>
      <trkpt lat="46.173233846202493" lon="10.5800343118608">
        <ele>2563.0100000000002</ele>
        <time>2015-08-01T12:31:31Z</time>
      </trkpt>
      <trkpt lat="46.173209873959422" lon="10.580040095373988">
        <ele>2564.4499999999998</ele>
        <time>2015-08-01T12:31:40Z</time>
      </trkpt>
      <trkpt lat="46.173199312761426" lon="10.580044034868479">
        <ele>2564.4499999999998</ele>
        <time>2015-08-01T12:31:47Z</time>
      </trkpt>
      <trkpt lat="46.173186153173447" lon="10.580053422600031">
        <ele>2565.9000000000001</ele>
        <time>2015-08-01T12:31:57Z</time>
      </trkpt>
      <trkpt lat="46.17317508906126" lon="10.580001035705209">
        <ele>2566.8600000000001</ele>
        <time>2015-08-01T12:32:08Z</time>
      </trkpt>
      <trkpt lat="46.173181626945734" lon="10.579944960772991">
        <ele>2568.3000000000002</ele>
        <time>2015-08-01T12:32:22Z</time>
      </trkpt>
      <trkpt lat="46.173178274184465" lon="10.579934315755963">
        <ele>2568.3000000000002</ele>
        <time>2015-08-01T12:32:31Z</time>
      </trkpt>
      <trkpt lat="46.173164444044232" lon="10.579928113147616">
        <ele>2569.2600000000002</ele>
        <time>2015-08-01T12:32:40Z</time>
      </trkpt>
      <trkpt lat="46.173148853704333" lon="10.579926772043109">
        <ele>2570.2199999999998</ele>
        <time>2015-08-01T12:32:51Z</time>
      </trkpt>
      <trkpt lat="46.173110213130713" lon="10.579929789528251">
        <ele>2572.6300000000001</ele>
        <time>2015-08-01T12:33:01Z</time>
      </trkpt>
      <trkpt lat="46.17307442240417" lon="10.579880923032761">
        <ele>2574.0700000000002</ele>
        <time>2015-08-01T12:33:12Z</time>
      </trkpt>
      <trkpt lat="46.173071572557092" lon="10.57983155362308">
        <ele>2575.0300000000002</ele>
        <time>2015-08-01T12:33:20Z</time>
      </trkpt>
      <trkpt lat="46.173056568950415" lon="10.579783776775002">
        <ele>2576.4699999999998</ele>
        <time>2015-08-01T12:33:29Z</time>
      </trkpt>
      <trkpt lat="46.17304366081953" lon="10.579756703227758">
        <ele>2576.9499999999998</ele>
        <time>2015-08-01T12:33:36Z</time>
      </trkpt>
      <trkpt lat="46.17302848957479" lon="10.579696521162987">
        <ele>2578.3899999999999</ele>
        <time>2015-08-01T12:33:46Z</time>
      </trkpt>
      <trkpt lat="46.173081295564771" lon="10.579619323834777">
        <ele>2579.8400000000001</ele>
        <time>2015-08-01T12:33:58Z</time>
      </trkpt>
      <trkpt lat="46.173083307221532" lon="10.579563500359654">
        <ele>2580.3200000000002</ele>
        <time>2015-08-01T12:34:07Z</time>
      </trkpt>
      <trkpt lat="46.173079619184136" lon="10.57951589114964">
        <ele>2581.2800000000002</ele>
        <time>2015-08-01T12:34:16Z</time>
      </trkpt>
      <trkpt lat="46.173057910054922" lon="10.579497702419758">
        <ele>2582.7199999999998</ele>
        <time>2015-08-01T12:34:24Z</time>
      </trkpt>
      <trkpt lat="46.173031674697995" lon="10.579514801502228">
        <ele>2583.1999999999998</ele>
        <time>2015-08-01T12:34:35Z</time>
      </trkpt>
      <trkpt lat="46.17304558865726" lon="10.579463420435786">
        <ele>2584.6399999999999</ele>
        <time>2015-08-01T12:34:45Z</time>
      </trkpt>
      <trkpt lat="46.173039553686976" lon="10.579416817054152">
        <ele>2586.0799999999999</ele>
        <time>2015-08-01T12:34:54Z</time>
      </trkpt>
      <trkpt lat="46.173025639727712" lon="10.579368621110916">
        <ele>2587.5300000000002</ele>
        <time>2015-08-01T12:35:04Z</time>
      </trkpt>
      <trkpt lat="46.173003762960434" lon="10.579319838434458">
        <ele>2588.9699999999998</ele>
        <time>2015-08-01T12:35:17Z</time>
      </trkpt>
      <trkpt lat="46.17298255674541" lon="10.579338613897562">
        <ele>2590.4099999999999</ele>
        <time>2015-08-01T12:35:26Z</time>
      </trkpt>
      <trkpt lat="46.172943329438567" lon="10.579392174258828">
        <ele>2591.3699999999999</ele>
        <time>2015-08-01T12:35:37Z</time>
      </trkpt>
      <trkpt lat="46.172900414094329" lon="10.579417152330279">
        <ele>2592.8099999999999</ele>
        <time>2015-08-01T12:35:47Z</time>
      </trkpt>
      <trkpt lat="46.172888176515698" lon="10.579355964437127">
        <ele>2593.77</ele>
        <time>2015-08-01T12:35:58Z</time>
      </trkpt>
      <trkpt lat="46.17288876324892" lon="10.579337021335959">
        <ele>2593.77</ele>
        <time>2015-08-01T12:36:14Z</time>
      </trkpt>
      <trkpt lat="46.172866802662611" lon="10.579328220337629">
        <ele>2594.25</ele>
        <time>2015-08-01T12:36:28Z</time>
      </trkpt>
      <trkpt lat="46.172861102968454" lon="10.579251945018768">
        <ele>2596.6599999999999</ele>
        <time>2015-08-01T12:36:38Z</time>
      </trkpt>
      <trkpt lat="46.17282715626061" lon="10.579254040494561">
        <ele>2598.0999999999999</ele>
        <time>2015-08-01T12:36:47Z</time>
      </trkpt>
      <trkpt lat="46.17280812934041" lon="10.579219087958336">
        <ele>2600.02</ele>
        <time>2015-08-01T12:36:57Z</time>
      </trkpt>
      <trkpt lat="46.172801004722714" lon="10.579205257818103">
        <ele>2600.5</ele>
        <time>2015-08-01T12:37:06Z</time>
      </trkpt>
      <trkpt lat="46.172790108248591" lon="10.579237444326282">
        <ele>2601.46</ele>
        <time>2015-08-01T12:37:17Z</time>
      </trkpt>
      <trkpt lat="46.172746187075973" lon="10.579285807907581">
        <ele>2601.9499999999998</ele>
        <time>2015-08-01T12:37:26Z</time>
      </trkpt>
      <trkpt lat="46.172699667513371" lon="10.579273989424109">
        <ele>2602.9099999999999</ele>
        <time>2015-08-01T12:37:37Z</time>
      </trkpt>
      <trkpt lat="46.172672510147095" lon="10.579242641106248">
        <ele>2604.3499999999999</ele>
        <time>2015-08-01T12:37:45Z</time>
      </trkpt>
      <trkpt lat="46.172646777704358" lon="10.579287065193057">
        <ele>2604.8299999999999</ele>
        <time>2015-08-01T12:37:57Z</time>
      </trkpt>
      <trkpt lat="46.172647029161453" lon="10.579329477623105">
        <ele>2604.8299999999999</ele>
        <time>2015-08-01T12:38:04Z</time>
      </trkpt>
      <trkpt lat="46.172619787976146" lon="10.579349426552653">
        <ele>2604.8299999999999</ele>
        <time>2015-08-01T12:38:07Z</time>
      </trkpt>
      <trkpt lat="46.172576118260622" lon="10.579411955550313">
        <ele>2606.27</ele>
        <time>2015-08-01T12:38:19Z</time>
      </trkpt>
      <trkpt lat="46.172574441879988" lon="10.579451015219092">
        <ele>2606.75</ele>
        <time>2015-08-01T12:38:29Z</time>
      </trkpt>
      <trkpt lat="46.172549463808537" lon="10.579469287768006">
        <ele>2608.6700000000001</ele>
        <time>2015-08-01T12:38:37Z</time>
      </trkpt>
      <trkpt lat="46.172548960894346" lon="10.579513879492879">
        <ele>2609.6399999999999</ele>
        <time>2015-08-01T12:38:48Z</time>
      </trkpt>
      <trkpt lat="46.172548374161124" lon="10.579530727118254">
        <ele>2609.6399999999999</ele>
        <time>2015-08-01T12:38:54Z</time>
      </trkpt>
      <trkpt lat="46.172525240108371" lon="10.579546233639121">
        <ele>2609.6399999999999</ele>
        <time>2015-08-01T12:39:03Z</time>
      </trkpt>
      <trkpt lat="46.172500597313046" lon="10.579502983018756">
        <ele>2611.5599999999999</ele>
        <time>2015-08-01T12:39:14Z</time>
      </trkpt>
      <trkpt lat="46.172491209581494" lon="10.57950365357101">
        <ele>2612.04</ele>
        <time>2015-08-01T12:39:24Z</time>
      </trkpt>
      <trkpt lat="46.17248022928834" lon="10.579524021595716">
        <ele>2613</ele>
        <time>2015-08-01T12:39:33Z</time>
      </trkpt>
      <trkpt lat="46.172460028901696" lon="10.579532738775015">
        <ele>2613.96</ele>
        <time>2015-08-01T12:39:43Z</time>
      </trkpt>
      <trkpt lat="46.172431530430913" lon="10.579493846744299">
        <ele>2615.8800000000001</ele>
        <time>2015-08-01T12:39:54Z</time>
      </trkpt>
      <trkpt lat="46.172423651441932" lon="10.579439448192716">
        <ele>2617.3299999999999</ele>
        <time>2015-08-01T12:40:04Z</time>
      </trkpt>
      <trkpt lat="46.17241526953876" lon="10.579408016055822">
        <ele>2618.29</ele>
        <time>2015-08-01T12:40:13Z</time>
      </trkpt>
      <trkpt lat="46.172390962019563" lon="10.579396029934287">
        <ele>2619.73</ele>
        <time>2015-08-01T12:40:22Z</time>
      </trkpt>
      <trkpt lat="46.172370929270983" lon="10.579362837597728">
        <ele>2620.6900000000001</ele>
        <time>2015-08-01T12:40:29Z</time>
      </trkpt>
      <trkpt lat="46.17232927121222" lon="10.57935462333262">
        <ele>2621.6500000000001</ele>
        <time>2015-08-01T12:40:39Z</time>
      </trkpt>
      <trkpt lat="46.172290211543441" lon="10.579314138740301">
        <ele>2622.1300000000001</ele>
        <time>2015-08-01T12:40:49Z</time>
      </trkpt>
      <trkpt lat="46.172270094975829" lon="10.579273905605078">
        <ele>2623.5799999999999</ele>
        <time>2015-08-01T12:40:59Z</time>
      </trkpt>
      <trkpt lat="46.172276129946113" lon="10.579247418791056">
        <ele>2624.0599999999999</ele>
        <time>2015-08-01T12:41:07Z</time>
      </trkpt>
      <trkpt lat="46.172257270663977" lon="10.579224284738302">
        <ele>2624.54</ele>
        <time>2015-08-01T12:41:17Z</time>
      </trkpt>
      <trkpt lat="46.172239249572158" lon="10.579213807359338">
        <ele>2625.5</ele>
        <time>2015-08-01T12:41:27Z</time>
      </trkpt>
      <trkpt lat="46.172222988680005" lon="10.579208778217435">
        <ele>2625.98</ele>
        <time>2015-08-01T12:41:35Z</time>
      </trkpt>
      <trkpt lat="46.172209661453962" lon="10.57920073159039">
        <ele>2626.9400000000001</ele>
        <time>2015-08-01T12:41:45Z</time>
      </trkpt>
      <trkpt lat="46.172191053628922" lon="10.579202910885215">
        <ele>2627.9000000000001</ele>
        <time>2015-08-01T12:41:55Z</time>
      </trkpt>
      <trkpt lat="46.172197507694364" lon="10.579201150685549">
        <ele>2627.4200000000001</ele>
        <time>2015-08-01T12:42:13Z</time>
      </trkpt>
      <trkpt lat="46.172193065285683" lon="10.579200396314263">
        <ele>2627.9000000000001</ele>
        <time>2015-08-01T12:42:28Z</time>
      </trkpt>
      <trkpt lat="46.172194238752127" lon="10.579198971390724">
        <ele>2627.4200000000001</ele>
        <time>2015-08-01T12:42:47Z</time>
      </trkpt>
      <trkpt lat="46.172216199338436" lon="10.579201150685549">
        <ele>2627.4200000000001</ele>
        <time>2015-08-01T12:43:04Z</time>
      </trkpt>
      <trkpt lat="46.172203877940774" lon="10.579204000532627">
        <ele>2627.4200000000001</ele>
        <time>2015-08-01T12:43:30Z</time>
      </trkpt>
      <trkpt lat="46.172207733616233" lon="10.579158654436469">
        <ele>2627.4200000000001</ele>
        <time>2015-08-01T12:43:44Z</time>
      </trkpt>
      <trkpt lat="46.172204548493028" lon="10.57917139492929">
        <ele>2627.9000000000001</ele>
        <time>2015-08-01T12:43:59Z</time>
      </trkpt>
      <trkpt lat="46.172209577634931" lon="10.579196456819773">
        <ele>2627.9000000000001</ele>
        <time>2015-08-01T12:44:13Z</time>
      </trkpt>
      <trkpt lat="46.172216953709722" lon="10.579204838722944">
        <ele>2627.9000000000001</ele>
        <time>2015-08-01T12:44:33Z</time>
      </trkpt>
      <trkpt lat="46.172216450795531" lon="10.579197881743312">
        <ele>2627.9000000000001</ele>
        <time>2015-08-01T12:44:45Z</time>
      </trkpt>
      <trkpt lat="46.172216031700373" lon="10.579204587265849">
        <ele>2627.9000000000001</ele>
        <time>2015-08-01T12:45:08Z</time>
      </trkpt>
      <trkpt lat="46.17222080938518" lon="10.579202156513929">
        <ele>2627.9000000000001</ele>
        <time>2015-08-01T12:45:21Z</time>
      </trkpt>
      <trkpt lat="46.17221443913877" lon="10.579210622236133">
        <ele>2627.9000000000001</ele>
        <time>2015-08-01T12:45:46Z</time>
      </trkpt>
      <trkpt lat="46.172211924567819" lon="10.579209364950657">
        <ele>2627.9000000000001</ele>
        <time>2015-08-01T12:46:07Z</time>
      </trkpt>
      <trkpt lat="46.172194825485349" lon="10.579211795702577">
        <ele>2628.3800000000001</ele>
        <time>2015-08-01T12:46:18Z</time>
      </trkpt>
      <trkpt lat="46.172186611220241" lon="10.579210706055164">
        <ele>2628.8600000000001</ele>
        <time>2015-08-01T12:46:28Z</time>
      </trkpt>
      <trkpt lat="46.172167835757136" lon="10.579193271696568">
        <ele>2630.3000000000002</ele>
        <time>2015-08-01T12:46:37Z</time>
      </trkpt>
      <trkpt lat="46.172147216275334" lon="10.57914549484849">
        <ele>2631.27</ele>
        <time>2015-08-01T12:46:46Z</time>
      </trkpt>
      <trkpt lat="46.172120645642281" lon="10.5791553016752">
        <ele>2631.75</ele>
        <time>2015-08-01T12:46:55Z</time>
      </trkpt>
      <trkpt lat="46.172123327851295" lon="10.579185308888555">
        <ele>2632.23</ele>
        <time>2015-08-01T12:47:05Z</time>
      </trkpt>
      <trkpt lat="46.17210597731173" lon="10.579210203140974">
        <ele>2632.71</ele>
        <time>2015-08-01T12:47:13Z</time>
      </trkpt>
      <trkpt lat="46.172099439427257" lon="10.579161169007421">
        <ele>2633.1900000000001</ele>
        <time>2015-08-01T12:47:22Z</time>
      </trkpt>
      <trkpt lat="46.172081334516406" lon="10.579157480970025">
        <ele>2634.6300000000001</ele>
        <time>2015-08-01T12:47:35Z</time>
      </trkpt>
      <trkpt lat="46.17207027040422" lon="10.579125126823783">
        <ele>2635.5900000000001</ele>
        <time>2015-08-01T12:47:44Z</time>
      </trkpt>
      <trkpt lat="46.172063816338778" lon="10.579103166237473">
        <ele>2636.0700000000002</ele>
        <time>2015-08-01T12:47:59Z</time>
      </trkpt>
      <trkpt lat="46.172040263190866" lon="10.579115571454167">
        <ele>2637.0300000000002</ele>
        <time>2015-08-01T12:48:12Z</time>
      </trkpt>
      <trkpt lat="46.172029199078679" lon="10.579098556190729">
        <ele>2637.9899999999998</ele>
        <time>2015-08-01T12:48:24Z</time>
      </trkpt>
      <trkpt lat="46.172012938186526" lon="10.579082798212767">
        <ele>2638.96</ele>
        <time>2015-08-01T12:48:36Z</time>
      </trkpt>
      <trkpt lat="46.172027606517076" lon="10.579090425744653">
        <ele>2638.96</ele>
        <time>2015-08-01T12:48:53Z</time>
      </trkpt>
      <trkpt lat="46.172002293169498" lon="10.579092353582382">
        <ele>2640.8800000000001</ele>
        <time>2015-08-01T12:49:04Z</time>
      </trkpt>
      <trkpt lat="46.171969184651971" lon="10.579070392996073">
        <ele>2641.8400000000001</ele>
        <time>2015-08-01T12:49:14Z</time>
      </trkpt>
      <trkpt lat="46.171950660645962" lon="10.579056143760681">
        <ele>2643.2800000000002</ele>
        <time>2015-08-01T12:49:22Z</time>
      </trkpt>
      <trkpt lat="46.171949906274676" lon="10.579036446288228">
        <ele>2643.2800000000002</ele>
        <time>2015-08-01T12:49:31Z</time>
      </trkpt>
      <trkpt lat="46.171938758343458" lon="10.579040385782719">
        <ele>2643.7600000000002</ele>
        <time>2015-08-01T12:49:40Z</time>
      </trkpt>
      <trkpt lat="46.171931717544794" lon="10.579042481258512">
        <ele>2644.2399999999998</ele>
        <time>2015-08-01T12:49:53Z</time>
      </trkpt>
      <trkpt lat="46.171930208802223" lon="10.579033680260181">
        <ele>2644.7199999999998</ele>
        <time>2015-08-01T12:50:06Z</time>
      </trkpt>
      <trkpt lat="46.171940267086029" lon="10.57907466776669">
        <ele>2645.6900000000001</ele>
        <time>2015-08-01T12:50:14Z</time>
      </trkpt>
      <trkpt lat="46.171930879354477" lon="10.579109201207757">
        <ele>2646.6500000000001</ele>
        <time>2015-08-01T12:50:23Z</time>
      </trkpt>
      <trkpt lat="46.171936746686697" lon="10.579145159572363">
        <ele>2647.1300000000001</ele>
        <time>2015-08-01T12:50:34Z</time>
      </trkpt>
      <trkpt lat="46.171917133033276" lon="10.579171059653163">
        <ele>2647.6100000000001</ele>
        <time>2015-08-01T12:50:43Z</time>
      </trkpt>
      <trkpt lat="46.171907410025597" lon="10.57919729501009">
        <ele>2647.6100000000001</ele>
        <time>2015-08-01T12:50:50Z</time>
      </trkpt>
      <trkpt lat="46.171902297064662" lon="10.579244652763009">
        <ele>2648.0900000000001</ele>
        <time>2015-08-01T12:50:59Z</time>
      </trkpt>
      <trkpt lat="46.171866841614246" lon="10.579248340800405">
        <ele>2649.0500000000002</ele>
        <time>2015-08-01T12:51:07Z</time>
      </trkpt>
      <trkpt lat="46.171842953190207" lon="10.579236689954996">
        <ele>2649.5300000000002</ele>
        <time>2015-08-01T12:51:16Z</time>
      </trkpt>
      <trkpt lat="46.171815628185868" lon="10.579211376607418">
        <ele>2650.9699999999998</ele>
        <time>2015-08-01T12:51:27Z</time>
      </trkpt>
      <trkpt lat="46.171811604872346" lon="10.579177429899573">
        <ele>2651.9299999999998</ele>
        <time>2015-08-01T12:51:35Z</time>
      </trkpt>
      <trkpt lat="46.171773467212915" lon="10.579154212027788">
        <ele>2653.3800000000001</ele>
        <time>2015-08-01T12:51:45Z</time>
      </trkpt>
      <trkpt lat="46.171758379787207" lon="10.57911716401577">
        <ele>2654.3400000000001</ele>
        <time>2015-08-01T12:51:55Z</time>
      </trkpt>
      <trkpt lat="46.17176634259522" lon="10.579098975285888">
        <ele>2654.8200000000002</ele>
        <time>2015-08-01T12:52:07Z</time>
      </trkpt>
      <trkpt lat="46.171749997884035" lon="10.57905999943614">
        <ele>2655.3000000000002</ele>
        <time>2015-08-01T12:52:19Z</time>
      </trkpt>
      <trkpt lat="46.171764666214585" lon="10.579024543985724">
        <ele>2656.2600000000002</ele>
        <time>2015-08-01T12:52:29Z</time>
      </trkpt>
      <trkpt lat="46.171755446121097" lon="10.579027980566025">
        <ele>2656.2600000000002</ele>
        <time>2015-08-01T12:52:41Z</time>
      </trkpt>
      <trkpt lat="46.171714290976524" lon="10.579016664996743">
        <ele>2657.6999999999998</ele>
        <time>2015-08-01T12:52:52Z</time>
      </trkpt>
      <trkpt lat="46.171690318733454" lon="10.578994872048497">
        <ele>2658.6599999999999</ele>
        <time>2015-08-01T12:53:01Z</time>
      </trkpt>
      <trkpt lat="46.171676488593221" lon="10.578995374962687">
        <ele>2659.6199999999999</ele>
        <time>2015-08-01T12:53:09Z</time>
      </trkpt>
      <trkpt lat="46.17167305201292" lon="10.578960087150335">
        <ele>2660.1100000000001</ele>
        <time>2015-08-01T12:53:18Z</time>
      </trkpt>
      <trkpt lat="46.171671794727445" lon="10.578943490982056">
        <ele>2661.0700000000002</ele>
        <time>2015-08-01T12:53:24Z</time>
      </trkpt>
      <trkpt lat="46.171659138053656" lon="10.578971989452839">
        <ele>2661.5500000000002</ele>
        <time>2015-08-01T12:53:36Z</time>
      </trkpt>
      <trkpt lat="46.171633489429951" lon="10.578993111848831">
        <ele>2662.5100000000002</ele>
        <time>2015-08-01T12:53:44Z</time>
      </trkpt>
      <trkpt lat="46.171598536893725" lon="10.579008786007762">
        <ele>2663.4699999999998</ele>
        <time>2015-08-01T12:53:54Z</time>
      </trkpt>
      <trkpt lat="46.171584371477365" lon="10.578961176797748">
        <ele>2663.9499999999998</ele>
        <time>2015-08-01T12:54:02Z</time>
      </trkpt>
      <trkpt lat="46.17158068343997" lon="10.578932678326964">
        <ele>2665.3899999999999</ele>
        <time>2015-08-01T12:54:10Z</time>
      </trkpt>
      <trkpt lat="46.171567942947149" lon="10.578878866508603">
        <ele>2666.8299999999999</ele>
        <time>2015-08-01T12:54:21Z</time>
      </trkpt>
      <trkpt lat="46.171560985967517" lon="10.578851122409105">
        <ele>2667.3099999999999</ele>
        <time>2015-08-01T12:54:34Z</time>
      </trkpt>
      <trkpt lat="46.171566350385547" lon="10.578780462965369">
        <ele>2667.8000000000002</ele>
        <time>2015-08-01T12:54:43Z</time>
      </trkpt>
      <trkpt lat="46.171568362042308" lon="10.578735368326306">
        <ele>2668.2800000000002</ele>
        <time>2015-08-01T12:54:52Z</time>
      </trkpt>
      <trkpt lat="46.171562075614929" lon="10.578676611185074">
        <ele>2669.2399999999998</ele>
        <time>2015-08-01T12:55:05Z</time>
      </trkpt>
      <trkpt lat="46.171562243252993" lon="10.578650627285242">
        <ele>2670.1999999999998</ele>
        <time>2015-08-01T12:55:18Z</time>
      </trkpt>
      <trkpt lat="46.171562159433961" lon="10.578661691397429">
        <ele>2670.1999999999998</ele>
        <time>2015-08-01T12:55:30Z</time>
      </trkpt>
      <trkpt lat="46.171567272394896" lon="10.578656997531652">
        <ele>2670.1999999999998</ele>
        <time>2015-08-01T12:55:42Z</time>
      </trkpt>
      <trkpt lat="46.171565931290388" lon="10.578655991703272">
        <ele>2670.1999999999998</ele>
        <time>2015-08-01T12:55:54Z</time>
      </trkpt>
      <trkpt lat="46.171545647084713" lon="10.578660098835826">
        <ele>2671.6399999999999</ele>
        <time>2015-08-01T12:56:05Z</time>
      </trkpt>
      <trkpt lat="46.17153131403029" lon="10.578691279515624">
        <ele>2672.1199999999999</ele>
        <time>2015-08-01T12:56:17Z</time>
      </trkpt>
      <trkpt lat="46.171501390635967" lon="10.578646687790751">
        <ele>2673.0799999999999</ele>
        <time>2015-08-01T12:56:28Z</time>
      </trkpt>
      <trkpt lat="46.171473311260343" lon="10.578638473525643">
        <ele>2674.52</ele>
        <time>2015-08-01T12:56:39Z</time>
      </trkpt>
      <trkpt lat="46.171449003741145" lon="10.578633947297931">
        <ele>2675.4899999999998</ele>
        <time>2015-08-01T12:56:50Z</time>
      </trkpt>
      <trkpt lat="46.17142234928906" lon="10.578625900670886">
        <ele>2677.4099999999999</ele>
        <time>2015-08-01T12:57:00Z</time>
      </trkpt>
      <trkpt lat="46.171420756727457" lon="10.578625397756696">
        <ele>2677.4099999999999</ele>
        <time>2015-08-01T12:57:10Z</time>
      </trkpt>
      <trkpt lat="46.171414637938142" lon="10.578603269532323">
        <ele>2678.8499999999999</ele>
        <time>2015-08-01T12:57:20Z</time>
      </trkpt>
      <trkpt lat="46.171422265470028" lon="10.578585751354694">
        <ele>2679.3299999999999</ele>
        <time>2015-08-01T12:57:33Z</time>
      </trkpt>
      <trkpt lat="46.171414889395237" lon="10.578567311167717">
        <ele>2679.3299999999999</ele>
        <time>2015-08-01T12:57:46Z</time>
      </trkpt>
      <trkpt lat="46.171395946294069" lon="10.57853177189827">
        <ele>2680.77</ele>
        <time>2015-08-01T12:57:54Z</time>
      </trkpt>
      <trkpt lat="46.171368369832635" lon="10.57852934114635">
        <ele>2681.73</ele>
        <time>2015-08-01T12:58:06Z</time>
      </trkpt>
      <trkpt lat="46.171358395367861" lon="10.578538561239839">
        <ele>2682.6999999999998</ele>
        <time>2015-08-01T12:58:10Z</time>
      </trkpt>
      <trkpt lat="46.17133635096252" lon="10.578554151579738">
        <ele>2682.6999999999998</ele>
        <time>2015-08-01T12:58:19Z</time>
      </trkpt>
      <trkpt lat="46.171325454488397" lon="10.578556079417467">
        <ele>2683.6599999999999</ele>
        <time>2015-08-01T12:58:28Z</time>
      </trkpt>
      <trkpt lat="46.171306762844324" lon="10.578548703342676">
        <ele>2684.6199999999999</ele>
        <time>2015-08-01T12:58:37Z</time>
      </trkpt>
      <trkpt lat="46.171304751187563" lon="10.578547613695264">
        <ele>2684.1399999999999</ele>
        <time>2015-08-01T12:58:48Z</time>
      </trkpt>
      <trkpt lat="46.171299470588565" lon="10.578526826575398">
        <ele>2684.6199999999999</ele>
        <time>2015-08-01T12:59:04Z</time>
      </trkpt>
      <trkpt lat="46.171289579942822" lon="10.578495981171727">
        <ele>2685.0999999999999</ele>
        <time>2015-08-01T12:59:13Z</time>
      </trkpt>
      <trkpt lat="46.171279773116112" lon="10.57844870723784">
        <ele>2687.02</ele>
        <time>2015-08-01T12:59:23Z</time>
      </trkpt>
      <trkpt lat="46.171233002096415" lon="10.578472763299942">
        <ele>2688.9400000000001</ele>
        <time>2015-08-01T12:59:35Z</time>
      </trkpt>
      <trkpt lat="46.171233085915446" lon="10.578423561528325">
        <ele>2689.9099999999999</ele>
        <time>2015-08-01T12:59:45Z</time>
      </trkpt>
      <trkpt lat="46.171244652941823" lon="10.578367654234171">
        <ele>2690.3899999999999</ele>
        <time>2015-08-01T12:59:54Z</time>
      </trkpt>
      <trkpt lat="46.171260243281722" lon="10.578290624544024">
        <ele>2691.3499999999999</ele>
        <time>2015-08-01T13:00:03Z</time>
      </trkpt>
      <trkpt lat="46.17122788913548" lon="10.578269083052874">
        <ele>2691.8299999999999</ele>
        <time>2015-08-01T13:00:12Z</time>
      </trkpt>
      <trkpt lat="46.171195032075047" lon="10.578259946778417">
        <ele>2693.27</ele>
        <time>2015-08-01T13:00:23Z</time>
      </trkpt>
      <trkpt lat="46.17117365822196" lon="10.578258521854877">
        <ele>2694.23</ele>
        <time>2015-08-01T13:00:31Z</time>
      </trkpt>
      <trkpt lat="46.171155720949173" lon="10.578253911808133">
        <ele>2694.71</ele>
        <time>2015-08-01T13:00:40Z</time>
      </trkpt>
      <trkpt lat="46.171120684593916" lon="10.578249217942357">
        <ele>2695.6700000000001</ele>
        <time>2015-08-01T13:00:48Z</time>
      </trkpt>
      <trkpt lat="46.171109871938825" lon="10.578279560431838">
        <ele>2695.6700000000001</ele>
        <time>2015-08-01T13:00:57Z</time>
      </trkpt>
      <trkpt lat="46.171112721785903" lon="10.578222228214145">
        <ele>2696.6399999999999</ele>
        <time>2015-08-01T13:01:09Z</time>
      </trkpt>
      <trkpt lat="46.171081122010946" lon="10.578232202678919">
        <ele>2698.0799999999999</ele>
        <time>2015-08-01T13:01:21Z</time>
      </trkpt>
      <trkpt lat="46.171043068170547" lon="10.578241925686598">
        <ele>2699.52</ele>
        <time>2015-08-01T13:01:30Z</time>
      </trkpt>
      <trkpt lat="46.171017419546843" lon="10.57827964425087">
        <ele>2701.4400000000001</ele>
        <time>2015-08-01T13:01:41Z</time>
      </trkpt>
      <trkpt lat="46.170994369313121" lon="10.578234130516648">
        <ele>2701.4400000000001</ele>
        <time>2015-08-01T13:01:51Z</time>
      </trkpt>
      <trkpt lat="46.170998811721802" lon="10.578177887946367">
        <ele>2702.4000000000001</ele>
        <time>2015-08-01T13:02:00Z</time>
      </trkpt>
      <trkpt lat="46.170974085107446" lon="10.57817654684186">
        <ele>2704.3299999999999</ele>
        <time>2015-08-01T13:02:11Z</time>
      </trkpt>
      <trkpt lat="46.1709298286587" lon="10.578197753056884">
        <ele>2705.77</ele>
        <time>2015-08-01T13:02:21Z</time>
      </trkpt>
      <trkpt lat="46.170908790081739" lon="10.578183587640524">
        <ele>2706.25</ele>
        <time>2015-08-01T13:02:30Z</time>
      </trkpt>
      <trkpt lat="46.170895965769887" lon="10.578163890168071">
        <ele>2707.21</ele>
        <time>2015-08-01T13:02:40Z</time>
      </trkpt>
      <trkpt lat="46.17088045924902" lon="10.57822348549962">
        <ele>2707.6900000000001</ele>
        <time>2015-08-01T13:02:52Z</time>
      </trkpt>
      <trkpt lat="46.170870736241341" lon="10.578246703371406">
        <ele>2708.1700000000001</ele>
        <time>2015-08-01T13:03:01Z</time>
      </trkpt>
      <trkpt lat="46.17085020057857" lon="10.578262880444527">
        <ele>2708.1700000000001</ele>
        <time>2015-08-01T13:03:09Z</time>
      </trkpt>
      <trkpt lat="46.170826144516468" lon="10.57826891541481">
        <ele>2709.1300000000001</ele>
        <time>2015-08-01T13:03:19Z</time>
      </trkpt>
      <trkpt lat="46.170823881402612" lon="10.578212169930339">
        <ele>2710.0900000000001</ele>
        <time>2015-08-01T13:03:26Z</time>
      </trkpt>
      <trkpt lat="46.170791024342179" lon="10.578226922079921">
        <ele>2711.0599999999999</ele>
        <time>2015-08-01T13:03:36Z</time>
      </trkpt>
      <trkpt lat="46.170767806470394" lon="10.57824888266623">
        <ele>2712.5</ele>
        <time>2015-08-01T13:03:45Z</time>
      </trkpt>
      <trkpt lat="46.170751713216305" lon="10.578260030597448">
        <ele>2712.98</ele>
        <time>2015-08-01T13:03:52Z</time>
      </trkpt>
      <trkpt lat="46.170720532536507" lon="10.578224575147033">
        <ele>2713.9400000000001</ele>
        <time>2015-08-01T13:04:00Z</time>
      </trkpt>
      <trkpt lat="46.170701421797276" lon="10.578203620389104">
        <ele>2715.3800000000001</ele>
        <time>2015-08-01T13:04:10Z</time>
      </trkpt>
      <trkpt lat="46.170686334371567" lon="10.57821904309094">
        <ele>2717.3000000000002</ele>
        <time>2015-08-01T13:04:19Z</time>
      </trkpt>
      <trkpt lat="46.170657752081752" lon="10.578234381973743">
        <ele>2717.7800000000002</ele>
        <time>2015-08-01T13:04:27Z</time>
      </trkpt>
      <trkpt lat="46.170625062659383" lon="10.578258857131004">
        <ele>2717.7800000000002</ele>
        <time>2015-08-01T13:04:36Z</time>
      </trkpt>
      <trkpt lat="46.170592121779919" lon="10.578257851302624">
        <ele>2719.23</ele>
        <time>2015-08-01T13:04:45Z</time>
      </trkpt>
      <trkpt lat="46.170566976070404" lon="10.578273190185428">
        <ele>2720.1900000000001</ele>
        <time>2015-08-01T13:04:53Z</time>
      </trkpt>
      <trkpt lat="46.170524479821324" lon="10.578252486884594">
        <ele>2721.6300000000001</ele>
        <time>2015-08-01T13:05:03Z</time>
      </trkpt>
      <trkpt lat="46.170496987178922" lon="10.578288612887263">
        <ele>2721.6300000000001</ele>
        <time>2015-08-01T13:05:12Z</time>
      </trkpt>
      <trkpt lat="46.170484162867069" lon="10.578312333673239">
        <ele>2720.6700000000001</ele>
        <time>2015-08-01T13:05:20Z</time>
      </trkpt>
      <trkpt lat="46.170491622760892" lon="10.578282158821821">
        <ele>2721.1500000000001</ele>
        <time>2015-08-01T13:05:45Z</time>
      </trkpt>
      <trkpt lat="46.170524563640356" lon="10.578259108588099">
        <ele>2720.6700000000001</ele>
        <time>2015-08-01T13:05:54Z</time>
      </trkpt>
      <trkpt lat="46.170518863946199" lon="10.578269334509969">
        <ele>2719.71</ele>
        <time>2015-08-01T13:06:02Z</time>
      </trkpt>
      <trkpt lat="46.170527245849371" lon="10.578272519633174">
        <ele>2720.1900000000001</ele>
        <time>2015-08-01T13:06:31Z</time>
      </trkpt>
      <trkpt lat="46.170515595003963" lon="10.578270424157381">
        <ele>2720.1900000000001</ele>
        <time>2015-08-01T13:06:45Z</time>
      </trkpt>
      <trkpt lat="46.170505285263062" lon="10.578261455520988">
        <ele>2720.1900000000001</ele>
        <time>2015-08-01T13:07:10Z</time>
      </trkpt>
      <trkpt lat="46.170511404052377" lon="10.578274698927999">
        <ele>2720.6700000000001</ele>
        <time>2015-08-01T13:07:40Z</time>
      </trkpt>
      <trkpt lat="46.170513583347201" lon="10.578277800232172">
        <ele>2720.6700000000001</ele>
        <time>2015-08-01T13:07:47Z</time>
      </trkpt>
      <trkpt lat="46.170513667166233" lon="10.578225329518318">
        <ele>2721.1500000000001</ele>
        <time>2015-08-01T13:07:57Z</time>
      </trkpt>
      <trkpt lat="46.170537890866399" lon="10.578160202130675">
        <ele>2723.5500000000002</ele>
        <time>2015-08-01T13:08:08Z</time>
      </trkpt>
      <trkpt lat="46.170528922230005" lon="10.578071773052216">
        <ele>2723.0700000000002</ele>
        <time>2015-08-01T13:08:17Z</time>
      </trkpt>
      <trkpt lat="46.170562449842691" lon="10.577990217134356">
        <ele>2722.5900000000001</ele>
        <time>2015-08-01T13:08:27Z</time>
      </trkpt>
      <trkpt lat="46.170581141486764" lon="10.577936572954059">
        <ele>2723.5500000000002</ele>
        <time>2015-08-01T13:08:36Z</time>
      </trkpt>
      <trkpt lat="46.170570077374578" lon="10.577936908230186">
        <ele>2724.0300000000002</ele>
        <time>2015-08-01T13:08:38Z</time>
      </trkpt>
      <trkpt lat="46.170541327446699" lon="10.577886700630188">
        <ele>2724.0300000000002</ele>
        <time>2015-08-01T13:08:46Z</time>
      </trkpt>
      <trkpt lat="46.17054870352149" lon="10.57778175920248">
        <ele>2725.48</ele>
        <time>2015-08-01T13:08:58Z</time>
      </trkpt>
      <trkpt lat="46.170538896694779" lon="10.577700790017843">
        <ele>2726.4400000000001</ele>
        <time>2015-08-01T13:09:08Z</time>
      </trkpt>
      <trkpt lat="46.170496232807636" lon="10.577612528577447">
        <ele>2727.8800000000001</ele>
        <time>2015-08-01T13:09:20Z</time>
      </trkpt>
      <trkpt lat="46.17046907544136" lon="10.577565254643559">
        <ele>2728.8400000000001</ele>
        <time>2015-08-01T13:09:31Z</time>
      </trkpt>
      <trkpt lat="46.170416856184602" lon="10.577562907710671">
        <ele>2729.8000000000002</ele>
        <time>2015-08-01T13:09:44Z</time>
      </trkpt>
      <trkpt lat="46.170357009395957" lon="10.577536588534713">
        <ele>2730.2800000000002</ele>
        <time>2015-08-01T13:09:56Z</time>
      </trkpt>
      <trkpt lat="46.170335384085774" lon="10.577511359006166">
        <ele>2731.7199999999998</ele>
        <time>2015-08-01T13:10:06Z</time>
      </trkpt>
      <trkpt lat="46.170344687998295" lon="10.577434748411179">
        <ele>2733.1700000000001</ele>
        <time>2015-08-01T13:10:19Z</time>
      </trkpt>
      <trkpt lat="46.170306969434023" lon="10.577401053160429">
        <ele>2734.6100000000001</ele>
        <time>2015-08-01T13:10:30Z</time>
      </trkpt>
      <trkpt lat="46.170272771269083" lon="10.577351935207844">
        <ele>2736.0500000000002</ele>
        <time>2015-08-01T13:10:42Z</time>
      </trkpt>
      <trkpt lat="46.17021543905139" lon="10.577327376231551">
        <ele>2737.4899999999998</ele>
        <time>2015-08-01T13:10:54Z</time>
      </trkpt>
      <trkpt lat="46.17017243988812" lon="10.577293932437897">
        <ele>2738.9299999999998</ele>
        <time>2015-08-01T13:11:06Z</time>
      </trkpt>
      <trkpt lat="46.170124160125852" lon="10.577286975458264">
        <ele>2739.8899999999999</ele>
        <time>2015-08-01T13:11:16Z</time>
      </trkpt>
      <trkpt lat="46.170097421854734" lon="10.577237186953425">
        <ele>2741.8200000000002</ele>
        <time>2015-08-01T13:11:29Z</time>
      </trkpt>
      <trkpt lat="46.170098930597305" lon="10.577205503359437">
        <ele>2743.2600000000002</ele>
        <time>2015-08-01T13:11:39Z</time>
      </trkpt>
      <trkpt lat="46.170052662491798" lon="10.577138951048255">
        <ele>2744.6999999999998</ele>
        <time>2015-08-01T13:11:49Z</time>
      </trkpt>
      <trkpt lat="46.17000144906342" lon="10.577064268290997">
        <ele>2745.6599999999999</ele>
        <time>2015-08-01T13:12:00Z</time>
      </trkpt>
      <trkpt lat="46.169934142380953" lon="10.577047923579812">
        <ele>2746.1399999999999</ele>
        <time>2015-08-01T13:12:10Z</time>
      </trkpt>
      <trkpt lat="46.169871697202325" lon="10.577037781476974">
        <ele>2747.5900000000001</ele>
        <time>2015-08-01T13:12:21Z</time>
      </trkpt>
      <trkpt lat="46.169839259237051" lon="10.576999392360449">
        <ele>2749.0300000000002</ele>
        <time>2015-08-01T13:12:32Z</time>
      </trkpt>
      <trkpt lat="46.169791230931878" lon="10.576992686837912">
        <ele>2749.9899999999998</ele>
        <time>2015-08-01T13:12:43Z</time>
      </trkpt>
      <trkpt lat="46.169763319194317" lon="10.576973827555776">
        <ele>2750.4699999999998</ele>
        <time>2015-08-01T13:12:51Z</time>
      </trkpt>
      <trkpt lat="46.16972828283906" lon="10.576940551400185">
        <ele>2751.4299999999998</ele>
        <time>2015-08-01T13:13:04Z</time>
      </trkpt>
      <trkpt lat="46.169716967269778" lon="10.576920602470636">
        <ele>2752.3899999999999</ele>
        <time>2015-08-01T13:13:16Z</time>
      </trkpt>
      <trkpt lat="46.169683188199997" lon="10.576912136748433">
        <ele>2754.3099999999999</ele>
        <time>2015-08-01T13:13:28Z</time>
      </trkpt>
      <trkpt lat="46.169687043875456" lon="10.576878525316715">
        <ele>2755.2800000000002</ele>
        <time>2015-08-01T13:13:38Z</time>
      </trkpt>
      <trkpt lat="46.169664580374956" lon="10.576889840885997">
        <ele>2756.2399999999998</ele>
        <time>2015-08-01T13:13:49Z</time>
      </trkpt>
      <trkpt lat="46.169638009741902" lon="10.576879363507032">
        <ele>2757.1999999999998</ele>
        <time>2015-08-01T13:14:01Z</time>
      </trkpt>
      <trkpt lat="46.169627448543906" lon="10.576864946633577">
        <ele>2758.1599999999999</ele>
        <time>2015-08-01T13:14:13Z</time>
      </trkpt>
      <trkpt lat="46.169625939801335" lon="10.576825467869639">
        <ele>2760.0799999999999</ele>
        <time>2015-08-01T13:14:23Z</time>
      </trkpt>
      <trkpt lat="46.16958855651319" lon="10.576803842559457">
        <ele>2761.52</ele>
        <time>2015-08-01T13:14:33Z</time>
      </trkpt>
      <trkpt lat="46.16956265643239" lon="10.576807949692011">
        <ele>2763.4499999999998</ele>
        <time>2015-08-01T13:14:46Z</time>
      </trkpt>
      <trkpt lat="46.169537594541907" lon="10.57681867852807">
        <ele>2764.4099999999999</ele>
        <time>2015-08-01T13:14:55Z</time>
      </trkpt>
      <trkpt lat="46.169505743309855" lon="10.576767213642597">
        <ele>2766.3299999999999</ele>
        <time>2015-08-01T13:15:06Z</time>
      </trkpt>
      <trkpt lat="46.169501384720206" lon="10.576803339645267">
        <ele>2766.8099999999999</ele>
        <time>2015-08-01T13:15:16Z</time>
      </trkpt>
      <trkpt lat="46.169468024745584" lon="10.576778529211879">
        <ele>2767.29</ele>
        <time>2015-08-01T13:15:25Z</time>
      </trkpt>
      <trkpt lat="46.169442627578974" lon="10.576771572232246">
        <ele>2769.21</ele>
        <time>2015-08-01T13:15:34Z</time>
      </trkpt>
      <trkpt lat="46.16940138861537" lon="10.576792443171144">
        <ele>2769.21</ele>
        <time>2015-08-01T13:15:46Z</time>
      </trkpt>
      <trkpt lat="46.169367861002684" lon="10.576796215027571">
        <ele>2769.21</ele>
        <time>2015-08-01T13:15:54Z</time>
      </trkpt>
      <trkpt lat="46.169360065832734" lon="10.576798813417554">
        <ele>2769.6999999999998</ele>
        <time>2015-08-01T13:15:55Z</time>
      </trkpt>
      <trkpt lat="46.169327795505524" lon="10.576799316331744">
        <ele>2769.6999999999998</ele>
        <time>2015-08-01T13:15:58Z</time>
      </trkpt>
      <trkpt lat="46.169280186295509" lon="10.576818929985166">
        <ele>2770.6599999999999</ele>
        <time>2015-08-01T13:16:09Z</time>
      </trkpt>
      <trkpt lat="46.169258058071136" lon="10.576816080138087">
        <ele>2771.1399999999999</ele>
        <time>2015-08-01T13:16:18Z</time>
      </trkpt>
      <trkpt lat="46.169245401397347" lon="10.576842147856951">
        <ele>2773.0599999999999</ele>
        <time>2015-08-01T13:16:22Z</time>
      </trkpt>
      <trkpt lat="46.169215813279152" lon="10.57684013620019">
        <ele>2773.54</ele>
        <time>2015-08-01T13:16:30Z</time>
      </trkpt>
      <trkpt lat="46.169181196019053" lon="10.576853128150105">
        <ele>2774.98</ele>
        <time>2015-08-01T13:16:40Z</time>
      </trkpt>
      <trkpt lat="46.169156972318888" lon="10.576853966340423">
        <ele>2776.4200000000001</ele>
        <time>2015-08-01T13:16:44Z</time>
      </trkpt>
      <trkpt lat="46.169131072238088" lon="10.576853631064296">
        <ele>2776.4200000000001</ele>
        <time>2015-08-01T13:16:52Z</time>
      </trkpt>
      <trkpt lat="46.169087151065469" lon="10.576859833672643">
        <ele>2776.9099999999999</ele>
        <time>2015-08-01T13:17:03Z</time>
      </trkpt>
      <trkpt lat="46.169042224064469" lon="10.576848434284329">
        <ele>2777.3899999999999</ele>
        <time>2015-08-01T13:17:12Z</time>
      </trkpt>
      <trkpt lat="46.16902906447649" lon="10.576824378222227">
        <ele>2778.8299999999999</ele>
        <time>2015-08-01T13:17:21Z</time>
      </trkpt>
      <trkpt lat="46.169031411409378" lon="10.576790347695351">
        <ele>2779.79</ele>
        <time>2015-08-01T13:17:34Z</time>
      </trkpt>
      <trkpt lat="46.169021772220731" lon="10.576771069318056">
        <ele>2780.75</ele>
        <time>2015-08-01T13:17:47Z</time>
      </trkpt>
      <trkpt lat="46.169037949293852" lon="10.576744917780161">
        <ele>2781.71</ele>
        <time>2015-08-01T13:18:01Z</time>
      </trkpt>
      <trkpt lat="46.169054880738258" lon="10.576715832576156">
        <ele>2782.6700000000001</ele>
        <time>2015-08-01T13:18:09Z</time>
      </trkpt>
      <trkpt lat="46.169066112488508" lon="10.576658751815557">
        <ele>2784.1199999999999</ele>
        <time>2015-08-01T13:18:20Z</time>
      </trkpt>
      <trkpt lat="46.169099472463131" lon="10.576625810936093">
        <ele>2785.5599999999999</ele>
        <time>2015-08-01T13:18:32Z</time>
      </trkpt>
      <trkpt lat="46.169091090559959" lon="10.576589098200202">
        <ele>2786.52</ele>
        <time>2015-08-01T13:18:41Z</time>
      </trkpt>
      <trkpt lat="46.169080445542932" lon="10.576553558930755">
        <ele>2787.96</ele>
        <time>2015-08-01T13:18:49Z</time>
      </trkpt>
      <trkpt lat="46.169079188257456" lon="10.576528832316399">
        <ele>2788.9200000000001</ele>
        <time>2015-08-01T13:18:58Z</time>
      </trkpt>
      <trkpt lat="46.169043146073818" lon="10.576540902256966">
        <ele>2789.8800000000001</ele>
        <time>2015-08-01T13:19:06Z</time>
      </trkpt>
      <trkpt lat="46.169002242386341" lon="10.576539728790522">
        <ele>2790.8400000000001</ele>
        <time>2015-08-01T13:19:15Z</time>
      </trkpt>
      <trkpt lat="46.168970307335258" lon="10.57653327472508">
        <ele>2791.8099999999999</ele>
        <time>2015-08-01T13:19:25Z</time>
      </trkpt>
      <trkpt lat="46.168940551578999" lon="10.576480552554131">
        <ele>2793.73</ele>
        <time>2015-08-01T13:19:35Z</time>
      </trkpt>
      <trkpt lat="46.168973073363304" lon="10.576440235599875">
        <ele>2794.6900000000001</ele>
        <time>2015-08-01T13:19:46Z</time>
      </trkpt>
      <trkpt lat="46.168968379497528" lon="10.576439145952463">
        <ele>2795.1700000000001</ele>
        <time>2015-08-01T13:20:01Z</time>
      </trkpt>
      <trkpt lat="46.168948346748948" lon="10.576431350782514">
        <ele>2795.6500000000001</ele>
        <time>2015-08-01T13:20:12Z</time>
      </trkpt>
      <trkpt lat="46.16896259598434" lon="10.576438894495368">
        <ele>2796.1300000000001</ele>
        <time>2015-08-01T13:20:26Z</time>
      </trkpt>
      <trkpt lat="46.168953040614724" lon="10.576441073790193">
        <ele>2796.6100000000001</ele>
        <time>2015-08-01T13:20:46Z</time>
      </trkpt>
      <trkpt lat="46.168951531872153" lon="10.576459178701043">
        <ele>2796.6100000000001</ele>
        <time>2015-08-01T13:21:00Z</time>
      </trkpt>
      <trkpt lat="46.16894306614995" lon="10.57642187923193">
        <ele>2796.6100000000001</ele>
        <time>2015-08-01T13:21:17Z</time>
      </trkpt>
      <trkpt lat="46.168932002037764" lon="10.576420621946454">
        <ele>2796.6100000000001</ele>
        <time>2015-08-01T13:21:46Z</time>
      </trkpt>
      <trkpt lat="46.168923620134592" lon="10.576426573097706">
        <ele>2796.6100000000001</ele>
        <time>2015-08-01T13:22:08Z</time>
      </trkpt>
      <trkpt lat="46.168946754187346" lon="10.57643311098218">
        <ele>2797.0900000000001</ele>
        <time>2015-08-01T13:22:24Z</time>
      </trkpt>
      <trkpt lat="46.168969720602036" lon="10.576380891725421">
        <ele>2798.0500000000002</ele>
        <time>2015-08-01T13:22:35Z</time>
      </trkpt>
      <trkpt lat="46.16897776722908" lon="10.576359014958143">
        <ele>2799.5</ele>
        <time>2015-08-01T13:22:46Z</time>
      </trkpt>
      <trkpt lat="46.16898313164711" lon="10.576295899227262">
        <ele>2800.46</ele>
        <time>2015-08-01T13:22:56Z</time>
      </trkpt>
      <trkpt lat="46.168992938473821" lon="10.576244937255979">
        <ele>2801.4200000000001</ele>
        <time>2015-08-01T13:23:05Z</time>
      </trkpt>
      <trkpt lat="46.169005930423737" lon="10.576205039396882">
        <ele>2802.3800000000001</ele>
        <time>2015-08-01T13:23:13Z</time>
      </trkpt>
      <trkpt lat="46.168993357568979" lon="10.576190957799554">
        <ele>2803.3400000000001</ele>
        <time>2015-08-01T13:23:21Z</time>
      </trkpt>
      <trkpt lat="46.16897089406848" lon="10.576176960021257">
        <ele>2804.3000000000002</ele>
        <time>2015-08-01T13:23:29Z</time>
      </trkpt>
      <trkpt lat="46.168962260708213" lon="10.576120298355818">
        <ele>2806.23</ele>
        <time>2015-08-01T13:23:40Z</time>
      </trkpt>
      <trkpt lat="46.168932169675827" lon="10.576113341376185">
        <ele>2807.1900000000001</ele>
        <time>2015-08-01T13:23:49Z</time>
      </trkpt>
      <trkpt lat="46.168899647891521" lon="10.576093979179859">
        <ele>2808.6300000000001</ele>
        <time>2015-08-01T13:24:01Z</time>
      </trkpt>
      <trkpt lat="46.168892439454794" lon="10.576075119897723">
        <ele>2809.1100000000001</ele>
        <time>2015-08-01T13:24:16Z</time>
      </trkpt>
      <trkpt lat="46.168883638456464" lon="10.576043101027608">
        <ele>2810.0700000000002</ele>
        <time>2015-08-01T13:24:23Z</time>
      </trkpt>
      <trkpt lat="46.168860169127584" lon="10.576036227867007">
        <ele>2811.5100000000002</ele>
        <time>2015-08-01T13:24:30Z</time>
      </trkpt>
      <trkpt lat="46.168842567130923" lon="10.576032623648643">
        <ele>2812.4699999999998</ele>
        <time>2015-08-01T13:24:39Z</time>
      </trkpt>
      <trkpt lat="46.168816164135933" lon="10.576035222038627">
        <ele>2813.4400000000001</ele>
        <time>2015-08-01T13:24:49Z</time>
      </trkpt>
      <trkpt lat="46.168810967355967" lon="10.576031785458326">
        <ele>2813.4400000000001</ele>
        <time>2015-08-01T13:25:02Z</time>
      </trkpt>
      <trkpt lat="46.168768806383014" lon="10.576029354706407">
        <ele>2815.8400000000001</ele>
        <time>2015-08-01T13:25:13Z</time>
      </trkpt>
      <trkpt lat="46.168728824704885" lon="10.576027762144804">
        <ele>2816.3200000000002</ele>
        <time>2015-08-01T13:25:22Z</time>
      </trkpt>
      <trkpt lat="46.168734775856137" lon="10.575986271724105">
        <ele>2817.2800000000002</ele>
        <time>2015-08-01T13:25:30Z</time>
      </trkpt>
      <trkpt lat="46.168727483600378" lon="10.575939416885376">
        <ele>2818.7199999999998</ele>
        <time>2015-08-01T13:25:38Z</time>
      </trkpt>
      <trkpt lat="46.168686579912901" lon="10.575939249247313">
        <ele>2819.6799999999998</ele>
        <time>2015-08-01T13:25:47Z</time>
      </trkpt>
      <trkpt lat="46.168656656518579" lon="10.575944362208247">
        <ele>2820.1599999999999</ele>
        <time>2015-08-01T13:25:56Z</time>
      </trkpt>
      <trkpt lat="46.168654812499881" lon="10.5759122595191">
        <ele>2821.1300000000001</ele>
        <time>2015-08-01T13:26:06Z</time>
      </trkpt>
      <trkpt lat="46.168680042028427" lon="10.575865572318435">
        <ele>2823.0500000000002</ele>
        <time>2015-08-01T13:26:17Z</time>
      </trkpt>
      <trkpt lat="46.168697644025087" lon="10.575846377760172">
        <ele>2824.0100000000002</ele>
        <time>2015-08-01T13:26:26Z</time>
      </trkpt>
      <trkpt lat="46.168702756986022" lon="10.575828440487385">
        <ele>2825.9299999999998</ele>
        <time>2015-08-01T13:26:37Z</time>
      </trkpt>
      <trkpt lat="46.168733853846788" lon="10.575786111876369">
        <ele>2827.8499999999999</ele>
        <time>2015-08-01T13:26:47Z</time>
      </trkpt>
      <trkpt lat="46.168768890202045" lon="10.575772617012262">
        <ele>2827.8499999999999</ele>
        <time>2015-08-01T13:26:57Z</time>
      </trkpt>
      <trkpt lat="46.168771823868155" lon="10.57575199753046">
        <ele>2829.3000000000002</ele>
        <time>2015-08-01T13:27:05Z</time>
      </trkpt>
      <trkpt lat="46.16877886466682" lon="10.575705813243985">
        <ele>2830.2600000000002</ele>
        <time>2015-08-01T13:27:15Z</time>
      </trkpt>
      <trkpt lat="46.168785402551293" lon="10.575677650049329">
        <ele>2831.2199999999998</ele>
        <time>2015-08-01T13:27:23Z</time>
      </trkpt>
      <trkpt lat="46.168806189671159" lon="10.575655102729797">
        <ele>2832.1799999999998</ele>
        <time>2015-08-01T13:27:32Z</time>
      </trkpt>
      <trkpt lat="46.168809542432427" lon="10.57563129812479">
        <ele>2833.6199999999999</ele>
        <time>2015-08-01T13:27:41Z</time>
      </trkpt>
      <trkpt lat="46.168808955699205" lon="10.575615121051669">
        <ele>2834.0999999999999</ele>
        <time>2015-08-01T13:27:49Z</time>
      </trkpt>
      <trkpt lat="46.168775092810392" lon="10.575623922049999">
        <ele>2835.5500000000002</ele>
        <time>2015-08-01T13:27:59Z</time>
      </trkpt>
      <trkpt lat="46.168749108910561" lon="10.575628699734807">
        <ele>2835.0599999999999</ele>
        <time>2015-08-01T13:28:08Z</time>
      </trkpt>
      <trkpt lat="46.168712563812733" lon="10.575632890686393">
        <ele>2836.0300000000002</ele>
        <time>2015-08-01T13:28:18Z</time>
      </trkpt>
      <trkpt lat="46.168685238808393" lon="10.575664490461349">
        <ele>2835.5500000000002</ele>
        <time>2015-08-01T13:28:27Z</time>
      </trkpt>
      <trkpt lat="46.168657997623086" lon="10.575691731646657">
        <ele>2834.0999999999999</ele>
        <time>2015-08-01T13:28:35Z</time>
      </trkpt>
      <trkpt lat="46.168622290715575" lon="10.5757050588727">
        <ele>2834.0999999999999</ele>
        <time>2015-08-01T13:28:44Z</time>
      </trkpt>
      <trkpt lat="46.168563449755311" lon="10.575707489624619">
        <ele>2834.0999999999999</ele>
        <time>2015-08-01T13:28:53Z</time>
      </trkpt>
      <trkpt lat="46.16853017359972" lon="10.575704807415605">
        <ele>2834.0999999999999</ele>
        <time>2015-08-01T13:29:03Z</time>
      </trkpt>
      <trkpt lat="46.168504944071174" lon="10.575690977275372">
        <ele>2835.5500000000002</ele>
        <time>2015-08-01T13:29:12Z</time>
      </trkpt>
      <trkpt lat="46.168471165001392" lon="10.575706399977207">
        <ele>2836.0300000000002</ele>
        <time>2015-08-01T13:29:21Z</time>
      </trkpt>
      <trkpt lat="46.168444762006402" lon="10.575723331421614">
        <ele>2836.5100000000002</ele>
        <time>2015-08-01T13:29:31Z</time>
      </trkpt>
      <trkpt lat="46.168411988765001" lon="10.575732467696071">
        <ele>2836.0300000000002</ele>
        <time>2015-08-01T13:29:38Z</time>
      </trkpt>
      <trkpt lat="46.168395141139627" lon="10.575734563171864">
        <ele>2836.9899999999998</ele>
        <time>2015-08-01T13:29:46Z</time>
      </trkpt>
      <trkpt lat="46.168388603255153" lon="10.575741520151496">
        <ele>2837.9499999999998</ele>
        <time>2015-08-01T13:29:50Z</time>
      </trkpt>
      <trkpt lat="46.168370665982366" lon="10.575728444382548">
        <ele>2839.3899999999999</ele>
        <time>2015-08-01T13:29:58Z</time>
      </trkpt>
      <trkpt lat="46.168338228017092" lon="10.575723918154836">
        <ele>2840.8299999999999</ele>
        <time>2015-08-01T13:30:08Z</time>
      </trkpt>
      <trkpt lat="46.168310903012753" lon="10.57570606470108">
        <ele>2841.3099999999999</ele>
        <time>2015-08-01T13:30:18Z</time>
      </trkpt>
      <trkpt lat="46.168299419805408" lon="10.575723079964519">
        <ele>2842.2800000000002</ele>
        <time>2015-08-01T13:30:28Z</time>
      </trkpt>
      <trkpt lat="46.168273268267512" lon="10.575748896226287">
        <ele>2843.2399999999998</ele>
        <time>2015-08-01T13:30:36Z</time>
      </trkpt>
      <trkpt lat="46.168257342651486" lon="10.575791308656335">
        <ele>2843.2399999999998</ele>
        <time>2015-08-01T13:30:46Z</time>
      </trkpt>
      <trkpt lat="46.168233286589384" lon="10.57574906386435">
        <ele>2844.6799999999998</ele>
        <time>2015-08-01T13:30:56Z</time>
      </trkpt>
      <trkpt lat="46.168247116729617" lon="10.575786028057337">
        <ele>2845.6399999999999</ele>
        <time>2015-08-01T13:31:07Z</time>
      </trkpt>
      <trkpt lat="46.16823504678905" lon="10.575776807963848">
        <ele>2845.6399999999999</ele>
        <time>2015-08-01T13:31:22Z</time>
      </trkpt>
      <trkpt lat="46.168225072324276" lon="10.575778149068356">
        <ele>2845.1599999999999</ele>
        <time>2015-08-01T13:31:31Z</time>
      </trkpt>
      <trkpt lat="46.168207470327616" lon="10.575773287564516">
        <ele>2846.1199999999999</ele>
        <time>2015-08-01T13:31:39Z</time>
      </trkpt>
      <trkpt lat="46.168175367638469" lon="10.575754763558507">
        <ele>2846.5999999999999</ele>
        <time>2015-08-01T13:31:49Z</time>
      </trkpt>
      <trkpt lat="46.168143935501575" lon="10.575789967551827">
        <ele>2849</ele>
        <time>2015-08-01T13:31:59Z</time>
      </trkpt>
      <trkpt lat="46.168143432587385" lon="10.575799187645316">
        <ele>2849</ele>
        <time>2015-08-01T13:32:00Z</time>
      </trkpt>
      <trkpt lat="46.168097080662847" lon="10.575796840712428">
        <ele>2851.4099999999999</ele>
        <time>2015-08-01T13:32:09Z</time>
      </trkpt>
      <trkpt lat="46.168074114248157" lon="10.575798768550158">
        <ele>2851.8899999999999</ele>
        <time>2015-08-01T13:32:19Z</time>
      </trkpt>
      <trkpt lat="46.168053243309259" lon="10.575789883732796">
        <ele>2852.3699999999999</ele>
        <time>2015-08-01T13:32:27Z</time>
      </trkpt>
      <trkpt lat="46.168026672676206" lon="10.575809329748154">
        <ele>2853.3299999999999</ele>
        <time>2015-08-01T13:32:37Z</time>
      </trkpt>
      <trkpt lat="46.168022565543652" lon="10.575776640325785">
        <ele>2853.8099999999999</ele>
        <time>2015-08-01T13:32:47Z</time>
      </trkpt>
      <trkpt lat="46.168014518916607" lon="10.575751410797238">
        <ele>2855.25</ele>
        <time>2015-08-01T13:32:50Z</time>
      </trkpt>
      <trkpt lat="46.168002029880881" lon="10.575702041387558">
        <ele>2855.25</ele>
        <time>2015-08-01T13:33:00Z</time>
      </trkpt>
      <trkpt lat="46.168005298823118" lon="10.575656862929463">
        <ele>2856.21</ele>
        <time>2015-08-01T13:33:13Z</time>
      </trkpt>
      <trkpt lat="46.167997755110264" lon="10.57561419904232">
        <ele>2857.1799999999998</ele>
        <time>2015-08-01T13:33:22Z</time>
      </trkpt>
      <trkpt lat="46.168009825050831" lon="10.575530296191573">
        <ele>2858.6199999999999</ele>
        <time>2015-08-01T13:33:33Z</time>
      </trkpt>
      <trkpt lat="46.168019128963351" lon="10.575484531000257">
        <ele>2860.0599999999999</ele>
        <time>2015-08-01T13:33:42Z</time>
      </trkpt>
      <trkpt lat="46.168008986860514" lon="10.5754598043859">
        <ele>2860.54</ele>
        <time>2015-08-01T13:33:55Z</time>
      </trkpt>
      <trkpt lat="46.168033294379711" lon="10.575426779687405">
        <ele>2862.46</ele>
        <time>2015-08-01T13:34:04Z</time>
      </trkpt>
      <trkpt lat="46.168047543615103" lon="10.575408339500427">
        <ele>2863.4200000000001</ele>
        <time>2015-08-01T13:34:14Z</time>
      </trkpt>
      <trkpt lat="46.168053159490228" lon="10.575376152992249">
        <ele>2864.3899999999999</ele>
        <time>2015-08-01T13:34:25Z</time>
      </trkpt>
      <trkpt lat="46.168040418997407" lon="10.575337847694755">
        <ele>2866.3099999999999</ele>
        <time>2015-08-01T13:34:37Z</time>
      </trkpt>
      <trkpt lat="46.168017955496907" lon="10.575297782197595">
        <ele>2867.75</ele>
        <time>2015-08-01T13:34:47Z</time>
      </trkpt>
      <trkpt lat="46.168017955496907" lon="10.575297782197595">
        <ele>2842.7600000000002</ele>
        <time>2015-08-01T13:37:53Z</time>
      </trkpt>
      <trkpt lat="46.168118705973029" lon="10.574998464435339">
        <ele>2840.8299999999999</ele>
        <time>2015-08-01T13:38:01Z</time>
      </trkpt>
      <trkpt lat="46.168074449524283" lon="10.574962170794606">
        <ele>2844.1999999999998</ele>
        <time>2015-08-01T13:38:10Z</time>
      </trkpt>
      <trkpt lat="46.168067073449492" lon="10.574967451393604">
        <ele>2847.5599999999999</ele>
        <time>2015-08-01T13:38:13Z</time>
      </trkpt>
      <trkpt lat="46.168070929124951" lon="10.574970049783587">
        <ele>2850.9299999999998</ele>
        <time>2015-08-01T13:38:16Z</time>
      </trkpt>
      <trkpt lat="46.168061038479209" lon="10.574981616809964">
        <ele>2854.29</ele>
        <time>2015-08-01T13:38:20Z</time>
      </trkpt>
      <trkpt lat="46.168058188632131" lon="10.574987484142184">
        <ele>2857.1799999999998</ele>
        <time>2015-08-01T13:38:24Z</time>
      </trkpt>
      <trkpt lat="46.168058188632131" lon="10.574988322332501">
        <ele>2860.54</ele>
        <time>2015-08-01T13:38:28Z</time>
      </trkpt>
      <trkpt lat="46.168051650747657" lon="10.574985053390265">
        <ele>2863.4200000000001</ele>
        <time>2015-08-01T13:38:34Z</time>
      </trkpt>
      <trkpt lat="46.168057769536972" lon="10.574989160522819">
        <ele>2866.79</ele>
        <time>2015-08-01T13:38:40Z</time>
      </trkpt>
      <trkpt lat="46.168065397068858" lon="10.574997123330832">
        <ele>2869.6700000000001</ele>
        <time>2015-08-01T13:38:47Z</time>
      </trkpt>
      <trkpt lat="46.168066989630461" lon="10.57499947026372">
        <ele>2870.6300000000001</ele>
        <time>2015-08-01T13:38:49Z</time>
      </trkpt>
      <trkpt lat="46.168078053742647" lon="10.574995949864388">
        <ele>2874</ele>
        <time>2015-08-01T13:39:00Z</time>
      </trkpt>
      <trkpt lat="46.168084675446153" lon="10.574996368959546">
        <ele>2877.3600000000001</ele>
        <time>2015-08-01T13:39:12Z</time>
      </trkpt>
      <trkpt lat="46.168069923296571" lon="10.574993602931499">
        <ele>2878.8099999999999</ele>
        <time>2015-08-01T13:39:31Z</time>
      </trkpt>
      <trkpt lat="46.168078556656837" lon="10.575016736984253">
        <ele>2879.77</ele>
        <time>2015-08-01T13:39:48Z</time>
      </trkpt>
      <trkpt lat="46.168069588020444" lon="10.575015228241682">
        <ele>2881.21</ele>
        <time>2015-08-01T13:40:06Z</time>
      </trkpt>
      <trkpt lat="46.168061038479209" lon="10.575012797489762">
        <ele>2881.21</ele>
        <time>2015-08-01T13:40:20Z</time>
      </trkpt>
      <trkpt lat="46.168069588020444" lon="10.57503123767674">
        <ele>2881.6900000000001</ele>
        <time>2015-08-01T13:40:38Z</time>
      </trkpt>
      <trkpt lat="46.16805424913764" lon="10.575011791661382">
        <ele>2881.6900000000001</ele>
        <time>2015-08-01T13:40:54Z</time>
      </trkpt>
      <trkpt lat="46.168066319078207" lon="10.574988573789597">
        <ele>2880.73</ele>
        <time>2015-08-01T13:41:12Z</time>
      </trkpt>
      <trkpt lat="46.168067073449492" lon="10.575010702013969">
        <ele>2881.6900000000001</ele>
        <time>2015-08-01T13:41:25Z</time>
      </trkpt>
      <trkpt lat="46.168053662404418" lon="10.575011540204287">
        <ele>2880.73</ele>
        <time>2015-08-01T13:41:44Z</time>
      </trkpt>
      <trkpt lat="46.168041927739978" lon="10.575009025633335">
        <ele>2882.1700000000001</ele>
        <time>2015-08-01T13:41:54Z</time>
      </trkpt>
      <trkpt lat="46.168008483946323" lon="10.575013635680079">
        <ele>2883.1300000000001</ele>
        <time>2015-08-01T13:42:03Z</time>
      </trkpt>
      <trkpt lat="46.167993815615773" lon="10.575035344809294">
        <ele>2884.5700000000002</ele>
        <time>2015-08-01T13:42:12Z</time>
      </trkpt>
      <trkpt lat="46.167984595522285" lon="10.575031992048025">
        <ele>2885.5300000000002</ele>
        <time>2015-08-01T13:42:25Z</time>
      </trkpt>
      <trkpt lat="46.167989624664187" lon="10.574989914894104">
        <ele>2886.02</ele>
        <time>2015-08-01T13:42:36Z</time>
      </trkpt>
      <trkpt lat="46.167999096214771" lon="10.574936103075743">
        <ele>2887.46</ele>
        <time>2015-08-01T13:42:46Z</time>
      </trkpt>
      <trkpt lat="46.167958360165358" lon="10.574939707294106">
        <ele>2887.9400000000001</ele>
        <time>2015-08-01T13:42:54Z</time>
      </trkpt>
      <trkpt lat="46.1679716873914" lon="10.57488857768476">
        <ele>2889.3800000000001</ele>
        <time>2015-08-01T13:43:00Z</time>
      </trkpt>
      <trkpt lat="46.167964059859514" lon="10.574835771694779">
        <ele>2889.8600000000001</ele>
        <time>2015-08-01T13:43:09Z</time>
      </trkpt>
      <trkpt lat="46.167948301881552" lon="10.574837364256382">
        <ele>2891.3000000000002</ele>
        <time>2015-08-01T13:43:18Z</time>
      </trkpt>
      <trkpt lat="46.167926844209433" lon="10.574827808886766">
        <ele>2891.7800000000002</ele>
        <time>2015-08-01T13:43:29Z</time>
      </trkpt>
      <trkpt lat="46.167912930250168" lon="10.574855804443359">
        <ele>2891.3000000000002</ele>
        <time>2015-08-01T13:43:40Z</time>
      </trkpt>
      <trkpt lat="46.16788468323648" lon="10.574853960424662">
        <ele>2892.2600000000002</ele>
        <time>2015-08-01T13:43:49Z</time>
      </trkpt>
      <trkpt lat="46.167864231392741" lon="10.574869634583592">
        <ele>2894.1900000000001</ele>
        <time>2015-08-01T13:43:58Z</time>
      </trkpt>
      <trkpt lat="46.167831793427467" lon="10.574886985123158">
        <ele>2894.6700000000001</ele>
        <time>2015-08-01T13:44:07Z</time>
      </trkpt>
      <trkpt lat="46.167801953852177" lon="10.574881369248033">
        <ele>2895.1500000000001</ele>
        <time>2015-08-01T13:44:15Z</time>
      </trkpt>
      <trkpt lat="46.167772449553013" lon="10.574880447238684">
        <ele>2895.1500000000001</ele>
        <time>2015-08-01T13:44:25Z</time>
      </trkpt>
      <trkpt lat="46.167730540037155" lon="10.5748968757689">
        <ele>2895.6300000000001</ele>
        <time>2015-08-01T13:44:35Z</time>
      </trkpt>
      <trkpt lat="46.16769801825285" lon="10.574898216873407">
        <ele>2896.5900000000001</ele>
        <time>2015-08-01T13:44:42Z</time>
      </trkpt>
      <trkpt lat="46.167682595551014" lon="10.574933839961886">
        <ele>2896.5900000000001</ele>
        <time>2015-08-01T13:44:50Z</time>
      </trkpt>
      <trkpt lat="46.167659964412451" lon="10.574938198551536">
        <ele>2896.5900000000001</ele>
        <time>2015-08-01T13:44:59Z</time>
      </trkpt>
      <trkpt lat="46.16761545650661" lon="10.574928810819983">
        <ele>2897.5500000000002</ele>
        <time>2015-08-01T13:45:06Z</time>
      </trkpt>
      <trkpt lat="46.167567344382405" lon="10.574958901852369">
        <ele>2898.0300000000002</ele>
        <time>2015-08-01T13:45:17Z</time>
      </trkpt>
      <trkpt lat="46.167564410716295" lon="10.574904000386596">
        <ele>2898.0300000000002</ele>
        <time>2015-08-01T13:45:26Z</time>
      </trkpt>
      <trkpt lat="46.167551670223475" lon="10.574876172468066">
        <ele>2898.9899999999998</ele>
        <time>2015-08-01T13:45:35Z</time>
      </trkpt>
      <trkpt lat="46.167546724900603" lon="10.57490567676723">
        <ele>2899.9499999999998</ele>
        <time>2015-08-01T13:45:46Z</time>
      </trkpt>
      <trkpt lat="46.167545299977064" lon="10.574851864948869">
        <ele>2900.4400000000001</ele>
        <time>2015-08-01T13:45:55Z</time>
      </trkpt>
      <trkpt lat="46.167517388239503" lon="10.574858151376247">
        <ele>2900.4400000000001</ele>
        <time>2015-08-01T13:46:02Z</time>
      </trkpt>
      <trkpt lat="46.167471706867218" lon="10.574857983738184">
        <ele>2901.4000000000001</ele>
        <time>2015-08-01T13:46:13Z</time>
      </trkpt>
      <trkpt lat="46.167487632483244" lon="10.574775841087103">
        <ele>2901.8800000000001</ele>
        <time>2015-08-01T13:46:24Z</time>
      </trkpt>
      <trkpt lat="46.167500792071223" lon="10.574743319302797">
        <ele>2902.8400000000001</ele>
        <time>2015-08-01T13:46:33Z</time>
      </trkpt>
      <trkpt lat="46.16747816093266" lon="10.574742313474417">
        <ele>2903.3200000000002</ele>
        <time>2015-08-01T13:46:44Z</time>
      </trkpt>
      <trkpt lat="46.16746986284852" lon="10.574734099209309">
        <ele>2904.2800000000002</ele>
        <time>2015-08-01T13:46:51Z</time>
      </trkpt>
      <trkpt lat="46.167461732402444" lon="10.574738793075085">
        <ele>2905.2399999999998</ele>
        <time>2015-08-01T13:47:00Z</time>
      </trkpt>
      <trkpt lat="46.167442286387086" lon="10.574715407565236">
        <ele>2906.6799999999998</ele>
        <time>2015-08-01T13:47:08Z</time>
      </trkpt>
      <trkpt lat="46.167416553944349" lon="10.574701074510813">
        <ele>2906.6799999999998</ele>
        <time>2015-08-01T13:47:16Z</time>
      </trkpt>
      <trkpt lat="46.167421583086252" lon="10.574735272675753">
        <ele>2906.1999999999998</ele>
        <time>2015-08-01T13:47:25Z</time>
      </trkpt>
      <trkpt lat="46.167403142899275" lon="10.574737368151546">
        <ele>2905.7199999999998</ele>
        <time>2015-08-01T13:47:35Z</time>
      </trkpt>
      <trkpt lat="46.16737749427557" lon="10.574757736176252">
        <ele>2906.1999999999998</ele>
        <time>2015-08-01T13:47:45Z</time>
      </trkpt>
      <trkpt lat="46.167344218119979" lon="10.574794616550207">
        <ele>2906.6799999999998</ele>
        <time>2015-08-01T13:47:54Z</time>
      </trkpt>
      <trkpt lat="46.167337596416473" lon="10.57480894960463">
        <ele>2907.1599999999999</ele>
        <time>2015-08-01T13:48:04Z</time>
      </trkpt>
      <trkpt lat="46.167293675243855" lon="10.574791850522161">
        <ele>2909.0900000000001</ele>
        <time>2015-08-01T13:48:13Z</time>
      </trkpt>
      <trkpt lat="46.167281186208129" lon="10.574803166091442">
        <ele>2909.5700000000002</ele>
        <time>2015-08-01T13:48:24Z</time>
      </trkpt>
      <trkpt lat="46.167268110439181" lon="10.574794197455049">
        <ele>2909.5700000000002</ele>
        <time>2015-08-01T13:48:35Z</time>
      </trkpt>
      <trkpt lat="46.1672308947891" lon="10.574817499145865">
        <ele>2910.0500000000002</ele>
        <time>2015-08-01T13:48:46Z</time>
      </trkpt>
      <trkpt lat="46.167199462652206" lon="10.574801824986935">
        <ele>2908.6100000000001</ele>
        <time>2015-08-01T13:48:51Z</time>
      </trkpt>
      <trkpt lat="46.167184459045529" lon="10.574771063402295">
        <ele>2908.6100000000001</ele>
        <time>2015-08-01T13:48:59Z</time>
      </trkpt>
      <trkpt lat="46.167172137647867" lon="10.574739463627338">
        <ele>2909.0900000000001</ele>
        <time>2015-08-01T13:49:08Z</time>
      </trkpt>
      <trkpt lat="46.167131485417485" lon="10.574725130572915">
        <ele>2910.5300000000002</ele>
        <time>2015-08-01T13:49:16Z</time>
      </trkpt>
      <trkpt lat="46.167091503739357" lon="10.574714317917824">
        <ele>2910.5300000000002</ele>
        <time>2015-08-01T13:49:25Z</time>
      </trkpt>
      <trkpt lat="46.167066777125001" lon="10.57470291852951">
        <ele>2911.9699999999998</ele>
        <time>2015-08-01T13:49:33Z</time>
      </trkpt>
      <trkpt lat="46.167028807103634" lon="10.574694201350212">
        <ele>2912.4499999999998</ele>
        <time>2015-08-01T13:49:43Z</time>
      </trkpt>
      <trkpt lat="46.167030651122332" lon="10.574651621282101">
        <ele>2913.4099999999999</ele>
        <time>2015-08-01T13:49:53Z</time>
      </trkpt>
      <trkpt lat="46.167015479877591" lon="10.574627481400967">
        <ele>2914.3699999999999</ele>
        <time>2015-08-01T13:50:04Z</time>
      </trkpt>
      <trkpt lat="46.167008941993117" lon="10.574586326256394">
        <ele>2915.3400000000001</ele>
        <time>2015-08-01T13:50:11Z</time>
      </trkpt>
      <trkpt lat="46.167015731334686" lon="10.574541566893458">
        <ele>2916.7800000000002</ele>
        <time>2015-08-01T13:50:20Z</time>
      </trkpt>
      <trkpt lat="46.16705403663218" lon="10.574511643499136">
        <ele>2916.7800000000002</ele>
        <time>2015-08-01T13:50:29Z</time>
      </trkpt>
      <trkpt lat="46.167063675820827" lon="10.574481720104814">
        <ele>2917.7399999999998</ele>
        <time>2015-08-01T13:50:38Z</time>
      </trkpt>
      <trkpt lat="46.16706233471632" lon="10.574473170563579">
        <ele>2918.6999999999998</ele>
        <time>2015-08-01T13:50:49Z</time>
      </trkpt>
      <trkpt lat="46.167049845680594" lon="10.574433440342546">
        <ele>2920.1399999999999</ele>
        <time>2015-08-01T13:50:57Z</time>
      </trkpt>
      <trkpt lat="46.16706820204854" lon="10.574419610202312">
        <ele>2920.6199999999999</ele>
        <time>2015-08-01T13:51:09Z</time>
      </trkpt>
      <trkpt lat="46.167071303352714" lon="10.574399577453732">
        <ele>2922.0599999999999</ele>
        <time>2015-08-01T13:51:20Z</time>
      </trkpt>
      <trkpt lat="46.167059317231178" lon="10.574388932436705">
        <ele>2923.0300000000002</ele>
        <time>2015-08-01T13:51:27Z</time>
      </trkpt>
      <trkpt lat="46.167050935328007" lon="10.574366552755237">
        <ele>2923.9899999999998</ele>
        <time>2015-08-01T13:51:38Z</time>
      </trkpt>
      <trkpt lat="46.167023861780763" lon="10.574379209429026">
        <ele>2924.4699999999998</ele>
        <time>2015-08-01T13:51:48Z</time>
      </trkpt>
      <trkpt lat="46.167007936164737" lon="10.57434962131083">
        <ele>2925.4299999999998</ele>
        <time>2015-08-01T13:51:57Z</time>
      </trkpt>
      <trkpt lat="46.167017323896289" lon="10.574301425367594">
        <ele>2926.3899999999999</ele>
        <time>2015-08-01T13:52:06Z</time>
      </trkpt>
      <trkpt lat="46.167017742991447" lon="10.574294719845057">
        <ele>2926.8699999999999</ele>
        <time>2015-08-01T13:52:07Z</time>
      </trkpt>
      <trkpt lat="46.167043559253216" lon="10.574265969917178">
        <ele>2927.3499999999999</ele>
        <time>2015-08-01T13:52:16Z</time>
      </trkpt>
      <trkpt lat="46.167060490697622" lon="10.57424308732152">
        <ele>2928.3099999999999</ele>
        <time>2015-08-01T13:52:25Z</time>
      </trkpt>
      <trkpt lat="46.167073817923665" lon="10.574222803115845">
        <ele>2929.27</ele>
        <time>2015-08-01T13:52:38Z</time>
      </trkpt>
      <trkpt lat="46.167059652507305" lon="10.574195059016347">
        <ele>2930.7199999999998</ele>
        <time>2015-08-01T13:52:49Z</time>
      </trkpt>
      <trkpt lat="46.167039116844535" lon="10.574199920520186">
        <ele>2931.6799999999998</ele>
        <time>2015-08-01T13:52:59Z</time>
      </trkpt>
      <trkpt lat="46.167038027197123" lon="10.574182318523526">
        <ele>2932.1599999999999</ele>
        <time>2015-08-01T13:53:08Z</time>
      </trkpt>
      <trkpt lat="46.167006427422166" lon="10.574158933013678">
        <ele>2933.5999999999999</ele>
        <time>2015-08-01T13:53:18Z</time>
      </trkpt>
      <trkpt lat="46.167009277269244" lon="10.574147114530206">
        <ele>2934.0799999999999</ele>
        <time>2015-08-01T13:53:28Z</time>
      </trkpt>
      <trkpt lat="46.167030148208141" lon="10.574120208621025">
        <ele>2935.52</ele>
        <time>2015-08-01T13:53:38Z</time>
      </trkpt>
      <trkpt lat="46.167045906186104" lon="10.574087519198656">
        <ele>2936.48</ele>
        <time>2015-08-01T13:53:47Z</time>
      </trkpt>
      <trkpt lat="46.167045403271914" lon="10.574061619117856">
        <ele>2937.4499999999998</ele>
        <time>2015-08-01T13:53:55Z</time>
      </trkpt>
      <trkpt lat="46.167047917842865" lon="10.574029348790646">
        <ele>2940.3299999999999</ele>
        <time>2015-08-01T13:54:03Z</time>
      </trkpt>
      <trkpt lat="46.167039619758725" lon="10.574008980765939">
        <ele>2939.3699999999999</ele>
        <time>2015-08-01T13:54:13Z</time>
      </trkpt>
      <trkpt lat="46.167015396058559" lon="10.57399732992053">
        <ele>2940.8099999999999</ele>
        <time>2015-08-01T13:54:22Z</time>
      </trkpt>
      <trkpt lat="46.167003661394119" lon="10.573941925540566">
        <ele>2942.25</ele>
        <time>2015-08-01T13:54:33Z</time>
      </trkpt>
      <trkpt lat="46.166985388845205" lon="10.573916947469115">
        <ele>2942.73</ele>
        <time>2015-08-01T13:54:44Z</time>
      </trkpt>
      <trkpt lat="46.166996285319328" lon="10.573900016024709">
        <ele>2943.21</ele>
        <time>2015-08-01T13:54:57Z</time>
      </trkpt>
      <trkpt lat="46.167006008327007" lon="10.573864057660103">
        <ele>2945.1399999999999</ele>
        <time>2015-08-01T13:55:07Z</time>
      </trkpt>
      <trkpt lat="46.16700860671699" lon="10.573862548917532">
        <ele>2945.1399999999999</ele>
        <time>2015-08-01T13:55:18Z</time>
      </trkpt>
      <trkpt lat="46.166995530948043" lon="10.573854418471456">
        <ele>2946.0999999999999</ele>
        <time>2015-08-01T13:55:27Z</time>
      </trkpt>
      <trkpt lat="46.167004415765405" lon="10.573823656886816">
        <ele>2947.54</ele>
        <time>2015-08-01T13:55:33Z</time>
      </trkpt>
      <trkpt lat="46.167010283097625" lon="10.573789710178971">
        <ele>2948.5</ele>
        <time>2015-08-01T13:55:41Z</time>
      </trkpt>
      <trkpt lat="46.166999889537692" lon="10.573769677430391">
        <ele>2949.46</ele>
        <time>2015-08-01T13:55:52Z</time>
      </trkpt>
      <trkpt lat="46.167015144601464" lon="10.573729360476136">
        <ele>2952.3499999999999</ele>
        <time>2015-08-01T13:56:04Z</time>
      </trkpt>
      <trkpt lat="46.167014893144369" lon="10.573720810934901">
        <ele>2951.8699999999999</ele>
        <time>2015-08-01T13:56:12Z</time>
      </trkpt>
      <trkpt lat="46.167011959478259" lon="10.573663478717208">
        <ele>2952.8299999999999</ele>
        <time>2015-08-01T13:56:20Z</time>
      </trkpt>
      <trkpt lat="46.167010283097625" lon="10.573651995509863">
        <ele>2953.79</ele>
        <time>2015-08-01T13:56:27Z</time>
      </trkpt>
      <trkpt lat="46.166986646130681" lon="10.573610505089164">
        <ele>2954.27</ele>
        <time>2015-08-01T13:56:35Z</time>
      </trkpt>
      <trkpt lat="46.16699343547225" lon="10.573534481227398">
        <ele>2955.23</ele>
        <time>2015-08-01T13:56:46Z</time>
      </trkpt>
      <trkpt lat="46.167011121287942" lon="10.573489554226398">
        <ele>2956.1900000000001</ele>
        <time>2015-08-01T13:56:57Z</time>
      </trkpt>
      <trkpt lat="46.167027382180095" lon="10.573448650538921">
        <ele>2957.6300000000001</ele>
        <time>2015-08-01T13:57:07Z</time>
      </trkpt>
      <trkpt lat="46.167017156258225" lon="10.573411853983998">
        <ele>2958.1100000000001</ele>
        <time>2015-08-01T13:57:17Z</time>
      </trkpt>
      <trkpt lat="46.167018245905638" lon="10.57337824255228">
        <ele>2958.5900000000001</ele>
        <time>2015-08-01T13:57:27Z</time>
      </trkpt>
      <trkpt lat="46.167025621980429" lon="10.573309427127242">
        <ele>2960.04</ele>
        <time>2015-08-01T13:57:39Z</time>
      </trkpt>
      <trkpt lat="46.167034087702632" lon="10.573263745754957">
        <ele>2960.52</ele>
        <time>2015-08-01T13:57:49Z</time>
      </trkpt>
      <trkpt lat="46.167037691920996" lon="10.573224350810051">
        <ele>2961</ele>
        <time>2015-08-01T13:58:00Z</time>
      </trkpt>
      <trkpt lat="46.167023777961731" lon="10.573204401880503">
        <ele>2961.96</ele>
        <time>2015-08-01T13:58:09Z</time>
      </trkpt>
      <trkpt lat="46.166986310854554" lon="10.573230050504208">
        <ele>2960.52</ele>
        <time>2015-08-01T13:58:20Z</time>
      </trkpt>
      <trkpt lat="46.166977174580097" lon="10.573234492912889">
        <ele>2963.8800000000001</ele>
        <time>2015-08-01T13:58:24Z</time>
      </trkpt>
      <trkpt lat="46.166943730786443" lon="10.573202054947615">
        <ele>2963.4000000000001</ele>
        <time>2015-08-01T13:58:34Z</time>
      </trkpt>
      <trkpt lat="46.166933001950383" lon="10.57320037856698">
        <ele>2963.8800000000001</ele>
        <time>2015-08-01T13:58:46Z</time>
      </trkpt>
      <trkpt lat="46.166910706087947" lon="10.573187470436096">
        <ele>2963.4000000000001</ele>
        <time>2015-08-01T13:58:54Z</time>
      </trkpt>
      <trkpt lat="46.166901234537363" lon="10.573185626417398">
        <ele>2963.4000000000001</ele>
        <time>2015-08-01T13:59:03Z</time>
      </trkpt>
      <trkpt lat="46.166885476559401" lon="10.57316567748785">
        <ele>2963.8800000000001</ele>
        <time>2015-08-01T13:59:13Z</time>
      </trkpt>
      <trkpt lat="46.166876591742039" lon="10.573193924501538">
        <ele>2963.4000000000001</ele>
        <time>2015-08-01T13:59:23Z</time>
      </trkpt>
      <trkpt lat="46.166880363598466" lon="10.573211777955294">
        <ele>2962.9200000000001</ele>
        <time>2015-08-01T13:59:30Z</time>
      </trkpt>
      <trkpt lat="46.166872400790453" lon="10.573227368295193">
        <ele>2962.4400000000001</ele>
        <time>2015-08-01T13:59:36Z</time>
      </trkpt>
      <trkpt lat="46.166863013058901" lon="10.573253268375993">
        <ele>2962.4400000000001</ele>
        <time>2015-08-01T13:59:47Z</time>
      </trkpt>
      <trkpt lat="46.16682730615139" lon="10.573251256719232">
        <ele>2961.48</ele>
        <time>2015-08-01T13:59:57Z</time>
      </trkpt>
      <trkpt lat="46.16680484265089" lon="10.57324874214828">
        <ele>2963.4000000000001</ele>
        <time>2015-08-01T14:00:06Z</time>
      </trkpt>
      <trkpt lat="46.166797550395131" lon="10.573182692751288">
        <ele>2963.4000000000001</ele>
        <time>2015-08-01T14:00:15Z</time>
      </trkpt>
      <trkpt lat="46.166791766881943" lon="10.573136257007718">
        <ele>2964.3600000000001</ele>
        <time>2015-08-01T14:00:26Z</time>
      </trkpt>
      <trkpt lat="46.166779696941376" lon="10.573121253401041">
        <ele>2965.3200000000002</ele>
        <time>2015-08-01T14:00:38Z</time>
      </trkpt>
      <trkpt lat="46.166762346401811" lon="10.573162576183677">
        <ele>2965.3200000000002</ele>
        <time>2015-08-01T14:00:47Z</time>
      </trkpt>
      <trkpt lat="46.166747342795134" lon="10.573149584233761">
        <ele>2965.8000000000002</ele>
        <time>2015-08-01T14:00:59Z</time>
      </trkpt>
      <trkpt lat="46.16672177799046" lon="10.573162492364645">
        <ele>2965.8000000000002</ele>
        <time>2015-08-01T14:01:08Z</time>
      </trkpt>
      <trkpt lat="46.166695961728692" lon="10.573160145431757">
        <ele>2964.3600000000001</ele>
        <time>2015-08-01T14:01:17Z</time>
      </trkpt>
      <trkpt lat="46.166677353903651" lon="10.573150841519237">
        <ele>2964.8400000000001</ele>
        <time>2015-08-01T14:01:25Z</time>
      </trkpt>
      <trkpt lat="46.166682718321681" lon="10.573112955316901">
        <ele>2964.8400000000001</ele>
        <time>2015-08-01T14:01:28Z</time>
      </trkpt>
      <trkpt lat="46.166701829060912" lon="10.573067273944616">
        <ele>2966.29</ele>
        <time>2015-08-01T14:01:36Z</time>
      </trkpt>
      <trkpt lat="46.166718425229192" lon="10.573043636977673">
        <ele>2967.73</ele>
        <time>2015-08-01T14:01:47Z</time>
      </trkpt>
      <trkpt lat="46.166727812960744" lon="10.573017485439777">
        <ele>2967.73</ele>
        <time>2015-08-01T14:01:54Z</time>
      </trkpt>
      <trkpt lat="46.166749689728022" lon="10.572970798239112">
        <ele>2968.6900000000001</ele>
        <time>2015-08-01T14:02:02Z</time>
      </trkpt>
      <trkpt lat="46.166749270632863" lon="10.572936097159982">
        <ele>2970.1300000000001</ele>
        <time>2015-08-01T14:02:08Z</time>
      </trkpt>
      <trkpt lat="46.166758239269257" lon="10.572850769385695">
        <ele>2970.1300000000001</ele>
        <time>2015-08-01T14:02:18Z</time>
      </trkpt>
      <trkpt lat="46.16676913574338" lon="10.572804501280189">
        <ele>2970.6100000000001</ele>
        <time>2015-08-01T14:02:29Z</time>
      </trkpt>
      <trkpt lat="46.166768213734031" lon="10.572790922597051">
        <ele>2970.6100000000001</ele>
        <time>2015-08-01T14:02:39Z</time>
      </trkpt>
      <trkpt lat="46.166765531525016" lon="10.572780445218086">
        <ele>2970.6100000000001</ele>
        <time>2015-08-01T14:02:41Z</time>
      </trkpt>
      <trkpt lat="46.166767962276936" lon="10.572748593986034">
        <ele>2970.1300000000001</ele>
        <time>2015-08-01T14:02:44Z</time>
      </trkpt>
      <trkpt lat="46.166788917034864" lon="10.572640215978026">
        <ele>2971.5700000000002</ele>
        <time>2015-08-01T14:02:55Z</time>
      </trkpt>
      <trkpt lat="46.166825462132692" lon="10.572526138275862">
        <ele>2971.5700000000002</ele>
        <time>2015-08-01T14:03:05Z</time>
      </trkpt>
      <trkpt lat="46.166824204847217" lon="10.572439804673195">
        <ele>2972.0500000000002</ele>
        <time>2015-08-01T14:03:14Z</time>
      </trkpt>
      <trkpt lat="46.166817331686616" lon="10.572361266240478">
        <ele>2971.5700000000002</ele>
        <time>2015-08-01T14:03:25Z</time>
      </trkpt>
      <trkpt lat="46.166819091886282" lon="10.572296725586057">
        <ele>2970.6100000000001</ele>
        <time>2015-08-01T14:03:34Z</time>
      </trkpt>
      <trkpt lat="46.166813224554062" lon="10.57221625931561">
        <ele>2969.6500000000001</ele>
        <time>2015-08-01T14:03:44Z</time>
      </trkpt>
      <trkpt lat="46.166812973096967" lon="10.572126992046833">
        <ele>2969.1700000000001</ele>
        <time>2015-08-01T14:03:53Z</time>
      </trkpt>
      <trkpt lat="46.1668268032372" lon="10.572018446400762">
        <ele>2968.6900000000001</ele>
        <time>2015-08-01T14:04:05Z</time>
      </trkpt>
      <trkpt lat="46.166835520416498" lon="10.571982320398092">
        <ele>2969.6500000000001</ele>
        <time>2015-08-01T14:04:13Z</time>
      </trkpt>
      <trkpt lat="46.166858654469252" lon="10.571949379518628">
        <ele>2970.6100000000001</ele>
        <time>2015-08-01T14:04:21Z</time>
      </trkpt>
      <trkpt lat="46.166869634762406" lon="10.571943763643503">
        <ele>2970.1300000000001</ele>
        <time>2015-08-01T14:04:31Z</time>
      </trkpt>
      <trkpt lat="46.166871478781104" lon="10.571923144161701">
        <ele>2969.6500000000001</ele>
        <time>2015-08-01T14:04:34Z</time>
      </trkpt>
      <trkpt lat="46.166882961988449" lon="10.571894478052855">
        <ele>2970.6100000000001</ele>
        <time>2015-08-01T14:04:41Z</time>
      </trkpt>
      <trkpt lat="46.166892349720001" lon="10.571817280724645">
        <ele>2971.5700000000002</ele>
        <time>2015-08-01T14:04:51Z</time>
      </trkpt>
      <trkpt lat="46.166899222880602" lon="10.571761876344681">
        <ele>2972.5300000000002</ele>
        <time>2015-08-01T14:05:00Z</time>
      </trkpt>
      <trkpt lat="46.16689620539546" lon="10.571712758392096">
        <ele>2972.5300000000002</ele>
        <time>2015-08-01T14:05:10Z</time>
      </trkpt>
      <trkpt lat="46.166909281164408" lon="10.571670597419143">
        <ele>2973.0100000000002</ele>
        <time>2015-08-01T14:05:20Z</time>
      </trkpt>
      <trkpt lat="46.166922273114324" lon="10.571638243272901">
        <ele>2973.5</ele>
        <time>2015-08-01T14:05:24Z</time>
      </trkpt>
      <trkpt lat="46.166934426873922" lon="10.571626843884587">
        <ele>2973.98</ele>
        <time>2015-08-01T14:05:32Z</time>
      </trkpt>
      <trkpt lat="46.166946412995458" lon="10.571611505001783">
        <ele>2973.5</ele>
        <time>2015-08-01T14:05:46Z</time>
      </trkpt>
      <trkpt lat="46.166945239529014" lon="10.571603123098612">
        <ele>2973.5</ele>
        <time>2015-08-01T14:05:48Z</time>
      </trkpt>
      <trkpt lat="46.166950520128012" lon="10.571528691798449">
        <ele>2973.5</ele>
        <time>2015-08-01T14:05:58Z</time>
      </trkpt>
      <trkpt lat="46.166947670280933" lon="10.57146767154336">
        <ele>2973.0100000000002</ele>
        <time>2015-08-01T14:06:07Z</time>
      </trkpt>
      <trkpt lat="46.16697097197175" lon="10.571431713178754">
        <ele>2973.5</ele>
        <time>2015-08-01T14:06:18Z</time>
      </trkpt>
      <trkpt lat="46.166968876495957" lon="10.571395084261894">
        <ele>2973.98</ele>
        <time>2015-08-01T14:06:26Z</time>
      </trkpt>
      <trkpt lat="46.166982874274254" lon="10.57137337513268">
        <ele>2973.5</ele>
        <time>2015-08-01T14:06:43Z</time>
      </trkpt>
      <trkpt lat="46.167000224813819" lon="10.571333393454552">
        <ele>2973.5</ele>
        <time>2015-08-01T14:06:53Z</time>
      </trkpt>
      <trkpt lat="46.167017323896289" lon="10.571264578029513">
        <ele>2973.98</ele>
        <time>2015-08-01T14:07:03Z</time>
      </trkpt>
      <trkpt lat="46.166981030255556" lon="10.571224931627512">
        <ele>2972.5300000000002</ele>
        <time>2015-08-01T14:07:12Z</time>
      </trkpt>
      <trkpt lat="46.166990250349045" lon="10.571162905544043">
        <ele>2971.5700000000002</ele>
        <time>2015-08-01T14:07:21Z</time>
      </trkpt>
      <trkpt lat="46.1669787671417" lon="10.571129126474261">
        <ele>2971.0900000000001</ele>
        <time>2015-08-01T14:07:29Z</time>
      </trkpt>
      <trkpt lat="46.166980443522334" lon="10.571059305220842">
        <ele>2970.6100000000001</ele>
        <time>2015-08-01T14:07:41Z</time>
      </trkpt>
      <trkpt lat="46.167007349431515" lon="10.571036674082279">
        <ele>2969.6500000000001</ele>
        <time>2015-08-01T14:07:49Z</time>
      </trkpt>
      <trkpt lat="46.167017910629511" lon="10.571001889184117">
        <ele>2970.1300000000001</ele>
        <time>2015-08-01T14:08:00Z</time>
      </trkpt>
      <trkpt lat="46.167030986398458" lon="10.570927290245891">
        <ele>2970.1300000000001</ele>
        <time>2015-08-01T14:08:09Z</time>
      </trkpt>
      <trkpt lat="46.16700517013669" lon="10.570884123444557">
        <ele>2969.1700000000001</ele>
        <time>2015-08-01T14:08:17Z</time>
      </trkpt>
      <trkpt lat="46.167012127116323" lon="10.57087984867394">
        <ele>2968.21</ele>
        <time>2015-08-01T14:08:31Z</time>
      </trkpt>
      <trkpt lat="46.167017742991447" lon="10.570811703801155">
        <ele>2968.6900000000001</ele>
        <time>2015-08-01T14:08:49Z</time>
      </trkpt>
      <trkpt lat="46.167015396058559" lon="10.570765351876616">
        <ele>2969.6500000000001</ele>
        <time>2015-08-01T14:08:58Z</time>
      </trkpt>
      <trkpt lat="46.167011708021164" lon="10.570763424038887">
        <ele>2969.6500000000001</ele>
        <time>2015-08-01T14:09:00Z</time>
      </trkpt>
      <trkpt lat="46.167027382180095" lon="10.570700643584132">
        <ele>2968.6900000000001</ele>
        <time>2015-08-01T14:09:10Z</time>
      </trkpt>
      <trkpt lat="46.167027717456222" lon="10.570629313588142">
        <ele>2967.25</ele>
        <time>2015-08-01T14:09:20Z</time>
      </trkpt>
      <trkpt lat="46.167049175128341" lon="10.570547003298998">
        <ele>2966.77</ele>
        <time>2015-08-01T14:09:30Z</time>
      </trkpt>
      <trkpt lat="46.1670530308038" lon="10.570489251986146">
        <ele>2967.25</ele>
        <time>2015-08-01T14:09:40Z</time>
      </trkpt>
      <trkpt lat="46.167065855115652" lon="10.570431584492326">
        <ele>2966.29</ele>
        <time>2015-08-01T14:09:50Z</time>
      </trkpt>
      <trkpt lat="46.167066693305969" lon="10.570390094071627">
        <ele>2965.3200000000002</ele>
        <time>2015-08-01T14:09:58Z</time>
      </trkpt>
      <trkpt lat="46.16707306355238" lon="10.570371402427554">
        <ele>2965.3200000000002</ele>
        <time>2015-08-01T14:10:10Z</time>
      </trkpt>
      <trkpt lat="46.167068369686604" lon="10.570358242839575">
        <ele>2965.3200000000002</ele>
        <time>2015-08-01T14:10:22Z</time>
      </trkpt>
      <trkpt lat="46.167072895914316" lon="10.570318093523383">
        <ele>2964.8400000000001</ele>
        <time>2015-08-01T14:10:31Z</time>
      </trkpt>
      <trkpt lat="46.167068537324667" lon="10.570295881479979">
        <ele>2964.3600000000001</ele>
        <time>2015-08-01T14:10:41Z</time>
      </trkpt>
      <trkpt lat="46.167054204270244" lon="10.570304933935404">
        <ele>2963.8800000000001</ele>
        <time>2015-08-01T14:10:53Z</time>
      </trkpt>
      <trkpt lat="46.167030232027173" lon="10.570289259776473">
        <ele>2962.4400000000001</ele>
        <time>2015-08-01T14:11:04Z</time>
      </trkpt>
      <trkpt lat="46.16704280488193" lon="10.570242656394839">
        <ele>2961.48</ele>
        <time>2015-08-01T14:11:14Z</time>
      </trkpt>
      <trkpt lat="46.167043475434184" lon="10.570190772414207">
        <ele>2961</ele>
        <time>2015-08-01T14:11:25Z</time>
      </trkpt>
      <trkpt lat="46.167032495141029" lon="10.570139894261956">
        <ele>2959.5599999999999</ele>
        <time>2015-08-01T14:11:33Z</time>
      </trkpt>
      <trkpt lat="46.167030986398458" lon="10.570129919797182">
        <ele>2959.5599999999999</ele>
        <time>2015-08-01T14:11:43Z</time>
      </trkpt>
      <trkpt lat="46.167018162086606" lon="10.570127153769135">
        <ele>2959.5599999999999</ele>
        <time>2015-08-01T14:11:53Z</time>
      </trkpt>
      <trkpt lat="46.167006678879261" lon="10.570085160434246">
        <ele>2959.5599999999999</ele>
        <time>2015-08-01T14:12:04Z</time>
      </trkpt>
      <trkpt lat="46.167000476270914" lon="10.570055739954114">
        <ele>2960.04</ele>
        <time>2015-08-01T14:12:14Z</time>
      </trkpt>
      <trkpt lat="46.166995111852884" lon="10.570043753832579">
        <ele>2960.04</ele>
        <time>2015-08-01T14:12:28Z</time>
      </trkpt>
      <trkpt lat="46.166999470442533" lon="10.570037718862295">
        <ele>2959.0799999999999</ele>
        <time>2015-08-01T14:12:38Z</time>
      </trkpt>
      <trkpt lat="46.16698807105422" lon="10.570037215948105">
        <ele>2958.5900000000001</ele>
        <time>2015-08-01T14:12:48Z</time>
      </trkpt>
      <trkpt lat="46.166965188458562" lon="10.570026068016887">
        <ele>2958.1100000000001</ele>
        <time>2015-08-01T14:12:59Z</time>
      </trkpt>
      <trkpt lat="46.166970049962401" lon="10.570051884278655">
        <ele>2957.6300000000001</ele>
        <time>2015-08-01T14:13:07Z</time>
      </trkpt>
      <trkpt lat="46.166962003335357" lon="10.570044508203864">
        <ele>2956.6700000000001</ele>
        <time>2015-08-01T14:13:18Z</time>
      </trkpt>
      <trkpt lat="46.166958818212152" lon="10.570053057745099">
        <ele>2955.71</ele>
        <time>2015-08-01T14:13:27Z</time>
      </trkpt>
      <trkpt lat="46.166949514299631" lon="10.570035791024566">
        <ele>2955.71</ele>
        <time>2015-08-01T14:13:38Z</time>
      </trkpt>
      <trkpt lat="46.166947167366743" lon="10.570034869015217">
        <ele>2955.71</ele>
        <time>2015-08-01T14:13:48Z</time>
      </trkpt>
      <trkpt lat="46.166942724958062" lon="10.570033695548773">
        <ele>2955.71</ele>
        <time>2015-08-01T14:13:57Z</time>
      </trkpt>
      <trkpt lat="46.16694163531065" lon="10.57003453373909">
        <ele>2955.71</ele>
        <time>2015-08-01T14:14:09Z</time>
      </trkpt>
      <trkpt lat="46.166966361925006" lon="10.570040317252278">
        <ele>2956.1900000000001</ele>
        <time>2015-08-01T14:14:23Z</time>
      </trkpt>
      <trkpt lat="46.166967200115323" lon="10.570052554830909">
        <ele>2956.1900000000001</ele>
        <time>2015-08-01T14:14:37Z</time>
      </trkpt>
      <trkpt lat="46.166950101032853" lon="10.570033108815551">
        <ele>2956.1900000000001</ele>
        <time>2015-08-01T14:14:52Z</time>
      </trkpt>
      <trkpt lat="46.166953118517995" lon="10.570026068016887">
        <ele>2956.1900000000001</ele>
        <time>2015-08-01T14:15:04Z</time>
      </trkpt>
      <trkpt lat="46.166952531784773" lon="10.570029839873314">
        <ele>2956.1900000000001</ele>
        <time>2015-08-01T14:15:16Z</time>
      </trkpt>
      <trkpt lat="46.1669563036412" lon="10.570017518475652">
        <ele>2955.71</ele>
        <time>2015-08-01T14:15:34Z</time>
      </trkpt>
      <trkpt lat="46.166974995285273" lon="10.570017183199525">
        <ele>2955.71</ele>
        <time>2015-08-01T14:15:47Z</time>
      </trkpt>
      <trkpt lat="46.166980778798461" lon="10.570029588416219">
        <ele>2956.6700000000001</ele>
        <time>2015-08-01T14:15:58Z</time>
      </trkpt>
      <trkpt lat="46.166943646967411" lon="10.570029420778155">
        <ele>2955.71</ele>
        <time>2015-08-01T14:16:10Z</time>
      </trkpt>
      <trkpt lat="46.166957225650549" lon="10.57002573274076">
        <ele>2956.1900000000001</ele>
        <time>2015-08-01T14:16:23Z</time>
      </trkpt>
      <trkpt lat="46.166951442137361" lon="10.570031516253948">
        <ele>2956.6700000000001</ele>
        <time>2015-08-01T14:16:38Z</time>
      </trkpt>
      <trkpt lat="46.166945490986109" lon="10.570026570931077">
        <ele>2956.6700000000001</ele>
        <time>2015-08-01T14:16:52Z</time>
      </trkpt>
      <trkpt lat="46.166939539834857" lon="10.570016345009208">
        <ele>2956.1900000000001</ele>
        <time>2015-08-01T14:17:07Z</time>
      </trkpt>
      <trkpt lat="46.166946915909648" lon="10.570028247311711">
        <ele>2956.1900000000001</ele>
        <time>2015-08-01T14:17:19Z</time>
      </trkpt>
      <trkpt lat="46.166960410773754" lon="10.570021625608206">
        <ele>2956.1900000000001</ele>
        <time>2015-08-01T14:17:31Z</time>
      </trkpt>
      <trkpt lat="46.166967116296291" lon="10.570024978369474">
        <ele>2956.6700000000001</ele>
        <time>2015-08-01T14:17:39Z</time>
      </trkpt>
      <trkpt lat="46.166964685544372" lon="10.570025313645601">
        <ele>2956.6700000000001</ele>
        <time>2015-08-01T14:17:47Z</time>
      </trkpt>
      <trkpt lat="46.16697289980948" lon="10.570022463798523">
        <ele>2957.1500000000001</ele>
        <time>2015-08-01T14:17:55Z</time>
      </trkpt>
      <trkpt lat="46.166975749656558" lon="10.570025565102696">
        <ele>2956.6700000000001</ele>
        <time>2015-08-01T14:18:05Z</time>
      </trkpt>
      <trkpt lat="46.166987819597125" lon="10.570034701377153">
        <ele>2956.6700000000001</ele>
        <time>2015-08-01T14:18:16Z</time>
      </trkpt>
      <trkpt lat="46.166965775191784" lon="10.570022044703364">
        <ele>2956.6700000000001</ele>
        <time>2015-08-01T14:18:27Z</time>
      </trkpt>
      <trkpt lat="46.166972815990448" lon="10.5700081307441">
        <ele>2956.6700000000001</ele>
        <time>2015-08-01T14:18:40Z</time>
      </trkpt>
      <trkpt lat="46.166967200115323" lon="10.570031683892012">
        <ele>2956.1900000000001</ele>
        <time>2015-08-01T14:18:53Z</time>
      </trkpt>
      <trkpt lat="46.166954040527344" lon="10.57005506940186">
        <ele>2957.1500000000001</ele>
        <time>2015-08-01T14:19:03Z</time>
      </trkpt>
      <trkpt lat="46.16696166805923" lon="10.570043670013547">
        <ele>2957.1500000000001</ele>
        <time>2015-08-01T14:19:12Z</time>
      </trkpt>
      <trkpt lat="46.166955213993788" lon="10.570055907592177">
        <ele>2957.1500000000001</ele>
        <time>2015-08-01T14:19:22Z</time>
      </trkpt>
      <trkpt lat="46.166934929788113" lon="10.570041071623564">
        <ele>2956.6700000000001</ele>
        <time>2015-08-01T14:19:32Z</time>
      </trkpt>
      <trkpt lat="46.166923027485609" lon="10.570021709427238">
        <ele>2956.1900000000001</ele>
        <time>2015-08-01T14:19:40Z</time>
      </trkpt>
      <trkpt lat="46.16694800555706" lon="10.570019949227571">
        <ele>2956.6700000000001</ele>
        <time>2015-08-01T14:19:48Z</time>
      </trkpt>
      <trkpt lat="46.166970888152719" lon="10.57004383765161">
        <ele>2956.1900000000001</ele>
        <time>2015-08-01T14:19:57Z</time>
      </trkpt>
      <trkpt lat="46.166973737999797" lon="10.570056159049273">
        <ele>2957.1500000000001</ele>
        <time>2015-08-01T14:20:09Z</time>
      </trkpt>
      <trkpt lat="46.166983963921666" lon="10.570027744397521">
        <ele>2957.1500000000001</ele>
        <time>2015-08-01T14:20:19Z</time>
      </trkpt>
      <trkpt lat="46.166989076882601" lon="10.570019530132413">
        <ele>2957.6300000000001</ele>
        <time>2015-08-01T14:20:29Z</time>
      </trkpt>
      <trkpt lat="46.167011540383101" lon="10.57000033557415">
        <ele>2959.5599999999999</ele>
        <time>2015-08-01T14:20:39Z</time>
      </trkpt>
      <trkpt lat="46.167014557868242" lon="10.570008549839258">
        <ele>2959.5599999999999</ele>
        <time>2015-08-01T14:20:50Z</time>
      </trkpt>
      <trkpt lat="46.166994189843535" lon="10.569996060803533">
        <ele>2960.04</ele>
        <time>2015-08-01T14:21:00Z</time>
      </trkpt>
      <trkpt lat="46.166963092982769" lon="10.57005112990737">
        <ele>2958.1100000000001</ele>
        <time>2015-08-01T14:21:12Z</time>
      </trkpt>
      <trkpt lat="46.166937444359064" lon="10.570017853751779">
        <ele>2957.1500000000001</ele>
        <time>2015-08-01T14:21:17Z</time>
      </trkpt>
      <trkpt lat="46.166947670280933" lon="10.569950295612216">
        <ele>2957.1500000000001</ele>
        <time>2015-08-01T14:21:23Z</time>
      </trkpt>
      <trkpt lat="46.166957980021834" lon="10.56983470916748">
        <ele>2958.1100000000001</ele>
        <time>2015-08-01T14:21:30Z</time>
      </trkpt>
      <trkpt lat="46.16696560755372" lon="10.569653073325753">
        <ele>2958.5900000000001</ele>
        <time>2015-08-01T14:21:44Z</time>
      </trkpt>
      <trkpt lat="46.16699879989028" lon="10.569587778300047">
        <ele>2959.0799999999999</ele>
        <time>2015-08-01T14:21:55Z</time>
      </trkpt>
      <trkpt lat="46.167006595060229" lon="10.569526087492704">
        <ele>2960.04</ele>
        <time>2015-08-01T14:22:04Z</time>
      </trkpt>
      <trkpt lat="46.167004415765405" lon="10.569438077509403">
        <ele>2960.52</ele>
        <time>2015-08-01T14:22:13Z</time>
      </trkpt>
      <trkpt lat="46.167006343603134" lon="10.569395665079355">
        <ele>2961</ele>
        <time>2015-08-01T14:22:17Z</time>
      </trkpt>
      <trkpt lat="46.167062502354383" lon="10.569330370053649">
        <ele>2961.96</ele>
        <time>2015-08-01T14:22:28Z</time>
      </trkpt>
      <trkpt lat="46.167063089087605" lon="10.569212855771184">
        <ele>2963.4000000000001</ele>
        <time>2015-08-01T14:22:40Z</time>
      </trkpt>
      <trkpt lat="46.167064430192113" lon="10.569101544097066">
        <ele>2964.3600000000001</ele>
        <time>2015-08-01T14:22:51Z</time>
      </trkpt>
      <trkpt lat="46.16706183180213" lon="10.568990902975202">
        <ele>2964.8400000000001</ele>
        <time>2015-08-01T14:23:01Z</time>
      </trkpt>
      <trkpt lat="46.167068118229508" lon="10.568894511088729">
        <ele>2965.8000000000002</ele>
        <time>2015-08-01T14:23:12Z</time>
      </trkpt>
      <trkpt lat="46.167063256725669" lon="10.568842208012938">
        <ele>2966.29</ele>
        <time>2015-08-01T14:23:17Z</time>
      </trkpt>
      <trkpt lat="46.167051354423165" lon="10.568739613518119">
        <ele>2967.73</ele>
        <time>2015-08-01T14:23:28Z</time>
      </trkpt>
      <trkpt lat="46.16704867221415" lon="10.568612711504102">
        <ele>2969.1700000000001</ele>
        <time>2015-08-01T14:23:40Z</time>
      </trkpt>
      <trkpt lat="46.167040457949042" lon="10.568524114787579">
        <ele>2970.6100000000001</ele>
        <time>2015-08-01T14:23:51Z</time>
      </trkpt>
      <trkpt lat="46.167010786011815" lon="10.568415820598602">
        <ele>2971.5700000000002</ele>
        <time>2015-08-01T14:24:03Z</time>
      </trkpt>
      <trkpt lat="46.167000643908978" lon="10.568346753716469">
        <ele>2973.0100000000002</ele>
        <time>2015-08-01T14:24:12Z</time>
      </trkpt>
      <trkpt lat="46.166981616988778" lon="10.568230664357543">
        <ele>2973.98</ele>
        <time>2015-08-01T14:24:24Z</time>
      </trkpt>
      <trkpt lat="46.166947837918997" lon="10.568139804527164">
        <ele>2974.9400000000001</ele>
        <time>2015-08-01T14:24:34Z</time>
      </trkpt>
      <trkpt lat="46.166932331398129" lon="10.568019608035684">
        <ele>2975.4200000000001</ele>
        <time>2015-08-01T14:24:46Z</time>
      </trkpt>
      <trkpt lat="46.166921351104975" lon="10.567999156191945">
        <ele>2975.4200000000001</ele>
        <time>2015-08-01T14:24:57Z</time>
      </trkpt>
      <trkpt lat="46.166914813220501" lon="10.568013321608305">
        <ele>2975.4200000000001</ele>
        <time>2015-08-01T14:25:08Z</time>
      </trkpt>
      <trkpt lat="46.16689519956708" lon="10.567909805104136">
        <ele>2975.9000000000001</ele>
        <time>2015-08-01T14:25:17Z</time>
      </trkpt>
      <trkpt lat="46.166833089664578" lon="10.567744597792625">
        <ele>2976.8600000000001</ele>
        <time>2015-08-01T14:25:32Z</time>
      </trkpt>
      <trkpt lat="46.166804926469922" lon="10.567650720477104">
        <ele>2977.3400000000001</ele>
        <time>2015-08-01T14:25:44Z</time>
      </trkpt>
      <trkpt lat="46.166781624779105" lon="10.567572014406323">
        <ele>2977.8200000000002</ele>
        <time>2015-08-01T14:25:53Z</time>
      </trkpt>
      <trkpt lat="46.166750695556402" lon="10.567459026351571">
        <ele>2978.7800000000002</ele>
        <time>2015-08-01T14:26:04Z</time>
      </trkpt>
      <trkpt lat="46.166737619787455" lon="10.567366071045399">
        <ele>2979.7399999999998</ele>
        <time>2015-08-01T14:26:15Z</time>
      </trkpt>
      <trkpt lat="46.166724041104317" lon="10.567271271720529">
        <ele>2980.71</ele>
        <time>2015-08-01T14:26:26Z</time>
      </trkpt>
      <trkpt lat="46.166711049154401" lon="10.567133640870452">
        <ele>2981.1900000000001</ele>
        <time>2015-08-01T14:26:38Z</time>
      </trkpt>
      <trkpt lat="46.166697721928358" lon="10.567016545683146">
        <ele>2982.6300000000001</ele>
        <time>2015-08-01T14:26:49Z</time>
      </trkpt>
      <trkpt lat="46.166676264256239" lon="10.566934905946255">
        <ele>2983.5900000000001</ele>
        <time>2015-08-01T14:27:00Z</time>
      </trkpt>
      <trkpt lat="46.166669558733702" lon="10.566821917891502">
        <ele>2985.0300000000002</ele>
        <time>2015-08-01T14:27:12Z</time>
      </trkpt>
      <trkpt lat="46.166669055819511" lon="10.566748911514878">
        <ele>2985.9899999999998</ele>
        <time>2015-08-01T14:27:22Z</time>
      </trkpt>
      <trkpt lat="46.166691686958075" lon="10.566679341718554">
        <ele>2987.4299999999998</ele>
        <time>2015-08-01T14:27:33Z</time>
      </trkpt>
      <trkpt lat="46.166714234277606" lon="10.566676156595349">
        <ele>2987.4299999999998</ele>
        <time>2015-08-01T14:27:47Z</time>
      </trkpt>
      <trkpt lat="46.166719095781446" lon="10.566659979522228">
        <ele>2987.4299999999998</ele>
        <time>2015-08-01T14:28:02Z</time>
      </trkpt>
      <trkpt lat="46.166693614795804" lon="10.566737679764628">
        <ele>2986.4699999999998</ele>
        <time>2015-08-01T14:28:13Z</time>
      </trkpt>
      <trkpt lat="46.166697386652231" lon="10.566781768575311">
        <ele>2985.5100000000002</ele>
        <time>2015-08-01T14:28:18Z</time>
      </trkpt>
      <trkpt lat="46.166688753291965" lon="10.566897690296173">
        <ele>2984.5500000000002</ele>
        <time>2015-08-01T14:28:29Z</time>
      </trkpt>
      <trkpt lat="46.16667877882719" lon="10.566995171830058">
        <ele>2983.5900000000001</ele>
        <time>2015-08-01T14:28:39Z</time>
      </trkpt>
      <trkpt lat="46.166683724150062" lon="10.567003386095166">
        <ele>2983.5900000000001</ele>
        <time>2015-08-01T14:28:55Z</time>
      </trkpt>
      <trkpt lat="46.166695291176438" lon="10.566982682794333">
        <ele>2983.1100000000001</ele>
        <time>2015-08-01T14:29:08Z</time>
      </trkpt>
      <trkpt lat="46.166683556511998" lon="10.567063149064779">
        <ele>2982.6300000000001</ele>
        <time>2015-08-01T14:29:18Z</time>
      </trkpt>
      <trkpt lat="46.166691770777106" lon="10.567084103822708">
        <ele>2982.6300000000001</ele>
        <time>2015-08-01T14:29:34Z</time>
      </trkpt>
      <trkpt lat="46.166685903444886" lon="10.567082427442074">
        <ele>2982.6300000000001</ele>
        <time>2015-08-01T14:29:52Z</time>
      </trkpt>
      <trkpt lat="46.166658326983452" lon="10.567108578979969">
        <ele>2982.1500000000001</ele>
        <time>2015-08-01T14:30:03Z</time>
      </trkpt>
      <trkpt lat="46.166667379438877" lon="10.567116122692823">
        <ele>2982.1500000000001</ele>
        <time>2015-08-01T14:30:28Z</time>
      </trkpt>
      <trkpt lat="46.166660003364086" lon="10.567080080509186">
        <ele>2982.6300000000001</ele>
        <time>2015-08-01T14:30:46Z</time>
      </trkpt>
      <trkpt lat="46.166656063869596" lon="10.567081924527884">
        <ele>2982.1500000000001</ele>
        <time>2015-08-01T14:31:03Z</time>
      </trkpt>
      <trkpt lat="46.166682550683618" lon="10.567048145458102">
        <ele>2982.1500000000001</ele>
        <time>2015-08-01T14:31:31Z</time>
      </trkpt>
      <trkpt lat="46.166677856817842" lon="10.566929876804352">
        <ele>2983.5900000000001</ele>
        <time>2015-08-01T14:31:42Z</time>
      </trkpt>
      <trkpt lat="46.166678946465254" lon="10.566916801035404">
        <ele>2983.5900000000001</ele>
        <time>2015-08-01T14:31:43Z</time>
      </trkpt>
      <trkpt lat="46.166690597310662" lon="10.566791910678148">
        <ele>2984.5500000000002</ele>
        <time>2015-08-01T14:31:54Z</time>
      </trkpt>
      <trkpt lat="46.166681041941047" lon="10.566731980070472">
        <ele>2985.5100000000002</ele>
        <time>2015-08-01T14:32:00Z</time>
      </trkpt>
      <trkpt lat="46.166714988648891" lon="10.566651178523898">
        <ele>2986.4699999999998</ele>
        <time>2015-08-01T14:32:10Z</time>
      </trkpt>
      <trkpt lat="46.166746923699975" lon="10.566659895703197">
        <ele>2987.4299999999998</ele>
        <time>2015-08-01T14:32:18Z</time>
      </trkpt>
      <trkpt lat="46.166758574545383" lon="10.566623015329242">
        <ele>2990.8000000000002</ele>
        <time>2015-08-01T14:32:25Z</time>
      </trkpt>
      <trkpt lat="46.166804423555732" lon="10.566640868782997">
        <ele>2990.8000000000002</ele>
        <time>2015-08-01T14:32:35Z</time>
      </trkpt>
      <trkpt lat="46.166810542345047" lon="10.566646736115217">
        <ele>2988.8800000000001</ele>
        <time>2015-08-01T14:32:52Z</time>
      </trkpt>
      <trkpt lat="46.166820013895631" lon="10.566640784963965">
        <ele>2990.3200000000002</ele>
        <time>2015-08-01T14:33:01Z</time>
      </trkpt>
      <trkpt lat="46.166830155998468" lon="10.56665176525712">
        <ele>2990.8000000000002</ele>
        <time>2015-08-01T14:33:15Z</time>
      </trkpt>
      <trkpt lat="46.166817331686616" lon="10.566558893769979">
        <ele>2992.2399999999998</ele>
        <time>2015-08-01T14:33:25Z</time>
      </trkpt>
      <trkpt lat="46.166863013058901" lon="10.566568616777658">
        <ele>2994.1599999999999</ele>
        <time>2015-08-01T14:33:34Z</time>
      </trkpt>
      <trkpt lat="46.166915651410818" lon="10.566629637032747">
        <ele>2995.5999999999999</ele>
        <time>2015-08-01T14:33:45Z</time>
      </trkpt>
      <trkpt lat="46.166909197345376" lon="10.566603234037757">
        <ele>2996.0900000000001</ele>
        <time>2015-08-01T14:33:58Z</time>
      </trkpt>
      <trkpt lat="46.166929649189115" lon="10.566504495218396">
        <ele>2998.0100000000002</ele>
        <time>2015-08-01T14:34:10Z</time>
      </trkpt>
      <trkpt lat="46.166966361925006" lon="10.566461747512221">
        <ele>2999.4499999999998</ele>
        <time>2015-08-01T14:34:19Z</time>
      </trkpt>
      <trkpt lat="46.16697633638978" lon="10.566425118595362">
        <ele>3001.3699999999999</ele>
        <time>2015-08-01T14:34:27Z</time>
      </trkpt>
      <trkpt lat="46.167029729112983" lon="10.566415898501873">
        <ele>3002.8200000000002</ele>
        <time>2015-08-01T14:34:38Z</time>
      </trkpt>
      <trkpt lat="46.167025119066238" lon="10.566396787762642">
        <ele>3003.3000000000002</ele>
        <time>2015-08-01T14:34:53Z</time>
      </trkpt>
      <trkpt lat="46.167024448513985" lon="10.56636200286448">
        <ele>3004.7399999999998</ele>
        <time>2015-08-01T14:35:02Z</time>
      </trkpt>
      <trkpt lat="46.167042553424835" lon="10.566341048106551">
        <ele>3006.1799999999998</ele>
        <time>2015-08-01T14:35:11Z</time>
      </trkpt>
      <trkpt lat="46.167073315009475" lon="10.56634783744812">
        <ele>3007.1399999999999</ele>
        <time>2015-08-01T14:35:18Z</time>
      </trkpt>
      <trkpt lat="46.167096951976418" lon="10.566370720043778">
        <ele>3009.0599999999999</ele>
        <time>2015-08-01T14:35:28Z</time>
      </trkpt>
      <trkpt lat="46.167103322222829" lon="10.566377677023411">
        <ele>3009.0599999999999</ele>
        <time>2015-08-01T14:35:41Z</time>
      </trkpt>
      <trkpt lat="46.167131485417485" lon="10.566353453323245">
        <ele>3010.5100000000002</ele>
        <time>2015-08-01T14:35:56Z</time>
      </trkpt>
      <trkpt lat="46.167169790714979" lon="10.566325206309557">
        <ele>3012.4299999999998</ele>
        <time>2015-08-01T14:36:06Z</time>
      </trkpt>
      <trkpt lat="46.167190996930003" lon="10.566283632069826">
        <ele>3013.8699999999999</ele>
        <time>2015-08-01T14:36:16Z</time>
      </trkpt>
      <trkpt lat="46.167211784049869" lon="10.566303916275501">
        <ele>3015.3099999999999</ele>
        <time>2015-08-01T14:36:26Z</time>
      </trkpt>
      <trkpt lat="46.16721723228693" lon="10.566302910447121">
        <ele>3015.3099999999999</ele>
        <time>2015-08-01T14:36:45Z</time>
      </trkpt>
      <trkpt lat="46.167217819020152" lon="10.566293774172664">
        <ele>3015.3099999999999</ele>
        <time>2015-08-01T14:37:11Z</time>
      </trkpt>
      <trkpt lat="46.167212119325995" lon="10.566299809142947">
        <ele>3015.3099999999999</ele>
        <time>2015-08-01T14:37:33Z</time>
      </trkpt>
      <trkpt lat="46.167212203145027" lon="10.566283212974668">
        <ele>3015.3099999999999</ele>
        <time>2015-08-01T14:37:58Z</time>
      </trkpt>
      <trkpt lat="46.167218321934342" lon="10.566296204924583">
        <ele>3015.3099999999999</ele>
        <time>2015-08-01T14:38:28Z</time>
      </trkpt>
      <trkpt lat="46.167217483744025" lon="10.566285895183682">
        <ele>3015.3099999999999</ele>
        <time>2015-08-01T14:38:46Z</time>
      </trkpt>
      <trkpt lat="46.167210778221488" lon="10.566305425018072">
        <ele>3015.3099999999999</ele>
        <time>2015-08-01T14:39:05Z</time>
      </trkpt>
      <trkpt lat="46.167221842333674" lon="10.566284637898207">
        <ele>3015.3099999999999</ele>
        <time>2015-08-01T14:39:22Z</time>
      </trkpt>
      <trkpt lat="46.1672118678689" lon="10.566299892961979">
        <ele>3015.3099999999999</ele>
        <time>2015-08-01T14:39:38Z</time>
      </trkpt>
      <trkpt lat="46.167213544249535" lon="10.566275585442781">
        <ele>3015.79</ele>
        <time>2015-08-01T14:40:03Z</time>
      </trkpt>
      <trkpt lat="46.167224021628499" lon="10.566287571564317">
        <ele>3016.27</ele>
        <time>2015-08-01T14:40:26Z</time>
      </trkpt>
      <trkpt lat="46.167209688574076" lon="10.566288493573666">
        <ele>3015.79</ele>
        <time>2015-08-01T14:40:44Z</time>
      </trkpt>
      <trkpt lat="46.167203988879919" lon="10.5662608332932">
        <ele>3015.79</ele>
        <time>2015-08-01T14:41:02Z</time>
      </trkpt>
      <trkpt lat="46.167204491794109" lon="10.566298048943281">
        <ele>3016.27</ele>
        <time>2015-08-01T14:41:21Z</time>
      </trkpt>
      <trkpt lat="46.167209940031171" lon="10.566302575170994">
        <ele>3016.27</ele>
        <time>2015-08-01T14:41:44Z</time>
      </trkpt>
      <trkpt lat="46.167215220630169" lon="10.566303664818406">
        <ele>3016.75</ele>
        <time>2015-08-01T14:42:01Z</time>
      </trkpt>
      <trkpt lat="46.167215472087264" lon="10.566288745030761">
        <ele>3016.75</ele>
        <time>2015-08-01T14:42:39Z</time>
      </trkpt>
      <trkpt lat="46.167185800150037" lon="10.566272651776671">
        <ele>3016.75</ele>
        <time>2015-08-01T14:43:06Z</time>
      </trkpt>
      <trkpt lat="46.167204156517982" lon="10.566282710060477">
        <ele>3016.75</ele>
        <time>2015-08-01T14:43:30Z</time>
      </trkpt>
      <trkpt lat="46.167218992486596" lon="10.566283632069826">
        <ele>3017.23</ele>
        <time>2015-08-01T14:43:50Z</time>
      </trkpt>
      <trkpt lat="46.167204156517982" lon="10.566283380612731">
        <ele>3017.23</ele>
        <time>2015-08-01T14:44:11Z</time>
      </trkpt>
      <trkpt lat="46.167216226458549" lon="10.566294863820076">
        <ele>3017.7199999999998</ele>
        <time>2015-08-01T14:44:40Z</time>
      </trkpt>
      <trkpt lat="46.167198456823826" lon="10.566301317885518">
        <ele>3017.7199999999998</ele>
        <time>2015-08-01T14:45:05Z</time>
      </trkpt>
      <trkpt lat="46.167188649997115" lon="10.566323194652796">
        <ele>3018.1999999999998</ele>
        <time>2015-08-01T14:45:31Z</time>
      </trkpt>
      <trkpt lat="46.167204575613141" lon="10.566289080306888">
        <ele>3018.1999999999998</ele>
        <time>2015-08-01T14:45:55Z</time>
      </trkpt>
      <trkpt lat="46.167239611968398" lon="10.566260581836104">
        <ele>3020.5999999999999</ele>
        <time>2015-08-01T14:46:06Z</time>
      </trkpt>
      <trkpt lat="46.167240617796779" lon="10.566295366734266">
        <ele>3021.0799999999999</ele>
        <time>2015-08-01T14:46:21Z</time>
      </trkpt>
      <trkpt lat="46.167237348854542" lon="10.566282710060477">
        <ele>3021.0799999999999</ele>
        <time>2015-08-01T14:46:43Z</time>
      </trkpt>
      <trkpt lat="46.167255202308297" lon="10.566208949312568">
        <ele>3022.04</ele>
        <time>2015-08-01T14:46:53Z</time>
      </trkpt>
      <trkpt lat="46.167291328310966" lon="10.566175254061818">
        <ele>3023.48</ele>
        <time>2015-08-01T14:47:00Z</time>
      </trkpt>
      <trkpt lat="46.167283784598112" lon="10.566214313730597">
        <ele>3023.96</ele>
        <time>2015-08-01T14:47:15Z</time>
      </trkpt>
      <trkpt lat="46.167285041883588" lon="10.566148683428764">
        <ele>3023.48</ele>
        <time>2015-08-01T14:47:36Z</time>
      </trkpt>
      <trkpt lat="46.167306918650866" lon="10.566106019541621">
        <ele>3023</ele>
        <time>2015-08-01T14:47:42Z</time>
      </trkpt>
      <trkpt lat="46.167407333850861" lon="10.566045250743628">
        <ele>3021.5599999999999</ele>
        <time>2015-08-01T14:47:53Z</time>
      </trkpt>
      <trkpt lat="46.167443292215466" lon="10.566082634031773">
        <ele>3021.0799999999999</ele>
        <time>2015-08-01T14:48:02Z</time>
      </trkpt>
      <trkpt lat="46.16746885702014" lon="10.566105348989367">
        <ele>3023.48</ele>
        <time>2015-08-01T14:48:11Z</time>
      </trkpt>
      <trkpt lat="46.167482100427151" lon="10.566105432808399">
        <ele>3023.48</ele>
        <time>2015-08-01T14:48:13Z</time>
      </trkpt>
      <trkpt lat="46.167561141774058" lon="10.566114401444793">
        <ele>3025.4099999999999</ele>
        <time>2015-08-01T14:48:24Z</time>
      </trkpt>
      <trkpt lat="46.167621659114957" lon="10.566118340939283">
        <ele>3026.3699999999999</ele>
        <time>2015-08-01T14:48:32Z</time>
      </trkpt>
      <trkpt lat="46.167665999382734" lon="10.566112138330936">
        <ele>3027.3299999999999</ele>
        <time>2015-08-01T14:48:41Z</time>
      </trkpt>
      <trkpt lat="46.167738838121295" lon="10.566128650680184">
        <ele>3028.77</ele>
        <time>2015-08-01T14:48:51Z</time>
      </trkpt>
      <trkpt lat="46.167798265814781" lon="10.566109707579017">
        <ele>3029.73</ele>
        <time>2015-08-01T14:49:00Z</time>
      </trkpt>
      <trkpt lat="46.167855598032475" lon="10.566059248521924">
        <ele>3030.21</ele>
        <time>2015-08-01T14:49:10Z</time>
      </trkpt>
      <trkpt lat="46.167868925258517" lon="10.566001664847136">
        <ele>3029.73</ele>
        <time>2015-08-01T14:49:19Z</time>
      </trkpt>
      <trkpt lat="46.167878145352006" lon="10.565960425883532">
        <ele>3028.29</ele>
        <time>2015-08-01T14:49:26Z</time>
      </trkpt>
      <trkpt lat="46.167878983542323" lon="10.565889766439795">
        <ele>3026.3699999999999</ele>
        <time>2015-08-01T14:49:34Z</time>
      </trkpt>
      <trkpt lat="46.167874876409769" lon="10.565891191363335">
        <ele>3025.8899999999999</ele>
        <time>2015-08-01T14:49:36Z</time>
      </trkpt>
      <trkpt lat="46.167913265526295" lon="10.565793290734291">
        <ele>3023.96</ele>
        <time>2015-08-01T14:49:46Z</time>
      </trkpt>
      <trkpt lat="46.167915193364024" lon="10.56574878282845">
        <ele>3022.52</ele>
        <time>2015-08-01T14:49:50Z</time>
      </trkpt>
      <trkpt lat="46.167966322973371" lon="10.565608972683549">
        <ele>3020.5999999999999</ele>
        <time>2015-08-01T14:50:00Z</time>
      </trkpt>
      <trkpt lat="46.167986523360014" lon="10.565556418150663">
        <ele>3020.1199999999999</ele>
        <time>2015-08-01T14:50:07Z</time>
      </trkpt>
      <trkpt lat="46.168022817000747" lon="10.565514005720615">
        <ele>3019.6399999999999</ele>
        <time>2015-08-01T14:50:12Z</time>
      </trkpt>
      <trkpt lat="46.168096996843815" lon="10.56543798185885">
        <ele>3020.5999999999999</ele>
        <time>2015-08-01T14:50:21Z</time>
      </trkpt>
      <trkpt lat="46.16811434738338" lon="10.565419876947999">
        <ele>3021.5599999999999</ele>
        <time>2015-08-01T14:50:24Z</time>
      </trkpt>
      <trkpt lat="46.168166315183043" lon="10.565371094271541">
        <ele>3022.04</ele>
        <time>2015-08-01T14:50:31Z</time>
      </trkpt>
      <trkpt lat="46.168205207213759" lon="10.565322730690241">
        <ele>3023.48</ele>
        <time>2015-08-01T14:50:36Z</time>
      </trkpt>
      <trkpt lat="46.168249966576695" lon="10.565313929691911">
        <ele>3023</ele>
        <time>2015-08-01T14:50:41Z</time>
      </trkpt>
      <trkpt lat="46.168308891355991" lon="10.565273277461529">
        <ele>3024.9299999999998</ele>
        <time>2015-08-01T14:50:51Z</time>
      </trkpt>
      <trkpt lat="46.168322134763002" lon="10.565273277461529">
        <ele>3025.4099999999999</ele>
        <time>2015-08-01T14:51:03Z</time>
      </trkpt>
      <trkpt lat="46.168389106169343" lon="10.565184010192752">
        <ele>3025.4099999999999</ele>
        <time>2015-08-01T14:51:14Z</time>
      </trkpt>
      <trkpt lat="46.168440487235785" lon="10.565145369619131">
        <ele>3026.8499999999999</ele>
        <time>2015-08-01T14:51:23Z</time>
      </trkpt>
      <trkpt lat="46.168485581874847" lon="10.565085522830486">
        <ele>3028.29</ele>
        <time>2015-08-01T14:51:33Z</time>
      </trkpt>
      <trkpt lat="46.168517097830772" lon="10.56504269130528">
        <ele>3030.6900000000001</ele>
        <time>2015-08-01T14:51:44Z</time>
      </trkpt>
      <trkpt lat="46.168532771989703" lon="10.565009918063879">
        <ele>3031.1700000000001</ele>
        <time>2015-08-01T14:51:47Z</time>
      </trkpt>
      <trkpt lat="46.168597480282187" lon="10.564928278326988">
        <ele>3031.1700000000001</ele>
        <time>2015-08-01T14:51:55Z</time>
      </trkpt>
      <trkpt lat="46.168606532737613" lon="10.564917549490929">
        <ele>3031.1700000000001</ele>
        <time>2015-08-01T14:51:56Z</time>
      </trkpt>
      <trkpt lat="46.168645089492202" lon="10.564881172031164">
        <ele>3031.1700000000001</ele>
        <time>2015-08-01T14:52:00Z</time>
      </trkpt>
      <trkpt lat="46.168680712580681" lon="10.564851919189095">
        <ele>3031.1700000000001</ele>
        <time>2015-08-01T14:52:04Z</time>
      </trkpt>
      <trkpt lat="46.16871046833694" lon="10.564809506759048">
        <ele>3031.1700000000001</ele>
        <time>2015-08-01T14:52:08Z</time>
      </trkpt>
      <trkpt lat="46.168807530775666" lon="10.565271014347672">
        <ele>3031.6599999999999</ele>
        <time>2015-08-01T14:52:38Z</time>
      </trkpt>
    </trkseg>
  </trk>

</gpx>